<?xml version="1.0" encoding="UTF-8"?>
<gpx version="1.1" creator="https://www.youtrack.es" xsi:schemaLocation="http://www.topografix.com/GPX/1/1 http://www.topografix.com/GPX/1/1/gpx.xsd http://www.garmin.com/xmlschemas/GpxExtensions/v3 http://www.garmin.com/xmlschemas/GpxExtensionsv3.xsd http://www.garmin.com/xmlschemas/TrackPointExtension/v1 http://www.garmin.com/xmlschemas/TrackPointExtensionv1.xsd" xmlns:gpxtpx="http://www.garmin.com/xmlschemas/TrackPointExtension/v1" xmlns:gpxx="http://www.garmin.com/xmlschemas/GpxExtensions/v3" xmlns:xsi="http://www.w3.org/2001/XMLSchema-instance">
  <metadata>
    <link href="https://www.youtrack.es">
      <text>YouTrack.es</text>
    </link>
    <time>2026-05-08T22:09:21Z</time>
  </metadata>
  <trk>
    <src>https://www.youtrack.es</src>
    <link href="https://www.youtrack.es/ruta/3491-sa-calobra">
      <text>YouTrack.es</text>
    </link>
    <trkseg>
      <trkpt lat="39.8284800" lon="2.8982050">
        <ele>554.3</ele>
        <time>2018-12-30T14:45:28Z</time>
      </trkpt>
      <trkpt lat="39.8284370" lon="2.8981750">
        <ele>554.4</ele>
        <time>2018-12-30T14:45:29Z</time>
      </trkpt>
      <trkpt lat="39.8284630" lon="2.8981970">
        <ele>554.4</ele>
        <time>2018-12-30T14:45:38Z</time>
      </trkpt>
      <trkpt lat="39.8285020" lon="2.8982100">
        <ele>554.5</ele>
        <time>2018-12-30T14:45:41Z</time>
      </trkpt>
      <trkpt lat="39.8285480" lon="2.8982170">
        <ele>554.5</ele>
        <time>2018-12-30T14:45:43Z</time>
      </trkpt>
      <trkpt lat="39.8286030" lon="2.8982270">
        <ele>554.6</ele>
        <time>2018-12-30T14:45:45Z</time>
      </trkpt>
      <trkpt lat="39.8286320" lon="2.8982330">
        <ele>554.6</ele>
        <time>2018-12-30T14:45:46Z</time>
      </trkpt>
      <trkpt lat="39.8286600" lon="2.8982400">
        <ele>554.7</ele>
        <time>2018-12-30T14:45:47Z</time>
      </trkpt>
      <trkpt lat="39.8286900" lon="2.8982430">
        <ele>554.7</ele>
        <time>2018-12-30T14:45:48Z</time>
      </trkpt>
      <trkpt lat="39.8287180" lon="2.8982420">
        <ele>554.7</ele>
        <time>2018-12-30T14:45:49Z</time>
      </trkpt>
      <trkpt lat="39.8287480" lon="2.8982450">
        <ele>554.8</ele>
        <time>2018-12-30T14:45:50Z</time>
      </trkpt>
      <trkpt lat="39.8287780" lon="2.8982470">
        <ele>554.8</ele>
        <time>2018-12-30T14:45:51Z</time>
      </trkpt>
      <trkpt lat="39.8288080" lon="2.8982480">
        <ele>554.9</ele>
        <time>2018-12-30T14:45:52Z</time>
      </trkpt>
      <trkpt lat="39.8288380" lon="2.8982520">
        <ele>555.0</ele>
        <time>2018-12-30T14:45:53Z</time>
      </trkpt>
      <trkpt lat="39.8288670" lon="2.8982450">
        <ele>555.0</ele>
        <time>2018-12-30T14:45:54Z</time>
      </trkpt>
      <trkpt lat="39.8289000" lon="2.8982370">
        <ele>555.1</ele>
        <time>2018-12-30T14:45:55Z</time>
      </trkpt>
      <trkpt lat="39.8289350" lon="2.8982230">
        <ele>555.2</ele>
        <time>2018-12-30T14:45:56Z</time>
      </trkpt>
      <trkpt lat="39.8289680" lon="2.8982080">
        <ele>555.4</ele>
        <time>2018-12-30T14:45:57Z</time>
      </trkpt>
      <trkpt lat="39.8290030" lon="2.8981880">
        <ele>555.5</ele>
        <time>2018-12-30T14:45:58Z</time>
      </trkpt>
      <trkpt lat="39.8290370" lon="2.8981530">
        <ele>555.7</ele>
        <time>2018-12-30T14:45:59Z</time>
      </trkpt>
      <trkpt lat="39.8290720" lon="2.8981220">
        <ele>555.8</ele>
        <time>2018-12-30T14:46:00Z</time>
      </trkpt>
      <trkpt lat="39.8291070" lon="2.8980880">
        <ele>556.0</ele>
        <time>2018-12-30T14:46:01Z</time>
      </trkpt>
      <trkpt lat="39.8291380" lon="2.8980530">
        <ele>556.2</ele>
        <time>2018-12-30T14:46:02Z</time>
      </trkpt>
      <trkpt lat="39.8291680" lon="2.8980150">
        <ele>556.3</ele>
        <time>2018-12-30T14:46:03Z</time>
      </trkpt>
      <trkpt lat="39.8291970" lon="2.8979720">
        <ele>556.5</ele>
        <time>2018-12-30T14:46:04Z</time>
      </trkpt>
      <trkpt lat="39.8292220" lon="2.8979230">
        <ele>556.7</ele>
        <time>2018-12-30T14:46:05Z</time>
      </trkpt>
      <trkpt lat="39.8292480" lon="2.8978780">
        <ele>556.8</ele>
        <time>2018-12-30T14:46:06Z</time>
      </trkpt>
      <trkpt lat="39.8292750" lon="2.8978330">
        <ele>557.0</ele>
        <time>2018-12-30T14:46:07Z</time>
      </trkpt>
      <trkpt lat="39.8293000" lon="2.8977880">
        <ele>557.2</ele>
        <time>2018-12-30T14:46:08Z</time>
      </trkpt>
      <trkpt lat="39.8293250" lon="2.8977380">
        <ele>557.6</ele>
        <time>2018-12-30T14:46:09Z</time>
      </trkpt>
      <trkpt lat="39.8293530" lon="2.8976900">
        <ele>557.6</ele>
        <time>2018-12-30T14:46:10Z</time>
      </trkpt>
      <trkpt lat="39.8293820" lon="2.8976420">
        <ele>557.7</ele>
        <time>2018-12-30T14:46:11Z</time>
      </trkpt>
      <trkpt lat="39.8294080" lon="2.8975930">
        <ele>558.1</ele>
        <time>2018-12-30T14:46:12Z</time>
      </trkpt>
      <trkpt lat="39.8294330" lon="2.8975430">
        <ele>558.4</ele>
        <time>2018-12-30T14:46:13Z</time>
      </trkpt>
      <trkpt lat="39.8294580" lon="2.8974950">
        <ele>558.8</ele>
        <time>2018-12-30T14:46:14Z</time>
      </trkpt>
      <trkpt lat="39.8294830" lon="2.8974500">
        <ele>559.1</ele>
        <time>2018-12-30T14:46:15Z</time>
      </trkpt>
      <trkpt lat="39.8295100" lon="2.8974050">
        <ele>559.4</ele>
        <time>2018-12-30T14:46:16Z</time>
      </trkpt>
      <trkpt lat="39.8295370" lon="2.8973580">
        <ele>559.7</ele>
        <time>2018-12-30T14:46:17Z</time>
      </trkpt>
      <trkpt lat="39.8295620" lon="2.8973130">
        <ele>560.0</ele>
        <time>2018-12-30T14:46:18Z</time>
      </trkpt>
      <trkpt lat="39.8295870" lon="2.8972670">
        <ele>560.3</ele>
        <time>2018-12-30T14:46:19Z</time>
      </trkpt>
      <trkpt lat="39.8296120" lon="2.8972200">
        <ele>560.6</ele>
        <time>2018-12-30T14:46:20Z</time>
      </trkpt>
      <trkpt lat="39.8296350" lon="2.8971730">
        <ele>560.9</ele>
        <time>2018-12-30T14:46:21Z</time>
      </trkpt>
      <trkpt lat="39.8296580" lon="2.8971280">
        <ele>561.2</ele>
        <time>2018-12-30T14:46:22Z</time>
      </trkpt>
      <trkpt lat="39.8296830" lon="2.8970700">
        <ele>561.5</ele>
        <time>2018-12-30T14:46:23Z</time>
      </trkpt>
      <trkpt lat="39.8297100" lon="2.8970150">
        <ele>561.8</ele>
        <time>2018-12-30T14:46:24Z</time>
      </trkpt>
      <trkpt lat="39.8297370" lon="2.8969650">
        <ele>562.1</ele>
        <time>2018-12-30T14:46:25Z</time>
      </trkpt>
      <trkpt lat="39.8297630" lon="2.8969120">
        <ele>562.3</ele>
        <time>2018-12-30T14:46:26Z</time>
      </trkpt>
      <trkpt lat="39.8297920" lon="2.8968580">
        <ele>562.6</ele>
        <time>2018-12-30T14:46:27Z</time>
      </trkpt>
      <trkpt lat="39.8298200" lon="2.8968100">
        <ele>562.8</ele>
        <time>2018-12-30T14:46:28Z</time>
      </trkpt>
      <trkpt lat="39.8298480" lon="2.8967570">
        <ele>563.0</ele>
        <time>2018-12-30T14:46:29Z</time>
      </trkpt>
      <trkpt lat="39.8298770" lon="2.8967030">
        <ele>563.3</ele>
        <time>2018-12-30T14:46:30Z</time>
      </trkpt>
      <trkpt lat="39.8299070" lon="2.8966570">
        <ele>563.5</ele>
        <time>2018-12-30T14:46:31Z</time>
      </trkpt>
      <trkpt lat="39.8299370" lon="2.8966070">
        <ele>563.7</ele>
        <time>2018-12-30T14:46:32Z</time>
      </trkpt>
      <trkpt lat="39.8299630" lon="2.8965550">
        <ele>564.0</ele>
        <time>2018-12-30T14:46:33Z</time>
      </trkpt>
      <trkpt lat="39.8299920" lon="2.8965030">
        <ele>564.2</ele>
        <time>2018-12-30T14:46:34Z</time>
      </trkpt>
      <trkpt lat="39.8300200" lon="2.8964550">
        <ele>564.2</ele>
        <time>2018-12-30T14:46:35Z</time>
      </trkpt>
      <trkpt lat="39.8300500" lon="2.8964030">
        <ele>564.3</ele>
        <time>2018-12-30T14:46:36Z</time>
      </trkpt>
      <trkpt lat="39.8300780" lon="2.8963480">
        <ele>564.3</ele>
        <time>2018-12-30T14:46:37Z</time>
      </trkpt>
      <trkpt lat="39.8301070" lon="2.8962950">
        <ele>564.3</ele>
        <time>2018-12-30T14:46:38Z</time>
      </trkpt>
      <trkpt lat="39.8301370" lon="2.8962420">
        <ele>564.3</ele>
        <time>2018-12-30T14:46:39Z</time>
      </trkpt>
      <trkpt lat="39.8301680" lon="2.8961920">
        <ele>564.4</ele>
        <time>2018-12-30T14:46:40Z</time>
      </trkpt>
      <trkpt lat="39.8302020" lon="2.8961430">
        <ele>564.4</ele>
        <time>2018-12-30T14:46:41Z</time>
      </trkpt>
      <trkpt lat="39.8302370" lon="2.8960980">
        <ele>564.4</ele>
        <time>2018-12-30T14:46:42Z</time>
      </trkpt>
      <trkpt lat="39.8302750" lon="2.8960570">
        <ele>564.4</ele>
        <time>2018-12-30T14:46:43Z</time>
      </trkpt>
      <trkpt lat="39.8303120" lon="2.8960220">
        <ele>564.5</ele>
        <time>2018-12-30T14:46:44Z</time>
      </trkpt>
      <trkpt lat="39.8303550" lon="2.8959850">
        <ele>564.5</ele>
        <time>2018-12-30T14:46:45Z</time>
      </trkpt>
      <trkpt lat="39.8303970" lon="2.8959520">
        <ele>564.5</ele>
        <time>2018-12-30T14:46:46Z</time>
      </trkpt>
      <trkpt lat="39.8304350" lon="2.8959220">
        <ele>564.5</ele>
        <time>2018-12-30T14:46:47Z</time>
      </trkpt>
      <trkpt lat="39.8304800" lon="2.8958870">
        <ele>564.5</ele>
        <time>2018-12-30T14:46:48Z</time>
      </trkpt>
      <trkpt lat="39.8305270" lon="2.8958650">
        <ele>564.5</ele>
        <time>2018-12-30T14:46:49Z</time>
      </trkpt>
      <trkpt lat="39.8305750" lon="2.8958430">
        <ele>564.5</ele>
        <time>2018-12-30T14:46:50Z</time>
      </trkpt>
      <trkpt lat="39.8306170" lon="2.8958300">
        <ele>564.6</ele>
        <time>2018-12-30T14:46:51Z</time>
      </trkpt>
      <trkpt lat="39.8306650" lon="2.8958100">
        <ele>564.6</ele>
        <time>2018-12-30T14:46:52Z</time>
      </trkpt>
      <trkpt lat="39.8307130" lon="2.8957950">
        <ele>564.6</ele>
        <time>2018-12-30T14:46:53Z</time>
      </trkpt>
      <trkpt lat="39.8307650" lon="2.8957730">
        <ele>564.6</ele>
        <time>2018-12-30T14:46:54Z</time>
      </trkpt>
      <trkpt lat="39.8308180" lon="2.8957550">
        <ele>564.7</ele>
        <time>2018-12-30T14:46:55Z</time>
      </trkpt>
      <trkpt lat="39.8308750" lon="2.8957350">
        <ele>564.8</ele>
        <time>2018-12-30T14:46:56Z</time>
      </trkpt>
      <trkpt lat="39.8309330" lon="2.8957130">
        <ele>564.9</ele>
        <time>2018-12-30T14:46:57Z</time>
      </trkpt>
      <trkpt lat="39.8309950" lon="2.8956900">
        <ele>564.9</ele>
        <time>2018-12-30T14:46:58Z</time>
      </trkpt>
      <trkpt lat="39.8310570" lon="2.8956720">
        <ele>565.0</ele>
        <time>2018-12-30T14:46:59Z</time>
      </trkpt>
      <trkpt lat="39.8311220" lon="2.8956500">
        <ele>565.0</ele>
        <time>2018-12-30T14:47:00Z</time>
      </trkpt>
      <trkpt lat="39.8311850" lon="2.8956320">
        <ele>565.1</ele>
        <time>2018-12-30T14:47:01Z</time>
      </trkpt>
      <trkpt lat="39.8312480" lon="2.8956230">
        <ele>565.1</ele>
        <time>2018-12-30T14:47:02Z</time>
      </trkpt>
      <trkpt lat="39.8313100" lon="2.8956170">
        <ele>565.1</ele>
        <time>2018-12-30T14:47:03Z</time>
      </trkpt>
      <trkpt lat="39.8313680" lon="2.8956100">
        <ele>565.1</ele>
        <time>2018-12-30T14:47:04Z</time>
      </trkpt>
      <trkpt lat="39.8314280" lon="2.8955980">
        <ele>565.1</ele>
        <time>2018-12-30T14:47:05Z</time>
      </trkpt>
      <trkpt lat="39.8314900" lon="2.8955870">
        <ele>565.1</ele>
        <time>2018-12-30T14:47:06Z</time>
      </trkpt>
      <trkpt lat="39.8315500" lon="2.8955850">
        <ele>565.1</ele>
        <time>2018-12-30T14:47:07Z</time>
      </trkpt>
      <trkpt lat="39.8316150" lon="2.8955900">
        <ele>565.1</ele>
        <time>2018-12-30T14:47:08Z</time>
      </trkpt>
      <trkpt lat="39.8316820" lon="2.8956020">
        <ele>565.1</ele>
        <time>2018-12-30T14:47:09Z</time>
      </trkpt>
      <trkpt lat="39.8317530" lon="2.8956080">
        <ele>565.1</ele>
        <time>2018-12-30T14:47:10Z</time>
      </trkpt>
      <trkpt lat="39.8318230" lon="2.8956120">
        <ele>565.0</ele>
        <time>2018-12-30T14:47:11Z</time>
      </trkpt>
      <trkpt lat="39.8318950" lon="2.8956230">
        <ele>565.0</ele>
        <time>2018-12-30T14:47:12Z</time>
      </trkpt>
      <trkpt lat="39.8319680" lon="2.8956350">
        <ele>565.0</ele>
        <time>2018-12-30T14:47:13Z</time>
      </trkpt>
      <trkpt lat="39.8320430" lon="2.8956480">
        <ele>564.8</ele>
        <time>2018-12-30T14:47:14Z</time>
      </trkpt>
      <trkpt lat="39.8321180" lon="2.8956580">
        <ele>564.7</ele>
        <time>2018-12-30T14:47:15Z</time>
      </trkpt>
      <trkpt lat="39.8321950" lon="2.8956680">
        <ele>564.5</ele>
        <time>2018-12-30T14:47:16Z</time>
      </trkpt>
      <trkpt lat="39.8322780" lon="2.8956820">
        <ele>564.3</ele>
        <time>2018-12-30T14:47:17Z</time>
      </trkpt>
      <trkpt lat="39.8323620" lon="2.8956930">
        <ele>564.1</ele>
        <time>2018-12-30T14:47:18Z</time>
      </trkpt>
      <trkpt lat="39.8324520" lon="2.8957080">
        <ele>563.9</ele>
        <time>2018-12-30T14:47:19Z</time>
      </trkpt>
      <trkpt lat="39.8325420" lon="2.8957220">
        <ele>563.7</ele>
        <time>2018-12-30T14:47:20Z</time>
      </trkpt>
      <trkpt lat="39.8326370" lon="2.8957380">
        <ele>563.4</ele>
        <time>2018-12-30T14:47:21Z</time>
      </trkpt>
      <trkpt lat="39.8327330" lon="2.8957500">
        <ele>563.0</ele>
        <time>2018-12-30T14:47:22Z</time>
      </trkpt>
      <trkpt lat="39.8328320" lon="2.8957650">
        <ele>562.6</ele>
        <time>2018-12-30T14:47:23Z</time>
      </trkpt>
      <trkpt lat="39.8329350" lon="2.8957830">
        <ele>562.2</ele>
        <time>2018-12-30T14:47:24Z</time>
      </trkpt>
      <trkpt lat="39.8330380" lon="2.8958000">
        <ele>561.7</ele>
        <time>2018-12-30T14:47:25Z</time>
      </trkpt>
      <trkpt lat="39.8331430" lon="2.8958130">
        <ele>561.1</ele>
        <time>2018-12-30T14:47:26Z</time>
      </trkpt>
      <trkpt lat="39.8332520" lon="2.8958200">
        <ele>560.4</ele>
        <time>2018-12-30T14:47:27Z</time>
      </trkpt>
      <trkpt lat="39.8333620" lon="2.8958250">
        <ele>559.6</ele>
        <time>2018-12-30T14:47:28Z</time>
      </trkpt>
      <trkpt lat="39.8334700" lon="2.8958180">
        <ele>558.8</ele>
        <time>2018-12-30T14:47:29Z</time>
      </trkpt>
      <trkpt lat="39.8335820" lon="2.8958130">
        <ele>558.0</ele>
        <time>2018-12-30T14:47:30Z</time>
      </trkpt>
      <trkpt lat="39.8336930" lon="2.8958030">
        <ele>557.2</ele>
        <time>2018-12-30T14:47:31Z</time>
      </trkpt>
      <trkpt lat="39.8338070" lon="2.8957930">
        <ele>556.6</ele>
        <time>2018-12-30T14:47:32Z</time>
      </trkpt>
      <trkpt lat="39.8339220" lon="2.8957830">
        <ele>556.1</ele>
        <time>2018-12-30T14:47:33Z</time>
      </trkpt>
      <trkpt lat="39.8340370" lon="2.8957730">
        <ele>555.5</ele>
        <time>2018-12-30T14:47:34Z</time>
      </trkpt>
      <trkpt lat="39.8341520" lon="2.8957650">
        <ele>555.0</ele>
        <time>2018-12-30T14:47:35Z</time>
      </trkpt>
      <trkpt lat="39.8342680" lon="2.8957550">
        <ele>554.4</ele>
        <time>2018-12-30T14:47:36Z</time>
      </trkpt>
      <trkpt lat="39.8343830" lon="2.8957580">
        <ele>553.8</ele>
        <time>2018-12-30T14:47:37Z</time>
      </trkpt>
      <trkpt lat="39.8344980" lon="2.8957750">
        <ele>553.2</ele>
        <time>2018-12-30T14:47:38Z</time>
      </trkpt>
      <trkpt lat="39.8346120" lon="2.8958080">
        <ele>552.7</ele>
        <time>2018-12-30T14:47:39Z</time>
      </trkpt>
      <trkpt lat="39.8347170" lon="2.8958530">
        <ele>552.2</ele>
        <time>2018-12-30T14:47:40Z</time>
      </trkpt>
      <trkpt lat="39.8348100" lon="2.8959170">
        <ele>551.8</ele>
        <time>2018-12-30T14:47:41Z</time>
      </trkpt>
      <trkpt lat="39.8348970" lon="2.8959970">
        <ele>551.4</ele>
        <time>2018-12-30T14:47:42Z</time>
      </trkpt>
      <trkpt lat="39.8349800" lon="2.8960980">
        <ele>550.8</ele>
        <time>2018-12-30T14:47:43Z</time>
      </trkpt>
      <trkpt lat="39.8350670" lon="2.8961900">
        <ele>550.2</ele>
        <time>2018-12-30T14:47:44Z</time>
      </trkpt>
      <trkpt lat="39.8351520" lon="2.8962870">
        <ele>549.6</ele>
        <time>2018-12-30T14:47:45Z</time>
      </trkpt>
      <trkpt lat="39.8352370" lon="2.8963820">
        <ele>548.9</ele>
        <time>2018-12-30T14:47:46Z</time>
      </trkpt>
      <trkpt lat="39.8353220" lon="2.8964750">
        <ele>548.3</ele>
        <time>2018-12-30T14:47:47Z</time>
      </trkpt>
      <trkpt lat="39.8354120" lon="2.8965600">
        <ele>547.8</ele>
        <time>2018-12-30T14:47:48Z</time>
      </trkpt>
      <trkpt lat="39.8355080" lon="2.8966320">
        <ele>547.3</ele>
        <time>2018-12-30T14:47:49Z</time>
      </trkpt>
      <trkpt lat="39.8356130" lon="2.8966920">
        <ele>546.6</ele>
        <time>2018-12-30T14:47:50Z</time>
      </trkpt>
      <trkpt lat="39.8357220" lon="2.8967470">
        <ele>546.0</ele>
        <time>2018-12-30T14:47:51Z</time>
      </trkpt>
      <trkpt lat="39.8358300" lon="2.8967970">
        <ele>545.3</ele>
        <time>2018-12-30T14:47:52Z</time>
      </trkpt>
      <trkpt lat="39.8359370" lon="2.8968370">
        <ele>544.7</ele>
        <time>2018-12-30T14:47:53Z</time>
      </trkpt>
      <trkpt lat="39.8360420" lon="2.8968820">
        <ele>544.0</ele>
        <time>2018-12-30T14:47:54Z</time>
      </trkpt>
      <trkpt lat="39.8361470" lon="2.8969270">
        <ele>543.3</ele>
        <time>2018-12-30T14:47:55Z</time>
      </trkpt>
      <trkpt lat="39.8362520" lon="2.8969650">
        <ele>542.5</ele>
        <time>2018-12-30T14:47:56Z</time>
      </trkpt>
      <trkpt lat="39.8363570" lon="2.8970020">
        <ele>541.7</ele>
        <time>2018-12-30T14:47:57Z</time>
      </trkpt>
      <trkpt lat="39.8364550" lon="2.8970470">
        <ele>541.1</ele>
        <time>2018-12-30T14:47:58Z</time>
      </trkpt>
      <trkpt lat="39.8365550" lon="2.8970870">
        <ele>540.8</ele>
        <time>2018-12-30T14:47:59Z</time>
      </trkpt>
      <trkpt lat="39.8366550" lon="2.8971280">
        <ele>540.5</ele>
        <time>2018-12-30T14:48:00Z</time>
      </trkpt>
      <trkpt lat="39.8367580" lon="2.8971680">
        <ele>540.1</ele>
        <time>2018-12-30T14:48:01Z</time>
      </trkpt>
      <trkpt lat="39.8368650" lon="2.8972070">
        <ele>539.6</ele>
        <time>2018-12-30T14:48:02Z</time>
      </trkpt>
      <trkpt lat="39.8369720" lon="2.8972420">
        <ele>539.0</ele>
        <time>2018-12-30T14:48:03Z</time>
      </trkpt>
      <trkpt lat="39.8370770" lon="2.8972820">
        <ele>538.4</ele>
        <time>2018-12-30T14:48:04Z</time>
      </trkpt>
      <trkpt lat="39.8371770" lon="2.8973150">
        <ele>537.8</ele>
        <time>2018-12-30T14:48:05Z</time>
      </trkpt>
      <trkpt lat="39.8372820" lon="2.8973400">
        <ele>537.2</ele>
        <time>2018-12-30T14:48:06Z</time>
      </trkpt>
      <trkpt lat="39.8373880" lon="2.8973500">
        <ele>536.5</ele>
        <time>2018-12-30T14:48:07Z</time>
      </trkpt>
      <trkpt lat="39.8374970" lon="2.8973520">
        <ele>535.7</ele>
        <time>2018-12-30T14:48:08Z</time>
      </trkpt>
      <trkpt lat="39.8376100" lon="2.8973380">
        <ele>535.0</ele>
        <time>2018-12-30T14:48:09Z</time>
      </trkpt>
      <trkpt lat="39.8377230" lon="2.8973120">
        <ele>534.2</ele>
        <time>2018-12-30T14:48:10Z</time>
      </trkpt>
      <trkpt lat="39.8378370" lon="2.8972820">
        <ele>533.0</ele>
        <time>2018-12-30T14:48:11Z</time>
      </trkpt>
      <trkpt lat="39.8379530" lon="2.8972480">
        <ele>531.6</ele>
        <time>2018-12-30T14:48:12Z</time>
      </trkpt>
      <trkpt lat="39.8380730" lon="2.8972120">
        <ele>530.2</ele>
        <time>2018-12-30T14:48:13Z</time>
      </trkpt>
      <trkpt lat="39.8381930" lon="2.8971770">
        <ele>528.9</ele>
        <time>2018-12-30T14:48:14Z</time>
      </trkpt>
      <trkpt lat="39.8383130" lon="2.8971430">
        <ele>527.7</ele>
        <time>2018-12-30T14:48:15Z</time>
      </trkpt>
      <trkpt lat="39.8384330" lon="2.8971050">
        <ele>526.6</ele>
        <time>2018-12-30T14:48:16Z</time>
      </trkpt>
      <trkpt lat="39.8385580" lon="2.8970650">
        <ele>525.6</ele>
        <time>2018-12-30T14:48:17Z</time>
      </trkpt>
      <trkpt lat="39.8386800" lon="2.8970250">
        <ele>524.8</ele>
        <time>2018-12-30T14:48:18Z</time>
      </trkpt>
      <trkpt lat="39.8388030" lon="2.8969880">
        <ele>524.1</ele>
        <time>2018-12-30T14:48:19Z</time>
      </trkpt>
      <trkpt lat="39.8389250" lon="2.8969500">
        <ele>522.9</ele>
        <time>2018-12-30T14:48:20Z</time>
      </trkpt>
      <trkpt lat="39.8390470" lon="2.8969120">
        <ele>521.3</ele>
        <time>2018-12-30T14:48:21Z</time>
      </trkpt>
      <trkpt lat="39.8391680" lon="2.8968750">
        <ele>520.4</ele>
        <time>2018-12-30T14:48:22Z</time>
      </trkpt>
      <trkpt lat="39.8392920" lon="2.8968380">
        <ele>519.6</ele>
        <time>2018-12-30T14:48:23Z</time>
      </trkpt>
      <trkpt lat="39.8394150" lon="2.8967980">
        <ele>518.8</ele>
        <time>2018-12-30T14:48:24Z</time>
      </trkpt>
      <trkpt lat="39.8395370" lon="2.8967580">
        <ele>518.1</ele>
        <time>2018-12-30T14:48:25Z</time>
      </trkpt>
      <trkpt lat="39.8396600" lon="2.8967200">
        <ele>517.4</ele>
        <time>2018-12-30T14:48:26Z</time>
      </trkpt>
      <trkpt lat="39.8397820" lon="2.8966830">
        <ele>516.7</ele>
        <time>2018-12-30T14:48:27Z</time>
      </trkpt>
      <trkpt lat="39.8399030" lon="2.8966470">
        <ele>515.9</ele>
        <time>2018-12-30T14:48:28Z</time>
      </trkpt>
      <trkpt lat="39.8400280" lon="2.8966080">
        <ele>514.9</ele>
        <time>2018-12-30T14:48:29Z</time>
      </trkpt>
      <trkpt lat="39.8401520" lon="2.8965750">
        <ele>513.8</ele>
        <time>2018-12-30T14:48:30Z</time>
      </trkpt>
      <trkpt lat="39.8402730" lon="2.8965380">
        <ele>512.7</ele>
        <time>2018-12-30T14:48:31Z</time>
      </trkpt>
      <trkpt lat="39.8403970" lon="2.8965020">
        <ele>511.3</ele>
        <time>2018-12-30T14:48:32Z</time>
      </trkpt>
      <trkpt lat="39.8405220" lon="2.8964620">
        <ele>510.0</ele>
        <time>2018-12-30T14:48:33Z</time>
      </trkpt>
      <trkpt lat="39.8406450" lon="2.8964230">
        <ele>508.8</ele>
        <time>2018-12-30T14:48:34Z</time>
      </trkpt>
      <trkpt lat="39.8407680" lon="2.8963820">
        <ele>507.5</ele>
        <time>2018-12-30T14:48:35Z</time>
      </trkpt>
      <trkpt lat="39.8408970" lon="2.8963420">
        <ele>506.2</ele>
        <time>2018-12-30T14:48:36Z</time>
      </trkpt>
      <trkpt lat="39.8410230" lon="2.8963020">
        <ele>505.0</ele>
        <time>2018-12-30T14:48:37Z</time>
      </trkpt>
      <trkpt lat="39.8411530" lon="2.8962650">
        <ele>503.9</ele>
        <time>2018-12-30T14:48:38Z</time>
      </trkpt>
      <trkpt lat="39.8412870" lon="2.8962230">
        <ele>503.1</ele>
        <time>2018-12-30T14:48:39Z</time>
      </trkpt>
      <trkpt lat="39.8414200" lon="2.8961870">
        <ele>502.5</ele>
        <time>2018-12-30T14:48:40Z</time>
      </trkpt>
      <trkpt lat="39.8415500" lon="2.8961480">
        <ele>501.7</ele>
        <time>2018-12-30T14:48:41Z</time>
      </trkpt>
      <trkpt lat="39.8416780" lon="2.8961080">
        <ele>501.2</ele>
        <time>2018-12-30T14:48:42Z</time>
      </trkpt>
      <trkpt lat="39.8418030" lon="2.8960720">
        <ele>501.0</ele>
        <time>2018-12-30T14:48:43Z</time>
      </trkpt>
      <trkpt lat="39.8419230" lon="2.8960350">
        <ele>501.1</ele>
        <time>2018-12-30T14:48:44Z</time>
      </trkpt>
      <trkpt lat="39.8420380" lon="2.8960000">
        <ele>501.3</ele>
        <time>2018-12-30T14:48:45Z</time>
      </trkpt>
      <trkpt lat="39.8421470" lon="2.8959680">
        <ele>502.0</ele>
        <time>2018-12-30T14:48:46Z</time>
      </trkpt>
      <trkpt lat="39.8422480" lon="2.8959370">
        <ele>502.9</ele>
        <time>2018-12-30T14:48:47Z</time>
      </trkpt>
      <trkpt lat="39.8423430" lon="2.8959070">
        <ele>504.1</ele>
        <time>2018-12-30T14:48:48Z</time>
      </trkpt>
      <trkpt lat="39.8424300" lon="2.8958780">
        <ele>505.2</ele>
        <time>2018-12-30T14:48:49Z</time>
      </trkpt>
      <trkpt lat="39.8425120" lon="2.8958530">
        <ele>506.3</ele>
        <time>2018-12-30T14:48:50Z</time>
      </trkpt>
      <trkpt lat="39.8425900" lon="2.8958300">
        <ele>507.4</ele>
        <time>2018-12-30T14:48:51Z</time>
      </trkpt>
      <trkpt lat="39.8426630" lon="2.8958100">
        <ele>508.5</ele>
        <time>2018-12-30T14:48:52Z</time>
      </trkpt>
      <trkpt lat="39.8427300" lon="2.8957900">
        <ele>509.5</ele>
        <time>2018-12-30T14:48:53Z</time>
      </trkpt>
      <trkpt lat="39.8427930" lon="2.8957720">
        <ele>510.4</ele>
        <time>2018-12-30T14:48:54Z</time>
      </trkpt>
      <trkpt lat="39.8428530" lon="2.8957530">
        <ele>511.1</ele>
        <time>2018-12-30T14:48:55Z</time>
      </trkpt>
      <trkpt lat="39.8429120" lon="2.8957370">
        <ele>511.8</ele>
        <time>2018-12-30T14:48:56Z</time>
      </trkpt>
      <trkpt lat="39.8429650" lon="2.8957230">
        <ele>512.3</ele>
        <time>2018-12-30T14:48:57Z</time>
      </trkpt>
      <trkpt lat="39.8430180" lon="2.8957050">
        <ele>512.9</ele>
        <time>2018-12-30T14:48:58Z</time>
      </trkpt>
      <trkpt lat="39.8430700" lon="2.8956850">
        <ele>513.5</ele>
        <time>2018-12-30T14:48:59Z</time>
      </trkpt>
      <trkpt lat="39.8431200" lon="2.8956700">
        <ele>514.0</ele>
        <time>2018-12-30T14:49:00Z</time>
      </trkpt>
      <trkpt lat="39.8431700" lon="2.8956520">
        <ele>514.5</ele>
        <time>2018-12-30T14:49:01Z</time>
      </trkpt>
      <trkpt lat="39.8432180" lon="2.8956330">
        <ele>514.9</ele>
        <time>2018-12-30T14:49:02Z</time>
      </trkpt>
      <trkpt lat="39.8432670" lon="2.8956220">
        <ele>515.4</ele>
        <time>2018-12-30T14:49:03Z</time>
      </trkpt>
      <trkpt lat="39.8433170" lon="2.8956100">
        <ele>516.0</ele>
        <time>2018-12-30T14:49:04Z</time>
      </trkpt>
      <trkpt lat="39.8433670" lon="2.8955920">
        <ele>516.6</ele>
        <time>2018-12-30T14:49:05Z</time>
      </trkpt>
      <trkpt lat="39.8434170" lon="2.8955750">
        <ele>517.1</ele>
        <time>2018-12-30T14:49:06Z</time>
      </trkpt>
      <trkpt lat="39.8434670" lon="2.8955600">
        <ele>517.6</ele>
        <time>2018-12-30T14:49:07Z</time>
      </trkpt>
      <trkpt lat="39.8435150" lon="2.8955470">
        <ele>518.0</ele>
        <time>2018-12-30T14:49:08Z</time>
      </trkpt>
      <trkpt lat="39.8435650" lon="2.8955350">
        <ele>518.4</ele>
        <time>2018-12-30T14:49:09Z</time>
      </trkpt>
      <trkpt lat="39.8436150" lon="2.8955180">
        <ele>518.8</ele>
        <time>2018-12-30T14:49:10Z</time>
      </trkpt>
      <trkpt lat="39.8436650" lon="2.8955020">
        <ele>519.0</ele>
        <time>2018-12-30T14:49:11Z</time>
      </trkpt>
      <trkpt lat="39.8437130" lon="2.8954880">
        <ele>519.2</ele>
        <time>2018-12-30T14:49:12Z</time>
      </trkpt>
      <trkpt lat="39.8437620" lon="2.8954730">
        <ele>519.7</ele>
        <time>2018-12-30T14:49:13Z</time>
      </trkpt>
      <trkpt lat="39.8438100" lon="2.8954580">
        <ele>519.8</ele>
        <time>2018-12-30T14:49:14Z</time>
      </trkpt>
      <trkpt lat="39.8438600" lon="2.8954420">
        <ele>521.0</ele>
        <time>2018-12-30T14:49:15Z</time>
      </trkpt>
      <trkpt lat="39.8439080" lon="2.8954230">
        <ele>521.1</ele>
        <time>2018-12-30T14:49:16Z</time>
      </trkpt>
      <trkpt lat="39.8439600" lon="2.8954050">
        <ele>521.1</ele>
        <time>2018-12-30T14:49:17Z</time>
      </trkpt>
      <trkpt lat="39.8440120" lon="2.8953870">
        <ele>521.1</ele>
        <time>2018-12-30T14:49:18Z</time>
      </trkpt>
      <trkpt lat="39.8440650" lon="2.8953680">
        <ele>521.2</ele>
        <time>2018-12-30T14:49:19Z</time>
      </trkpt>
      <trkpt lat="39.8441150" lon="2.8953470">
        <ele>521.2</ele>
        <time>2018-12-30T14:49:20Z</time>
      </trkpt>
      <trkpt lat="39.8441720" lon="2.8953280">
        <ele>521.2</ele>
        <time>2018-12-30T14:49:21Z</time>
      </trkpt>
      <trkpt lat="39.8442230" lon="2.8953100">
        <ele>521.3</ele>
        <time>2018-12-30T14:49:22Z</time>
      </trkpt>
      <trkpt lat="39.8442770" lon="2.8952930">
        <ele>521.3</ele>
        <time>2018-12-30T14:49:23Z</time>
      </trkpt>
      <trkpt lat="39.8443320" lon="2.8952770">
        <ele>521.4</ele>
        <time>2018-12-30T14:49:24Z</time>
      </trkpt>
      <trkpt lat="39.8443870" lon="2.8952600">
        <ele>521.5</ele>
        <time>2018-12-30T14:49:25Z</time>
      </trkpt>
      <trkpt lat="39.8444420" lon="2.8952400">
        <ele>521.5</ele>
        <time>2018-12-30T14:49:26Z</time>
      </trkpt>
      <trkpt lat="39.8444970" lon="2.8952180">
        <ele>521.6</ele>
        <time>2018-12-30T14:49:27Z</time>
      </trkpt>
      <trkpt lat="39.8445530" lon="2.8952000">
        <ele>521.7</ele>
        <time>2018-12-30T14:49:28Z</time>
      </trkpt>
      <trkpt lat="39.8446100" lon="2.8951800">
        <ele>521.7</ele>
        <time>2018-12-30T14:49:29Z</time>
      </trkpt>
      <trkpt lat="39.8446650" lon="2.8951650">
        <ele>521.8</ele>
        <time>2018-12-30T14:49:30Z</time>
      </trkpt>
      <trkpt lat="39.8447180" lon="2.8951400">
        <ele>521.9</ele>
        <time>2018-12-30T14:49:31Z</time>
      </trkpt>
      <trkpt lat="39.8447750" lon="2.8951230">
        <ele>522.0</ele>
        <time>2018-12-30T14:49:32Z</time>
      </trkpt>
      <trkpt lat="39.8448320" lon="2.8951080">
        <ele>522.0</ele>
        <time>2018-12-30T14:49:33Z</time>
      </trkpt>
      <trkpt lat="39.8448900" lon="2.8950930">
        <ele>522.1</ele>
        <time>2018-12-30T14:49:34Z</time>
      </trkpt>
      <trkpt lat="39.8449430" lon="2.8950780">
        <ele>522.1</ele>
        <time>2018-12-30T14:49:35Z</time>
      </trkpt>
      <trkpt lat="39.8449980" lon="2.8950580">
        <ele>522.1</ele>
        <time>2018-12-30T14:49:36Z</time>
      </trkpt>
      <trkpt lat="39.8450530" lon="2.8950380">
        <ele>522.2</ele>
        <time>2018-12-30T14:49:37Z</time>
      </trkpt>
      <trkpt lat="39.8451080" lon="2.8950230">
        <ele>522.2</ele>
        <time>2018-12-30T14:49:38Z</time>
      </trkpt>
      <trkpt lat="39.8451630" lon="2.8950030">
        <ele>522.2</ele>
        <time>2018-12-30T14:49:39Z</time>
      </trkpt>
      <trkpt lat="39.8452220" lon="2.8949880">
        <ele>522.1</ele>
        <time>2018-12-30T14:49:40Z</time>
      </trkpt>
      <trkpt lat="39.8452800" lon="2.8949670">
        <ele>522.1</ele>
        <time>2018-12-30T14:49:41Z</time>
      </trkpt>
      <trkpt lat="39.8453380" lon="2.8949480">
        <ele>522.0</ele>
        <time>2018-12-30T14:49:42Z</time>
      </trkpt>
      <trkpt lat="39.8453980" lon="2.8949300">
        <ele>522.0</ele>
        <time>2018-12-30T14:49:43Z</time>
      </trkpt>
      <trkpt lat="39.8454550" lon="2.8949120">
        <ele>521.9</ele>
        <time>2018-12-30T14:49:44Z</time>
      </trkpt>
      <trkpt lat="39.8455170" lon="2.8948930">
        <ele>521.8</ele>
        <time>2018-12-30T14:49:45Z</time>
      </trkpt>
      <trkpt lat="39.8455820" lon="2.8948780">
        <ele>521.8</ele>
        <time>2018-12-30T14:49:46Z</time>
      </trkpt>
      <trkpt lat="39.8456450" lon="2.8948620">
        <ele>521.6</ele>
        <time>2018-12-30T14:49:47Z</time>
      </trkpt>
      <trkpt lat="39.8457170" lon="2.8948480">
        <ele>521.5</ele>
        <time>2018-12-30T14:49:48Z</time>
      </trkpt>
      <trkpt lat="39.8457850" lon="2.8948320">
        <ele>521.4</ele>
        <time>2018-12-30T14:49:49Z</time>
      </trkpt>
      <trkpt lat="39.8458580" lon="2.8948200">
        <ele>521.3</ele>
        <time>2018-12-30T14:49:50Z</time>
      </trkpt>
      <trkpt lat="39.8459320" lon="2.8948200">
        <ele>521.2</ele>
        <time>2018-12-30T14:49:51Z</time>
      </trkpt>
      <trkpt lat="39.8460050" lon="2.8948250">
        <ele>521.1</ele>
        <time>2018-12-30T14:49:52Z</time>
      </trkpt>
      <trkpt lat="39.8460770" lon="2.8948480">
        <ele>521.0</ele>
        <time>2018-12-30T14:49:53Z</time>
      </trkpt>
      <trkpt lat="39.8461450" lon="2.8948770">
        <ele>521.0</ele>
        <time>2018-12-30T14:49:54Z</time>
      </trkpt>
      <trkpt lat="39.8462130" lon="2.8949100">
        <ele>520.9</ele>
        <time>2018-12-30T14:49:55Z</time>
      </trkpt>
      <trkpt lat="39.8462800" lon="2.8949470">
        <ele>520.8</ele>
        <time>2018-12-30T14:49:56Z</time>
      </trkpt>
      <trkpt lat="39.8463480" lon="2.8949830">
        <ele>520.8</ele>
        <time>2018-12-30T14:49:57Z</time>
      </trkpt>
      <trkpt lat="39.8464150" lon="2.8950150">
        <ele>520.7</ele>
        <time>2018-12-30T14:49:58Z</time>
      </trkpt>
      <trkpt lat="39.8464820" lon="2.8950530">
        <ele>520.6</ele>
        <time>2018-12-30T14:49:59Z</time>
      </trkpt>
      <trkpt lat="39.8465470" lon="2.8950900">
        <ele>520.6</ele>
        <time>2018-12-30T14:50:00Z</time>
      </trkpt>
      <trkpt lat="39.8466130" lon="2.8951270">
        <ele>520.5</ele>
        <time>2018-12-30T14:50:01Z</time>
      </trkpt>
      <trkpt lat="39.8466800" lon="2.8951670">
        <ele>520.4</ele>
        <time>2018-12-30T14:50:02Z</time>
      </trkpt>
      <trkpt lat="39.8467470" lon="2.8952070">
        <ele>520.3</ele>
        <time>2018-12-30T14:50:03Z</time>
      </trkpt>
      <trkpt lat="39.8468150" lon="2.8952530">
        <ele>520.1</ele>
        <time>2018-12-30T14:50:04Z</time>
      </trkpt>
      <trkpt lat="39.8468820" lon="2.8953000">
        <ele>519.9</ele>
        <time>2018-12-30T14:50:05Z</time>
      </trkpt>
      <trkpt lat="39.8469480" lon="2.8953520">
        <ele>519.6</ele>
        <time>2018-12-30T14:50:06Z</time>
      </trkpt>
      <trkpt lat="39.8470170" lon="2.8954030">
        <ele>519.4</ele>
        <time>2018-12-30T14:50:07Z</time>
      </trkpt>
      <trkpt lat="39.8470850" lon="2.8954530">
        <ele>519.2</ele>
        <time>2018-12-30T14:50:08Z</time>
      </trkpt>
      <trkpt lat="39.8471550" lon="2.8955120">
        <ele>518.9</ele>
        <time>2018-12-30T14:50:09Z</time>
      </trkpt>
      <trkpt lat="39.8472280" lon="2.8955720">
        <ele>518.7</ele>
        <time>2018-12-30T14:50:10Z</time>
      </trkpt>
      <trkpt lat="39.8473000" lon="2.8956270">
        <ele>518.5</ele>
        <time>2018-12-30T14:50:11Z</time>
      </trkpt>
      <trkpt lat="39.8473730" lon="2.8956780">
        <ele>518.2</ele>
        <time>2018-12-30T14:50:12Z</time>
      </trkpt>
      <trkpt lat="39.8474450" lon="2.8957300">
        <ele>518.0</ele>
        <time>2018-12-30T14:50:13Z</time>
      </trkpt>
      <trkpt lat="39.8475170" lon="2.8957850">
        <ele>517.7</ele>
        <time>2018-12-30T14:50:14Z</time>
      </trkpt>
      <trkpt lat="39.8475870" lon="2.8958400">
        <ele>517.4</ele>
        <time>2018-12-30T14:50:15Z</time>
      </trkpt>
      <trkpt lat="39.8476600" lon="2.8958930">
        <ele>517.2</ele>
        <time>2018-12-30T14:50:16Z</time>
      </trkpt>
      <trkpt lat="39.8477350" lon="2.8959500">
        <ele>516.9</ele>
        <time>2018-12-30T14:50:17Z</time>
      </trkpt>
      <trkpt lat="39.8478120" lon="2.8960030">
        <ele>516.6</ele>
        <time>2018-12-30T14:50:18Z</time>
      </trkpt>
      <trkpt lat="39.8478870" lon="2.8960600">
        <ele>516.3</ele>
        <time>2018-12-30T14:50:19Z</time>
      </trkpt>
      <trkpt lat="39.8479620" lon="2.8961170">
        <ele>516.1</ele>
        <time>2018-12-30T14:50:20Z</time>
      </trkpt>
      <trkpt lat="39.8480370" lon="2.8961750">
        <ele>515.7</ele>
        <time>2018-12-30T14:50:21Z</time>
      </trkpt>
      <trkpt lat="39.8481100" lon="2.8962330">
        <ele>515.3</ele>
        <time>2018-12-30T14:50:22Z</time>
      </trkpt>
      <trkpt lat="39.8481850" lon="2.8962870">
        <ele>515.0</ele>
        <time>2018-12-30T14:50:23Z</time>
      </trkpt>
      <trkpt lat="39.8482630" lon="2.8963350">
        <ele>514.4</ele>
        <time>2018-12-30T14:50:24Z</time>
      </trkpt>
      <trkpt lat="39.8483450" lon="2.8963700">
        <ele>514.0</ele>
        <time>2018-12-30T14:50:25Z</time>
      </trkpt>
      <trkpt lat="39.8484320" lon="2.8963930">
        <ele>513.6</ele>
        <time>2018-12-30T14:50:26Z</time>
      </trkpt>
      <trkpt lat="39.8485230" lon="2.8964100">
        <ele>513.1</ele>
        <time>2018-12-30T14:50:27Z</time>
      </trkpt>
      <trkpt lat="39.8486180" lon="2.8964220">
        <ele>512.6</ele>
        <time>2018-12-30T14:50:28Z</time>
      </trkpt>
      <trkpt lat="39.8487130" lon="2.8964330">
        <ele>512.1</ele>
        <time>2018-12-30T14:50:29Z</time>
      </trkpt>
      <trkpt lat="39.8488120" lon="2.8964450">
        <ele>511.6</ele>
        <time>2018-12-30T14:50:30Z</time>
      </trkpt>
      <trkpt lat="39.8489120" lon="2.8964570">
        <ele>511.1</ele>
        <time>2018-12-30T14:50:31Z</time>
      </trkpt>
      <trkpt lat="39.8490100" lon="2.8964680">
        <ele>510.7</ele>
        <time>2018-12-30T14:50:32Z</time>
      </trkpt>
      <trkpt lat="39.8491100" lon="2.8964800">
        <ele>510.3</ele>
        <time>2018-12-30T14:50:33Z</time>
      </trkpt>
      <trkpt lat="39.8492070" lon="2.8964920">
        <ele>510.0</ele>
        <time>2018-12-30T14:50:34Z</time>
      </trkpt>
      <trkpt lat="39.8493030" lon="2.8965030">
        <ele>509.8</ele>
        <time>2018-12-30T14:50:35Z</time>
      </trkpt>
      <trkpt lat="39.8494000" lon="2.8965150">
        <ele>509.5</ele>
        <time>2018-12-30T14:50:36Z</time>
      </trkpt>
      <trkpt lat="39.8494970" lon="2.8965270">
        <ele>509.2</ele>
        <time>2018-12-30T14:50:37Z</time>
      </trkpt>
      <trkpt lat="39.8495920" lon="2.8965380">
        <ele>509.0</ele>
        <time>2018-12-30T14:50:38Z</time>
      </trkpt>
      <trkpt lat="39.8496870" lon="2.8965520">
        <ele>508.8</ele>
        <time>2018-12-30T14:50:39Z</time>
      </trkpt>
      <trkpt lat="39.8497800" lon="2.8965650">
        <ele>508.8</ele>
        <time>2018-12-30T14:50:40Z</time>
      </trkpt>
      <trkpt lat="39.8498720" lon="2.8965770">
        <ele>508.8</ele>
        <time>2018-12-30T14:50:41Z</time>
      </trkpt>
      <trkpt lat="39.8499600" lon="2.8965870">
        <ele>508.8</ele>
        <time>2018-12-30T14:50:42Z</time>
      </trkpt>
      <trkpt lat="39.8500450" lon="2.8965930">
        <ele>509.0</ele>
        <time>2018-12-30T14:50:43Z</time>
      </trkpt>
      <trkpt lat="39.8501230" lon="2.8966020">
        <ele>509.3</ele>
        <time>2018-12-30T14:50:44Z</time>
      </trkpt>
      <trkpt lat="39.8501950" lon="2.8966100">
        <ele>509.6</ele>
        <time>2018-12-30T14:50:45Z</time>
      </trkpt>
      <trkpt lat="39.8502630" lon="2.8966230">
        <ele>510.0</ele>
        <time>2018-12-30T14:50:46Z</time>
      </trkpt>
      <trkpt lat="39.8503280" lon="2.8966330">
        <ele>510.4</ele>
        <time>2018-12-30T14:50:47Z</time>
      </trkpt>
      <trkpt lat="39.8503900" lon="2.8966430">
        <ele>510.9</ele>
        <time>2018-12-30T14:50:48Z</time>
      </trkpt>
      <trkpt lat="39.8504480" lon="2.8966530">
        <ele>511.3</ele>
        <time>2018-12-30T14:50:49Z</time>
      </trkpt>
      <trkpt lat="39.8505070" lon="2.8966620">
        <ele>511.8</ele>
        <time>2018-12-30T14:50:50Z</time>
      </trkpt>
      <trkpt lat="39.8505630" lon="2.8966700">
        <ele>512.1</ele>
        <time>2018-12-30T14:50:51Z</time>
      </trkpt>
      <trkpt lat="39.8506200" lon="2.8966730">
        <ele>512.4</ele>
        <time>2018-12-30T14:50:52Z</time>
      </trkpt>
      <trkpt lat="39.8506780" lon="2.8966780">
        <ele>512.6</ele>
        <time>2018-12-30T14:50:53Z</time>
      </trkpt>
      <trkpt lat="39.8507380" lon="2.8966870">
        <ele>512.6</ele>
        <time>2018-12-30T14:50:54Z</time>
      </trkpt>
      <trkpt lat="39.8508000" lon="2.8966970">
        <ele>512.7</ele>
        <time>2018-12-30T14:50:55Z</time>
      </trkpt>
      <trkpt lat="39.8508650" lon="2.8967120">
        <ele>512.6</ele>
        <time>2018-12-30T14:50:56Z</time>
      </trkpt>
      <trkpt lat="39.8509270" lon="2.8967300">
        <ele>512.6</ele>
        <time>2018-12-30T14:50:57Z</time>
      </trkpt>
      <trkpt lat="39.8509920" lon="2.8967480">
        <ele>512.5</ele>
        <time>2018-12-30T14:50:58Z</time>
      </trkpt>
      <trkpt lat="39.8510600" lon="2.8967680">
        <ele>512.4</ele>
        <time>2018-12-30T14:50:59Z</time>
      </trkpt>
      <trkpt lat="39.8511270" lon="2.8967920">
        <ele>512.3</ele>
        <time>2018-12-30T14:51:00Z</time>
      </trkpt>
      <trkpt lat="39.8511980" lon="2.8968080">
        <ele>512.2</ele>
        <time>2018-12-30T14:51:01Z</time>
      </trkpt>
      <trkpt lat="39.8512720" lon="2.8968300">
        <ele>512.2</ele>
        <time>2018-12-30T14:51:02Z</time>
      </trkpt>
      <trkpt lat="39.8513450" lon="2.8968520">
        <ele>512.1</ele>
        <time>2018-12-30T14:51:03Z</time>
      </trkpt>
      <trkpt lat="39.8514180" lon="2.8968700">
        <ele>512.1</ele>
        <time>2018-12-30T14:51:04Z</time>
      </trkpt>
      <trkpt lat="39.8514950" lon="2.8968880">
        <ele>512.0</ele>
        <time>2018-12-30T14:51:05Z</time>
      </trkpt>
      <trkpt lat="39.8515720" lon="2.8969050">
        <ele>511.9</ele>
        <time>2018-12-30T14:51:06Z</time>
      </trkpt>
      <trkpt lat="39.8516480" lon="2.8969220">
        <ele>511.8</ele>
        <time>2018-12-30T14:51:07Z</time>
      </trkpt>
      <trkpt lat="39.8517250" lon="2.8969430">
        <ele>511.7</ele>
        <time>2018-12-30T14:51:08Z</time>
      </trkpt>
      <trkpt lat="39.8517980" lon="2.8969620">
        <ele>511.7</ele>
        <time>2018-12-30T14:51:09Z</time>
      </trkpt>
      <trkpt lat="39.8518720" lon="2.8969850">
        <ele>511.7</ele>
        <time>2018-12-30T14:51:10Z</time>
      </trkpt>
      <trkpt lat="39.8519380" lon="2.8970080">
        <ele>511.8</ele>
        <time>2018-12-30T14:51:11Z</time>
      </trkpt>
      <trkpt lat="39.8520020" lon="2.8970300">
        <ele>512.0</ele>
        <time>2018-12-30T14:51:12Z</time>
      </trkpt>
      <trkpt lat="39.8520630" lon="2.8970480">
        <ele>512.3</ele>
        <time>2018-12-30T14:51:13Z</time>
      </trkpt>
      <trkpt lat="39.8521170" lon="2.8970600">
        <ele>512.8</ele>
        <time>2018-12-30T14:51:14Z</time>
      </trkpt>
      <trkpt lat="39.8521680" lon="2.8970720">
        <ele>513.3</ele>
        <time>2018-12-30T14:51:15Z</time>
      </trkpt>
      <trkpt lat="39.8522180" lon="2.8970850">
        <ele>513.9</ele>
        <time>2018-12-30T14:51:16Z</time>
      </trkpt>
      <trkpt lat="39.8522630" lon="2.8970980">
        <ele>514.6</ele>
        <time>2018-12-30T14:51:17Z</time>
      </trkpt>
      <trkpt lat="39.8523070" lon="2.8971080">
        <ele>515.3</ele>
        <time>2018-12-30T14:51:18Z</time>
      </trkpt>
      <trkpt lat="39.8523470" lon="2.8971180">
        <ele>515.8</ele>
        <time>2018-12-30T14:51:19Z</time>
      </trkpt>
      <trkpt lat="39.8523880" lon="2.8971250">
        <ele>516.3</ele>
        <time>2018-12-30T14:51:20Z</time>
      </trkpt>
      <trkpt lat="39.8524300" lon="2.8971330">
        <ele>516.7</ele>
        <time>2018-12-30T14:51:21Z</time>
      </trkpt>
      <trkpt lat="39.8524720" lon="2.8971450">
        <ele>517.2</ele>
        <time>2018-12-30T14:51:22Z</time>
      </trkpt>
      <trkpt lat="39.8525120" lon="2.8971570">
        <ele>517.6</ele>
        <time>2018-12-30T14:51:23Z</time>
      </trkpt>
      <trkpt lat="39.8525530" lon="2.8971650">
        <ele>518.0</ele>
        <time>2018-12-30T14:51:24Z</time>
      </trkpt>
      <trkpt lat="39.8525980" lon="2.8971780">
        <ele>518.3</ele>
        <time>2018-12-30T14:51:25Z</time>
      </trkpt>
      <trkpt lat="39.8526420" lon="2.8971930">
        <ele>518.6</ele>
        <time>2018-12-30T14:51:26Z</time>
      </trkpt>
      <trkpt lat="39.8526830" lon="2.8972070">
        <ele>518.9</ele>
        <time>2018-12-30T14:51:27Z</time>
      </trkpt>
      <trkpt lat="39.8527270" lon="2.8972270">
        <ele>519.2</ele>
        <time>2018-12-30T14:51:28Z</time>
      </trkpt>
      <trkpt lat="39.8527700" lon="2.8972470">
        <ele>519.4</ele>
        <time>2018-12-30T14:51:29Z</time>
      </trkpt>
      <trkpt lat="39.8528120" lon="2.8972650">
        <ele>519.7</ele>
        <time>2018-12-30T14:51:30Z</time>
      </trkpt>
      <trkpt lat="39.8528550" lon="2.8972850">
        <ele>519.9</ele>
        <time>2018-12-30T14:51:31Z</time>
      </trkpt>
      <trkpt lat="39.8528980" lon="2.8973050">
        <ele>520.0</ele>
        <time>2018-12-30T14:51:32Z</time>
      </trkpt>
      <trkpt lat="39.8529400" lon="2.8973230">
        <ele>520.1</ele>
        <time>2018-12-30T14:51:33Z</time>
      </trkpt>
      <trkpt lat="39.8529820" lon="2.8973430">
        <ele>520.2</ele>
        <time>2018-12-30T14:51:34Z</time>
      </trkpt>
      <trkpt lat="39.8530230" lon="2.8973630">
        <ele>520.2</ele>
        <time>2018-12-30T14:51:35Z</time>
      </trkpt>
      <trkpt lat="39.8530650" lon="2.8973870">
        <ele>520.3</ele>
        <time>2018-12-30T14:51:36Z</time>
      </trkpt>
      <trkpt lat="39.8531070" lon="2.8974100">
        <ele>520.4</ele>
        <time>2018-12-30T14:51:37Z</time>
      </trkpt>
      <trkpt lat="39.8531480" lon="2.8974370">
        <ele>520.5</ele>
        <time>2018-12-30T14:51:38Z</time>
      </trkpt>
      <trkpt lat="39.8531930" lon="2.8974650">
        <ele>520.6</ele>
        <time>2018-12-30T14:51:39Z</time>
      </trkpt>
      <trkpt lat="39.8532370" lon="2.8974900">
        <ele>520.7</ele>
        <time>2018-12-30T14:51:40Z</time>
      </trkpt>
      <trkpt lat="39.8532800" lon="2.8975170">
        <ele>520.8</ele>
        <time>2018-12-30T14:51:41Z</time>
      </trkpt>
      <trkpt lat="39.8533250" lon="2.8975450">
        <ele>520.9</ele>
        <time>2018-12-30T14:51:42Z</time>
      </trkpt>
      <trkpt lat="39.8533700" lon="2.8975700">
        <ele>521.1</ele>
        <time>2018-12-30T14:51:43Z</time>
      </trkpt>
      <trkpt lat="39.8534180" lon="2.8976020">
        <ele>521.4</ele>
        <time>2018-12-30T14:51:44Z</time>
      </trkpt>
      <trkpt lat="39.8534650" lon="2.8976320">
        <ele>521.6</ele>
        <time>2018-12-30T14:51:45Z</time>
      </trkpt>
      <trkpt lat="39.8535130" lon="2.8976600">
        <ele>521.8</ele>
        <time>2018-12-30T14:51:46Z</time>
      </trkpt>
      <trkpt lat="39.8535650" lon="2.8976920">
        <ele>521.9</ele>
        <time>2018-12-30T14:51:47Z</time>
      </trkpt>
      <trkpt lat="39.8536150" lon="2.8977270">
        <ele>522.0</ele>
        <time>2018-12-30T14:51:48Z</time>
      </trkpt>
      <trkpt lat="39.8536650" lon="2.8977680">
        <ele>522.0</ele>
        <time>2018-12-30T14:51:49Z</time>
      </trkpt>
      <trkpt lat="39.8537170" lon="2.8978150">
        <ele>521.9</ele>
        <time>2018-12-30T14:51:50Z</time>
      </trkpt>
      <trkpt lat="39.8537650" lon="2.8978680">
        <ele>521.8</ele>
        <time>2018-12-30T14:51:51Z</time>
      </trkpt>
      <trkpt lat="39.8538080" lon="2.8979200">
        <ele>521.7</ele>
        <time>2018-12-30T14:51:52Z</time>
      </trkpt>
      <trkpt lat="39.8538520" lon="2.8979780">
        <ele>521.5</ele>
        <time>2018-12-30T14:51:53Z</time>
      </trkpt>
      <trkpt lat="39.8538920" lon="2.8980430">
        <ele>521.3</ele>
        <time>2018-12-30T14:51:54Z</time>
      </trkpt>
      <trkpt lat="39.8539300" lon="2.8981100">
        <ele>521.1</ele>
        <time>2018-12-30T14:51:55Z</time>
      </trkpt>
      <trkpt lat="39.8539680" lon="2.8981770">
        <ele>520.9</ele>
        <time>2018-12-30T14:51:56Z</time>
      </trkpt>
      <trkpt lat="39.8540100" lon="2.8982470">
        <ele>520.6</ele>
        <time>2018-12-30T14:51:57Z</time>
      </trkpt>
      <trkpt lat="39.8540480" lon="2.8983150">
        <ele>520.4</ele>
        <time>2018-12-30T14:51:58Z</time>
      </trkpt>
      <trkpt lat="39.8540880" lon="2.8983850">
        <ele>520.3</ele>
        <time>2018-12-30T14:51:59Z</time>
      </trkpt>
      <trkpt lat="39.8541250" lon="2.8984520">
        <ele>520.1</ele>
        <time>2018-12-30T14:52:00Z</time>
      </trkpt>
      <trkpt lat="39.8541670" lon="2.8985220">
        <ele>520.1</ele>
        <time>2018-12-30T14:52:01Z</time>
      </trkpt>
      <trkpt lat="39.8542070" lon="2.8985900">
        <ele>520.1</ele>
        <time>2018-12-30T14:52:02Z</time>
      </trkpt>
      <trkpt lat="39.8542450" lon="2.8986570">
        <ele>520.2</ele>
        <time>2018-12-30T14:52:03Z</time>
      </trkpt>
      <trkpt lat="39.8542820" lon="2.8987250">
        <ele>520.3</ele>
        <time>2018-12-30T14:52:04Z</time>
      </trkpt>
      <trkpt lat="39.8543170" lon="2.8987930">
        <ele>520.6</ele>
        <time>2018-12-30T14:52:05Z</time>
      </trkpt>
      <trkpt lat="39.8543500" lon="2.8988550">
        <ele>520.8</ele>
        <time>2018-12-30T14:52:06Z</time>
      </trkpt>
      <trkpt lat="39.8543820" lon="2.8989150">
        <ele>521.1</ele>
        <time>2018-12-30T14:52:07Z</time>
      </trkpt>
      <trkpt lat="39.8544100" lon="2.8989700">
        <ele>521.4</ele>
        <time>2018-12-30T14:52:08Z</time>
      </trkpt>
      <trkpt lat="39.8544380" lon="2.8990220">
        <ele>521.7</ele>
        <time>2018-12-30T14:52:09Z</time>
      </trkpt>
      <trkpt lat="39.8544650" lon="2.8990680">
        <ele>522.0</ele>
        <time>2018-12-30T14:52:10Z</time>
      </trkpt>
      <trkpt lat="39.8544900" lon="2.8991120">
        <ele>522.3</ele>
        <time>2018-12-30T14:52:11Z</time>
      </trkpt>
      <trkpt lat="39.8545150" lon="2.8991530">
        <ele>522.6</ele>
        <time>2018-12-30T14:52:12Z</time>
      </trkpt>
      <trkpt lat="39.8545400" lon="2.8991930">
        <ele>522.9</ele>
        <time>2018-12-30T14:52:13Z</time>
      </trkpt>
      <trkpt lat="39.8545630" lon="2.8992320">
        <ele>523.2</ele>
        <time>2018-12-30T14:52:14Z</time>
      </trkpt>
      <trkpt lat="39.8545870" lon="2.8992750">
        <ele>523.5</ele>
        <time>2018-12-30T14:52:15Z</time>
      </trkpt>
      <trkpt lat="39.8546100" lon="2.8993180">
        <ele>523.9</ele>
        <time>2018-12-30T14:52:16Z</time>
      </trkpt>
      <trkpt lat="39.8546300" lon="2.8993600">
        <ele>524.3</ele>
        <time>2018-12-30T14:52:17Z</time>
      </trkpt>
      <trkpt lat="39.8546520" lon="2.8993980">
        <ele>524.7</ele>
        <time>2018-12-30T14:52:18Z</time>
      </trkpt>
      <trkpt lat="39.8546720" lon="2.8994350">
        <ele>525.0</ele>
        <time>2018-12-30T14:52:19Z</time>
      </trkpt>
      <trkpt lat="39.8546950" lon="2.8994730">
        <ele>525.5</ele>
        <time>2018-12-30T14:52:20Z</time>
      </trkpt>
      <trkpt lat="39.8547130" lon="2.8995120">
        <ele>525.9</ele>
        <time>2018-12-30T14:52:21Z</time>
      </trkpt>
      <trkpt lat="39.8547330" lon="2.8995480">
        <ele>526.3</ele>
        <time>2018-12-30T14:52:22Z</time>
      </trkpt>
      <trkpt lat="39.8547530" lon="2.8995830">
        <ele>526.6</ele>
        <time>2018-12-30T14:52:23Z</time>
      </trkpt>
      <trkpt lat="39.8547730" lon="2.8996150">
        <ele>527.0</ele>
        <time>2018-12-30T14:52:24Z</time>
      </trkpt>
      <trkpt lat="39.8547930" lon="2.8996470">
        <ele>527.3</ele>
        <time>2018-12-30T14:52:25Z</time>
      </trkpt>
      <trkpt lat="39.8548120" lon="2.8996800">
        <ele>527.6</ele>
        <time>2018-12-30T14:52:26Z</time>
      </trkpt>
      <trkpt lat="39.8548320" lon="2.8997150">
        <ele>527.9</ele>
        <time>2018-12-30T14:52:27Z</time>
      </trkpt>
      <trkpt lat="39.8548520" lon="2.8997470">
        <ele>528.2</ele>
        <time>2018-12-30T14:52:28Z</time>
      </trkpt>
      <trkpt lat="39.8548720" lon="2.8997830">
        <ele>528.5</ele>
        <time>2018-12-30T14:52:29Z</time>
      </trkpt>
      <trkpt lat="39.8548920" lon="2.8998220">
        <ele>528.9</ele>
        <time>2018-12-30T14:52:30Z</time>
      </trkpt>
      <trkpt lat="39.8549100" lon="2.8998520">
        <ele>529.1</ele>
        <time>2018-12-30T14:52:31Z</time>
      </trkpt>
      <trkpt lat="39.8549300" lon="2.8998880">
        <ele>529.4</ele>
        <time>2018-12-30T14:52:32Z</time>
      </trkpt>
      <trkpt lat="39.8549480" lon="2.8999270">
        <ele>529.8</ele>
        <time>2018-12-30T14:52:33Z</time>
      </trkpt>
      <trkpt lat="39.8549650" lon="2.8999620">
        <ele>530.1</ele>
        <time>2018-12-30T14:52:34Z</time>
      </trkpt>
      <trkpt lat="39.8549830" lon="2.8999980">
        <ele>530.4</ele>
        <time>2018-12-30T14:52:35Z</time>
      </trkpt>
      <trkpt lat="39.8550070" lon="2.9000320">
        <ele>530.9</ele>
        <time>2018-12-30T14:52:36Z</time>
      </trkpt>
      <trkpt lat="39.8550280" lon="2.9000680">
        <ele>531.2</ele>
        <time>2018-12-30T14:52:37Z</time>
      </trkpt>
      <trkpt lat="39.8550470" lon="2.9001020">
        <ele>531.5</ele>
        <time>2018-12-30T14:52:38Z</time>
      </trkpt>
      <trkpt lat="39.8550670" lon="2.9001370">
        <ele>531.8</ele>
        <time>2018-12-30T14:52:39Z</time>
      </trkpt>
      <trkpt lat="39.8550850" lon="2.9001720">
        <ele>532.1</ele>
        <time>2018-12-30T14:52:40Z</time>
      </trkpt>
      <trkpt lat="39.8551030" lon="2.9002080">
        <ele>532.4</ele>
        <time>2018-12-30T14:52:41Z</time>
      </trkpt>
      <trkpt lat="39.8551230" lon="2.9002480">
        <ele>532.7</ele>
        <time>2018-12-30T14:52:42Z</time>
      </trkpt>
      <trkpt lat="39.8551430" lon="2.9002900">
        <ele>533.0</ele>
        <time>2018-12-30T14:52:43Z</time>
      </trkpt>
      <trkpt lat="39.8551650" lon="2.9003280">
        <ele>533.3</ele>
        <time>2018-12-30T14:52:44Z</time>
      </trkpt>
      <trkpt lat="39.8551870" lon="2.9003670">
        <ele>533.6</ele>
        <time>2018-12-30T14:52:45Z</time>
      </trkpt>
      <trkpt lat="39.8552100" lon="2.9004030">
        <ele>533.9</ele>
        <time>2018-12-30T14:52:46Z</time>
      </trkpt>
      <trkpt lat="39.8552320" lon="2.9004370">
        <ele>534.2</ele>
        <time>2018-12-30T14:52:47Z</time>
      </trkpt>
      <trkpt lat="39.8552520" lon="2.9004720">
        <ele>534.4</ele>
        <time>2018-12-30T14:52:48Z</time>
      </trkpt>
      <trkpt lat="39.8552720" lon="2.9005020">
        <ele>534.7</ele>
        <time>2018-12-30T14:52:49Z</time>
      </trkpt>
      <trkpt lat="39.8552930" lon="2.9005330">
        <ele>535.0</ele>
        <time>2018-12-30T14:52:50Z</time>
      </trkpt>
      <trkpt lat="39.8553120" lon="2.9005670">
        <ele>535.2</ele>
        <time>2018-12-30T14:52:51Z</time>
      </trkpt>
      <trkpt lat="39.8553320" lon="2.9006020">
        <ele>535.5</ele>
        <time>2018-12-30T14:52:52Z</time>
      </trkpt>
      <trkpt lat="39.8553520" lon="2.9006380">
        <ele>535.7</ele>
        <time>2018-12-30T14:52:53Z</time>
      </trkpt>
      <trkpt lat="39.8553730" lon="2.9006720">
        <ele>535.9</ele>
        <time>2018-12-30T14:52:54Z</time>
      </trkpt>
      <trkpt lat="39.8553950" lon="2.9007020">
        <ele>536.1</ele>
        <time>2018-12-30T14:52:55Z</time>
      </trkpt>
      <trkpt lat="39.8554150" lon="2.9007320">
        <ele>536.3</ele>
        <time>2018-12-30T14:52:56Z</time>
      </trkpt>
      <trkpt lat="39.8554350" lon="2.9007620">
        <ele>536.5</ele>
        <time>2018-12-30T14:52:57Z</time>
      </trkpt>
      <trkpt lat="39.8554570" lon="2.9007970">
        <ele>536.7</ele>
        <time>2018-12-30T14:52:58Z</time>
      </trkpt>
      <trkpt lat="39.8554780" lon="2.9008350">
        <ele>536.8</ele>
        <time>2018-12-30T14:52:59Z</time>
      </trkpt>
      <trkpt lat="39.8555020" lon="2.9008700">
        <ele>537.0</ele>
        <time>2018-12-30T14:53:00Z</time>
      </trkpt>
      <trkpt lat="39.8555250" lon="2.9009070">
        <ele>537.1</ele>
        <time>2018-12-30T14:53:01Z</time>
      </trkpt>
      <trkpt lat="39.8555520" lon="2.9009450">
        <ele>537.3</ele>
        <time>2018-12-30T14:53:02Z</time>
      </trkpt>
      <trkpt lat="39.8555770" lon="2.9009820">
        <ele>537.4</ele>
        <time>2018-12-30T14:53:03Z</time>
      </trkpt>
      <trkpt lat="39.8556000" lon="2.9010250">
        <ele>537.6</ele>
        <time>2018-12-30T14:53:04Z</time>
      </trkpt>
      <trkpt lat="39.8556230" lon="2.9010670">
        <ele>537.7</ele>
        <time>2018-12-30T14:53:05Z</time>
      </trkpt>
      <trkpt lat="39.8556480" lon="2.9011080">
        <ele>537.9</ele>
        <time>2018-12-30T14:53:06Z</time>
      </trkpt>
      <trkpt lat="39.8556700" lon="2.9011470">
        <ele>538.0</ele>
        <time>2018-12-30T14:53:07Z</time>
      </trkpt>
      <trkpt lat="39.8556930" lon="2.9011830">
        <ele>538.1</ele>
        <time>2018-12-30T14:53:08Z</time>
      </trkpt>
      <trkpt lat="39.8557130" lon="2.9012230">
        <ele>538.3</ele>
        <time>2018-12-30T14:53:09Z</time>
      </trkpt>
      <trkpt lat="39.8557350" lon="2.9012570">
        <ele>538.4</ele>
        <time>2018-12-30T14:53:10Z</time>
      </trkpt>
      <trkpt lat="39.8557600" lon="2.9012870">
        <ele>538.5</ele>
        <time>2018-12-30T14:53:11Z</time>
      </trkpt>
      <trkpt lat="39.8557870" lon="2.9013130">
        <ele>538.6</ele>
        <time>2018-12-30T14:53:12Z</time>
      </trkpt>
      <trkpt lat="39.8558120" lon="2.9013430">
        <ele>538.7</ele>
        <time>2018-12-30T14:53:13Z</time>
      </trkpt>
      <trkpt lat="39.8558330" lon="2.9013770">
        <ele>538.8</ele>
        <time>2018-12-30T14:53:14Z</time>
      </trkpt>
      <trkpt lat="39.8558550" lon="2.9014130">
        <ele>539.0</ele>
        <time>2018-12-30T14:53:15Z</time>
      </trkpt>
      <trkpt lat="39.8558780" lon="2.9014500">
        <ele>539.1</ele>
        <time>2018-12-30T14:53:16Z</time>
      </trkpt>
      <trkpt lat="39.8559000" lon="2.9014880">
        <ele>539.2</ele>
        <time>2018-12-30T14:53:17Z</time>
      </trkpt>
      <trkpt lat="39.8559220" lon="2.9015350">
        <ele>539.3</ele>
        <time>2018-12-30T14:53:18Z</time>
      </trkpt>
      <trkpt lat="39.8559470" lon="2.9015830">
        <ele>539.5</ele>
        <time>2018-12-30T14:53:19Z</time>
      </trkpt>
      <trkpt lat="39.8559720" lon="2.9016400">
        <ele>539.6</ele>
        <time>2018-12-30T14:53:20Z</time>
      </trkpt>
      <trkpt lat="39.8559950" lon="2.9017050">
        <ele>539.7</ele>
        <time>2018-12-30T14:53:21Z</time>
      </trkpt>
      <trkpt lat="39.8560080" lon="2.9017620">
        <ele>539.7</ele>
        <time>2018-12-30T14:53:22Z</time>
      </trkpt>
      <trkpt lat="39.8560220" lon="2.9018350">
        <ele>539.7</ele>
        <time>2018-12-30T14:53:23Z</time>
      </trkpt>
      <trkpt lat="39.8560350" lon="2.9019130">
        <ele>539.7</ele>
        <time>2018-12-30T14:53:24Z</time>
      </trkpt>
      <trkpt lat="39.8560430" lon="2.9020070">
        <ele>539.6</ele>
        <time>2018-12-30T14:53:25Z</time>
      </trkpt>
      <trkpt lat="39.8560470" lon="2.9021020">
        <ele>539.5</ele>
        <time>2018-12-30T14:53:26Z</time>
      </trkpt>
      <trkpt lat="39.8560450" lon="2.9021980">
        <ele>539.4</ele>
        <time>2018-12-30T14:53:27Z</time>
      </trkpt>
      <trkpt lat="39.8560430" lon="2.9023000">
        <ele>539.2</ele>
        <time>2018-12-30T14:53:28Z</time>
      </trkpt>
      <trkpt lat="39.8560470" lon="2.9024070">
        <ele>539.1</ele>
        <time>2018-12-30T14:53:29Z</time>
      </trkpt>
      <trkpt lat="39.8560500" lon="2.9025130">
        <ele>539.0</ele>
        <time>2018-12-30T14:53:30Z</time>
      </trkpt>
      <trkpt lat="39.8560500" lon="2.9026270">
        <ele>538.9</ele>
        <time>2018-12-30T14:53:31Z</time>
      </trkpt>
      <trkpt lat="39.8560470" lon="2.9027470">
        <ele>538.8</ele>
        <time>2018-12-30T14:53:32Z</time>
      </trkpt>
      <trkpt lat="39.8560380" lon="2.9028700">
        <ele>538.7</ele>
        <time>2018-12-30T14:53:33Z</time>
      </trkpt>
      <trkpt lat="39.8560180" lon="2.9029930">
        <ele>538.5</ele>
        <time>2018-12-30T14:53:34Z</time>
      </trkpt>
      <trkpt lat="39.8559920" lon="2.9031180">
        <ele>538.3</ele>
        <time>2018-12-30T14:53:35Z</time>
      </trkpt>
      <trkpt lat="39.8559600" lon="2.9032480">
        <ele>538.0</ele>
        <time>2018-12-30T14:53:36Z</time>
      </trkpt>
      <trkpt lat="39.8559200" lon="2.9033770">
        <ele>537.7</ele>
        <time>2018-12-30T14:53:37Z</time>
      </trkpt>
      <trkpt lat="39.8558750" lon="2.9035030">
        <ele>537.3</ele>
        <time>2018-12-30T14:53:38Z</time>
      </trkpt>
      <trkpt lat="39.8558170" lon="2.9036170">
        <ele>536.8</ele>
        <time>2018-12-30T14:53:39Z</time>
      </trkpt>
      <trkpt lat="39.8557430" lon="2.9037280">
        <ele>536.3</ele>
        <time>2018-12-30T14:53:40Z</time>
      </trkpt>
      <trkpt lat="39.8556500" lon="2.9038170">
        <ele>535.6</ele>
        <time>2018-12-30T14:53:41Z</time>
      </trkpt>
      <trkpt lat="39.8555730" lon="2.9039480">
        <ele>534.8</ele>
        <time>2018-12-30T14:53:42Z</time>
      </trkpt>
      <trkpt lat="39.8554580" lon="2.9040070">
        <ele>534.0</ele>
        <time>2018-12-30T14:53:43Z</time>
      </trkpt>
      <trkpt lat="39.8553550" lon="2.9040880">
        <ele>533.1</ele>
        <time>2018-12-30T14:53:44Z</time>
      </trkpt>
      <trkpt lat="39.8552480" lon="2.9041380">
        <ele>532.2</ele>
        <time>2018-12-30T14:53:45Z</time>
      </trkpt>
      <trkpt lat="39.8551370" lon="2.9041970">
        <ele>531.1</ele>
        <time>2018-12-30T14:53:46Z</time>
      </trkpt>
      <trkpt lat="39.8550300" lon="2.9042700">
        <ele>530.1</ele>
        <time>2018-12-30T14:53:47Z</time>
      </trkpt>
      <trkpt lat="39.8549380" lon="2.9043680">
        <ele>529.1</ele>
        <time>2018-12-30T14:53:48Z</time>
      </trkpt>
      <trkpt lat="39.8548550" lon="2.9044880">
        <ele>528.0</ele>
        <time>2018-12-30T14:53:49Z</time>
      </trkpt>
      <trkpt lat="39.8547800" lon="2.9046100">
        <ele>527.0</ele>
        <time>2018-12-30T14:53:50Z</time>
      </trkpt>
      <trkpt lat="39.8547030" lon="2.9047220">
        <ele>526.1</ele>
        <time>2018-12-30T14:53:51Z</time>
      </trkpt>
      <trkpt lat="39.8546280" lon="2.9048370">
        <ele>525.2</ele>
        <time>2018-12-30T14:53:52Z</time>
      </trkpt>
      <trkpt lat="39.8545650" lon="2.9049530">
        <ele>524.5</ele>
        <time>2018-12-30T14:53:53Z</time>
      </trkpt>
      <trkpt lat="39.8545130" lon="2.9050820">
        <ele>523.7</ele>
        <time>2018-12-30T14:53:54Z</time>
      </trkpt>
      <trkpt lat="39.8544830" lon="2.9052220">
        <ele>522.9</ele>
        <time>2018-12-30T14:53:55Z</time>
      </trkpt>
      <trkpt lat="39.8544620" lon="2.9053630">
        <ele>522.1</ele>
        <time>2018-12-30T14:53:56Z</time>
      </trkpt>
      <trkpt lat="39.8544520" lon="2.9055100">
        <ele>521.3</ele>
        <time>2018-12-30T14:53:57Z</time>
      </trkpt>
      <trkpt lat="39.8544330" lon="2.9056580">
        <ele>520.6</ele>
        <time>2018-12-30T14:53:58Z</time>
      </trkpt>
      <trkpt lat="39.8544000" lon="2.9058050">
        <ele>519.8</ele>
        <time>2018-12-30T14:53:59Z</time>
      </trkpt>
      <trkpt lat="39.8543420" lon="2.9059480">
        <ele>519.1</ele>
        <time>2018-12-30T14:54:00Z</time>
      </trkpt>
      <trkpt lat="39.8542620" lon="2.9060920">
        <ele>518.2</ele>
        <time>2018-12-30T14:54:01Z</time>
      </trkpt>
      <trkpt lat="39.8541770" lon="2.9062280">
        <ele>517.4</ele>
        <time>2018-12-30T14:54:02Z</time>
      </trkpt>
      <trkpt lat="39.8541080" lon="2.9063680">
        <ele>516.6</ele>
        <time>2018-12-30T14:54:03Z</time>
      </trkpt>
      <trkpt lat="39.8540450" lon="2.9065050">
        <ele>515.7</ele>
        <time>2018-12-30T14:54:04Z</time>
      </trkpt>
      <trkpt lat="39.8540000" lon="2.9066430">
        <ele>514.8</ele>
        <time>2018-12-30T14:54:05Z</time>
      </trkpt>
      <trkpt lat="39.8539850" lon="2.9067870">
        <ele>513.8</ele>
        <time>2018-12-30T14:54:06Z</time>
      </trkpt>
      <trkpt lat="39.8539880" lon="2.9069400">
        <ele>512.7</ele>
        <time>2018-12-30T14:54:07Z</time>
      </trkpt>
      <trkpt lat="39.8540100" lon="2.9070970">
        <ele>511.6</ele>
        <time>2018-12-30T14:54:08Z</time>
      </trkpt>
      <trkpt lat="39.8540480" lon="2.9072500">
        <ele>510.4</ele>
        <time>2018-12-30T14:54:09Z</time>
      </trkpt>
      <trkpt lat="39.8541070" lon="2.9073930">
        <ele>509.2</ele>
        <time>2018-12-30T14:54:10Z</time>
      </trkpt>
      <trkpt lat="39.8541630" lon="2.9075380">
        <ele>508.1</ele>
        <time>2018-12-30T14:54:11Z</time>
      </trkpt>
      <trkpt lat="39.8542320" lon="2.9076820">
        <ele>506.9</ele>
        <time>2018-12-30T14:54:12Z</time>
      </trkpt>
      <trkpt lat="39.8543130" lon="2.9078120">
        <ele>505.8</ele>
        <time>2018-12-30T14:54:13Z</time>
      </trkpt>
      <trkpt lat="39.8544120" lon="2.9079270">
        <ele>504.8</ele>
        <time>2018-12-30T14:54:14Z</time>
      </trkpt>
      <trkpt lat="39.8545170" lon="2.9080300">
        <ele>503.9</ele>
        <time>2018-12-30T14:54:15Z</time>
      </trkpt>
      <trkpt lat="39.8546280" lon="2.9081280">
        <ele>502.9</ele>
        <time>2018-12-30T14:54:16Z</time>
      </trkpt>
      <trkpt lat="39.8547420" lon="2.9082220">
        <ele>502.0</ele>
        <time>2018-12-30T14:54:17Z</time>
      </trkpt>
      <trkpt lat="39.8548530" lon="2.9083170">
        <ele>501.0</ele>
        <time>2018-12-30T14:54:18Z</time>
      </trkpt>
      <trkpt lat="39.8549680" lon="2.9084130">
        <ele>500.0</ele>
        <time>2018-12-30T14:54:19Z</time>
      </trkpt>
      <trkpt lat="39.8550800" lon="2.9085130">
        <ele>498.9</ele>
        <time>2018-12-30T14:54:20Z</time>
      </trkpt>
      <trkpt lat="39.8551880" lon="2.9086120">
        <ele>497.9</ele>
        <time>2018-12-30T14:54:21Z</time>
      </trkpt>
      <trkpt lat="39.8552930" lon="2.9087100">
        <ele>496.9</ele>
        <time>2018-12-30T14:54:22Z</time>
      </trkpt>
      <trkpt lat="39.8553950" lon="2.9088080">
        <ele>495.9</ele>
        <time>2018-12-30T14:54:23Z</time>
      </trkpt>
      <trkpt lat="39.8554930" lon="2.9089100">
        <ele>494.8</ele>
        <time>2018-12-30T14:54:24Z</time>
      </trkpt>
      <trkpt lat="39.8555900" lon="2.9090100">
        <ele>493.8</ele>
        <time>2018-12-30T14:54:25Z</time>
      </trkpt>
      <trkpt lat="39.8556830" lon="2.9091050">
        <ele>492.8</ele>
        <time>2018-12-30T14:54:26Z</time>
      </trkpt>
      <trkpt lat="39.8557750" lon="2.9092000">
        <ele>491.9</ele>
        <time>2018-12-30T14:54:27Z</time>
      </trkpt>
      <trkpt lat="39.8558650" lon="2.9092930">
        <ele>491.0</ele>
        <time>2018-12-30T14:54:28Z</time>
      </trkpt>
      <trkpt lat="39.8559550" lon="2.9093870">
        <ele>490.2</ele>
        <time>2018-12-30T14:54:29Z</time>
      </trkpt>
      <trkpt lat="39.8560400" lon="2.9094780">
        <ele>489.5</ele>
        <time>2018-12-30T14:54:30Z</time>
      </trkpt>
      <trkpt lat="39.8561250" lon="2.9095720">
        <ele>488.9</ele>
        <time>2018-12-30T14:54:31Z</time>
      </trkpt>
      <trkpt lat="39.8562070" lon="2.9096600">
        <ele>488.5</ele>
        <time>2018-12-30T14:54:32Z</time>
      </trkpt>
      <trkpt lat="39.8562850" lon="2.9097480">
        <ele>488.2</ele>
        <time>2018-12-30T14:54:33Z</time>
      </trkpt>
      <trkpt lat="39.8563650" lon="2.9098400">
        <ele>487.9</ele>
        <time>2018-12-30T14:54:34Z</time>
      </trkpt>
      <trkpt lat="39.8564480" lon="2.9099280">
        <ele>487.8</ele>
        <time>2018-12-30T14:54:35Z</time>
      </trkpt>
      <trkpt lat="39.8565370" lon="2.9100170">
        <ele>487.6</ele>
        <time>2018-12-30T14:54:36Z</time>
      </trkpt>
      <trkpt lat="39.8566250" lon="2.9101070">
        <ele>487.5</ele>
        <time>2018-12-30T14:54:37Z</time>
      </trkpt>
      <trkpt lat="39.8567170" lon="2.9101930">
        <ele>487.5</ele>
        <time>2018-12-30T14:54:38Z</time>
      </trkpt>
      <trkpt lat="39.8568170" lon="2.9102700">
        <ele>487.4</ele>
        <time>2018-12-30T14:54:39Z</time>
      </trkpt>
      <trkpt lat="39.8569230" lon="2.9103320">
        <ele>487.3</ele>
        <time>2018-12-30T14:54:40Z</time>
      </trkpt>
      <trkpt lat="39.8570370" lon="2.9103750">
        <ele>487.1</ele>
        <time>2018-12-30T14:54:41Z</time>
      </trkpt>
      <trkpt lat="39.8571580" lon="2.9104080">
        <ele>486.8</ele>
        <time>2018-12-30T14:54:42Z</time>
      </trkpt>
      <trkpt lat="39.8572830" lon="2.9104420">
        <ele>486.4</ele>
        <time>2018-12-30T14:54:43Z</time>
      </trkpt>
      <trkpt lat="39.8574100" lon="2.9104700">
        <ele>485.8</ele>
        <time>2018-12-30T14:54:44Z</time>
      </trkpt>
      <trkpt lat="39.8575350" lon="2.9104950">
        <ele>485.2</ele>
        <time>2018-12-30T14:54:45Z</time>
      </trkpt>
      <trkpt lat="39.8576620" lon="2.9105130">
        <ele>484.3</ele>
        <time>2018-12-30T14:54:46Z</time>
      </trkpt>
      <trkpt lat="39.8577870" lon="2.9105230">
        <ele>483.4</ele>
        <time>2018-12-30T14:54:47Z</time>
      </trkpt>
      <trkpt lat="39.8579100" lon="2.9105220">
        <ele>482.5</ele>
        <time>2018-12-30T14:54:48Z</time>
      </trkpt>
      <trkpt lat="39.8580320" lon="2.9105130">
        <ele>481.5</ele>
        <time>2018-12-30T14:54:49Z</time>
      </trkpt>
      <trkpt lat="39.8581420" lon="2.9105050">
        <ele>480.6</ele>
        <time>2018-12-30T14:54:50Z</time>
      </trkpt>
      <trkpt lat="39.8582450" lon="2.9105030">
        <ele>479.7</ele>
        <time>2018-12-30T14:54:51Z</time>
      </trkpt>
      <trkpt lat="39.8583420" lon="2.9105170">
        <ele>478.8</ele>
        <time>2018-12-30T14:54:52Z</time>
      </trkpt>
      <trkpt lat="39.8584180" lon="2.9105720">
        <ele>478.0</ele>
        <time>2018-12-30T14:54:53Z</time>
      </trkpt>
      <trkpt lat="39.8584630" lon="2.9106750">
        <ele>477.0</ele>
        <time>2018-12-30T14:54:54Z</time>
      </trkpt>
      <trkpt lat="39.8584980" lon="2.9107780">
        <ele>476.2</ele>
        <time>2018-12-30T14:54:55Z</time>
      </trkpt>
      <trkpt lat="39.8584800" lon="2.9109000">
        <ele>475.3</ele>
        <time>2018-12-30T14:54:56Z</time>
      </trkpt>
      <trkpt lat="39.8584370" lon="2.9110080">
        <ele>474.4</ele>
        <time>2018-12-30T14:54:57Z</time>
      </trkpt>
      <trkpt lat="39.8583670" lon="2.9111030">
        <ele>473.5</ele>
        <time>2018-12-30T14:54:58Z</time>
      </trkpt>
      <trkpt lat="39.8582950" lon="2.9111930">
        <ele>472.7</ele>
        <time>2018-12-30T14:54:59Z</time>
      </trkpt>
      <trkpt lat="39.8582080" lon="2.9112850">
        <ele>471.8</ele>
        <time>2018-12-30T14:55:00Z</time>
      </trkpt>
      <trkpt lat="39.8581220" lon="2.9113780">
        <ele>471.0</ele>
        <time>2018-12-30T14:55:01Z</time>
      </trkpt>
      <trkpt lat="39.8580370" lon="2.9114720">
        <ele>470.2</ele>
        <time>2018-12-30T14:55:02Z</time>
      </trkpt>
      <trkpt lat="39.8579420" lon="2.9115680">
        <ele>469.4</ele>
        <time>2018-12-30T14:55:03Z</time>
      </trkpt>
      <trkpt lat="39.8578470" lon="2.9116680">
        <ele>468.5</ele>
        <time>2018-12-30T14:55:04Z</time>
      </trkpt>
      <trkpt lat="39.8577280" lon="2.9117680">
        <ele>467.6</ele>
        <time>2018-12-30T14:55:05Z</time>
      </trkpt>
      <trkpt lat="39.8576150" lon="2.9118680">
        <ele>466.6</ele>
        <time>2018-12-30T14:55:06Z</time>
      </trkpt>
      <trkpt lat="39.8575180" lon="2.9119670">
        <ele>465.7</ele>
        <time>2018-12-30T14:55:07Z</time>
      </trkpt>
      <trkpt lat="39.8574270" lon="2.9120620">
        <ele>464.8</ele>
        <time>2018-12-30T14:55:08Z</time>
      </trkpt>
      <trkpt lat="39.8573330" lon="2.9121580">
        <ele>463.8</ele>
        <time>2018-12-30T14:55:09Z</time>
      </trkpt>
      <trkpt lat="39.8572430" lon="2.9122500">
        <ele>462.8</ele>
        <time>2018-12-30T14:55:10Z</time>
      </trkpt>
      <trkpt lat="39.8571570" lon="2.9123420">
        <ele>461.7</ele>
        <time>2018-12-30T14:55:11Z</time>
      </trkpt>
      <trkpt lat="39.8570780" lon="2.9124400">
        <ele>460.7</ele>
        <time>2018-12-30T14:55:12Z</time>
      </trkpt>
      <trkpt lat="39.8570050" lon="2.9125430">
        <ele>459.8</ele>
        <time>2018-12-30T14:55:13Z</time>
      </trkpt>
      <trkpt lat="39.8569400" lon="2.9126530">
        <ele>459.0</ele>
        <time>2018-12-30T14:55:14Z</time>
      </trkpt>
      <trkpt lat="39.8568770" lon="2.9127670">
        <ele>458.2</ele>
        <time>2018-12-30T14:55:15Z</time>
      </trkpt>
      <trkpt lat="39.8568200" lon="2.9128850">
        <ele>457.6</ele>
        <time>2018-12-30T14:55:16Z</time>
      </trkpt>
      <trkpt lat="39.8567680" lon="2.9130020">
        <ele>457.1</ele>
        <time>2018-12-30T14:55:17Z</time>
      </trkpt>
      <trkpt lat="39.8567320" lon="2.9131170">
        <ele>456.7</ele>
        <time>2018-12-30T14:55:18Z</time>
      </trkpt>
      <trkpt lat="39.8567100" lon="2.9132350">
        <ele>456.5</ele>
        <time>2018-12-30T14:55:19Z</time>
      </trkpt>
      <trkpt lat="39.8567050" lon="2.9133570">
        <ele>456.2</ele>
        <time>2018-12-30T14:55:20Z</time>
      </trkpt>
      <trkpt lat="39.8567220" lon="2.9134770">
        <ele>456.0</ele>
        <time>2018-12-30T14:55:21Z</time>
      </trkpt>
      <trkpt lat="39.8567620" lon="2.9135870">
        <ele>455.8</ele>
        <time>2018-12-30T14:55:22Z</time>
      </trkpt>
      <trkpt lat="39.8568270" lon="2.9136850">
        <ele>455.5</ele>
        <time>2018-12-30T14:55:23Z</time>
      </trkpt>
      <trkpt lat="39.8568900" lon="2.9137850">
        <ele>455.2</ele>
        <time>2018-12-30T14:55:24Z</time>
      </trkpt>
      <trkpt lat="39.8569520" lon="2.9138850">
        <ele>454.9</ele>
        <time>2018-12-30T14:55:25Z</time>
      </trkpt>
      <trkpt lat="39.8570130" lon="2.9139780">
        <ele>454.5</ele>
        <time>2018-12-30T14:55:26Z</time>
      </trkpt>
      <trkpt lat="39.8570780" lon="2.9140570">
        <ele>454.1</ele>
        <time>2018-12-30T14:55:27Z</time>
      </trkpt>
      <trkpt lat="39.8571600" lon="2.9141080">
        <ele>453.7</ele>
        <time>2018-12-30T14:55:28Z</time>
      </trkpt>
      <trkpt lat="39.8572550" lon="2.9141270">
        <ele>453.3</ele>
        <time>2018-12-30T14:55:29Z</time>
      </trkpt>
      <trkpt lat="39.8573530" lon="2.9141320">
        <ele>452.9</ele>
        <time>2018-12-30T14:55:30Z</time>
      </trkpt>
      <trkpt lat="39.8574520" lon="2.9141270">
        <ele>452.5</ele>
        <time>2018-12-30T14:55:31Z</time>
      </trkpt>
      <trkpt lat="39.8575500" lon="2.9141170">
        <ele>452.1</ele>
        <time>2018-12-30T14:55:32Z</time>
      </trkpt>
      <trkpt lat="39.8576480" lon="2.9141030">
        <ele>451.7</ele>
        <time>2018-12-30T14:55:33Z</time>
      </trkpt>
      <trkpt lat="39.8577450" lon="2.9140920">
        <ele>451.3</ele>
        <time>2018-12-30T14:55:34Z</time>
      </trkpt>
      <trkpt lat="39.8578400" lon="2.9140820">
        <ele>450.9</ele>
        <time>2018-12-30T14:55:35Z</time>
      </trkpt>
      <trkpt lat="39.8579380" lon="2.9140770">
        <ele>450.5</ele>
        <time>2018-12-30T14:55:36Z</time>
      </trkpt>
      <trkpt lat="39.8580370" lon="2.9140800">
        <ele>450.2</ele>
        <time>2018-12-30T14:55:37Z</time>
      </trkpt>
      <trkpt lat="39.8581320" lon="2.9141030">
        <ele>450.0</ele>
        <time>2018-12-30T14:55:38Z</time>
      </trkpt>
      <trkpt lat="39.8582280" lon="2.9141420">
        <ele>449.7</ele>
        <time>2018-12-30T14:55:39Z</time>
      </trkpt>
      <trkpt lat="39.8583230" lon="2.9141930">
        <ele>449.4</ele>
        <time>2018-12-30T14:55:40Z</time>
      </trkpt>
      <trkpt lat="39.8584180" lon="2.9142450">
        <ele>449.0</ele>
        <time>2018-12-30T14:55:41Z</time>
      </trkpt>
      <trkpt lat="39.8585100" lon="2.9142980">
        <ele>448.7</ele>
        <time>2018-12-30T14:55:42Z</time>
      </trkpt>
      <trkpt lat="39.8586050" lon="2.9143530">
        <ele>448.3</ele>
        <time>2018-12-30T14:55:43Z</time>
      </trkpt>
      <trkpt lat="39.8586970" lon="2.9144080">
        <ele>447.9</ele>
        <time>2018-12-30T14:55:44Z</time>
      </trkpt>
      <trkpt lat="39.8587900" lon="2.9144650">
        <ele>447.6</ele>
        <time>2018-12-30T14:55:45Z</time>
      </trkpt>
      <trkpt lat="39.8588820" lon="2.9145280">
        <ele>447.3</ele>
        <time>2018-12-30T14:55:46Z</time>
      </trkpt>
      <trkpt lat="39.8589670" lon="2.9146000">
        <ele>447.0</ele>
        <time>2018-12-30T14:55:47Z</time>
      </trkpt>
      <trkpt lat="39.8590470" lon="2.9146780">
        <ele>446.7</ele>
        <time>2018-12-30T14:55:48Z</time>
      </trkpt>
      <trkpt lat="39.8591200" lon="2.9147650">
        <ele>446.5</ele>
        <time>2018-12-30T14:55:49Z</time>
      </trkpt>
      <trkpt lat="39.8591850" lon="2.9148550">
        <ele>446.3</ele>
        <time>2018-12-30T14:55:50Z</time>
      </trkpt>
      <trkpt lat="39.8592450" lon="2.9149480">
        <ele>446.1</ele>
        <time>2018-12-30T14:55:51Z</time>
      </trkpt>
      <trkpt lat="39.8593020" lon="2.9150400">
        <ele>446.0</ele>
        <time>2018-12-30T14:55:52Z</time>
      </trkpt>
      <trkpt lat="39.8593520" lon="2.9151430">
        <ele>445.8</ele>
        <time>2018-12-30T14:55:53Z</time>
      </trkpt>
      <trkpt lat="39.8593970" lon="2.9152530">
        <ele>445.6</ele>
        <time>2018-12-30T14:55:54Z</time>
      </trkpt>
      <trkpt lat="39.8594380" lon="2.9153580">
        <ele>445.4</ele>
        <time>2018-12-30T14:55:55Z</time>
      </trkpt>
      <trkpt lat="39.8594950" lon="2.9154530">
        <ele>445.2</ele>
        <time>2018-12-30T14:55:56Z</time>
      </trkpt>
      <trkpt lat="39.8595620" lon="2.9155330">
        <ele>444.7</ele>
        <time>2018-12-30T14:55:57Z</time>
      </trkpt>
      <trkpt lat="39.8596550" lon="2.9155700">
        <ele>444.1</ele>
        <time>2018-12-30T14:55:58Z</time>
      </trkpt>
      <trkpt lat="39.8597500" lon="2.9155730">
        <ele>443.6</ele>
        <time>2018-12-30T14:55:59Z</time>
      </trkpt>
      <trkpt lat="39.8598470" lon="2.9155550">
        <ele>443.2</ele>
        <time>2018-12-30T14:56:00Z</time>
      </trkpt>
      <trkpt lat="39.8599400" lon="2.9155270">
        <ele>442.9</ele>
        <time>2018-12-30T14:56:01Z</time>
      </trkpt>
      <trkpt lat="39.8600380" lon="2.9155050">
        <ele>442.5</ele>
        <time>2018-12-30T14:56:02Z</time>
      </trkpt>
      <trkpt lat="39.8601330" lon="2.9155120">
        <ele>442.2</ele>
        <time>2018-12-30T14:56:03Z</time>
      </trkpt>
      <trkpt lat="39.8602320" lon="2.9155420">
        <ele>441.9</ele>
        <time>2018-12-30T14:56:04Z</time>
      </trkpt>
      <trkpt lat="39.8603280" lon="2.9155970">
        <ele>441.5</ele>
        <time>2018-12-30T14:56:05Z</time>
      </trkpt>
      <trkpt lat="39.8604280" lon="2.9156580">
        <ele>441.1</ele>
        <time>2018-12-30T14:56:06Z</time>
      </trkpt>
      <trkpt lat="39.8605250" lon="2.9157170">
        <ele>440.7</ele>
        <time>2018-12-30T14:56:07Z</time>
      </trkpt>
      <trkpt lat="39.8606230" lon="2.9157750">
        <ele>440.4</ele>
        <time>2018-12-30T14:56:08Z</time>
      </trkpt>
      <trkpt lat="39.8607200" lon="2.9158380">
        <ele>440.0</ele>
        <time>2018-12-30T14:56:09Z</time>
      </trkpt>
      <trkpt lat="39.8608130" lon="2.9159100">
        <ele>439.6</ele>
        <time>2018-12-30T14:56:10Z</time>
      </trkpt>
      <trkpt lat="39.8608870" lon="2.9160120">
        <ele>439.2</ele>
        <time>2018-12-30T14:56:11Z</time>
      </trkpt>
      <trkpt lat="39.8609530" lon="2.9161280">
        <ele>438.8</ele>
        <time>2018-12-30T14:56:12Z</time>
      </trkpt>
      <trkpt lat="39.8610200" lon="2.9162480">
        <ele>438.4</ele>
        <time>2018-12-30T14:56:13Z</time>
      </trkpt>
      <trkpt lat="39.8610880" lon="2.9163680">
        <ele>437.9</ele>
        <time>2018-12-30T14:56:14Z</time>
      </trkpt>
      <trkpt lat="39.8611600" lon="2.9164730">
        <ele>437.5</ele>
        <time>2018-12-30T14:56:15Z</time>
      </trkpt>
      <trkpt lat="39.8612350" lon="2.9165650">
        <ele>437.0</ele>
        <time>2018-12-30T14:56:16Z</time>
      </trkpt>
      <trkpt lat="39.8613280" lon="2.9166250">
        <ele>436.5</ele>
        <time>2018-12-30T14:56:17Z</time>
      </trkpt>
      <trkpt lat="39.8614270" lon="2.9166650">
        <ele>436.1</ele>
        <time>2018-12-30T14:56:18Z</time>
      </trkpt>
      <trkpt lat="39.8615320" lon="2.9166570">
        <ele>435.8</ele>
        <time>2018-12-30T14:56:19Z</time>
      </trkpt>
      <trkpt lat="39.8616370" lon="2.9166400">
        <ele>435.4</ele>
        <time>2018-12-30T14:56:20Z</time>
      </trkpt>
      <trkpt lat="39.8617430" lon="2.9166170">
        <ele>435.0</ele>
        <time>2018-12-30T14:56:21Z</time>
      </trkpt>
      <trkpt lat="39.8618500" lon="2.9165850">
        <ele>434.7</ele>
        <time>2018-12-30T14:56:22Z</time>
      </trkpt>
      <trkpt lat="39.8619580" lon="2.9165470">
        <ele>434.3</ele>
        <time>2018-12-30T14:56:23Z</time>
      </trkpt>
      <trkpt lat="39.8620670" lon="2.9165200">
        <ele>433.9</ele>
        <time>2018-12-30T14:56:24Z</time>
      </trkpt>
      <trkpt lat="39.8621730" lon="2.9164930">
        <ele>433.5</ele>
        <time>2018-12-30T14:56:25Z</time>
      </trkpt>
      <trkpt lat="39.8622800" lon="2.9164600">
        <ele>433.1</ele>
        <time>2018-12-30T14:56:26Z</time>
      </trkpt>
      <trkpt lat="39.8623850" lon="2.9164330">
        <ele>432.7</ele>
        <time>2018-12-30T14:56:27Z</time>
      </trkpt>
      <trkpt lat="39.8624880" lon="2.9164150">
        <ele>432.4</ele>
        <time>2018-12-30T14:56:28Z</time>
      </trkpt>
      <trkpt lat="39.8625920" lon="2.9164100">
        <ele>432.0</ele>
        <time>2018-12-30T14:56:29Z</time>
      </trkpt>
      <trkpt lat="39.8626920" lon="2.9164400">
        <ele>431.6</ele>
        <time>2018-12-30T14:56:30Z</time>
      </trkpt>
      <trkpt lat="39.8627880" lon="2.9164920">
        <ele>431.2</ele>
        <time>2018-12-30T14:56:31Z</time>
      </trkpt>
      <trkpt lat="39.8628800" lon="2.9165570">
        <ele>430.8</ele>
        <time>2018-12-30T14:56:32Z</time>
      </trkpt>
      <trkpt lat="39.8629630" lon="2.9166450">
        <ele>430.4</ele>
        <time>2018-12-30T14:56:33Z</time>
      </trkpt>
      <trkpt lat="39.8630350" lon="2.9167530">
        <ele>430.0</ele>
        <time>2018-12-30T14:56:34Z</time>
      </trkpt>
      <trkpt lat="39.8630920" lon="2.9168800">
        <ele>429.5</ele>
        <time>2018-12-30T14:56:35Z</time>
      </trkpt>
      <trkpt lat="39.8631430" lon="2.9170100">
        <ele>429.0</ele>
        <time>2018-12-30T14:56:36Z</time>
      </trkpt>
      <trkpt lat="39.8632020" lon="2.9171320">
        <ele>428.6</ele>
        <time>2018-12-30T14:56:37Z</time>
      </trkpt>
      <trkpt lat="39.8632700" lon="2.9172320">
        <ele>428.2</ele>
        <time>2018-12-30T14:56:38Z</time>
      </trkpt>
      <trkpt lat="39.8633470" lon="2.9173080">
        <ele>427.8</ele>
        <time>2018-12-30T14:56:39Z</time>
      </trkpt>
      <trkpt lat="39.8634370" lon="2.9173630">
        <ele>427.4</ele>
        <time>2018-12-30T14:56:40Z</time>
      </trkpt>
      <trkpt lat="39.8635530" lon="2.9173970">
        <ele>427.0</ele>
        <time>2018-12-30T14:56:41Z</time>
      </trkpt>
      <trkpt lat="39.8636630" lon="2.9174350">
        <ele>426.6</ele>
        <time>2018-12-30T14:56:42Z</time>
      </trkpt>
      <trkpt lat="39.8637750" lon="2.9174730">
        <ele>426.1</ele>
        <time>2018-12-30T14:56:43Z</time>
      </trkpt>
      <trkpt lat="39.8638900" lon="2.9175170">
        <ele>425.7</ele>
        <time>2018-12-30T14:56:44Z</time>
      </trkpt>
      <trkpt lat="39.8640000" lon="2.9175680">
        <ele>425.2</ele>
        <time>2018-12-30T14:56:45Z</time>
      </trkpt>
      <trkpt lat="39.8640980" lon="2.9176450">
        <ele>424.8</ele>
        <time>2018-12-30T14:56:46Z</time>
      </trkpt>
      <trkpt lat="39.8641800" lon="2.9177550">
        <ele>424.3</ele>
        <time>2018-12-30T14:56:47Z</time>
      </trkpt>
      <trkpt lat="39.8642430" lon="2.9178900">
        <ele>423.8</ele>
        <time>2018-12-30T14:56:48Z</time>
      </trkpt>
      <trkpt lat="39.8642920" lon="2.9180320">
        <ele>423.3</ele>
        <time>2018-12-30T14:56:49Z</time>
      </trkpt>
      <trkpt lat="39.8643350" lon="2.9181770">
        <ele>422.9</ele>
        <time>2018-12-30T14:56:50Z</time>
      </trkpt>
      <trkpt lat="39.8643770" lon="2.9183250">
        <ele>422.4</ele>
        <time>2018-12-30T14:56:51Z</time>
      </trkpt>
      <trkpt lat="39.8644200" lon="2.9184730">
        <ele>422.0</ele>
        <time>2018-12-30T14:56:52Z</time>
      </trkpt>
      <trkpt lat="39.8644670" lon="2.9186220">
        <ele>421.5</ele>
        <time>2018-12-30T14:56:53Z</time>
      </trkpt>
      <trkpt lat="39.8645220" lon="2.9187620">
        <ele>421.1</ele>
        <time>2018-12-30T14:56:54Z</time>
      </trkpt>
      <trkpt lat="39.8645930" lon="2.9188900">
        <ele>420.6</ele>
        <time>2018-12-30T14:56:55Z</time>
      </trkpt>
      <trkpt lat="39.8646780" lon="2.9190100">
        <ele>420.1</ele>
        <time>2018-12-30T14:56:56Z</time>
      </trkpt>
      <trkpt lat="39.8647670" lon="2.9191300">
        <ele>419.6</ele>
        <time>2018-12-30T14:56:57Z</time>
      </trkpt>
      <trkpt lat="39.8648570" lon="2.9192550">
        <ele>419.1</ele>
        <time>2018-12-30T14:56:58Z</time>
      </trkpt>
      <trkpt lat="39.8649430" lon="2.9193870">
        <ele>418.6</ele>
        <time>2018-12-30T14:56:59Z</time>
      </trkpt>
      <trkpt lat="39.8650280" lon="2.9195200">
        <ele>418.0</ele>
        <time>2018-12-30T14:57:00Z</time>
      </trkpt>
      <trkpt lat="39.8651130" lon="2.9196580">
        <ele>417.5</ele>
        <time>2018-12-30T14:57:01Z</time>
      </trkpt>
      <trkpt lat="39.8651930" lon="2.9197930">
        <ele>417.0</ele>
        <time>2018-12-30T14:57:02Z</time>
      </trkpt>
      <trkpt lat="39.8652700" lon="2.9199220">
        <ele>416.5</ele>
        <time>2018-12-30T14:57:03Z</time>
      </trkpt>
      <trkpt lat="39.8653470" lon="2.9200470">
        <ele>415.9</ele>
        <time>2018-12-30T14:57:04Z</time>
      </trkpt>
      <trkpt lat="39.8654200" lon="2.9201630">
        <ele>415.3</ele>
        <time>2018-12-30T14:57:05Z</time>
      </trkpt>
      <trkpt lat="39.8654920" lon="2.9202680">
        <ele>414.7</ele>
        <time>2018-12-30T14:57:06Z</time>
      </trkpt>
      <trkpt lat="39.8655630" lon="2.9203670">
        <ele>414.0</ele>
        <time>2018-12-30T14:57:07Z</time>
      </trkpt>
      <trkpt lat="39.8656330" lon="2.9204580">
        <ele>413.2</ele>
        <time>2018-12-30T14:57:08Z</time>
      </trkpt>
      <trkpt lat="39.8656970" lon="2.9205430">
        <ele>412.4</ele>
        <time>2018-12-30T14:57:09Z</time>
      </trkpt>
      <trkpt lat="39.8657570" lon="2.9206280">
        <ele>411.6</ele>
        <time>2018-12-30T14:57:10Z</time>
      </trkpt>
      <trkpt lat="39.8658130" lon="2.9207050">
        <ele>411.0</ele>
        <time>2018-12-30T14:57:11Z</time>
      </trkpt>
      <trkpt lat="39.8658680" lon="2.9207800">
        <ele>410.3</ele>
        <time>2018-12-30T14:57:12Z</time>
      </trkpt>
      <trkpt lat="39.8659180" lon="2.9208520">
        <ele>409.6</ele>
        <time>2018-12-30T14:57:13Z</time>
      </trkpt>
      <trkpt lat="39.8659630" lon="2.9209220">
        <ele>408.9</ele>
        <time>2018-12-30T14:57:14Z</time>
      </trkpt>
      <trkpt lat="39.8660030" lon="2.9209950">
        <ele>408.3</ele>
        <time>2018-12-30T14:57:15Z</time>
      </trkpt>
      <trkpt lat="39.8660320" lon="2.9210700">
        <ele>407.7</ele>
        <time>2018-12-30T14:57:16Z</time>
      </trkpt>
      <trkpt lat="39.8660520" lon="2.9211570">
        <ele>407.1</ele>
        <time>2018-12-30T14:57:17Z</time>
      </trkpt>
      <trkpt lat="39.8660580" lon="2.9212400">
        <ele>406.6</ele>
        <time>2018-12-30T14:57:18Z</time>
      </trkpt>
      <trkpt lat="39.8660580" lon="2.9213250">
        <ele>406.3</ele>
        <time>2018-12-30T14:57:19Z</time>
      </trkpt>
      <trkpt lat="39.8660570" lon="2.9214130">
        <ele>405.8</ele>
        <time>2018-12-30T14:57:20Z</time>
      </trkpt>
      <trkpt lat="39.8660500" lon="2.9215080">
        <ele>405.3</ele>
        <time>2018-12-30T14:57:21Z</time>
      </trkpt>
      <trkpt lat="39.8660430" lon="2.9216030">
        <ele>404.9</ele>
        <time>2018-12-30T14:57:22Z</time>
      </trkpt>
      <trkpt lat="39.8660370" lon="2.9217000">
        <ele>404.5</ele>
        <time>2018-12-30T14:57:23Z</time>
      </trkpt>
      <trkpt lat="39.8660300" lon="2.9217980">
        <ele>404.1</ele>
        <time>2018-12-30T14:57:24Z</time>
      </trkpt>
      <trkpt lat="39.8660230" lon="2.9218980">
        <ele>403.7</ele>
        <time>2018-12-30T14:57:25Z</time>
      </trkpt>
      <trkpt lat="39.8660170" lon="2.9220000">
        <ele>403.4</ele>
        <time>2018-12-30T14:57:26Z</time>
      </trkpt>
      <trkpt lat="39.8660100" lon="2.9221070">
        <ele>403.0</ele>
        <time>2018-12-30T14:57:27Z</time>
      </trkpt>
      <trkpt lat="39.8660070" lon="2.9222200">
        <ele>402.7</ele>
        <time>2018-12-30T14:57:28Z</time>
      </trkpt>
      <trkpt lat="39.8660100" lon="2.9223430">
        <ele>402.3</ele>
        <time>2018-12-30T14:57:29Z</time>
      </trkpt>
      <trkpt lat="39.8660220" lon="2.9224720">
        <ele>402.0</ele>
        <time>2018-12-30T14:57:30Z</time>
      </trkpt>
      <trkpt lat="39.8660370" lon="2.9226000">
        <ele>401.7</ele>
        <time>2018-12-30T14:57:31Z</time>
      </trkpt>
      <trkpt lat="39.8660580" lon="2.9227300">
        <ele>401.1</ele>
        <time>2018-12-30T14:57:32Z</time>
      </trkpt>
      <trkpt lat="39.8660820" lon="2.9228600">
        <ele>400.4</ele>
        <time>2018-12-30T14:57:33Z</time>
      </trkpt>
      <trkpt lat="39.8661080" lon="2.9229900">
        <ele>399.8</ele>
        <time>2018-12-30T14:57:34Z</time>
      </trkpt>
      <trkpt lat="39.8661380" lon="2.9231180">
        <ele>399.2</ele>
        <time>2018-12-30T14:57:35Z</time>
      </trkpt>
      <trkpt lat="39.8661580" lon="2.9232450">
        <ele>398.7</ele>
        <time>2018-12-30T14:57:36Z</time>
      </trkpt>
      <trkpt lat="39.8661800" lon="2.9233780">
        <ele>398.4</ele>
        <time>2018-12-30T14:57:37Z</time>
      </trkpt>
      <trkpt lat="39.8662030" lon="2.9235170">
        <ele>398.1</ele>
        <time>2018-12-30T14:57:38Z</time>
      </trkpt>
      <trkpt lat="39.8662250" lon="2.9236520">
        <ele>397.9</ele>
        <time>2018-12-30T14:57:39Z</time>
      </trkpt>
      <trkpt lat="39.8662570" lon="2.9237820">
        <ele>397.6</ele>
        <time>2018-12-30T14:57:40Z</time>
      </trkpt>
      <trkpt lat="39.8662850" lon="2.9239070">
        <ele>397.3</ele>
        <time>2018-12-30T14:57:41Z</time>
      </trkpt>
      <trkpt lat="39.8663130" lon="2.9240300">
        <ele>397.1</ele>
        <time>2018-12-30T14:57:42Z</time>
      </trkpt>
      <trkpt lat="39.8663350" lon="2.9241500">
        <ele>396.8</ele>
        <time>2018-12-30T14:57:43Z</time>
      </trkpt>
      <trkpt lat="39.8663670" lon="2.9242670">
        <ele>396.6</ele>
        <time>2018-12-30T14:57:44Z</time>
      </trkpt>
      <trkpt lat="39.8664200" lon="2.9243580">
        <ele>396.5</ele>
        <time>2018-12-30T14:57:45Z</time>
      </trkpt>
      <trkpt lat="39.8664980" lon="2.9244220">
        <ele>396.4</ele>
        <time>2018-12-30T14:57:46Z</time>
      </trkpt>
      <trkpt lat="39.8665870" lon="2.9244600">
        <ele>396.3</ele>
        <time>2018-12-30T14:57:47Z</time>
      </trkpt>
      <trkpt lat="39.8666800" lon="2.9244720">
        <ele>396.2</ele>
        <time>2018-12-30T14:57:48Z</time>
      </trkpt>
      <trkpt lat="39.8667750" lon="2.9244700">
        <ele>396.2</ele>
        <time>2018-12-30T14:57:49Z</time>
      </trkpt>
      <trkpt lat="39.8668720" lon="2.9244670">
        <ele>396.0</ele>
        <time>2018-12-30T14:57:50Z</time>
      </trkpt>
      <trkpt lat="39.8669730" lon="2.9244650">
        <ele>395.9</ele>
        <time>2018-12-30T14:57:51Z</time>
      </trkpt>
      <trkpt lat="39.8670750" lon="2.9244700">
        <ele>395.6</ele>
        <time>2018-12-30T14:57:52Z</time>
      </trkpt>
      <trkpt lat="39.8671780" lon="2.9244830">
        <ele>395.2</ele>
        <time>2018-12-30T14:57:53Z</time>
      </trkpt>
      <trkpt lat="39.8672830" lon="2.9245070">
        <ele>394.7</ele>
        <time>2018-12-30T14:57:54Z</time>
      </trkpt>
      <trkpt lat="39.8673920" lon="2.9245330">
        <ele>394.1</ele>
        <time>2018-12-30T14:57:55Z</time>
      </trkpt>
      <trkpt lat="39.8675000" lon="2.9245630">
        <ele>393.3</ele>
        <time>2018-12-30T14:57:56Z</time>
      </trkpt>
      <trkpt lat="39.8676100" lon="2.9245950">
        <ele>392.5</ele>
        <time>2018-12-30T14:57:57Z</time>
      </trkpt>
      <trkpt lat="39.8677220" lon="2.9246270">
        <ele>391.7</ele>
        <time>2018-12-30T14:57:58Z</time>
      </trkpt>
      <trkpt lat="39.8678330" lon="2.9246580">
        <ele>390.8</ele>
        <time>2018-12-30T14:57:59Z</time>
      </trkpt>
      <trkpt lat="39.8679470" lon="2.9246900">
        <ele>389.9</ele>
        <time>2018-12-30T14:58:00Z</time>
      </trkpt>
      <trkpt lat="39.8680600" lon="2.9247230">
        <ele>389.2</ele>
        <time>2018-12-30T14:58:01Z</time>
      </trkpt>
      <trkpt lat="39.8681750" lon="2.9247570">
        <ele>389.0</ele>
        <time>2018-12-30T14:58:02Z</time>
      </trkpt>
      <trkpt lat="39.8682920" lon="2.9247880">
        <ele>389.0</ele>
        <time>2018-12-30T14:58:03Z</time>
      </trkpt>
      <trkpt lat="39.8684120" lon="2.9248200">
        <ele>389.0</ele>
        <time>2018-12-30T14:58:04Z</time>
      </trkpt>
      <trkpt lat="39.8685350" lon="2.9248530">
        <ele>388.9</ele>
        <time>2018-12-30T14:58:05Z</time>
      </trkpt>
      <trkpt lat="39.8686620" lon="2.9248900">
        <ele>388.7</ele>
        <time>2018-12-30T14:58:06Z</time>
      </trkpt>
      <trkpt lat="39.8687920" lon="2.9249100">
        <ele>388.6</ele>
        <time>2018-12-30T14:58:07Z</time>
      </trkpt>
      <trkpt lat="39.8689170" lon="2.9249470">
        <ele>388.2</ele>
        <time>2018-12-30T14:58:08Z</time>
      </trkpt>
      <trkpt lat="39.8690330" lon="2.9250020">
        <ele>387.8</ele>
        <time>2018-12-30T14:58:09Z</time>
      </trkpt>
      <trkpt lat="39.8691520" lon="2.9250730">
        <ele>387.2</ele>
        <time>2018-12-30T14:58:10Z</time>
      </trkpt>
      <trkpt lat="39.8692550" lon="2.9251670">
        <ele>386.6</ele>
        <time>2018-12-30T14:58:11Z</time>
      </trkpt>
      <trkpt lat="39.8693400" lon="2.9252880">
        <ele>385.9</ele>
        <time>2018-12-30T14:58:12Z</time>
      </trkpt>
      <trkpt lat="39.8694070" lon="2.9254200">
        <ele>385.2</ele>
        <time>2018-12-30T14:58:13Z</time>
      </trkpt>
      <trkpt lat="39.8694330" lon="2.9255630">
        <ele>384.4</ele>
        <time>2018-12-30T14:58:14Z</time>
      </trkpt>
      <trkpt lat="39.8694280" lon="2.9257130">
        <ele>383.6</ele>
        <time>2018-12-30T14:58:15Z</time>
      </trkpt>
      <trkpt lat="39.8693920" lon="2.9258550">
        <ele>382.8</ele>
        <time>2018-12-30T14:58:16Z</time>
      </trkpt>
      <trkpt lat="39.8693450" lon="2.9259980">
        <ele>381.9</ele>
        <time>2018-12-30T14:58:17Z</time>
      </trkpt>
      <trkpt lat="39.8692870" lon="2.9261400">
        <ele>381.0</ele>
        <time>2018-12-30T14:58:18Z</time>
      </trkpt>
      <trkpt lat="39.8692030" lon="2.9262750">
        <ele>380.1</ele>
        <time>2018-12-30T14:58:19Z</time>
      </trkpt>
      <trkpt lat="39.8691070" lon="2.9263970">
        <ele>379.1</ele>
        <time>2018-12-30T14:58:20Z</time>
      </trkpt>
      <trkpt lat="39.8690200" lon="2.9265120">
        <ele>378.3</ele>
        <time>2018-12-30T14:58:21Z</time>
      </trkpt>
      <trkpt lat="39.8689430" lon="2.9266200">
        <ele>377.5</ele>
        <time>2018-12-30T14:58:22Z</time>
      </trkpt>
      <trkpt lat="39.8688700" lon="2.9267370">
        <ele>376.8</ele>
        <time>2018-12-30T14:58:23Z</time>
      </trkpt>
      <trkpt lat="39.8688020" lon="2.9268650">
        <ele>376.0</ele>
        <time>2018-12-30T14:58:24Z</time>
      </trkpt>
      <trkpt lat="39.8687470" lon="2.9270080">
        <ele>375.3</ele>
        <time>2018-12-30T14:58:25Z</time>
      </trkpt>
      <trkpt lat="39.8687020" lon="2.9271620">
        <ele>374.6</ele>
        <time>2018-12-30T14:58:26Z</time>
      </trkpt>
      <trkpt lat="39.8686570" lon="2.9273230">
        <ele>373.9</ele>
        <time>2018-12-30T14:58:27Z</time>
      </trkpt>
      <trkpt lat="39.8686150" lon="2.9274900">
        <ele>373.0</ele>
        <time>2018-12-30T14:58:28Z</time>
      </trkpt>
      <trkpt lat="39.8685730" lon="2.9276580">
        <ele>372.1</ele>
        <time>2018-12-30T14:58:29Z</time>
      </trkpt>
      <trkpt lat="39.8685370" lon="2.9278280">
        <ele>370.5</ele>
        <time>2018-12-30T14:58:30Z</time>
      </trkpt>
      <trkpt lat="39.8685000" lon="2.9280100">
        <ele>368.9</ele>
        <time>2018-12-30T14:58:31Z</time>
      </trkpt>
      <trkpt lat="39.8684550" lon="2.9281770">
        <ele>367.2</ele>
        <time>2018-12-30T14:58:32Z</time>
      </trkpt>
      <trkpt lat="39.8684180" lon="2.9283280">
        <ele>365.8</ele>
        <time>2018-12-30T14:58:33Z</time>
      </trkpt>
      <trkpt lat="39.8683850" lon="2.9284680">
        <ele>364.4</ele>
        <time>2018-12-30T14:58:34Z</time>
      </trkpt>
      <trkpt lat="39.8683570" lon="2.9285820">
        <ele>363.2</ele>
        <time>2018-12-30T14:58:35Z</time>
      </trkpt>
      <trkpt lat="39.8683050" lon="2.9286800">
        <ele>362.0</ele>
        <time>2018-12-30T14:58:36Z</time>
      </trkpt>
      <trkpt lat="39.8682480" lon="2.9287570">
        <ele>360.9</ele>
        <time>2018-12-30T14:58:37Z</time>
      </trkpt>
      <trkpt lat="39.8681530" lon="2.9287800">
        <ele>359.6</ele>
        <time>2018-12-30T14:58:38Z</time>
      </trkpt>
      <trkpt lat="39.8680630" lon="2.9287350">
        <ele>358.5</ele>
        <time>2018-12-30T14:58:39Z</time>
      </trkpt>
      <trkpt lat="39.8679870" lon="2.9286420">
        <ele>357.3</ele>
        <time>2018-12-30T14:58:40Z</time>
      </trkpt>
      <trkpt lat="39.8679330" lon="2.9285230">
        <ele>356.2</ele>
        <time>2018-12-30T14:58:41Z</time>
      </trkpt>
      <trkpt lat="39.8678900" lon="2.9283850">
        <ele>355.1</ele>
        <time>2018-12-30T14:58:42Z</time>
      </trkpt>
      <trkpt lat="39.8678500" lon="2.9282430">
        <ele>354.0</ele>
        <time>2018-12-30T14:58:43Z</time>
      </trkpt>
      <trkpt lat="39.8678100" lon="2.9281000">
        <ele>353.1</ele>
        <time>2018-12-30T14:58:44Z</time>
      </trkpt>
      <trkpt lat="39.8677630" lon="2.9279600">
        <ele>352.2</ele>
        <time>2018-12-30T14:58:45Z</time>
      </trkpt>
      <trkpt lat="39.8677130" lon="2.9278330">
        <ele>351.4</ele>
        <time>2018-12-30T14:58:46Z</time>
      </trkpt>
      <trkpt lat="39.8676520" lon="2.9277230">
        <ele>350.5</ele>
        <time>2018-12-30T14:58:47Z</time>
      </trkpt>
      <trkpt lat="39.8675870" lon="2.9276320">
        <ele>349.7</ele>
        <time>2018-12-30T14:58:48Z</time>
      </trkpt>
      <trkpt lat="39.8675130" lon="2.9275630">
        <ele>348.9</ele>
        <time>2018-12-30T14:58:49Z</time>
      </trkpt>
      <trkpt lat="39.8674270" lon="2.9275370">
        <ele>348.1</ele>
        <time>2018-12-30T14:58:50Z</time>
      </trkpt>
      <trkpt lat="39.8673430" lon="2.9275330">
        <ele>347.3</ele>
        <time>2018-12-30T14:58:51Z</time>
      </trkpt>
      <trkpt lat="39.8672470" lon="2.9276150">
        <ele>346.5</ele>
        <time>2018-12-30T14:58:52Z</time>
      </trkpt>
      <trkpt lat="39.8671700" lon="2.9277120">
        <ele>345.5</ele>
        <time>2018-12-30T14:58:53Z</time>
      </trkpt>
      <trkpt lat="39.8670900" lon="2.9278380">
        <ele>344.5</ele>
        <time>2018-12-30T14:58:54Z</time>
      </trkpt>
      <trkpt lat="39.8670230" lon="2.9279930">
        <ele>343.4</ele>
        <time>2018-12-30T14:58:55Z</time>
      </trkpt>
      <trkpt lat="39.8669730" lon="2.9281670">
        <ele>342.2</ele>
        <time>2018-12-30T14:58:56Z</time>
      </trkpt>
      <trkpt lat="39.8669180" lon="2.9283150">
        <ele>342.1</ele>
        <time>2018-12-30T14:58:57Z</time>
      </trkpt>
      <trkpt lat="39.8668620" lon="2.9284630">
        <ele>342.2</ele>
        <time>2018-12-30T14:58:58Z</time>
      </trkpt>
      <trkpt lat="39.8668050" lon="2.9286080">
        <ele>342.2</ele>
        <time>2018-12-30T14:58:59Z</time>
      </trkpt>
      <trkpt lat="39.8667500" lon="2.9287530">
        <ele>342.3</ele>
        <time>2018-12-30T14:59:00Z</time>
      </trkpt>
      <trkpt lat="39.8666930" lon="2.9288970">
        <ele>342.5</ele>
        <time>2018-12-30T14:59:01Z</time>
      </trkpt>
      <trkpt lat="39.8666380" lon="2.9290370">
        <ele>342.7</ele>
        <time>2018-12-30T14:59:02Z</time>
      </trkpt>
      <trkpt lat="39.8665780" lon="2.9291770">
        <ele>342.8</ele>
        <time>2018-12-30T14:59:03Z</time>
      </trkpt>
      <trkpt lat="39.8665120" lon="2.9293080">
        <ele>342.6</ele>
        <time>2018-12-30T14:59:04Z</time>
      </trkpt>
      <trkpt lat="39.8664350" lon="2.9294300">
        <ele>342.2</ele>
        <time>2018-12-30T14:59:05Z</time>
      </trkpt>
      <trkpt lat="39.8663480" lon="2.9295320">
        <ele>341.7</ele>
        <time>2018-12-30T14:59:06Z</time>
      </trkpt>
      <trkpt lat="39.8662680" lon="2.9296370">
        <ele>341.2</ele>
        <time>2018-12-30T14:59:07Z</time>
      </trkpt>
      <trkpt lat="39.8662000" lon="2.9297450">
        <ele>340.7</ele>
        <time>2018-12-30T14:59:08Z</time>
      </trkpt>
      <trkpt lat="39.8661450" lon="2.9298680">
        <ele>340.1</ele>
        <time>2018-12-30T14:59:09Z</time>
      </trkpt>
      <trkpt lat="39.8661030" lon="2.9300020">
        <ele>339.3</ele>
        <time>2018-12-30T14:59:10Z</time>
      </trkpt>
      <trkpt lat="39.8660670" lon="2.9301420">
        <ele>338.5</ele>
        <time>2018-12-30T14:59:11Z</time>
      </trkpt>
      <trkpt lat="39.8660320" lon="2.9302880">
        <ele>337.6</ele>
        <time>2018-12-30T14:59:12Z</time>
      </trkpt>
      <trkpt lat="39.8659970" lon="2.9304320">
        <ele>336.8</ele>
        <time>2018-12-30T14:59:13Z</time>
      </trkpt>
      <trkpt lat="39.8659630" lon="2.9305670">
        <ele>336.1</ele>
        <time>2018-12-30T14:59:14Z</time>
      </trkpt>
      <trkpt lat="39.8659300" lon="2.9306880">
        <ele>335.6</ele>
        <time>2018-12-30T14:59:15Z</time>
      </trkpt>
      <trkpt lat="39.8659020" lon="2.9308080">
        <ele>335.1</ele>
        <time>2018-12-30T14:59:16Z</time>
      </trkpt>
      <trkpt lat="39.8659150" lon="2.9309280">
        <ele>334.1</ele>
        <time>2018-12-30T14:59:17Z</time>
      </trkpt>
      <trkpt lat="39.8659520" lon="2.9310350">
        <ele>333.1</ele>
        <time>2018-12-30T14:59:18Z</time>
      </trkpt>
      <trkpt lat="39.8660200" lon="2.9311280">
        <ele>332.0</ele>
        <time>2018-12-30T14:59:19Z</time>
      </trkpt>
      <trkpt lat="39.8661130" lon="2.9311950">
        <ele>331.1</ele>
        <time>2018-12-30T14:59:20Z</time>
      </trkpt>
      <trkpt lat="39.8662230" lon="2.9312470">
        <ele>330.3</ele>
        <time>2018-12-30T14:59:21Z</time>
      </trkpt>
      <trkpt lat="39.8663530" lon="2.9312780">
        <ele>329.1</ele>
        <time>2018-12-30T14:59:22Z</time>
      </trkpt>
      <trkpt lat="39.8664820" lon="2.9313070">
        <ele>328.1</ele>
        <time>2018-12-30T14:59:23Z</time>
      </trkpt>
      <trkpt lat="39.8666080" lon="2.9313400">
        <ele>327.4</ele>
        <time>2018-12-30T14:59:24Z</time>
      </trkpt>
      <trkpt lat="39.8667250" lon="2.9313870">
        <ele>326.6</ele>
        <time>2018-12-30T14:59:25Z</time>
      </trkpt>
      <trkpt lat="39.8668200" lon="2.9314700">
        <ele>325.7</ele>
        <time>2018-12-30T14:59:26Z</time>
      </trkpt>
      <trkpt lat="39.8669000" lon="2.9315800">
        <ele>324.7</ele>
        <time>2018-12-30T14:59:27Z</time>
      </trkpt>
      <trkpt lat="39.8669650" lon="2.9317280">
        <ele>323.9</ele>
        <time>2018-12-30T14:59:28Z</time>
      </trkpt>
      <trkpt lat="39.8670130" lon="2.9318770">
        <ele>323.0</ele>
        <time>2018-12-30T14:59:29Z</time>
      </trkpt>
      <trkpt lat="39.8670620" lon="2.9320250">
        <ele>322.2</ele>
        <time>2018-12-30T14:59:30Z</time>
      </trkpt>
      <trkpt lat="39.8671170" lon="2.9321750">
        <ele>321.4</ele>
        <time>2018-12-30T14:59:31Z</time>
      </trkpt>
      <trkpt lat="39.8671800" lon="2.9323270">
        <ele>320.6</ele>
        <time>2018-12-30T14:59:32Z</time>
      </trkpt>
      <trkpt lat="39.8672350" lon="2.9324730">
        <ele>319.6</ele>
        <time>2018-12-30T14:59:33Z</time>
      </trkpt>
      <trkpt lat="39.8672750" lon="2.9326120">
        <ele>318.9</ele>
        <time>2018-12-30T14:59:34Z</time>
      </trkpt>
      <trkpt lat="39.8672770" lon="2.9327530">
        <ele>318.2</ele>
        <time>2018-12-30T14:59:35Z</time>
      </trkpt>
      <trkpt lat="39.8672470" lon="2.9329020">
        <ele>317.4</ele>
        <time>2018-12-30T14:59:36Z</time>
      </trkpt>
      <trkpt lat="39.8671680" lon="2.9330180">
        <ele>316.7</ele>
        <time>2018-12-30T14:59:37Z</time>
      </trkpt>
      <trkpt lat="39.8670750" lon="2.9331150">
        <ele>315.8</ele>
        <time>2018-12-30T14:59:38Z</time>
      </trkpt>
      <trkpt lat="39.8669730" lon="2.9332120">
        <ele>314.8</ele>
        <time>2018-12-30T14:59:39Z</time>
      </trkpt>
      <trkpt lat="39.8668850" lon="2.9333300">
        <ele>313.7</ele>
        <time>2018-12-30T14:59:40Z</time>
      </trkpt>
      <trkpt lat="39.8668050" lon="2.9334570">
        <ele>312.8</ele>
        <time>2018-12-30T14:59:41Z</time>
      </trkpt>
      <trkpt lat="39.8667380" lon="2.9336020">
        <ele>311.8</ele>
        <time>2018-12-30T14:59:42Z</time>
      </trkpt>
      <trkpt lat="39.8667050" lon="2.9337630">
        <ele>310.9</ele>
        <time>2018-12-30T14:59:43Z</time>
      </trkpt>
      <trkpt lat="39.8666880" lon="2.9339530">
        <ele>309.7</ele>
        <time>2018-12-30T14:59:44Z</time>
      </trkpt>
      <trkpt lat="39.8666730" lon="2.9341370">
        <ele>308.6</ele>
        <time>2018-12-30T14:59:45Z</time>
      </trkpt>
      <trkpt lat="39.8666580" lon="2.9343180">
        <ele>307.6</ele>
        <time>2018-12-30T14:59:46Z</time>
      </trkpt>
      <trkpt lat="39.8666470" lon="2.9345080">
        <ele>306.5</ele>
        <time>2018-12-30T14:59:47Z</time>
      </trkpt>
      <trkpt lat="39.8666270" lon="2.9347020">
        <ele>305.3</ele>
        <time>2018-12-30T14:59:48Z</time>
      </trkpt>
      <trkpt lat="39.8666180" lon="2.9348980">
        <ele>304.0</ele>
        <time>2018-12-30T14:59:49Z</time>
      </trkpt>
      <trkpt lat="39.8666050" lon="2.9350930">
        <ele>302.7</ele>
        <time>2018-12-30T14:59:50Z</time>
      </trkpt>
      <trkpt lat="39.8665930" lon="2.9352880">
        <ele>301.6</ele>
        <time>2018-12-30T14:59:51Z</time>
      </trkpt>
      <trkpt lat="39.8665930" lon="2.9354880">
        <ele>300.6</ele>
        <time>2018-12-30T14:59:52Z</time>
      </trkpt>
      <trkpt lat="39.8666050" lon="2.9356900">
        <ele>299.9</ele>
        <time>2018-12-30T14:59:53Z</time>
      </trkpt>
      <trkpt lat="39.8666230" lon="2.9358900">
        <ele>299.1</ele>
        <time>2018-12-30T14:59:54Z</time>
      </trkpt>
      <trkpt lat="39.8666530" lon="2.9360900">
        <ele>298.2</ele>
        <time>2018-12-30T14:59:55Z</time>
      </trkpt>
      <trkpt lat="39.8666850" lon="2.9362880">
        <ele>297.0</ele>
        <time>2018-12-30T14:59:56Z</time>
      </trkpt>
      <trkpt lat="39.8667180" lon="2.9364970">
        <ele>295.6</ele>
        <time>2018-12-30T14:59:57Z</time>
      </trkpt>
      <trkpt lat="39.8667570" lon="2.9366970">
        <ele>294.3</ele>
        <time>2018-12-30T14:59:58Z</time>
      </trkpt>
      <trkpt lat="39.8667970" lon="2.9369000">
        <ele>293.0</ele>
        <time>2018-12-30T14:59:59Z</time>
      </trkpt>
      <trkpt lat="39.8668330" lon="2.9371080">
        <ele>291.7</ele>
        <time>2018-12-30T15:00:00Z</time>
      </trkpt>
      <trkpt lat="39.8668650" lon="2.9373220">
        <ele>290.6</ele>
        <time>2018-12-30T15:00:01Z</time>
      </trkpt>
      <trkpt lat="39.8669020" lon="2.9375270">
        <ele>289.7</ele>
        <time>2018-12-30T15:00:02Z</time>
      </trkpt>
      <trkpt lat="39.8669500" lon="2.9377320">
        <ele>288.8</ele>
        <time>2018-12-30T15:00:03Z</time>
      </trkpt>
      <trkpt lat="39.8670070" lon="2.9379330">
        <ele>287.8</ele>
        <time>2018-12-30T15:00:04Z</time>
      </trkpt>
      <trkpt lat="39.8670680" lon="2.9381350">
        <ele>286.4</ele>
        <time>2018-12-30T15:00:05Z</time>
      </trkpt>
      <trkpt lat="39.8671370" lon="2.9383300">
        <ele>285.0</ele>
        <time>2018-12-30T15:00:06Z</time>
      </trkpt>
      <trkpt lat="39.8671930" lon="2.9385200">
        <ele>283.7</ele>
        <time>2018-12-30T15:00:07Z</time>
      </trkpt>
      <trkpt lat="39.8672230" lon="2.9387000">
        <ele>282.9</ele>
        <time>2018-12-30T15:00:08Z</time>
      </trkpt>
      <trkpt lat="39.8672330" lon="2.9388630">
        <ele>282.3</ele>
        <time>2018-12-30T15:00:09Z</time>
      </trkpt>
      <trkpt lat="39.8672400" lon="2.9390280">
        <ele>281.6</ele>
        <time>2018-12-30T15:00:10Z</time>
      </trkpt>
      <trkpt lat="39.8672480" lon="2.9391950">
        <ele>280.9</ele>
        <time>2018-12-30T15:00:11Z</time>
      </trkpt>
      <trkpt lat="39.8672670" lon="2.9393600">
        <ele>280.2</ele>
        <time>2018-12-30T15:00:12Z</time>
      </trkpt>
      <trkpt lat="39.8672950" lon="2.9395220">
        <ele>279.7</ele>
        <time>2018-12-30T15:00:13Z</time>
      </trkpt>
      <trkpt lat="39.8673480" lon="2.9396730">
        <ele>279.2</ele>
        <time>2018-12-30T15:00:14Z</time>
      </trkpt>
      <trkpt lat="39.8674250" lon="2.9398070">
        <ele>278.6</ele>
        <time>2018-12-30T15:00:15Z</time>
      </trkpt>
      <trkpt lat="39.8675200" lon="2.9399220">
        <ele>277.8</ele>
        <time>2018-12-30T15:00:16Z</time>
      </trkpt>
      <trkpt lat="39.8676300" lon="2.9400270">
        <ele>276.8</ele>
        <time>2018-12-30T15:00:17Z</time>
      </trkpt>
      <trkpt lat="39.8677330" lon="2.9401300">
        <ele>275.9</ele>
        <time>2018-12-30T15:00:18Z</time>
      </trkpt>
      <trkpt lat="39.8678330" lon="2.9402330">
        <ele>275.0</ele>
        <time>2018-12-30T15:00:19Z</time>
      </trkpt>
      <trkpt lat="39.8679300" lon="2.9403330">
        <ele>274.2</ele>
        <time>2018-12-30T15:00:20Z</time>
      </trkpt>
      <trkpt lat="39.8680270" lon="2.9404350">
        <ele>273.3</ele>
        <time>2018-12-30T15:00:21Z</time>
      </trkpt>
      <trkpt lat="39.8681270" lon="2.9405320">
        <ele>272.1</ele>
        <time>2018-12-30T15:00:22Z</time>
      </trkpt>
      <trkpt lat="39.8682270" lon="2.9406230">
        <ele>271.2</ele>
        <time>2018-12-30T15:00:23Z</time>
      </trkpt>
      <trkpt lat="39.8683320" lon="2.9407080">
        <ele>270.3</ele>
        <time>2018-12-30T15:00:24Z</time>
      </trkpt>
      <trkpt lat="39.8684400" lon="2.9407870">
        <ele>269.6</ele>
        <time>2018-12-30T15:00:25Z</time>
      </trkpt>
      <trkpt lat="39.8685520" lon="2.9408630">
        <ele>268.9</ele>
        <time>2018-12-30T15:00:26Z</time>
      </trkpt>
      <trkpt lat="39.8686680" lon="2.9409330">
        <ele>268.4</ele>
        <time>2018-12-30T15:00:27Z</time>
      </trkpt>
      <trkpt lat="39.8687900" lon="2.9409920">
        <ele>267.9</ele>
        <time>2018-12-30T15:00:28Z</time>
      </trkpt>
      <trkpt lat="39.8689150" lon="2.9410370">
        <ele>267.5</ele>
        <time>2018-12-30T15:00:29Z</time>
      </trkpt>
      <trkpt lat="39.8690330" lon="2.9410670">
        <ele>267.1</ele>
        <time>2018-12-30T15:00:30Z</time>
      </trkpt>
      <trkpt lat="39.8691350" lon="2.9410850">
        <ele>266.7</ele>
        <time>2018-12-30T15:00:31Z</time>
      </trkpt>
      <trkpt lat="39.8692230" lon="2.9411250">
        <ele>266.3</ele>
        <time>2018-12-30T15:00:32Z</time>
      </trkpt>
      <trkpt lat="39.8692900" lon="2.9412120">
        <ele>265.9</ele>
        <time>2018-12-30T15:00:33Z</time>
      </trkpt>
      <trkpt lat="39.8693420" lon="2.9413120">
        <ele>265.5</ele>
        <time>2018-12-30T15:00:34Z</time>
      </trkpt>
      <trkpt lat="39.8693500" lon="2.9414430">
        <ele>265.0</ele>
        <time>2018-12-30T15:00:35Z</time>
      </trkpt>
      <trkpt lat="39.8693480" lon="2.9415870">
        <ele>264.4</ele>
        <time>2018-12-30T15:00:36Z</time>
      </trkpt>
      <trkpt lat="39.8693580" lon="2.9417350">
        <ele>263.8</ele>
        <time>2018-12-30T15:00:37Z</time>
      </trkpt>
      <trkpt lat="39.8693870" lon="2.9418880">
        <ele>263.2</ele>
        <time>2018-12-30T15:00:38Z</time>
      </trkpt>
      <trkpt lat="39.8694250" lon="2.9420380">
        <ele>262.5</ele>
        <time>2018-12-30T15:00:39Z</time>
      </trkpt>
      <trkpt lat="39.8694720" lon="2.9421920">
        <ele>261.9</ele>
        <time>2018-12-30T15:00:40Z</time>
      </trkpt>
      <trkpt lat="39.8695220" lon="2.9423470">
        <ele>261.3</ele>
        <time>2018-12-30T15:00:41Z</time>
      </trkpt>
      <trkpt lat="39.8695750" lon="2.9425000">
        <ele>260.6</ele>
        <time>2018-12-30T15:00:42Z</time>
      </trkpt>
      <trkpt lat="39.8696370" lon="2.9426520">
        <ele>259.9</ele>
        <time>2018-12-30T15:00:43Z</time>
      </trkpt>
      <trkpt lat="39.8696950" lon="2.9428030">
        <ele>259.2</ele>
        <time>2018-12-30T15:00:44Z</time>
      </trkpt>
      <trkpt lat="39.8697430" lon="2.9429500">
        <ele>258.4</ele>
        <time>2018-12-30T15:00:45Z</time>
      </trkpt>
      <trkpt lat="39.8697870" lon="2.9430880">
        <ele>255.5</ele>
        <time>2018-12-30T15:00:46Z</time>
      </trkpt>
      <trkpt lat="39.8698000" lon="2.9432120">
        <ele>252.9</ele>
        <time>2018-12-30T15:00:47Z</time>
      </trkpt>
      <trkpt lat="39.8697770" lon="2.9433370">
        <ele>250.3</ele>
        <time>2018-12-30T15:00:48Z</time>
      </trkpt>
      <trkpt lat="39.8697130" lon="2.9434400">
        <ele>247.6</ele>
        <time>2018-12-30T15:00:49Z</time>
      </trkpt>
      <trkpt lat="39.8696230" lon="2.9435050">
        <ele>244.8</ele>
        <time>2018-12-30T15:00:50Z</time>
      </trkpt>
      <trkpt lat="39.8695130" lon="2.9435350">
        <ele>242.1</ele>
        <time>2018-12-30T15:00:51Z</time>
      </trkpt>
      <trkpt lat="39.8694070" lon="2.9435000">
        <ele>239.7</ele>
        <time>2018-12-30T15:00:52Z</time>
      </trkpt>
      <trkpt lat="39.8693030" lon="2.9434300">
        <ele>237.4</ele>
        <time>2018-12-30T15:00:53Z</time>
      </trkpt>
      <trkpt lat="39.8692050" lon="2.9433320">
        <ele>235.8</ele>
        <time>2018-12-30T15:00:54Z</time>
      </trkpt>
      <trkpt lat="39.8691270" lon="2.9432150">
        <ele>235.9</ele>
        <time>2018-12-30T15:00:55Z</time>
      </trkpt>
      <trkpt lat="39.8690850" lon="2.9430820">
        <ele>235.1</ele>
        <time>2018-12-30T15:00:56Z</time>
      </trkpt>
      <trkpt lat="39.8690520" lon="2.9429350">
        <ele>234.0</ele>
        <time>2018-12-30T15:00:57Z</time>
      </trkpt>
      <trkpt lat="39.8690220" lon="2.9427880">
        <ele>233.1</ele>
        <time>2018-12-30T15:00:58Z</time>
      </trkpt>
      <trkpt lat="39.8689920" lon="2.9426350">
        <ele>232.3</ele>
        <time>2018-12-30T15:00:59Z</time>
      </trkpt>
      <trkpt lat="39.8689620" lon="2.9424800">
        <ele>231.5</ele>
        <time>2018-12-30T15:01:00Z</time>
      </trkpt>
      <trkpt lat="39.8689220" lon="2.9423470">
        <ele>230.8</ele>
        <time>2018-12-30T15:01:01Z</time>
      </trkpt>
      <trkpt lat="39.8688900" lon="2.9422050">
        <ele>229.9</ele>
        <time>2018-12-30T15:01:02Z</time>
      </trkpt>
      <trkpt lat="39.8688830" lon="2.9420550">
        <ele>228.9</ele>
        <time>2018-12-30T15:01:03Z</time>
      </trkpt>
      <trkpt lat="39.8688850" lon="2.9418970">
        <ele>228.0</ele>
        <time>2018-12-30T15:01:04Z</time>
      </trkpt>
      <trkpt lat="39.8688930" lon="2.9417500">
        <ele>227.3</ele>
        <time>2018-12-30T15:01:05Z</time>
      </trkpt>
      <trkpt lat="39.8688850" lon="2.9416200">
        <ele>226.7</ele>
        <time>2018-12-30T15:01:06Z</time>
      </trkpt>
      <trkpt lat="39.8688630" lon="2.9414950">
        <ele>226.1</ele>
        <time>2018-12-30T15:01:07Z</time>
      </trkpt>
      <trkpt lat="39.8688230" lon="2.9413880">
        <ele>225.6</ele>
        <time>2018-12-30T15:01:08Z</time>
      </trkpt>
      <trkpt lat="39.8687620" lon="2.9413380">
        <ele>225.2</ele>
        <time>2018-12-30T15:01:09Z</time>
      </trkpt>
      <trkpt lat="39.8686750" lon="2.9413250">
        <ele>224.7</ele>
        <time>2018-12-30T15:01:10Z</time>
      </trkpt>
      <trkpt lat="39.8685870" lon="2.9413150">
        <ele>224.0</ele>
        <time>2018-12-30T15:01:11Z</time>
      </trkpt>
      <trkpt lat="39.8684820" lon="2.9413000">
        <ele>223.3</ele>
        <time>2018-12-30T15:01:12Z</time>
      </trkpt>
      <trkpt lat="39.8683650" lon="2.9412850">
        <ele>222.3</ele>
        <time>2018-12-30T15:01:13Z</time>
      </trkpt>
      <trkpt lat="39.8682450" lon="2.9412520">
        <ele>221.3</ele>
        <time>2018-12-30T15:01:14Z</time>
      </trkpt>
      <trkpt lat="39.8681250" lon="2.9412180">
        <ele>220.3</ele>
        <time>2018-12-30T15:01:15Z</time>
      </trkpt>
      <trkpt lat="39.8680130" lon="2.9411770">
        <ele>219.4</ele>
        <time>2018-12-30T15:01:16Z</time>
      </trkpt>
      <trkpt lat="39.8679050" lon="2.9411330">
        <ele>218.8</ele>
        <time>2018-12-30T15:01:17Z</time>
      </trkpt>
      <trkpt lat="39.8677950" lon="2.9410850">
        <ele>218.1</ele>
        <time>2018-12-30T15:01:18Z</time>
      </trkpt>
      <trkpt lat="39.8676780" lon="2.9410380">
        <ele>217.3</ele>
        <time>2018-12-30T15:01:19Z</time>
      </trkpt>
      <trkpt lat="39.8675570" lon="2.9409970">
        <ele>216.4</ele>
        <time>2018-12-30T15:01:20Z</time>
      </trkpt>
      <trkpt lat="39.8674320" lon="2.9409500">
        <ele>215.5</ele>
        <time>2018-12-30T15:01:21Z</time>
      </trkpt>
      <trkpt lat="39.8673080" lon="2.9409030">
        <ele>214.9</ele>
        <time>2018-12-30T15:01:22Z</time>
      </trkpt>
      <trkpt lat="39.8671780" lon="2.9408480">
        <ele>214.1</ele>
        <time>2018-12-30T15:01:23Z</time>
      </trkpt>
      <trkpt lat="39.8670650" lon="2.9407550">
        <ele>213.2</ele>
        <time>2018-12-30T15:01:24Z</time>
      </trkpt>
      <trkpt lat="39.8669500" lon="2.9406550">
        <ele>212.1</ele>
        <time>2018-12-30T15:01:25Z</time>
      </trkpt>
      <trkpt lat="39.8668530" lon="2.9405320">
        <ele>211.2</ele>
        <time>2018-12-30T15:01:26Z</time>
      </trkpt>
      <trkpt lat="39.8667680" lon="2.9404030">
        <ele>210.3</ele>
        <time>2018-12-30T15:01:27Z</time>
      </trkpt>
      <trkpt lat="39.8666750" lon="2.9402780">
        <ele>209.6</ele>
        <time>2018-12-30T15:01:28Z</time>
      </trkpt>
      <trkpt lat="39.8665920" lon="2.9401450">
        <ele>208.9</ele>
        <time>2018-12-30T15:01:29Z</time>
      </trkpt>
      <trkpt lat="39.8665050" lon="2.9400170">
        <ele>208.0</ele>
        <time>2018-12-30T15:01:30Z</time>
      </trkpt>
      <trkpt lat="39.8664170" lon="2.9398880">
        <ele>207.0</ele>
        <time>2018-12-30T15:01:31Z</time>
      </trkpt>
      <trkpt lat="39.8663450" lon="2.9397580">
        <ele>206.4</ele>
        <time>2018-12-30T15:01:32Z</time>
      </trkpt>
      <trkpt lat="39.8662830" lon="2.9396220">
        <ele>205.6</ele>
        <time>2018-12-30T15:01:33Z</time>
      </trkpt>
      <trkpt lat="39.8662350" lon="2.9394800">
        <ele>204.9</ele>
        <time>2018-12-30T15:01:34Z</time>
      </trkpt>
      <trkpt lat="39.8662170" lon="2.9393200">
        <ele>204.0</ele>
        <time>2018-12-30T15:01:35Z</time>
      </trkpt>
      <trkpt lat="39.8662120" lon="2.9391580">
        <ele>203.2</ele>
        <time>2018-12-30T15:01:36Z</time>
      </trkpt>
      <trkpt lat="39.8662030" lon="2.9390070">
        <ele>202.4</ele>
        <time>2018-12-30T15:01:37Z</time>
      </trkpt>
      <trkpt lat="39.8661850" lon="2.9388620">
        <ele>201.7</ele>
        <time>2018-12-30T15:01:38Z</time>
      </trkpt>
      <trkpt lat="39.8661570" lon="2.9387300">
        <ele>201.1</ele>
        <time>2018-12-30T15:01:39Z</time>
      </trkpt>
      <trkpt lat="39.8661250" lon="2.9386150">
        <ele>200.5</ele>
        <time>2018-12-30T15:01:40Z</time>
      </trkpt>
      <trkpt lat="39.8661030" lon="2.9385330">
        <ele>200.0</ele>
        <time>2018-12-30T15:01:41Z</time>
      </trkpt>
      <trkpt lat="39.8660330" lon="2.9384830">
        <ele>199.3</ele>
        <time>2018-12-30T15:01:42Z</time>
      </trkpt>
      <trkpt lat="39.8659570" lon="2.9384850">
        <ele>198.5</ele>
        <time>2018-12-30T15:01:43Z</time>
      </trkpt>
      <trkpt lat="39.8658800" lon="2.9386280">
        <ele>197.3</ele>
        <time>2018-12-30T15:01:44Z</time>
      </trkpt>
      <trkpt lat="39.8658550" lon="2.9387600">
        <ele>196.5</ele>
        <time>2018-12-30T15:01:45Z</time>
      </trkpt>
      <trkpt lat="39.8658570" lon="2.9389020">
        <ele>195.7</ele>
        <time>2018-12-30T15:01:46Z</time>
      </trkpt>
      <trkpt lat="39.8658750" lon="2.9390520">
        <ele>194.8</ele>
        <time>2018-12-30T15:01:47Z</time>
      </trkpt>
      <trkpt lat="39.8659020" lon="2.9392050">
        <ele>193.6</ele>
        <time>2018-12-30T15:01:48Z</time>
      </trkpt>
      <trkpt lat="39.8659320" lon="2.9393600">
        <ele>192.8</ele>
        <time>2018-12-30T15:01:49Z</time>
      </trkpt>
      <trkpt lat="39.8659670" lon="2.9395180">
        <ele>192.0</ele>
        <time>2018-12-30T15:01:50Z</time>
      </trkpt>
      <trkpt lat="39.8659970" lon="2.9396780">
        <ele>191.3</ele>
        <time>2018-12-30T15:01:51Z</time>
      </trkpt>
      <trkpt lat="39.8660300" lon="2.9398400">
        <ele>190.2</ele>
        <time>2018-12-30T15:01:52Z</time>
      </trkpt>
      <trkpt lat="39.8660650" lon="2.9400070">
        <ele>189.3</ele>
        <time>2018-12-30T15:01:53Z</time>
      </trkpt>
      <trkpt lat="39.8661030" lon="2.9401700">
        <ele>188.6</ele>
        <time>2018-12-30T15:01:54Z</time>
      </trkpt>
      <trkpt lat="39.8661520" lon="2.9403280">
        <ele>187.8</ele>
        <time>2018-12-30T15:01:55Z</time>
      </trkpt>
      <trkpt lat="39.8662100" lon="2.9404820">
        <ele>186.8</ele>
        <time>2018-12-30T15:01:56Z</time>
      </trkpt>
      <trkpt lat="39.8662770" lon="2.9406350">
        <ele>185.9</ele>
        <time>2018-12-30T15:01:57Z</time>
      </trkpt>
      <trkpt lat="39.8663450" lon="2.9407880">
        <ele>185.0</ele>
        <time>2018-12-30T15:01:58Z</time>
      </trkpt>
      <trkpt lat="39.8664070" lon="2.9409500">
        <ele>184.2</ele>
        <time>2018-12-30T15:01:59Z</time>
      </trkpt>
      <trkpt lat="39.8664570" lon="2.9411170">
        <ele>183.4</ele>
        <time>2018-12-30T15:02:00Z</time>
      </trkpt>
      <trkpt lat="39.8664830" lon="2.9412880">
        <ele>182.4</ele>
        <time>2018-12-30T15:02:01Z</time>
      </trkpt>
      <trkpt lat="39.8665000" lon="2.9414620">
        <ele>181.5</ele>
        <time>2018-12-30T15:02:02Z</time>
      </trkpt>
      <trkpt lat="39.8665170" lon="2.9416370">
        <ele>180.5</ele>
        <time>2018-12-30T15:02:03Z</time>
      </trkpt>
      <trkpt lat="39.8665400" lon="2.9418080">
        <ele>179.4</ele>
        <time>2018-12-30T15:02:04Z</time>
      </trkpt>
      <trkpt lat="39.8665820" lon="2.9419700">
        <ele>178.5</ele>
        <time>2018-12-30T15:02:05Z</time>
      </trkpt>
      <trkpt lat="39.8666430" lon="2.9421220">
        <ele>177.7</ele>
        <time>2018-12-30T15:02:06Z</time>
      </trkpt>
      <trkpt lat="39.8667250" lon="2.9422600">
        <ele>176.5</ele>
        <time>2018-12-30T15:02:07Z</time>
      </trkpt>
      <trkpt lat="39.8668120" lon="2.9424070">
        <ele>175.5</ele>
        <time>2018-12-30T15:02:08Z</time>
      </trkpt>
      <trkpt lat="39.8668930" lon="2.9425580">
        <ele>174.5</ele>
        <time>2018-12-30T15:02:09Z</time>
      </trkpt>
      <trkpt lat="39.8669780" lon="2.9427100">
        <ele>173.3</ele>
        <time>2018-12-30T15:02:10Z</time>
      </trkpt>
      <trkpt lat="39.8670680" lon="2.9428530">
        <ele>172.1</ele>
        <time>2018-12-30T15:02:11Z</time>
      </trkpt>
      <trkpt lat="39.8671720" lon="2.9429800">
        <ele>171.0</ele>
        <time>2018-12-30T15:02:12Z</time>
      </trkpt>
      <trkpt lat="39.8672880" lon="2.9430920">
        <ele>169.9</ele>
        <time>2018-12-30T15:02:13Z</time>
      </trkpt>
      <trkpt lat="39.8674150" lon="2.9432050">
        <ele>168.8</ele>
        <time>2018-12-30T15:02:14Z</time>
      </trkpt>
      <trkpt lat="39.8675370" lon="2.9433100">
        <ele>167.9</ele>
        <time>2018-12-30T15:02:15Z</time>
      </trkpt>
      <trkpt lat="39.8676480" lon="2.9434030">
        <ele>167.1</ele>
        <time>2018-12-30T15:02:16Z</time>
      </trkpt>
      <trkpt lat="39.8677330" lon="2.9435070">
        <ele>166.1</ele>
        <time>2018-12-30T15:02:17Z</time>
      </trkpt>
      <trkpt lat="39.8678120" lon="2.9435980">
        <ele>165.5</ele>
        <time>2018-12-30T15:02:18Z</time>
      </trkpt>
      <trkpt lat="39.8678670" lon="2.9436950">
        <ele>165.0</ele>
        <time>2018-12-30T15:02:19Z</time>
      </trkpt>
      <trkpt lat="39.8679020" lon="2.9438220">
        <ele>164.5</ele>
        <time>2018-12-30T15:02:20Z</time>
      </trkpt>
      <trkpt lat="39.8679150" lon="2.9439600">
        <ele>163.9</ele>
        <time>2018-12-30T15:02:21Z</time>
      </trkpt>
      <trkpt lat="39.8679400" lon="2.9441080">
        <ele>163.4</ele>
        <time>2018-12-30T15:02:22Z</time>
      </trkpt>
      <trkpt lat="39.8679730" lon="2.9442600">
        <ele>162.8</ele>
        <time>2018-12-30T15:02:23Z</time>
      </trkpt>
      <trkpt lat="39.8680130" lon="2.9443950">
        <ele>162.3</ele>
        <time>2018-12-30T15:02:24Z</time>
      </trkpt>
      <trkpt lat="39.8680630" lon="2.9445500">
        <ele>161.6</ele>
        <time>2018-12-30T15:02:25Z</time>
      </trkpt>
      <trkpt lat="39.8681180" lon="2.9446980">
        <ele>160.7</ele>
        <time>2018-12-30T15:02:26Z</time>
      </trkpt>
      <trkpt lat="39.8681800" lon="2.9448420">
        <ele>159.9</ele>
        <time>2018-12-30T15:02:27Z</time>
      </trkpt>
      <trkpt lat="39.8682420" lon="2.9449830">
        <ele>159.1</ele>
        <time>2018-12-30T15:02:28Z</time>
      </trkpt>
      <trkpt lat="39.8682980" lon="2.9451150">
        <ele>158.2</ele>
        <time>2018-12-30T15:02:29Z</time>
      </trkpt>
      <trkpt lat="39.8683730" lon="2.9452350">
        <ele>157.4</ele>
        <time>2018-12-30T15:02:30Z</time>
      </trkpt>
      <trkpt lat="39.8684700" lon="2.9453470">
        <ele>156.6</ele>
        <time>2018-12-30T15:02:31Z</time>
      </trkpt>
      <trkpt lat="39.8685780" lon="2.9454450">
        <ele>155.9</ele>
        <time>2018-12-30T15:02:32Z</time>
      </trkpt>
      <trkpt lat="39.8686880" lon="2.9455280">
        <ele>154.9</ele>
        <time>2018-12-30T15:02:33Z</time>
      </trkpt>
      <trkpt lat="39.8687950" lon="2.9456080">
        <ele>153.9</ele>
        <time>2018-12-30T15:02:34Z</time>
      </trkpt>
      <trkpt lat="39.8689000" lon="2.9456920">
        <ele>153.1</ele>
        <time>2018-12-30T15:02:35Z</time>
      </trkpt>
      <trkpt lat="39.8690080" lon="2.9457670">
        <ele>152.2</ele>
        <time>2018-12-30T15:02:36Z</time>
      </trkpt>
      <trkpt lat="39.8691180" lon="2.9458370">
        <ele>151.4</ele>
        <time>2018-12-30T15:02:37Z</time>
      </trkpt>
      <trkpt lat="39.8692200" lon="2.9459100">
        <ele>150.7</ele>
        <time>2018-12-30T15:02:38Z</time>
      </trkpt>
      <trkpt lat="39.8693080" lon="2.9459970">
        <ele>150.0</ele>
        <time>2018-12-30T15:02:39Z</time>
      </trkpt>
      <trkpt lat="39.8693830" lon="2.9461000">
        <ele>149.0</ele>
        <time>2018-12-30T15:02:40Z</time>
      </trkpt>
      <trkpt lat="39.8694330" lon="2.9462030">
        <ele>148.2</ele>
        <time>2018-12-30T15:02:41Z</time>
      </trkpt>
      <trkpt lat="39.8694450" lon="2.9463370">
        <ele>147.4</ele>
        <time>2018-12-30T15:02:42Z</time>
      </trkpt>
      <trkpt lat="39.8693470" lon="2.9464870">
        <ele>146.0</ele>
        <time>2018-12-30T15:02:43Z</time>
      </trkpt>
      <trkpt lat="39.8692750" lon="2.9466170">
        <ele>145.1</ele>
        <time>2018-12-30T15:02:44Z</time>
      </trkpt>
      <trkpt lat="39.8692150" lon="2.9467520">
        <ele>144.1</ele>
        <time>2018-12-30T15:02:45Z</time>
      </trkpt>
      <trkpt lat="39.8691750" lon="2.9468930">
        <ele>143.3</ele>
        <time>2018-12-30T15:02:46Z</time>
      </trkpt>
      <trkpt lat="39.8691550" lon="2.9470450">
        <ele>142.4</ele>
        <time>2018-12-30T15:02:47Z</time>
      </trkpt>
      <trkpt lat="39.8691480" lon="2.9472050">
        <ele>141.6</ele>
        <time>2018-12-30T15:02:48Z</time>
      </trkpt>
      <trkpt lat="39.8691470" lon="2.9473700">
        <ele>140.8</ele>
        <time>2018-12-30T15:02:49Z</time>
      </trkpt>
      <trkpt lat="39.8691500" lon="2.9475330">
        <ele>139.9</ele>
        <time>2018-12-30T15:02:50Z</time>
      </trkpt>
      <trkpt lat="39.8691580" lon="2.9476980">
        <ele>139.1</ele>
        <time>2018-12-30T15:02:51Z</time>
      </trkpt>
      <trkpt lat="39.8691680" lon="2.9478670">
        <ele>138.4</ele>
        <time>2018-12-30T15:02:52Z</time>
      </trkpt>
      <trkpt lat="39.8691770" lon="2.9480330">
        <ele>137.5</ele>
        <time>2018-12-30T15:02:53Z</time>
      </trkpt>
      <trkpt lat="39.8691830" lon="2.9482000">
        <ele>136.7</ele>
        <time>2018-12-30T15:02:54Z</time>
      </trkpt>
      <trkpt lat="39.8691970" lon="2.9483670">
        <ele>135.8</ele>
        <time>2018-12-30T15:02:55Z</time>
      </trkpt>
      <trkpt lat="39.8692120" lon="2.9485330">
        <ele>135.2</ele>
        <time>2018-12-30T15:02:56Z</time>
      </trkpt>
      <trkpt lat="39.8692130" lon="2.9487030">
        <ele>134.3</ele>
        <time>2018-12-30T15:02:57Z</time>
      </trkpt>
      <trkpt lat="39.8692050" lon="2.9488730">
        <ele>133.5</ele>
        <time>2018-12-30T15:02:58Z</time>
      </trkpt>
      <trkpt lat="39.8691820" lon="2.9490370">
        <ele>132.7</ele>
        <time>2018-12-30T15:02:59Z</time>
      </trkpt>
      <trkpt lat="39.8691480" lon="2.9492000">
        <ele>131.9</ele>
        <time>2018-12-30T15:03:00Z</time>
      </trkpt>
      <trkpt lat="39.8691100" lon="2.9493650">
        <ele>130.7</ele>
        <time>2018-12-30T15:03:01Z</time>
      </trkpt>
      <trkpt lat="39.8690770" lon="2.9495330">
        <ele>129.5</ele>
        <time>2018-12-30T15:03:02Z</time>
      </trkpt>
      <trkpt lat="39.8690420" lon="2.9497030">
        <ele>128.6</ele>
        <time>2018-12-30T15:03:03Z</time>
      </trkpt>
      <trkpt lat="39.8690070" lon="2.9498700">
        <ele>127.6</ele>
        <time>2018-12-30T15:03:04Z</time>
      </trkpt>
      <trkpt lat="39.8689680" lon="2.9500380">
        <ele>126.7</ele>
        <time>2018-12-30T15:03:05Z</time>
      </trkpt>
      <trkpt lat="39.8689330" lon="2.9502070">
        <ele>125.9</ele>
        <time>2018-12-30T15:03:06Z</time>
      </trkpt>
      <trkpt lat="39.8688900" lon="2.9503720">
        <ele>124.8</ele>
        <time>2018-12-30T15:03:07Z</time>
      </trkpt>
      <trkpt lat="39.8688430" lon="2.9505350">
        <ele>123.8</ele>
        <time>2018-12-30T15:03:08Z</time>
      </trkpt>
      <trkpt lat="39.8687720" lon="2.9506870">
        <ele>122.9</ele>
        <time>2018-12-30T15:03:09Z</time>
      </trkpt>
      <trkpt lat="39.8687070" lon="2.9508380">
        <ele>122.2</ele>
        <time>2018-12-30T15:03:10Z</time>
      </trkpt>
      <trkpt lat="39.8686400" lon="2.9509820">
        <ele>121.4</ele>
        <time>2018-12-30T15:03:11Z</time>
      </trkpt>
      <trkpt lat="39.8685800" lon="2.9511330">
        <ele>120.6</ele>
        <time>2018-12-30T15:03:12Z</time>
      </trkpt>
      <trkpt lat="39.8685230" lon="2.9512880">
        <ele>120.1</ele>
        <time>2018-12-30T15:03:13Z</time>
      </trkpt>
      <trkpt lat="39.8684900" lon="2.9514600">
        <ele>119.7</ele>
        <time>2018-12-30T15:03:14Z</time>
      </trkpt>
      <trkpt lat="39.8684720" lon="2.9516230">
        <ele>119.5</ele>
        <time>2018-12-30T15:03:15Z</time>
      </trkpt>
      <trkpt lat="39.8684470" lon="2.9517850">
        <ele>119.4</ele>
        <time>2018-12-30T15:03:16Z</time>
      </trkpt>
      <trkpt lat="39.8684320" lon="2.9519600">
        <ele>119.4</ele>
        <time>2018-12-30T15:03:17Z</time>
      </trkpt>
      <trkpt lat="39.8684230" lon="2.9521250">
        <ele>119.1</ele>
        <time>2018-12-30T15:03:18Z</time>
      </trkpt>
      <trkpt lat="39.8684220" lon="2.9522870">
        <ele>118.6</ele>
        <time>2018-12-30T15:03:19Z</time>
      </trkpt>
      <trkpt lat="39.8684170" lon="2.9524450">
        <ele>118.0</ele>
        <time>2018-12-30T15:03:20Z</time>
      </trkpt>
      <trkpt lat="39.8684030" lon="2.9526050">
        <ele>117.4</ele>
        <time>2018-12-30T15:03:21Z</time>
      </trkpt>
      <trkpt lat="39.8683850" lon="2.9527620">
        <ele>116.8</ele>
        <time>2018-12-30T15:03:22Z</time>
      </trkpt>
      <trkpt lat="39.8683680" lon="2.9529170">
        <ele>116.2</ele>
        <time>2018-12-30T15:03:23Z</time>
      </trkpt>
      <trkpt lat="39.8683670" lon="2.9530730">
        <ele>115.7</ele>
        <time>2018-12-30T15:03:24Z</time>
      </trkpt>
      <trkpt lat="39.8683600" lon="2.9532280">
        <ele>115.2</ele>
        <time>2018-12-30T15:03:25Z</time>
      </trkpt>
      <trkpt lat="39.8683650" lon="2.9533850">
        <ele>114.7</ele>
        <time>2018-12-30T15:03:26Z</time>
      </trkpt>
      <trkpt lat="39.8683770" lon="2.9535420">
        <ele>114.3</ele>
        <time>2018-12-30T15:03:27Z</time>
      </trkpt>
      <trkpt lat="39.8684020" lon="2.9536920">
        <ele>114.0</ele>
        <time>2018-12-30T15:03:28Z</time>
      </trkpt>
      <trkpt lat="39.8684350" lon="2.9538280">
        <ele>113.7</ele>
        <time>2018-12-30T15:03:29Z</time>
      </trkpt>
      <trkpt lat="39.8684800" lon="2.9539600">
        <ele>113.4</ele>
        <time>2018-12-30T15:03:30Z</time>
      </trkpt>
      <trkpt lat="39.8685280" lon="2.9540950">
        <ele>113.1</ele>
        <time>2018-12-30T15:03:31Z</time>
      </trkpt>
      <trkpt lat="39.8685620" lon="2.9542230">
        <ele>112.9</ele>
        <time>2018-12-30T15:03:32Z</time>
      </trkpt>
      <trkpt lat="39.8686080" lon="2.9543520">
        <ele>112.8</ele>
        <time>2018-12-30T15:03:33Z</time>
      </trkpt>
      <trkpt lat="39.8686550" lon="2.9544820">
        <ele>112.6</ele>
        <time>2018-12-30T15:03:34Z</time>
      </trkpt>
      <trkpt lat="39.8687070" lon="2.9546080">
        <ele>112.5</ele>
        <time>2018-12-30T15:03:35Z</time>
      </trkpt>
      <trkpt lat="39.8687550" lon="2.9547350">
        <ele>112.4</ele>
        <time>2018-12-30T15:03:36Z</time>
      </trkpt>
      <trkpt lat="39.8687980" lon="2.9548650">
        <ele>112.3</ele>
        <time>2018-12-30T15:03:37Z</time>
      </trkpt>
      <trkpt lat="39.8688400" lon="2.9549880">
        <ele>112.2</ele>
        <time>2018-12-30T15:03:38Z</time>
      </trkpt>
      <trkpt lat="39.8688830" lon="2.9551120">
        <ele>112.0</ele>
        <time>2018-12-30T15:03:39Z</time>
      </trkpt>
      <trkpt lat="39.8689200" lon="2.9552350">
        <ele>111.9</ele>
        <time>2018-12-30T15:03:40Z</time>
      </trkpt>
      <trkpt lat="39.8689530" lon="2.9553530">
        <ele>111.9</ele>
        <time>2018-12-30T15:03:41Z</time>
      </trkpt>
      <trkpt lat="39.8689920" lon="2.9554700">
        <ele>111.7</ele>
        <time>2018-12-30T15:03:42Z</time>
      </trkpt>
      <trkpt lat="39.8690250" lon="2.9555850">
        <ele>111.6</ele>
        <time>2018-12-30T15:03:43Z</time>
      </trkpt>
      <trkpt lat="39.8690520" lon="2.9557020">
        <ele>111.4</ele>
        <time>2018-12-30T15:03:44Z</time>
      </trkpt>
      <trkpt lat="39.8690800" lon="2.9558200">
        <ele>111.3</ele>
        <time>2018-12-30T15:03:45Z</time>
      </trkpt>
      <trkpt lat="39.8691070" lon="2.9559330">
        <ele>111.1</ele>
        <time>2018-12-30T15:03:46Z</time>
      </trkpt>
      <trkpt lat="39.8691430" lon="2.9560480">
        <ele>110.9</ele>
        <time>2018-12-30T15:03:47Z</time>
      </trkpt>
      <trkpt lat="39.8691750" lon="2.9561630">
        <ele>110.7</ele>
        <time>2018-12-30T15:03:48Z</time>
      </trkpt>
      <trkpt lat="39.8692130" lon="2.9562750">
        <ele>110.4</ele>
        <time>2018-12-30T15:03:49Z</time>
      </trkpt>
      <trkpt lat="39.8692470" lon="2.9563820">
        <ele>110.2</ele>
        <time>2018-12-30T15:03:50Z</time>
      </trkpt>
      <trkpt lat="39.8692830" lon="2.9565030">
        <ele>110.1</ele>
        <time>2018-12-30T15:03:51Z</time>
      </trkpt>
      <trkpt lat="39.8693180" lon="2.9566200">
        <ele>109.9</ele>
        <time>2018-12-30T15:03:52Z</time>
      </trkpt>
      <trkpt lat="39.8693430" lon="2.9567430">
        <ele>109.8</ele>
        <time>2018-12-30T15:03:53Z</time>
      </trkpt>
      <trkpt lat="39.8693630" lon="2.9568600">
        <ele>109.6</ele>
        <time>2018-12-30T15:03:54Z</time>
      </trkpt>
      <trkpt lat="39.8693850" lon="2.9569830">
        <ele>109.4</ele>
        <time>2018-12-30T15:03:55Z</time>
      </trkpt>
      <trkpt lat="39.8694000" lon="2.9571100">
        <ele>109.3</ele>
        <time>2018-12-30T15:03:56Z</time>
      </trkpt>
      <trkpt lat="39.8694170" lon="2.9572350">
        <ele>109.2</ele>
        <time>2018-12-30T15:03:57Z</time>
      </trkpt>
      <trkpt lat="39.8694250" lon="2.9573650">
        <ele>109.1</ele>
        <time>2018-12-30T15:03:58Z</time>
      </trkpt>
      <trkpt lat="39.8694330" lon="2.9574950">
        <ele>108.9</ele>
        <time>2018-12-30T15:03:59Z</time>
      </trkpt>
      <trkpt lat="39.8694550" lon="2.9576200">
        <ele>108.8</ele>
        <time>2018-12-30T15:04:00Z</time>
      </trkpt>
      <trkpt lat="39.8694750" lon="2.9577400">
        <ele>108.7</ele>
        <time>2018-12-30T15:04:01Z</time>
      </trkpt>
      <trkpt lat="39.8694930" lon="2.9578650">
        <ele>108.7</ele>
        <time>2018-12-30T15:04:02Z</time>
      </trkpt>
      <trkpt lat="39.8695120" lon="2.9579900">
        <ele>108.5</ele>
        <time>2018-12-30T15:04:03Z</time>
      </trkpt>
      <trkpt lat="39.8695150" lon="2.9581180">
        <ele>108.4</ele>
        <time>2018-12-30T15:04:04Z</time>
      </trkpt>
      <trkpt lat="39.8695230" lon="2.9582500">
        <ele>108.2</ele>
        <time>2018-12-30T15:04:05Z</time>
      </trkpt>
      <trkpt lat="39.8695330" lon="2.9583800">
        <ele>108.0</ele>
        <time>2018-12-30T15:04:06Z</time>
      </trkpt>
      <trkpt lat="39.8695280" lon="2.9585080">
        <ele>107.8</ele>
        <time>2018-12-30T15:04:07Z</time>
      </trkpt>
      <trkpt lat="39.8695450" lon="2.9586350">
        <ele>107.6</ele>
        <time>2018-12-30T15:04:08Z</time>
      </trkpt>
      <trkpt lat="39.8695480" lon="2.9587670">
        <ele>107.3</ele>
        <time>2018-12-30T15:04:09Z</time>
      </trkpt>
      <trkpt lat="39.8695580" lon="2.9588880">
        <ele>107.0</ele>
        <time>2018-12-30T15:04:10Z</time>
      </trkpt>
      <trkpt lat="39.8695650" lon="2.9590100">
        <ele>106.7</ele>
        <time>2018-12-30T15:04:11Z</time>
      </trkpt>
      <trkpt lat="39.8695780" lon="2.9591370">
        <ele>106.4</ele>
        <time>2018-12-30T15:04:12Z</time>
      </trkpt>
      <trkpt lat="39.8695900" lon="2.9592580">
        <ele>106.1</ele>
        <time>2018-12-30T15:04:13Z</time>
      </trkpt>
      <trkpt lat="39.8696000" lon="2.9593770">
        <ele>105.7</ele>
        <time>2018-12-30T15:04:14Z</time>
      </trkpt>
      <trkpt lat="39.8696100" lon="2.9594980">
        <ele>105.4</ele>
        <time>2018-12-30T15:04:15Z</time>
      </trkpt>
      <trkpt lat="39.8696200" lon="2.9596180">
        <ele>105.1</ele>
        <time>2018-12-30T15:04:16Z</time>
      </trkpt>
      <trkpt lat="39.8696330" lon="2.9597430">
        <ele>104.8</ele>
        <time>2018-12-30T15:04:17Z</time>
      </trkpt>
      <trkpt lat="39.8696480" lon="2.9598700">
        <ele>104.5</ele>
        <time>2018-12-30T15:04:18Z</time>
      </trkpt>
      <trkpt lat="39.8696600" lon="2.9599950">
        <ele>104.2</ele>
        <time>2018-12-30T15:04:19Z</time>
      </trkpt>
      <trkpt lat="39.8696700" lon="2.9601250">
        <ele>103.9</ele>
        <time>2018-12-30T15:04:20Z</time>
      </trkpt>
      <trkpt lat="39.8696820" lon="2.9602530">
        <ele>103.7</ele>
        <time>2018-12-30T15:04:21Z</time>
      </trkpt>
      <trkpt lat="39.8696930" lon="2.9603820">
        <ele>103.5</ele>
        <time>2018-12-30T15:04:22Z</time>
      </trkpt>
      <trkpt lat="39.8697050" lon="2.9605100">
        <ele>103.3</ele>
        <time>2018-12-30T15:04:23Z</time>
      </trkpt>
      <trkpt lat="39.8697180" lon="2.9606370">
        <ele>103.1</ele>
        <time>2018-12-30T15:04:24Z</time>
      </trkpt>
      <trkpt lat="39.8697300" lon="2.9607650">
        <ele>103.0</ele>
        <time>2018-12-30T15:04:25Z</time>
      </trkpt>
      <trkpt lat="39.8697430" lon="2.9608930">
        <ele>102.8</ele>
        <time>2018-12-30T15:04:26Z</time>
      </trkpt>
      <trkpt lat="39.8697550" lon="2.9610170">
        <ele>102.6</ele>
        <time>2018-12-30T15:04:27Z</time>
      </trkpt>
      <trkpt lat="39.8697680" lon="2.9611420">
        <ele>102.4</ele>
        <time>2018-12-30T15:04:28Z</time>
      </trkpt>
      <trkpt lat="39.8697770" lon="2.9612650">
        <ele>102.3</ele>
        <time>2018-12-30T15:04:29Z</time>
      </trkpt>
      <trkpt lat="39.8697850" lon="2.9613880">
        <ele>102.2</ele>
        <time>2018-12-30T15:04:30Z</time>
      </trkpt>
      <trkpt lat="39.8697950" lon="2.9615120">
        <ele>102.1</ele>
        <time>2018-12-30T15:04:31Z</time>
      </trkpt>
      <trkpt lat="39.8698070" lon="2.9616350">
        <ele>102.0</ele>
        <time>2018-12-30T15:04:32Z</time>
      </trkpt>
      <trkpt lat="39.8698170" lon="2.9617570">
        <ele>101.9</ele>
        <time>2018-12-30T15:04:33Z</time>
      </trkpt>
      <trkpt lat="39.8698280" lon="2.9618770">
        <ele>101.9</ele>
        <time>2018-12-30T15:04:34Z</time>
      </trkpt>
      <trkpt lat="39.8698380" lon="2.9619970">
        <ele>101.9</ele>
        <time>2018-12-30T15:04:35Z</time>
      </trkpt>
      <trkpt lat="39.8698470" lon="2.9621120">
        <ele>101.8</ele>
        <time>2018-12-30T15:04:36Z</time>
      </trkpt>
      <trkpt lat="39.8698470" lon="2.9622270">
        <ele>101.8</ele>
        <time>2018-12-30T15:04:37Z</time>
      </trkpt>
      <trkpt lat="39.8698420" lon="2.9623400">
        <ele>101.8</ele>
        <time>2018-12-30T15:04:38Z</time>
      </trkpt>
      <trkpt lat="39.8698250" lon="2.9624530">
        <ele>101.7</ele>
        <time>2018-12-30T15:04:39Z</time>
      </trkpt>
      <trkpt lat="39.8698030" lon="2.9625670">
        <ele>101.7</ele>
        <time>2018-12-30T15:04:40Z</time>
      </trkpt>
      <trkpt lat="39.8697780" lon="2.9626780">
        <ele>101.6</ele>
        <time>2018-12-30T15:04:41Z</time>
      </trkpt>
      <trkpt lat="39.8697520" lon="2.9627930">
        <ele>101.6</ele>
        <time>2018-12-30T15:04:42Z</time>
      </trkpt>
      <trkpt lat="39.8697230" lon="2.9629070">
        <ele>101.5</ele>
        <time>2018-12-30T15:04:43Z</time>
      </trkpt>
      <trkpt lat="39.8696970" lon="2.9630180">
        <ele>101.5</ele>
        <time>2018-12-30T15:04:44Z</time>
      </trkpt>
      <trkpt lat="39.8696680" lon="2.9631320">
        <ele>101.5</ele>
        <time>2018-12-30T15:04:45Z</time>
      </trkpt>
      <trkpt lat="39.8696400" lon="2.9632470">
        <ele>101.4</ele>
        <time>2018-12-30T15:04:46Z</time>
      </trkpt>
      <trkpt lat="39.8696120" lon="2.9633600">
        <ele>101.4</ele>
        <time>2018-12-30T15:04:47Z</time>
      </trkpt>
      <trkpt lat="39.8695780" lon="2.9634730">
        <ele>101.3</ele>
        <time>2018-12-30T15:04:48Z</time>
      </trkpt>
      <trkpt lat="39.8695450" lon="2.9635870">
        <ele>101.2</ele>
        <time>2018-12-30T15:04:49Z</time>
      </trkpt>
      <trkpt lat="39.8695150" lon="2.9637000">
        <ele>101.1</ele>
        <time>2018-12-30T15:04:50Z</time>
      </trkpt>
      <trkpt lat="39.8694950" lon="2.9638170">
        <ele>101.0</ele>
        <time>2018-12-30T15:04:51Z</time>
      </trkpt>
      <trkpt lat="39.8694700" lon="2.9639320">
        <ele>101.0</ele>
        <time>2018-12-30T15:04:52Z</time>
      </trkpt>
      <trkpt lat="39.8694450" lon="2.9640470">
        <ele>101.0</ele>
        <time>2018-12-30T15:04:53Z</time>
      </trkpt>
      <trkpt lat="39.8694220" lon="2.9641650">
        <ele>101.0</ele>
        <time>2018-12-30T15:04:54Z</time>
      </trkpt>
      <trkpt lat="39.8693920" lon="2.9642750">
        <ele>100.9</ele>
        <time>2018-12-30T15:04:55Z</time>
      </trkpt>
      <trkpt lat="39.8693680" lon="2.9643880">
        <ele>100.9</ele>
        <time>2018-12-30T15:04:56Z</time>
      </trkpt>
      <trkpt lat="39.8693480" lon="2.9645020">
        <ele>100.8</ele>
        <time>2018-12-30T15:04:57Z</time>
      </trkpt>
      <trkpt lat="39.8693150" lon="2.9646170">
        <ele>100.7</ele>
        <time>2018-12-30T15:04:58Z</time>
      </trkpt>
      <trkpt lat="39.8692830" lon="2.9647300">
        <ele>100.4</ele>
        <time>2018-12-30T15:04:59Z</time>
      </trkpt>
      <trkpt lat="39.8692550" lon="2.9648420">
        <ele>100.2</ele>
        <time>2018-12-30T15:05:00Z</time>
      </trkpt>
      <trkpt lat="39.8692320" lon="2.9649570">
        <ele>100.0</ele>
        <time>2018-12-30T15:05:01Z</time>
      </trkpt>
      <trkpt lat="39.8692070" lon="2.9650800">
        <ele>99.8</ele>
        <time>2018-12-30T15:05:02Z</time>
      </trkpt>
      <trkpt lat="39.8691820" lon="2.9652020">
        <ele>99.5</ele>
        <time>2018-12-30T15:05:03Z</time>
      </trkpt>
      <trkpt lat="39.8691570" lon="2.9653180">
        <ele>99.3</ele>
        <time>2018-12-30T15:05:04Z</time>
      </trkpt>
      <trkpt lat="39.8691250" lon="2.9654320">
        <ele>99.1</ele>
        <time>2018-12-30T15:05:05Z</time>
      </trkpt>
      <trkpt lat="39.8690980" lon="2.9655480">
        <ele>99.0</ele>
        <time>2018-12-30T15:05:06Z</time>
      </trkpt>
      <trkpt lat="39.8690730" lon="2.9656620">
        <ele>99.0</ele>
        <time>2018-12-30T15:05:07Z</time>
      </trkpt>
      <trkpt lat="39.8690480" lon="2.9657700">
        <ele>99.0</ele>
        <time>2018-12-30T15:05:08Z</time>
      </trkpt>
      <trkpt lat="39.8690200" lon="2.9658850">
        <ele>99.0</ele>
        <time>2018-12-30T15:05:09Z</time>
      </trkpt>
      <trkpt lat="39.8689930" lon="2.9660000">
        <ele>99.0</ele>
        <time>2018-12-30T15:05:10Z</time>
      </trkpt>
      <trkpt lat="39.8689670" lon="2.9661170">
        <ele>99.0</ele>
        <time>2018-12-30T15:05:11Z</time>
      </trkpt>
      <trkpt lat="39.8689420" lon="2.9662280">
        <ele>99.0</ele>
        <time>2018-12-30T15:05:12Z</time>
      </trkpt>
      <trkpt lat="39.8689180" lon="2.9663400">
        <ele>99.0</ele>
        <time>2018-12-30T15:05:13Z</time>
      </trkpt>
      <trkpt lat="39.8688930" lon="2.9664500">
        <ele>99.0</ele>
        <time>2018-12-30T15:05:14Z</time>
      </trkpt>
      <trkpt lat="39.8688650" lon="2.9665600">
        <ele>99.0</ele>
        <time>2018-12-30T15:05:15Z</time>
      </trkpt>
      <trkpt lat="39.8688380" lon="2.9666720">
        <ele>99.0</ele>
        <time>2018-12-30T15:05:16Z</time>
      </trkpt>
      <trkpt lat="39.8688130" lon="2.9667780">
        <ele>99.0</ele>
        <time>2018-12-30T15:05:17Z</time>
      </trkpt>
      <trkpt lat="39.8687880" lon="2.9668880">
        <ele>99.0</ele>
        <time>2018-12-30T15:05:18Z</time>
      </trkpt>
      <trkpt lat="39.8687600" lon="2.9669930">
        <ele>99.0</ele>
        <time>2018-12-30T15:05:19Z</time>
      </trkpt>
      <trkpt lat="39.8687350" lon="2.9670980">
        <ele>99.0</ele>
        <time>2018-12-30T15:05:20Z</time>
      </trkpt>
      <trkpt lat="39.8687120" lon="2.9672020">
        <ele>99.0</ele>
        <time>2018-12-30T15:05:21Z</time>
      </trkpt>
      <trkpt lat="39.8686880" lon="2.9673070">
        <ele>99.0</ele>
        <time>2018-12-30T15:05:22Z</time>
      </trkpt>
      <trkpt lat="39.8686650" lon="2.9674170">
        <ele>99.1</ele>
        <time>2018-12-30T15:05:23Z</time>
      </trkpt>
      <trkpt lat="39.8686430" lon="2.9675270">
        <ele>99.1</ele>
        <time>2018-12-30T15:05:24Z</time>
      </trkpt>
      <trkpt lat="39.8686200" lon="2.9676400">
        <ele>99.1</ele>
        <time>2018-12-30T15:05:25Z</time>
      </trkpt>
      <trkpt lat="39.8685970" lon="2.9677550">
        <ele>99.1</ele>
        <time>2018-12-30T15:05:26Z</time>
      </trkpt>
      <trkpt lat="39.8685700" lon="2.9678720">
        <ele>99.2</ele>
        <time>2018-12-30T15:05:27Z</time>
      </trkpt>
      <trkpt lat="39.8685450" lon="2.9679880">
        <ele>99.2</ele>
        <time>2018-12-30T15:05:28Z</time>
      </trkpt>
      <trkpt lat="39.8685170" lon="2.9681050">
        <ele>99.3</ele>
        <time>2018-12-30T15:05:29Z</time>
      </trkpt>
      <trkpt lat="39.8684920" lon="2.9682150">
        <ele>99.4</ele>
        <time>2018-12-30T15:05:30Z</time>
      </trkpt>
      <trkpt lat="39.8684630" lon="2.9683320">
        <ele>99.5</ele>
        <time>2018-12-30T15:05:31Z</time>
      </trkpt>
      <trkpt lat="39.8684250" lon="2.9684520">
        <ele>99.6</ele>
        <time>2018-12-30T15:05:32Z</time>
      </trkpt>
      <trkpt lat="39.8683930" lon="2.9685700">
        <ele>99.8</ele>
        <time>2018-12-30T15:05:33Z</time>
      </trkpt>
      <trkpt lat="39.8683600" lon="2.9686900">
        <ele>99.9</ele>
        <time>2018-12-30T15:05:34Z</time>
      </trkpt>
      <trkpt lat="39.8683320" lon="2.9688020">
        <ele>100.1</ele>
        <time>2018-12-30T15:05:35Z</time>
      </trkpt>
      <trkpt lat="39.8683050" lon="2.9689220">
        <ele>100.2</ele>
        <time>2018-12-30T15:05:36Z</time>
      </trkpt>
      <trkpt lat="39.8682770" lon="2.9690370">
        <ele>100.3</ele>
        <time>2018-12-30T15:05:37Z</time>
      </trkpt>
      <trkpt lat="39.8682430" lon="2.9691450">
        <ele>100.4</ele>
        <time>2018-12-30T15:05:38Z</time>
      </trkpt>
      <trkpt lat="39.8682180" lon="2.9692580">
        <ele>100.5</ele>
        <time>2018-12-30T15:05:39Z</time>
      </trkpt>
      <trkpt lat="39.8681970" lon="2.9693700">
        <ele>100.6</ele>
        <time>2018-12-30T15:05:40Z</time>
      </trkpt>
      <trkpt lat="39.8681750" lon="2.9694900">
        <ele>100.7</ele>
        <time>2018-12-30T15:05:41Z</time>
      </trkpt>
      <trkpt lat="39.8681550" lon="2.9696050">
        <ele>100.7</ele>
        <time>2018-12-30T15:05:42Z</time>
      </trkpt>
      <trkpt lat="39.8681320" lon="2.9697180">
        <ele>100.8</ele>
        <time>2018-12-30T15:05:43Z</time>
      </trkpt>
      <trkpt lat="39.8681080" lon="2.9698300">
        <ele>100.8</ele>
        <time>2018-12-30T15:05:44Z</time>
      </trkpt>
      <trkpt lat="39.8680800" lon="2.9699420">
        <ele>100.8</ele>
        <time>2018-12-30T15:05:45Z</time>
      </trkpt>
      <trkpt lat="39.8680520" lon="2.9700520">
        <ele>100.9</ele>
        <time>2018-12-30T15:05:46Z</time>
      </trkpt>
      <trkpt lat="39.8680270" lon="2.9701600">
        <ele>100.9</ele>
        <time>2018-12-30T15:05:47Z</time>
      </trkpt>
      <trkpt lat="39.8679980" lon="2.9702680">
        <ele>100.9</ele>
        <time>2018-12-30T15:05:48Z</time>
      </trkpt>
      <trkpt lat="39.8679730" lon="2.9703750">
        <ele>101.0</ele>
        <time>2018-12-30T15:05:49Z</time>
      </trkpt>
      <trkpt lat="39.8679470" lon="2.9704820">
        <ele>101.0</ele>
        <time>2018-12-30T15:05:50Z</time>
      </trkpt>
      <trkpt lat="39.8679220" lon="2.9705880">
        <ele>101.1</ele>
        <time>2018-12-30T15:05:51Z</time>
      </trkpt>
      <trkpt lat="39.8678930" lon="2.9706950">
        <ele>101.2</ele>
        <time>2018-12-30T15:05:52Z</time>
      </trkpt>
      <trkpt lat="39.8678630" lon="2.9708000">
        <ele>101.3</ele>
        <time>2018-12-30T15:05:53Z</time>
      </trkpt>
      <trkpt lat="39.8678380" lon="2.9709050">
        <ele>101.4</ele>
        <time>2018-12-30T15:05:54Z</time>
      </trkpt>
      <trkpt lat="39.8678120" lon="2.9710100">
        <ele>101.5</ele>
        <time>2018-12-30T15:05:55Z</time>
      </trkpt>
      <trkpt lat="39.8677850" lon="2.9711170">
        <ele>101.7</ele>
        <time>2018-12-30T15:05:56Z</time>
      </trkpt>
      <trkpt lat="39.8677570" lon="2.9712230">
        <ele>101.8</ele>
        <time>2018-12-30T15:05:57Z</time>
      </trkpt>
      <trkpt lat="39.8677350" lon="2.9713330">
        <ele>102.0</ele>
        <time>2018-12-30T15:05:58Z</time>
      </trkpt>
      <trkpt lat="39.8677130" lon="2.9714430">
        <ele>102.1</ele>
        <time>2018-12-30T15:05:59Z</time>
      </trkpt>
      <trkpt lat="39.8676880" lon="2.9715500">
        <ele>102.1</ele>
        <time>2018-12-30T15:06:00Z</time>
      </trkpt>
      <trkpt lat="39.8676630" lon="2.9716520">
        <ele>102.1</ele>
        <time>2018-12-30T15:06:01Z</time>
      </trkpt>
      <trkpt lat="39.8676430" lon="2.9717520">
        <ele>102.0</ele>
        <time>2018-12-30T15:06:02Z</time>
      </trkpt>
      <trkpt lat="39.8676280" lon="2.9718600">
        <ele>101.8</ele>
        <time>2018-12-30T15:06:03Z</time>
      </trkpt>
      <trkpt lat="39.8676220" lon="2.9719680">
        <ele>101.6</ele>
        <time>2018-12-30T15:06:04Z</time>
      </trkpt>
      <trkpt lat="39.8676220" lon="2.9720770">
        <ele>101.4</ele>
        <time>2018-12-30T15:06:05Z</time>
      </trkpt>
      <trkpt lat="39.8676300" lon="2.9721850">
        <ele>101.1</ele>
        <time>2018-12-30T15:06:06Z</time>
      </trkpt>
      <trkpt lat="39.8676480" lon="2.9722970">
        <ele>100.6</ele>
        <time>2018-12-30T15:06:07Z</time>
      </trkpt>
      <trkpt lat="39.8676700" lon="2.9724070">
        <ele>100.3</ele>
        <time>2018-12-30T15:06:08Z</time>
      </trkpt>
      <trkpt lat="39.8676980" lon="2.9725070">
        <ele>100.1</ele>
        <time>2018-12-30T15:06:09Z</time>
      </trkpt>
      <trkpt lat="39.8677270" lon="2.9726000">
        <ele>99.8</ele>
        <time>2018-12-30T15:06:10Z</time>
      </trkpt>
      <trkpt lat="39.8677570" lon="2.9727030">
        <ele>99.5</ele>
        <time>2018-12-30T15:06:11Z</time>
      </trkpt>
      <trkpt lat="39.8677830" lon="2.9728070">
        <ele>99.1</ele>
        <time>2018-12-30T15:06:12Z</time>
      </trkpt>
      <trkpt lat="39.8678070" lon="2.9729120">
        <ele>98.8</ele>
        <time>2018-12-30T15:06:13Z</time>
      </trkpt>
      <trkpt lat="39.8678320" lon="2.9730180">
        <ele>98.4</ele>
        <time>2018-12-30T15:06:14Z</time>
      </trkpt>
      <trkpt lat="39.8678570" lon="2.9731280">
        <ele>97.9</ele>
        <time>2018-12-30T15:06:15Z</time>
      </trkpt>
      <trkpt lat="39.8678850" lon="2.9732370">
        <ele>97.5</ele>
        <time>2018-12-30T15:06:16Z</time>
      </trkpt>
      <trkpt lat="39.8679130" lon="2.9733450">
        <ele>97.0</ele>
        <time>2018-12-30T15:06:17Z</time>
      </trkpt>
      <trkpt lat="39.8679420" lon="2.9734520">
        <ele>96.6</ele>
        <time>2018-12-30T15:06:18Z</time>
      </trkpt>
      <trkpt lat="39.8679700" lon="2.9735600">
        <ele>96.1</ele>
        <time>2018-12-30T15:06:19Z</time>
      </trkpt>
      <trkpt lat="39.8679950" lon="2.9736720">
        <ele>95.6</ele>
        <time>2018-12-30T15:06:20Z</time>
      </trkpt>
      <trkpt lat="39.8680230" lon="2.9737830">
        <ele>95.2</ele>
        <time>2018-12-30T15:06:21Z</time>
      </trkpt>
      <trkpt lat="39.8680500" lon="2.9738970">
        <ele>94.8</ele>
        <time>2018-12-30T15:06:22Z</time>
      </trkpt>
      <trkpt lat="39.8680800" lon="2.9740080">
        <ele>94.4</ele>
        <time>2018-12-30T15:06:23Z</time>
      </trkpt>
      <trkpt lat="39.8681100" lon="2.9741200">
        <ele>94.1</ele>
        <time>2018-12-30T15:06:24Z</time>
      </trkpt>
      <trkpt lat="39.8681400" lon="2.9742320">
        <ele>93.7</ele>
        <time>2018-12-30T15:06:25Z</time>
      </trkpt>
      <trkpt lat="39.8681700" lon="2.9743450">
        <ele>93.4</ele>
        <time>2018-12-30T15:06:26Z</time>
      </trkpt>
      <trkpt lat="39.8681930" lon="2.9744620">
        <ele>93.1</ele>
        <time>2018-12-30T15:06:27Z</time>
      </trkpt>
      <trkpt lat="39.8682230" lon="2.9745750">
        <ele>92.8</ele>
        <time>2018-12-30T15:06:28Z</time>
      </trkpt>
      <trkpt lat="39.8682550" lon="2.9746880">
        <ele>92.5</ele>
        <time>2018-12-30T15:06:29Z</time>
      </trkpt>
      <trkpt lat="39.8682830" lon="2.9748030">
        <ele>92.3</ele>
        <time>2018-12-30T15:06:30Z</time>
      </trkpt>
      <trkpt lat="39.8683100" lon="2.9749170">
        <ele>92.0</ele>
        <time>2018-12-30T15:06:31Z</time>
      </trkpt>
      <trkpt lat="39.8683350" lon="2.9750320">
        <ele>91.8</ele>
        <time>2018-12-30T15:06:32Z</time>
      </trkpt>
      <trkpt lat="39.8683600" lon="2.9751500">
        <ele>91.6</ele>
        <time>2018-12-30T15:06:33Z</time>
      </trkpt>
      <trkpt lat="39.8683900" lon="2.9752630">
        <ele>91.5</ele>
        <time>2018-12-30T15:06:34Z</time>
      </trkpt>
      <trkpt lat="39.8684170" lon="2.9753780">
        <ele>91.3</ele>
        <time>2018-12-30T15:06:35Z</time>
      </trkpt>
      <trkpt lat="39.8684430" lon="2.9754930">
        <ele>91.1</ele>
        <time>2018-12-30T15:06:36Z</time>
      </trkpt>
      <trkpt lat="39.8684650" lon="2.9756080">
        <ele>90.9</ele>
        <time>2018-12-30T15:06:37Z</time>
      </trkpt>
      <trkpt lat="39.8684870" lon="2.9757250">
        <ele>90.8</ele>
        <time>2018-12-30T15:06:38Z</time>
      </trkpt>
      <trkpt lat="39.8685120" lon="2.9758370">
        <ele>90.6</ele>
        <time>2018-12-30T15:06:39Z</time>
      </trkpt>
      <trkpt lat="39.8685330" lon="2.9759570">
        <ele>90.5</ele>
        <time>2018-12-30T15:06:40Z</time>
      </trkpt>
      <trkpt lat="39.8685570" lon="2.9760730">
        <ele>90.4</ele>
        <time>2018-12-30T15:06:41Z</time>
      </trkpt>
      <trkpt lat="39.8685830" lon="2.9761820">
        <ele>90.3</ele>
        <time>2018-12-30T15:06:42Z</time>
      </trkpt>
      <trkpt lat="39.8686050" lon="2.9762970">
        <ele>90.2</ele>
        <time>2018-12-30T15:06:43Z</time>
      </trkpt>
      <trkpt lat="39.8686300" lon="2.9764080">
        <ele>90.0</ele>
        <time>2018-12-30T15:06:44Z</time>
      </trkpt>
      <trkpt lat="39.8686580" lon="2.9765230">
        <ele>89.9</ele>
        <time>2018-12-30T15:06:45Z</time>
      </trkpt>
      <trkpt lat="39.8686800" lon="2.9766400">
        <ele>89.8</ele>
        <time>2018-12-30T15:06:46Z</time>
      </trkpt>
      <trkpt lat="39.8687000" lon="2.9767550">
        <ele>89.7</ele>
        <time>2018-12-30T15:06:47Z</time>
      </trkpt>
      <trkpt lat="39.8687220" lon="2.9768680">
        <ele>89.5</ele>
        <time>2018-12-30T15:06:48Z</time>
      </trkpt>
      <trkpt lat="39.8687480" lon="2.9769800">
        <ele>88.9</ele>
        <time>2018-12-30T15:06:49Z</time>
      </trkpt>
      <trkpt lat="39.8687770" lon="2.9770920">
        <ele>88.4</ele>
        <time>2018-12-30T15:06:50Z</time>
      </trkpt>
      <trkpt lat="39.8688000" lon="2.9772050">
        <ele>88.0</ele>
        <time>2018-12-30T15:06:51Z</time>
      </trkpt>
      <trkpt lat="39.8688250" lon="2.9773180">
        <ele>87.8</ele>
        <time>2018-12-30T15:06:52Z</time>
      </trkpt>
      <trkpt lat="39.8688480" lon="2.9774320">
        <ele>87.4</ele>
        <time>2018-12-30T15:06:53Z</time>
      </trkpt>
      <trkpt lat="39.8688770" lon="2.9775400">
        <ele>87.1</ele>
        <time>2018-12-30T15:06:54Z</time>
      </trkpt>
      <trkpt lat="39.8689020" lon="2.9776520">
        <ele>86.8</ele>
        <time>2018-12-30T15:06:55Z</time>
      </trkpt>
      <trkpt lat="39.8689280" lon="2.9777620">
        <ele>86.7</ele>
        <time>2018-12-30T15:06:56Z</time>
      </trkpt>
      <trkpt lat="39.8689530" lon="2.9778730">
        <ele>86.6</ele>
        <time>2018-12-30T15:06:57Z</time>
      </trkpt>
      <trkpt lat="39.8689780" lon="2.9779880">
        <ele>86.5</ele>
        <time>2018-12-30T15:06:58Z</time>
      </trkpt>
      <trkpt lat="39.8690030" lon="2.9781000">
        <ele>86.6</ele>
        <time>2018-12-30T15:06:59Z</time>
      </trkpt>
      <trkpt lat="39.8690280" lon="2.9782120">
        <ele>86.6</ele>
        <time>2018-12-30T15:07:00Z</time>
      </trkpt>
      <trkpt lat="39.8690530" lon="2.9783250">
        <ele>86.5</ele>
        <time>2018-12-30T15:07:01Z</time>
      </trkpt>
      <trkpt lat="39.8690770" lon="2.9784350">
        <ele>86.4</ele>
        <time>2018-12-30T15:07:02Z</time>
      </trkpt>
      <trkpt lat="39.8691000" lon="2.9785480">
        <ele>86.3</ele>
        <time>2018-12-30T15:07:03Z</time>
      </trkpt>
      <trkpt lat="39.8691250" lon="2.9786620">
        <ele>86.3</ele>
        <time>2018-12-30T15:07:04Z</time>
      </trkpt>
      <trkpt lat="39.8691480" lon="2.9787730">
        <ele>86.3</ele>
        <time>2018-12-30T15:07:05Z</time>
      </trkpt>
      <trkpt lat="39.8691720" lon="2.9788850">
        <ele>86.4</ele>
        <time>2018-12-30T15:07:06Z</time>
      </trkpt>
      <trkpt lat="39.8691970" lon="2.9789970">
        <ele>86.5</ele>
        <time>2018-12-30T15:07:07Z</time>
      </trkpt>
      <trkpt lat="39.8692230" lon="2.9791080">
        <ele>86.5</ele>
        <time>2018-12-30T15:07:08Z</time>
      </trkpt>
      <trkpt lat="39.8692520" lon="2.9792150">
        <ele>86.4</ele>
        <time>2018-12-30T15:07:09Z</time>
      </trkpt>
      <trkpt lat="39.8692780" lon="2.9793270">
        <ele>86.3</ele>
        <time>2018-12-30T15:07:10Z</time>
      </trkpt>
      <trkpt lat="39.8693070" lon="2.9794350">
        <ele>86.2</ele>
        <time>2018-12-30T15:07:11Z</time>
      </trkpt>
      <trkpt lat="39.8693370" lon="2.9795420">
        <ele>86.1</ele>
        <time>2018-12-30T15:07:12Z</time>
      </trkpt>
      <trkpt lat="39.8693720" lon="2.9796430">
        <ele>86.0</ele>
        <time>2018-12-30T15:07:13Z</time>
      </trkpt>
      <trkpt lat="39.8694100" lon="2.9797430">
        <ele>85.8</ele>
        <time>2018-12-30T15:07:14Z</time>
      </trkpt>
      <trkpt lat="39.8694520" lon="2.9798420">
        <ele>85.3</ele>
        <time>2018-12-30T15:07:15Z</time>
      </trkpt>
      <trkpt lat="39.8694950" lon="2.9799400">
        <ele>84.7</ele>
        <time>2018-12-30T15:07:16Z</time>
      </trkpt>
      <trkpt lat="39.8695400" lon="2.9800350">
        <ele>84.0</ele>
        <time>2018-12-30T15:07:17Z</time>
      </trkpt>
      <trkpt lat="39.8695850" lon="2.9801320">
        <ele>83.6</ele>
        <time>2018-12-30T15:07:18Z</time>
      </trkpt>
      <trkpt lat="39.8696300" lon="2.9802280">
        <ele>83.8</ele>
        <time>2018-12-30T15:07:19Z</time>
      </trkpt>
      <trkpt lat="39.8696730" lon="2.9803270">
        <ele>84.1</ele>
        <time>2018-12-30T15:07:20Z</time>
      </trkpt>
      <trkpt lat="39.8697150" lon="2.9804270">
        <ele>84.2</ele>
        <time>2018-12-30T15:07:21Z</time>
      </trkpt>
      <trkpt lat="39.8697600" lon="2.9805270">
        <ele>84.4</ele>
        <time>2018-12-30T15:07:22Z</time>
      </trkpt>
      <trkpt lat="39.8698070" lon="2.9806270">
        <ele>84.7</ele>
        <time>2018-12-30T15:07:23Z</time>
      </trkpt>
      <trkpt lat="39.8698530" lon="2.9807270">
        <ele>85.0</ele>
        <time>2018-12-30T15:07:24Z</time>
      </trkpt>
      <trkpt lat="39.8699000" lon="2.9808250">
        <ele>85.5</ele>
        <time>2018-12-30T15:07:25Z</time>
      </trkpt>
      <trkpt lat="39.8699470" lon="2.9809230">
        <ele>85.9</ele>
        <time>2018-12-30T15:07:26Z</time>
      </trkpt>
      <trkpt lat="39.8699900" lon="2.9810250">
        <ele>86.1</ele>
        <time>2018-12-30T15:07:27Z</time>
      </trkpt>
      <trkpt lat="39.8700370" lon="2.9811270">
        <ele>86.4</ele>
        <time>2018-12-30T15:07:28Z</time>
      </trkpt>
      <trkpt lat="39.8700800" lon="2.9812300">
        <ele>86.8</ele>
        <time>2018-12-30T15:07:29Z</time>
      </trkpt>
      <trkpt lat="39.8701230" lon="2.9813370">
        <ele>87.2</ele>
        <time>2018-12-30T15:07:30Z</time>
      </trkpt>
      <trkpt lat="39.8701680" lon="2.9814400">
        <ele>87.9</ele>
        <time>2018-12-30T15:07:31Z</time>
      </trkpt>
      <trkpt lat="39.8702120" lon="2.9815370">
        <ele>88.5</ele>
        <time>2018-12-30T15:07:32Z</time>
      </trkpt>
      <trkpt lat="39.8702550" lon="2.9816370">
        <ele>89.0</ele>
        <time>2018-12-30T15:07:33Z</time>
      </trkpt>
      <trkpt lat="39.8703000" lon="2.9817370">
        <ele>89.7</ele>
        <time>2018-12-30T15:07:34Z</time>
      </trkpt>
      <trkpt lat="39.8703480" lon="2.9818350">
        <ele>90.4</ele>
        <time>2018-12-30T15:07:35Z</time>
      </trkpt>
      <trkpt lat="39.8703980" lon="2.9819320">
        <ele>90.8</ele>
        <time>2018-12-30T15:07:36Z</time>
      </trkpt>
      <trkpt lat="39.8704500" lon="2.9820270">
        <ele>91.0</ele>
        <time>2018-12-30T15:07:37Z</time>
      </trkpt>
      <trkpt lat="39.8705050" lon="2.9821220">
        <ele>91.2</ele>
        <time>2018-12-30T15:07:38Z</time>
      </trkpt>
      <trkpt lat="39.8705650" lon="2.9822070">
        <ele>91.3</ele>
        <time>2018-12-30T15:07:39Z</time>
      </trkpt>
      <trkpt lat="39.8706220" lon="2.9822970">
        <ele>91.1</ele>
        <time>2018-12-30T15:07:40Z</time>
      </trkpt>
      <trkpt lat="39.8706830" lon="2.9823830">
        <ele>90.9</ele>
        <time>2018-12-30T15:07:41Z</time>
      </trkpt>
      <trkpt lat="39.8707500" lon="2.9824680">
        <ele>90.8</ele>
        <time>2018-12-30T15:07:42Z</time>
      </trkpt>
      <trkpt lat="39.8708170" lon="2.9825480">
        <ele>90.6</ele>
        <time>2018-12-30T15:07:43Z</time>
      </trkpt>
      <trkpt lat="39.8708830" lon="2.9826280">
        <ele>90.5</ele>
        <time>2018-12-30T15:07:44Z</time>
      </trkpt>
      <trkpt lat="39.8709500" lon="2.9827080">
        <ele>90.3</ele>
        <time>2018-12-30T15:07:45Z</time>
      </trkpt>
      <trkpt lat="39.8710200" lon="2.9827830">
        <ele>90.2</ele>
        <time>2018-12-30T15:07:46Z</time>
      </trkpt>
      <trkpt lat="39.8710900" lon="2.9828580">
        <ele>90.0</ele>
        <time>2018-12-30T15:07:47Z</time>
      </trkpt>
      <trkpt lat="39.8711620" lon="2.9829330">
        <ele>89.8</ele>
        <time>2018-12-30T15:07:48Z</time>
      </trkpt>
      <trkpt lat="39.8712270" lon="2.9830080">
        <ele>89.7</ele>
        <time>2018-12-30T15:07:49Z</time>
      </trkpt>
      <trkpt lat="39.8712920" lon="2.9830830">
        <ele>89.5</ele>
        <time>2018-12-30T15:07:50Z</time>
      </trkpt>
      <trkpt lat="39.8713550" lon="2.9831570">
        <ele>89.2</ele>
        <time>2018-12-30T15:07:51Z</time>
      </trkpt>
      <trkpt lat="39.8714170" lon="2.9832320">
        <ele>89.0</ele>
        <time>2018-12-30T15:07:52Z</time>
      </trkpt>
      <trkpt lat="39.8714780" lon="2.9833030">
        <ele>88.8</ele>
        <time>2018-12-30T15:07:53Z</time>
      </trkpt>
      <trkpt lat="39.8715420" lon="2.9833770">
        <ele>88.7</ele>
        <time>2018-12-30T15:07:54Z</time>
      </trkpt>
      <trkpt lat="39.8716020" lon="2.9834520">
        <ele>88.6</ele>
        <time>2018-12-30T15:07:55Z</time>
      </trkpt>
      <trkpt lat="39.8716570" lon="2.9835280">
        <ele>88.6</ele>
        <time>2018-12-30T15:07:56Z</time>
      </trkpt>
      <trkpt lat="39.8717030" lon="2.9835980">
        <ele>88.6</ele>
        <time>2018-12-30T15:07:57Z</time>
      </trkpt>
      <trkpt lat="39.8717470" lon="2.9836850">
        <ele>88.6</ele>
        <time>2018-12-30T15:07:58Z</time>
      </trkpt>
      <trkpt lat="39.8717820" lon="2.9837730">
        <ele>88.5</ele>
        <time>2018-12-30T15:07:59Z</time>
      </trkpt>
      <trkpt lat="39.8718200" lon="2.9838630">
        <ele>88.4</ele>
        <time>2018-12-30T15:08:00Z</time>
      </trkpt>
      <trkpt lat="39.8718550" lon="2.9839520">
        <ele>88.2</ele>
        <time>2018-12-30T15:08:01Z</time>
      </trkpt>
      <trkpt lat="39.8718900" lon="2.9840380">
        <ele>88.1</ele>
        <time>2018-12-30T15:08:02Z</time>
      </trkpt>
      <trkpt lat="39.8719200" lon="2.9841320">
        <ele>87.9</ele>
        <time>2018-12-30T15:08:03Z</time>
      </trkpt>
      <trkpt lat="39.8719530" lon="2.9842230">
        <ele>87.8</ele>
        <time>2018-12-30T15:08:04Z</time>
      </trkpt>
      <trkpt lat="39.8719850" lon="2.9843080">
        <ele>87.6</ele>
        <time>2018-12-30T15:08:05Z</time>
      </trkpt>
      <trkpt lat="39.8720180" lon="2.9843970">
        <ele>87.5</ele>
        <time>2018-12-30T15:08:06Z</time>
      </trkpt>
      <trkpt lat="39.8720530" lon="2.9844830">
        <ele>87.5</ele>
        <time>2018-12-30T15:08:07Z</time>
      </trkpt>
      <trkpt lat="39.8720900" lon="2.9845680">
        <ele>87.5</ele>
        <time>2018-12-30T15:08:08Z</time>
      </trkpt>
      <trkpt lat="39.8721200" lon="2.9846500">
        <ele>87.5</ele>
        <time>2018-12-30T15:08:09Z</time>
      </trkpt>
      <trkpt lat="39.8721500" lon="2.9847330">
        <ele>87.6</ele>
        <time>2018-12-30T15:08:10Z</time>
      </trkpt>
      <trkpt lat="39.8721780" lon="2.9848080">
        <ele>87.6</ele>
        <time>2018-12-30T15:08:11Z</time>
      </trkpt>
      <trkpt lat="39.8722120" lon="2.9848820">
        <ele>87.6</ele>
        <time>2018-12-30T15:08:12Z</time>
      </trkpt>
      <trkpt lat="39.8722430" lon="2.9849620">
        <ele>87.7</ele>
        <time>2018-12-30T15:08:13Z</time>
      </trkpt>
      <trkpt lat="39.8722720" lon="2.9850420">
        <ele>87.7</ele>
        <time>2018-12-30T15:08:14Z</time>
      </trkpt>
      <trkpt lat="39.8723050" lon="2.9851200">
        <ele>87.8</ele>
        <time>2018-12-30T15:08:15Z</time>
      </trkpt>
      <trkpt lat="39.8723350" lon="2.9851980">
        <ele>87.8</ele>
        <time>2018-12-30T15:08:16Z</time>
      </trkpt>
      <trkpt lat="39.8723670" lon="2.9852820">
        <ele>87.8</ele>
        <time>2018-12-30T15:08:17Z</time>
      </trkpt>
      <trkpt lat="39.8724000" lon="2.9853670">
        <ele>87.9</ele>
        <time>2018-12-30T15:08:18Z</time>
      </trkpt>
      <trkpt lat="39.8724300" lon="2.9854480">
        <ele>87.9</ele>
        <time>2018-12-30T15:08:19Z</time>
      </trkpt>
      <trkpt lat="39.8724650" lon="2.9855330">
        <ele>87.5</ele>
        <time>2018-12-30T15:08:20Z</time>
      </trkpt>
      <trkpt lat="39.8725030" lon="2.9856250">
        <ele>86.9</ele>
        <time>2018-12-30T15:08:21Z</time>
      </trkpt>
      <trkpt lat="39.8725400" lon="2.9857120">
        <ele>86.5</ele>
        <time>2018-12-30T15:08:22Z</time>
      </trkpt>
      <trkpt lat="39.8725700" lon="2.9858030">
        <ele>86.2</ele>
        <time>2018-12-30T15:08:23Z</time>
      </trkpt>
      <trkpt lat="39.8726050" lon="2.9858980">
        <ele>86.0</ele>
        <time>2018-12-30T15:08:24Z</time>
      </trkpt>
      <trkpt lat="39.8726430" lon="2.9859920">
        <ele>85.8</ele>
        <time>2018-12-30T15:08:25Z</time>
      </trkpt>
      <trkpt lat="39.8726800" lon="2.9860780">
        <ele>85.5</ele>
        <time>2018-12-30T15:08:26Z</time>
      </trkpt>
      <trkpt lat="39.8727150" lon="2.9861670">
        <ele>84.8</ele>
        <time>2018-12-30T15:08:27Z</time>
      </trkpt>
      <trkpt lat="39.8727580" lon="2.9862630">
        <ele>84.1</ele>
        <time>2018-12-30T15:08:28Z</time>
      </trkpt>
      <trkpt lat="39.8727970" lon="2.9863580">
        <ele>83.6</ele>
        <time>2018-12-30T15:08:29Z</time>
      </trkpt>
      <trkpt lat="39.8728350" lon="2.9864550">
        <ele>83.1</ele>
        <time>2018-12-30T15:08:30Z</time>
      </trkpt>
      <trkpt lat="39.8728730" lon="2.9865520">
        <ele>82.6</ele>
        <time>2018-12-30T15:08:31Z</time>
      </trkpt>
      <trkpt lat="39.8729130" lon="2.9866520">
        <ele>82.0</ele>
        <time>2018-12-30T15:08:32Z</time>
      </trkpt>
      <trkpt lat="39.8729530" lon="2.9867550">
        <ele>82.2</ele>
        <time>2018-12-30T15:08:33Z</time>
      </trkpt>
      <trkpt lat="39.8729930" lon="2.9868530">
        <ele>82.7</ele>
        <time>2018-12-30T15:08:34Z</time>
      </trkpt>
      <trkpt lat="39.8730300" lon="2.9869600">
        <ele>83.4</ele>
        <time>2018-12-30T15:08:35Z</time>
      </trkpt>
      <trkpt lat="39.8730680" lon="2.9870630">
        <ele>84.2</ele>
        <time>2018-12-30T15:08:36Z</time>
      </trkpt>
      <trkpt lat="39.8731100" lon="2.9871700">
        <ele>85.0</ele>
        <time>2018-12-30T15:08:37Z</time>
      </trkpt>
      <trkpt lat="39.8731530" lon="2.9872770">
        <ele>85.3</ele>
        <time>2018-12-30T15:08:38Z</time>
      </trkpt>
      <trkpt lat="39.8731970" lon="2.9873800">
        <ele>85.2</ele>
        <time>2018-12-30T15:08:39Z</time>
      </trkpt>
      <trkpt lat="39.8732380" lon="2.9874800">
        <ele>84.8</ele>
        <time>2018-12-30T15:08:40Z</time>
      </trkpt>
      <trkpt lat="39.8732780" lon="2.9875830">
        <ele>84.4</ele>
        <time>2018-12-30T15:08:41Z</time>
      </trkpt>
      <trkpt lat="39.8733180" lon="2.9876900">
        <ele>84.2</ele>
        <time>2018-12-30T15:08:42Z</time>
      </trkpt>
      <trkpt lat="39.8733500" lon="2.9878050">
        <ele>84.3</ele>
        <time>2018-12-30T15:08:43Z</time>
      </trkpt>
      <trkpt lat="39.8733900" lon="2.9879080">
        <ele>84.6</ele>
        <time>2018-12-30T15:08:44Z</time>
      </trkpt>
      <trkpt lat="39.8734320" lon="2.9880150">
        <ele>84.7</ele>
        <time>2018-12-30T15:08:45Z</time>
      </trkpt>
      <trkpt lat="39.8734720" lon="2.9881180">
        <ele>84.7</ele>
        <time>2018-12-30T15:08:46Z</time>
      </trkpt>
      <trkpt lat="39.8735130" lon="2.9882220">
        <ele>84.7</ele>
        <time>2018-12-30T15:08:47Z</time>
      </trkpt>
      <trkpt lat="39.8735530" lon="2.9883280">
        <ele>84.7</ele>
        <time>2018-12-30T15:08:48Z</time>
      </trkpt>
      <trkpt lat="39.8735920" lon="2.9884370">
        <ele>84.7</ele>
        <time>2018-12-30T15:08:49Z</time>
      </trkpt>
      <trkpt lat="39.8736320" lon="2.9885420">
        <ele>84.7</ele>
        <time>2018-12-30T15:08:50Z</time>
      </trkpt>
      <trkpt lat="39.8736720" lon="2.9886470">
        <ele>84.7</ele>
        <time>2018-12-30T15:08:51Z</time>
      </trkpt>
      <trkpt lat="39.8737030" lon="2.9887570">
        <ele>84.7</ele>
        <time>2018-12-30T15:08:52Z</time>
      </trkpt>
      <trkpt lat="39.8737370" lon="2.9888620">
        <ele>84.8</ele>
        <time>2018-12-30T15:08:53Z</time>
      </trkpt>
      <trkpt lat="39.8737700" lon="2.9889680">
        <ele>84.8</ele>
        <time>2018-12-30T15:08:54Z</time>
      </trkpt>
      <trkpt lat="39.8738080" lon="2.9890680">
        <ele>84.8</ele>
        <time>2018-12-30T15:08:55Z</time>
      </trkpt>
      <trkpt lat="39.8738420" lon="2.9891750">
        <ele>84.8</ele>
        <time>2018-12-30T15:08:56Z</time>
      </trkpt>
      <trkpt lat="39.8738750" lon="2.9892780">
        <ele>84.8</ele>
        <time>2018-12-30T15:08:57Z</time>
      </trkpt>
      <trkpt lat="39.8739070" lon="2.9893830">
        <ele>84.8</ele>
        <time>2018-12-30T15:08:58Z</time>
      </trkpt>
      <trkpt lat="39.8739380" lon="2.9894870">
        <ele>84.7</ele>
        <time>2018-12-30T15:08:59Z</time>
      </trkpt>
      <trkpt lat="39.8739720" lon="2.9895850">
        <ele>84.7</ele>
        <time>2018-12-30T15:09:00Z</time>
      </trkpt>
      <trkpt lat="39.8740050" lon="2.9896830">
        <ele>84.7</ele>
        <time>2018-12-30T15:09:01Z</time>
      </trkpt>
      <trkpt lat="39.8740380" lon="2.9897780">
        <ele>84.7</ele>
        <time>2018-12-30T15:09:02Z</time>
      </trkpt>
      <trkpt lat="39.8740670" lon="2.9898730">
        <ele>84.6</ele>
        <time>2018-12-30T15:09:03Z</time>
      </trkpt>
      <trkpt lat="39.8740930" lon="2.9899670">
        <ele>84.5</ele>
        <time>2018-12-30T15:09:04Z</time>
      </trkpt>
      <trkpt lat="39.8741180" lon="2.9900620">
        <ele>84.5</ele>
        <time>2018-12-30T15:09:05Z</time>
      </trkpt>
      <trkpt lat="39.8741400" lon="2.9901600">
        <ele>84.5</ele>
        <time>2018-12-30T15:09:06Z</time>
      </trkpt>
      <trkpt lat="39.8741600" lon="2.9902480">
        <ele>84.4</ele>
        <time>2018-12-30T15:09:07Z</time>
      </trkpt>
      <trkpt lat="39.8741820" lon="2.9903420">
        <ele>84.4</ele>
        <time>2018-12-30T15:09:08Z</time>
      </trkpt>
      <trkpt lat="39.8742050" lon="2.9904420">
        <ele>84.4</ele>
        <time>2018-12-30T15:09:09Z</time>
      </trkpt>
      <trkpt lat="39.8742270" lon="2.9905430">
        <ele>84.3</ele>
        <time>2018-12-30T15:09:10Z</time>
      </trkpt>
      <trkpt lat="39.8742550" lon="2.9906470">
        <ele>84.3</ele>
        <time>2018-12-30T15:09:11Z</time>
      </trkpt>
      <trkpt lat="39.8742820" lon="2.9907570">
        <ele>84.2</ele>
        <time>2018-12-30T15:09:12Z</time>
      </trkpt>
      <trkpt lat="39.8743100" lon="2.9908600">
        <ele>84.2</ele>
        <time>2018-12-30T15:09:13Z</time>
      </trkpt>
      <trkpt lat="39.8743370" lon="2.9909600">
        <ele>84.1</ele>
        <time>2018-12-30T15:09:14Z</time>
      </trkpt>
      <trkpt lat="39.8743620" lon="2.9910630">
        <ele>84.1</ele>
        <time>2018-12-30T15:09:15Z</time>
      </trkpt>
      <trkpt lat="39.8743900" lon="2.9911680">
        <ele>84.0</ele>
        <time>2018-12-30T15:09:16Z</time>
      </trkpt>
      <trkpt lat="39.8744180" lon="2.9912730">
        <ele>84.0</ele>
        <time>2018-12-30T15:09:17Z</time>
      </trkpt>
      <trkpt lat="39.8744480" lon="2.9913780">
        <ele>84.0</ele>
        <time>2018-12-30T15:09:18Z</time>
      </trkpt>
      <trkpt lat="39.8744780" lon="2.9914830">
        <ele>84.0</ele>
        <time>2018-12-30T15:09:19Z</time>
      </trkpt>
      <trkpt lat="39.8745020" lon="2.9915850">
        <ele>84.0</ele>
        <time>2018-12-30T15:09:20Z</time>
      </trkpt>
      <trkpt lat="39.8745270" lon="2.9916920">
        <ele>84.0</ele>
        <time>2018-12-30T15:09:21Z</time>
      </trkpt>
      <trkpt lat="39.8745520" lon="2.9917970">
        <ele>83.8</ele>
        <time>2018-12-30T15:09:22Z</time>
      </trkpt>
      <trkpt lat="39.8745750" lon="2.9918970">
        <ele>83.5</ele>
        <time>2018-12-30T15:09:23Z</time>
      </trkpt>
      <trkpt lat="39.8745980" lon="2.9919950">
        <ele>83.3</ele>
        <time>2018-12-30T15:09:24Z</time>
      </trkpt>
      <trkpt lat="39.8746230" lon="2.9920930">
        <ele>83.1</ele>
        <time>2018-12-30T15:09:25Z</time>
      </trkpt>
      <trkpt lat="39.8746480" lon="2.9921920">
        <ele>82.8</ele>
        <time>2018-12-30T15:09:26Z</time>
      </trkpt>
      <trkpt lat="39.8746720" lon="2.9922950">
        <ele>82.5</ele>
        <time>2018-12-30T15:09:27Z</time>
      </trkpt>
      <trkpt lat="39.8746930" lon="2.9923970">
        <ele>82.2</ele>
        <time>2018-12-30T15:09:28Z</time>
      </trkpt>
      <trkpt lat="39.8747150" lon="2.9924980">
        <ele>81.9</ele>
        <time>2018-12-30T15:09:29Z</time>
      </trkpt>
      <trkpt lat="39.8747350" lon="2.9926030">
        <ele>81.6</ele>
        <time>2018-12-30T15:09:30Z</time>
      </trkpt>
      <trkpt lat="39.8747550" lon="2.9927120">
        <ele>81.3</ele>
        <time>2018-12-30T15:09:31Z</time>
      </trkpt>
      <trkpt lat="39.8747780" lon="2.9928170">
        <ele>81.0</ele>
        <time>2018-12-30T15:09:32Z</time>
      </trkpt>
      <trkpt lat="39.8748000" lon="2.9929220">
        <ele>80.6</ele>
        <time>2018-12-30T15:09:33Z</time>
      </trkpt>
      <trkpt lat="39.8748270" lon="2.9930230">
        <ele>80.3</ele>
        <time>2018-12-30T15:09:34Z</time>
      </trkpt>
      <trkpt lat="39.8748530" lon="2.9931230">
        <ele>80.0</ele>
        <time>2018-12-30T15:09:35Z</time>
      </trkpt>
      <trkpt lat="39.8748880" lon="2.9932230">
        <ele>79.6</ele>
        <time>2018-12-30T15:09:36Z</time>
      </trkpt>
      <trkpt lat="39.8749250" lon="2.9933300">
        <ele>79.4</ele>
        <time>2018-12-30T15:09:37Z</time>
      </trkpt>
      <trkpt lat="39.8749700" lon="2.9934370">
        <ele>79.2</ele>
        <time>2018-12-30T15:09:38Z</time>
      </trkpt>
      <trkpt lat="39.8750150" lon="2.9935370">
        <ele>79.1</ele>
        <time>2018-12-30T15:09:39Z</time>
      </trkpt>
      <trkpt lat="39.8750650" lon="2.9936300">
        <ele>78.8</ele>
        <time>2018-12-30T15:09:40Z</time>
      </trkpt>
      <trkpt lat="39.8751170" lon="2.9937280">
        <ele>78.6</ele>
        <time>2018-12-30T15:09:41Z</time>
      </trkpt>
      <trkpt lat="39.8751670" lon="2.9938270">
        <ele>78.3</ele>
        <time>2018-12-30T15:09:42Z</time>
      </trkpt>
      <trkpt lat="39.8752150" lon="2.9939250">
        <ele>78.1</ele>
        <time>2018-12-30T15:09:43Z</time>
      </trkpt>
      <trkpt lat="39.8752680" lon="2.9940250">
        <ele>77.7</ele>
        <time>2018-12-30T15:09:44Z</time>
      </trkpt>
      <trkpt lat="39.8753270" lon="2.9941250">
        <ele>77.4</ele>
        <time>2018-12-30T15:09:45Z</time>
      </trkpt>
      <trkpt lat="39.8753830" lon="2.9942280">
        <ele>77.1</ele>
        <time>2018-12-30T15:09:46Z</time>
      </trkpt>
      <trkpt lat="39.8754370" lon="2.9943320">
        <ele>76.7</ele>
        <time>2018-12-30T15:09:47Z</time>
      </trkpt>
      <trkpt lat="39.8754880" lon="2.9944380">
        <ele>76.4</ele>
        <time>2018-12-30T15:09:48Z</time>
      </trkpt>
      <trkpt lat="39.8755420" lon="2.9945420">
        <ele>76.0</ele>
        <time>2018-12-30T15:09:49Z</time>
      </trkpt>
      <trkpt lat="39.8755950" lon="2.9946450">
        <ele>75.7</ele>
        <time>2018-12-30T15:09:50Z</time>
      </trkpt>
      <trkpt lat="39.8756470" lon="2.9947470">
        <ele>75.4</ele>
        <time>2018-12-30T15:09:51Z</time>
      </trkpt>
      <trkpt lat="39.8757020" lon="2.9948480">
        <ele>75.1</ele>
        <time>2018-12-30T15:09:52Z</time>
      </trkpt>
      <trkpt lat="39.8757600" lon="2.9949550">
        <ele>74.7</ele>
        <time>2018-12-30T15:09:53Z</time>
      </trkpt>
      <trkpt lat="39.8758170" lon="2.9950630">
        <ele>74.4</ele>
        <time>2018-12-30T15:09:54Z</time>
      </trkpt>
      <trkpt lat="39.8758720" lon="2.9951700">
        <ele>74.2</ele>
        <time>2018-12-30T15:09:55Z</time>
      </trkpt>
      <trkpt lat="39.8759270" lon="2.9952750">
        <ele>73.9</ele>
        <time>2018-12-30T15:09:56Z</time>
      </trkpt>
      <trkpt lat="39.8759820" lon="2.9953820">
        <ele>73.6</ele>
        <time>2018-12-30T15:09:57Z</time>
      </trkpt>
      <trkpt lat="39.8760380" lon="2.9954880">
        <ele>73.3</ele>
        <time>2018-12-30T15:09:58Z</time>
      </trkpt>
      <trkpt lat="39.8760900" lon="2.9955970">
        <ele>73.0</ele>
        <time>2018-12-30T15:09:59Z</time>
      </trkpt>
      <trkpt lat="39.8761420" lon="2.9957030">
        <ele>72.6</ele>
        <time>2018-12-30T15:10:00Z</time>
      </trkpt>
      <trkpt lat="39.8761980" lon="2.9958070">
        <ele>72.0</ele>
        <time>2018-12-30T15:10:01Z</time>
      </trkpt>
      <trkpt lat="39.8762520" lon="2.9959150">
        <ele>71.5</ele>
        <time>2018-12-30T15:10:02Z</time>
      </trkpt>
      <trkpt lat="39.8763100" lon="2.9960170">
        <ele>71.0</ele>
        <time>2018-12-30T15:10:03Z</time>
      </trkpt>
      <trkpt lat="39.8763620" lon="2.9961180">
        <ele>70.4</ele>
        <time>2018-12-30T15:10:04Z</time>
      </trkpt>
      <trkpt lat="39.8764150" lon="2.9962180">
        <ele>69.6</ele>
        <time>2018-12-30T15:10:05Z</time>
      </trkpt>
      <trkpt lat="39.8764700" lon="2.9963150">
        <ele>69.0</ele>
        <time>2018-12-30T15:10:06Z</time>
      </trkpt>
      <trkpt lat="39.8765170" lon="2.9964130">
        <ele>68.4</ele>
        <time>2018-12-30T15:10:07Z</time>
      </trkpt>
      <trkpt lat="39.8765700" lon="2.9965120">
        <ele>67.9</ele>
        <time>2018-12-30T15:10:08Z</time>
      </trkpt>
      <trkpt lat="39.8766220" lon="2.9966080">
        <ele>67.5</ele>
        <time>2018-12-30T15:10:09Z</time>
      </trkpt>
      <trkpt lat="39.8766680" lon="2.9967050">
        <ele>67.2</ele>
        <time>2018-12-30T15:10:10Z</time>
      </trkpt>
      <trkpt lat="39.8767180" lon="2.9968030">
        <ele>66.9</ele>
        <time>2018-12-30T15:10:11Z</time>
      </trkpt>
      <trkpt lat="39.8767650" lon="2.9969070">
        <ele>66.6</ele>
        <time>2018-12-30T15:10:12Z</time>
      </trkpt>
      <trkpt lat="39.8768100" lon="2.9970080">
        <ele>66.2</ele>
        <time>2018-12-30T15:10:13Z</time>
      </trkpt>
      <trkpt lat="39.8768620" lon="2.9971100">
        <ele>65.8</ele>
        <time>2018-12-30T15:10:14Z</time>
      </trkpt>
      <trkpt lat="39.8769150" lon="2.9972080">
        <ele>65.4</ele>
        <time>2018-12-30T15:10:15Z</time>
      </trkpt>
      <trkpt lat="39.8769700" lon="2.9973050">
        <ele>65.0</ele>
        <time>2018-12-30T15:10:16Z</time>
      </trkpt>
      <trkpt lat="39.8770230" lon="2.9974000">
        <ele>64.6</ele>
        <time>2018-12-30T15:10:17Z</time>
      </trkpt>
      <trkpt lat="39.8770780" lon="2.9974980">
        <ele>64.4</ele>
        <time>2018-12-30T15:10:18Z</time>
      </trkpt>
      <trkpt lat="39.8771270" lon="2.9975900">
        <ele>64.2</ele>
        <time>2018-12-30T15:10:19Z</time>
      </trkpt>
      <trkpt lat="39.8771750" lon="2.9976850">
        <ele>64.0</ele>
        <time>2018-12-30T15:10:20Z</time>
      </trkpt>
      <trkpt lat="39.8772230" lon="2.9977770">
        <ele>63.9</ele>
        <time>2018-12-30T15:10:21Z</time>
      </trkpt>
      <trkpt lat="39.8772700" lon="2.9978650">
        <ele>63.8</ele>
        <time>2018-12-30T15:10:22Z</time>
      </trkpt>
      <trkpt lat="39.8773180" lon="2.9979550">
        <ele>63.8</ele>
        <time>2018-12-30T15:10:23Z</time>
      </trkpt>
      <trkpt lat="39.8773670" lon="2.9980450">
        <ele>63.9</ele>
        <time>2018-12-30T15:10:24Z</time>
      </trkpt>
      <trkpt lat="39.8774130" lon="2.9981330">
        <ele>63.9</ele>
        <time>2018-12-30T15:10:25Z</time>
      </trkpt>
      <trkpt lat="39.8774600" lon="2.9982200">
        <ele>64.0</ele>
        <time>2018-12-30T15:10:26Z</time>
      </trkpt>
      <trkpt lat="39.8775070" lon="2.9983080">
        <ele>64.0</ele>
        <time>2018-12-30T15:10:27Z</time>
      </trkpt>
      <trkpt lat="39.8775530" lon="2.9983930">
        <ele>64.1</ele>
        <time>2018-12-30T15:10:28Z</time>
      </trkpt>
      <trkpt lat="39.8776000" lon="2.9984770">
        <ele>64.2</ele>
        <time>2018-12-30T15:10:29Z</time>
      </trkpt>
      <trkpt lat="39.8776470" lon="2.9985580">
        <ele>64.2</ele>
        <time>2018-12-30T15:10:30Z</time>
      </trkpt>
      <trkpt lat="39.8776930" lon="2.9986400">
        <ele>64.3</ele>
        <time>2018-12-30T15:10:31Z</time>
      </trkpt>
      <trkpt lat="39.8777400" lon="2.9987230">
        <ele>64.4</ele>
        <time>2018-12-30T15:10:32Z</time>
      </trkpt>
      <trkpt lat="39.8777880" lon="2.9988050">
        <ele>64.5</ele>
        <time>2018-12-30T15:10:33Z</time>
      </trkpt>
      <trkpt lat="39.8778370" lon="2.9988880">
        <ele>64.6</ele>
        <time>2018-12-30T15:10:34Z</time>
      </trkpt>
      <trkpt lat="39.8778850" lon="2.9989680">
        <ele>64.6</ele>
        <time>2018-12-30T15:10:35Z</time>
      </trkpt>
      <trkpt lat="39.8779350" lon="2.9990480">
        <ele>64.7</ele>
        <time>2018-12-30T15:10:36Z</time>
      </trkpt>
      <trkpt lat="39.8779850" lon="2.9991320">
        <ele>64.8</ele>
        <time>2018-12-30T15:10:37Z</time>
      </trkpt>
      <trkpt lat="39.8780350" lon="2.9992130">
        <ele>64.9</ele>
        <time>2018-12-30T15:10:38Z</time>
      </trkpt>
      <trkpt lat="39.8780830" lon="2.9993000">
        <ele>65.0</ele>
        <time>2018-12-30T15:10:39Z</time>
      </trkpt>
      <trkpt lat="39.8781300" lon="2.9993880">
        <ele>65.1</ele>
        <time>2018-12-30T15:10:40Z</time>
      </trkpt>
      <trkpt lat="39.8781750" lon="2.9994730">
        <ele>65.1</ele>
        <time>2018-12-30T15:10:41Z</time>
      </trkpt>
      <trkpt lat="39.8782200" lon="2.9995580">
        <ele>65.1</ele>
        <time>2018-12-30T15:10:42Z</time>
      </trkpt>
      <trkpt lat="39.8782650" lon="2.9996470">
        <ele>65.1</ele>
        <time>2018-12-30T15:10:43Z</time>
      </trkpt>
      <trkpt lat="39.8783130" lon="2.9997330">
        <ele>65.0</ele>
        <time>2018-12-30T15:10:44Z</time>
      </trkpt>
      <trkpt lat="39.8783620" lon="2.9998220">
        <ele>64.9</ele>
        <time>2018-12-30T15:10:45Z</time>
      </trkpt>
      <trkpt lat="39.8784080" lon="2.9999120">
        <ele>64.8</ele>
        <time>2018-12-30T15:10:46Z</time>
      </trkpt>
      <trkpt lat="39.8784530" lon="3.0000050">
        <ele>64.6</ele>
        <time>2018-12-30T15:10:47Z</time>
      </trkpt>
      <trkpt lat="39.8785020" lon="3.0001000">
        <ele>64.4</ele>
        <time>2018-12-30T15:10:48Z</time>
      </trkpt>
      <trkpt lat="39.8785500" lon="3.0001930">
        <ele>64.2</ele>
        <time>2018-12-30T15:10:49Z</time>
      </trkpt>
      <trkpt lat="39.8785980" lon="3.0002880">
        <ele>64.1</ele>
        <time>2018-12-30T15:10:50Z</time>
      </trkpt>
      <trkpt lat="39.8786480" lon="3.0003820">
        <ele>63.7</ele>
        <time>2018-12-30T15:10:51Z</time>
      </trkpt>
      <trkpt lat="39.8786980" lon="3.0004750">
        <ele>63.4</ele>
        <time>2018-12-30T15:10:52Z</time>
      </trkpt>
      <trkpt lat="39.8787470" lon="3.0005700">
        <ele>63.2</ele>
        <time>2018-12-30T15:10:53Z</time>
      </trkpt>
      <trkpt lat="39.8787950" lon="3.0006620">
        <ele>62.9</ele>
        <time>2018-12-30T15:10:54Z</time>
      </trkpt>
      <trkpt lat="39.8788450" lon="3.0007550">
        <ele>62.4</ele>
        <time>2018-12-30T15:10:55Z</time>
      </trkpt>
      <trkpt lat="39.8788950" lon="3.0008520">
        <ele>61.9</ele>
        <time>2018-12-30T15:10:56Z</time>
      </trkpt>
      <trkpt lat="39.8789450" lon="3.0009480">
        <ele>61.7</ele>
        <time>2018-12-30T15:10:57Z</time>
      </trkpt>
      <trkpt lat="39.8789920" lon="3.0010450">
        <ele>61.5</ele>
        <time>2018-12-30T15:10:58Z</time>
      </trkpt>
      <trkpt lat="39.8790380" lon="3.0011380">
        <ele>61.3</ele>
        <time>2018-12-30T15:10:59Z</time>
      </trkpt>
      <trkpt lat="39.8790830" lon="3.0012280">
        <ele>61.3</ele>
        <time>2018-12-30T15:11:00Z</time>
      </trkpt>
      <trkpt lat="39.8791320" lon="3.0013200">
        <ele>61.2</ele>
        <time>2018-12-30T15:11:01Z</time>
      </trkpt>
      <trkpt lat="39.8791800" lon="3.0014150">
        <ele>61.1</ele>
        <time>2018-12-30T15:11:02Z</time>
      </trkpt>
      <trkpt lat="39.8792280" lon="3.0015080">
        <ele>61.0</ele>
        <time>2018-12-30T15:11:03Z</time>
      </trkpt>
      <trkpt lat="39.8792770" lon="3.0016020">
        <ele>60.9</ele>
        <time>2018-12-30T15:11:04Z</time>
      </trkpt>
      <trkpt lat="39.8793250" lon="3.0016970">
        <ele>60.8</ele>
        <time>2018-12-30T15:11:05Z</time>
      </trkpt>
      <trkpt lat="39.8793730" lon="3.0017880">
        <ele>60.7</ele>
        <time>2018-12-30T15:11:06Z</time>
      </trkpt>
      <trkpt lat="39.8794220" lon="3.0018800">
        <ele>60.6</ele>
        <time>2018-12-30T15:11:07Z</time>
      </trkpt>
      <trkpt lat="39.8794700" lon="3.0019700">
        <ele>60.5</ele>
        <time>2018-12-30T15:11:08Z</time>
      </trkpt>
      <trkpt lat="39.8795180" lon="3.0020600">
        <ele>60.4</ele>
        <time>2018-12-30T15:11:09Z</time>
      </trkpt>
      <trkpt lat="39.8795680" lon="3.0021520">
        <ele>60.3</ele>
        <time>2018-12-30T15:11:10Z</time>
      </trkpt>
      <trkpt lat="39.8796170" lon="3.0022430">
        <ele>60.3</ele>
        <time>2018-12-30T15:11:11Z</time>
      </trkpt>
      <trkpt lat="39.8796630" lon="3.0023330">
        <ele>60.2</ele>
        <time>2018-12-30T15:11:12Z</time>
      </trkpt>
      <trkpt lat="39.8797120" lon="3.0024230">
        <ele>60.1</ele>
        <time>2018-12-30T15:11:13Z</time>
      </trkpt>
      <trkpt lat="39.8797600" lon="3.0025130">
        <ele>60.2</ele>
        <time>2018-12-30T15:11:14Z</time>
      </trkpt>
      <trkpt lat="39.8798100" lon="3.0026050">
        <ele>60.2</ele>
        <time>2018-12-30T15:11:15Z</time>
      </trkpt>
      <trkpt lat="39.8798580" lon="3.0026950">
        <ele>60.3</ele>
        <time>2018-12-30T15:11:16Z</time>
      </trkpt>
      <trkpt lat="39.8799070" lon="3.0027850">
        <ele>60.4</ele>
        <time>2018-12-30T15:11:17Z</time>
      </trkpt>
      <trkpt lat="39.8799530" lon="3.0028730">
        <ele>60.5</ele>
        <time>2018-12-30T15:11:18Z</time>
      </trkpt>
      <trkpt lat="39.8800000" lon="3.0029630">
        <ele>60.6</ele>
        <time>2018-12-30T15:11:19Z</time>
      </trkpt>
      <trkpt lat="39.8800470" lon="3.0030530">
        <ele>60.6</ele>
        <time>2018-12-30T15:11:20Z</time>
      </trkpt>
      <trkpt lat="39.8800930" lon="3.0031450">
        <ele>60.7</ele>
        <time>2018-12-30T15:11:21Z</time>
      </trkpt>
      <trkpt lat="39.8801420" lon="3.0032330">
        <ele>60.7</ele>
        <time>2018-12-30T15:11:22Z</time>
      </trkpt>
      <trkpt lat="39.8801870" lon="3.0033250">
        <ele>60.8</ele>
        <time>2018-12-30T15:11:23Z</time>
      </trkpt>
      <trkpt lat="39.8802330" lon="3.0034180">
        <ele>60.7</ele>
        <time>2018-12-30T15:11:24Z</time>
      </trkpt>
      <trkpt lat="39.8802800" lon="3.0035100">
        <ele>60.6</ele>
        <time>2018-12-30T15:11:25Z</time>
      </trkpt>
      <trkpt lat="39.8803250" lon="3.0035980">
        <ele>60.6</ele>
        <time>2018-12-30T15:11:26Z</time>
      </trkpt>
      <trkpt lat="39.8803700" lon="3.0036870">
        <ele>60.6</ele>
        <time>2018-12-30T15:11:27Z</time>
      </trkpt>
      <trkpt lat="39.8804170" lon="3.0037730">
        <ele>60.6</ele>
        <time>2018-12-30T15:11:28Z</time>
      </trkpt>
      <trkpt lat="39.8804650" lon="3.0038620">
        <ele>60.5</ele>
        <time>2018-12-30T15:11:29Z</time>
      </trkpt>
      <trkpt lat="39.8805130" lon="3.0039500">
        <ele>60.5</ele>
        <time>2018-12-30T15:11:30Z</time>
      </trkpt>
      <trkpt lat="39.8805620" lon="3.0040330">
        <ele>60.5</ele>
        <time>2018-12-30T15:11:31Z</time>
      </trkpt>
      <trkpt lat="39.8806120" lon="3.0041180">
        <ele>60.5</ele>
        <time>2018-12-30T15:11:32Z</time>
      </trkpt>
      <trkpt lat="39.8806620" lon="3.0042020">
        <ele>60.5</ele>
        <time>2018-12-30T15:11:33Z</time>
      </trkpt>
      <trkpt lat="39.8807100" lon="3.0042830">
        <ele>60.5</ele>
        <time>2018-12-30T15:11:34Z</time>
      </trkpt>
      <trkpt lat="39.8807620" lon="3.0043630">
        <ele>60.5</ele>
        <time>2018-12-30T15:11:35Z</time>
      </trkpt>
      <trkpt lat="39.8808100" lon="3.0044470">
        <ele>60.6</ele>
        <time>2018-12-30T15:11:36Z</time>
      </trkpt>
      <trkpt lat="39.8808600" lon="3.0045320">
        <ele>60.6</ele>
        <time>2018-12-30T15:11:37Z</time>
      </trkpt>
      <trkpt lat="39.8809050" lon="3.0046170">
        <ele>60.6</ele>
        <time>2018-12-30T15:11:38Z</time>
      </trkpt>
      <trkpt lat="39.8809500" lon="3.0047020">
        <ele>60.6</ele>
        <time>2018-12-30T15:11:39Z</time>
      </trkpt>
      <trkpt lat="39.8809970" lon="3.0047850">
        <ele>60.6</ele>
        <time>2018-12-30T15:11:40Z</time>
      </trkpt>
      <trkpt lat="39.8810430" lon="3.0048680">
        <ele>60.6</ele>
        <time>2018-12-30T15:11:41Z</time>
      </trkpt>
      <trkpt lat="39.8810900" lon="3.0049530">
        <ele>60.5</ele>
        <time>2018-12-30T15:11:42Z</time>
      </trkpt>
      <trkpt lat="39.8811350" lon="3.0050400">
        <ele>60.5</ele>
        <time>2018-12-30T15:11:43Z</time>
      </trkpt>
      <trkpt lat="39.8811820" lon="3.0051270">
        <ele>60.4</ele>
        <time>2018-12-30T15:11:44Z</time>
      </trkpt>
      <trkpt lat="39.8812280" lon="3.0052020">
        <ele>60.4</ele>
        <time>2018-12-30T15:11:45Z</time>
      </trkpt>
      <trkpt lat="39.8812750" lon="3.0052850">
        <ele>60.3</ele>
        <time>2018-12-30T15:11:46Z</time>
      </trkpt>
      <trkpt lat="39.8813170" lon="3.0053750">
        <ele>60.2</ele>
        <time>2018-12-30T15:11:47Z</time>
      </trkpt>
      <trkpt lat="39.8813620" lon="3.0054670">
        <ele>60.1</ele>
        <time>2018-12-30T15:11:48Z</time>
      </trkpt>
      <trkpt lat="39.8814070" lon="3.0055620">
        <ele>60.0</ele>
        <time>2018-12-30T15:11:49Z</time>
      </trkpt>
      <trkpt lat="39.8814530" lon="3.0056580">
        <ele>59.8</ele>
        <time>2018-12-30T15:11:50Z</time>
      </trkpt>
      <trkpt lat="39.8815020" lon="3.0057500">
        <ele>59.6</ele>
        <time>2018-12-30T15:11:51Z</time>
      </trkpt>
      <trkpt lat="39.8815520" lon="3.0058500">
        <ele>59.4</ele>
        <time>2018-12-30T15:11:52Z</time>
      </trkpt>
      <trkpt lat="39.8815980" lon="3.0059520">
        <ele>59.1</ele>
        <time>2018-12-30T15:11:53Z</time>
      </trkpt>
      <trkpt lat="39.8816470" lon="3.0060480">
        <ele>58.8</ele>
        <time>2018-12-30T15:11:54Z</time>
      </trkpt>
      <trkpt lat="39.8816950" lon="3.0061470">
        <ele>58.7</ele>
        <time>2018-12-30T15:11:55Z</time>
      </trkpt>
      <trkpt lat="39.8817450" lon="3.0062430">
        <ele>58.6</ele>
        <time>2018-12-30T15:11:56Z</time>
      </trkpt>
      <trkpt lat="39.8817970" lon="3.0063380">
        <ele>58.4</ele>
        <time>2018-12-30T15:11:57Z</time>
      </trkpt>
      <trkpt lat="39.8818470" lon="3.0064280">
        <ele>58.2</ele>
        <time>2018-12-30T15:11:58Z</time>
      </trkpt>
      <trkpt lat="39.8818930" lon="3.0065170">
        <ele>58.0</ele>
        <time>2018-12-30T15:11:59Z</time>
      </trkpt>
      <trkpt lat="39.8819380" lon="3.0066120">
        <ele>57.7</ele>
        <time>2018-12-30T15:12:00Z</time>
      </trkpt>
      <trkpt lat="39.8819870" lon="3.0067050">
        <ele>57.4</ele>
        <time>2018-12-30T15:12:01Z</time>
      </trkpt>
      <trkpt lat="39.8820320" lon="3.0067970">
        <ele>57.1</ele>
        <time>2018-12-30T15:12:02Z</time>
      </trkpt>
      <trkpt lat="39.8820800" lon="3.0068870">
        <ele>56.8</ele>
        <time>2018-12-30T15:12:03Z</time>
      </trkpt>
      <trkpt lat="39.8821280" lon="3.0069770">
        <ele>56.6</ele>
        <time>2018-12-30T15:12:04Z</time>
      </trkpt>
      <trkpt lat="39.8821770" lon="3.0070720">
        <ele>56.5</ele>
        <time>2018-12-30T15:12:05Z</time>
      </trkpt>
      <trkpt lat="39.8822230" lon="3.0071650">
        <ele>56.4</ele>
        <time>2018-12-30T15:12:06Z</time>
      </trkpt>
      <trkpt lat="39.8822720" lon="3.0072580">
        <ele>56.4</ele>
        <time>2018-12-30T15:12:07Z</time>
      </trkpt>
      <trkpt lat="39.8823180" lon="3.0073480">
        <ele>56.4</ele>
        <time>2018-12-30T15:12:08Z</time>
      </trkpt>
      <trkpt lat="39.8823670" lon="3.0074400">
        <ele>56.4</ele>
        <time>2018-12-30T15:12:09Z</time>
      </trkpt>
      <trkpt lat="39.8824130" lon="3.0075300">
        <ele>56.4</ele>
        <time>2018-12-30T15:12:10Z</time>
      </trkpt>
      <trkpt lat="39.8824620" lon="3.0076200">
        <ele>56.4</ele>
        <time>2018-12-30T15:12:11Z</time>
      </trkpt>
      <trkpt lat="39.8825070" lon="3.0077080">
        <ele>56.4</ele>
        <time>2018-12-30T15:12:12Z</time>
      </trkpt>
      <trkpt lat="39.8825520" lon="3.0077980">
        <ele>56.4</ele>
        <time>2018-12-30T15:12:13Z</time>
      </trkpt>
      <trkpt lat="39.8825970" lon="3.0078880">
        <ele>56.4</ele>
        <time>2018-12-30T15:12:14Z</time>
      </trkpt>
      <trkpt lat="39.8826420" lon="3.0079820">
        <ele>56.4</ele>
        <time>2018-12-30T15:12:15Z</time>
      </trkpt>
      <trkpt lat="39.8826870" lon="3.0080730">
        <ele>56.3</ele>
        <time>2018-12-30T15:12:16Z</time>
      </trkpt>
      <trkpt lat="39.8827330" lon="3.0081630">
        <ele>56.3</ele>
        <time>2018-12-30T15:12:17Z</time>
      </trkpt>
      <trkpt lat="39.8827800" lon="3.0082530">
        <ele>56.3</ele>
        <time>2018-12-30T15:12:18Z</time>
      </trkpt>
      <trkpt lat="39.8828250" lon="3.0083430">
        <ele>56.2</ele>
        <time>2018-12-30T15:12:19Z</time>
      </trkpt>
      <trkpt lat="39.8828680" lon="3.0084350">
        <ele>56.2</ele>
        <time>2018-12-30T15:12:20Z</time>
      </trkpt>
      <trkpt lat="39.8829070" lon="3.0085320">
        <ele>56.1</ele>
        <time>2018-12-30T15:12:21Z</time>
      </trkpt>
      <trkpt lat="39.8829380" lon="3.0086320">
        <ele>56.1</ele>
        <time>2018-12-30T15:12:22Z</time>
      </trkpt>
      <trkpt lat="39.8829630" lon="3.0087320">
        <ele>56.0</ele>
        <time>2018-12-30T15:12:23Z</time>
      </trkpt>
      <trkpt lat="39.8829830" lon="3.0088370">
        <ele>56.0</ele>
        <time>2018-12-30T15:12:24Z</time>
      </trkpt>
      <trkpt lat="39.8829980" lon="3.0089450">
        <ele>55.9</ele>
        <time>2018-12-30T15:12:25Z</time>
      </trkpt>
      <trkpt lat="39.8830070" lon="3.0090550">
        <ele>55.9</ele>
        <time>2018-12-30T15:12:26Z</time>
      </trkpt>
      <trkpt lat="39.8830100" lon="3.0091670">
        <ele>55.8</ele>
        <time>2018-12-30T15:12:27Z</time>
      </trkpt>
      <trkpt lat="39.8830120" lon="3.0092720">
        <ele>55.8</ele>
        <time>2018-12-30T15:12:28Z</time>
      </trkpt>
      <trkpt lat="39.8830150" lon="3.0093770">
        <ele>55.7</ele>
        <time>2018-12-30T15:12:29Z</time>
      </trkpt>
      <trkpt lat="39.8830170" lon="3.0094830">
        <ele>55.7</ele>
        <time>2018-12-30T15:12:30Z</time>
      </trkpt>
      <trkpt lat="39.8830200" lon="3.0095880">
        <ele>55.5</ele>
        <time>2018-12-30T15:12:31Z</time>
      </trkpt>
      <trkpt lat="39.8830220" lon="3.0096980">
        <ele>55.3</ele>
        <time>2018-12-30T15:12:32Z</time>
      </trkpt>
      <trkpt lat="39.8830230" lon="3.0098080">
        <ele>55.2</ele>
        <time>2018-12-30T15:12:33Z</time>
      </trkpt>
      <trkpt lat="39.8830230" lon="3.0099150">
        <ele>55.0</ele>
        <time>2018-12-30T15:12:34Z</time>
      </trkpt>
      <trkpt lat="39.8830250" lon="3.0100220">
        <ele>54.9</ele>
        <time>2018-12-30T15:12:35Z</time>
      </trkpt>
      <trkpt lat="39.8830280" lon="3.0101280">
        <ele>55.1</ele>
        <time>2018-12-30T15:12:36Z</time>
      </trkpt>
      <trkpt lat="39.8830320" lon="3.0102370">
        <ele>55.3</ele>
        <time>2018-12-30T15:12:37Z</time>
      </trkpt>
      <trkpt lat="39.8830320" lon="3.0103450">
        <ele>55.5</ele>
        <time>2018-12-30T15:12:38Z</time>
      </trkpt>
      <trkpt lat="39.8830330" lon="3.0104520">
        <ele>55.6</ele>
        <time>2018-12-30T15:12:39Z</time>
      </trkpt>
      <trkpt lat="39.8830370" lon="3.0105600">
        <ele>55.8</ele>
        <time>2018-12-30T15:12:40Z</time>
      </trkpt>
      <trkpt lat="39.8830400" lon="3.0106670">
        <ele>56.0</ele>
        <time>2018-12-30T15:12:41Z</time>
      </trkpt>
      <trkpt lat="39.8830420" lon="3.0107720">
        <ele>56.1</ele>
        <time>2018-12-30T15:12:42Z</time>
      </trkpt>
      <trkpt lat="39.8830430" lon="3.0108780">
        <ele>56.2</ele>
        <time>2018-12-30T15:12:43Z</time>
      </trkpt>
      <trkpt lat="39.8830430" lon="3.0109820">
        <ele>56.1</ele>
        <time>2018-12-30T15:12:44Z</time>
      </trkpt>
      <trkpt lat="39.8830450" lon="3.0110880">
        <ele>56.0</ele>
        <time>2018-12-30T15:12:45Z</time>
      </trkpt>
      <trkpt lat="39.8830470" lon="3.0111950">
        <ele>55.9</ele>
        <time>2018-12-30T15:12:46Z</time>
      </trkpt>
      <trkpt lat="39.8830480" lon="3.0113020">
        <ele>55.8</ele>
        <time>2018-12-30T15:12:47Z</time>
      </trkpt>
      <trkpt lat="39.8830520" lon="3.0114070">
        <ele>55.6</ele>
        <time>2018-12-30T15:12:48Z</time>
      </trkpt>
      <trkpt lat="39.8830530" lon="3.0115120">
        <ele>55.4</ele>
        <time>2018-12-30T15:12:49Z</time>
      </trkpt>
      <trkpt lat="39.8830550" lon="3.0116180">
        <ele>55.1</ele>
        <time>2018-12-30T15:12:50Z</time>
      </trkpt>
      <trkpt lat="39.8830570" lon="3.0117250">
        <ele>54.9</ele>
        <time>2018-12-30T15:12:51Z</time>
      </trkpt>
      <trkpt lat="39.8830570" lon="3.0118300">
        <ele>54.7</ele>
        <time>2018-12-30T15:12:52Z</time>
      </trkpt>
      <trkpt lat="39.8830580" lon="3.0119380">
        <ele>54.6</ele>
        <time>2018-12-30T15:12:53Z</time>
      </trkpt>
      <trkpt lat="39.8830600" lon="3.0120430">
        <ele>54.5</ele>
        <time>2018-12-30T15:12:54Z</time>
      </trkpt>
      <trkpt lat="39.8830600" lon="3.0121520">
        <ele>54.4</ele>
        <time>2018-12-30T15:12:55Z</time>
      </trkpt>
      <trkpt lat="39.8830630" lon="3.0122580">
        <ele>54.3</ele>
        <time>2018-12-30T15:12:56Z</time>
      </trkpt>
      <trkpt lat="39.8830650" lon="3.0123700">
        <ele>54.3</ele>
        <time>2018-12-30T15:12:57Z</time>
      </trkpt>
      <trkpt lat="39.8830680" lon="3.0124850">
        <ele>54.2</ele>
        <time>2018-12-30T15:12:58Z</time>
      </trkpt>
      <trkpt lat="39.8830680" lon="3.0126020">
        <ele>54.2</ele>
        <time>2018-12-30T15:12:59Z</time>
      </trkpt>
      <trkpt lat="39.8830680" lon="3.0127150">
        <ele>54.1</ele>
        <time>2018-12-30T15:13:00Z</time>
      </trkpt>
      <trkpt lat="39.8830720" lon="3.0128270">
        <ele>54.1</ele>
        <time>2018-12-30T15:13:01Z</time>
      </trkpt>
      <trkpt lat="39.8830720" lon="3.0129420">
        <ele>54.0</ele>
        <time>2018-12-30T15:13:02Z</time>
      </trkpt>
      <trkpt lat="39.8830700" lon="3.0130570">
        <ele>54.0</ele>
        <time>2018-12-30T15:13:03Z</time>
      </trkpt>
      <trkpt lat="39.8830720" lon="3.0131730">
        <ele>53.9</ele>
        <time>2018-12-30T15:13:04Z</time>
      </trkpt>
      <trkpt lat="39.8830730" lon="3.0132870">
        <ele>53.9</ele>
        <time>2018-12-30T15:13:05Z</time>
      </trkpt>
      <trkpt lat="39.8830730" lon="3.0134000">
        <ele>53.8</ele>
        <time>2018-12-30T15:13:06Z</time>
      </trkpt>
      <trkpt lat="39.8830780" lon="3.0135150">
        <ele>53.8</ele>
        <time>2018-12-30T15:13:07Z</time>
      </trkpt>
      <trkpt lat="39.8830820" lon="3.0136300">
        <ele>53.7</ele>
        <time>2018-12-30T15:13:08Z</time>
      </trkpt>
      <trkpt lat="39.8830850" lon="3.0137430">
        <ele>53.7</ele>
        <time>2018-12-30T15:13:09Z</time>
      </trkpt>
      <trkpt lat="39.8830880" lon="3.0138580">
        <ele>53.7</ele>
        <time>2018-12-30T15:13:10Z</time>
      </trkpt>
      <trkpt lat="39.8830920" lon="3.0139680">
        <ele>53.6</ele>
        <time>2018-12-30T15:13:11Z</time>
      </trkpt>
      <trkpt lat="39.8830970" lon="3.0140780">
        <ele>53.4</ele>
        <time>2018-12-30T15:13:12Z</time>
      </trkpt>
      <trkpt lat="39.8831020" lon="3.0141920">
        <ele>53.3</ele>
        <time>2018-12-30T15:13:13Z</time>
      </trkpt>
      <trkpt lat="39.8831080" lon="3.0143030">
        <ele>53.3</ele>
        <time>2018-12-30T15:13:14Z</time>
      </trkpt>
      <trkpt lat="39.8831180" lon="3.0144150">
        <ele>53.2</ele>
        <time>2018-12-30T15:13:15Z</time>
      </trkpt>
      <trkpt lat="39.8831300" lon="3.0145280">
        <ele>53.1</ele>
        <time>2018-12-30T15:13:16Z</time>
      </trkpt>
      <trkpt lat="39.8831450" lon="3.0146420">
        <ele>53.0</ele>
        <time>2018-12-30T15:13:17Z</time>
      </trkpt>
      <trkpt lat="39.8831600" lon="3.0147550">
        <ele>52.8</ele>
        <time>2018-12-30T15:13:18Z</time>
      </trkpt>
      <trkpt lat="39.8831780" lon="3.0148680">
        <ele>52.6</ele>
        <time>2018-12-30T15:13:19Z</time>
      </trkpt>
      <trkpt lat="39.8831970" lon="3.0149830">
        <ele>52.3</ele>
        <time>2018-12-30T15:13:20Z</time>
      </trkpt>
      <trkpt lat="39.8832150" lon="3.0150980">
        <ele>52.2</ele>
        <time>2018-12-30T15:13:21Z</time>
      </trkpt>
      <trkpt lat="39.8832320" lon="3.0152080">
        <ele>52.0</ele>
        <time>2018-12-30T15:13:22Z</time>
      </trkpt>
      <trkpt lat="39.8832500" lon="3.0153200">
        <ele>51.8</ele>
        <time>2018-12-30T15:13:23Z</time>
      </trkpt>
      <trkpt lat="39.8832700" lon="3.0154380">
        <ele>51.6</ele>
        <time>2018-12-30T15:13:24Z</time>
      </trkpt>
      <trkpt lat="39.8832900" lon="3.0155480">
        <ele>51.4</ele>
        <time>2018-12-30T15:13:25Z</time>
      </trkpt>
      <trkpt lat="39.8833080" lon="3.0156600">
        <ele>51.3</ele>
        <time>2018-12-30T15:13:26Z</time>
      </trkpt>
      <trkpt lat="39.8833280" lon="3.0157670">
        <ele>51.2</ele>
        <time>2018-12-30T15:13:27Z</time>
      </trkpt>
      <trkpt lat="39.8833470" lon="3.0158800">
        <ele>51.1</ele>
        <time>2018-12-30T15:13:28Z</time>
      </trkpt>
      <trkpt lat="39.8833670" lon="3.0159900">
        <ele>51.1</ele>
        <time>2018-12-30T15:13:29Z</time>
      </trkpt>
      <trkpt lat="39.8833830" lon="3.0161020">
        <ele>51.1</ele>
        <time>2018-12-30T15:13:30Z</time>
      </trkpt>
      <trkpt lat="39.8834030" lon="3.0162170">
        <ele>51.0</ele>
        <time>2018-12-30T15:13:31Z</time>
      </trkpt>
      <trkpt lat="39.8834180" lon="3.0163320">
        <ele>51.0</ele>
        <time>2018-12-30T15:13:32Z</time>
      </trkpt>
      <trkpt lat="39.8834370" lon="3.0164520">
        <ele>50.9</ele>
        <time>2018-12-30T15:13:33Z</time>
      </trkpt>
      <trkpt lat="39.8834600" lon="3.0165630">
        <ele>50.9</ele>
        <time>2018-12-30T15:13:34Z</time>
      </trkpt>
      <trkpt lat="39.8834820" lon="3.0166820">
        <ele>50.8</ele>
        <time>2018-12-30T15:13:35Z</time>
      </trkpt>
      <trkpt lat="39.8835030" lon="3.0167980">
        <ele>50.8</ele>
        <time>2018-12-30T15:13:36Z</time>
      </trkpt>
      <trkpt lat="39.8835250" lon="3.0169120">
        <ele>50.8</ele>
        <time>2018-12-30T15:13:37Z</time>
      </trkpt>
      <trkpt lat="39.8835470" lon="3.0170170">
        <ele>50.8</ele>
        <time>2018-12-30T15:13:38Z</time>
      </trkpt>
      <trkpt lat="39.8835700" lon="3.0171300">
        <ele>50.7</ele>
        <time>2018-12-30T15:13:39Z</time>
      </trkpt>
      <trkpt lat="39.8835930" lon="3.0172420">
        <ele>50.6</ele>
        <time>2018-12-30T15:13:40Z</time>
      </trkpt>
      <trkpt lat="39.8836150" lon="3.0173530">
        <ele>50.4</ele>
        <time>2018-12-30T15:13:41Z</time>
      </trkpt>
      <trkpt lat="39.8836370" lon="3.0174680">
        <ele>50.1</ele>
        <time>2018-12-30T15:13:42Z</time>
      </trkpt>
      <trkpt lat="39.8836580" lon="3.0175800">
        <ele>49.6</ele>
        <time>2018-12-30T15:13:43Z</time>
      </trkpt>
      <trkpt lat="39.8836800" lon="3.0176930">
        <ele>49.1</ele>
        <time>2018-12-30T15:13:44Z</time>
      </trkpt>
      <trkpt lat="39.8837020" lon="3.0178100">
        <ele>49.1</ele>
        <time>2018-12-30T15:13:45Z</time>
      </trkpt>
      <trkpt lat="39.8837200" lon="3.0179270">
        <ele>49.0</ele>
        <time>2018-12-30T15:13:46Z</time>
      </trkpt>
      <trkpt lat="39.8837400" lon="3.0180380">
        <ele>49.0</ele>
        <time>2018-12-30T15:13:47Z</time>
      </trkpt>
      <trkpt lat="39.8837600" lon="3.0181530">
        <ele>49.0</ele>
        <time>2018-12-30T15:13:48Z</time>
      </trkpt>
      <trkpt lat="39.8837780" lon="3.0182680">
        <ele>49.0</ele>
        <time>2018-12-30T15:13:49Z</time>
      </trkpt>
      <trkpt lat="39.8837980" lon="3.0183850">
        <ele>48.9</ele>
        <time>2018-12-30T15:13:50Z</time>
      </trkpt>
      <trkpt lat="39.8838180" lon="3.0185050">
        <ele>48.9</ele>
        <time>2018-12-30T15:13:51Z</time>
      </trkpt>
      <trkpt lat="39.8838370" lon="3.0186220">
        <ele>48.9</ele>
        <time>2018-12-30T15:13:52Z</time>
      </trkpt>
      <trkpt lat="39.8838550" lon="3.0187350">
        <ele>48.9</ele>
        <time>2018-12-30T15:13:53Z</time>
      </trkpt>
      <trkpt lat="39.8838770" lon="3.0188480">
        <ele>48.9</ele>
        <time>2018-12-30T15:13:54Z</time>
      </trkpt>
      <trkpt lat="39.8838980" lon="3.0189630">
        <ele>48.9</ele>
        <time>2018-12-30T15:13:55Z</time>
      </trkpt>
      <trkpt lat="39.8839230" lon="3.0190800">
        <ele>48.9</ele>
        <time>2018-12-30T15:13:56Z</time>
      </trkpt>
      <trkpt lat="39.8839480" lon="3.0191920">
        <ele>48.9</ele>
        <time>2018-12-30T15:13:57Z</time>
      </trkpt>
      <trkpt lat="39.8839700" lon="3.0193070">
        <ele>48.8</ele>
        <time>2018-12-30T15:13:58Z</time>
      </trkpt>
      <trkpt lat="39.8839880" lon="3.0194180">
        <ele>48.7</ele>
        <time>2018-12-30T15:13:59Z</time>
      </trkpt>
      <trkpt lat="39.8840120" lon="3.0195300">
        <ele>48.6</ele>
        <time>2018-12-30T15:14:00Z</time>
      </trkpt>
      <trkpt lat="39.8840330" lon="3.0196380">
        <ele>48.6</ele>
        <time>2018-12-30T15:14:01Z</time>
      </trkpt>
      <trkpt lat="39.8840530" lon="3.0197450">
        <ele>48.5</ele>
        <time>2018-12-30T15:14:02Z</time>
      </trkpt>
      <trkpt lat="39.8840720" lon="3.0198530">
        <ele>48.4</ele>
        <time>2018-12-30T15:14:03Z</time>
      </trkpt>
      <trkpt lat="39.8840900" lon="3.0199580">
        <ele>48.3</ele>
        <time>2018-12-30T15:14:04Z</time>
      </trkpt>
      <trkpt lat="39.8841050" lon="3.0200620">
        <ele>48.2</ele>
        <time>2018-12-30T15:14:05Z</time>
      </trkpt>
      <trkpt lat="39.8841180" lon="3.0201670">
        <ele>48.1</ele>
        <time>2018-12-30T15:14:06Z</time>
      </trkpt>
      <trkpt lat="39.8841330" lon="3.0202720">
        <ele>48.0</ele>
        <time>2018-12-30T15:14:07Z</time>
      </trkpt>
      <trkpt lat="39.8841420" lon="3.0203750">
        <ele>48.0</ele>
        <time>2018-12-30T15:14:08Z</time>
      </trkpt>
      <trkpt lat="39.8841350" lon="3.0204780">
        <ele>48.0</ele>
        <time>2018-12-30T15:14:09Z</time>
      </trkpt>
      <trkpt lat="39.8841020" lon="3.0205730">
        <ele>48.0</ele>
        <time>2018-12-30T15:14:10Z</time>
      </trkpt>
      <trkpt lat="39.8840580" lon="3.0206600">
        <ele>48.0</ele>
        <time>2018-12-30T15:14:11Z</time>
      </trkpt>
      <trkpt lat="39.8840170" lon="3.0207450">
        <ele>48.0</ele>
        <time>2018-12-30T15:14:12Z</time>
      </trkpt>
      <trkpt lat="39.8839900" lon="3.0208380">
        <ele>47.9</ele>
        <time>2018-12-30T15:14:13Z</time>
      </trkpt>
      <trkpt lat="39.8839800" lon="3.0209350">
        <ele>47.9</ele>
        <time>2018-12-30T15:14:14Z</time>
      </trkpt>
      <trkpt lat="39.8839900" lon="3.0210320">
        <ele>47.7</ele>
        <time>2018-12-30T15:14:15Z</time>
      </trkpt>
      <trkpt lat="39.8840200" lon="3.0211230">
        <ele>47.7</ele>
        <time>2018-12-30T15:14:16Z</time>
      </trkpt>
      <trkpt lat="39.8840550" lon="3.0212130">
        <ele>47.7</ele>
        <time>2018-12-30T15:14:17Z</time>
      </trkpt>
      <trkpt lat="39.8840920" lon="3.0213080">
        <ele>47.7</ele>
        <time>2018-12-30T15:14:18Z</time>
      </trkpt>
      <trkpt lat="39.8841320" lon="3.0214020">
        <ele>47.7</ele>
        <time>2018-12-30T15:14:19Z</time>
      </trkpt>
      <trkpt lat="39.8841730" lon="3.0214920">
        <ele>47.7</ele>
        <time>2018-12-30T15:14:20Z</time>
      </trkpt>
      <trkpt lat="39.8842180" lon="3.0215780">
        <ele>47.5</ele>
        <time>2018-12-30T15:14:21Z</time>
      </trkpt>
      <trkpt lat="39.8842630" lon="3.0216620">
        <ele>47.3</ele>
        <time>2018-12-30T15:14:22Z</time>
      </trkpt>
      <trkpt lat="39.8843050" lon="3.0217470">
        <ele>47.0</ele>
        <time>2018-12-30T15:14:23Z</time>
      </trkpt>
      <trkpt lat="39.8843430" lon="3.0218280">
        <ele>46.8</ele>
        <time>2018-12-30T15:14:24Z</time>
      </trkpt>
      <trkpt lat="39.8843780" lon="3.0219070">
        <ele>46.6</ele>
        <time>2018-12-30T15:14:25Z</time>
      </trkpt>
      <trkpt lat="39.8844070" lon="3.0219900">
        <ele>46.3</ele>
        <time>2018-12-30T15:14:26Z</time>
      </trkpt>
      <trkpt lat="39.8844230" lon="3.0220870">
        <ele>46.2</ele>
        <time>2018-12-30T15:14:27Z</time>
      </trkpt>
      <trkpt lat="39.8844230" lon="3.0221880">
        <ele>46.0</ele>
        <time>2018-12-30T15:14:28Z</time>
      </trkpt>
      <trkpt lat="39.8844220" lon="3.0222980">
        <ele>45.9</ele>
        <time>2018-12-30T15:14:29Z</time>
      </trkpt>
      <trkpt lat="39.8844270" lon="3.0224100">
        <ele>45.9</ele>
        <time>2018-12-30T15:14:30Z</time>
      </trkpt>
      <trkpt lat="39.8844470" lon="3.0225180">
        <ele>45.4</ele>
        <time>2018-12-30T15:14:31Z</time>
      </trkpt>
      <trkpt lat="39.8844880" lon="3.0226150">
        <ele>45.4</ele>
        <time>2018-12-30T15:14:32Z</time>
      </trkpt>
      <trkpt lat="39.8845420" lon="3.0227030">
        <ele>45.4</ele>
        <time>2018-12-30T15:14:33Z</time>
      </trkpt>
      <trkpt lat="39.8846020" lon="3.0227830">
        <ele>45.3</ele>
        <time>2018-12-30T15:14:34Z</time>
      </trkpt>
      <trkpt lat="39.8846620" lon="3.0228620">
        <ele>45.2</ele>
        <time>2018-12-30T15:14:35Z</time>
      </trkpt>
      <trkpt lat="39.8847180" lon="3.0229480">
        <ele>45.2</ele>
        <time>2018-12-30T15:14:36Z</time>
      </trkpt>
      <trkpt lat="39.8847670" lon="3.0230400">
        <ele>45.1</ele>
        <time>2018-12-30T15:14:37Z</time>
      </trkpt>
      <trkpt lat="39.8848100" lon="3.0231370">
        <ele>44.9</ele>
        <time>2018-12-30T15:14:38Z</time>
      </trkpt>
      <trkpt lat="39.8848520" lon="3.0232330">
        <ele>44.6</ele>
        <time>2018-12-30T15:14:39Z</time>
      </trkpt>
      <trkpt lat="39.8848930" lon="3.0233320">
        <ele>44.3</ele>
        <time>2018-12-30T15:14:40Z</time>
      </trkpt>
      <trkpt lat="39.8849350" lon="3.0234330">
        <ele>43.9</ele>
        <time>2018-12-30T15:14:41Z</time>
      </trkpt>
      <trkpt lat="39.8849780" lon="3.0235370">
        <ele>43.5</ele>
        <time>2018-12-30T15:14:42Z</time>
      </trkpt>
      <trkpt lat="39.8850220" lon="3.0236400">
        <ele>43.2</ele>
        <time>2018-12-30T15:14:43Z</time>
      </trkpt>
      <trkpt lat="39.8850600" lon="3.0237420">
        <ele>43.0</ele>
        <time>2018-12-30T15:14:44Z</time>
      </trkpt>
      <trkpt lat="39.8851000" lon="3.0238430">
        <ele>42.8</ele>
        <time>2018-12-30T15:14:45Z</time>
      </trkpt>
      <trkpt lat="39.8851380" lon="3.0239470">
        <ele>42.6</ele>
        <time>2018-12-30T15:14:46Z</time>
      </trkpt>
      <trkpt lat="39.8851780" lon="3.0240480">
        <ele>42.4</ele>
        <time>2018-12-30T15:14:47Z</time>
      </trkpt>
      <trkpt lat="39.8852170" lon="3.0241500">
        <ele>42.3</ele>
        <time>2018-12-30T15:14:48Z</time>
      </trkpt>
      <trkpt lat="39.8852570" lon="3.0242520">
        <ele>42.1</ele>
        <time>2018-12-30T15:14:49Z</time>
      </trkpt>
      <trkpt lat="39.8852980" lon="3.0243530">
        <ele>41.9</ele>
        <time>2018-12-30T15:14:50Z</time>
      </trkpt>
      <trkpt lat="39.8853370" lon="3.0244570">
        <ele>41.7</ele>
        <time>2018-12-30T15:14:51Z</time>
      </trkpt>
      <trkpt lat="39.8853750" lon="3.0245600">
        <ele>41.5</ele>
        <time>2018-12-30T15:14:52Z</time>
      </trkpt>
      <trkpt lat="39.8854130" lon="3.0246620">
        <ele>41.4</ele>
        <time>2018-12-30T15:14:53Z</time>
      </trkpt>
      <trkpt lat="39.8854480" lon="3.0247620">
        <ele>41.3</ele>
        <time>2018-12-30T15:14:54Z</time>
      </trkpt>
      <trkpt lat="39.8854830" lon="3.0248600">
        <ele>41.1</ele>
        <time>2018-12-30T15:14:55Z</time>
      </trkpt>
      <trkpt lat="39.8855230" lon="3.0249580">
        <ele>41.1</ele>
        <time>2018-12-30T15:14:56Z</time>
      </trkpt>
      <trkpt lat="39.8855650" lon="3.0250580">
        <ele>41.0</ele>
        <time>2018-12-30T15:14:57Z</time>
      </trkpt>
      <trkpt lat="39.8856050" lon="3.0251600">
        <ele>40.9</ele>
        <time>2018-12-30T15:14:58Z</time>
      </trkpt>
      <trkpt lat="39.8856470" lon="3.0252620">
        <ele>40.8</ele>
        <time>2018-12-30T15:14:59Z</time>
      </trkpt>
      <trkpt lat="39.8856870" lon="3.0253630">
        <ele>40.8</ele>
        <time>2018-12-30T15:15:00Z</time>
      </trkpt>
      <trkpt lat="39.8857270" lon="3.0254630">
        <ele>40.8</ele>
        <time>2018-12-30T15:15:01Z</time>
      </trkpt>
      <trkpt lat="39.8857670" lon="3.0255630">
        <ele>40.7</ele>
        <time>2018-12-30T15:15:02Z</time>
      </trkpt>
      <trkpt lat="39.8858070" lon="3.0256620">
        <ele>40.7</ele>
        <time>2018-12-30T15:15:03Z</time>
      </trkpt>
      <trkpt lat="39.8858480" lon="3.0257620">
        <ele>40.6</ele>
        <time>2018-12-30T15:15:04Z</time>
      </trkpt>
      <trkpt lat="39.8858920" lon="3.0258650">
        <ele>40.6</ele>
        <time>2018-12-30T15:15:05Z</time>
      </trkpt>
      <trkpt lat="39.8859370" lon="3.0259600">
        <ele>40.5</ele>
        <time>2018-12-30T15:15:06Z</time>
      </trkpt>
      <trkpt lat="39.8859780" lon="3.0260630">
        <ele>40.5</ele>
        <time>2018-12-30T15:15:07Z</time>
      </trkpt>
      <trkpt lat="39.8860200" lon="3.0261700">
        <ele>40.4</ele>
        <time>2018-12-30T15:15:08Z</time>
      </trkpt>
      <trkpt lat="39.8860630" lon="3.0262750">
        <ele>40.3</ele>
        <time>2018-12-30T15:15:09Z</time>
      </trkpt>
      <trkpt lat="39.8861050" lon="3.0263830">
        <ele>40.2</ele>
        <time>2018-12-30T15:15:10Z</time>
      </trkpt>
      <trkpt lat="39.8861480" lon="3.0265020">
        <ele>40.1</ele>
        <time>2018-12-30T15:15:11Z</time>
      </trkpt>
      <trkpt lat="39.8861900" lon="3.0266080">
        <ele>40.1</ele>
        <time>2018-12-30T15:15:12Z</time>
      </trkpt>
      <trkpt lat="39.8862400" lon="3.0267180">
        <ele>40.0</ele>
        <time>2018-12-30T15:15:13Z</time>
      </trkpt>
      <trkpt lat="39.8862880" lon="3.0268230">
        <ele>40.0</ele>
        <time>2018-12-30T15:15:14Z</time>
      </trkpt>
      <trkpt lat="39.8863370" lon="3.0269200">
        <ele>40.0</ele>
        <time>2018-12-30T15:15:15Z</time>
      </trkpt>
      <trkpt lat="39.8863770" lon="3.0270280">
        <ele>40.0</ele>
        <time>2018-12-30T15:15:16Z</time>
      </trkpt>
      <trkpt lat="39.8864180" lon="3.0271370">
        <ele>40.0</ele>
        <time>2018-12-30T15:15:17Z</time>
      </trkpt>
      <trkpt lat="39.8864620" lon="3.0272470">
        <ele>40.0</ele>
        <time>2018-12-30T15:15:18Z</time>
      </trkpt>
      <trkpt lat="39.8865020" lon="3.0273520">
        <ele>40.0</ele>
        <time>2018-12-30T15:15:19Z</time>
      </trkpt>
      <trkpt lat="39.8865480" lon="3.0274520">
        <ele>40.0</ele>
        <time>2018-12-30T15:15:20Z</time>
      </trkpt>
      <trkpt lat="39.8865900" lon="3.0275580">
        <ele>39.9</ele>
        <time>2018-12-30T15:15:21Z</time>
      </trkpt>
      <trkpt lat="39.8866280" lon="3.0276530">
        <ele>39.9</ele>
        <time>2018-12-30T15:15:22Z</time>
      </trkpt>
      <trkpt lat="39.8866730" lon="3.0277520">
        <ele>39.8</ele>
        <time>2018-12-30T15:15:23Z</time>
      </trkpt>
      <trkpt lat="39.8867150" lon="3.0278570">
        <ele>39.8</ele>
        <time>2018-12-30T15:15:24Z</time>
      </trkpt>
      <trkpt lat="39.8867600" lon="3.0279620">
        <ele>39.7</ele>
        <time>2018-12-30T15:15:25Z</time>
      </trkpt>
      <trkpt lat="39.8868020" lon="3.0280600">
        <ele>39.7</ele>
        <time>2018-12-30T15:15:26Z</time>
      </trkpt>
      <trkpt lat="39.8868550" lon="3.0281580">
        <ele>39.6</ele>
        <time>2018-12-30T15:15:27Z</time>
      </trkpt>
      <trkpt lat="39.8869020" lon="3.0282580">
        <ele>39.4</ele>
        <time>2018-12-30T15:15:28Z</time>
      </trkpt>
      <trkpt lat="39.8869530" lon="3.0283600">
        <ele>39.2</ele>
        <time>2018-12-30T15:15:29Z</time>
      </trkpt>
      <trkpt lat="39.8870030" lon="3.0284530">
        <ele>39.1</ele>
        <time>2018-12-30T15:15:30Z</time>
      </trkpt>
      <trkpt lat="39.8870600" lon="3.0285470">
        <ele>38.9</ele>
        <time>2018-12-30T15:15:31Z</time>
      </trkpt>
      <trkpt lat="39.8871150" lon="3.0286530">
        <ele>38.8</ele>
        <time>2018-12-30T15:15:32Z</time>
      </trkpt>
      <trkpt lat="39.8871600" lon="3.0287500">
        <ele>38.6</ele>
        <time>2018-12-30T15:15:33Z</time>
      </trkpt>
      <trkpt lat="39.8872180" lon="3.0288530">
        <ele>38.4</ele>
        <time>2018-12-30T15:15:34Z</time>
      </trkpt>
      <trkpt lat="39.8872770" lon="3.0289430">
        <ele>38.3</ele>
        <time>2018-12-30T15:15:35Z</time>
      </trkpt>
      <trkpt lat="39.8873320" lon="3.0290370">
        <ele>38.1</ele>
        <time>2018-12-30T15:15:36Z</time>
      </trkpt>
      <trkpt lat="39.8873870" lon="3.0291280">
        <ele>37.9</ele>
        <time>2018-12-30T15:15:37Z</time>
      </trkpt>
      <trkpt lat="39.8874420" lon="3.0292220">
        <ele>37.8</ele>
        <time>2018-12-30T15:15:38Z</time>
      </trkpt>
      <trkpt lat="39.8874900" lon="3.0293120">
        <ele>37.6</ele>
        <time>2018-12-30T15:15:39Z</time>
      </trkpt>
      <trkpt lat="39.8875470" lon="3.0294020">
        <ele>37.5</ele>
        <time>2018-12-30T15:15:40Z</time>
      </trkpt>
      <trkpt lat="39.8876050" lon="3.0294900">
        <ele>37.3</ele>
        <time>2018-12-30T15:15:41Z</time>
      </trkpt>
      <trkpt lat="39.8876630" lon="3.0295730">
        <ele>37.2</ele>
        <time>2018-12-30T15:15:42Z</time>
      </trkpt>
      <trkpt lat="39.8877250" lon="3.0296580">
        <ele>37.1</ele>
        <time>2018-12-30T15:15:43Z</time>
      </trkpt>
      <trkpt lat="39.8877880" lon="3.0297420">
        <ele>36.9</ele>
        <time>2018-12-30T15:15:44Z</time>
      </trkpt>
      <trkpt lat="39.8878520" lon="3.0298230">
        <ele>36.7</ele>
        <time>2018-12-30T15:15:45Z</time>
      </trkpt>
      <trkpt lat="39.8879170" lon="3.0299030">
        <ele>36.7</ele>
        <time>2018-12-30T15:15:46Z</time>
      </trkpt>
      <trkpt lat="39.8879820" lon="3.0299850">
        <ele>36.6</ele>
        <time>2018-12-30T15:15:47Z</time>
      </trkpt>
      <trkpt lat="39.8880470" lon="3.0300650">
        <ele>36.6</ele>
        <time>2018-12-30T15:15:48Z</time>
      </trkpt>
      <trkpt lat="39.8881130" lon="3.0301450">
        <ele>36.5</ele>
        <time>2018-12-30T15:15:49Z</time>
      </trkpt>
      <trkpt lat="39.8881820" lon="3.0302220">
        <ele>36.4</ele>
        <time>2018-12-30T15:15:50Z</time>
      </trkpt>
      <trkpt lat="39.8882480" lon="3.0302970">
        <ele>36.3</ele>
        <time>2018-12-30T15:15:51Z</time>
      </trkpt>
      <trkpt lat="39.8883150" lon="3.0303750">
        <ele>36.2</ele>
        <time>2018-12-30T15:15:52Z</time>
      </trkpt>
      <trkpt lat="39.8883800" lon="3.0304530">
        <ele>36.2</ele>
        <time>2018-12-30T15:15:53Z</time>
      </trkpt>
      <trkpt lat="39.8884450" lon="3.0305330">
        <ele>36.1</ele>
        <time>2018-12-30T15:15:54Z</time>
      </trkpt>
      <trkpt lat="39.8885100" lon="3.0306100">
        <ele>36.0</ele>
        <time>2018-12-30T15:15:55Z</time>
      </trkpt>
      <trkpt lat="39.8885780" lon="3.0306820">
        <ele>35.8</ele>
        <time>2018-12-30T15:15:56Z</time>
      </trkpt>
      <trkpt lat="39.8886480" lon="3.0307530">
        <ele>35.7</ele>
        <time>2018-12-30T15:15:57Z</time>
      </trkpt>
      <trkpt lat="39.8887170" lon="3.0308280">
        <ele>35.6</ele>
        <time>2018-12-30T15:15:58Z</time>
      </trkpt>
      <trkpt lat="39.8887820" lon="3.0309050">
        <ele>35.5</ele>
        <time>2018-12-30T15:15:59Z</time>
      </trkpt>
      <trkpt lat="39.8888470" lon="3.0309820">
        <ele>35.3</ele>
        <time>2018-12-30T15:16:00Z</time>
      </trkpt>
      <trkpt lat="39.8889150" lon="3.0310580">
        <ele>35.1</ele>
        <time>2018-12-30T15:16:01Z</time>
      </trkpt>
      <trkpt lat="39.8889800" lon="3.0311300">
        <ele>34.8</ele>
        <time>2018-12-30T15:16:02Z</time>
      </trkpt>
      <trkpt lat="39.8890470" lon="3.0312080">
        <ele>34.6</ele>
        <time>2018-12-30T15:16:03Z</time>
      </trkpt>
      <trkpt lat="39.8891120" lon="3.0312880">
        <ele>34.5</ele>
        <time>2018-12-30T15:16:04Z</time>
      </trkpt>
      <trkpt lat="39.8891770" lon="3.0313670">
        <ele>34.4</ele>
        <time>2018-12-30T15:16:05Z</time>
      </trkpt>
      <trkpt lat="39.8892420" lon="3.0314470">
        <ele>34.4</ele>
        <time>2018-12-30T15:16:06Z</time>
      </trkpt>
      <trkpt lat="39.8893080" lon="3.0315280">
        <ele>34.4</ele>
        <time>2018-12-30T15:16:07Z</time>
      </trkpt>
      <trkpt lat="39.8893730" lon="3.0316080">
        <ele>34.3</ele>
        <time>2018-12-30T15:16:08Z</time>
      </trkpt>
      <trkpt lat="39.8894380" lon="3.0316870">
        <ele>34.2</ele>
        <time>2018-12-30T15:16:09Z</time>
      </trkpt>
      <trkpt lat="39.8895030" lon="3.0317670">
        <ele>34.2</ele>
        <time>2018-12-30T15:16:10Z</time>
      </trkpt>
      <trkpt lat="39.8895650" lon="3.0318550">
        <ele>34.1</ele>
        <time>2018-12-30T15:16:11Z</time>
      </trkpt>
      <trkpt lat="39.8896320" lon="3.0319370">
        <ele>34.2</ele>
        <time>2018-12-30T15:16:12Z</time>
      </trkpt>
      <trkpt lat="39.8896980" lon="3.0320220">
        <ele>34.4</ele>
        <time>2018-12-30T15:16:13Z</time>
      </trkpt>
      <trkpt lat="39.8897680" lon="3.0321050">
        <ele>34.6</ele>
        <time>2018-12-30T15:16:14Z</time>
      </trkpt>
      <trkpt lat="39.8898400" lon="3.0321800">
        <ele>34.8</ele>
        <time>2018-12-30T15:16:15Z</time>
      </trkpt>
      <trkpt lat="39.8899100" lon="3.0322600">
        <ele>35.0</ele>
        <time>2018-12-30T15:16:16Z</time>
      </trkpt>
      <trkpt lat="39.8899780" lon="3.0323430">
        <ele>35.1</ele>
        <time>2018-12-30T15:16:17Z</time>
      </trkpt>
      <trkpt lat="39.8900500" lon="3.0324250">
        <ele>35.2</ele>
        <time>2018-12-30T15:16:18Z</time>
      </trkpt>
      <trkpt lat="39.8901080" lon="3.0324980">
        <ele>35.2</ele>
        <time>2018-12-30T15:16:19Z</time>
      </trkpt>
      <trkpt lat="39.8901700" lon="3.0325800">
        <ele>35.1</ele>
        <time>2018-12-30T15:16:20Z</time>
      </trkpt>
      <trkpt lat="39.8902370" lon="3.0326620">
        <ele>35.0</ele>
        <time>2018-12-30T15:16:21Z</time>
      </trkpt>
      <trkpt lat="39.8903080" lon="3.0327470">
        <ele>34.7</ele>
        <time>2018-12-30T15:16:22Z</time>
      </trkpt>
      <trkpt lat="39.8903820" lon="3.0328300">
        <ele>34.4</ele>
        <time>2018-12-30T15:16:23Z</time>
      </trkpt>
      <trkpt lat="39.8904480" lon="3.0329120">
        <ele>34.1</ele>
        <time>2018-12-30T15:16:24Z</time>
      </trkpt>
      <trkpt lat="39.8905130" lon="3.0329950">
        <ele>33.8</ele>
        <time>2018-12-30T15:16:25Z</time>
      </trkpt>
      <trkpt lat="39.8905800" lon="3.0330780">
        <ele>33.5</ele>
        <time>2018-12-30T15:16:26Z</time>
      </trkpt>
      <trkpt lat="39.8906500" lon="3.0331650">
        <ele>33.3</ele>
        <time>2018-12-30T15:16:27Z</time>
      </trkpt>
      <trkpt lat="39.8907150" lon="3.0332530">
        <ele>33.2</ele>
        <time>2018-12-30T15:16:28Z</time>
      </trkpt>
      <trkpt lat="39.8907830" lon="3.0333380">
        <ele>33.0</ele>
        <time>2018-12-30T15:16:29Z</time>
      </trkpt>
      <trkpt lat="39.8908520" lon="3.0334220">
        <ele>32.9</ele>
        <time>2018-12-30T15:16:30Z</time>
      </trkpt>
      <trkpt lat="39.8909180" lon="3.0335020">
        <ele>32.7</ele>
        <time>2018-12-30T15:16:31Z</time>
      </trkpt>
      <trkpt lat="39.8909900" lon="3.0335880">
        <ele>32.5</ele>
        <time>2018-12-30T15:16:32Z</time>
      </trkpt>
      <trkpt lat="39.8910620" lon="3.0336820">
        <ele>32.3</ele>
        <time>2018-12-30T15:16:33Z</time>
      </trkpt>
      <trkpt lat="39.8911270" lon="3.0337730">
        <ele>32.1</ele>
        <time>2018-12-30T15:16:34Z</time>
      </trkpt>
      <trkpt lat="39.8911880" lon="3.0338720">
        <ele>32.1</ele>
        <time>2018-12-30T15:16:35Z</time>
      </trkpt>
      <trkpt lat="39.8912520" lon="3.0339670">
        <ele>32.1</ele>
        <time>2018-12-30T15:16:36Z</time>
      </trkpt>
      <trkpt lat="39.8913180" lon="3.0340600">
        <ele>32.1</ele>
        <time>2018-12-30T15:16:37Z</time>
      </trkpt>
      <trkpt lat="39.8913780" lon="3.0341500">
        <ele>32.1</ele>
        <time>2018-12-30T15:16:38Z</time>
      </trkpt>
      <trkpt lat="39.8914330" lon="3.0342450">
        <ele>32.1</ele>
        <time>2018-12-30T15:16:39Z</time>
      </trkpt>
      <trkpt lat="39.8914850" lon="3.0343400">
        <ele>32.0</ele>
        <time>2018-12-30T15:16:40Z</time>
      </trkpt>
      <trkpt lat="39.8915380" lon="3.0344400">
        <ele>32.0</ele>
        <time>2018-12-30T15:16:41Z</time>
      </trkpt>
      <trkpt lat="39.8915970" lon="3.0345400">
        <ele>31.9</ele>
        <time>2018-12-30T15:16:42Z</time>
      </trkpt>
      <trkpt lat="39.8916520" lon="3.0346450">
        <ele>31.8</ele>
        <time>2018-12-30T15:16:43Z</time>
      </trkpt>
      <trkpt lat="39.8917020" lon="3.0347450">
        <ele>31.6</ele>
        <time>2018-12-30T15:16:44Z</time>
      </trkpt>
      <trkpt lat="39.8917450" lon="3.0348480">
        <ele>31.4</ele>
        <time>2018-12-30T15:16:45Z</time>
      </trkpt>
      <trkpt lat="39.8917950" lon="3.0349530">
        <ele>31.2</ele>
        <time>2018-12-30T15:16:46Z</time>
      </trkpt>
      <trkpt lat="39.8918530" lon="3.0350430">
        <ele>31.0</ele>
        <time>2018-12-30T15:16:47Z</time>
      </trkpt>
      <trkpt lat="39.8919030" lon="3.0351600">
        <ele>31.0</ele>
        <time>2018-12-30T15:16:48Z</time>
      </trkpt>
      <trkpt lat="39.8919530" lon="3.0352730">
        <ele>31.1</ele>
        <time>2018-12-30T15:16:49Z</time>
      </trkpt>
      <trkpt lat="39.8920030" lon="3.0353870">
        <ele>31.1</ele>
        <time>2018-12-30T15:16:50Z</time>
      </trkpt>
      <trkpt lat="39.8920420" lon="3.0354980">
        <ele>31.1</ele>
        <time>2018-12-30T15:16:51Z</time>
      </trkpt>
      <trkpt lat="39.8920850" lon="3.0356070">
        <ele>31.0</ele>
        <time>2018-12-30T15:16:52Z</time>
      </trkpt>
      <trkpt lat="39.8921350" lon="3.0357050">
        <ele>31.0</ele>
        <time>2018-12-30T15:16:53Z</time>
      </trkpt>
      <trkpt lat="39.8921730" lon="3.0358120">
        <ele>31.0</ele>
        <time>2018-12-30T15:16:54Z</time>
      </trkpt>
      <trkpt lat="39.8922020" lon="3.0359170">
        <ele>31.0</ele>
        <time>2018-12-30T15:16:55Z</time>
      </trkpt>
      <trkpt lat="39.8922300" lon="3.0360270">
        <ele>31.0</ele>
        <time>2018-12-30T15:16:56Z</time>
      </trkpt>
      <trkpt lat="39.8922580" lon="3.0361420">
        <ele>31.1</ele>
        <time>2018-12-30T15:16:57Z</time>
      </trkpt>
      <trkpt lat="39.8922780" lon="3.0362550">
        <ele>31.1</ele>
        <time>2018-12-30T15:16:58Z</time>
      </trkpt>
      <trkpt lat="39.8923100" lon="3.0363620">
        <ele>31.1</ele>
        <time>2018-12-30T15:16:59Z</time>
      </trkpt>
      <trkpt lat="39.8923420" lon="3.0364680">
        <ele>31.1</ele>
        <time>2018-12-30T15:17:00Z</time>
      </trkpt>
      <trkpt lat="39.8923770" lon="3.0365750">
        <ele>31.2</ele>
        <time>2018-12-30T15:17:01Z</time>
      </trkpt>
      <trkpt lat="39.8924150" lon="3.0366820">
        <ele>31.2</ele>
        <time>2018-12-30T15:17:02Z</time>
      </trkpt>
      <trkpt lat="39.8924500" lon="3.0367930">
        <ele>31.2</ele>
        <time>2018-12-30T15:17:03Z</time>
      </trkpt>
      <trkpt lat="39.8924870" lon="3.0369000">
        <ele>31.3</ele>
        <time>2018-12-30T15:17:04Z</time>
      </trkpt>
      <trkpt lat="39.8925250" lon="3.0370020">
        <ele>31.5</ele>
        <time>2018-12-30T15:17:05Z</time>
      </trkpt>
      <trkpt lat="39.8925620" lon="3.0371050">
        <ele>31.6</ele>
        <time>2018-12-30T15:17:06Z</time>
      </trkpt>
      <trkpt lat="39.8925970" lon="3.0372150">
        <ele>31.7</ele>
        <time>2018-12-30T15:17:07Z</time>
      </trkpt>
      <trkpt lat="39.8926320" lon="3.0373200">
        <ele>31.8</ele>
        <time>2018-12-30T15:17:08Z</time>
      </trkpt>
      <trkpt lat="39.8926630" lon="3.0374220">
        <ele>32.0</ele>
        <time>2018-12-30T15:17:09Z</time>
      </trkpt>
      <trkpt lat="39.8926920" lon="3.0375270">
        <ele>32.1</ele>
        <time>2018-12-30T15:17:10Z</time>
      </trkpt>
      <trkpt lat="39.8927220" lon="3.0376320">
        <ele>32.4</ele>
        <time>2018-12-30T15:17:11Z</time>
      </trkpt>
      <trkpt lat="39.8927500" lon="3.0377380">
        <ele>32.6</ele>
        <time>2018-12-30T15:17:12Z</time>
      </trkpt>
      <trkpt lat="39.8927820" lon="3.0378450">
        <ele>32.9</ele>
        <time>2018-12-30T15:17:13Z</time>
      </trkpt>
      <trkpt lat="39.8928150" lon="3.0379530">
        <ele>33.3</ele>
        <time>2018-12-30T15:17:14Z</time>
      </trkpt>
      <trkpt lat="39.8928470" lon="3.0380600">
        <ele>33.6</ele>
        <time>2018-12-30T15:17:15Z</time>
      </trkpt>
      <trkpt lat="39.8928820" lon="3.0381680">
        <ele>33.8</ele>
        <time>2018-12-30T15:17:16Z</time>
      </trkpt>
      <trkpt lat="39.8929130" lon="3.0382730">
        <ele>33.9</ele>
        <time>2018-12-30T15:17:17Z</time>
      </trkpt>
      <trkpt lat="39.8929450" lon="3.0383780">
        <ele>34.0</ele>
        <time>2018-12-30T15:17:18Z</time>
      </trkpt>
      <trkpt lat="39.8929800" lon="3.0384850">
        <ele>34.1</ele>
        <time>2018-12-30T15:17:19Z</time>
      </trkpt>
      <trkpt lat="39.8930180" lon="3.0385870">
        <ele>34.3</ele>
        <time>2018-12-30T15:17:20Z</time>
      </trkpt>
      <trkpt lat="39.8930550" lon="3.0386900">
        <ele>34.5</ele>
        <time>2018-12-30T15:17:21Z</time>
      </trkpt>
      <trkpt lat="39.8930880" lon="3.0387930">
        <ele>34.7</ele>
        <time>2018-12-30T15:17:22Z</time>
      </trkpt>
      <trkpt lat="39.8931180" lon="3.0388920">
        <ele>35.0</ele>
        <time>2018-12-30T15:17:23Z</time>
      </trkpt>
      <trkpt lat="39.8931480" lon="3.0389920">
        <ele>35.3</ele>
        <time>2018-12-30T15:17:24Z</time>
      </trkpt>
      <trkpt lat="39.8931830" lon="3.0390970">
        <ele>35.3</ele>
        <time>2018-12-30T15:17:25Z</time>
      </trkpt>
      <trkpt lat="39.8932170" lon="3.0392020">
        <ele>35.1</ele>
        <time>2018-12-30T15:17:26Z</time>
      </trkpt>
      <trkpt lat="39.8932520" lon="3.0393080">
        <ele>34.9</ele>
        <time>2018-12-30T15:17:27Z</time>
      </trkpt>
      <trkpt lat="39.8932870" lon="3.0394130">
        <ele>35.0</ele>
        <time>2018-12-30T15:17:28Z</time>
      </trkpt>
      <trkpt lat="39.8933230" lon="3.0395200">
        <ele>35.2</ele>
        <time>2018-12-30T15:17:29Z</time>
      </trkpt>
      <trkpt lat="39.8933600" lon="3.0396250">
        <ele>35.5</ele>
        <time>2018-12-30T15:17:30Z</time>
      </trkpt>
      <trkpt lat="39.8933970" lon="3.0397300">
        <ele>36.0</ele>
        <time>2018-12-30T15:17:31Z</time>
      </trkpt>
      <trkpt lat="39.8934300" lon="3.0398350">
        <ele>36.5</ele>
        <time>2018-12-30T15:17:32Z</time>
      </trkpt>
      <trkpt lat="39.8934670" lon="3.0399380">
        <ele>36.9</ele>
        <time>2018-12-30T15:17:33Z</time>
      </trkpt>
      <trkpt lat="39.8935020" lon="3.0400420">
        <ele>36.9</ele>
        <time>2018-12-30T15:17:34Z</time>
      </trkpt>
      <trkpt lat="39.8935370" lon="3.0401430">
        <ele>36.9</ele>
        <time>2018-12-30T15:17:35Z</time>
      </trkpt>
      <trkpt lat="39.8935720" lon="3.0402470">
        <ele>36.9</ele>
        <time>2018-12-30T15:17:36Z</time>
      </trkpt>
      <trkpt lat="39.8936080" lon="3.0403480">
        <ele>36.9</ele>
        <time>2018-12-30T15:17:37Z</time>
      </trkpt>
      <trkpt lat="39.8936450" lon="3.0404500">
        <ele>36.9</ele>
        <time>2018-12-30T15:17:38Z</time>
      </trkpt>
      <trkpt lat="39.8936820" lon="3.0405520">
        <ele>36.9</ele>
        <time>2018-12-30T15:17:39Z</time>
      </trkpt>
      <trkpt lat="39.8937170" lon="3.0406550">
        <ele>36.9</ele>
        <time>2018-12-30T15:17:40Z</time>
      </trkpt>
      <trkpt lat="39.8937550" lon="3.0407580">
        <ele>37.0</ele>
        <time>2018-12-30T15:17:41Z</time>
      </trkpt>
      <trkpt lat="39.8937930" lon="3.0408620">
        <ele>37.0</ele>
        <time>2018-12-30T15:17:42Z</time>
      </trkpt>
      <trkpt lat="39.8938300" lon="3.0409630">
        <ele>36.9</ele>
        <time>2018-12-30T15:17:43Z</time>
      </trkpt>
      <trkpt lat="39.8938670" lon="3.0410670">
        <ele>36.9</ele>
        <time>2018-12-30T15:17:44Z</time>
      </trkpt>
      <trkpt lat="39.8939030" lon="3.0411700">
        <ele>36.8</ele>
        <time>2018-12-30T15:17:45Z</time>
      </trkpt>
      <trkpt lat="39.8939380" lon="3.0412730">
        <ele>36.7</ele>
        <time>2018-12-30T15:17:46Z</time>
      </trkpt>
      <trkpt lat="39.8939750" lon="3.0413770">
        <ele>36.6</ele>
        <time>2018-12-30T15:17:47Z</time>
      </trkpt>
      <trkpt lat="39.8940120" lon="3.0414800">
        <ele>36.4</ele>
        <time>2018-12-30T15:17:48Z</time>
      </trkpt>
      <trkpt lat="39.8940500" lon="3.0415820">
        <ele>36.3</ele>
        <time>2018-12-30T15:17:49Z</time>
      </trkpt>
      <trkpt lat="39.8940880" lon="3.0416830">
        <ele>36.2</ele>
        <time>2018-12-30T15:17:50Z</time>
      </trkpt>
      <trkpt lat="39.8941280" lon="3.0417870">
        <ele>36.0</ele>
        <time>2018-12-30T15:17:51Z</time>
      </trkpt>
      <trkpt lat="39.8941650" lon="3.0418900">
        <ele>35.9</ele>
        <time>2018-12-30T15:17:52Z</time>
      </trkpt>
      <trkpt lat="39.8942020" lon="3.0419930">
        <ele>35.8</ele>
        <time>2018-12-30T15:17:53Z</time>
      </trkpt>
      <trkpt lat="39.8942370" lon="3.0420950">
        <ele>35.6</ele>
        <time>2018-12-30T15:17:54Z</time>
      </trkpt>
      <trkpt lat="39.8942730" lon="3.0422000">
        <ele>35.4</ele>
        <time>2018-12-30T15:17:55Z</time>
      </trkpt>
      <trkpt lat="39.8943120" lon="3.0423020">
        <ele>35.3</ele>
        <time>2018-12-30T15:17:56Z</time>
      </trkpt>
      <trkpt lat="39.8943500" lon="3.0424070">
        <ele>35.1</ele>
        <time>2018-12-30T15:17:57Z</time>
      </trkpt>
      <trkpt lat="39.8943870" lon="3.0425100">
        <ele>34.6</ele>
        <time>2018-12-30T15:17:58Z</time>
      </trkpt>
      <trkpt lat="39.8944230" lon="3.0426130">
        <ele>34.3</ele>
        <time>2018-12-30T15:17:59Z</time>
      </trkpt>
      <trkpt lat="39.8944600" lon="3.0427150">
        <ele>33.9</ele>
        <time>2018-12-30T15:18:00Z</time>
      </trkpt>
      <trkpt lat="39.8944980" lon="3.0428170">
        <ele>33.8</ele>
        <time>2018-12-30T15:18:01Z</time>
      </trkpt>
      <trkpt lat="39.8945350" lon="3.0429150">
        <ele>33.7</ele>
        <time>2018-12-30T15:18:02Z</time>
      </trkpt>
      <trkpt lat="39.8945720" lon="3.0430150">
        <ele>33.5</ele>
        <time>2018-12-30T15:18:03Z</time>
      </trkpt>
      <trkpt lat="39.8946070" lon="3.0431130">
        <ele>33.3</ele>
        <time>2018-12-30T15:18:04Z</time>
      </trkpt>
      <trkpt lat="39.8946420" lon="3.0432130">
        <ele>33.1</ele>
        <time>2018-12-30T15:18:05Z</time>
      </trkpt>
      <trkpt lat="39.8946770" lon="3.0433150">
        <ele>32.8</ele>
        <time>2018-12-30T15:18:06Z</time>
      </trkpt>
      <trkpt lat="39.8947120" lon="3.0434130">
        <ele>32.6</ele>
        <time>2018-12-30T15:18:07Z</time>
      </trkpt>
      <trkpt lat="39.8947430" lon="3.0435120">
        <ele>32.3</ele>
        <time>2018-12-30T15:18:08Z</time>
      </trkpt>
      <trkpt lat="39.8947780" lon="3.0436100">
        <ele>31.9</ele>
        <time>2018-12-30T15:18:09Z</time>
      </trkpt>
      <trkpt lat="39.8948130" lon="3.0437100">
        <ele>31.6</ele>
        <time>2018-12-30T15:18:10Z</time>
      </trkpt>
      <trkpt lat="39.8948500" lon="3.0438080">
        <ele>31.1</ele>
        <time>2018-12-30T15:18:11Z</time>
      </trkpt>
      <trkpt lat="39.8948870" lon="3.0439070">
        <ele>30.7</ele>
        <time>2018-12-30T15:18:12Z</time>
      </trkpt>
      <trkpt lat="39.8949220" lon="3.0440080">
        <ele>30.2</ele>
        <time>2018-12-30T15:18:13Z</time>
      </trkpt>
      <trkpt lat="39.8949570" lon="3.0441100">
        <ele>29.6</ele>
        <time>2018-12-30T15:18:14Z</time>
      </trkpt>
      <trkpt lat="39.8949920" lon="3.0442130">
        <ele>29.1</ele>
        <time>2018-12-30T15:18:15Z</time>
      </trkpt>
      <trkpt lat="39.8950280" lon="3.0443200">
        <ele>28.4</ele>
        <time>2018-12-30T15:18:16Z</time>
      </trkpt>
      <trkpt lat="39.8950650" lon="3.0444250">
        <ele>28.1</ele>
        <time>2018-12-30T15:18:17Z</time>
      </trkpt>
      <trkpt lat="39.8951020" lon="3.0445320">
        <ele>27.7</ele>
        <time>2018-12-30T15:18:18Z</time>
      </trkpt>
      <trkpt lat="39.8951370" lon="3.0446380">
        <ele>27.4</ele>
        <time>2018-12-30T15:18:19Z</time>
      </trkpt>
      <trkpt lat="39.8951750" lon="3.0447450">
        <ele>26.6</ele>
        <time>2018-12-30T15:18:20Z</time>
      </trkpt>
      <trkpt lat="39.8952150" lon="3.0448530">
        <ele>26.0</ele>
        <time>2018-12-30T15:18:21Z</time>
      </trkpt>
      <trkpt lat="39.8952550" lon="3.0449630">
        <ele>25.5</ele>
        <time>2018-12-30T15:18:22Z</time>
      </trkpt>
      <trkpt lat="39.8952920" lon="3.0450720">
        <ele>25.1</ele>
        <time>2018-12-30T15:18:23Z</time>
      </trkpt>
      <trkpt lat="39.8953220" lon="3.0451870">
        <ele>24.9</ele>
        <time>2018-12-30T15:18:24Z</time>
      </trkpt>
      <trkpt lat="39.8953600" lon="3.0452980">
        <ele>24.8</ele>
        <time>2018-12-30T15:18:25Z</time>
      </trkpt>
      <trkpt lat="39.8953980" lon="3.0454130">
        <ele>24.7</ele>
        <time>2018-12-30T15:18:26Z</time>
      </trkpt>
      <trkpt lat="39.8954370" lon="3.0455230">
        <ele>24.6</ele>
        <time>2018-12-30T15:18:27Z</time>
      </trkpt>
      <trkpt lat="39.8954720" lon="3.0456420">
        <ele>24.2</ele>
        <time>2018-12-30T15:18:28Z</time>
      </trkpt>
      <trkpt lat="39.8955050" lon="3.0457600">
        <ele>23.9</ele>
        <time>2018-12-30T15:18:29Z</time>
      </trkpt>
      <trkpt lat="39.8955430" lon="3.0458770">
        <ele>23.7</ele>
        <time>2018-12-30T15:18:30Z</time>
      </trkpt>
      <trkpt lat="39.8955830" lon="3.0459930">
        <ele>23.4</ele>
        <time>2018-12-30T15:18:31Z</time>
      </trkpt>
      <trkpt lat="39.8956200" lon="3.0461050">
        <ele>23.2</ele>
        <time>2018-12-30T15:18:32Z</time>
      </trkpt>
      <trkpt lat="39.8956550" lon="3.0462150">
        <ele>23.1</ele>
        <time>2018-12-30T15:18:33Z</time>
      </trkpt>
      <trkpt lat="39.8956920" lon="3.0463300">
        <ele>22.9</ele>
        <time>2018-12-30T15:18:34Z</time>
      </trkpt>
      <trkpt lat="39.8957320" lon="3.0464380">
        <ele>22.7</ele>
        <time>2018-12-30T15:18:35Z</time>
      </trkpt>
      <trkpt lat="39.8957720" lon="3.0465470">
        <ele>22.5</ele>
        <time>2018-12-30T15:18:36Z</time>
      </trkpt>
      <trkpt lat="39.8958070" lon="3.0466530">
        <ele>22.4</ele>
        <time>2018-12-30T15:18:37Z</time>
      </trkpt>
      <trkpt lat="39.8958420" lon="3.0467600">
        <ele>22.2</ele>
        <time>2018-12-30T15:18:38Z</time>
      </trkpt>
      <trkpt lat="39.8958820" lon="3.0468730">
        <ele>22.1</ele>
        <time>2018-12-30T15:18:39Z</time>
      </trkpt>
      <trkpt lat="39.8959180" lon="3.0469900">
        <ele>22.0</ele>
        <time>2018-12-30T15:18:40Z</time>
      </trkpt>
      <trkpt lat="39.8959530" lon="3.0471030">
        <ele>21.9</ele>
        <time>2018-12-30T15:18:41Z</time>
      </trkpt>
      <trkpt lat="39.8959870" lon="3.0472200">
        <ele>21.8</ele>
        <time>2018-12-30T15:18:42Z</time>
      </trkpt>
      <trkpt lat="39.8960200" lon="3.0473280">
        <ele>21.7</ele>
        <time>2018-12-30T15:18:43Z</time>
      </trkpt>
      <trkpt lat="39.8960530" lon="3.0474400">
        <ele>21.7</ele>
        <time>2018-12-30T15:18:44Z</time>
      </trkpt>
      <trkpt lat="39.8960920" lon="3.0475530">
        <ele>21.5</ele>
        <time>2018-12-30T15:18:45Z</time>
      </trkpt>
      <trkpt lat="39.8961270" lon="3.0476630">
        <ele>21.4</ele>
        <time>2018-12-30T15:18:46Z</time>
      </trkpt>
      <trkpt lat="39.8961630" lon="3.0477720">
        <ele>21.3</ele>
        <time>2018-12-30T15:18:47Z</time>
      </trkpt>
      <trkpt lat="39.8962000" lon="3.0478830">
        <ele>21.2</ele>
        <time>2018-12-30T15:18:48Z</time>
      </trkpt>
      <trkpt lat="39.8962300" lon="3.0480050">
        <ele>21.0</ele>
        <time>2018-12-30T15:18:49Z</time>
      </trkpt>
      <trkpt lat="39.8962600" lon="3.0481250">
        <ele>20.9</ele>
        <time>2018-12-30T15:18:50Z</time>
      </trkpt>
      <trkpt lat="39.8962930" lon="3.0482500">
        <ele>20.9</ele>
        <time>2018-12-30T15:18:51Z</time>
      </trkpt>
      <trkpt lat="39.8963250" lon="3.0483730">
        <ele>20.9</ele>
        <time>2018-12-30T15:18:52Z</time>
      </trkpt>
      <trkpt lat="39.8963580" lon="3.0484970">
        <ele>20.9</ele>
        <time>2018-12-30T15:18:53Z</time>
      </trkpt>
      <trkpt lat="39.8963930" lon="3.0486130">
        <ele>20.9</ele>
        <time>2018-12-30T15:18:54Z</time>
      </trkpt>
      <trkpt lat="39.8964320" lon="3.0487270">
        <ele>20.9</ele>
        <time>2018-12-30T15:18:55Z</time>
      </trkpt>
      <trkpt lat="39.8964720" lon="3.0488480">
        <ele>20.9</ele>
        <time>2018-12-30T15:18:56Z</time>
      </trkpt>
      <trkpt lat="39.8965100" lon="3.0489630">
        <ele>20.9</ele>
        <time>2018-12-30T15:18:57Z</time>
      </trkpt>
      <trkpt lat="39.8965480" lon="3.0490820">
        <ele>20.8</ele>
        <time>2018-12-30T15:18:58Z</time>
      </trkpt>
      <trkpt lat="39.8965850" lon="3.0492070">
        <ele>20.5</ele>
        <time>2018-12-30T15:18:59Z</time>
      </trkpt>
      <trkpt lat="39.8966220" lon="3.0493270">
        <ele>20.2</ele>
        <time>2018-12-30T15:19:00Z</time>
      </trkpt>
      <trkpt lat="39.8966580" lon="3.0494450">
        <ele>19.8</ele>
        <time>2018-12-30T15:19:01Z</time>
      </trkpt>
      <trkpt lat="39.8966950" lon="3.0495620">
        <ele>19.6</ele>
        <time>2018-12-30T15:19:02Z</time>
      </trkpt>
      <trkpt lat="39.8967300" lon="3.0496820">
        <ele>19.5</ele>
        <time>2018-12-30T15:19:03Z</time>
      </trkpt>
      <trkpt lat="39.8967680" lon="3.0498020">
        <ele>19.4</ele>
        <time>2018-12-30T15:19:04Z</time>
      </trkpt>
      <trkpt lat="39.8968000" lon="3.0499220">
        <ele>19.3</ele>
        <time>2018-12-30T15:19:05Z</time>
      </trkpt>
      <trkpt lat="39.8968400" lon="3.0500400">
        <ele>19.2</ele>
        <time>2018-12-30T15:19:06Z</time>
      </trkpt>
      <trkpt lat="39.8968780" lon="3.0501580">
        <ele>19.1</ele>
        <time>2018-12-30T15:19:07Z</time>
      </trkpt>
      <trkpt lat="39.8969130" lon="3.0502770">
        <ele>19.0</ele>
        <time>2018-12-30T15:19:08Z</time>
      </trkpt>
      <trkpt lat="39.8969500" lon="3.0503900">
        <ele>19.0</ele>
        <time>2018-12-30T15:19:09Z</time>
      </trkpt>
      <trkpt lat="39.8969830" lon="3.0505070">
        <ele>18.9</ele>
        <time>2018-12-30T15:19:10Z</time>
      </trkpt>
      <trkpt lat="39.8970180" lon="3.0506250">
        <ele>18.8</ele>
        <time>2018-12-30T15:19:11Z</time>
      </trkpt>
      <trkpt lat="39.8970550" lon="3.0507400">
        <ele>18.8</ele>
        <time>2018-12-30T15:19:12Z</time>
      </trkpt>
      <trkpt lat="39.8970880" lon="3.0508570">
        <ele>18.8</ele>
        <time>2018-12-30T15:19:13Z</time>
      </trkpt>
      <trkpt lat="39.8971220" lon="3.0509720">
        <ele>18.8</ele>
        <time>2018-12-30T15:19:14Z</time>
      </trkpt>
      <trkpt lat="39.8971550" lon="3.0510870">
        <ele>18.8</ele>
        <time>2018-12-30T15:19:15Z</time>
      </trkpt>
      <trkpt lat="39.8971900" lon="3.0512030">
        <ele>18.7</ele>
        <time>2018-12-30T15:19:16Z</time>
      </trkpt>
      <trkpt lat="39.8972250" lon="3.0513200">
        <ele>18.7</ele>
        <time>2018-12-30T15:19:17Z</time>
      </trkpt>
      <trkpt lat="39.8972580" lon="3.0514380">
        <ele>18.6</ele>
        <time>2018-12-30T15:19:18Z</time>
      </trkpt>
      <trkpt lat="39.8972950" lon="3.0515550">
        <ele>18.4</ele>
        <time>2018-12-30T15:19:19Z</time>
      </trkpt>
      <trkpt lat="39.8973280" lon="3.0516680">
        <ele>18.3</ele>
        <time>2018-12-30T15:19:20Z</time>
      </trkpt>
      <trkpt lat="39.8973630" lon="3.0517850">
        <ele>18.1</ele>
        <time>2018-12-30T15:19:21Z</time>
      </trkpt>
      <trkpt lat="39.8973980" lon="3.0519020">
        <ele>18.0</ele>
        <time>2018-12-30T15:19:22Z</time>
      </trkpt>
      <trkpt lat="39.8974350" lon="3.0520180">
        <ele>17.9</ele>
        <time>2018-12-30T15:19:23Z</time>
      </trkpt>
      <trkpt lat="39.8974720" lon="3.0521330">
        <ele>17.8</ele>
        <time>2018-12-30T15:19:24Z</time>
      </trkpt>
      <trkpt lat="39.8975070" lon="3.0522480">
        <ele>17.6</ele>
        <time>2018-12-30T15:19:25Z</time>
      </trkpt>
      <trkpt lat="39.8975420" lon="3.0523630">
        <ele>17.6</ele>
        <time>2018-12-30T15:19:26Z</time>
      </trkpt>
      <trkpt lat="39.8975770" lon="3.0524780">
        <ele>17.7</ele>
        <time>2018-12-30T15:19:27Z</time>
      </trkpt>
      <trkpt lat="39.8976130" lon="3.0525930">
        <ele>17.8</ele>
        <time>2018-12-30T15:19:28Z</time>
      </trkpt>
      <trkpt lat="39.8976480" lon="3.0527100">
        <ele>17.9</ele>
        <time>2018-12-30T15:19:29Z</time>
      </trkpt>
      <trkpt lat="39.8976850" lon="3.0528230">
        <ele>18.0</ele>
        <time>2018-12-30T15:19:30Z</time>
      </trkpt>
      <trkpt lat="39.8977180" lon="3.0529370">
        <ele>18.1</ele>
        <time>2018-12-30T15:19:31Z</time>
      </trkpt>
      <trkpt lat="39.8977520" lon="3.0530500">
        <ele>18.3</ele>
        <time>2018-12-30T15:19:32Z</time>
      </trkpt>
      <trkpt lat="39.8977830" lon="3.0531630">
        <ele>18.4</ele>
        <time>2018-12-30T15:19:33Z</time>
      </trkpt>
      <trkpt lat="39.8978170" lon="3.0532770">
        <ele>18.6</ele>
        <time>2018-12-30T15:19:34Z</time>
      </trkpt>
      <trkpt lat="39.8978520" lon="3.0533900">
        <ele>18.5</ele>
        <time>2018-12-30T15:19:35Z</time>
      </trkpt>
      <trkpt lat="39.8978850" lon="3.0535030">
        <ele>18.4</ele>
        <time>2018-12-30T15:19:36Z</time>
      </trkpt>
      <trkpt lat="39.8979180" lon="3.0536170">
        <ele>18.3</ele>
        <time>2018-12-30T15:19:37Z</time>
      </trkpt>
      <trkpt lat="39.8979520" lon="3.0537300">
        <ele>18.1</ele>
        <time>2018-12-30T15:19:38Z</time>
      </trkpt>
      <trkpt lat="39.8979850" lon="3.0538430">
        <ele>17.9</ele>
        <time>2018-12-30T15:19:39Z</time>
      </trkpt>
      <trkpt lat="39.8980200" lon="3.0539550">
        <ele>17.7</ele>
        <time>2018-12-30T15:19:40Z</time>
      </trkpt>
      <trkpt lat="39.8980530" lon="3.0540650">
        <ele>17.5</ele>
        <time>2018-12-30T15:19:41Z</time>
      </trkpt>
      <trkpt lat="39.8980880" lon="3.0541730">
        <ele>17.3</ele>
        <time>2018-12-30T15:19:42Z</time>
      </trkpt>
      <trkpt lat="39.8981230" lon="3.0542800">
        <ele>16.9</ele>
        <time>2018-12-30T15:19:43Z</time>
      </trkpt>
      <trkpt lat="39.8981550" lon="3.0543870">
        <ele>16.4</ele>
        <time>2018-12-30T15:19:44Z</time>
      </trkpt>
      <trkpt lat="39.8981870" lon="3.0544970">
        <ele>15.9</ele>
        <time>2018-12-30T15:19:45Z</time>
      </trkpt>
      <trkpt lat="39.8982200" lon="3.0546070">
        <ele>15.5</ele>
        <time>2018-12-30T15:19:46Z</time>
      </trkpt>
      <trkpt lat="39.8982530" lon="3.0547170">
        <ele>15.1</ele>
        <time>2018-12-30T15:19:47Z</time>
      </trkpt>
      <trkpt lat="39.8982870" lon="3.0548280">
        <ele>14.8</ele>
        <time>2018-12-30T15:19:48Z</time>
      </trkpt>
      <trkpt lat="39.8983220" lon="3.0549420">
        <ele>14.6</ele>
        <time>2018-12-30T15:19:49Z</time>
      </trkpt>
      <trkpt lat="39.8983550" lon="3.0550520">
        <ele>14.6</ele>
        <time>2018-12-30T15:19:50Z</time>
      </trkpt>
      <trkpt lat="39.8983900" lon="3.0551650">
        <ele>14.5</ele>
        <time>2018-12-30T15:19:51Z</time>
      </trkpt>
      <trkpt lat="39.8984230" lon="3.0552780">
        <ele>14.5</ele>
        <time>2018-12-30T15:19:52Z</time>
      </trkpt>
      <trkpt lat="39.8984550" lon="3.0553900">
        <ele>14.5</ele>
        <time>2018-12-30T15:19:53Z</time>
      </trkpt>
      <trkpt lat="39.8984870" lon="3.0555000">
        <ele>14.6</ele>
        <time>2018-12-30T15:19:54Z</time>
      </trkpt>
      <trkpt lat="39.8985130" lon="3.0556120">
        <ele>14.6</ele>
        <time>2018-12-30T15:19:55Z</time>
      </trkpt>
      <trkpt lat="39.8985450" lon="3.0557250">
        <ele>14.7</ele>
        <time>2018-12-30T15:19:56Z</time>
      </trkpt>
      <trkpt lat="39.8985770" lon="3.0558380">
        <ele>14.9</ele>
        <time>2018-12-30T15:19:57Z</time>
      </trkpt>
      <trkpt lat="39.8986100" lon="3.0559480">
        <ele>15.2</ele>
        <time>2018-12-30T15:19:58Z</time>
      </trkpt>
      <trkpt lat="39.8986470" lon="3.0560580">
        <ele>15.6</ele>
        <time>2018-12-30T15:19:59Z</time>
      </trkpt>
      <trkpt lat="39.8986820" lon="3.0561650">
        <ele>15.9</ele>
        <time>2018-12-30T15:20:00Z</time>
      </trkpt>
      <trkpt lat="39.8987080" lon="3.0562700">
        <ele>16.1</ele>
        <time>2018-12-30T15:20:01Z</time>
      </trkpt>
      <trkpt lat="39.8987350" lon="3.0563770">
        <ele>16.2</ele>
        <time>2018-12-30T15:20:02Z</time>
      </trkpt>
      <trkpt lat="39.8987630" lon="3.0564820">
        <ele>16.2</ele>
        <time>2018-12-30T15:20:03Z</time>
      </trkpt>
      <trkpt lat="39.8987930" lon="3.0565850">
        <ele>16.0</ele>
        <time>2018-12-30T15:20:04Z</time>
      </trkpt>
      <trkpt lat="39.8988230" lon="3.0566900">
        <ele>15.8</ele>
        <time>2018-12-30T15:20:05Z</time>
      </trkpt>
      <trkpt lat="39.8988550" lon="3.0567970">
        <ele>15.4</ele>
        <time>2018-12-30T15:20:06Z</time>
      </trkpt>
      <trkpt lat="39.8988870" lon="3.0569030">
        <ele>15.0</ele>
        <time>2018-12-30T15:20:07Z</time>
      </trkpt>
      <trkpt lat="39.8989200" lon="3.0570080">
        <ele>14.7</ele>
        <time>2018-12-30T15:20:08Z</time>
      </trkpt>
      <trkpt lat="39.8989520" lon="3.0571120">
        <ele>14.5</ele>
        <time>2018-12-30T15:20:09Z</time>
      </trkpt>
      <trkpt lat="39.8989830" lon="3.0572130">
        <ele>14.3</ele>
        <time>2018-12-30T15:20:10Z</time>
      </trkpt>
      <trkpt lat="39.8990170" lon="3.0573180">
        <ele>14.2</ele>
        <time>2018-12-30T15:20:11Z</time>
      </trkpt>
      <trkpt lat="39.8990480" lon="3.0574220">
        <ele>14.2</ele>
        <time>2018-12-30T15:20:12Z</time>
      </trkpt>
      <trkpt lat="39.8990800" lon="3.0575250">
        <ele>14.1</ele>
        <time>2018-12-30T15:20:13Z</time>
      </trkpt>
      <trkpt lat="39.8991100" lon="3.0576270">
        <ele>14.1</ele>
        <time>2018-12-30T15:20:14Z</time>
      </trkpt>
      <trkpt lat="39.8991420" lon="3.0577280">
        <ele>14.0</ele>
        <time>2018-12-30T15:20:15Z</time>
      </trkpt>
      <trkpt lat="39.8991720" lon="3.0578300">
        <ele>13.9</ele>
        <time>2018-12-30T15:20:16Z</time>
      </trkpt>
      <trkpt lat="39.8992030" lon="3.0579350">
        <ele>13.9</ele>
        <time>2018-12-30T15:20:17Z</time>
      </trkpt>
      <trkpt lat="39.8992330" lon="3.0580370">
        <ele>13.8</ele>
        <time>2018-12-30T15:20:18Z</time>
      </trkpt>
      <trkpt lat="39.8992650" lon="3.0581380">
        <ele>13.4</ele>
        <time>2018-12-30T15:20:19Z</time>
      </trkpt>
      <trkpt lat="39.8992980" lon="3.0582400">
        <ele>13.1</ele>
        <time>2018-12-30T15:20:20Z</time>
      </trkpt>
      <trkpt lat="39.8993300" lon="3.0583400">
        <ele>12.7</ele>
        <time>2018-12-30T15:20:21Z</time>
      </trkpt>
      <trkpt lat="39.8993620" lon="3.0584420">
        <ele>12.3</ele>
        <time>2018-12-30T15:20:22Z</time>
      </trkpt>
      <trkpt lat="39.8993900" lon="3.0585420">
        <ele>11.9</ele>
        <time>2018-12-30T15:20:23Z</time>
      </trkpt>
      <trkpt lat="39.8994200" lon="3.0586420">
        <ele>11.7</ele>
        <time>2018-12-30T15:20:24Z</time>
      </trkpt>
      <trkpt lat="39.8994480" lon="3.0587420">
        <ele>11.5</ele>
        <time>2018-12-30T15:20:25Z</time>
      </trkpt>
      <trkpt lat="39.8994780" lon="3.0588400">
        <ele>11.3</ele>
        <time>2018-12-30T15:20:26Z</time>
      </trkpt>
      <trkpt lat="39.8995080" lon="3.0589380">
        <ele>11.3</ele>
        <time>2018-12-30T15:20:27Z</time>
      </trkpt>
      <trkpt lat="39.8995380" lon="3.0590380">
        <ele>11.2</ele>
        <time>2018-12-30T15:20:28Z</time>
      </trkpt>
      <trkpt lat="39.8995670" lon="3.0591380">
        <ele>11.2</ele>
        <time>2018-12-30T15:20:29Z</time>
      </trkpt>
      <trkpt lat="39.8995980" lon="3.0592370">
        <ele>11.2</ele>
        <time>2018-12-30T15:20:30Z</time>
      </trkpt>
      <trkpt lat="39.8996280" lon="3.0593330">
        <ele>11.1</ele>
        <time>2018-12-30T15:20:31Z</time>
      </trkpt>
      <trkpt lat="39.8996580" lon="3.0594320">
        <ele>11.0</ele>
        <time>2018-12-30T15:20:32Z</time>
      </trkpt>
      <trkpt lat="39.8996880" lon="3.0595300">
        <ele>10.9</ele>
        <time>2018-12-30T15:20:33Z</time>
      </trkpt>
      <trkpt lat="39.8997200" lon="3.0596280">
        <ele>10.7</ele>
        <time>2018-12-30T15:20:34Z</time>
      </trkpt>
      <trkpt lat="39.8997500" lon="3.0597270">
        <ele>10.5</ele>
        <time>2018-12-30T15:20:35Z</time>
      </trkpt>
      <trkpt lat="39.8997800" lon="3.0598250">
        <ele>10.2</ele>
        <time>2018-12-30T15:20:36Z</time>
      </trkpt>
      <trkpt lat="39.8998120" lon="3.0599250">
        <ele>10.1</ele>
        <time>2018-12-30T15:20:37Z</time>
      </trkpt>
      <trkpt lat="39.8998450" lon="3.0600250">
        <ele>10.1</ele>
        <time>2018-12-30T15:20:38Z</time>
      </trkpt>
      <trkpt lat="39.8998750" lon="3.0601280">
        <ele>10.1</ele>
        <time>2018-12-30T15:20:39Z</time>
      </trkpt>
      <trkpt lat="39.8999070" lon="3.0602330">
        <ele>10.1</ele>
        <time>2018-12-30T15:20:40Z</time>
      </trkpt>
      <trkpt lat="39.8999350" lon="3.0603330">
        <ele>10.1</ele>
        <time>2018-12-30T15:20:41Z</time>
      </trkpt>
      <trkpt lat="39.8999670" lon="3.0604370">
        <ele>10.1</ele>
        <time>2018-12-30T15:20:42Z</time>
      </trkpt>
      <trkpt lat="39.8999980" lon="3.0605430">
        <ele>10.1</ele>
        <time>2018-12-30T15:20:43Z</time>
      </trkpt>
      <trkpt lat="39.9000320" lon="3.0606480">
        <ele>10.1</ele>
        <time>2018-12-30T15:20:44Z</time>
      </trkpt>
      <trkpt lat="39.9000630" lon="3.0607530">
        <ele>10.1</ele>
        <time>2018-12-30T15:20:45Z</time>
      </trkpt>
      <trkpt lat="39.9000950" lon="3.0608580">
        <ele>10.1</ele>
        <time>2018-12-30T15:20:46Z</time>
      </trkpt>
      <trkpt lat="39.9001280" lon="3.0609670">
        <ele>10.2</ele>
        <time>2018-12-30T15:20:47Z</time>
      </trkpt>
      <trkpt lat="39.9001600" lon="3.0610730">
        <ele>10.2</ele>
        <time>2018-12-30T15:20:48Z</time>
      </trkpt>
      <trkpt lat="39.9001920" lon="3.0611780">
        <ele>10.2</ele>
        <time>2018-12-30T15:20:49Z</time>
      </trkpt>
      <trkpt lat="39.9002230" lon="3.0612830">
        <ele>10.2</ele>
        <time>2018-12-30T15:20:50Z</time>
      </trkpt>
      <trkpt lat="39.9002570" lon="3.0613880">
        <ele>10.2</ele>
        <time>2018-12-30T15:20:51Z</time>
      </trkpt>
      <trkpt lat="39.9002880" lon="3.0614920">
        <ele>10.2</ele>
        <time>2018-12-30T15:20:52Z</time>
      </trkpt>
      <trkpt lat="39.9003200" lon="3.0615950">
        <ele>10.1</ele>
        <time>2018-12-30T15:20:53Z</time>
      </trkpt>
      <trkpt lat="39.9003520" lon="3.0617000">
        <ele>10.1</ele>
        <time>2018-12-30T15:20:54Z</time>
      </trkpt>
      <trkpt lat="39.9003800" lon="3.0618050">
        <ele>10.1</ele>
        <time>2018-12-30T15:20:55Z</time>
      </trkpt>
      <trkpt lat="39.9004120" lon="3.0619100">
        <ele>10.1</ele>
        <time>2018-12-30T15:20:56Z</time>
      </trkpt>
      <trkpt lat="39.9004420" lon="3.0620130">
        <ele>10.1</ele>
        <time>2018-12-30T15:20:57Z</time>
      </trkpt>
      <trkpt lat="39.9004750" lon="3.0621180">
        <ele>9.8</ele>
        <time>2018-12-30T15:20:58Z</time>
      </trkpt>
      <trkpt lat="39.9005050" lon="3.0622220">
        <ele>9.7</ele>
        <time>2018-12-30T15:20:59Z</time>
      </trkpt>
      <trkpt lat="39.9005380" lon="3.0623270">
        <ele>9.6</ele>
        <time>2018-12-30T15:21:00Z</time>
      </trkpt>
      <trkpt lat="39.9005700" lon="3.0624300">
        <ele>9.6</ele>
        <time>2018-12-30T15:21:01Z</time>
      </trkpt>
      <trkpt lat="39.9006020" lon="3.0625330">
        <ele>9.5</ele>
        <time>2018-12-30T15:21:02Z</time>
      </trkpt>
      <trkpt lat="39.9006330" lon="3.0626380">
        <ele>9.4</ele>
        <time>2018-12-30T15:21:03Z</time>
      </trkpt>
      <trkpt lat="39.9006650" lon="3.0627450">
        <ele>9.3</ele>
        <time>2018-12-30T15:21:04Z</time>
      </trkpt>
      <trkpt lat="39.9006980" lon="3.0628500">
        <ele>9.3</ele>
        <time>2018-12-30T15:21:05Z</time>
      </trkpt>
      <trkpt lat="39.9007300" lon="3.0629570">
        <ele>9.2</ele>
        <time>2018-12-30T15:21:06Z</time>
      </trkpt>
      <trkpt lat="39.9007620" lon="3.0630630">
        <ele>9.1</ele>
        <time>2018-12-30T15:21:07Z</time>
      </trkpt>
      <trkpt lat="39.9007950" lon="3.0631700">
        <ele>9.1</ele>
        <time>2018-12-30T15:21:08Z</time>
      </trkpt>
      <trkpt lat="39.9008280" lon="3.0632750">
        <ele>9.0</ele>
        <time>2018-12-30T15:21:09Z</time>
      </trkpt>
      <trkpt lat="39.9008600" lon="3.0633780">
        <ele>9.0</ele>
        <time>2018-12-30T15:21:10Z</time>
      </trkpt>
      <trkpt lat="39.9008930" lon="3.0634850">
        <ele>8.9</ele>
        <time>2018-12-30T15:21:11Z</time>
      </trkpt>
      <trkpt lat="39.9009250" lon="3.0635930">
        <ele>8.7</ele>
        <time>2018-12-30T15:21:12Z</time>
      </trkpt>
      <trkpt lat="39.9009550" lon="3.0636980">
        <ele>8.5</ele>
        <time>2018-12-30T15:21:13Z</time>
      </trkpt>
      <trkpt lat="39.9009850" lon="3.0638020">
        <ele>8.4</ele>
        <time>2018-12-30T15:21:14Z</time>
      </trkpt>
      <trkpt lat="39.9010170" lon="3.0639050">
        <ele>8.2</ele>
        <time>2018-12-30T15:21:15Z</time>
      </trkpt>
      <trkpt lat="39.9010470" lon="3.0640100">
        <ele>8.0</ele>
        <time>2018-12-30T15:21:16Z</time>
      </trkpt>
      <trkpt lat="39.9010780" lon="3.0641150">
        <ele>7.6</ele>
        <time>2018-12-30T15:21:17Z</time>
      </trkpt>
      <trkpt lat="39.9011080" lon="3.0642180">
        <ele>7.4</ele>
        <time>2018-12-30T15:21:18Z</time>
      </trkpt>
      <trkpt lat="39.9011400" lon="3.0643200">
        <ele>7.3</ele>
        <time>2018-12-30T15:21:19Z</time>
      </trkpt>
      <trkpt lat="39.9011720" lon="3.0644230">
        <ele>7.2</ele>
        <time>2018-12-30T15:21:20Z</time>
      </trkpt>
      <trkpt lat="39.9012030" lon="3.0645270">
        <ele>7.1</ele>
        <time>2018-12-30T15:21:21Z</time>
      </trkpt>
      <trkpt lat="39.9012330" lon="3.0646320">
        <ele>7.0</ele>
        <time>2018-12-30T15:21:22Z</time>
      </trkpt>
      <trkpt lat="39.9012650" lon="3.0647330">
        <ele>7.0</ele>
        <time>2018-12-30T15:21:23Z</time>
      </trkpt>
      <trkpt lat="39.9012970" lon="3.0648370">
        <ele>6.9</ele>
        <time>2018-12-30T15:21:24Z</time>
      </trkpt>
      <trkpt lat="39.9013280" lon="3.0649380">
        <ele>6.9</ele>
        <time>2018-12-30T15:21:25Z</time>
      </trkpt>
      <trkpt lat="39.9013600" lon="3.0650420">
        <ele>6.9</ele>
        <time>2018-12-30T15:21:26Z</time>
      </trkpt>
      <trkpt lat="39.9013920" lon="3.0651430">
        <ele>6.8</ele>
        <time>2018-12-30T15:21:27Z</time>
      </trkpt>
      <trkpt lat="39.9014220" lon="3.0652480">
        <ele>6.8</ele>
        <time>2018-12-30T15:21:28Z</time>
      </trkpt>
      <trkpt lat="39.9014520" lon="3.0653500">
        <ele>6.8</ele>
        <time>2018-12-30T15:21:29Z</time>
      </trkpt>
      <trkpt lat="39.9014820" lon="3.0654530">
        <ele>6.8</ele>
        <time>2018-12-30T15:21:30Z</time>
      </trkpt>
      <trkpt lat="39.9015120" lon="3.0655570">
        <ele>6.6</ele>
        <time>2018-12-30T15:21:31Z</time>
      </trkpt>
      <trkpt lat="39.9015430" lon="3.0656620">
        <ele>6.4</ele>
        <time>2018-12-30T15:21:32Z</time>
      </trkpt>
      <trkpt lat="39.9015750" lon="3.0657650">
        <ele>6.3</ele>
        <time>2018-12-30T15:21:33Z</time>
      </trkpt>
      <trkpt lat="39.9016070" lon="3.0658680">
        <ele>6.2</ele>
        <time>2018-12-30T15:21:34Z</time>
      </trkpt>
      <trkpt lat="39.9016380" lon="3.0659720">
        <ele>6.1</ele>
        <time>2018-12-30T15:21:35Z</time>
      </trkpt>
      <trkpt lat="39.9016700" lon="3.0660750">
        <ele>6.1</ele>
        <time>2018-12-30T15:21:36Z</time>
      </trkpt>
      <trkpt lat="39.9017020" lon="3.0661780">
        <ele>6.2</ele>
        <time>2018-12-30T15:21:37Z</time>
      </trkpt>
      <trkpt lat="39.9017320" lon="3.0662820">
        <ele>6.3</ele>
        <time>2018-12-30T15:21:38Z</time>
      </trkpt>
      <trkpt lat="39.9017620" lon="3.0663820">
        <ele>6.5</ele>
        <time>2018-12-30T15:21:39Z</time>
      </trkpt>
      <trkpt lat="39.9017920" lon="3.0664830">
        <ele>6.7</ele>
        <time>2018-12-30T15:21:40Z</time>
      </trkpt>
      <trkpt lat="39.9018220" lon="3.0665820">
        <ele>6.8</ele>
        <time>2018-12-30T15:21:41Z</time>
      </trkpt>
      <trkpt lat="39.9018520" lon="3.0666780">
        <ele>6.9</ele>
        <time>2018-12-30T15:21:42Z</time>
      </trkpt>
      <trkpt lat="39.9018820" lon="3.0667770">
        <ele>7.0</ele>
        <time>2018-12-30T15:21:43Z</time>
      </trkpt>
      <trkpt lat="39.9019130" lon="3.0668730">
        <ele>7.1</ele>
        <time>2018-12-30T15:21:44Z</time>
      </trkpt>
      <trkpt lat="39.9019430" lon="3.0669670">
        <ele>7.1</ele>
        <time>2018-12-30T15:21:45Z</time>
      </trkpt>
      <trkpt lat="39.9019730" lon="3.0670630">
        <ele>7.1</ele>
        <time>2018-12-30T15:21:46Z</time>
      </trkpt>
      <trkpt lat="39.9020000" lon="3.0671620">
        <ele>7.5</ele>
        <time>2018-12-30T15:21:47Z</time>
      </trkpt>
      <trkpt lat="39.9020300" lon="3.0672580">
        <ele>7.7</ele>
        <time>2018-12-30T15:21:48Z</time>
      </trkpt>
      <trkpt lat="39.9020600" lon="3.0673550">
        <ele>7.7</ele>
        <time>2018-12-30T15:21:49Z</time>
      </trkpt>
      <trkpt lat="39.9020880" lon="3.0674500">
        <ele>7.7</ele>
        <time>2018-12-30T15:21:50Z</time>
      </trkpt>
      <trkpt lat="39.9021170" lon="3.0675450">
        <ele>7.7</ele>
        <time>2018-12-30T15:21:51Z</time>
      </trkpt>
      <trkpt lat="39.9021470" lon="3.0676400">
        <ele>7.6</ele>
        <time>2018-12-30T15:21:52Z</time>
      </trkpt>
      <trkpt lat="39.9021750" lon="3.0677370">
        <ele>7.4</ele>
        <time>2018-12-30T15:21:53Z</time>
      </trkpt>
      <trkpt lat="39.9022020" lon="3.0678350">
        <ele>7.4</ele>
        <time>2018-12-30T15:21:54Z</time>
      </trkpt>
      <trkpt lat="39.9022300" lon="3.0679320">
        <ele>7.3</ele>
        <time>2018-12-30T15:21:55Z</time>
      </trkpt>
      <trkpt lat="39.9022580" lon="3.0680280">
        <ele>7.2</ele>
        <time>2018-12-30T15:21:56Z</time>
      </trkpt>
      <trkpt lat="39.9022870" lon="3.0681270">
        <ele>7.1</ele>
        <time>2018-12-30T15:21:57Z</time>
      </trkpt>
      <trkpt lat="39.9023130" lon="3.0682200">
        <ele>7.1</ele>
        <time>2018-12-30T15:21:58Z</time>
      </trkpt>
      <trkpt lat="39.9023420" lon="3.0683130">
        <ele>7.1</ele>
        <time>2018-12-30T15:21:59Z</time>
      </trkpt>
      <trkpt lat="39.9023700" lon="3.0684070">
        <ele>7.0</ele>
        <time>2018-12-30T15:22:00Z</time>
      </trkpt>
      <trkpt lat="39.9023980" lon="3.0684970">
        <ele>7.0</ele>
        <time>2018-12-30T15:22:01Z</time>
      </trkpt>
      <trkpt lat="39.9024270" lon="3.0685830">
        <ele>7.0</ele>
        <time>2018-12-30T15:22:02Z</time>
      </trkpt>
      <trkpt lat="39.9024550" lon="3.0686680">
        <ele>6.9</ele>
        <time>2018-12-30T15:22:03Z</time>
      </trkpt>
      <trkpt lat="39.9024820" lon="3.0687500">
        <ele>6.9</ele>
        <time>2018-12-30T15:22:04Z</time>
      </trkpt>
      <trkpt lat="39.9025070" lon="3.0688320">
        <ele>6.9</ele>
        <time>2018-12-30T15:22:05Z</time>
      </trkpt>
      <trkpt lat="39.9025280" lon="3.0689200">
        <ele>6.9</ele>
        <time>2018-12-30T15:22:06Z</time>
      </trkpt>
      <trkpt lat="39.9025500" lon="3.0690080">
        <ele>6.8</ele>
        <time>2018-12-30T15:22:07Z</time>
      </trkpt>
      <trkpt lat="39.9025670" lon="3.0690950">
        <ele>6.5</ele>
        <time>2018-12-30T15:22:08Z</time>
      </trkpt>
      <trkpt lat="39.9025730" lon="3.0691820">
        <ele>6.4</ele>
        <time>2018-12-30T15:22:09Z</time>
      </trkpt>
      <trkpt lat="39.9025700" lon="3.0692680">
        <ele>6.2</ele>
        <time>2018-12-30T15:22:10Z</time>
      </trkpt>
      <trkpt lat="39.9025600" lon="3.0693550">
        <ele>6.0</ele>
        <time>2018-12-30T15:22:11Z</time>
      </trkpt>
      <trkpt lat="39.9025420" lon="3.0694420">
        <ele>5.9</ele>
        <time>2018-12-30T15:22:12Z</time>
      </trkpt>
      <trkpt lat="39.9025200" lon="3.0695270">
        <ele>5.9</ele>
        <time>2018-12-30T15:22:13Z</time>
      </trkpt>
      <trkpt lat="39.9024920" lon="3.0696100">
        <ele>5.8</ele>
        <time>2018-12-30T15:22:14Z</time>
      </trkpt>
      <trkpt lat="39.9024530" lon="3.0696870">
        <ele>5.8</ele>
        <time>2018-12-30T15:22:15Z</time>
      </trkpt>
      <trkpt lat="39.9024080" lon="3.0697550">
        <ele>5.8</ele>
        <time>2018-12-30T15:22:16Z</time>
      </trkpt>
      <trkpt lat="39.9023580" lon="3.0698120">
        <ele>5.7</ele>
        <time>2018-12-30T15:22:17Z</time>
      </trkpt>
      <trkpt lat="39.9023050" lon="3.0698680">
        <ele>5.7</ele>
        <time>2018-12-30T15:22:18Z</time>
      </trkpt>
      <trkpt lat="39.9022520" lon="3.0699230">
        <ele>5.7</ele>
        <time>2018-12-30T15:22:19Z</time>
      </trkpt>
      <trkpt lat="39.9022000" lon="3.0699780">
        <ele>5.7</ele>
        <time>2018-12-30T15:22:20Z</time>
      </trkpt>
      <trkpt lat="39.9021430" lon="3.0700320">
        <ele>5.7</ele>
        <time>2018-12-30T15:22:21Z</time>
      </trkpt>
      <trkpt lat="39.9020900" lon="3.0700850">
        <ele>5.8</ele>
        <time>2018-12-30T15:22:22Z</time>
      </trkpt>
      <trkpt lat="39.9020370" lon="3.0701380">
        <ele>5.8</ele>
        <time>2018-12-30T15:22:23Z</time>
      </trkpt>
      <trkpt lat="39.9019880" lon="3.0701880">
        <ele>5.8</ele>
        <time>2018-12-30T15:22:24Z</time>
      </trkpt>
      <trkpt lat="39.9019430" lon="3.0702420">
        <ele>5.9</ele>
        <time>2018-12-30T15:22:25Z</time>
      </trkpt>
      <trkpt lat="39.9018970" lon="3.0702930">
        <ele>6.0</ele>
        <time>2018-12-30T15:22:26Z</time>
      </trkpt>
      <trkpt lat="39.9018480" lon="3.0703520">
        <ele>6.2</ele>
        <time>2018-12-30T15:22:27Z</time>
      </trkpt>
      <trkpt lat="39.9018020" lon="3.0704150">
        <ele>6.3</ele>
        <time>2018-12-30T15:22:28Z</time>
      </trkpt>
      <trkpt lat="39.9017570" lon="3.0704830">
        <ele>6.4</ele>
        <time>2018-12-30T15:22:29Z</time>
      </trkpt>
      <trkpt lat="39.9017130" lon="3.0705580">
        <ele>6.6</ele>
        <time>2018-12-30T15:22:30Z</time>
      </trkpt>
      <trkpt lat="39.9016720" lon="3.0706350">
        <ele>6.6</ele>
        <time>2018-12-30T15:22:31Z</time>
      </trkpt>
      <trkpt lat="39.9016300" lon="3.0707130">
        <ele>6.7</ele>
        <time>2018-12-30T15:22:32Z</time>
      </trkpt>
      <trkpt lat="39.9015870" lon="3.0707930">
        <ele>6.7</ele>
        <time>2018-12-30T15:22:33Z</time>
      </trkpt>
      <trkpt lat="39.9015430" lon="3.0708720">
        <ele>6.8</ele>
        <time>2018-12-30T15:22:34Z</time>
      </trkpt>
      <trkpt lat="39.9015000" lon="3.0709500">
        <ele>6.9</ele>
        <time>2018-12-30T15:22:35Z</time>
      </trkpt>
      <trkpt lat="39.9014550" lon="3.0710280">
        <ele>7.0</ele>
        <time>2018-12-30T15:22:36Z</time>
      </trkpt>
      <trkpt lat="39.9014100" lon="3.0711080">
        <ele>7.1</ele>
        <time>2018-12-30T15:22:37Z</time>
      </trkpt>
      <trkpt lat="39.9013680" lon="3.0711900">
        <ele>7.2</ele>
        <time>2018-12-30T15:22:38Z</time>
      </trkpt>
      <trkpt lat="39.9013270" lon="3.0712720">
        <ele>7.3</ele>
        <time>2018-12-30T15:22:39Z</time>
      </trkpt>
      <trkpt lat="39.9012830" lon="3.0713500">
        <ele>7.3</ele>
        <time>2018-12-30T15:22:40Z</time>
      </trkpt>
      <trkpt lat="39.9012380" lon="3.0714300">
        <ele>7.4</ele>
        <time>2018-12-30T15:22:41Z</time>
      </trkpt>
      <trkpt lat="39.9011920" lon="3.0715080">
        <ele>7.4</ele>
        <time>2018-12-30T15:22:42Z</time>
      </trkpt>
      <trkpt lat="39.9011420" lon="3.0715820">
        <ele>7.4</ele>
        <time>2018-12-30T15:22:43Z</time>
      </trkpt>
      <trkpt lat="39.9010820" lon="3.0716620">
        <ele>7.4</ele>
        <time>2018-12-30T15:22:44Z</time>
      </trkpt>
      <trkpt lat="39.9010330" lon="3.0717380">
        <ele>7.4</ele>
        <time>2018-12-30T15:22:45Z</time>
      </trkpt>
      <trkpt lat="39.9009850" lon="3.0718170">
        <ele>7.4</ele>
        <time>2018-12-30T15:22:46Z</time>
      </trkpt>
      <trkpt lat="39.9009400" lon="3.0719000">
        <ele>7.4</ele>
        <time>2018-12-30T15:22:47Z</time>
      </trkpt>
      <trkpt lat="39.9008920" lon="3.0719820">
        <ele>7.4</ele>
        <time>2018-12-30T15:22:48Z</time>
      </trkpt>
      <trkpt lat="39.9008450" lon="3.0720620">
        <ele>7.4</ele>
        <time>2018-12-30T15:22:49Z</time>
      </trkpt>
      <trkpt lat="39.9007970" lon="3.0721400">
        <ele>7.4</ele>
        <time>2018-12-30T15:22:50Z</time>
      </trkpt>
      <trkpt lat="39.9007500" lon="3.0722180">
        <ele>7.4</ele>
        <time>2018-12-30T15:22:51Z</time>
      </trkpt>
      <trkpt lat="39.9007030" lon="3.0722950">
        <ele>7.4</ele>
        <time>2018-12-30T15:22:52Z</time>
      </trkpt>
      <trkpt lat="39.9006550" lon="3.0723720">
        <ele>7.4</ele>
        <time>2018-12-30T15:22:53Z</time>
      </trkpt>
      <trkpt lat="39.9006070" lon="3.0724470">
        <ele>7.4</ele>
        <time>2018-12-30T15:22:54Z</time>
      </trkpt>
      <trkpt lat="39.9005600" lon="3.0725250">
        <ele>7.4</ele>
        <time>2018-12-30T15:22:55Z</time>
      </trkpt>
      <trkpt lat="39.9005130" lon="3.0726070">
        <ele>7.4</ele>
        <time>2018-12-30T15:22:56Z</time>
      </trkpt>
      <trkpt lat="39.9004680" lon="3.0726880">
        <ele>7.4</ele>
        <time>2018-12-30T15:22:57Z</time>
      </trkpt>
      <trkpt lat="39.9004200" lon="3.0727670">
        <ele>7.4</ele>
        <time>2018-12-30T15:22:58Z</time>
      </trkpt>
      <trkpt lat="39.9003720" lon="3.0728450">
        <ele>7.5</ele>
        <time>2018-12-30T15:22:59Z</time>
      </trkpt>
      <trkpt lat="39.9003220" lon="3.0729220">
        <ele>7.5</ele>
        <time>2018-12-30T15:23:00Z</time>
      </trkpt>
      <trkpt lat="39.9002770" lon="3.0729970">
        <ele>7.5</ele>
        <time>2018-12-30T15:23:01Z</time>
      </trkpt>
      <trkpt lat="39.9002330" lon="3.0730670">
        <ele>7.6</ele>
        <time>2018-12-30T15:23:02Z</time>
      </trkpt>
      <trkpt lat="39.9001920" lon="3.0731350">
        <ele>7.7</ele>
        <time>2018-12-30T15:23:03Z</time>
      </trkpt>
      <trkpt lat="39.9001480" lon="3.0732070">
        <ele>7.7</ele>
        <time>2018-12-30T15:23:04Z</time>
      </trkpt>
      <trkpt lat="39.9001100" lon="3.0732750">
        <ele>7.7</ele>
        <time>2018-12-30T15:23:05Z</time>
      </trkpt>
      <trkpt lat="39.9000720" lon="3.0733400">
        <ele>7.8</ele>
        <time>2018-12-30T15:23:06Z</time>
      </trkpt>
      <trkpt lat="39.9000370" lon="3.0733980">
        <ele>7.8</ele>
        <time>2018-12-30T15:23:07Z</time>
      </trkpt>
      <trkpt lat="39.8999920" lon="3.0734430">
        <ele>7.8</ele>
        <time>2018-12-30T15:23:08Z</time>
      </trkpt>
      <trkpt lat="39.8999370" lon="3.0734720">
        <ele>7.9</ele>
        <time>2018-12-30T15:23:09Z</time>
      </trkpt>
      <trkpt lat="39.8998700" lon="3.0734970">
        <ele>8.1</ele>
        <time>2018-12-30T15:23:10Z</time>
      </trkpt>
      <trkpt lat="39.8998200" lon="3.0735170">
        <ele>8.1</ele>
        <time>2018-12-30T15:23:11Z</time>
      </trkpt>
      <trkpt lat="39.8997670" lon="3.0735400">
        <ele>8.2</ele>
        <time>2018-12-30T15:23:12Z</time>
      </trkpt>
      <trkpt lat="39.8997130" lon="3.0735620">
        <ele>8.2</ele>
        <time>2018-12-30T15:23:13Z</time>
      </trkpt>
      <trkpt lat="39.8996520" lon="3.0735830">
        <ele>8.3</ele>
        <time>2018-12-30T15:23:14Z</time>
      </trkpt>
      <trkpt lat="39.8995850" lon="3.0736020">
        <ele>8.3</ele>
        <time>2018-12-30T15:23:15Z</time>
      </trkpt>
      <trkpt lat="39.8995150" lon="3.0736120">
        <ele>8.4</ele>
        <time>2018-12-30T15:23:16Z</time>
      </trkpt>
      <trkpt lat="39.8994400" lon="3.0736070">
        <ele>8.5</ele>
        <time>2018-12-30T15:23:17Z</time>
      </trkpt>
      <trkpt lat="39.8993630" lon="3.0735950">
        <ele>8.5</ele>
        <time>2018-12-30T15:23:18Z</time>
      </trkpt>
      <trkpt lat="39.8992880" lon="3.0735830">
        <ele>8.6</ele>
        <time>2018-12-30T15:23:19Z</time>
      </trkpt>
      <trkpt lat="39.8992120" lon="3.0735720">
        <ele>8.6</ele>
        <time>2018-12-30T15:23:20Z</time>
      </trkpt>
      <trkpt lat="39.8991330" lon="3.0735580">
        <ele>8.7</ele>
        <time>2018-12-30T15:23:21Z</time>
      </trkpt>
      <trkpt lat="39.8990530" lon="3.0735480">
        <ele>8.7</ele>
        <time>2018-12-30T15:23:22Z</time>
      </trkpt>
      <trkpt lat="39.8989720" lon="3.0735430">
        <ele>8.7</ele>
        <time>2018-12-30T15:23:23Z</time>
      </trkpt>
      <trkpt lat="39.8988930" lon="3.0735380">
        <ele>8.7</ele>
        <time>2018-12-30T15:23:24Z</time>
      </trkpt>
      <trkpt lat="39.8988120" lon="3.0735370">
        <ele>8.6</ele>
        <time>2018-12-30T15:23:25Z</time>
      </trkpt>
      <trkpt lat="39.8987300" lon="3.0735350">
        <ele>8.6</ele>
        <time>2018-12-30T15:23:26Z</time>
      </trkpt>
      <trkpt lat="39.8986500" lon="3.0735300">
        <ele>8.4</ele>
        <time>2018-12-30T15:23:27Z</time>
      </trkpt>
      <trkpt lat="39.8985700" lon="3.0735270">
        <ele>8.3</ele>
        <time>2018-12-30T15:23:28Z</time>
      </trkpt>
      <trkpt lat="39.8984900" lon="3.0735230">
        <ele>8.1</ele>
        <time>2018-12-30T15:23:29Z</time>
      </trkpt>
      <trkpt lat="39.8984030" lon="3.0735220">
        <ele>8.0</ele>
        <time>2018-12-30T15:23:30Z</time>
      </trkpt>
      <trkpt lat="39.8983300" lon="3.0735180">
        <ele>7.8</ele>
        <time>2018-12-30T15:23:31Z</time>
      </trkpt>
      <trkpt lat="39.8982500" lon="3.0735150">
        <ele>7.7</ele>
        <time>2018-12-30T15:23:32Z</time>
      </trkpt>
      <trkpt lat="39.8981720" lon="3.0735100">
        <ele>7.6</ele>
        <time>2018-12-30T15:23:33Z</time>
      </trkpt>
      <trkpt lat="39.8980930" lon="3.0735070">
        <ele>7.5</ele>
        <time>2018-12-30T15:23:34Z</time>
      </trkpt>
      <trkpt lat="39.8980150" lon="3.0735030">
        <ele>7.5</ele>
        <time>2018-12-30T15:23:35Z</time>
      </trkpt>
      <trkpt lat="39.8979350" lon="3.0735030">
        <ele>7.4</ele>
        <time>2018-12-30T15:23:36Z</time>
      </trkpt>
      <trkpt lat="39.8978550" lon="3.0735020">
        <ele>7.3</ele>
        <time>2018-12-30T15:23:37Z</time>
      </trkpt>
      <trkpt lat="39.8977750" lon="3.0735030">
        <ele>7.3</ele>
        <time>2018-12-30T15:23:38Z</time>
      </trkpt>
      <trkpt lat="39.8976970" lon="3.0735030">
        <ele>7.1</ele>
        <time>2018-12-30T15:23:39Z</time>
      </trkpt>
      <trkpt lat="39.8976180" lon="3.0735070">
        <ele>7.0</ele>
        <time>2018-12-30T15:23:40Z</time>
      </trkpt>
      <trkpt lat="39.8975400" lon="3.0735120">
        <ele>7.0</ele>
        <time>2018-12-30T15:23:41Z</time>
      </trkpt>
      <trkpt lat="39.8974630" lon="3.0735170">
        <ele>6.9</ele>
        <time>2018-12-30T15:23:42Z</time>
      </trkpt>
      <trkpt lat="39.8973870" lon="3.0735200">
        <ele>6.9</ele>
        <time>2018-12-30T15:23:43Z</time>
      </trkpt>
      <trkpt lat="39.8973030" lon="3.0735250">
        <ele>6.8</ele>
        <time>2018-12-30T15:23:44Z</time>
      </trkpt>
      <trkpt lat="39.8972230" lon="3.0735300">
        <ele>6.8</ele>
        <time>2018-12-30T15:23:45Z</time>
      </trkpt>
      <trkpt lat="39.8971450" lon="3.0735370">
        <ele>6.7</ele>
        <time>2018-12-30T15:23:46Z</time>
      </trkpt>
      <trkpt lat="39.8970670" lon="3.0735420">
        <ele>6.6</ele>
        <time>2018-12-30T15:23:47Z</time>
      </trkpt>
      <trkpt lat="39.8969870" lon="3.0735500">
        <ele>6.5</ele>
        <time>2018-12-30T15:23:48Z</time>
      </trkpt>
      <trkpt lat="39.8969080" lon="3.0735570">
        <ele>6.5</ele>
        <time>2018-12-30T15:23:49Z</time>
      </trkpt>
      <trkpt lat="39.8968320" lon="3.0735620">
        <ele>6.5</ele>
        <time>2018-12-30T15:23:50Z</time>
      </trkpt>
      <trkpt lat="39.8967550" lon="3.0735670">
        <ele>6.5</ele>
        <time>2018-12-30T15:23:51Z</time>
      </trkpt>
      <trkpt lat="39.8966770" lon="3.0735730">
        <ele>6.5</ele>
        <time>2018-12-30T15:23:52Z</time>
      </trkpt>
      <trkpt lat="39.8966000" lon="3.0735820">
        <ele>6.5</ele>
        <time>2018-12-30T15:23:53Z</time>
      </trkpt>
      <trkpt lat="39.8965230" lon="3.0735870">
        <ele>6.5</ele>
        <time>2018-12-30T15:23:54Z</time>
      </trkpt>
      <trkpt lat="39.8964450" lon="3.0735900">
        <ele>6.5</ele>
        <time>2018-12-30T15:23:55Z</time>
      </trkpt>
      <trkpt lat="39.8963700" lon="3.0735870">
        <ele>6.4</ele>
        <time>2018-12-30T15:23:56Z</time>
      </trkpt>
      <trkpt lat="39.8962930" lon="3.0735680">
        <ele>6.4</ele>
        <time>2018-12-30T15:23:57Z</time>
      </trkpt>
      <trkpt lat="39.8962220" lon="3.0735380">
        <ele>6.4</ele>
        <time>2018-12-30T15:23:58Z</time>
      </trkpt>
      <trkpt lat="39.8961450" lon="3.0735000">
        <ele>6.3</ele>
        <time>2018-12-30T15:23:59Z</time>
      </trkpt>
      <trkpt lat="39.8960730" lon="3.0734750">
        <ele>6.2</ele>
        <time>2018-12-30T15:24:00Z</time>
      </trkpt>
      <trkpt lat="39.8960000" lon="3.0734730">
        <ele>6.2</ele>
        <time>2018-12-30T15:24:01Z</time>
      </trkpt>
      <trkpt lat="39.8959300" lon="3.0734970">
        <ele>6.0</ele>
        <time>2018-12-30T15:24:02Z</time>
      </trkpt>
      <trkpt lat="39.8958620" lon="3.0735380">
        <ele>5.8</ele>
        <time>2018-12-30T15:24:03Z</time>
      </trkpt>
      <trkpt lat="39.8957930" lon="3.0735820">
        <ele>5.4</ele>
        <time>2018-12-30T15:24:04Z</time>
      </trkpt>
      <trkpt lat="39.8957220" lon="3.0736120">
        <ele>5.3</ele>
        <time>2018-12-30T15:24:05Z</time>
      </trkpt>
      <trkpt lat="39.8956450" lon="3.0736250">
        <ele>5.3</ele>
        <time>2018-12-30T15:24:06Z</time>
      </trkpt>
      <trkpt lat="39.8955670" lon="3.0736280">
        <ele>5.3</ele>
        <time>2018-12-30T15:24:07Z</time>
      </trkpt>
      <trkpt lat="39.8954920" lon="3.0736300">
        <ele>5.3</ele>
        <time>2018-12-30T15:24:08Z</time>
      </trkpt>
      <trkpt lat="39.8954130" lon="3.0736330">
        <ele>5.3</ele>
        <time>2018-12-30T15:24:09Z</time>
      </trkpt>
      <trkpt lat="39.8953350" lon="3.0736370">
        <ele>5.3</ele>
        <time>2018-12-30T15:24:10Z</time>
      </trkpt>
      <trkpt lat="39.8952580" lon="3.0736370">
        <ele>5.3</ele>
        <time>2018-12-30T15:24:11Z</time>
      </trkpt>
      <trkpt lat="39.8951780" lon="3.0736380">
        <ele>5.3</ele>
        <time>2018-12-30T15:24:12Z</time>
      </trkpt>
      <trkpt lat="39.8951000" lon="3.0736400">
        <ele>5.3</ele>
        <time>2018-12-30T15:24:13Z</time>
      </trkpt>
      <trkpt lat="39.8950230" lon="3.0736420">
        <ele>5.3</ele>
        <time>2018-12-30T15:24:14Z</time>
      </trkpt>
      <trkpt lat="39.8949450" lon="3.0736430">
        <ele>5.3</ele>
        <time>2018-12-30T15:24:15Z</time>
      </trkpt>
      <trkpt lat="39.8948670" lon="3.0736450">
        <ele>5.3</ele>
        <time>2018-12-30T15:24:16Z</time>
      </trkpt>
      <trkpt lat="39.8947900" lon="3.0736450">
        <ele>5.3</ele>
        <time>2018-12-30T15:24:17Z</time>
      </trkpt>
      <trkpt lat="39.8947120" lon="3.0736470">
        <ele>5.3</ele>
        <time>2018-12-30T15:24:18Z</time>
      </trkpt>
      <trkpt lat="39.8946350" lon="3.0736480">
        <ele>5.3</ele>
        <time>2018-12-30T15:24:19Z</time>
      </trkpt>
      <trkpt lat="39.8945580" lon="3.0736470">
        <ele>5.3</ele>
        <time>2018-12-30T15:24:20Z</time>
      </trkpt>
      <trkpt lat="39.8944820" lon="3.0736470">
        <ele>5.3</ele>
        <time>2018-12-30T15:24:21Z</time>
      </trkpt>
      <trkpt lat="39.8944050" lon="3.0736470">
        <ele>5.3</ele>
        <time>2018-12-30T15:24:22Z</time>
      </trkpt>
      <trkpt lat="39.8943280" lon="3.0736480">
        <ele>5.3</ele>
        <time>2018-12-30T15:24:23Z</time>
      </trkpt>
      <trkpt lat="39.8942520" lon="3.0736480">
        <ele>5.3</ele>
        <time>2018-12-30T15:24:24Z</time>
      </trkpt>
      <trkpt lat="39.8941750" lon="3.0736480">
        <ele>5.3</ele>
        <time>2018-12-30T15:24:25Z</time>
      </trkpt>
      <trkpt lat="39.8940980" lon="3.0736480">
        <ele>5.3</ele>
        <time>2018-12-30T15:24:26Z</time>
      </trkpt>
      <trkpt lat="39.8940230" lon="3.0736500">
        <ele>5.3</ele>
        <time>2018-12-30T15:24:27Z</time>
      </trkpt>
      <trkpt lat="39.8939480" lon="3.0736530">
        <ele>5.3</ele>
        <time>2018-12-30T15:24:28Z</time>
      </trkpt>
      <trkpt lat="39.8938730" lon="3.0736550">
        <ele>5.3</ele>
        <time>2018-12-30T15:24:29Z</time>
      </trkpt>
      <trkpt lat="39.8937970" lon="3.0736570">
        <ele>5.3</ele>
        <time>2018-12-30T15:24:30Z</time>
      </trkpt>
      <trkpt lat="39.8937220" lon="3.0736570">
        <ele>5.3</ele>
        <time>2018-12-30T15:24:31Z</time>
      </trkpt>
      <trkpt lat="39.8936470" lon="3.0736550">
        <ele>5.3</ele>
        <time>2018-12-30T15:24:32Z</time>
      </trkpt>
      <trkpt lat="39.8935700" lon="3.0736550">
        <ele>5.3</ele>
        <time>2018-12-30T15:24:33Z</time>
      </trkpt>
      <trkpt lat="39.8934950" lon="3.0736570">
        <ele>5.3</ele>
        <time>2018-12-30T15:24:34Z</time>
      </trkpt>
      <trkpt lat="39.8934200" lon="3.0736570">
        <ele>5.3</ele>
        <time>2018-12-30T15:24:35Z</time>
      </trkpt>
      <trkpt lat="39.8933450" lon="3.0736580">
        <ele>5.3</ele>
        <time>2018-12-30T15:24:36Z</time>
      </trkpt>
      <trkpt lat="39.8932700" lon="3.0736580">
        <ele>5.3</ele>
        <time>2018-12-30T15:24:37Z</time>
      </trkpt>
      <trkpt lat="39.8931950" lon="3.0736600">
        <ele>5.3</ele>
        <time>2018-12-30T15:24:38Z</time>
      </trkpt>
      <trkpt lat="39.8931200" lon="3.0736600">
        <ele>5.3</ele>
        <time>2018-12-30T15:24:39Z</time>
      </trkpt>
      <trkpt lat="39.8930450" lon="3.0736600">
        <ele>5.3</ele>
        <time>2018-12-30T15:24:40Z</time>
      </trkpt>
      <trkpt lat="39.8929700" lon="3.0736580">
        <ele>5.3</ele>
        <time>2018-12-30T15:24:41Z</time>
      </trkpt>
      <trkpt lat="39.8928970" lon="3.0736580">
        <ele>5.3</ele>
        <time>2018-12-30T15:24:42Z</time>
      </trkpt>
      <trkpt lat="39.8928230" lon="3.0736570">
        <ele>5.3</ele>
        <time>2018-12-30T15:24:43Z</time>
      </trkpt>
      <trkpt lat="39.8927500" lon="3.0736580">
        <ele>5.3</ele>
        <time>2018-12-30T15:24:44Z</time>
      </trkpt>
      <trkpt lat="39.8926750" lon="3.0736580">
        <ele>5.3</ele>
        <time>2018-12-30T15:24:45Z</time>
      </trkpt>
      <trkpt lat="39.8926000" lon="3.0736600">
        <ele>5.2</ele>
        <time>2018-12-30T15:24:46Z</time>
      </trkpt>
      <trkpt lat="39.8925270" lon="3.0736620">
        <ele>5.1</ele>
        <time>2018-12-30T15:24:47Z</time>
      </trkpt>
      <trkpt lat="39.8924530" lon="3.0736630">
        <ele>4.9</ele>
        <time>2018-12-30T15:24:48Z</time>
      </trkpt>
      <trkpt lat="39.8923800" lon="3.0736670">
        <ele>4.6</ele>
        <time>2018-12-30T15:24:49Z</time>
      </trkpt>
      <trkpt lat="39.8923070" lon="3.0736720">
        <ele>4.3</ele>
        <time>2018-12-30T15:24:50Z</time>
      </trkpt>
      <trkpt lat="39.8922330" lon="3.0736680">
        <ele>4.0</ele>
        <time>2018-12-30T15:24:51Z</time>
      </trkpt>
      <trkpt lat="39.8921600" lon="3.0736670">
        <ele>3.8</ele>
        <time>2018-12-30T15:24:52Z</time>
      </trkpt>
      <trkpt lat="39.8920870" lon="3.0736670">
        <ele>3.6</ele>
        <time>2018-12-30T15:24:53Z</time>
      </trkpt>
      <trkpt lat="39.8920130" lon="3.0736670">
        <ele>3.5</ele>
        <time>2018-12-30T15:24:54Z</time>
      </trkpt>
      <trkpt lat="39.8919400" lon="3.0736700">
        <ele>3.4</ele>
        <time>2018-12-30T15:24:55Z</time>
      </trkpt>
      <trkpt lat="39.8918670" lon="3.0736720">
        <ele>3.4</ele>
        <time>2018-12-30T15:24:56Z</time>
      </trkpt>
      <trkpt lat="39.8917930" lon="3.0736730">
        <ele>3.4</ele>
        <time>2018-12-30T15:24:57Z</time>
      </trkpt>
      <trkpt lat="39.8917200" lon="3.0736750">
        <ele>3.4</ele>
        <time>2018-12-30T15:24:58Z</time>
      </trkpt>
      <trkpt lat="39.8916470" lon="3.0736770">
        <ele>3.4</ele>
        <time>2018-12-30T15:24:59Z</time>
      </trkpt>
      <trkpt lat="39.8915730" lon="3.0736780">
        <ele>3.4</ele>
        <time>2018-12-30T15:25:00Z</time>
      </trkpt>
      <trkpt lat="39.8915000" lon="3.0736800">
        <ele>3.4</ele>
        <time>2018-12-30T15:25:01Z</time>
      </trkpt>
      <trkpt lat="39.8914280" lon="3.0736830">
        <ele>3.4</ele>
        <time>2018-12-30T15:25:02Z</time>
      </trkpt>
      <trkpt lat="39.8913570" lon="3.0736850">
        <ele>3.4</ele>
        <time>2018-12-30T15:25:03Z</time>
      </trkpt>
      <trkpt lat="39.8912830" lon="3.0736870">
        <ele>3.4</ele>
        <time>2018-12-30T15:25:04Z</time>
      </trkpt>
      <trkpt lat="39.8912120" lon="3.0736880">
        <ele>3.4</ele>
        <time>2018-12-30T15:25:05Z</time>
      </trkpt>
      <trkpt lat="39.8911380" lon="3.0736920">
        <ele>3.4</ele>
        <time>2018-12-30T15:25:06Z</time>
      </trkpt>
      <trkpt lat="39.8910630" lon="3.0736930">
        <ele>3.4</ele>
        <time>2018-12-30T15:25:07Z</time>
      </trkpt>
      <trkpt lat="39.8909850" lon="3.0736970">
        <ele>3.4</ele>
        <time>2018-12-30T15:25:08Z</time>
      </trkpt>
      <trkpt lat="39.8909050" lon="3.0736950">
        <ele>3.3</ele>
        <time>2018-12-30T15:25:09Z</time>
      </trkpt>
      <trkpt lat="39.8908230" lon="3.0736880">
        <ele>3.2</ele>
        <time>2018-12-30T15:25:10Z</time>
      </trkpt>
      <trkpt lat="39.8907470" lon="3.0736720">
        <ele>3.2</ele>
        <time>2018-12-30T15:25:11Z</time>
      </trkpt>
      <trkpt lat="39.8906720" lon="3.0736450">
        <ele>3.1</ele>
        <time>2018-12-30T15:25:12Z</time>
      </trkpt>
      <trkpt lat="39.8906000" lon="3.0736100">
        <ele>3.0</ele>
        <time>2018-12-30T15:25:13Z</time>
      </trkpt>
      <trkpt lat="39.8905320" lon="3.0735720">
        <ele>3.0</ele>
        <time>2018-12-30T15:25:14Z</time>
      </trkpt>
      <trkpt lat="39.8904650" lon="3.0735350">
        <ele>3.0</ele>
        <time>2018-12-30T15:25:15Z</time>
      </trkpt>
      <trkpt lat="39.8903930" lon="3.0735080">
        <ele>2.9</ele>
        <time>2018-12-30T15:25:16Z</time>
      </trkpt>
      <trkpt lat="39.8903220" lon="3.0735000">
        <ele>2.8</ele>
        <time>2018-12-30T15:25:17Z</time>
      </trkpt>
      <trkpt lat="39.8902520" lon="3.0735150">
        <ele>2.7</ele>
        <time>2018-12-30T15:25:18Z</time>
      </trkpt>
      <trkpt lat="39.8901880" lon="3.0735570">
        <ele>2.6</ele>
        <time>2018-12-30T15:25:19Z</time>
      </trkpt>
      <trkpt lat="39.8901370" lon="3.0736230">
        <ele>2.5</ele>
        <time>2018-12-30T15:25:20Z</time>
      </trkpt>
      <trkpt lat="39.8901070" lon="3.0737050">
        <ele>2.6</ele>
        <time>2018-12-30T15:25:21Z</time>
      </trkpt>
      <trkpt lat="39.8901020" lon="3.0738000">
        <ele>2.7</ele>
        <time>2018-12-30T15:25:22Z</time>
      </trkpt>
      <trkpt lat="39.8901120" lon="3.0738950">
        <ele>2.8</ele>
        <time>2018-12-30T15:25:23Z</time>
      </trkpt>
      <trkpt lat="39.8901370" lon="3.0739800">
        <ele>3.0</ele>
        <time>2018-12-30T15:25:24Z</time>
      </trkpt>
      <trkpt lat="39.8901730" lon="3.0740580">
        <ele>3.1</ele>
        <time>2018-12-30T15:25:25Z</time>
      </trkpt>
      <trkpt lat="39.8902080" lon="3.0741350">
        <ele>3.5</ele>
        <time>2018-12-30T15:25:26Z</time>
      </trkpt>
      <trkpt lat="39.8902380" lon="3.0742130">
        <ele>3.6</ele>
        <time>2018-12-30T15:25:27Z</time>
      </trkpt>
      <trkpt lat="39.8902630" lon="3.0742970">
        <ele>3.7</ele>
        <time>2018-12-30T15:25:28Z</time>
      </trkpt>
      <trkpt lat="39.8902750" lon="3.0743900">
        <ele>3.9</ele>
        <time>2018-12-30T15:25:29Z</time>
      </trkpt>
      <trkpt lat="39.8902830" lon="3.0744850">
        <ele>4.0</ele>
        <time>2018-12-30T15:25:30Z</time>
      </trkpt>
      <trkpt lat="39.8902830" lon="3.0745920">
        <ele>4.0</ele>
        <time>2018-12-30T15:25:31Z</time>
      </trkpt>
      <trkpt lat="39.8902780" lon="3.0746900">
        <ele>4.0</ele>
        <time>2018-12-30T15:25:32Z</time>
      </trkpt>
      <trkpt lat="39.8902680" lon="3.0747730">
        <ele>3.9</ele>
        <time>2018-12-30T15:25:33Z</time>
      </trkpt>
      <trkpt lat="39.8902570" lon="3.0748570">
        <ele>3.9</ele>
        <time>2018-12-30T15:25:34Z</time>
      </trkpt>
      <trkpt lat="39.8902420" lon="3.0749450">
        <ele>3.9</ele>
        <time>2018-12-30T15:25:35Z</time>
      </trkpt>
      <trkpt lat="39.8902250" lon="3.0750300">
        <ele>3.9</ele>
        <time>2018-12-30T15:25:36Z</time>
      </trkpt>
      <trkpt lat="39.8902080" lon="3.0751130">
        <ele>3.9</ele>
        <time>2018-12-30T15:25:37Z</time>
      </trkpt>
      <trkpt lat="39.8901870" lon="3.0751880">
        <ele>3.8</ele>
        <time>2018-12-30T15:25:38Z</time>
      </trkpt>
      <trkpt lat="39.8901670" lon="3.0752600">
        <ele>3.9</ele>
        <time>2018-12-30T15:25:39Z</time>
      </trkpt>
      <trkpt lat="39.8901500" lon="3.0753370">
        <ele>3.9</ele>
        <time>2018-12-30T15:25:40Z</time>
      </trkpt>
      <trkpt lat="39.8901350" lon="3.0754100">
        <ele>4.0</ele>
        <time>2018-12-30T15:25:41Z</time>
      </trkpt>
      <trkpt lat="39.8901180" lon="3.0754830">
        <ele>4.0</ele>
        <time>2018-12-30T15:25:42Z</time>
      </trkpt>
      <trkpt lat="39.8901000" lon="3.0755530">
        <ele>3.9</ele>
        <time>2018-12-30T15:25:43Z</time>
      </trkpt>
      <trkpt lat="39.8900800" lon="3.0756230">
        <ele>3.9</ele>
        <time>2018-12-30T15:25:44Z</time>
      </trkpt>
      <trkpt lat="39.8900650" lon="3.0756970">
        <ele>3.9</ele>
        <time>2018-12-30T15:25:45Z</time>
      </trkpt>
      <trkpt lat="39.8899790" lon="3.0773630">
        <ele>3.8</ele>
        <time>2018-12-30T10:18:20Z</time>
      </trkpt>
      <trkpt lat="39.8899820" lon="3.0773250">
        <ele>3.8</ele>
        <time>2018-12-30T10:18:21Z</time>
      </trkpt>
      <trkpt lat="39.8899840" lon="3.0772870">
        <ele>3.7</ele>
        <time>2018-12-30T10:18:22Z</time>
      </trkpt>
      <trkpt lat="39.8899880" lon="3.0772100">
        <ele>3.6</ele>
        <time>2018-12-30T10:18:23Z</time>
      </trkpt>
      <trkpt lat="39.8899950" lon="3.0771310">
        <ele>3.6</ele>
        <time>2018-12-30T10:18:24Z</time>
      </trkpt>
      <trkpt lat="39.8900020" lon="3.0770510">
        <ele>3.5</ele>
        <time>2018-12-30T10:18:25Z</time>
      </trkpt>
      <trkpt lat="39.8900100" lon="3.0769700">
        <ele>3.5</ele>
        <time>2018-12-30T10:18:26Z</time>
      </trkpt>
      <trkpt lat="39.8900190" lon="3.0768920">
        <ele>3.5</ele>
        <time>2018-12-30T10:18:27Z</time>
      </trkpt>
      <trkpt lat="39.8900280" lon="3.0768130">
        <ele>3.5</ele>
        <time>2018-12-30T10:18:28Z</time>
      </trkpt>
      <trkpt lat="39.8900360" lon="3.0767350">
        <ele>3.4</ele>
        <time>2018-12-30T10:18:29Z</time>
      </trkpt>
      <trkpt lat="39.8900430" lon="3.0766550">
        <ele>3.4</ele>
        <time>2018-12-30T10:18:30Z</time>
      </trkpt>
      <trkpt lat="39.8900500" lon="3.0765740">
        <ele>3.4</ele>
        <time>2018-12-30T10:18:31Z</time>
      </trkpt>
      <trkpt lat="39.8900590" lon="3.0764930">
        <ele>3.4</ele>
        <time>2018-12-30T10:18:32Z</time>
      </trkpt>
      <trkpt lat="39.8900680" lon="3.0764130">
        <ele>3.4</ele>
        <time>2018-12-30T10:18:33Z</time>
      </trkpt>
      <trkpt lat="39.8900770" lon="3.0763320">
        <ele>3.4</ele>
        <time>2018-12-30T10:18:34Z</time>
      </trkpt>
      <trkpt lat="39.8900860" lon="3.0762510">
        <ele>3.4</ele>
        <time>2018-12-30T10:18:35Z</time>
      </trkpt>
      <trkpt lat="39.8900950" lon="3.0761690">
        <ele>3.5</ele>
        <time>2018-12-30T10:18:36Z</time>
      </trkpt>
      <trkpt lat="39.8901050" lon="3.0760860">
        <ele>3.5</ele>
        <time>2018-12-30T10:18:37Z</time>
      </trkpt>
      <trkpt lat="39.8901160" lon="3.0760040">
        <ele>3.6</ele>
        <time>2018-12-30T10:18:38Z</time>
      </trkpt>
      <trkpt lat="39.8901280" lon="3.0759230">
        <ele>3.6</ele>
        <time>2018-12-30T10:18:39Z</time>
      </trkpt>
      <trkpt lat="39.8901400" lon="3.0758420">
        <ele>3.6</ele>
        <time>2018-12-30T10:18:40Z</time>
      </trkpt>
      <trkpt lat="39.8901540" lon="3.0757610">
        <ele>3.7</ele>
        <time>2018-12-30T10:18:41Z</time>
      </trkpt>
      <trkpt lat="39.8901680" lon="3.0756790">
        <ele>3.7</ele>
        <time>2018-12-30T10:18:42Z</time>
      </trkpt>
      <trkpt lat="39.8901840" lon="3.0755980">
        <ele>3.8</ele>
        <time>2018-12-30T10:18:43Z</time>
      </trkpt>
      <trkpt lat="39.8902000" lon="3.0755160">
        <ele>3.8</ele>
        <time>2018-12-30T10:18:44Z</time>
      </trkpt>
      <trkpt lat="39.8902190" lon="3.0754350">
        <ele>3.9</ele>
        <time>2018-12-30T10:18:45Z</time>
      </trkpt>
      <trkpt lat="39.8902390" lon="3.0753550">
        <ele>3.9</ele>
        <time>2018-12-30T10:18:46Z</time>
      </trkpt>
      <trkpt lat="39.8902610" lon="3.0752780">
        <ele>4.0</ele>
        <time>2018-12-30T10:18:47Z</time>
      </trkpt>
      <trkpt lat="39.8902890" lon="3.0752040">
        <ele>4.1</ele>
        <time>2018-12-30T10:18:48Z</time>
      </trkpt>
      <trkpt lat="39.8903210" lon="3.0751330">
        <ele>4.3</ele>
        <time>2018-12-30T10:18:49Z</time>
      </trkpt>
      <trkpt lat="39.8903550" lon="3.0750620">
        <ele>4.6</ele>
        <time>2018-12-30T10:18:50Z</time>
      </trkpt>
      <trkpt lat="39.8903860" lon="3.0749880">
        <ele>4.5</ele>
        <time>2018-12-30T10:18:51Z</time>
      </trkpt>
      <trkpt lat="39.8904100" lon="3.0749100">
        <ele>4.7</ele>
        <time>2018-12-30T10:18:52Z</time>
      </trkpt>
      <trkpt lat="39.8904230" lon="3.0748260">
        <ele>4.7</ele>
        <time>2018-12-30T10:18:53Z</time>
      </trkpt>
      <trkpt lat="39.8904280" lon="3.0747410">
        <ele>4.6</ele>
        <time>2018-12-30T10:18:54Z</time>
      </trkpt>
      <trkpt lat="39.8904290" lon="3.0746540">
        <ele>4.5</ele>
        <time>2018-12-30T10:18:55Z</time>
      </trkpt>
      <trkpt lat="39.8904280" lon="3.0745670">
        <ele>4.5</ele>
        <time>2018-12-30T10:18:56Z</time>
      </trkpt>
      <trkpt lat="39.8904300" lon="3.0744810">
        <ele>4.5</ele>
        <time>2018-12-30T10:18:57Z</time>
      </trkpt>
      <trkpt lat="39.8904330" lon="3.0743970">
        <ele>4.4</ele>
        <time>2018-12-30T10:18:58Z</time>
      </trkpt>
      <trkpt lat="39.8904390" lon="3.0743140">
        <ele>4.4</ele>
        <time>2018-12-30T10:18:59Z</time>
      </trkpt>
      <trkpt lat="39.8904480" lon="3.0742340">
        <ele>4.4</ele>
        <time>2018-12-30T10:19:00Z</time>
      </trkpt>
      <trkpt lat="39.8904640" lon="3.0741570">
        <ele>4.2</ele>
        <time>2018-12-30T10:19:01Z</time>
      </trkpt>
      <trkpt lat="39.8904880" lon="3.0740850">
        <ele>4.1</ele>
        <time>2018-12-30T10:19:02Z</time>
      </trkpt>
      <trkpt lat="39.8905170" lon="3.0740150">
        <ele>4.0</ele>
        <time>2018-12-30T10:19:03Z</time>
      </trkpt>
      <trkpt lat="39.8905460" lon="3.0739450">
        <ele>4.0</ele>
        <time>2018-12-30T10:19:04Z</time>
      </trkpt>
      <trkpt lat="39.8905680" lon="3.0738720">
        <ele>3.8</ele>
        <time>2018-12-30T10:19:05Z</time>
      </trkpt>
      <trkpt lat="39.8905790" lon="3.0737950">
        <ele>3.7</ele>
        <time>2018-12-30T10:19:06Z</time>
      </trkpt>
      <trkpt lat="39.8905760" lon="3.0737180">
        <ele>3.6</ele>
        <time>2018-12-30T10:19:07Z</time>
      </trkpt>
      <trkpt lat="39.8905580" lon="3.0736440">
        <ele>3.4</ele>
        <time>2018-12-30T10:19:08Z</time>
      </trkpt>
      <trkpt lat="39.8905270" lon="3.0735770">
        <ele>3.3</ele>
        <time>2018-12-30T10:19:09Z</time>
      </trkpt>
      <trkpt lat="39.8904830" lon="3.0735180">
        <ele>3.2</ele>
        <time>2018-12-30T10:19:10Z</time>
      </trkpt>
      <trkpt lat="39.8904290" lon="3.0734670">
        <ele>3.0</ele>
        <time>2018-12-30T10:19:11Z</time>
      </trkpt>
      <trkpt lat="39.8903700" lon="3.0734230">
        <ele>2.9</ele>
        <time>2018-12-30T10:19:12Z</time>
      </trkpt>
      <trkpt lat="39.8903100" lon="3.0733790">
        <ele>2.9</ele>
        <time>2018-12-30T10:19:13Z</time>
      </trkpt>
      <trkpt lat="39.8902500" lon="3.0733330">
        <ele>2.8</ele>
        <time>2018-12-30T10:19:14Z</time>
      </trkpt>
      <trkpt lat="39.8901910" lon="3.0732830">
        <ele>2.8</ele>
        <time>2018-12-30T10:19:15Z</time>
      </trkpt>
      <trkpt lat="39.8901310" lon="3.0732290">
        <ele>2.8</ele>
        <time>2018-12-30T10:19:16Z</time>
      </trkpt>
      <trkpt lat="39.8900720" lon="3.0731730">
        <ele>2.8</ele>
        <time>2018-12-30T10:19:17Z</time>
      </trkpt>
      <trkpt lat="39.8900110" lon="3.0731170">
        <ele>2.8</ele>
        <time>2018-12-30T10:19:18Z</time>
      </trkpt>
      <trkpt lat="39.8899460" lon="3.0730650">
        <ele>2.8</ele>
        <time>2018-12-30T10:19:19Z</time>
      </trkpt>
      <trkpt lat="39.8898790" lon="3.0730160">
        <ele>2.8</ele>
        <time>2018-12-30T10:19:20Z</time>
      </trkpt>
      <trkpt lat="39.8898100" lon="3.0729690">
        <ele>2.9</ele>
        <time>2018-12-30T10:19:21Z</time>
      </trkpt>
      <trkpt lat="39.8897420" lon="3.0729220">
        <ele>2.9</ele>
        <time>2018-12-30T10:19:22Z</time>
      </trkpt>
      <trkpt lat="39.8896730" lon="3.0728770">
        <ele>3.0</ele>
        <time>2018-12-30T10:19:23Z</time>
      </trkpt>
      <trkpt lat="39.8896040" lon="3.0728310">
        <ele>3.2</ele>
        <time>2018-12-30T10:19:24Z</time>
      </trkpt>
      <trkpt lat="39.8895360" lon="3.0727850">
        <ele>3.3</ele>
        <time>2018-12-30T10:19:25Z</time>
      </trkpt>
      <trkpt lat="39.8894700" lon="3.0727350">
        <ele>3.4</ele>
        <time>2018-12-30T10:19:26Z</time>
      </trkpt>
      <trkpt lat="39.8894050" lon="3.0726800">
        <ele>3.6</ele>
        <time>2018-12-30T10:19:27Z</time>
      </trkpt>
      <trkpt lat="39.8893410" lon="3.0726220">
        <ele>3.7</ele>
        <time>2018-12-30T10:19:28Z</time>
      </trkpt>
      <trkpt lat="39.8892770" lon="3.0725600">
        <ele>3.9</ele>
        <time>2018-12-30T10:19:29Z</time>
      </trkpt>
      <trkpt lat="39.8892150" lon="3.0724960">
        <ele>4.0</ele>
        <time>2018-12-30T10:19:30Z</time>
      </trkpt>
      <trkpt lat="39.8891550" lon="3.0724280">
        <ele>4.0</ele>
        <time>2018-12-30T10:19:31Z</time>
      </trkpt>
      <trkpt lat="39.8890980" lon="3.0723580">
        <ele>4.0</ele>
        <time>2018-12-30T10:19:32Z</time>
      </trkpt>
      <trkpt lat="39.8890410" lon="3.0722860">
        <ele>3.9</ele>
        <time>2018-12-30T10:19:33Z</time>
      </trkpt>
      <trkpt lat="39.8889860" lon="3.0722120">
        <ele>3.9</ele>
        <time>2018-12-30T10:19:34Z</time>
      </trkpt>
      <trkpt lat="39.8889330" lon="3.0721370">
        <ele>3.9</ele>
        <time>2018-12-30T10:19:35Z</time>
      </trkpt>
      <trkpt lat="39.8888810" lon="3.0720610">
        <ele>3.9</ele>
        <time>2018-12-30T10:19:36Z</time>
      </trkpt>
      <trkpt lat="39.8888310" lon="3.0719840">
        <ele>3.9</ele>
        <time>2018-12-30T10:19:37Z</time>
      </trkpt>
      <trkpt lat="39.8887820" lon="3.0719070">
        <ele>3.8</ele>
        <time>2018-12-30T10:19:38Z</time>
      </trkpt>
      <trkpt lat="39.8887340" lon="3.0718310">
        <ele>3.8</ele>
        <time>2018-12-30T10:19:39Z</time>
      </trkpt>
      <trkpt lat="39.8886870" lon="3.0717540">
        <ele>3.8</ele>
        <time>2018-12-30T10:19:40Z</time>
      </trkpt>
      <trkpt lat="39.8886410" lon="3.0716780">
        <ele>3.8</ele>
        <time>2018-12-30T10:19:41Z</time>
      </trkpt>
      <trkpt lat="39.8885940" lon="3.0716010">
        <ele>3.7</ele>
        <time>2018-12-30T10:19:42Z</time>
      </trkpt>
      <trkpt lat="39.8885480" lon="3.0715250">
        <ele>3.7</ele>
        <time>2018-12-30T10:19:43Z</time>
      </trkpt>
      <trkpt lat="39.8885030" lon="3.0714480">
        <ele>3.7</ele>
        <time>2018-12-30T10:19:44Z</time>
      </trkpt>
      <trkpt lat="39.8884580" lon="3.0713710">
        <ele>3.7</ele>
        <time>2018-12-30T10:19:45Z</time>
      </trkpt>
      <trkpt lat="39.8884140" lon="3.0712940">
        <ele>3.6</ele>
        <time>2018-12-30T10:19:46Z</time>
      </trkpt>
      <trkpt lat="39.8883710" lon="3.0712170">
        <ele>3.6</ele>
        <time>2018-12-30T10:19:47Z</time>
      </trkpt>
      <trkpt lat="39.8883270" lon="3.0711400">
        <ele>3.6</ele>
        <time>2018-12-30T10:19:48Z</time>
      </trkpt>
      <trkpt lat="39.8882840" lon="3.0710630">
        <ele>3.6</ele>
        <time>2018-12-30T10:19:49Z</time>
      </trkpt>
      <trkpt lat="39.8882420" lon="3.0709860">
        <ele>3.5</ele>
        <time>2018-12-30T10:19:50Z</time>
      </trkpt>
      <trkpt lat="39.8881990" lon="3.0709080">
        <ele>3.5</ele>
        <time>2018-12-30T10:19:51Z</time>
      </trkpt>
      <trkpt lat="39.8881560" lon="3.0708310">
        <ele>3.5</ele>
        <time>2018-12-30T10:19:52Z</time>
      </trkpt>
      <trkpt lat="39.8881120" lon="3.0707550">
        <ele>3.5</ele>
        <time>2018-12-30T10:19:53Z</time>
      </trkpt>
      <trkpt lat="39.8880700" lon="3.0706790">
        <ele>3.4</ele>
        <time>2018-12-30T10:19:54Z</time>
      </trkpt>
      <trkpt lat="39.8880280" lon="3.0706030">
        <ele>3.4</ele>
        <time>2018-12-30T10:19:55Z</time>
      </trkpt>
      <trkpt lat="39.8879860" lon="3.0705260">
        <ele>3.4</ele>
        <time>2018-12-30T10:19:56Z</time>
      </trkpt>
      <trkpt lat="39.8879440" lon="3.0704510">
        <ele>3.4</ele>
        <time>2018-12-30T10:19:57Z</time>
      </trkpt>
      <trkpt lat="39.8879020" lon="3.0703760">
        <ele>3.3</ele>
        <time>2018-12-30T10:19:58Z</time>
      </trkpt>
      <trkpt lat="39.8878600" lon="3.0703010">
        <ele>3.3</ele>
        <time>2018-12-30T10:19:59Z</time>
      </trkpt>
      <trkpt lat="39.8878180" lon="3.0702270">
        <ele>3.2</ele>
        <time>2018-12-30T10:20:00Z</time>
      </trkpt>
      <trkpt lat="39.8877760" lon="3.0701520">
        <ele>3.4</ele>
        <time>2018-12-30T10:20:01Z</time>
      </trkpt>
      <trkpt lat="39.8877350" lon="3.0700770">
        <ele>3.7</ele>
        <time>2018-12-30T10:20:02Z</time>
      </trkpt>
      <trkpt lat="39.8876940" lon="3.0700030">
        <ele>3.9</ele>
        <time>2018-12-30T10:20:03Z</time>
      </trkpt>
      <trkpt lat="39.8876530" lon="3.0699280">
        <ele>4.1</ele>
        <time>2018-12-30T10:20:04Z</time>
      </trkpt>
      <trkpt lat="39.8876120" lon="3.0698550">
        <ele>4.4</ele>
        <time>2018-12-30T10:20:05Z</time>
      </trkpt>
      <trkpt lat="39.8875710" lon="3.0697810">
        <ele>4.6</ele>
        <time>2018-12-30T10:20:06Z</time>
      </trkpt>
      <trkpt lat="39.8875300" lon="3.0697090">
        <ele>4.9</ele>
        <time>2018-12-30T10:20:07Z</time>
      </trkpt>
      <trkpt lat="39.8874880" lon="3.0696370">
        <ele>5.2</ele>
        <time>2018-12-30T10:20:08Z</time>
      </trkpt>
      <trkpt lat="39.8874470" lon="3.0695640">
        <ele>5.4</ele>
        <time>2018-12-30T10:20:09Z</time>
      </trkpt>
      <trkpt lat="39.8874050" lon="3.0694910">
        <ele>5.7</ele>
        <time>2018-12-30T10:20:10Z</time>
      </trkpt>
      <trkpt lat="39.8873640" lon="3.0694180">
        <ele>5.9</ele>
        <time>2018-12-30T10:20:11Z</time>
      </trkpt>
      <trkpt lat="39.8873220" lon="3.0693460">
        <ele>6.2</ele>
        <time>2018-12-30T10:20:12Z</time>
      </trkpt>
      <trkpt lat="39.8872810" lon="3.0692740">
        <ele>6.4</ele>
        <time>2018-12-30T10:20:13Z</time>
      </trkpt>
      <trkpt lat="39.8872390" lon="3.0692010">
        <ele>6.6</ele>
        <time>2018-12-30T10:20:14Z</time>
      </trkpt>
      <trkpt lat="39.8871970" lon="3.0691280">
        <ele>6.8</ele>
        <time>2018-12-30T10:20:15Z</time>
      </trkpt>
      <trkpt lat="39.8871560" lon="3.0690550">
        <ele>7.0</ele>
        <time>2018-12-30T10:20:16Z</time>
      </trkpt>
      <trkpt lat="39.8871160" lon="3.0689820">
        <ele>7.1</ele>
        <time>2018-12-30T10:20:17Z</time>
      </trkpt>
      <trkpt lat="39.8870750" lon="3.0689080">
        <ele>7.3</ele>
        <time>2018-12-30T10:20:18Z</time>
      </trkpt>
      <trkpt lat="39.8870340" lon="3.0688350">
        <ele>7.5</ele>
        <time>2018-12-30T10:20:19Z</time>
      </trkpt>
      <trkpt lat="39.8869930" lon="3.0687620">
        <ele>7.6</ele>
        <time>2018-12-30T10:20:20Z</time>
      </trkpt>
      <trkpt lat="39.8869520" lon="3.0686890">
        <ele>7.8</ele>
        <time>2018-12-30T10:20:21Z</time>
      </trkpt>
      <trkpt lat="39.8869120" lon="3.0686160">
        <ele>7.9</ele>
        <time>2018-12-30T10:20:22Z</time>
      </trkpt>
      <trkpt lat="39.8868720" lon="3.0685430">
        <ele>8.1</ele>
        <time>2018-12-30T10:20:23Z</time>
      </trkpt>
      <trkpt lat="39.8868320" lon="3.0684700">
        <ele>8.3</ele>
        <time>2018-12-30T10:20:24Z</time>
      </trkpt>
      <trkpt lat="39.8867920" lon="3.0683980">
        <ele>8.4</ele>
        <time>2018-12-30T10:20:25Z</time>
      </trkpt>
      <trkpt lat="39.8867510" lon="3.0683250">
        <ele>8.6</ele>
        <time>2018-12-30T10:20:26Z</time>
      </trkpt>
      <trkpt lat="39.8867110" lon="3.0682510">
        <ele>8.7</ele>
        <time>2018-12-30T10:20:27Z</time>
      </trkpt>
      <trkpt lat="39.8866700" lon="3.0681780">
        <ele>8.9</ele>
        <time>2018-12-30T10:20:28Z</time>
      </trkpt>
      <trkpt lat="39.8866290" lon="3.0681050">
        <ele>9.1</ele>
        <time>2018-12-30T10:20:29Z</time>
      </trkpt>
      <trkpt lat="39.8865870" lon="3.0680320">
        <ele>9.3</ele>
        <time>2018-12-30T10:20:30Z</time>
      </trkpt>
      <trkpt lat="39.8865450" lon="3.0679600">
        <ele>9.5</ele>
        <time>2018-12-30T10:20:31Z</time>
      </trkpt>
      <trkpt lat="39.8865030" lon="3.0678870">
        <ele>9.7</ele>
        <time>2018-12-30T10:20:32Z</time>
      </trkpt>
      <trkpt lat="39.8864620" lon="3.0678150">
        <ele>10.0</ele>
        <time>2018-12-30T10:20:33Z</time>
      </trkpt>
      <trkpt lat="39.8864210" lon="3.0677440">
        <ele>10.3</ele>
        <time>2018-12-30T10:20:34Z</time>
      </trkpt>
      <trkpt lat="39.8863810" lon="3.0676740">
        <ele>10.3</ele>
        <time>2018-12-30T10:20:35Z</time>
      </trkpt>
      <trkpt lat="39.8863410" lon="3.0676050">
        <ele>10.4</ele>
        <time>2018-12-30T10:20:36Z</time>
      </trkpt>
      <trkpt lat="39.8863010" lon="3.0675360">
        <ele>10.5</ele>
        <time>2018-12-30T10:20:37Z</time>
      </trkpt>
      <trkpt lat="39.8862630" lon="3.0674670">
        <ele>10.5</ele>
        <time>2018-12-30T10:20:38Z</time>
      </trkpt>
      <trkpt lat="39.8862240" lon="3.0673970">
        <ele>10.5</ele>
        <time>2018-12-30T10:20:39Z</time>
      </trkpt>
      <trkpt lat="39.8861850" lon="3.0673290">
        <ele>10.5</ele>
        <time>2018-12-30T10:20:40Z</time>
      </trkpt>
      <trkpt lat="39.8861460" lon="3.0672600">
        <ele>10.6</ele>
        <time>2018-12-30T10:20:41Z</time>
      </trkpt>
      <trkpt lat="39.8861060" lon="3.0671910">
        <ele>10.6</ele>
        <time>2018-12-30T10:20:42Z</time>
      </trkpt>
      <trkpt lat="39.8860670" lon="3.0671220">
        <ele>10.6</ele>
        <time>2018-12-30T10:20:43Z</time>
      </trkpt>
      <trkpt lat="39.8860280" lon="3.0670520">
        <ele>10.7</ele>
        <time>2018-12-30T10:20:44Z</time>
      </trkpt>
      <trkpt lat="39.8859900" lon="3.0669820">
        <ele>10.7</ele>
        <time>2018-12-30T10:20:45Z</time>
      </trkpt>
      <trkpt lat="39.8859520" lon="3.0669110">
        <ele>10.7</ele>
        <time>2018-12-30T10:20:46Z</time>
      </trkpt>
      <trkpt lat="39.8859120" lon="3.0668410">
        <ele>10.7</ele>
        <time>2018-12-30T10:20:47Z</time>
      </trkpt>
      <trkpt lat="39.8858720" lon="3.0667720">
        <ele>10.6</ele>
        <time>2018-12-30T10:20:48Z</time>
      </trkpt>
      <trkpt lat="39.8858310" lon="3.0667020">
        <ele>10.5</ele>
        <time>2018-12-30T10:20:49Z</time>
      </trkpt>
      <trkpt lat="39.8857900" lon="3.0666320">
        <ele>10.4</ele>
        <time>2018-12-30T10:20:50Z</time>
      </trkpt>
      <trkpt lat="39.8857500" lon="3.0665610">
        <ele>10.3</ele>
        <time>2018-12-30T10:20:51Z</time>
      </trkpt>
      <trkpt lat="39.8857100" lon="3.0664890">
        <ele>10.2</ele>
        <time>2018-12-30T10:20:52Z</time>
      </trkpt>
      <trkpt lat="39.8856700" lon="3.0664170">
        <ele>10.1</ele>
        <time>2018-12-30T10:20:53Z</time>
      </trkpt>
      <trkpt lat="39.8856300" lon="3.0663450">
        <ele>10.0</ele>
        <time>2018-12-30T10:20:54Z</time>
      </trkpt>
      <trkpt lat="39.8855900" lon="3.0662730">
        <ele>10.0</ele>
        <time>2018-12-30T10:20:55Z</time>
      </trkpt>
      <trkpt lat="39.8855500" lon="3.0662010">
        <ele>10.0</ele>
        <time>2018-12-30T10:20:56Z</time>
      </trkpt>
      <trkpt lat="39.8855090" lon="3.0661280">
        <ele>9.9</ele>
        <time>2018-12-30T10:20:57Z</time>
      </trkpt>
      <trkpt lat="39.8854670" lon="3.0660570">
        <ele>9.9</ele>
        <time>2018-12-30T10:20:58Z</time>
      </trkpt>
      <trkpt lat="39.8854250" lon="3.0659850">
        <ele>9.9</ele>
        <time>2018-12-30T10:20:59Z</time>
      </trkpt>
      <trkpt lat="39.8853850" lon="3.0659130">
        <ele>9.9</ele>
        <time>2018-12-30T10:21:00Z</time>
      </trkpt>
      <trkpt lat="39.8853440" lon="3.0658400">
        <ele>9.9</ele>
        <time>2018-12-30T10:21:01Z</time>
      </trkpt>
      <trkpt lat="39.8853040" lon="3.0657670">
        <ele>9.9</ele>
        <time>2018-12-30T10:21:02Z</time>
      </trkpt>
      <trkpt lat="39.8852640" lon="3.0656940">
        <ele>9.8</ele>
        <time>2018-12-30T10:21:03Z</time>
      </trkpt>
      <trkpt lat="39.8852240" lon="3.0656200">
        <ele>9.8</ele>
        <time>2018-12-30T10:21:04Z</time>
      </trkpt>
      <trkpt lat="39.8851840" lon="3.0655460">
        <ele>9.8</ele>
        <time>2018-12-30T10:21:05Z</time>
      </trkpt>
      <trkpt lat="39.8851450" lon="3.0654720">
        <ele>9.8</ele>
        <time>2018-12-30T10:21:06Z</time>
      </trkpt>
      <trkpt lat="39.8851040" lon="3.0653980">
        <ele>9.8</ele>
        <time>2018-12-30T10:21:07Z</time>
      </trkpt>
      <trkpt lat="39.8850640" lon="3.0653260">
        <ele>9.9</ele>
        <time>2018-12-30T10:21:08Z</time>
      </trkpt>
      <trkpt lat="39.8850220" lon="3.0652530">
        <ele>9.9</ele>
        <time>2018-12-30T10:21:09Z</time>
      </trkpt>
      <trkpt lat="39.8849810" lon="3.0651810">
        <ele>9.9</ele>
        <time>2018-12-30T10:21:10Z</time>
      </trkpt>
      <trkpt lat="39.8849390" lon="3.0651080">
        <ele>10.0</ele>
        <time>2018-12-30T10:21:11Z</time>
      </trkpt>
      <trkpt lat="39.8848980" lon="3.0650350">
        <ele>10.1</ele>
        <time>2018-12-30T10:21:12Z</time>
      </trkpt>
      <trkpt lat="39.8848570" lon="3.0649610">
        <ele>10.1</ele>
        <time>2018-12-30T10:21:13Z</time>
      </trkpt>
      <trkpt lat="39.8848160" lon="3.0648860">
        <ele>10.2</ele>
        <time>2018-12-30T10:21:14Z</time>
      </trkpt>
      <trkpt lat="39.8847740" lon="3.0648120">
        <ele>10.2</ele>
        <time>2018-12-30T10:21:15Z</time>
      </trkpt>
      <trkpt lat="39.8847310" lon="3.0647390">
        <ele>10.3</ele>
        <time>2018-12-30T10:21:16Z</time>
      </trkpt>
      <trkpt lat="39.8846870" lon="3.0646660">
        <ele>10.3</ele>
        <time>2018-12-30T10:21:17Z</time>
      </trkpt>
      <trkpt lat="39.8846430" lon="3.0645940">
        <ele>10.4</ele>
        <time>2018-12-30T10:21:18Z</time>
      </trkpt>
      <trkpt lat="39.8845990" lon="3.0645230">
        <ele>10.5</ele>
        <time>2018-12-30T10:21:19Z</time>
      </trkpt>
      <trkpt lat="39.8845560" lon="3.0644510">
        <ele>10.5</ele>
        <time>2018-12-30T10:21:20Z</time>
      </trkpt>
      <trkpt lat="39.8845130" lon="3.0643780">
        <ele>10.6</ele>
        <time>2018-12-30T10:21:21Z</time>
      </trkpt>
      <trkpt lat="39.8844720" lon="3.0643040">
        <ele>10.6</ele>
        <time>2018-12-30T10:21:22Z</time>
      </trkpt>
      <trkpt lat="39.8844310" lon="3.0642290">
        <ele>10.7</ele>
        <time>2018-12-30T10:21:23Z</time>
      </trkpt>
      <trkpt lat="39.8843900" lon="3.0641540">
        <ele>10.8</ele>
        <time>2018-12-30T10:21:24Z</time>
      </trkpt>
      <trkpt lat="39.8843500" lon="3.0640780">
        <ele>10.9</ele>
        <time>2018-12-30T10:21:25Z</time>
      </trkpt>
      <trkpt lat="39.8843110" lon="3.0640020">
        <ele>10.9</ele>
        <time>2018-12-30T10:21:26Z</time>
      </trkpt>
      <trkpt lat="39.8842730" lon="3.0639240">
        <ele>11.0</ele>
        <time>2018-12-30T10:21:27Z</time>
      </trkpt>
      <trkpt lat="39.8842400" lon="3.0638440">
        <ele>11.1</ele>
        <time>2018-12-30T10:21:28Z</time>
      </trkpt>
      <trkpt lat="39.8842150" lon="3.0637590">
        <ele>11.2</ele>
        <time>2018-12-30T10:21:29Z</time>
      </trkpt>
      <trkpt lat="39.8841950" lon="3.0636710">
        <ele>11.3</ele>
        <time>2018-12-30T10:21:30Z</time>
      </trkpt>
      <trkpt lat="39.8841790" lon="3.0635830">
        <ele>11.3</ele>
        <time>2018-12-30T10:21:31Z</time>
      </trkpt>
      <trkpt lat="39.8841640" lon="3.0634940">
        <ele>11.4</ele>
        <time>2018-12-30T10:21:32Z</time>
      </trkpt>
      <trkpt lat="39.8841490" lon="3.0634060">
        <ele>11.5</ele>
        <time>2018-12-30T10:21:33Z</time>
      </trkpt>
      <trkpt lat="39.8841320" lon="3.0633200">
        <ele>11.5</ele>
        <time>2018-12-30T10:21:34Z</time>
      </trkpt>
      <trkpt lat="39.8841120" lon="3.0632360">
        <ele>11.6</ele>
        <time>2018-12-30T10:21:35Z</time>
      </trkpt>
      <trkpt lat="39.8840880" lon="3.0631560">
        <ele>11.6</ele>
        <time>2018-12-30T10:21:36Z</time>
      </trkpt>
      <trkpt lat="39.8840580" lon="3.0630810">
        <ele>11.6</ele>
        <time>2018-12-30T10:21:37Z</time>
      </trkpt>
      <trkpt lat="39.8840220" lon="3.0630120">
        <ele>11.6</ele>
        <time>2018-12-30T10:21:38Z</time>
      </trkpt>
      <trkpt lat="39.8839810" lon="3.0629480">
        <ele>11.8</ele>
        <time>2018-12-30T10:21:39Z</time>
      </trkpt>
      <trkpt lat="39.8839360" lon="3.0628840">
        <ele>12.0</ele>
        <time>2018-12-30T10:21:40Z</time>
      </trkpt>
      <trkpt lat="39.8838910" lon="3.0628160">
        <ele>12.2</ele>
        <time>2018-12-30T10:21:41Z</time>
      </trkpt>
      <trkpt lat="39.8838480" lon="3.0627410">
        <ele>12.5</ele>
        <time>2018-12-30T10:21:42Z</time>
      </trkpt>
      <trkpt lat="39.8838090" lon="3.0626580">
        <ele>12.7</ele>
        <time>2018-12-30T10:21:43Z</time>
      </trkpt>
      <trkpt lat="39.8837730" lon="3.0625740">
        <ele>12.9</ele>
        <time>2018-12-30T10:21:44Z</time>
      </trkpt>
      <trkpt lat="39.8837380" lon="3.0624890">
        <ele>13.1</ele>
        <time>2018-12-30T10:21:45Z</time>
      </trkpt>
      <trkpt lat="39.8837030" lon="3.0624050">
        <ele>13.3</ele>
        <time>2018-12-30T10:21:46Z</time>
      </trkpt>
      <trkpt lat="39.8836670" lon="3.0623230">
        <ele>13.5</ele>
        <time>2018-12-30T10:21:47Z</time>
      </trkpt>
      <trkpt lat="39.8836290" lon="3.0622420">
        <ele>13.6</ele>
        <time>2018-12-30T10:21:48Z</time>
      </trkpt>
      <trkpt lat="39.8835890" lon="3.0621630">
        <ele>13.6</ele>
        <time>2018-12-30T10:21:49Z</time>
      </trkpt>
      <trkpt lat="39.8835450" lon="3.0620870">
        <ele>13.7</ele>
        <time>2018-12-30T10:21:50Z</time>
      </trkpt>
      <trkpt lat="39.8834980" lon="3.0620150">
        <ele>13.7</ele>
        <time>2018-12-30T10:21:51Z</time>
      </trkpt>
      <trkpt lat="39.8834470" lon="3.0619450">
        <ele>13.8</ele>
        <time>2018-12-30T10:21:52Z</time>
      </trkpt>
      <trkpt lat="39.8833950" lon="3.0618760">
        <ele>13.7</ele>
        <time>2018-12-30T10:21:53Z</time>
      </trkpt>
      <trkpt lat="39.8833450" lon="3.0618050">
        <ele>13.7</ele>
        <time>2018-12-30T10:21:54Z</time>
      </trkpt>
      <trkpt lat="39.8832980" lon="3.0617310">
        <ele>13.7</ele>
        <time>2018-12-30T10:21:55Z</time>
      </trkpt>
      <trkpt lat="39.8832550" lon="3.0616510">
        <ele>13.7</ele>
        <time>2018-12-30T10:21:56Z</time>
      </trkpt>
      <trkpt lat="39.8832150" lon="3.0615680">
        <ele>13.6</ele>
        <time>2018-12-30T10:21:57Z</time>
      </trkpt>
      <trkpt lat="39.8831760" lon="3.0614840">
        <ele>13.6</ele>
        <time>2018-12-30T10:21:58Z</time>
      </trkpt>
      <trkpt lat="39.8831370" lon="3.0614000">
        <ele>13.6</ele>
        <time>2018-12-30T10:21:59Z</time>
      </trkpt>
      <trkpt lat="39.8830980" lon="3.0613160">
        <ele>13.5</ele>
        <time>2018-12-30T10:22:00Z</time>
      </trkpt>
      <trkpt lat="39.8830590" lon="3.0612330">
        <ele>13.5</ele>
        <time>2018-12-30T10:22:01Z</time>
      </trkpt>
      <trkpt lat="39.8830190" lon="3.0611490">
        <ele>13.4</ele>
        <time>2018-12-30T10:22:02Z</time>
      </trkpt>
      <trkpt lat="39.8829790" lon="3.0610650">
        <ele>13.3</ele>
        <time>2018-12-30T10:22:03Z</time>
      </trkpt>
      <trkpt lat="39.8829380" lon="3.0609810">
        <ele>13.2</ele>
        <time>2018-12-30T10:22:04Z</time>
      </trkpt>
      <trkpt lat="39.8828970" lon="3.0608980">
        <ele>13.1</ele>
        <time>2018-12-30T10:22:05Z</time>
      </trkpt>
      <trkpt lat="39.8828550" lon="3.0608140">
        <ele>13.0</ele>
        <time>2018-12-30T10:22:06Z</time>
      </trkpt>
      <trkpt lat="39.8828120" lon="3.0607320">
        <ele>12.8</ele>
        <time>2018-12-30T10:22:07Z</time>
      </trkpt>
      <trkpt lat="39.8827660" lon="3.0606540">
        <ele>12.7</ele>
        <time>2018-12-30T10:22:08Z</time>
      </trkpt>
      <trkpt lat="39.8827160" lon="3.0605790">
        <ele>12.6</ele>
        <time>2018-12-30T10:22:09Z</time>
      </trkpt>
      <trkpt lat="39.8826650" lon="3.0605060">
        <ele>12.5</ele>
        <time>2018-12-30T10:22:10Z</time>
      </trkpt>
      <trkpt lat="39.8826180" lon="3.0604310">
        <ele>12.3</ele>
        <time>2018-12-30T10:22:11Z</time>
      </trkpt>
      <trkpt lat="39.8825830" lon="3.0603460">
        <ele>12.2</ele>
        <time>2018-12-30T10:22:12Z</time>
      </trkpt>
      <trkpt lat="39.8825630" lon="3.0602540">
        <ele>11.9</ele>
        <time>2018-12-30T10:22:13Z</time>
      </trkpt>
      <trkpt lat="39.8825610" lon="3.0601590">
        <ele>12.0</ele>
        <time>2018-12-30T10:22:14Z</time>
      </trkpt>
      <trkpt lat="39.8825710" lon="3.0600660">
        <ele>12.0</ele>
        <time>2018-12-30T10:22:15Z</time>
      </trkpt>
      <trkpt lat="39.8825890" lon="3.0599720">
        <ele>12.1</ele>
        <time>2018-12-30T10:22:16Z</time>
      </trkpt>
      <trkpt lat="39.8826070" lon="3.0598780">
        <ele>12.2</ele>
        <time>2018-12-30T10:22:17Z</time>
      </trkpt>
      <trkpt lat="39.8826230" lon="3.0597850">
        <ele>12.3</ele>
        <time>2018-12-30T10:22:18Z</time>
      </trkpt>
      <trkpt lat="39.8826380" lon="3.0596940">
        <ele>12.4</ele>
        <time>2018-12-30T10:22:19Z</time>
      </trkpt>
      <trkpt lat="39.8826540" lon="3.0596030">
        <ele>12.4</ele>
        <time>2018-12-30T10:22:20Z</time>
      </trkpt>
      <trkpt lat="39.8826750" lon="3.0595150">
        <ele>12.5</ele>
        <time>2018-12-30T10:22:21Z</time>
      </trkpt>
      <trkpt lat="39.8826990" lon="3.0594280">
        <ele>12.6</ele>
        <time>2018-12-30T10:22:22Z</time>
      </trkpt>
      <trkpt lat="39.8827260" lon="3.0593430">
        <ele>12.7</ele>
        <time>2018-12-30T10:22:23Z</time>
      </trkpt>
      <trkpt lat="39.8827540" lon="3.0592580">
        <ele>12.9</ele>
        <time>2018-12-30T10:22:24Z</time>
      </trkpt>
      <trkpt lat="39.8827820" lon="3.0591740">
        <ele>13.0</ele>
        <time>2018-12-30T10:22:25Z</time>
      </trkpt>
      <trkpt lat="39.8828100" lon="3.0590900">
        <ele>13.0</ele>
        <time>2018-12-30T10:22:26Z</time>
      </trkpt>
      <trkpt lat="39.8828390" lon="3.0590060">
        <ele>13.1</ele>
        <time>2018-12-30T10:22:27Z</time>
      </trkpt>
      <trkpt lat="39.8828690" lon="3.0589240">
        <ele>13.1</ele>
        <time>2018-12-30T10:22:28Z</time>
      </trkpt>
      <trkpt lat="39.8828990" lon="3.0588410">
        <ele>13.2</ele>
        <time>2018-12-30T10:22:29Z</time>
      </trkpt>
      <trkpt lat="39.8829280" lon="3.0587580">
        <ele>13.3</ele>
        <time>2018-12-30T10:22:30Z</time>
      </trkpt>
      <trkpt lat="39.8829580" lon="3.0586760">
        <ele>13.4</ele>
        <time>2018-12-30T10:22:31Z</time>
      </trkpt>
      <trkpt lat="39.8829890" lon="3.0585940">
        <ele>13.6</ele>
        <time>2018-12-30T10:22:32Z</time>
      </trkpt>
      <trkpt lat="39.8830210" lon="3.0585130">
        <ele>13.6</ele>
        <time>2018-12-30T10:22:33Z</time>
      </trkpt>
      <trkpt lat="39.8830500" lon="3.0584320">
        <ele>13.6</ele>
        <time>2018-12-30T10:22:34Z</time>
      </trkpt>
      <trkpt lat="39.8830790" lon="3.0583510">
        <ele>13.6</ele>
        <time>2018-12-30T10:22:35Z</time>
      </trkpt>
      <trkpt lat="39.8831070" lon="3.0582690">
        <ele>13.6</ele>
        <time>2018-12-30T10:22:36Z</time>
      </trkpt>
      <trkpt lat="39.8831350" lon="3.0581880">
        <ele>13.6</ele>
        <time>2018-12-30T10:22:37Z</time>
      </trkpt>
      <trkpt lat="39.8831640" lon="3.0581060">
        <ele>13.6</ele>
        <time>2018-12-30T10:22:38Z</time>
      </trkpt>
      <trkpt lat="39.8831920" lon="3.0580230">
        <ele>13.6</ele>
        <time>2018-12-30T10:22:39Z</time>
      </trkpt>
      <trkpt lat="39.8832210" lon="3.0579410">
        <ele>13.6</ele>
        <time>2018-12-30T10:22:40Z</time>
      </trkpt>
      <trkpt lat="39.8832500" lon="3.0578600">
        <ele>13.7</ele>
        <time>2018-12-30T10:22:41Z</time>
      </trkpt>
      <trkpt lat="39.8832780" lon="3.0577790">
        <ele>13.7</ele>
        <time>2018-12-30T10:22:42Z</time>
      </trkpt>
      <trkpt lat="39.8833060" lon="3.0576980">
        <ele>13.8</ele>
        <time>2018-12-30T10:22:43Z</time>
      </trkpt>
      <trkpt lat="39.8833320" lon="3.0576170">
        <ele>13.9</ele>
        <time>2018-12-30T10:22:44Z</time>
      </trkpt>
      <trkpt lat="39.8833580" lon="3.0575340">
        <ele>14.1</ele>
        <time>2018-12-30T10:22:45Z</time>
      </trkpt>
      <trkpt lat="39.8833840" lon="3.0574510">
        <ele>14.5</ele>
        <time>2018-12-30T10:22:46Z</time>
      </trkpt>
      <trkpt lat="39.8834080" lon="3.0573680">
        <ele>14.6</ele>
        <time>2018-12-30T10:22:47Z</time>
      </trkpt>
      <trkpt lat="39.8834310" lon="3.0572840">
        <ele>14.7</ele>
        <time>2018-12-30T10:22:48Z</time>
      </trkpt>
      <trkpt lat="39.8834520" lon="3.0572000">
        <ele>14.8</ele>
        <time>2018-12-30T10:22:49Z</time>
      </trkpt>
      <trkpt lat="39.8834720" lon="3.0571150">
        <ele>15.0</ele>
        <time>2018-12-30T10:22:50Z</time>
      </trkpt>
      <trkpt lat="39.8834910" lon="3.0570300">
        <ele>15.1</ele>
        <time>2018-12-30T10:22:51Z</time>
      </trkpt>
      <trkpt lat="39.8835110" lon="3.0569450">
        <ele>15.2</ele>
        <time>2018-12-30T10:22:52Z</time>
      </trkpt>
      <trkpt lat="39.8835320" lon="3.0568620">
        <ele>15.3</ele>
        <time>2018-12-30T10:22:53Z</time>
      </trkpt>
      <trkpt lat="39.8835550" lon="3.0567790">
        <ele>15.4</ele>
        <time>2018-12-30T10:22:54Z</time>
      </trkpt>
      <trkpt lat="39.8835790" lon="3.0566960">
        <ele>15.4</ele>
        <time>2018-12-30T10:22:55Z</time>
      </trkpt>
      <trkpt lat="39.8836030" lon="3.0566130">
        <ele>15.5</ele>
        <time>2018-12-30T10:22:56Z</time>
      </trkpt>
      <trkpt lat="39.8836270" lon="3.0565320">
        <ele>15.6</ele>
        <time>2018-12-30T10:22:57Z</time>
      </trkpt>
      <trkpt lat="39.8836510" lon="3.0564530">
        <ele>15.7</ele>
        <time>2018-12-30T10:22:58Z</time>
      </trkpt>
      <trkpt lat="39.8836750" lon="3.0563760">
        <ele>15.8</ele>
        <time>2018-12-30T10:22:59Z</time>
      </trkpt>
      <trkpt lat="39.8837010" lon="3.0563010">
        <ele>15.9</ele>
        <time>2018-12-30T10:23:00Z</time>
      </trkpt>
      <trkpt lat="39.8837280" lon="3.0562270">
        <ele>15.9</ele>
        <time>2018-12-30T10:23:01Z</time>
      </trkpt>
      <trkpt lat="39.8837550" lon="3.0561530">
        <ele>15.9</ele>
        <time>2018-12-30T10:23:02Z</time>
      </trkpt>
      <trkpt lat="39.8837810" lon="3.0560770">
        <ele>15.9</ele>
        <time>2018-12-30T10:23:03Z</time>
      </trkpt>
      <trkpt lat="39.8838080" lon="3.0560000">
        <ele>15.9</ele>
        <time>2018-12-30T10:23:04Z</time>
      </trkpt>
      <trkpt lat="39.8838360" lon="3.0559230">
        <ele>15.9</ele>
        <time>2018-12-30T10:23:05Z</time>
      </trkpt>
      <trkpt lat="39.8838640" lon="3.0558450">
        <ele>15.8</ele>
        <time>2018-12-30T10:23:06Z</time>
      </trkpt>
      <trkpt lat="39.8838920" lon="3.0557670">
        <ele>15.7</ele>
        <time>2018-12-30T10:23:07Z</time>
      </trkpt>
      <trkpt lat="39.8839200" lon="3.0556870">
        <ele>15.6</ele>
        <time>2018-12-30T10:23:08Z</time>
      </trkpt>
      <trkpt lat="39.8839480" lon="3.0556070">
        <ele>15.5</ele>
        <time>2018-12-30T10:23:09Z</time>
      </trkpt>
      <trkpt lat="39.8839760" lon="3.0555270">
        <ele>15.5</ele>
        <time>2018-12-30T10:23:10Z</time>
      </trkpt>
      <trkpt lat="39.8840060" lon="3.0554480">
        <ele>15.4</ele>
        <time>2018-12-30T10:23:11Z</time>
      </trkpt>
      <trkpt lat="39.8840350" lon="3.0553690">
        <ele>15.3</ele>
        <time>2018-12-30T10:23:12Z</time>
      </trkpt>
      <trkpt lat="39.8840640" lon="3.0552890">
        <ele>15.2</ele>
        <time>2018-12-30T10:23:13Z</time>
      </trkpt>
      <trkpt lat="39.8840930" lon="3.0552090">
        <ele>15.2</ele>
        <time>2018-12-30T10:23:14Z</time>
      </trkpt>
      <trkpt lat="39.8841210" lon="3.0551290">
        <ele>15.1</ele>
        <time>2018-12-30T10:23:15Z</time>
      </trkpt>
      <trkpt lat="39.8841510" lon="3.0550500">
        <ele>15.1</ele>
        <time>2018-12-30T10:23:16Z</time>
      </trkpt>
      <trkpt lat="39.8841810" lon="3.0549720">
        <ele>15.1</ele>
        <time>2018-12-30T10:23:17Z</time>
      </trkpt>
      <trkpt lat="39.8842120" lon="3.0548940">
        <ele>15.0</ele>
        <time>2018-12-30T10:23:18Z</time>
      </trkpt>
      <trkpt lat="39.8842430" lon="3.0548150">
        <ele>15.0</ele>
        <time>2018-12-30T10:23:19Z</time>
      </trkpt>
      <trkpt lat="39.8842720" lon="3.0547350">
        <ele>14.9</ele>
        <time>2018-12-30T10:23:20Z</time>
      </trkpt>
      <trkpt lat="39.8843010" lon="3.0546550">
        <ele>14.9</ele>
        <time>2018-12-30T10:23:21Z</time>
      </trkpt>
      <trkpt lat="39.8843270" lon="3.0545730">
        <ele>14.9</ele>
        <time>2018-12-30T10:23:22Z</time>
      </trkpt>
      <trkpt lat="39.8843530" lon="3.0544900">
        <ele>14.8</ele>
        <time>2018-12-30T10:23:23Z</time>
      </trkpt>
      <trkpt lat="39.8843780" lon="3.0544060">
        <ele>14.8</ele>
        <time>2018-12-30T10:23:24Z</time>
      </trkpt>
      <trkpt lat="39.8844030" lon="3.0543220">
        <ele>15.0</ele>
        <time>2018-12-30T10:23:25Z</time>
      </trkpt>
      <trkpt lat="39.8844280" lon="3.0542380">
        <ele>15.1</ele>
        <time>2018-12-30T10:23:26Z</time>
      </trkpt>
      <trkpt lat="39.8844520" lon="3.0541530">
        <ele>15.3</ele>
        <time>2018-12-30T10:23:27Z</time>
      </trkpt>
      <trkpt lat="39.8844740" lon="3.0540670">
        <ele>15.4</ele>
        <time>2018-12-30T10:23:28Z</time>
      </trkpt>
      <trkpt lat="39.8844950" lon="3.0539820">
        <ele>15.7</ele>
        <time>2018-12-30T10:23:29Z</time>
      </trkpt>
      <trkpt lat="39.8845130" lon="3.0538960">
        <ele>16.0</ele>
        <time>2018-12-30T10:23:30Z</time>
      </trkpt>
      <trkpt lat="39.8845290" lon="3.0538100">
        <ele>16.1</ele>
        <time>2018-12-30T10:23:31Z</time>
      </trkpt>
      <trkpt lat="39.8845430" lon="3.0537240">
        <ele>16.3</ele>
        <time>2018-12-30T10:23:32Z</time>
      </trkpt>
      <trkpt lat="39.8845590" lon="3.0536390">
        <ele>16.5</ele>
        <time>2018-12-30T10:23:33Z</time>
      </trkpt>
      <trkpt lat="39.8845740" lon="3.0535550">
        <ele>16.7</ele>
        <time>2018-12-30T10:23:34Z</time>
      </trkpt>
      <trkpt lat="39.8845890" lon="3.0534710">
        <ele>16.9</ele>
        <time>2018-12-30T10:23:35Z</time>
      </trkpt>
      <trkpt lat="39.8846050" lon="3.0533880">
        <ele>17.1</ele>
        <time>2018-12-30T10:23:36Z</time>
      </trkpt>
      <trkpt lat="39.8846200" lon="3.0533050">
        <ele>17.3</ele>
        <time>2018-12-30T10:23:37Z</time>
      </trkpt>
      <trkpt lat="39.8846340" lon="3.0532220">
        <ele>17.4</ele>
        <time>2018-12-30T10:23:38Z</time>
      </trkpt>
      <trkpt lat="39.8846490" lon="3.0531390">
        <ele>17.6</ele>
        <time>2018-12-30T10:23:39Z</time>
      </trkpt>
      <trkpt lat="39.8846640" lon="3.0530580">
        <ele>17.8</ele>
        <time>2018-12-30T10:23:40Z</time>
      </trkpt>
      <trkpt lat="39.8846790" lon="3.0529770">
        <ele>18.0</ele>
        <time>2018-12-30T10:23:41Z</time>
      </trkpt>
      <trkpt lat="39.8846950" lon="3.0528960">
        <ele>18.2</ele>
        <time>2018-12-30T10:23:42Z</time>
      </trkpt>
      <trkpt lat="39.8847100" lon="3.0528160">
        <ele>18.4</ele>
        <time>2018-12-30T10:23:43Z</time>
      </trkpt>
      <trkpt lat="39.8847250" lon="3.0527360">
        <ele>18.7</ele>
        <time>2018-12-30T10:23:44Z</time>
      </trkpt>
      <trkpt lat="39.8847400" lon="3.0526570">
        <ele>18.8</ele>
        <time>2018-12-30T10:23:45Z</time>
      </trkpt>
      <trkpt lat="39.8847540" lon="3.0525770">
        <ele>18.8</ele>
        <time>2018-12-30T10:23:46Z</time>
      </trkpt>
      <trkpt lat="39.8847690" lon="3.0524980">
        <ele>18.9</ele>
        <time>2018-12-30T10:23:47Z</time>
      </trkpt>
      <trkpt lat="39.8847830" lon="3.0524180">
        <ele>19.0</ele>
        <time>2018-12-30T10:23:48Z</time>
      </trkpt>
      <trkpt lat="39.8847970" lon="3.0523390">
        <ele>19.0</ele>
        <time>2018-12-30T10:23:49Z</time>
      </trkpt>
      <trkpt lat="39.8848110" lon="3.0522600">
        <ele>19.1</ele>
        <time>2018-12-30T10:23:50Z</time>
      </trkpt>
      <trkpt lat="39.8848250" lon="3.0521820">
        <ele>19.2</ele>
        <time>2018-12-30T10:23:51Z</time>
      </trkpt>
      <trkpt lat="39.8848400" lon="3.0521030">
        <ele>19.3</ele>
        <time>2018-12-30T10:23:52Z</time>
      </trkpt>
      <trkpt lat="39.8848550" lon="3.0520250">
        <ele>19.4</ele>
        <time>2018-12-30T10:23:53Z</time>
      </trkpt>
      <trkpt lat="39.8848690" lon="3.0519470">
        <ele>19.5</ele>
        <time>2018-12-30T10:23:54Z</time>
      </trkpt>
      <trkpt lat="39.8848840" lon="3.0518680">
        <ele>19.5</ele>
        <time>2018-12-30T10:23:55Z</time>
      </trkpt>
      <trkpt lat="39.8849000" lon="3.0517890">
        <ele>19.6</ele>
        <time>2018-12-30T10:23:56Z</time>
      </trkpt>
      <trkpt lat="39.8849170" lon="3.0517100">
        <ele>19.7</ele>
        <time>2018-12-30T10:23:57Z</time>
      </trkpt>
      <trkpt lat="39.8849340" lon="3.0516320">
        <ele>19.8</ele>
        <time>2018-12-30T10:23:58Z</time>
      </trkpt>
      <trkpt lat="39.8849510" lon="3.0515520">
        <ele>19.9</ele>
        <time>2018-12-30T10:23:59Z</time>
      </trkpt>
      <trkpt lat="39.8849660" lon="3.0514720">
        <ele>19.9</ele>
        <time>2018-12-30T10:24:00Z</time>
      </trkpt>
      <trkpt lat="39.8849800" lon="3.0513910">
        <ele>20.0</ele>
        <time>2018-12-30T10:24:01Z</time>
      </trkpt>
      <trkpt lat="39.8849930" lon="3.0513110">
        <ele>20.0</ele>
        <time>2018-12-30T10:24:02Z</time>
      </trkpt>
      <trkpt lat="39.8850060" lon="3.0512310">
        <ele>20.0</ele>
        <time>2018-12-30T10:24:03Z</time>
      </trkpt>
      <trkpt lat="39.8850190" lon="3.0511520">
        <ele>20.0</ele>
        <time>2018-12-30T10:24:04Z</time>
      </trkpt>
      <trkpt lat="39.8850310" lon="3.0510720">
        <ele>20.0</ele>
        <time>2018-12-30T10:24:05Z</time>
      </trkpt>
      <trkpt lat="39.8850430" lon="3.0509940">
        <ele>19.9</ele>
        <time>2018-12-30T10:24:06Z</time>
      </trkpt>
      <trkpt lat="39.8850540" lon="3.0509170">
        <ele>19.9</ele>
        <time>2018-12-30T10:24:07Z</time>
      </trkpt>
      <trkpt lat="39.8850660" lon="3.0508400">
        <ele>19.9</ele>
        <time>2018-12-30T10:24:08Z</time>
      </trkpt>
      <trkpt lat="39.8850790" lon="3.0507630">
        <ele>19.9</ele>
        <time>2018-12-30T10:24:09Z</time>
      </trkpt>
      <trkpt lat="39.8850920" lon="3.0506860">
        <ele>19.8</ele>
        <time>2018-12-30T10:24:10Z</time>
      </trkpt>
      <trkpt lat="39.8851050" lon="3.0506090">
        <ele>19.8</ele>
        <time>2018-12-30T10:24:11Z</time>
      </trkpt>
      <trkpt lat="39.8851180" lon="3.0505310">
        <ele>19.8</ele>
        <time>2018-12-30T10:24:12Z</time>
      </trkpt>
      <trkpt lat="39.8851310" lon="3.0504540">
        <ele>19.8</ele>
        <time>2018-12-30T10:24:13Z</time>
      </trkpt>
      <trkpt lat="39.8851450" lon="3.0503750">
        <ele>19.8</ele>
        <time>2018-12-30T10:24:14Z</time>
      </trkpt>
      <trkpt lat="39.8851600" lon="3.0502950">
        <ele>19.8</ele>
        <time>2018-12-30T10:24:15Z</time>
      </trkpt>
      <trkpt lat="39.8851770" lon="3.0502150">
        <ele>19.9</ele>
        <time>2018-12-30T10:24:16Z</time>
      </trkpt>
      <trkpt lat="39.8851920" lon="3.0501340">
        <ele>20.0</ele>
        <time>2018-12-30T10:24:17Z</time>
      </trkpt>
      <trkpt lat="39.8852050" lon="3.0500510">
        <ele>20.1</ele>
        <time>2018-12-30T10:24:18Z</time>
      </trkpt>
      <trkpt lat="39.8852140" lon="3.0499690">
        <ele>20.2</ele>
        <time>2018-12-30T10:24:19Z</time>
      </trkpt>
      <trkpt lat="39.8852190" lon="3.0498850">
        <ele>20.3</ele>
        <time>2018-12-30T10:24:20Z</time>
      </trkpt>
      <trkpt lat="39.8852180" lon="3.0498040">
        <ele>20.3</ele>
        <time>2018-12-30T10:24:21Z</time>
      </trkpt>
      <trkpt lat="39.8852090" lon="3.0497210">
        <ele>20.4</ele>
        <time>2018-12-30T10:24:22Z</time>
      </trkpt>
      <trkpt lat="39.8851960" lon="3.0496400">
        <ele>20.5</ele>
        <time>2018-12-30T10:24:23Z</time>
      </trkpt>
      <trkpt lat="39.8851800" lon="3.0495570">
        <ele>20.6</ele>
        <time>2018-12-30T10:24:24Z</time>
      </trkpt>
      <trkpt lat="39.8851630" lon="3.0494750">
        <ele>20.7</ele>
        <time>2018-12-30T10:24:25Z</time>
      </trkpt>
      <trkpt lat="39.8851440" lon="3.0493940">
        <ele>20.8</ele>
        <time>2018-12-30T10:24:26Z</time>
      </trkpt>
      <trkpt lat="39.8851240" lon="3.0493140">
        <ele>21.0</ele>
        <time>2018-12-30T10:24:27Z</time>
      </trkpt>
      <trkpt lat="39.8851000" lon="3.0492350">
        <ele>21.1</ele>
        <time>2018-12-30T10:24:28Z</time>
      </trkpt>
      <trkpt lat="39.8850740" lon="3.0491570">
        <ele>21.3</ele>
        <time>2018-12-30T10:24:29Z</time>
      </trkpt>
      <trkpt lat="39.8850460" lon="3.0490790">
        <ele>21.4</ele>
        <time>2018-12-30T10:24:30Z</time>
      </trkpt>
      <trkpt lat="39.8850190" lon="3.0490010">
        <ele>21.5</ele>
        <time>2018-12-30T10:24:31Z</time>
      </trkpt>
      <trkpt lat="39.8849910" lon="3.0489220">
        <ele>21.6</ele>
        <time>2018-12-30T10:24:32Z</time>
      </trkpt>
      <trkpt lat="39.8849630" lon="3.0488420">
        <ele>21.7</ele>
        <time>2018-12-30T10:24:33Z</time>
      </trkpt>
      <trkpt lat="39.8849330" lon="3.0487620">
        <ele>21.8</ele>
        <time>2018-12-30T10:24:34Z</time>
      </trkpt>
      <trkpt lat="39.8849030" lon="3.0486820">
        <ele>22.0</ele>
        <time>2018-12-30T10:24:35Z</time>
      </trkpt>
      <trkpt lat="39.8848740" lon="3.0486010">
        <ele>22.1</ele>
        <time>2018-12-30T10:24:36Z</time>
      </trkpt>
      <trkpt lat="39.8848470" lon="3.0485190">
        <ele>22.3</ele>
        <time>2018-12-30T10:24:37Z</time>
      </trkpt>
      <trkpt lat="39.8848200" lon="3.0484370">
        <ele>22.4</ele>
        <time>2018-12-30T10:24:38Z</time>
      </trkpt>
      <trkpt lat="39.8847940" lon="3.0483540">
        <ele>22.5</ele>
        <time>2018-12-30T10:24:39Z</time>
      </trkpt>
      <trkpt lat="39.8847670" lon="3.0482710">
        <ele>22.7</ele>
        <time>2018-12-30T10:24:40Z</time>
      </trkpt>
      <trkpt lat="39.8847400" lon="3.0481880">
        <ele>22.8</ele>
        <time>2018-12-30T10:24:41Z</time>
      </trkpt>
      <trkpt lat="39.8847120" lon="3.0481050">
        <ele>23.0</ele>
        <time>2018-12-30T10:24:42Z</time>
      </trkpt>
      <trkpt lat="39.8846830" lon="3.0480230">
        <ele>23.1</ele>
        <time>2018-12-30T10:24:43Z</time>
      </trkpt>
      <trkpt lat="39.8846520" lon="3.0479400">
        <ele>23.1</ele>
        <time>2018-12-30T10:24:44Z</time>
      </trkpt>
      <trkpt lat="39.8846200" lon="3.0478590">
        <ele>23.1</ele>
        <time>2018-12-30T10:24:45Z</time>
      </trkpt>
      <trkpt lat="39.8845900" lon="3.0477770">
        <ele>23.2</ele>
        <time>2018-12-30T10:24:46Z</time>
      </trkpt>
      <trkpt lat="39.8845600" lon="3.0476950">
        <ele>23.2</ele>
        <time>2018-12-30T10:24:47Z</time>
      </trkpt>
      <trkpt lat="39.8845300" lon="3.0476130">
        <ele>23.3</ele>
        <time>2018-12-30T10:24:48Z</time>
      </trkpt>
      <trkpt lat="39.8844990" lon="3.0475320">
        <ele>23.4</ele>
        <time>2018-12-30T10:24:49Z</time>
      </trkpt>
      <trkpt lat="39.8844680" lon="3.0474510">
        <ele>23.6</ele>
        <time>2018-12-30T10:24:50Z</time>
      </trkpt>
      <trkpt lat="39.8844370" lon="3.0473700">
        <ele>23.8</ele>
        <time>2018-12-30T10:24:51Z</time>
      </trkpt>
      <trkpt lat="39.8844080" lon="3.0472880">
        <ele>24.0</ele>
        <time>2018-12-30T10:24:52Z</time>
      </trkpt>
      <trkpt lat="39.8843800" lon="3.0472050">
        <ele>24.2</ele>
        <time>2018-12-30T10:24:53Z</time>
      </trkpt>
      <trkpt lat="39.8843530" lon="3.0471210">
        <ele>24.2</ele>
        <time>2018-12-30T10:24:54Z</time>
      </trkpt>
      <trkpt lat="39.8843240" lon="3.0470380">
        <ele>24.3</ele>
        <time>2018-12-30T10:24:55Z</time>
      </trkpt>
      <trkpt lat="39.8842950" lon="3.0469560">
        <ele>24.3</ele>
        <time>2018-12-30T10:24:56Z</time>
      </trkpt>
      <trkpt lat="39.8842670" lon="3.0468750">
        <ele>24.3</ele>
        <time>2018-12-30T10:24:57Z</time>
      </trkpt>
      <trkpt lat="39.8842390" lon="3.0467950">
        <ele>24.3</ele>
        <time>2018-12-30T10:24:58Z</time>
      </trkpt>
      <trkpt lat="39.8842110" lon="3.0467150">
        <ele>24.3</ele>
        <time>2018-12-30T10:24:59Z</time>
      </trkpt>
      <trkpt lat="39.8841820" lon="3.0466340">
        <ele>24.4</ele>
        <time>2018-12-30T10:25:00Z</time>
      </trkpt>
      <trkpt lat="39.8841530" lon="3.0465540">
        <ele>24.4</ele>
        <time>2018-12-30T10:25:01Z</time>
      </trkpt>
      <trkpt lat="39.8841240" lon="3.0464730">
        <ele>24.5</ele>
        <time>2018-12-30T10:25:02Z</time>
      </trkpt>
      <trkpt lat="39.8840970" lon="3.0463930">
        <ele>24.5</ele>
        <time>2018-12-30T10:25:03Z</time>
      </trkpt>
      <trkpt lat="39.8840690" lon="3.0463130">
        <ele>24.6</ele>
        <time>2018-12-30T10:25:04Z</time>
      </trkpt>
      <trkpt lat="39.8840410" lon="3.0462330">
        <ele>24.6</ele>
        <time>2018-12-30T10:25:05Z</time>
      </trkpt>
      <trkpt lat="39.8840130" lon="3.0461530">
        <ele>24.7</ele>
        <time>2018-12-30T10:25:06Z</time>
      </trkpt>
      <trkpt lat="39.8839860" lon="3.0460740">
        <ele>24.8</ele>
        <time>2018-12-30T10:25:07Z</time>
      </trkpt>
      <trkpt lat="39.8839590" lon="3.0459940">
        <ele>24.8</ele>
        <time>2018-12-30T10:25:08Z</time>
      </trkpt>
      <trkpt lat="39.8839320" lon="3.0459130">
        <ele>24.9</ele>
        <time>2018-12-30T10:25:09Z</time>
      </trkpt>
      <trkpt lat="39.8839060" lon="3.0458330">
        <ele>24.9</ele>
        <time>2018-12-30T10:25:10Z</time>
      </trkpt>
      <trkpt lat="39.8838800" lon="3.0457530">
        <ele>24.9</ele>
        <time>2018-12-30T10:25:11Z</time>
      </trkpt>
      <trkpt lat="39.8838550" lon="3.0456730">
        <ele>25.0</ele>
        <time>2018-12-30T10:25:12Z</time>
      </trkpt>
      <trkpt lat="39.8838310" lon="3.0455930">
        <ele>25.0</ele>
        <time>2018-12-30T10:25:13Z</time>
      </trkpt>
      <trkpt lat="39.8838080" lon="3.0455140">
        <ele>25.0</ele>
        <time>2018-12-30T10:25:14Z</time>
      </trkpt>
      <trkpt lat="39.8837860" lon="3.0454330">
        <ele>25.0</ele>
        <time>2018-12-30T10:25:15Z</time>
      </trkpt>
      <trkpt lat="39.8837690" lon="3.0453510">
        <ele>25.0</ele>
        <time>2018-12-30T10:25:16Z</time>
      </trkpt>
      <trkpt lat="39.8837580" lon="3.0452670">
        <ele>25.0</ele>
        <time>2018-12-30T10:25:17Z</time>
      </trkpt>
      <trkpt lat="39.8837520" lon="3.0451810">
        <ele>25.2</ele>
        <time>2018-12-30T10:25:18Z</time>
      </trkpt>
      <trkpt lat="39.8837500" lon="3.0450950">
        <ele>25.4</ele>
        <time>2018-12-30T10:25:19Z</time>
      </trkpt>
      <trkpt lat="39.8837500" lon="3.0450090">
        <ele>25.6</ele>
        <time>2018-12-30T10:25:20Z</time>
      </trkpt>
      <trkpt lat="39.8837520" lon="3.0449220">
        <ele>25.8</ele>
        <time>2018-12-30T10:25:21Z</time>
      </trkpt>
      <trkpt lat="39.8837550" lon="3.0448350">
        <ele>26.0</ele>
        <time>2018-12-30T10:25:22Z</time>
      </trkpt>
      <trkpt lat="39.8837590" lon="3.0447470">
        <ele>26.3</ele>
        <time>2018-12-30T10:25:23Z</time>
      </trkpt>
      <trkpt lat="39.8837640" lon="3.0446600">
        <ele>26.5</ele>
        <time>2018-12-30T10:25:24Z</time>
      </trkpt>
      <trkpt lat="39.8837740" lon="3.0445740">
        <ele>26.7</ele>
        <time>2018-12-30T10:25:25Z</time>
      </trkpt>
      <trkpt lat="39.8837860" lon="3.0444890">
        <ele>26.9</ele>
        <time>2018-12-30T10:25:26Z</time>
      </trkpt>
      <trkpt lat="39.8838010" lon="3.0444060">
        <ele>27.0</ele>
        <time>2018-12-30T10:25:27Z</time>
      </trkpt>
      <trkpt lat="39.8838160" lon="3.0443230">
        <ele>27.2</ele>
        <time>2018-12-30T10:25:28Z</time>
      </trkpt>
      <trkpt lat="39.8838320" lon="3.0442400">
        <ele>27.3</ele>
        <time>2018-12-30T10:25:29Z</time>
      </trkpt>
      <trkpt lat="39.8838480" lon="3.0441570">
        <ele>27.4</ele>
        <time>2018-12-30T10:25:30Z</time>
      </trkpt>
      <trkpt lat="39.8838640" lon="3.0440730">
        <ele>27.5</ele>
        <time>2018-12-30T10:25:31Z</time>
      </trkpt>
      <trkpt lat="39.8838810" lon="3.0439890">
        <ele>27.7</ele>
        <time>2018-12-30T10:25:32Z</time>
      </trkpt>
      <trkpt lat="39.8838970" lon="3.0439040">
        <ele>27.9</ele>
        <time>2018-12-30T10:25:33Z</time>
      </trkpt>
      <trkpt lat="39.8839110" lon="3.0438190">
        <ele>28.1</ele>
        <time>2018-12-30T10:25:34Z</time>
      </trkpt>
      <trkpt lat="39.8839240" lon="3.0437360">
        <ele>28.3</ele>
        <time>2018-12-30T10:25:35Z</time>
      </trkpt>
      <trkpt lat="39.8839320" lon="3.0436530">
        <ele>28.4</ele>
        <time>2018-12-30T10:25:36Z</time>
      </trkpt>
      <trkpt lat="39.8839380" lon="3.0435710">
        <ele>28.6</ele>
        <time>2018-12-30T10:25:37Z</time>
      </trkpt>
      <trkpt lat="39.8839400" lon="3.0434870">
        <ele>28.7</ele>
        <time>2018-12-30T10:25:38Z</time>
      </trkpt>
      <trkpt lat="39.8839370" lon="3.0434030">
        <ele>28.9</ele>
        <time>2018-12-30T10:25:39Z</time>
      </trkpt>
      <trkpt lat="39.8839300" lon="3.0433170">
        <ele>29.0</ele>
        <time>2018-12-30T10:25:40Z</time>
      </trkpt>
      <trkpt lat="39.8839200" lon="3.0432310">
        <ele>29.1</ele>
        <time>2018-12-30T10:25:41Z</time>
      </trkpt>
      <trkpt lat="39.8839110" lon="3.0431450">
        <ele>29.2</ele>
        <time>2018-12-30T10:25:42Z</time>
      </trkpt>
      <trkpt lat="39.8839010" lon="3.0430590">
        <ele>29.3</ele>
        <time>2018-12-30T10:25:43Z</time>
      </trkpt>
      <trkpt lat="39.8838930" lon="3.0429730">
        <ele>29.5</ele>
        <time>2018-12-30T10:25:44Z</time>
      </trkpt>
      <trkpt lat="39.8838850" lon="3.0428880">
        <ele>29.5</ele>
        <time>2018-12-30T10:25:45Z</time>
      </trkpt>
      <trkpt lat="39.8838770" lon="3.0428030">
        <ele>29.5</ele>
        <time>2018-12-30T10:25:46Z</time>
      </trkpt>
      <trkpt lat="39.8838670" lon="3.0427180">
        <ele>29.6</ele>
        <time>2018-12-30T10:25:47Z</time>
      </trkpt>
      <trkpt lat="39.8838560" lon="3.0426320">
        <ele>29.6</ele>
        <time>2018-12-30T10:25:48Z</time>
      </trkpt>
      <trkpt lat="39.8838420" lon="3.0425460">
        <ele>29.6</ele>
        <time>2018-12-30T10:25:49Z</time>
      </trkpt>
      <trkpt lat="39.8838280" lon="3.0424610">
        <ele>29.6</ele>
        <time>2018-12-30T10:25:50Z</time>
      </trkpt>
      <trkpt lat="39.8838140" lon="3.0423740">
        <ele>29.7</ele>
        <time>2018-12-30T10:25:51Z</time>
      </trkpt>
      <trkpt lat="39.8837990" lon="3.0422870">
        <ele>29.7</ele>
        <time>2018-12-30T10:25:52Z</time>
      </trkpt>
      <trkpt lat="39.8837840" lon="3.0422000">
        <ele>29.7</ele>
        <time>2018-12-30T10:25:53Z</time>
      </trkpt>
      <trkpt lat="39.8837670" lon="3.0421120">
        <ele>29.7</ele>
        <time>2018-12-30T10:25:54Z</time>
      </trkpt>
      <trkpt lat="39.8837510" lon="3.0420260">
        <ele>29.7</ele>
        <time>2018-12-30T10:25:55Z</time>
      </trkpt>
      <trkpt lat="39.8837340" lon="3.0419390">
        <ele>29.7</ele>
        <time>2018-12-30T10:25:56Z</time>
      </trkpt>
      <trkpt lat="39.8837180" lon="3.0418520">
        <ele>29.7</ele>
        <time>2018-12-30T10:25:57Z</time>
      </trkpt>
      <trkpt lat="39.8837030" lon="3.0417650">
        <ele>29.8</ele>
        <time>2018-12-30T10:25:58Z</time>
      </trkpt>
      <trkpt lat="39.8836890" lon="3.0416790">
        <ele>29.8</ele>
        <time>2018-12-30T10:25:59Z</time>
      </trkpt>
      <trkpt lat="39.8836760" lon="3.0415930">
        <ele>29.8</ele>
        <time>2018-12-30T10:26:00Z</time>
      </trkpt>
      <trkpt lat="39.8836620" lon="3.0415080">
        <ele>29.9</ele>
        <time>2018-12-30T10:26:01Z</time>
      </trkpt>
      <trkpt lat="39.8836500" lon="3.0414220">
        <ele>29.9</ele>
        <time>2018-12-30T10:26:02Z</time>
      </trkpt>
      <trkpt lat="39.8836370" lon="3.0413370">
        <ele>30.0</ele>
        <time>2018-12-30T10:26:03Z</time>
      </trkpt>
      <trkpt lat="39.8836240" lon="3.0412510">
        <ele>30.0</ele>
        <time>2018-12-30T10:26:04Z</time>
      </trkpt>
      <trkpt lat="39.8836110" lon="3.0411670">
        <ele>30.1</ele>
        <time>2018-12-30T10:26:05Z</time>
      </trkpt>
      <trkpt lat="39.8835970" lon="3.0410830">
        <ele>30.1</ele>
        <time>2018-12-30T10:26:06Z</time>
      </trkpt>
      <trkpt lat="39.8835810" lon="3.0409990">
        <ele>30.2</ele>
        <time>2018-12-30T10:26:07Z</time>
      </trkpt>
      <trkpt lat="39.8835630" lon="3.0409150">
        <ele>30.2</ele>
        <time>2018-12-30T10:26:08Z</time>
      </trkpt>
      <trkpt lat="39.8835440" lon="3.0408310">
        <ele>30.2</ele>
        <time>2018-12-30T10:26:09Z</time>
      </trkpt>
      <trkpt lat="39.8835280" lon="3.0407480">
        <ele>30.3</ele>
        <time>2018-12-30T10:26:10Z</time>
      </trkpt>
      <trkpt lat="39.8835120" lon="3.0406650">
        <ele>30.3</ele>
        <time>2018-12-30T10:26:11Z</time>
      </trkpt>
      <trkpt lat="39.8834960" lon="3.0405810">
        <ele>30.4</ele>
        <time>2018-12-30T10:26:12Z</time>
      </trkpt>
      <trkpt lat="39.8834800" lon="3.0404970">
        <ele>30.4</ele>
        <time>2018-12-30T10:26:13Z</time>
      </trkpt>
      <trkpt lat="39.8834640" lon="3.0404120">
        <ele>30.4</ele>
        <time>2018-12-30T10:26:14Z</time>
      </trkpt>
      <trkpt lat="39.8834470" lon="3.0403280">
        <ele>30.5</ele>
        <time>2018-12-30T10:26:15Z</time>
      </trkpt>
      <trkpt lat="39.8834300" lon="3.0402430">
        <ele>30.5</ele>
        <time>2018-12-30T10:26:16Z</time>
      </trkpt>
      <trkpt lat="39.8834140" lon="3.0401570">
        <ele>30.7</ele>
        <time>2018-12-30T10:26:17Z</time>
      </trkpt>
      <trkpt lat="39.8833970" lon="3.0400700">
        <ele>30.8</ele>
        <time>2018-12-30T10:26:18Z</time>
      </trkpt>
      <trkpt lat="39.8833800" lon="3.0399840">
        <ele>30.9</ele>
        <time>2018-12-30T10:26:19Z</time>
      </trkpt>
      <trkpt lat="39.8833620" lon="3.0398990">
        <ele>31.0</ele>
        <time>2018-12-30T10:26:20Z</time>
      </trkpt>
      <trkpt lat="39.8833450" lon="3.0398130">
        <ele>31.1</ele>
        <time>2018-12-30T10:26:21Z</time>
      </trkpt>
      <trkpt lat="39.8833270" lon="3.0397270">
        <ele>31.2</ele>
        <time>2018-12-30T10:26:22Z</time>
      </trkpt>
      <trkpt lat="39.8833100" lon="3.0396410">
        <ele>31.3</ele>
        <time>2018-12-30T10:26:23Z</time>
      </trkpt>
      <trkpt lat="39.8832930" lon="3.0395540">
        <ele>31.3</ele>
        <time>2018-12-30T10:26:24Z</time>
      </trkpt>
      <trkpt lat="39.8832770" lon="3.0394670">
        <ele>31.4</ele>
        <time>2018-12-30T10:26:25Z</time>
      </trkpt>
      <trkpt lat="39.8832600" lon="3.0393800">
        <ele>31.4</ele>
        <time>2018-12-30T10:26:26Z</time>
      </trkpt>
      <trkpt lat="39.8832430" lon="3.0392930">
        <ele>31.5</ele>
        <time>2018-12-30T10:26:27Z</time>
      </trkpt>
      <trkpt lat="39.8832260" lon="3.0392060">
        <ele>31.5</ele>
        <time>2018-12-30T10:26:28Z</time>
      </trkpt>
      <trkpt lat="39.8832110" lon="3.0391190">
        <ele>31.4</ele>
        <time>2018-12-30T10:26:29Z</time>
      </trkpt>
      <trkpt lat="39.8831960" lon="3.0390330">
        <ele>31.3</ele>
        <time>2018-12-30T10:26:30Z</time>
      </trkpt>
      <trkpt lat="39.8831810" lon="3.0389470">
        <ele>31.2</ele>
        <time>2018-12-30T10:26:31Z</time>
      </trkpt>
      <trkpt lat="39.8831650" lon="3.0388610">
        <ele>31.2</ele>
        <time>2018-12-30T10:26:32Z</time>
      </trkpt>
      <trkpt lat="39.8831490" lon="3.0387750">
        <ele>31.1</ele>
        <time>2018-12-30T10:26:33Z</time>
      </trkpt>
      <trkpt lat="39.8831330" lon="3.0386900">
        <ele>31.0</ele>
        <time>2018-12-30T10:26:34Z</time>
      </trkpt>
      <trkpt lat="39.8831170" lon="3.0386070">
        <ele>30.9</ele>
        <time>2018-12-30T10:26:35Z</time>
      </trkpt>
      <trkpt lat="39.8831020" lon="3.0385250">
        <ele>30.9</ele>
        <time>2018-12-30T10:26:36Z</time>
      </trkpt>
      <trkpt lat="39.8830870" lon="3.0384430">
        <ele>30.9</ele>
        <time>2018-12-30T10:26:37Z</time>
      </trkpt>
      <trkpt lat="39.8830730" lon="3.0383610">
        <ele>30.8</ele>
        <time>2018-12-30T10:26:38Z</time>
      </trkpt>
      <trkpt lat="39.8830600" lon="3.0382790">
        <ele>30.8</ele>
        <time>2018-12-30T10:26:39Z</time>
      </trkpt>
      <trkpt lat="39.8830490" lon="3.0381980">
        <ele>30.7</ele>
        <time>2018-12-30T10:26:40Z</time>
      </trkpt>
      <trkpt lat="39.8830440" lon="3.0381170">
        <ele>30.9</ele>
        <time>2018-12-30T10:26:41Z</time>
      </trkpt>
      <trkpt lat="39.8830520" lon="3.0380380">
        <ele>31.1</ele>
        <time>2018-12-30T10:26:42Z</time>
      </trkpt>
      <trkpt lat="39.8830690" lon="3.0379580">
        <ele>31.3</ele>
        <time>2018-12-30T10:26:43Z</time>
      </trkpt>
      <trkpt lat="39.8830910" lon="3.0378790">
        <ele>31.5</ele>
        <time>2018-12-30T10:26:44Z</time>
      </trkpt>
      <trkpt lat="39.8831110" lon="3.0377990">
        <ele>31.7</ele>
        <time>2018-12-30T10:26:45Z</time>
      </trkpt>
      <trkpt lat="39.8831320" lon="3.0377170">
        <ele>31.9</ele>
        <time>2018-12-30T10:26:46Z</time>
      </trkpt>
      <trkpt lat="39.8831520" lon="3.0376360">
        <ele>32.0</ele>
        <time>2018-12-30T10:26:47Z</time>
      </trkpt>
      <trkpt lat="39.8831720" lon="3.0375560">
        <ele>32.2</ele>
        <time>2018-12-30T10:26:48Z</time>
      </trkpt>
      <trkpt lat="39.8831950" lon="3.0374750">
        <ele>32.4</ele>
        <time>2018-12-30T10:26:49Z</time>
      </trkpt>
      <trkpt lat="39.8832190" lon="3.0373940">
        <ele>32.6</ele>
        <time>2018-12-30T10:26:50Z</time>
      </trkpt>
      <trkpt lat="39.8832450" lon="3.0373130">
        <ele>32.8</ele>
        <time>2018-12-30T10:26:51Z</time>
      </trkpt>
      <trkpt lat="39.8832710" lon="3.0372330">
        <ele>32.9</ele>
        <time>2018-12-30T10:26:52Z</time>
      </trkpt>
      <trkpt lat="39.8832960" lon="3.0371530">
        <ele>33.1</ele>
        <time>2018-12-30T10:26:53Z</time>
      </trkpt>
      <trkpt lat="39.8833210" lon="3.0370720">
        <ele>33.3</ele>
        <time>2018-12-30T10:26:54Z</time>
      </trkpt>
      <trkpt lat="39.8833470" lon="3.0369910">
        <ele>33.4</ele>
        <time>2018-12-30T10:26:55Z</time>
      </trkpt>
      <trkpt lat="39.8833720" lon="3.0369100">
        <ele>33.6</ele>
        <time>2018-12-30T10:26:56Z</time>
      </trkpt>
      <trkpt lat="39.8833950" lon="3.0368280">
        <ele>33.8</ele>
        <time>2018-12-30T10:26:57Z</time>
      </trkpt>
      <trkpt lat="39.8834140" lon="3.0367450">
        <ele>34.1</ele>
        <time>2018-12-30T10:26:58Z</time>
      </trkpt>
      <trkpt lat="39.8834280" lon="3.0366600">
        <ele>34.3</ele>
        <time>2018-12-30T10:26:59Z</time>
      </trkpt>
      <trkpt lat="39.8834350" lon="3.0365750">
        <ele>34.6</ele>
        <time>2018-12-30T10:27:00Z</time>
      </trkpt>
      <trkpt lat="39.8834380" lon="3.0364880">
        <ele>34.9</ele>
        <time>2018-12-30T10:27:01Z</time>
      </trkpt>
      <trkpt lat="39.8834370" lon="3.0364020">
        <ele>35.0</ele>
        <time>2018-12-30T10:27:02Z</time>
      </trkpt>
      <trkpt lat="39.8834340" lon="3.0363170">
        <ele>35.1</ele>
        <time>2018-12-30T10:27:03Z</time>
      </trkpt>
      <trkpt lat="39.8834290" lon="3.0362350">
        <ele>35.2</ele>
        <time>2018-12-30T10:27:04Z</time>
      </trkpt>
      <trkpt lat="39.8834200" lon="3.0361600">
        <ele>35.2</ele>
        <time>2018-12-30T10:27:05Z</time>
      </trkpt>
      <trkpt lat="39.8834050" lon="3.0360860">
        <ele>35.3</ele>
        <time>2018-12-30T10:27:06Z</time>
      </trkpt>
      <trkpt lat="39.8833870" lon="3.0360120">
        <ele>35.4</ele>
        <time>2018-12-30T10:27:07Z</time>
      </trkpt>
      <trkpt lat="39.8833620" lon="3.0359320">
        <ele>35.4</ele>
        <time>2018-12-30T10:27:08Z</time>
      </trkpt>
      <trkpt lat="39.8833310" lon="3.0358500">
        <ele>35.5</ele>
        <time>2018-12-30T10:27:09Z</time>
      </trkpt>
      <trkpt lat="39.8832970" lon="3.0357670">
        <ele>35.5</ele>
        <time>2018-12-30T10:27:10Z</time>
      </trkpt>
      <trkpt lat="39.8832640" lon="3.0356840">
        <ele>35.5</ele>
        <time>2018-12-30T10:27:11Z</time>
      </trkpt>
      <trkpt lat="39.8832330" lon="3.0356030">
        <ele>35.5</ele>
        <time>2018-12-30T10:27:12Z</time>
      </trkpt>
      <trkpt lat="39.8832010" lon="3.0355230">
        <ele>35.5</ele>
        <time>2018-12-30T10:27:13Z</time>
      </trkpt>
      <trkpt lat="39.8831690" lon="3.0354420">
        <ele>35.5</ele>
        <time>2018-12-30T10:27:14Z</time>
      </trkpt>
      <trkpt lat="39.8831380" lon="3.0353610">
        <ele>35.5</ele>
        <time>2018-12-30T10:27:15Z</time>
      </trkpt>
      <trkpt lat="39.8831070" lon="3.0352790">
        <ele>35.5</ele>
        <time>2018-12-30T10:27:16Z</time>
      </trkpt>
      <trkpt lat="39.8830770" lon="3.0351980">
        <ele>35.6</ele>
        <time>2018-12-30T10:27:17Z</time>
      </trkpt>
      <trkpt lat="39.8830490" lon="3.0351160">
        <ele>35.6</ele>
        <time>2018-12-30T10:27:18Z</time>
      </trkpt>
      <trkpt lat="39.8830260" lon="3.0350310">
        <ele>35.7</ele>
        <time>2018-12-30T10:27:19Z</time>
      </trkpt>
      <trkpt lat="39.8830100" lon="3.0349450">
        <ele>35.9</ele>
        <time>2018-12-30T10:27:20Z</time>
      </trkpt>
      <trkpt lat="39.8830010" lon="3.0348600">
        <ele>36.2</ele>
        <time>2018-12-30T10:27:21Z</time>
      </trkpt>
      <trkpt lat="39.8830000" lon="3.0347790">
        <ele>36.5</ele>
        <time>2018-12-30T10:27:22Z</time>
      </trkpt>
      <trkpt lat="39.8830010" lon="3.0347000">
        <ele>36.8</ele>
        <time>2018-12-30T10:27:23Z</time>
      </trkpt>
      <trkpt lat="39.8830040" lon="3.0346250">
        <ele>37.1</ele>
        <time>2018-12-30T10:27:24Z</time>
      </trkpt>
      <trkpt lat="39.8830080" lon="3.0345550">
        <ele>37.4</ele>
        <time>2018-12-30T10:27:25Z</time>
      </trkpt>
      <trkpt lat="39.8830120" lon="3.0344870">
        <ele>37.6</ele>
        <time>2018-12-30T10:27:26Z</time>
      </trkpt>
      <trkpt lat="39.8830160" lon="3.0344200">
        <ele>37.8</ele>
        <time>2018-12-30T10:27:27Z</time>
      </trkpt>
      <trkpt lat="39.8830190" lon="3.0343510">
        <ele>38.0</ele>
        <time>2018-12-30T10:27:28Z</time>
      </trkpt>
      <trkpt lat="39.8830210" lon="3.0342810">
        <ele>38.2</ele>
        <time>2018-12-30T10:27:29Z</time>
      </trkpt>
      <trkpt lat="39.8830230" lon="3.0342100">
        <ele>38.4</ele>
        <time>2018-12-30T10:27:30Z</time>
      </trkpt>
      <trkpt lat="39.8830260" lon="3.0341400">
        <ele>38.6</ele>
        <time>2018-12-30T10:27:31Z</time>
      </trkpt>
      <trkpt lat="39.8830280" lon="3.0340700">
        <ele>38.8</ele>
        <time>2018-12-30T10:27:32Z</time>
      </trkpt>
      <trkpt lat="39.8830290" lon="3.0339990">
        <ele>39.0</ele>
        <time>2018-12-30T10:27:33Z</time>
      </trkpt>
      <trkpt lat="39.8830300" lon="3.0339260">
        <ele>39.1</ele>
        <time>2018-12-30T10:27:34Z</time>
      </trkpt>
      <trkpt lat="39.8830300" lon="3.0338530">
        <ele>39.2</ele>
        <time>2018-12-30T10:27:35Z</time>
      </trkpt>
      <trkpt lat="39.8830300" lon="3.0337780">
        <ele>39.3</ele>
        <time>2018-12-30T10:27:36Z</time>
      </trkpt>
      <trkpt lat="39.8830310" lon="3.0337030">
        <ele>39.4</ele>
        <time>2018-12-30T10:27:37Z</time>
      </trkpt>
      <trkpt lat="39.8830330" lon="3.0336290">
        <ele>39.5</ele>
        <time>2018-12-30T10:27:38Z</time>
      </trkpt>
      <trkpt lat="39.8830360" lon="3.0335570">
        <ele>39.6</ele>
        <time>2018-12-30T10:27:39Z</time>
      </trkpt>
      <trkpt lat="39.8830410" lon="3.0334850">
        <ele>39.6</ele>
        <time>2018-12-30T10:27:40Z</time>
      </trkpt>
      <trkpt lat="39.8830500" lon="3.0334130">
        <ele>39.7</ele>
        <time>2018-12-30T10:27:41Z</time>
      </trkpt>
      <trkpt lat="39.8830620" lon="3.0333390">
        <ele>39.8</ele>
        <time>2018-12-30T10:27:42Z</time>
      </trkpt>
      <trkpt lat="39.8830750" lon="3.0332640">
        <ele>39.8</ele>
        <time>2018-12-30T10:27:43Z</time>
      </trkpt>
      <trkpt lat="39.8830860" lon="3.0331890">
        <ele>39.9</ele>
        <time>2018-12-30T10:27:44Z</time>
      </trkpt>
      <trkpt lat="39.8830970" lon="3.0331150">
        <ele>40.0</ele>
        <time>2018-12-30T10:27:45Z</time>
      </trkpt>
      <trkpt lat="39.8831080" lon="3.0330410">
        <ele>40.1</ele>
        <time>2018-12-30T10:27:46Z</time>
      </trkpt>
      <trkpt lat="39.8831180" lon="3.0329680">
        <ele>40.2</ele>
        <time>2018-12-30T10:27:47Z</time>
      </trkpt>
      <trkpt lat="39.8831280" lon="3.0328940">
        <ele>40.2</ele>
        <time>2018-12-30T10:27:48Z</time>
      </trkpt>
      <trkpt lat="39.8831380" lon="3.0328190">
        <ele>40.3</ele>
        <time>2018-12-30T10:27:49Z</time>
      </trkpt>
      <trkpt lat="39.8831510" lon="3.0327430">
        <ele>40.4</ele>
        <time>2018-12-30T10:27:50Z</time>
      </trkpt>
      <trkpt lat="39.8831630" lon="3.0326670">
        <ele>40.5</ele>
        <time>2018-12-30T10:27:51Z</time>
      </trkpt>
      <trkpt lat="39.8831740" lon="3.0325910">
        <ele>40.6</ele>
        <time>2018-12-30T10:27:52Z</time>
      </trkpt>
      <trkpt lat="39.8831840" lon="3.0325140">
        <ele>40.7</ele>
        <time>2018-12-30T10:27:53Z</time>
      </trkpt>
      <trkpt lat="39.8831930" lon="3.0324350">
        <ele>40.9</ele>
        <time>2018-12-30T10:27:54Z</time>
      </trkpt>
      <trkpt lat="39.8832030" lon="3.0323570">
        <ele>41.1</ele>
        <time>2018-12-30T10:27:55Z</time>
      </trkpt>
      <trkpt lat="39.8832120" lon="3.0322770">
        <ele>41.2</ele>
        <time>2018-12-30T10:27:56Z</time>
      </trkpt>
      <trkpt lat="39.8832210" lon="3.0321980">
        <ele>41.3</ele>
        <time>2018-12-30T10:27:57Z</time>
      </trkpt>
      <trkpt lat="39.8832300" lon="3.0321200">
        <ele>41.3</ele>
        <time>2018-12-30T10:27:58Z</time>
      </trkpt>
      <trkpt lat="39.8832400" lon="3.0320410">
        <ele>41.3</ele>
        <time>2018-12-30T10:27:59Z</time>
      </trkpt>
      <trkpt lat="39.8832500" lon="3.0319630">
        <ele>41.3</ele>
        <time>2018-12-30T10:28:00Z</time>
      </trkpt>
      <trkpt lat="39.8832610" lon="3.0318840">
        <ele>41.4</ele>
        <time>2018-12-30T10:28:01Z</time>
      </trkpt>
      <trkpt lat="39.8832740" lon="3.0318060">
        <ele>41.4</ele>
        <time>2018-12-30T10:28:02Z</time>
      </trkpt>
      <trkpt lat="39.8832880" lon="3.0317290">
        <ele>41.4</ele>
        <time>2018-12-30T10:28:03Z</time>
      </trkpt>
      <trkpt lat="39.8833030" lon="3.0316510">
        <ele>41.3</ele>
        <time>2018-12-30T10:28:04Z</time>
      </trkpt>
      <trkpt lat="39.8833210" lon="3.0315720">
        <ele>41.3</ele>
        <time>2018-12-30T10:28:05Z</time>
      </trkpt>
      <trkpt lat="39.8833390" lon="3.0314930">
        <ele>41.3</ele>
        <time>2018-12-30T10:28:06Z</time>
      </trkpt>
      <trkpt lat="39.8833600" lon="3.0314130">
        <ele>41.3</ele>
        <time>2018-12-30T10:28:07Z</time>
      </trkpt>
      <trkpt lat="39.8833850" lon="3.0313360">
        <ele>41.2</ele>
        <time>2018-12-30T10:28:08Z</time>
      </trkpt>
      <trkpt lat="39.8834130" lon="3.0312630">
        <ele>41.2</ele>
        <time>2018-12-30T10:28:09Z</time>
      </trkpt>
      <trkpt lat="39.8834410" lon="3.0311930">
        <ele>41.2</ele>
        <time>2018-12-30T10:28:10Z</time>
      </trkpt>
      <trkpt lat="39.8834670" lon="3.0311230">
        <ele>41.2</ele>
        <time>2018-12-30T10:28:11Z</time>
      </trkpt>
      <trkpt lat="39.8834910" lon="3.0310520">
        <ele>41.2</ele>
        <time>2018-12-30T10:28:12Z</time>
      </trkpt>
      <trkpt lat="39.8835170" lon="3.0309760">
        <ele>41.2</ele>
        <time>2018-12-30T10:28:13Z</time>
      </trkpt>
      <trkpt lat="39.8835440" lon="3.0308970">
        <ele>41.2</ele>
        <time>2018-12-30T10:28:14Z</time>
      </trkpt>
      <trkpt lat="39.8835670" lon="3.0308140">
        <ele>41.2</ele>
        <time>2018-12-30T10:28:15Z</time>
      </trkpt>
      <trkpt lat="39.8835850" lon="3.0307320">
        <ele>41.2</ele>
        <time>2018-12-30T10:28:16Z</time>
      </trkpt>
      <trkpt lat="39.8835930" lon="3.0306470">
        <ele>41.3</ele>
        <time>2018-12-30T10:28:17Z</time>
      </trkpt>
      <trkpt lat="39.8835970" lon="3.0305610">
        <ele>41.3</ele>
        <time>2018-12-30T10:28:18Z</time>
      </trkpt>
      <trkpt lat="39.8835970" lon="3.0304720">
        <ele>41.3</ele>
        <time>2018-12-30T10:28:19Z</time>
      </trkpt>
      <trkpt lat="39.8835990" lon="3.0303830">
        <ele>41.3</ele>
        <time>2018-12-30T10:28:20Z</time>
      </trkpt>
      <trkpt lat="39.8836010" lon="3.0302970">
        <ele>41.3</ele>
        <time>2018-12-30T10:28:21Z</time>
      </trkpt>
      <trkpt lat="39.8836020" lon="3.0302100">
        <ele>41.3</ele>
        <time>2018-12-30T10:28:22Z</time>
      </trkpt>
      <trkpt lat="39.8836020" lon="3.0301240">
        <ele>41.3</ele>
        <time>2018-12-30T10:28:23Z</time>
      </trkpt>
      <trkpt lat="39.8836030" lon="3.0300390">
        <ele>41.3</ele>
        <time>2018-12-30T10:28:24Z</time>
      </trkpt>
      <trkpt lat="39.8836030" lon="3.0299540">
        <ele>41.3</ele>
        <time>2018-12-30T10:28:25Z</time>
      </trkpt>
      <trkpt lat="39.8836030" lon="3.0298690">
        <ele>41.3</ele>
        <time>2018-12-30T10:28:26Z</time>
      </trkpt>
      <trkpt lat="39.8836040" lon="3.0297850">
        <ele>41.2</ele>
        <time>2018-12-30T10:28:27Z</time>
      </trkpt>
      <trkpt lat="39.8836040" lon="3.0297000">
        <ele>41.2</ele>
        <time>2018-12-30T10:28:28Z</time>
      </trkpt>
      <trkpt lat="39.8836060" lon="3.0296150">
        <ele>41.1</ele>
        <time>2018-12-30T10:28:29Z</time>
      </trkpt>
      <trkpt lat="39.8836070" lon="3.0295300">
        <ele>41.0</ele>
        <time>2018-12-30T10:28:30Z</time>
      </trkpt>
      <trkpt lat="39.8836090" lon="3.0294460">
        <ele>41.0</ele>
        <time>2018-12-30T10:28:31Z</time>
      </trkpt>
      <trkpt lat="39.8836100" lon="3.0293600">
        <ele>40.9</ele>
        <time>2018-12-30T10:28:32Z</time>
      </trkpt>
      <trkpt lat="39.8836110" lon="3.0292750">
        <ele>40.9</ele>
        <time>2018-12-30T10:28:33Z</time>
      </trkpt>
      <trkpt lat="39.8836120" lon="3.0291890">
        <ele>40.9</ele>
        <time>2018-12-30T10:28:34Z</time>
      </trkpt>
      <trkpt lat="39.8836110" lon="3.0291030">
        <ele>40.9</ele>
        <time>2018-12-30T10:28:35Z</time>
      </trkpt>
      <trkpt lat="39.8836100" lon="3.0290180">
        <ele>41.0</ele>
        <time>2018-12-30T10:28:36Z</time>
      </trkpt>
      <trkpt lat="39.8836100" lon="3.0289330">
        <ele>41.0</ele>
        <time>2018-12-30T10:28:37Z</time>
      </trkpt>
      <trkpt lat="39.8836120" lon="3.0288480">
        <ele>41.1</ele>
        <time>2018-12-30T10:28:38Z</time>
      </trkpt>
      <trkpt lat="39.8836150" lon="3.0287640">
        <ele>41.1</ele>
        <time>2018-12-30T10:28:39Z</time>
      </trkpt>
      <trkpt lat="39.8836190" lon="3.0286800">
        <ele>41.2</ele>
        <time>2018-12-30T10:28:40Z</time>
      </trkpt>
      <trkpt lat="39.8836230" lon="3.0285970">
        <ele>41.2</ele>
        <time>2018-12-30T10:28:41Z</time>
      </trkpt>
      <trkpt lat="39.8836270" lon="3.0285140">
        <ele>41.3</ele>
        <time>2018-12-30T10:28:42Z</time>
      </trkpt>
      <trkpt lat="39.8836330" lon="3.0284310">
        <ele>41.3</ele>
        <time>2018-12-30T10:28:43Z</time>
      </trkpt>
      <trkpt lat="39.8836380" lon="3.0283480">
        <ele>41.3</ele>
        <time>2018-12-30T10:28:44Z</time>
      </trkpt>
      <trkpt lat="39.8836410" lon="3.0282650">
        <ele>41.5</ele>
        <time>2018-12-30T10:28:45Z</time>
      </trkpt>
      <trkpt lat="39.8836440" lon="3.0281810">
        <ele>41.6</ele>
        <time>2018-12-30T10:28:46Z</time>
      </trkpt>
      <trkpt lat="39.8836460" lon="3.0280980">
        <ele>41.7</ele>
        <time>2018-12-30T10:28:47Z</time>
      </trkpt>
      <trkpt lat="39.8836480" lon="3.0280160">
        <ele>41.8</ele>
        <time>2018-12-30T10:28:48Z</time>
      </trkpt>
      <trkpt lat="39.8836500" lon="3.0279340">
        <ele>41.9</ele>
        <time>2018-12-30T10:28:49Z</time>
      </trkpt>
      <trkpt lat="39.8836510" lon="3.0278530">
        <ele>42.1</ele>
        <time>2018-12-30T10:28:50Z</time>
      </trkpt>
      <trkpt lat="39.8836540" lon="3.0277710">
        <ele>42.2</ele>
        <time>2018-12-30T10:28:51Z</time>
      </trkpt>
      <trkpt lat="39.8836560" lon="3.0276890">
        <ele>42.3</ele>
        <time>2018-12-30T10:28:52Z</time>
      </trkpt>
      <trkpt lat="39.8836580" lon="3.0276080">
        <ele>42.5</ele>
        <time>2018-12-30T10:28:53Z</time>
      </trkpt>
      <trkpt lat="39.8836600" lon="3.0275260">
        <ele>42.6</ele>
        <time>2018-12-30T10:28:54Z</time>
      </trkpt>
      <trkpt lat="39.8836620" lon="3.0274440">
        <ele>42.7</ele>
        <time>2018-12-30T10:28:55Z</time>
      </trkpt>
      <trkpt lat="39.8836630" lon="3.0273610">
        <ele>42.8</ele>
        <time>2018-12-30T10:28:56Z</time>
      </trkpt>
      <trkpt lat="39.8836640" lon="3.0272800">
        <ele>42.9</ele>
        <time>2018-12-30T10:28:57Z</time>
      </trkpt>
      <trkpt lat="39.8836650" lon="3.0271990">
        <ele>43.0</ele>
        <time>2018-12-30T10:28:58Z</time>
      </trkpt>
      <trkpt lat="39.8836670" lon="3.0271190">
        <ele>43.0</ele>
        <time>2018-12-30T10:28:59Z</time>
      </trkpt>
      <trkpt lat="39.8836690" lon="3.0270380">
        <ele>43.1</ele>
        <time>2018-12-30T10:29:00Z</time>
      </trkpt>
      <trkpt lat="39.8836710" lon="3.0269590">
        <ele>43.1</ele>
        <time>2018-12-30T10:29:01Z</time>
      </trkpt>
      <trkpt lat="39.8836740" lon="3.0268800">
        <ele>43.2</ele>
        <time>2018-12-30T10:29:02Z</time>
      </trkpt>
      <trkpt lat="39.8836770" lon="3.0268020">
        <ele>43.4</ele>
        <time>2018-12-30T10:29:03Z</time>
      </trkpt>
      <trkpt lat="39.8836800" lon="3.0267260">
        <ele>43.7</ele>
        <time>2018-12-30T10:29:04Z</time>
      </trkpt>
      <trkpt lat="39.8836830" lon="3.0266510">
        <ele>43.8</ele>
        <time>2018-12-30T10:29:05Z</time>
      </trkpt>
      <trkpt lat="39.8836860" lon="3.0265780">
        <ele>44.0</ele>
        <time>2018-12-30T10:29:06Z</time>
      </trkpt>
      <trkpt lat="39.8836910" lon="3.0265040">
        <ele>44.1</ele>
        <time>2018-12-30T10:29:07Z</time>
      </trkpt>
      <trkpt lat="39.8836990" lon="3.0264310">
        <ele>44.3</ele>
        <time>2018-12-30T10:29:08Z</time>
      </trkpt>
      <trkpt lat="39.8837110" lon="3.0263600">
        <ele>44.4</ele>
        <time>2018-12-30T10:29:09Z</time>
      </trkpt>
      <trkpt lat="39.8837270" lon="3.0262890">
        <ele>44.6</ele>
        <time>2018-12-30T10:29:10Z</time>
      </trkpt>
      <trkpt lat="39.8837420" lon="3.0262200">
        <ele>44.8</ele>
        <time>2018-12-30T10:29:11Z</time>
      </trkpt>
      <trkpt lat="39.8837550" lon="3.0261490">
        <ele>44.9</ele>
        <time>2018-12-30T10:29:12Z</time>
      </trkpt>
      <trkpt lat="39.8837600" lon="3.0260740">
        <ele>45.1</ele>
        <time>2018-12-30T10:29:13Z</time>
      </trkpt>
      <trkpt lat="39.8837590" lon="3.0259980">
        <ele>45.3</ele>
        <time>2018-12-30T10:29:14Z</time>
      </trkpt>
      <trkpt lat="39.8837530" lon="3.0259260">
        <ele>45.5</ele>
        <time>2018-12-30T10:29:15Z</time>
      </trkpt>
      <trkpt lat="39.8837470" lon="3.0258590">
        <ele>45.7</ele>
        <time>2018-12-30T10:29:16Z</time>
      </trkpt>
      <trkpt lat="39.8837370" lon="3.0257940">
        <ele>45.9</ele>
        <time>2018-12-30T10:29:17Z</time>
      </trkpt>
      <trkpt lat="39.8837190" lon="3.0257270">
        <ele>46.1</ele>
        <time>2018-12-30T10:29:18Z</time>
      </trkpt>
      <trkpt lat="39.8836990" lon="3.0256600">
        <ele>46.2</ele>
        <time>2018-12-30T10:29:19Z</time>
      </trkpt>
      <trkpt lat="39.8836760" lon="3.0255920">
        <ele>46.4</ele>
        <time>2018-12-30T10:29:20Z</time>
      </trkpt>
      <trkpt lat="39.8836550" lon="3.0255270">
        <ele>46.5</ele>
        <time>2018-12-30T10:29:21Z</time>
      </trkpt>
      <trkpt lat="39.8836310" lon="3.0254650">
        <ele>46.6</ele>
        <time>2018-12-30T10:29:22Z</time>
      </trkpt>
      <trkpt lat="39.8836030" lon="3.0254050">
        <ele>46.7</ele>
        <time>2018-12-30T10:29:23Z</time>
      </trkpt>
      <trkpt lat="39.8835700" lon="3.0253470">
        <ele>46.8</ele>
        <time>2018-12-30T10:29:24Z</time>
      </trkpt>
      <trkpt lat="39.8835310" lon="3.0252920">
        <ele>46.9</ele>
        <time>2018-12-30T10:29:25Z</time>
      </trkpt>
      <trkpt lat="39.8834910" lon="3.0252370">
        <ele>47.1</ele>
        <time>2018-12-30T10:29:26Z</time>
      </trkpt>
      <trkpt lat="39.8834490" lon="3.0251850">
        <ele>47.3</ele>
        <time>2018-12-30T10:29:27Z</time>
      </trkpt>
      <trkpt lat="39.8834080" lon="3.0251330">
        <ele>47.5</ele>
        <time>2018-12-30T10:29:28Z</time>
      </trkpt>
      <trkpt lat="39.8833650" lon="3.0250800">
        <ele>47.4</ele>
        <time>2018-12-30T10:29:29Z</time>
      </trkpt>
      <trkpt lat="39.8833200" lon="3.0250210">
        <ele>47.4</ele>
        <time>2018-12-30T10:29:30Z</time>
      </trkpt>
      <trkpt lat="39.8832720" lon="3.0249580">
        <ele>47.4</ele>
        <time>2018-12-30T10:29:31Z</time>
      </trkpt>
      <trkpt lat="39.8832200" lon="3.0248830">
        <ele>47.4</ele>
        <time>2018-12-30T10:29:32Z</time>
      </trkpt>
      <trkpt lat="39.8831740" lon="3.0247970">
        <ele>47.5</ele>
        <time>2018-12-30T10:29:33Z</time>
      </trkpt>
      <trkpt lat="39.8831350" lon="3.0247050">
        <ele>47.5</ele>
        <time>2018-12-30T10:29:34Z</time>
      </trkpt>
      <trkpt lat="39.8831060" lon="3.0246140">
        <ele>47.6</ele>
        <time>2018-12-30T10:29:35Z</time>
      </trkpt>
      <trkpt lat="39.8830820" lon="3.0245250">
        <ele>47.6</ele>
        <time>2018-12-30T10:29:36Z</time>
      </trkpt>
      <trkpt lat="39.8830620" lon="3.0244350">
        <ele>47.7</ele>
        <time>2018-12-30T10:29:37Z</time>
      </trkpt>
      <trkpt lat="39.8830450" lon="3.0243450">
        <ele>47.8</ele>
        <time>2018-12-30T10:29:38Z</time>
      </trkpt>
      <trkpt lat="39.8830290" lon="3.0242580">
        <ele>47.8</ele>
        <time>2018-12-30T10:29:39Z</time>
      </trkpt>
      <trkpt lat="39.8830130" lon="3.0241730">
        <ele>47.8</ele>
        <time>2018-12-30T10:29:40Z</time>
      </trkpt>
      <trkpt lat="39.8829970" lon="3.0240900">
        <ele>47.8</ele>
        <time>2018-12-30T10:29:41Z</time>
      </trkpt>
      <trkpt lat="39.8829800" lon="3.0240090">
        <ele>47.9</ele>
        <time>2018-12-30T10:29:42Z</time>
      </trkpt>
      <trkpt lat="39.8829630" lon="3.0239340">
        <ele>47.9</ele>
        <time>2018-12-30T10:29:43Z</time>
      </trkpt>
      <trkpt lat="39.8829440" lon="3.0238610">
        <ele>47.9</ele>
        <time>2018-12-30T10:29:44Z</time>
      </trkpt>
      <trkpt lat="39.8829230" lon="3.0237930">
        <ele>48.0</ele>
        <time>2018-12-30T10:29:45Z</time>
      </trkpt>
      <trkpt lat="39.8828990" lon="3.0237310">
        <ele>48.0</ele>
        <time>2018-12-30T10:29:46Z</time>
      </trkpt>
      <trkpt lat="39.8828760" lon="3.0236750">
        <ele>48.0</ele>
        <time>2018-12-30T10:29:47Z</time>
      </trkpt>
      <trkpt lat="39.8828520" lon="3.0236210">
        <ele>48.0</ele>
        <time>2018-12-30T10:29:48Z</time>
      </trkpt>
      <trkpt lat="39.8828300" lon="3.0235670">
        <ele>48.1</ele>
        <time>2018-12-30T10:29:49Z</time>
      </trkpt>
      <trkpt lat="39.8828080" lon="3.0235150">
        <ele>48.1</ele>
        <time>2018-12-30T10:29:50Z</time>
      </trkpt>
      <trkpt lat="39.8827880" lon="3.0234660">
        <ele>48.1</ele>
        <time>2018-12-30T10:29:51Z</time>
      </trkpt>
      <trkpt lat="39.8827710" lon="3.0234270">
        <ele>48.1</ele>
        <time>2018-12-30T10:29:52Z</time>
      </trkpt>
      <trkpt lat="39.8827580" lon="3.0233970">
        <ele>48.1</ele>
        <time>2018-12-30T10:29:53Z</time>
      </trkpt>
      <trkpt lat="39.8827510" lon="3.0233810">
        <ele>48.2</ele>
        <time>2018-12-30T10:29:54Z</time>
      </trkpt>
      <trkpt lat="39.8827490" lon="3.0233730">
        <ele>48.2</ele>
        <time>2018-12-30T10:29:55Z</time>
      </trkpt>
      <trkpt lat="39.8827490" lon="3.0233680">
        <ele>48.2</ele>
        <time>2018-12-30T10:29:56Z</time>
      </trkpt>
      <trkpt lat="39.8827510" lon="3.0233630">
        <ele>48.2</ele>
        <time>2018-12-30T10:29:57Z</time>
      </trkpt>
      <trkpt lat="39.8827530" lon="3.0233580">
        <ele>48.2</ele>
        <time>2018-12-30T10:29:58Z</time>
      </trkpt>
      <trkpt lat="39.8827610" lon="3.0233520">
        <ele>48.2</ele>
        <time>2018-12-30T10:29:59Z</time>
      </trkpt>
      <trkpt lat="39.8827690" lon="3.0233420">
        <ele>48.0</ele>
        <time>2018-12-30T10:30:00Z</time>
      </trkpt>
      <trkpt lat="39.8827780" lon="3.0233290">
        <ele>47.9</ele>
        <time>2018-12-30T10:30:01Z</time>
      </trkpt>
      <trkpt lat="39.8827900" lon="3.0233160">
        <ele>47.9</ele>
        <time>2018-12-30T10:30:02Z</time>
      </trkpt>
      <trkpt lat="39.8828070" lon="3.0233000">
        <ele>47.7</ele>
        <time>2018-12-30T10:30:03Z</time>
      </trkpt>
      <trkpt lat="39.8828310" lon="3.0232790">
        <ele>47.6</ele>
        <time>2018-12-30T10:30:04Z</time>
      </trkpt>
      <trkpt lat="39.8828650" lon="3.0232520">
        <ele>47.4</ele>
        <time>2018-12-30T10:30:05Z</time>
      </trkpt>
      <trkpt lat="39.8829060" lon="3.0232200">
        <ele>47.2</ele>
        <time>2018-12-30T10:30:06Z</time>
      </trkpt>
      <trkpt lat="39.8829520" lon="3.0231870">
        <ele>46.9</ele>
        <time>2018-12-30T10:30:07Z</time>
      </trkpt>
      <trkpt lat="39.8829980" lon="3.0231540">
        <ele>46.7</ele>
        <time>2018-12-30T10:30:08Z</time>
      </trkpt>
      <trkpt lat="39.8830470" lon="3.0231190">
        <ele>46.5</ele>
        <time>2018-12-30T10:30:09Z</time>
      </trkpt>
      <trkpt lat="39.8830980" lon="3.0230840">
        <ele>46.3</ele>
        <time>2018-12-30T10:30:10Z</time>
      </trkpt>
      <trkpt lat="39.8831510" lon="3.0230470">
        <ele>46.0</ele>
        <time>2018-12-30T10:30:11Z</time>
      </trkpt>
      <trkpt lat="39.8832060" lon="3.0230100">
        <ele>45.8</ele>
        <time>2018-12-30T10:30:12Z</time>
      </trkpt>
      <trkpt lat="39.8832620" lon="3.0229740">
        <ele>45.6</ele>
        <time>2018-12-30T10:30:13Z</time>
      </trkpt>
      <trkpt lat="39.8833200" lon="3.0229400">
        <ele>45.3</ele>
        <time>2018-12-30T10:30:14Z</time>
      </trkpt>
      <trkpt lat="39.8833790" lon="3.0229060">
        <ele>45.1</ele>
        <time>2018-12-30T10:30:15Z</time>
      </trkpt>
      <trkpt lat="39.8834390" lon="3.0228720">
        <ele>44.9</ele>
        <time>2018-12-30T10:30:16Z</time>
      </trkpt>
      <trkpt lat="39.8834990" lon="3.0228400">
        <ele>44.9</ele>
        <time>2018-12-30T10:30:17Z</time>
      </trkpt>
      <trkpt lat="39.8835580" lon="3.0228090">
        <ele>44.8</ele>
        <time>2018-12-30T10:30:18Z</time>
      </trkpt>
      <trkpt lat="39.8836180" lon="3.0227810">
        <ele>44.8</ele>
        <time>2018-12-30T10:30:19Z</time>
      </trkpt>
      <trkpt lat="39.8836780" lon="3.0227540">
        <ele>44.8</ele>
        <time>2018-12-30T10:30:20Z</time>
      </trkpt>
      <trkpt lat="39.8837370" lon="3.0227290">
        <ele>44.9</ele>
        <time>2018-12-30T10:30:21Z</time>
      </trkpt>
      <trkpt lat="39.8837970" lon="3.0227060">
        <ele>44.9</ele>
        <time>2018-12-30T10:30:22Z</time>
      </trkpt>
      <trkpt lat="39.8838560" lon="3.0226840">
        <ele>45.0</ele>
        <time>2018-12-30T10:30:23Z</time>
      </trkpt>
      <trkpt lat="39.8839150" lon="3.0226620">
        <ele>45.1</ele>
        <time>2018-12-30T10:30:24Z</time>
      </trkpt>
      <trkpt lat="39.8839740" lon="3.0226420">
        <ele>45.2</ele>
        <time>2018-12-30T10:30:25Z</time>
      </trkpt>
      <trkpt lat="39.8840320" lon="3.0226250">
        <ele>45.2</ele>
        <time>2018-12-30T10:30:26Z</time>
      </trkpt>
      <trkpt lat="39.8840900" lon="3.0226100">
        <ele>45.3</ele>
        <time>2018-12-30T10:30:27Z</time>
      </trkpt>
      <trkpt lat="39.8841470" lon="3.0225990">
        <ele>45.4</ele>
        <time>2018-12-30T10:30:28Z</time>
      </trkpt>
      <trkpt lat="39.8842030" lon="3.0225930">
        <ele>45.3</ele>
        <time>2018-12-30T10:30:29Z</time>
      </trkpt>
      <trkpt lat="39.8842580" lon="3.0225930">
        <ele>45.3</ele>
        <time>2018-12-30T10:30:30Z</time>
      </trkpt>
      <trkpt lat="39.8843130" lon="3.0226020">
        <ele>45.4</ele>
        <time>2018-12-30T10:30:31Z</time>
      </trkpt>
      <trkpt lat="39.8843690" lon="3.0226160">
        <ele>45.4</ele>
        <time>2018-12-30T10:30:32Z</time>
      </trkpt>
      <trkpt lat="39.8844260" lon="3.0226340">
        <ele>45.4</ele>
        <time>2018-12-30T10:30:33Z</time>
      </trkpt>
      <trkpt lat="39.8844850" lon="3.0226510">
        <ele>45.4</ele>
        <time>2018-12-30T10:30:34Z</time>
      </trkpt>
      <trkpt lat="39.8845430" lon="3.0226590">
        <ele>45.4</ele>
        <time>2018-12-30T10:30:35Z</time>
      </trkpt>
      <trkpt lat="39.8846010" lon="3.0226460">
        <ele>45.5</ele>
        <time>2018-12-30T10:30:36Z</time>
      </trkpt>
      <trkpt lat="39.8846530" lon="3.0226120">
        <ele>45.6</ele>
        <time>2018-12-30T10:30:37Z</time>
      </trkpt>
      <trkpt lat="39.8846980" lon="3.0225610">
        <ele>45.6</ele>
        <time>2018-12-30T10:30:38Z</time>
      </trkpt>
      <trkpt lat="39.8847300" lon="3.0225000">
        <ele>45.7</ele>
        <time>2018-12-30T10:30:39Z</time>
      </trkpt>
      <trkpt lat="39.8847530" lon="3.0224350">
        <ele>45.8</ele>
        <time>2018-12-30T10:30:40Z</time>
      </trkpt>
      <trkpt lat="39.8847620" lon="3.0223700">
        <ele>45.8</ele>
        <time>2018-12-30T10:30:41Z</time>
      </trkpt>
      <trkpt lat="39.8847610" lon="3.0223100">
        <ele>45.9</ele>
        <time>2018-12-30T10:30:42Z</time>
      </trkpt>
      <trkpt lat="39.8847530" lon="3.0222570">
        <ele>45.9</ele>
        <time>2018-12-30T10:30:43Z</time>
      </trkpt>
      <trkpt lat="39.8847410" lon="3.0222180">
        <ele>45.9</ele>
        <time>2018-12-30T10:30:44Z</time>
      </trkpt>
      <trkpt lat="39.8847230" lon="3.0221870">
        <ele>45.9</ele>
        <time>2018-12-30T10:30:45Z</time>
      </trkpt>
      <trkpt lat="39.8847010" lon="3.0221600">
        <ele>46.0</ele>
        <time>2018-12-30T10:30:46Z</time>
      </trkpt>
      <trkpt lat="39.8846760" lon="3.0221260">
        <ele>46.0</ele>
        <time>2018-12-30T10:30:47Z</time>
      </trkpt>
      <trkpt lat="39.8846490" lon="3.0220790">
        <ele>46.0</ele>
        <time>2018-12-30T10:30:48Z</time>
      </trkpt>
      <trkpt lat="39.8846220" lon="3.0220230">
        <ele>46.1</ele>
        <time>2018-12-30T10:30:49Z</time>
      </trkpt>
      <trkpt lat="39.8845970" lon="3.0219600">
        <ele>46.2</ele>
        <time>2018-12-30T10:30:50Z</time>
      </trkpt>
      <trkpt lat="39.8845750" lon="3.0218960">
        <ele>46.2</ele>
        <time>2018-12-30T10:30:51Z</time>
      </trkpt>
      <trkpt lat="39.8845570" lon="3.0218290">
        <ele>46.3</ele>
        <time>2018-12-30T10:30:52Z</time>
      </trkpt>
      <trkpt lat="39.8845410" lon="3.0217590">
        <ele>46.3</ele>
        <time>2018-12-30T10:30:53Z</time>
      </trkpt>
      <trkpt lat="39.8845230" lon="3.0216880">
        <ele>46.5</ele>
        <time>2018-12-30T10:30:54Z</time>
      </trkpt>
      <trkpt lat="39.8845020" lon="3.0216180">
        <ele>46.5</ele>
        <time>2018-12-30T10:30:55Z</time>
      </trkpt>
      <trkpt lat="39.8844790" lon="3.0215460">
        <ele>46.6</ele>
        <time>2018-12-30T10:30:56Z</time>
      </trkpt>
      <trkpt lat="39.8844540" lon="3.0214740">
        <ele>46.6</ele>
        <time>2018-12-30T10:30:57Z</time>
      </trkpt>
      <trkpt lat="39.8844300" lon="3.0214010">
        <ele>46.7</ele>
        <time>2018-12-30T10:30:58Z</time>
      </trkpt>
      <trkpt lat="39.8844060" lon="3.0213270">
        <ele>46.7</ele>
        <time>2018-12-30T10:30:59Z</time>
      </trkpt>
      <trkpt lat="39.8843830" lon="3.0212520">
        <ele>46.8</ele>
        <time>2018-12-30T10:31:00Z</time>
      </trkpt>
      <trkpt lat="39.8843600" lon="3.0211750">
        <ele>47.0</ele>
        <time>2018-12-30T10:31:01Z</time>
      </trkpt>
      <trkpt lat="39.8843380" lon="3.0210980">
        <ele>47.1</ele>
        <time>2018-12-30T10:31:02Z</time>
      </trkpt>
      <trkpt lat="39.8843170" lon="3.0210200">
        <ele>47.2</ele>
        <time>2018-12-30T10:31:03Z</time>
      </trkpt>
      <trkpt lat="39.8842960" lon="3.0209410">
        <ele>47.3</ele>
        <time>2018-12-30T10:31:04Z</time>
      </trkpt>
      <trkpt lat="39.8842750" lon="3.0208620">
        <ele>47.5</ele>
        <time>2018-12-30T10:31:05Z</time>
      </trkpt>
      <trkpt lat="39.8842550" lon="3.0207830">
        <ele>47.6</ele>
        <time>2018-12-30T10:31:06Z</time>
      </trkpt>
      <trkpt lat="39.8842370" lon="3.0207040">
        <ele>47.8</ele>
        <time>2018-12-30T10:31:07Z</time>
      </trkpt>
      <trkpt lat="39.8842190" lon="3.0206240">
        <ele>47.9</ele>
        <time>2018-12-30T10:31:08Z</time>
      </trkpt>
      <trkpt lat="39.8842020" lon="3.0205440">
        <ele>47.9</ele>
        <time>2018-12-30T10:31:09Z</time>
      </trkpt>
      <trkpt lat="39.8841860" lon="3.0204630">
        <ele>47.9</ele>
        <time>2018-12-30T10:31:10Z</time>
      </trkpt>
      <trkpt lat="39.8841700" lon="3.0203830">
        <ele>48.0</ele>
        <time>2018-12-30T10:31:11Z</time>
      </trkpt>
      <trkpt lat="39.8841520" lon="3.0203060">
        <ele>48.0</ele>
        <time>2018-12-30T10:31:12Z</time>
      </trkpt>
      <trkpt lat="39.8841340" lon="3.0202320">
        <ele>48.1</ele>
        <time>2018-12-30T10:31:13Z</time>
      </trkpt>
      <trkpt lat="39.8841180" lon="3.0201590">
        <ele>48.1</ele>
        <time>2018-12-30T10:31:14Z</time>
      </trkpt>
      <trkpt lat="39.8841040" lon="3.0200850">
        <ele>48.2</ele>
        <time>2018-12-30T10:31:15Z</time>
      </trkpt>
      <trkpt lat="39.8840930" lon="3.0200100">
        <ele>48.3</ele>
        <time>2018-12-30T10:31:16Z</time>
      </trkpt>
      <trkpt lat="39.8840820" lon="3.0199330">
        <ele>48.4</ele>
        <time>2018-12-30T10:31:17Z</time>
      </trkpt>
      <trkpt lat="39.8840710" lon="3.0198560">
        <ele>48.4</ele>
        <time>2018-12-30T10:31:18Z</time>
      </trkpt>
      <trkpt lat="39.8840590" lon="3.0197770">
        <ele>48.5</ele>
        <time>2018-12-30T10:31:19Z</time>
      </trkpt>
      <trkpt lat="39.8840470" lon="3.0196970">
        <ele>48.5</ele>
        <time>2018-12-30T10:31:20Z</time>
      </trkpt>
      <trkpt lat="39.8840340" lon="3.0196170">
        <ele>48.6</ele>
        <time>2018-12-30T10:31:21Z</time>
      </trkpt>
      <trkpt lat="39.8840190" lon="3.0195350">
        <ele>48.6</ele>
        <time>2018-12-30T10:31:22Z</time>
      </trkpt>
      <trkpt lat="39.8840040" lon="3.0194540">
        <ele>48.7</ele>
        <time>2018-12-30T10:31:23Z</time>
      </trkpt>
      <trkpt lat="39.8839890" lon="3.0193730">
        <ele>48.7</ele>
        <time>2018-12-30T10:31:24Z</time>
      </trkpt>
      <trkpt lat="39.8839740" lon="3.0192910">
        <ele>48.8</ele>
        <time>2018-12-30T10:31:25Z</time>
      </trkpt>
      <trkpt lat="39.8839600" lon="3.0192100">
        <ele>48.8</ele>
        <time>2018-12-30T10:31:26Z</time>
      </trkpt>
      <trkpt lat="39.8839460" lon="3.0191300">
        <ele>48.9</ele>
        <time>2018-12-30T10:31:27Z</time>
      </trkpt>
      <trkpt lat="39.8839320" lon="3.0190510">
        <ele>48.9</ele>
        <time>2018-12-30T10:31:28Z</time>
      </trkpt>
      <trkpt lat="39.8839180" lon="3.0189720">
        <ele>48.9</ele>
        <time>2018-12-30T10:31:29Z</time>
      </trkpt>
      <trkpt lat="39.8839040" lon="3.0188940">
        <ele>48.9</ele>
        <time>2018-12-30T10:31:30Z</time>
      </trkpt>
      <trkpt lat="39.8838910" lon="3.0188160">
        <ele>48.9</ele>
        <time>2018-12-30T10:31:31Z</time>
      </trkpt>
      <trkpt lat="39.8838770" lon="3.0187380">
        <ele>48.9</ele>
        <time>2018-12-30T10:31:32Z</time>
      </trkpt>
      <trkpt lat="39.8838640" lon="3.0186590">
        <ele>48.9</ele>
        <time>2018-12-30T10:31:33Z</time>
      </trkpt>
      <trkpt lat="39.8838500" lon="3.0185790">
        <ele>48.9</ele>
        <time>2018-12-30T10:31:34Z</time>
      </trkpt>
      <trkpt lat="39.8838370" lon="3.0184970">
        <ele>48.9</ele>
        <time>2018-12-30T10:31:35Z</time>
      </trkpt>
      <trkpt lat="39.8838220" lon="3.0184140">
        <ele>48.9</ele>
        <time>2018-12-30T10:31:36Z</time>
      </trkpt>
      <trkpt lat="39.8838070" lon="3.0183310">
        <ele>49.0</ele>
        <time>2018-12-30T10:31:37Z</time>
      </trkpt>
      <trkpt lat="39.8837920" lon="3.0182470">
        <ele>49.0</ele>
        <time>2018-12-30T10:31:38Z</time>
      </trkpt>
      <trkpt lat="39.8837770" lon="3.0181650">
        <ele>49.0</ele>
        <time>2018-12-30T10:31:39Z</time>
      </trkpt>
      <trkpt lat="39.8837630" lon="3.0180820">
        <ele>49.0</ele>
        <time>2018-12-30T10:31:40Z</time>
      </trkpt>
      <trkpt lat="39.8837490" lon="3.0180000">
        <ele>49.0</ele>
        <time>2018-12-30T10:31:41Z</time>
      </trkpt>
      <trkpt lat="39.8837340" lon="3.0179180">
        <ele>49.0</ele>
        <time>2018-12-30T10:31:42Z</time>
      </trkpt>
      <trkpt lat="39.8837200" lon="3.0178360">
        <ele>49.1</ele>
        <time>2018-12-30T10:31:43Z</time>
      </trkpt>
      <trkpt lat="39.8837060" lon="3.0177550">
        <ele>49.1</ele>
        <time>2018-12-30T10:31:44Z</time>
      </trkpt>
      <trkpt lat="39.8836910" lon="3.0176740">
        <ele>49.1</ele>
        <time>2018-12-30T10:31:45Z</time>
      </trkpt>
      <trkpt lat="39.8836760" lon="3.0175920">
        <ele>49.5</ele>
        <time>2018-12-30T10:31:46Z</time>
      </trkpt>
      <trkpt lat="39.8836620" lon="3.0175110">
        <ele>49.9</ele>
        <time>2018-12-30T10:31:47Z</time>
      </trkpt>
      <trkpt lat="39.8836490" lon="3.0174300">
        <ele>50.2</ele>
        <time>2018-12-30T10:31:48Z</time>
      </trkpt>
      <trkpt lat="39.8836360" lon="3.0173490">
        <ele>50.3</ele>
        <time>2018-12-30T10:31:49Z</time>
      </trkpt>
      <trkpt lat="39.8836220" lon="3.0172680">
        <ele>50.5</ele>
        <time>2018-12-30T10:31:50Z</time>
      </trkpt>
      <trkpt lat="39.8836070" lon="3.0171870">
        <ele>50.6</ele>
        <time>2018-12-30T10:31:51Z</time>
      </trkpt>
      <trkpt lat="39.8835920" lon="3.0171060">
        <ele>50.7</ele>
        <time>2018-12-30T10:31:52Z</time>
      </trkpt>
      <trkpt lat="39.8835780" lon="3.0170240">
        <ele>50.7</ele>
        <time>2018-12-30T10:31:53Z</time>
      </trkpt>
      <trkpt lat="39.8835640" lon="3.0169420">
        <ele>50.8</ele>
        <time>2018-12-30T10:31:54Z</time>
      </trkpt>
      <trkpt lat="39.8835490" lon="3.0168590">
        <ele>50.8</ele>
        <time>2018-12-30T10:31:55Z</time>
      </trkpt>
      <trkpt lat="39.8835350" lon="3.0167770">
        <ele>50.8</ele>
        <time>2018-12-30T10:31:56Z</time>
      </trkpt>
      <trkpt lat="39.8835210" lon="3.0166940">
        <ele>50.8</ele>
        <time>2018-12-30T10:31:57Z</time>
      </trkpt>
      <trkpt lat="39.8835070" lon="3.0166120">
        <ele>50.9</ele>
        <time>2018-12-30T10:31:58Z</time>
      </trkpt>
      <trkpt lat="39.8834930" lon="3.0165300">
        <ele>50.9</ele>
        <time>2018-12-30T10:31:59Z</time>
      </trkpt>
      <trkpt lat="39.8834780" lon="3.0164470">
        <ele>50.9</ele>
        <time>2018-12-30T10:32:00Z</time>
      </trkpt>
      <trkpt lat="39.8834630" lon="3.0163650">
        <ele>51.0</ele>
        <time>2018-12-30T10:32:01Z</time>
      </trkpt>
      <trkpt lat="39.8834490" lon="3.0162820">
        <ele>51.0</ele>
        <time>2018-12-30T10:32:02Z</time>
      </trkpt>
      <trkpt lat="39.8834340" lon="3.0162000">
        <ele>51.0</ele>
        <time>2018-12-30T10:32:03Z</time>
      </trkpt>
      <trkpt lat="39.8834200" lon="3.0161170">
        <ele>51.0</ele>
        <time>2018-12-30T10:32:04Z</time>
      </trkpt>
      <trkpt lat="39.8834050" lon="3.0160340">
        <ele>51.1</ele>
        <time>2018-12-30T10:32:05Z</time>
      </trkpt>
      <trkpt lat="39.8833910" lon="3.0159510">
        <ele>51.1</ele>
        <time>2018-12-30T10:32:06Z</time>
      </trkpt>
      <trkpt lat="39.8833760" lon="3.0158680">
        <ele>51.1</ele>
        <time>2018-12-30T10:32:07Z</time>
      </trkpt>
      <trkpt lat="39.8833620" lon="3.0157850">
        <ele>51.2</ele>
        <time>2018-12-30T10:32:08Z</time>
      </trkpt>
      <trkpt lat="39.8833470" lon="3.0157010">
        <ele>51.2</ele>
        <time>2018-12-30T10:32:09Z</time>
      </trkpt>
      <trkpt lat="39.8833330" lon="3.0156180">
        <ele>51.3</ele>
        <time>2018-12-30T10:32:10Z</time>
      </trkpt>
      <trkpt lat="39.8833190" lon="3.0155360">
        <ele>51.4</ele>
        <time>2018-12-30T10:32:11Z</time>
      </trkpt>
      <trkpt lat="39.8833050" lon="3.0154550">
        <ele>51.5</ele>
        <time>2018-12-30T10:32:12Z</time>
      </trkpt>
      <trkpt lat="39.8832910" lon="3.0153750">
        <ele>51.7</ele>
        <time>2018-12-30T10:32:13Z</time>
      </trkpt>
      <trkpt lat="39.8832770" lon="3.0152980">
        <ele>51.8</ele>
        <time>2018-12-30T10:32:14Z</time>
      </trkpt>
      <trkpt lat="39.8832630" lon="3.0152240">
        <ele>51.9</ele>
        <time>2018-12-30T10:32:15Z</time>
      </trkpt>
      <trkpt lat="39.8832510" lon="3.0151520">
        <ele>52.0</ele>
        <time>2018-12-30T10:32:16Z</time>
      </trkpt>
      <trkpt lat="39.8832390" lon="3.0150830">
        <ele>52.2</ele>
        <time>2018-12-30T10:32:17Z</time>
      </trkpt>
      <trkpt lat="39.8832280" lon="3.0150160">
        <ele>52.3</ele>
        <time>2018-12-30T10:32:18Z</time>
      </trkpt>
      <trkpt lat="39.8832180" lon="3.0149510">
        <ele>52.4</ele>
        <time>2018-12-30T10:32:19Z</time>
      </trkpt>
      <trkpt lat="39.8832060" lon="3.0148840">
        <ele>52.5</ele>
        <time>2018-12-30T10:32:20Z</time>
      </trkpt>
      <trkpt lat="39.8831930" lon="3.0148120">
        <ele>52.6</ele>
        <time>2018-12-30T10:32:21Z</time>
      </trkpt>
      <trkpt lat="39.8831810" lon="3.0147380">
        <ele>52.8</ele>
        <time>2018-12-30T10:32:22Z</time>
      </trkpt>
      <trkpt lat="39.8831690" lon="3.0146610">
        <ele>52.9</ele>
        <time>2018-12-30T10:32:23Z</time>
      </trkpt>
      <trkpt lat="39.8831570" lon="3.0145830">
        <ele>53.0</ele>
        <time>2018-12-30T10:32:24Z</time>
      </trkpt>
      <trkpt lat="39.8831460" lon="3.0145040">
        <ele>53.1</ele>
        <time>2018-12-30T10:32:25Z</time>
      </trkpt>
      <trkpt lat="39.8831370" lon="3.0144240">
        <ele>53.2</ele>
        <time>2018-12-30T10:32:26Z</time>
      </trkpt>
      <trkpt lat="39.8831290" lon="3.0143430">
        <ele>53.2</ele>
        <time>2018-12-30T10:32:27Z</time>
      </trkpt>
      <trkpt lat="39.8831230" lon="3.0142620">
        <ele>53.3</ele>
        <time>2018-12-30T10:32:28Z</time>
      </trkpt>
      <trkpt lat="39.8831180" lon="3.0141810">
        <ele>53.4</ele>
        <time>2018-12-30T10:32:29Z</time>
      </trkpt>
      <trkpt lat="39.8831130" lon="3.0141010">
        <ele>53.4</ele>
        <time>2018-12-30T10:32:30Z</time>
      </trkpt>
      <trkpt lat="39.8831100" lon="3.0140210">
        <ele>53.5</ele>
        <time>2018-12-30T10:32:31Z</time>
      </trkpt>
      <trkpt lat="39.8831070" lon="3.0139410">
        <ele>53.6</ele>
        <time>2018-12-30T10:32:32Z</time>
      </trkpt>
      <trkpt lat="39.8831040" lon="3.0138620">
        <ele>53.7</ele>
        <time>2018-12-30T10:32:33Z</time>
      </trkpt>
      <trkpt lat="39.8831010" lon="3.0137830">
        <ele>53.7</ele>
        <time>2018-12-30T10:32:34Z</time>
      </trkpt>
      <trkpt lat="39.8830980" lon="3.0137040">
        <ele>53.7</ele>
        <time>2018-12-30T10:32:35Z</time>
      </trkpt>
      <trkpt lat="39.8830950" lon="3.0136260">
        <ele>53.7</ele>
        <time>2018-12-30T10:32:36Z</time>
      </trkpt>
      <trkpt lat="39.8830940" lon="3.0135470">
        <ele>53.8</ele>
        <time>2018-12-30T10:32:37Z</time>
      </trkpt>
      <trkpt lat="39.8830940" lon="3.0134680">
        <ele>53.8</ele>
        <time>2018-12-30T10:32:38Z</time>
      </trkpt>
      <trkpt lat="39.8830940" lon="3.0133880">
        <ele>53.8</ele>
        <time>2018-12-30T10:32:39Z</time>
      </trkpt>
      <trkpt lat="39.8830920" lon="3.0133070">
        <ele>53.9</ele>
        <time>2018-12-30T10:32:40Z</time>
      </trkpt>
      <trkpt lat="39.8830900" lon="3.0132250">
        <ele>53.9</ele>
        <time>2018-12-30T10:32:41Z</time>
      </trkpt>
      <trkpt lat="39.8830880" lon="3.0131430">
        <ele>53.9</ele>
        <time>2018-12-30T10:32:42Z</time>
      </trkpt>
      <trkpt lat="39.8830860" lon="3.0130610">
        <ele>54.0</ele>
        <time>2018-12-30T10:32:43Z</time>
      </trkpt>
      <trkpt lat="39.8830840" lon="3.0129810">
        <ele>54.0</ele>
        <time>2018-12-30T10:32:44Z</time>
      </trkpt>
      <trkpt lat="39.8830830" lon="3.0129000">
        <ele>54.0</ele>
        <time>2018-12-30T10:32:45Z</time>
      </trkpt>
      <trkpt lat="39.8830820" lon="3.0128210">
        <ele>54.1</ele>
        <time>2018-12-30T10:32:46Z</time>
      </trkpt>
      <trkpt lat="39.8830810" lon="3.0127410">
        <ele>54.1</ele>
        <time>2018-12-30T10:32:47Z</time>
      </trkpt>
      <trkpt lat="39.8830800" lon="3.0126620">
        <ele>54.1</ele>
        <time>2018-12-30T10:32:48Z</time>
      </trkpt>
      <trkpt lat="39.8830800" lon="3.0125830">
        <ele>54.2</ele>
        <time>2018-12-30T10:32:49Z</time>
      </trkpt>
      <trkpt lat="39.8830800" lon="3.0125050">
        <ele>54.2</ele>
        <time>2018-12-30T10:32:50Z</time>
      </trkpt>
      <trkpt lat="39.8830790" lon="3.0124270">
        <ele>54.2</ele>
        <time>2018-12-30T10:32:51Z</time>
      </trkpt>
      <trkpt lat="39.8830780" lon="3.0123500">
        <ele>54.3</ele>
        <time>2018-12-30T10:32:52Z</time>
      </trkpt>
      <trkpt lat="39.8830760" lon="3.0122730">
        <ele>54.3</ele>
        <time>2018-12-30T10:32:53Z</time>
      </trkpt>
      <trkpt lat="39.8830740" lon="3.0121970">
        <ele>54.4</ele>
        <time>2018-12-30T10:32:54Z</time>
      </trkpt>
      <trkpt lat="39.8830720" lon="3.0121210">
        <ele>54.4</ele>
        <time>2018-12-30T10:32:55Z</time>
      </trkpt>
      <trkpt lat="39.8830710" lon="3.0120450">
        <ele>54.5</ele>
        <time>2018-12-30T10:32:56Z</time>
      </trkpt>
      <trkpt lat="39.8830690" lon="3.0119690">
        <ele>54.5</ele>
        <time>2018-12-30T10:32:57Z</time>
      </trkpt>
      <trkpt lat="39.8830670" lon="3.0118930">
        <ele>54.6</ele>
        <time>2018-12-30T10:32:58Z</time>
      </trkpt>
      <trkpt lat="39.8830650" lon="3.0118140">
        <ele>54.7</ele>
        <time>2018-12-30T10:32:59Z</time>
      </trkpt>
      <trkpt lat="39.8830640" lon="3.0117340">
        <ele>54.9</ele>
        <time>2018-12-30T10:33:00Z</time>
      </trkpt>
      <trkpt lat="39.8830630" lon="3.0116540">
        <ele>55.0</ele>
        <time>2018-12-30T10:33:01Z</time>
      </trkpt>
      <trkpt lat="39.8830620" lon="3.0115720">
        <ele>55.2</ele>
        <time>2018-12-30T10:33:02Z</time>
      </trkpt>
      <trkpt lat="39.8830600" lon="3.0114910">
        <ele>55.4</ele>
        <time>2018-12-30T10:33:03Z</time>
      </trkpt>
      <trkpt lat="39.8830590" lon="3.0114090">
        <ele>55.6</ele>
        <time>2018-12-30T10:33:04Z</time>
      </trkpt>
      <trkpt lat="39.8830560" lon="3.0113260">
        <ele>55.7</ele>
        <time>2018-12-30T10:33:05Z</time>
      </trkpt>
      <trkpt lat="39.8830540" lon="3.0112430">
        <ele>55.8</ele>
        <time>2018-12-30T10:33:06Z</time>
      </trkpt>
      <trkpt lat="39.8830510" lon="3.0111590">
        <ele>55.9</ele>
        <time>2018-12-30T10:33:07Z</time>
      </trkpt>
      <trkpt lat="39.8830500" lon="3.0110750">
        <ele>56.0</ele>
        <time>2018-12-30T10:33:08Z</time>
      </trkpt>
      <trkpt lat="39.8830480" lon="3.0109920">
        <ele>56.1</ele>
        <time>2018-12-30T10:33:09Z</time>
      </trkpt>
      <trkpt lat="39.8830470" lon="3.0109080">
        <ele>56.2</ele>
        <time>2018-12-30T10:33:10Z</time>
      </trkpt>
      <trkpt lat="39.8830460" lon="3.0108240">
        <ele>56.3</ele>
        <time>2018-12-30T10:33:11Z</time>
      </trkpt>
      <trkpt lat="39.8830440" lon="3.0107390">
        <ele>56.1</ele>
        <time>2018-12-30T10:33:12Z</time>
      </trkpt>
      <trkpt lat="39.8830440" lon="3.0106540">
        <ele>56.0</ele>
        <time>2018-12-30T10:33:13Z</time>
      </trkpt>
      <trkpt lat="39.8830440" lon="3.0105690">
        <ele>55.8</ele>
        <time>2018-12-30T10:33:14Z</time>
      </trkpt>
      <trkpt lat="39.8830430" lon="3.0104830">
        <ele>55.7</ele>
        <time>2018-12-30T10:33:15Z</time>
      </trkpt>
      <trkpt lat="39.8830420" lon="3.0103970">
        <ele>55.5</ele>
        <time>2018-12-30T10:33:16Z</time>
      </trkpt>
      <trkpt lat="39.8830400" lon="3.0103110">
        <ele>55.4</ele>
        <time>2018-12-30T10:33:17Z</time>
      </trkpt>
      <trkpt lat="39.8830380" lon="3.0102250">
        <ele>55.3</ele>
        <time>2018-12-30T10:33:18Z</time>
      </trkpt>
      <trkpt lat="39.8830360" lon="3.0101390">
        <ele>55.1</ele>
        <time>2018-12-30T10:33:19Z</time>
      </trkpt>
      <trkpt lat="39.8830340" lon="3.0100540">
        <ele>54.9</ele>
        <time>2018-12-30T10:33:20Z</time>
      </trkpt>
      <trkpt lat="39.8830310" lon="3.0099700">
        <ele>54.9</ele>
        <time>2018-12-30T10:33:21Z</time>
      </trkpt>
      <trkpt lat="39.8830300" lon="3.0098870">
        <ele>55.1</ele>
        <time>2018-12-30T10:33:22Z</time>
      </trkpt>
      <trkpt lat="39.8830280" lon="3.0098060">
        <ele>55.2</ele>
        <time>2018-12-30T10:33:23Z</time>
      </trkpt>
      <trkpt lat="39.8830280" lon="3.0097260">
        <ele>55.3</ele>
        <time>2018-12-30T10:33:24Z</time>
      </trkpt>
      <trkpt lat="39.8830260" lon="3.0096470">
        <ele>55.5</ele>
        <time>2018-12-30T10:33:25Z</time>
      </trkpt>
      <trkpt lat="39.8830250" lon="3.0095690">
        <ele>55.6</ele>
        <time>2018-12-30T10:33:26Z</time>
      </trkpt>
      <trkpt lat="39.8830230" lon="3.0094930">
        <ele>55.7</ele>
        <time>2018-12-30T10:33:27Z</time>
      </trkpt>
      <trkpt lat="39.8830230" lon="3.0094180">
        <ele>55.7</ele>
        <time>2018-12-30T10:33:28Z</time>
      </trkpt>
      <trkpt lat="39.8830230" lon="3.0093420">
        <ele>55.8</ele>
        <time>2018-12-30T10:33:29Z</time>
      </trkpt>
      <trkpt lat="39.8830230" lon="3.0092670">
        <ele>55.8</ele>
        <time>2018-12-30T10:33:30Z</time>
      </trkpt>
      <trkpt lat="39.8830230" lon="3.0091900">
        <ele>55.8</ele>
        <time>2018-12-30T10:33:31Z</time>
      </trkpt>
      <trkpt lat="39.8830230" lon="3.0091140">
        <ele>55.9</ele>
        <time>2018-12-30T10:33:32Z</time>
      </trkpt>
      <trkpt lat="39.8830230" lon="3.0090370">
        <ele>55.9</ele>
        <time>2018-12-30T10:33:33Z</time>
      </trkpt>
      <trkpt lat="39.8830220" lon="3.0089600">
        <ele>55.9</ele>
        <time>2018-12-30T10:33:34Z</time>
      </trkpt>
      <trkpt lat="39.8830200" lon="3.0088840">
        <ele>56.0</ele>
        <time>2018-12-30T10:33:35Z</time>
      </trkpt>
      <trkpt lat="39.8830150" lon="3.0088070">
        <ele>56.0</ele>
        <time>2018-12-30T10:33:36Z</time>
      </trkpt>
      <trkpt lat="39.8830070" lon="3.0087310">
        <ele>56.0</ele>
        <time>2018-12-30T10:33:37Z</time>
      </trkpt>
      <trkpt lat="39.8829960" lon="3.0086580">
        <ele>56.1</ele>
        <time>2018-12-30T10:33:38Z</time>
      </trkpt>
      <trkpt lat="39.8829800" lon="3.0085840">
        <ele>56.1</ele>
        <time>2018-12-30T10:33:39Z</time>
      </trkpt>
      <trkpt lat="39.8829610" lon="3.0085120">
        <ele>56.1</ele>
        <time>2018-12-30T10:33:40Z</time>
      </trkpt>
      <trkpt lat="39.8829370" lon="3.0084410">
        <ele>56.2</ele>
        <time>2018-12-30T10:33:41Z</time>
      </trkpt>
      <trkpt lat="39.8829060" lon="3.0083690">
        <ele>56.2</ele>
        <time>2018-12-30T10:33:42Z</time>
      </trkpt>
      <trkpt lat="39.8828700" lon="3.0082970">
        <ele>56.3</ele>
        <time>2018-12-30T10:33:43Z</time>
      </trkpt>
      <trkpt lat="39.8828290" lon="3.0082230">
        <ele>56.3</ele>
        <time>2018-12-30T10:33:44Z</time>
      </trkpt>
      <trkpt lat="39.8827890" lon="3.0081500">
        <ele>56.3</ele>
        <time>2018-12-30T10:33:45Z</time>
      </trkpt>
      <trkpt lat="39.8827510" lon="3.0080770">
        <ele>56.3</ele>
        <time>2018-12-30T10:33:46Z</time>
      </trkpt>
      <trkpt lat="39.8827140" lon="3.0080050">
        <ele>56.3</ele>
        <time>2018-12-30T10:33:47Z</time>
      </trkpt>
      <trkpt lat="39.8826770" lon="3.0079340">
        <ele>56.4</ele>
        <time>2018-12-30T10:33:48Z</time>
      </trkpt>
      <trkpt lat="39.8826410" lon="3.0078630">
        <ele>56.4</ele>
        <time>2018-12-30T10:33:49Z</time>
      </trkpt>
      <trkpt lat="39.8826040" lon="3.0077910">
        <ele>56.4</ele>
        <time>2018-12-30T10:33:50Z</time>
      </trkpt>
      <trkpt lat="39.8825670" lon="3.0077200">
        <ele>56.4</ele>
        <time>2018-12-30T10:33:51Z</time>
      </trkpt>
      <trkpt lat="39.8825300" lon="3.0076500">
        <ele>56.4</ele>
        <time>2018-12-30T10:33:52Z</time>
      </trkpt>
      <trkpt lat="39.8824920" lon="3.0075810">
        <ele>56.4</ele>
        <time>2018-12-30T10:33:53Z</time>
      </trkpt>
      <trkpt lat="39.8824550" lon="3.0075120">
        <ele>56.4</ele>
        <time>2018-12-30T10:33:54Z</time>
      </trkpt>
      <trkpt lat="39.8824170" lon="3.0074440">
        <ele>56.4</ele>
        <time>2018-12-30T10:33:55Z</time>
      </trkpt>
      <trkpt lat="39.8823800" lon="3.0073750">
        <ele>56.4</ele>
        <time>2018-12-30T10:33:56Z</time>
      </trkpt>
      <trkpt lat="39.8823430" lon="3.0073060">
        <ele>56.4</ele>
        <time>2018-12-30T10:33:57Z</time>
      </trkpt>
      <trkpt lat="39.8823070" lon="3.0072360">
        <ele>56.4</ele>
        <time>2018-12-30T10:33:58Z</time>
      </trkpt>
      <trkpt lat="39.8822710" lon="3.0071660">
        <ele>56.4</ele>
        <time>2018-12-30T10:33:59Z</time>
      </trkpt>
      <trkpt lat="39.8822350" lon="3.0070960">
        <ele>56.4</ele>
        <time>2018-12-30T10:34:00Z</time>
      </trkpt>
      <trkpt lat="39.8821980" lon="3.0070260">
        <ele>56.5</ele>
        <time>2018-12-30T10:34:01Z</time>
      </trkpt>
      <trkpt lat="39.8821610" lon="3.0069560">
        <ele>56.6</ele>
        <time>2018-12-30T10:34:02Z</time>
      </trkpt>
      <trkpt lat="39.8821240" lon="3.0068860">
        <ele>56.8</ele>
        <time>2018-12-30T10:34:03Z</time>
      </trkpt>
      <trkpt lat="39.8820880" lon="3.0068170">
        <ele>56.9</ele>
        <time>2018-12-30T10:34:04Z</time>
      </trkpt>
      <trkpt lat="39.8820510" lon="3.0067460">
        <ele>57.2</ele>
        <time>2018-12-30T10:34:05Z</time>
      </trkpt>
      <trkpt lat="39.8820140" lon="3.0066760">
        <ele>57.4</ele>
        <time>2018-12-30T10:34:06Z</time>
      </trkpt>
      <trkpt lat="39.8819760" lon="3.0066050">
        <ele>57.6</ele>
        <time>2018-12-30T10:34:07Z</time>
      </trkpt>
      <trkpt lat="39.8819380" lon="3.0065340">
        <ele>57.9</ele>
        <time>2018-12-30T10:34:08Z</time>
      </trkpt>
      <trkpt lat="39.8819010" lon="3.0064640">
        <ele>58.1</ele>
        <time>2018-12-30T10:34:09Z</time>
      </trkpt>
      <trkpt lat="39.8818630" lon="3.0063930">
        <ele>58.3</ele>
        <time>2018-12-30T10:34:10Z</time>
      </trkpt>
      <trkpt lat="39.8818270" lon="3.0063220">
        <ele>58.4</ele>
        <time>2018-12-30T10:34:11Z</time>
      </trkpt>
      <trkpt lat="39.8817900" lon="3.0062510">
        <ele>58.5</ele>
        <time>2018-12-30T10:34:12Z</time>
      </trkpt>
      <trkpt lat="39.8817530" lon="3.0061810">
        <ele>58.6</ele>
        <time>2018-12-30T10:34:13Z</time>
      </trkpt>
      <trkpt lat="39.8817160" lon="3.0061110">
        <ele>58.7</ele>
        <time>2018-12-30T10:34:14Z</time>
      </trkpt>
      <trkpt lat="39.8816790" lon="3.0060400">
        <ele>58.7</ele>
        <time>2018-12-30T10:34:15Z</time>
      </trkpt>
      <trkpt lat="39.8816410" lon="3.0059690">
        <ele>58.8</ele>
        <time>2018-12-30T10:34:16Z</time>
      </trkpt>
      <trkpt lat="39.8816040" lon="3.0058980">
        <ele>59.0</ele>
        <time>2018-12-30T10:34:17Z</time>
      </trkpt>
      <trkpt lat="39.8815670" lon="3.0058260">
        <ele>59.3</ele>
        <time>2018-12-30T10:34:18Z</time>
      </trkpt>
      <trkpt lat="39.8815300" lon="3.0057550">
        <ele>59.4</ele>
        <time>2018-12-30T10:34:19Z</time>
      </trkpt>
      <trkpt lat="39.8814930" lon="3.0056840">
        <ele>59.6</ele>
        <time>2018-12-30T10:34:20Z</time>
      </trkpt>
      <trkpt lat="39.8814550" lon="3.0056130">
        <ele>59.8</ele>
        <time>2018-12-30T10:34:21Z</time>
      </trkpt>
      <trkpt lat="39.8814180" lon="3.0055430">
        <ele>59.9</ele>
        <time>2018-12-30T10:34:22Z</time>
      </trkpt>
      <trkpt lat="39.8813810" lon="3.0054720">
        <ele>60.0</ele>
        <time>2018-12-30T10:34:23Z</time>
      </trkpt>
      <trkpt lat="39.8813440" lon="3.0054000">
        <ele>60.1</ele>
        <time>2018-12-30T10:34:24Z</time>
      </trkpt>
      <trkpt lat="39.8813070" lon="3.0053270">
        <ele>60.2</ele>
        <time>2018-12-30T10:34:25Z</time>
      </trkpt>
      <trkpt lat="39.8812690" lon="3.0052550">
        <ele>60.3</ele>
        <time>2018-12-30T10:34:26Z</time>
      </trkpt>
      <trkpt lat="39.8812310" lon="3.0051830">
        <ele>60.3</ele>
        <time>2018-12-30T10:34:27Z</time>
      </trkpt>
      <trkpt lat="39.8811920" lon="3.0051110">
        <ele>60.4</ele>
        <time>2018-12-30T10:34:28Z</time>
      </trkpt>
      <trkpt lat="39.8811540" lon="3.0050380">
        <ele>60.4</ele>
        <time>2018-12-30T10:34:29Z</time>
      </trkpt>
      <trkpt lat="39.8811150" lon="3.0049650">
        <ele>60.5</ele>
        <time>2018-12-30T10:34:30Z</time>
      </trkpt>
      <trkpt lat="39.8810770" lon="3.0048920">
        <ele>60.5</ele>
        <time>2018-12-30T10:34:31Z</time>
      </trkpt>
      <trkpt lat="39.8810380" lon="3.0048200">
        <ele>60.6</ele>
        <time>2018-12-30T10:34:32Z</time>
      </trkpt>
      <trkpt lat="39.8809990" lon="3.0047470">
        <ele>60.6</ele>
        <time>2018-12-30T10:34:33Z</time>
      </trkpt>
      <trkpt lat="39.8809600" lon="3.0046730">
        <ele>60.6</ele>
        <time>2018-12-30T10:34:34Z</time>
      </trkpt>
      <trkpt lat="39.8809200" lon="3.0045990">
        <ele>60.6</ele>
        <time>2018-12-30T10:34:35Z</time>
      </trkpt>
      <trkpt lat="39.8808800" lon="3.0045250">
        <ele>60.6</ele>
        <time>2018-12-30T10:34:36Z</time>
      </trkpt>
      <trkpt lat="39.8808400" lon="3.0044510">
        <ele>60.6</ele>
        <time>2018-12-30T10:34:37Z</time>
      </trkpt>
      <trkpt lat="39.8808000" lon="3.0043770">
        <ele>60.6</ele>
        <time>2018-12-30T10:34:38Z</time>
      </trkpt>
      <trkpt lat="39.8807600" lon="3.0043030">
        <ele>60.5</ele>
        <time>2018-12-30T10:34:39Z</time>
      </trkpt>
      <trkpt lat="39.8807200" lon="3.0042280">
        <ele>60.5</ele>
        <time>2018-12-30T10:34:40Z</time>
      </trkpt>
      <trkpt lat="39.8806800" lon="3.0041530">
        <ele>60.5</ele>
        <time>2018-12-30T10:34:41Z</time>
      </trkpt>
      <trkpt lat="39.8806400" lon="3.0040770">
        <ele>60.5</ele>
        <time>2018-12-30T10:34:42Z</time>
      </trkpt>
      <trkpt lat="39.8805990" lon="3.0040020">
        <ele>60.5</ele>
        <time>2018-12-30T10:34:43Z</time>
      </trkpt>
      <trkpt lat="39.8805590" lon="3.0039260">
        <ele>60.5</ele>
        <time>2018-12-30T10:34:44Z</time>
      </trkpt>
      <trkpt lat="39.8805190" lon="3.0038500">
        <ele>60.5</ele>
        <time>2018-12-30T10:34:45Z</time>
      </trkpt>
      <trkpt lat="39.8804780" lon="3.0037730">
        <ele>60.5</ele>
        <time>2018-12-30T10:34:46Z</time>
      </trkpt>
      <trkpt lat="39.8804370" lon="3.0036970">
        <ele>60.6</ele>
        <time>2018-12-30T10:34:47Z</time>
      </trkpt>
      <trkpt lat="39.8803950" lon="3.0036210">
        <ele>60.6</ele>
        <time>2018-12-30T10:34:48Z</time>
      </trkpt>
      <trkpt lat="39.8803540" lon="3.0035460">
        <ele>60.6</ele>
        <time>2018-12-30T10:34:49Z</time>
      </trkpt>
      <trkpt lat="39.8803150" lon="3.0034700">
        <ele>60.6</ele>
        <time>2018-12-30T10:34:50Z</time>
      </trkpt>
      <trkpt lat="39.8802750" lon="3.0033930">
        <ele>60.7</ele>
        <time>2018-12-30T10:34:51Z</time>
      </trkpt>
      <trkpt lat="39.8802350" lon="3.0033170">
        <ele>60.8</ele>
        <time>2018-12-30T10:34:52Z</time>
      </trkpt>
      <trkpt lat="39.8801960" lon="3.0032420">
        <ele>60.8</ele>
        <time>2018-12-30T10:34:53Z</time>
      </trkpt>
      <trkpt lat="39.8801570" lon="3.0031680">
        <ele>60.7</ele>
        <time>2018-12-30T10:34:54Z</time>
      </trkpt>
      <trkpt lat="39.8801180" lon="3.0030940">
        <ele>60.7</ele>
        <time>2018-12-30T10:34:55Z</time>
      </trkpt>
      <trkpt lat="39.8800790" lon="3.0030220">
        <ele>60.6</ele>
        <time>2018-12-30T10:34:56Z</time>
      </trkpt>
      <trkpt lat="39.8800400" lon="3.0029490">
        <ele>60.6</ele>
        <time>2018-12-30T10:34:57Z</time>
      </trkpt>
      <trkpt lat="39.8800010" lon="3.0028780">
        <ele>60.5</ele>
        <time>2018-12-30T10:34:58Z</time>
      </trkpt>
      <trkpt lat="39.8799630" lon="3.0028070">
        <ele>60.4</ele>
        <time>2018-12-30T10:34:59Z</time>
      </trkpt>
      <trkpt lat="39.8799260" lon="3.0027360">
        <ele>60.4</ele>
        <time>2018-12-30T10:35:00Z</time>
      </trkpt>
      <trkpt lat="39.8798880" lon="3.0026640">
        <ele>60.3</ele>
        <time>2018-12-30T10:35:01Z</time>
      </trkpt>
      <trkpt lat="39.8798510" lon="3.0025920">
        <ele>60.2</ele>
        <time>2018-12-30T10:35:02Z</time>
      </trkpt>
      <trkpt lat="39.8798130" lon="3.0025190">
        <ele>60.1</ele>
        <time>2018-12-30T10:35:03Z</time>
      </trkpt>
      <trkpt lat="39.8797760" lon="3.0024450">
        <ele>60.1</ele>
        <time>2018-12-30T10:35:04Z</time>
      </trkpt>
      <trkpt lat="39.8797380" lon="3.0023720">
        <ele>60.1</ele>
        <time>2018-12-30T10:35:05Z</time>
      </trkpt>
      <trkpt lat="39.8796990" lon="3.0022990">
        <ele>60.2</ele>
        <time>2018-12-30T10:35:06Z</time>
      </trkpt>
      <trkpt lat="39.8796610" lon="3.0022270">
        <ele>60.3</ele>
        <time>2018-12-30T10:35:07Z</time>
      </trkpt>
      <trkpt lat="39.8796230" lon="3.0021550">
        <ele>60.3</ele>
        <time>2018-12-30T10:35:08Z</time>
      </trkpt>
      <trkpt lat="39.8795840" lon="3.0020830">
        <ele>60.4</ele>
        <time>2018-12-30T10:35:09Z</time>
      </trkpt>
      <trkpt lat="39.8795450" lon="3.0020120">
        <ele>60.4</ele>
        <time>2018-12-30T10:35:10Z</time>
      </trkpt>
      <trkpt lat="39.8795070" lon="3.0019420">
        <ele>60.5</ele>
        <time>2018-12-30T10:35:11Z</time>
      </trkpt>
      <trkpt lat="39.8794690" lon="3.0018710">
        <ele>60.5</ele>
        <time>2018-12-30T10:35:12Z</time>
      </trkpt>
      <trkpt lat="39.8794310" lon="3.0018000">
        <ele>60.6</ele>
        <time>2018-12-30T10:35:13Z</time>
      </trkpt>
      <trkpt lat="39.8793940" lon="3.0017300">
        <ele>60.7</ele>
        <time>2018-12-30T10:35:14Z</time>
      </trkpt>
      <trkpt lat="39.8793560" lon="3.0016590">
        <ele>60.8</ele>
        <time>2018-12-30T10:35:15Z</time>
      </trkpt>
      <trkpt lat="39.8793190" lon="3.0015870">
        <ele>60.8</ele>
        <time>2018-12-30T10:35:16Z</time>
      </trkpt>
      <trkpt lat="39.8792820" lon="3.0015160">
        <ele>60.9</ele>
        <time>2018-12-30T10:35:17Z</time>
      </trkpt>
      <trkpt lat="39.8792440" lon="3.0014450">
        <ele>61.0</ele>
        <time>2018-12-30T10:35:18Z</time>
      </trkpt>
      <trkpt lat="39.8792070" lon="3.0013740">
        <ele>61.1</ele>
        <time>2018-12-30T10:35:19Z</time>
      </trkpt>
      <trkpt lat="39.8791690" lon="3.0013030">
        <ele>61.1</ele>
        <time>2018-12-30T10:35:20Z</time>
      </trkpt>
      <trkpt lat="39.8791320" lon="3.0012300">
        <ele>61.2</ele>
        <time>2018-12-30T10:35:21Z</time>
      </trkpt>
      <trkpt lat="39.8790940" lon="3.0011580">
        <ele>61.3</ele>
        <time>2018-12-30T10:35:22Z</time>
      </trkpt>
      <trkpt lat="39.8790550" lon="3.0010860">
        <ele>61.3</ele>
        <time>2018-12-30T10:35:23Z</time>
      </trkpt>
      <trkpt lat="39.8790160" lon="3.0010140">
        <ele>61.4</ele>
        <time>2018-12-30T10:35:24Z</time>
      </trkpt>
      <trkpt lat="39.8789780" lon="3.0009430">
        <ele>61.6</ele>
        <time>2018-12-30T10:35:25Z</time>
      </trkpt>
      <trkpt lat="39.8789400" lon="3.0008720">
        <ele>61.7</ele>
        <time>2018-12-30T10:35:26Z</time>
      </trkpt>
      <trkpt lat="39.8789030" lon="3.0008010">
        <ele>61.8</ele>
        <time>2018-12-30T10:35:27Z</time>
      </trkpt>
      <trkpt lat="39.8788650" lon="3.0007310">
        <ele>62.5</ele>
        <time>2018-12-30T10:35:28Z</time>
      </trkpt>
      <trkpt lat="39.8788280" lon="3.0006600">
        <ele>62.8</ele>
        <time>2018-12-30T10:35:29Z</time>
      </trkpt>
      <trkpt lat="39.8787890" lon="3.0005910">
        <ele>63.1</ele>
        <time>2018-12-30T10:35:30Z</time>
      </trkpt>
      <trkpt lat="39.8787520" lon="3.0005210">
        <ele>63.2</ele>
        <time>2018-12-30T10:35:31Z</time>
      </trkpt>
      <trkpt lat="39.8787140" lon="3.0004520">
        <ele>63.4</ele>
        <time>2018-12-30T10:35:32Z</time>
      </trkpt>
      <trkpt lat="39.8786770" lon="3.0003830">
        <ele>63.6</ele>
        <time>2018-12-30T10:35:33Z</time>
      </trkpt>
      <trkpt lat="39.8786410" lon="3.0003140">
        <ele>63.8</ele>
        <time>2018-12-30T10:35:34Z</time>
      </trkpt>
      <trkpt lat="39.8786040" lon="3.0002450">
        <ele>64.1</ele>
        <time>2018-12-30T10:35:35Z</time>
      </trkpt>
      <trkpt lat="39.8785680" lon="3.0001750">
        <ele>64.2</ele>
        <time>2018-12-30T10:35:36Z</time>
      </trkpt>
      <trkpt lat="39.8785310" lon="3.0001060">
        <ele>64.3</ele>
        <time>2018-12-30T10:35:37Z</time>
      </trkpt>
      <trkpt lat="39.8784940" lon="3.0000370">
        <ele>64.5</ele>
        <time>2018-12-30T10:35:38Z</time>
      </trkpt>
      <trkpt lat="39.8784570" lon="2.9999670">
        <ele>64.6</ele>
        <time>2018-12-30T10:35:39Z</time>
      </trkpt>
      <trkpt lat="39.8784200" lon="2.9998980">
        <ele>64.8</ele>
        <time>2018-12-30T10:35:40Z</time>
      </trkpt>
      <trkpt lat="39.8783840" lon="2.9998280">
        <ele>65.0</ele>
        <time>2018-12-30T10:35:41Z</time>
      </trkpt>
      <trkpt lat="39.8783470" lon="2.9997590">
        <ele>65.0</ele>
        <time>2018-12-30T10:35:42Z</time>
      </trkpt>
      <trkpt lat="39.8783110" lon="2.9996900">
        <ele>65.1</ele>
        <time>2018-12-30T10:35:43Z</time>
      </trkpt>
      <trkpt lat="39.8782740" lon="2.9996220">
        <ele>65.1</ele>
        <time>2018-12-30T10:35:44Z</time>
      </trkpt>
      <trkpt lat="39.8782370" lon="2.9995540">
        <ele>65.1</ele>
        <time>2018-12-30T10:35:45Z</time>
      </trkpt>
      <trkpt lat="39.8782000" lon="2.9994850">
        <ele>65.1</ele>
        <time>2018-12-30T10:35:46Z</time>
      </trkpt>
      <trkpt lat="39.8781640" lon="2.9994140">
        <ele>65.1</ele>
        <time>2018-12-30T10:35:47Z</time>
      </trkpt>
      <trkpt lat="39.8781280" lon="2.9993430">
        <ele>65.0</ele>
        <time>2018-12-30T10:35:48Z</time>
      </trkpt>
      <trkpt lat="39.8780920" lon="2.9992720">
        <ele>64.9</ele>
        <time>2018-12-30T10:35:49Z</time>
      </trkpt>
      <trkpt lat="39.8780550" lon="2.9992020">
        <ele>64.9</ele>
        <time>2018-12-30T10:35:50Z</time>
      </trkpt>
      <trkpt lat="39.8780180" lon="2.9991310">
        <ele>64.8</ele>
        <time>2018-12-30T10:35:51Z</time>
      </trkpt>
      <trkpt lat="39.8779800" lon="2.9990610">
        <ele>64.7</ele>
        <time>2018-12-30T10:35:52Z</time>
      </trkpt>
      <trkpt lat="39.8779420" lon="2.9989900">
        <ele>64.6</ele>
        <time>2018-12-30T10:35:53Z</time>
      </trkpt>
      <trkpt lat="39.8779040" lon="2.9989200">
        <ele>64.6</ele>
        <time>2018-12-30T10:35:54Z</time>
      </trkpt>
      <trkpt lat="39.8778660" lon="2.9988500">
        <ele>64.5</ele>
        <time>2018-12-30T10:35:55Z</time>
      </trkpt>
      <trkpt lat="39.8778280" lon="2.9987800">
        <ele>64.5</ele>
        <time>2018-12-30T10:35:56Z</time>
      </trkpt>
      <trkpt lat="39.8777900" lon="2.9987100">
        <ele>64.4</ele>
        <time>2018-12-30T10:35:57Z</time>
      </trkpt>
      <trkpt lat="39.8777520" lon="2.9986400">
        <ele>64.3</ele>
        <time>2018-12-30T10:35:58Z</time>
      </trkpt>
      <trkpt lat="39.8777140" lon="2.9985710">
        <ele>64.3</ele>
        <time>2018-12-30T10:35:59Z</time>
      </trkpt>
      <trkpt lat="39.8776770" lon="2.9985030">
        <ele>64.2</ele>
        <time>2018-12-30T10:36:00Z</time>
      </trkpt>
      <trkpt lat="39.8776400" lon="2.9984360">
        <ele>64.1</ele>
        <time>2018-12-30T10:36:01Z</time>
      </trkpt>
      <trkpt lat="39.8776030" lon="2.9983670">
        <ele>64.1</ele>
        <time>2018-12-30T10:36:02Z</time>
      </trkpt>
      <trkpt lat="39.8775670" lon="2.9982980">
        <ele>64.0</ele>
        <time>2018-12-30T10:36:03Z</time>
      </trkpt>
      <trkpt lat="39.8775300" lon="2.9982280">
        <ele>64.0</ele>
        <time>2018-12-30T10:36:04Z</time>
      </trkpt>
      <trkpt lat="39.8774930" lon="2.9981590">
        <ele>63.9</ele>
        <time>2018-12-30T10:36:05Z</time>
      </trkpt>
      <trkpt lat="39.8774570" lon="2.9980900">
        <ele>63.9</ele>
        <time>2018-12-30T10:36:06Z</time>
      </trkpt>
      <trkpt lat="39.8774200" lon="2.9980200">
        <ele>63.9</ele>
        <time>2018-12-30T10:36:07Z</time>
      </trkpt>
      <trkpt lat="39.8773830" lon="2.9979490">
        <ele>63.8</ele>
        <time>2018-12-30T10:36:08Z</time>
      </trkpt>
      <trkpt lat="39.8773460" lon="2.9978770">
        <ele>63.8</ele>
        <time>2018-12-30T10:36:09Z</time>
      </trkpt>
      <trkpt lat="39.8773080" lon="2.9978050">
        <ele>63.8</ele>
        <time>2018-12-30T10:36:10Z</time>
      </trkpt>
      <trkpt lat="39.8772700" lon="2.9977330">
        <ele>63.9</ele>
        <time>2018-12-30T10:36:11Z</time>
      </trkpt>
      <trkpt lat="39.8772320" lon="2.9976620">
        <ele>64.0</ele>
        <time>2018-12-30T10:36:12Z</time>
      </trkpt>
      <trkpt lat="39.8771940" lon="2.9975910">
        <ele>64.1</ele>
        <time>2018-12-30T10:36:13Z</time>
      </trkpt>
      <trkpt lat="39.8771570" lon="2.9975200">
        <ele>64.2</ele>
        <time>2018-12-30T10:36:14Z</time>
      </trkpt>
      <trkpt lat="39.8771200" lon="2.9974490">
        <ele>64.4</ele>
        <time>2018-12-30T10:36:15Z</time>
      </trkpt>
      <trkpt lat="39.8770820" lon="2.9973770">
        <ele>64.6</ele>
        <time>2018-12-30T10:36:16Z</time>
      </trkpt>
      <trkpt lat="39.8770430" lon="2.9973060">
        <ele>64.8</ele>
        <time>2018-12-30T10:36:17Z</time>
      </trkpt>
      <trkpt lat="39.8770040" lon="2.9972340">
        <ele>65.1</ele>
        <time>2018-12-30T10:36:18Z</time>
      </trkpt>
      <trkpt lat="39.8769650" lon="2.9971620">
        <ele>65.4</ele>
        <time>2018-12-30T10:36:19Z</time>
      </trkpt>
      <trkpt lat="39.8769270" lon="2.9970900">
        <ele>65.7</ele>
        <time>2018-12-30T10:36:20Z</time>
      </trkpt>
      <trkpt lat="39.8768880" lon="2.9970160">
        <ele>66.0</ele>
        <time>2018-12-30T10:36:21Z</time>
      </trkpt>
      <trkpt lat="39.8768500" lon="2.9969430">
        <ele>66.2</ele>
        <time>2018-12-30T10:36:22Z</time>
      </trkpt>
      <trkpt lat="39.8768120" lon="2.9968690">
        <ele>66.5</ele>
        <time>2018-12-30T10:36:23Z</time>
      </trkpt>
      <trkpt lat="39.8767730" lon="2.9967950">
        <ele>66.7</ele>
        <time>2018-12-30T10:36:24Z</time>
      </trkpt>
      <trkpt lat="39.8767330" lon="2.9967210">
        <ele>66.9</ele>
        <time>2018-12-30T10:36:25Z</time>
      </trkpt>
      <trkpt lat="39.8766930" lon="2.9966470">
        <ele>67.2</ele>
        <time>2018-12-30T10:36:26Z</time>
      </trkpt>
      <trkpt lat="39.8766530" lon="2.9965710">
        <ele>67.4</ele>
        <time>2018-12-30T10:36:27Z</time>
      </trkpt>
      <trkpt lat="39.8766130" lon="2.9964950">
        <ele>67.7</ele>
        <time>2018-12-30T10:36:28Z</time>
      </trkpt>
      <trkpt lat="39.8765740" lon="2.9964180">
        <ele>67.9</ele>
        <time>2018-12-30T10:36:29Z</time>
      </trkpt>
      <trkpt lat="39.8765330" lon="2.9963410">
        <ele>68.2</ele>
        <time>2018-12-30T10:36:30Z</time>
      </trkpt>
      <trkpt lat="39.8764920" lon="2.9962650">
        <ele>68.4</ele>
        <time>2018-12-30T10:36:31Z</time>
      </trkpt>
      <trkpt lat="39.8764510" lon="2.9961880">
        <ele>69.3</ele>
        <time>2018-12-30T10:36:32Z</time>
      </trkpt>
      <trkpt lat="39.8764100" lon="2.9961120">
        <ele>69.8</ele>
        <time>2018-12-30T10:36:33Z</time>
      </trkpt>
      <trkpt lat="39.8763680" lon="2.9960350">
        <ele>70.6</ele>
        <time>2018-12-30T10:36:34Z</time>
      </trkpt>
      <trkpt lat="39.8763260" lon="2.9959580">
        <ele>71.0</ele>
        <time>2018-12-30T10:36:35Z</time>
      </trkpt>
      <trkpt lat="39.8762860" lon="2.9958800">
        <ele>71.4</ele>
        <time>2018-12-30T10:36:36Z</time>
      </trkpt>
      <trkpt lat="39.8762450" lon="2.9958020">
        <ele>71.8</ele>
        <time>2018-12-30T10:36:37Z</time>
      </trkpt>
      <trkpt lat="39.8762040" lon="2.9957250">
        <ele>72.3</ele>
        <time>2018-12-30T10:36:38Z</time>
      </trkpt>
      <trkpt lat="39.8761630" lon="2.9956480">
        <ele>72.8</ele>
        <time>2018-12-30T10:36:39Z</time>
      </trkpt>
      <trkpt lat="39.8761220" lon="2.9955720">
        <ele>73.0</ele>
        <time>2018-12-30T10:36:40Z</time>
      </trkpt>
      <trkpt lat="39.8760810" lon="2.9954970">
        <ele>73.3</ele>
        <time>2018-12-30T10:36:41Z</time>
      </trkpt>
      <trkpt lat="39.8760400" lon="2.9954230">
        <ele>73.5</ele>
        <time>2018-12-30T10:36:42Z</time>
      </trkpt>
      <trkpt lat="39.8760000" lon="2.9953490">
        <ele>73.7</ele>
        <time>2018-12-30T10:36:43Z</time>
      </trkpt>
      <trkpt lat="39.8759610" lon="2.9952750">
        <ele>73.9</ele>
        <time>2018-12-30T10:36:44Z</time>
      </trkpt>
      <trkpt lat="39.8759230" lon="2.9952030">
        <ele>74.0</ele>
        <time>2018-12-30T10:36:45Z</time>
      </trkpt>
      <trkpt lat="39.8758850" lon="2.9951330">
        <ele>74.2</ele>
        <time>2018-12-30T10:36:46Z</time>
      </trkpt>
      <trkpt lat="39.8758490" lon="2.9950640">
        <ele>74.4</ele>
        <time>2018-12-30T10:36:47Z</time>
      </trkpt>
      <trkpt lat="39.8758130" lon="2.9949970">
        <ele>74.6</ele>
        <time>2018-12-30T10:36:48Z</time>
      </trkpt>
      <trkpt lat="39.8757790" lon="2.9949320">
        <ele>74.8</ele>
        <time>2018-12-30T10:36:49Z</time>
      </trkpt>
      <trkpt lat="39.8757440" lon="2.9948670">
        <ele>74.9</ele>
        <time>2018-12-30T10:36:50Z</time>
      </trkpt>
      <trkpt lat="39.8757100" lon="2.9948050">
        <ele>75.1</ele>
        <time>2018-12-30T10:36:51Z</time>
      </trkpt>
      <trkpt lat="39.8756760" lon="2.9947430">
        <ele>75.3</ele>
        <time>2018-12-30T10:36:52Z</time>
      </trkpt>
      <trkpt lat="39.8756430" lon="2.9946820">
        <ele>75.5</ele>
        <time>2018-12-30T10:36:53Z</time>
      </trkpt>
      <trkpt lat="39.8756110" lon="2.9946220">
        <ele>75.7</ele>
        <time>2018-12-30T10:36:54Z</time>
      </trkpt>
      <trkpt lat="39.8755800" lon="2.9945630">
        <ele>76.0</ele>
        <time>2018-12-30T10:36:55Z</time>
      </trkpt>
      <trkpt lat="39.8755500" lon="2.9945050">
        <ele>76.2</ele>
        <time>2018-12-30T10:36:56Z</time>
      </trkpt>
      <trkpt lat="39.8755210" lon="2.9944490">
        <ele>76.3</ele>
        <time>2018-12-30T10:36:57Z</time>
      </trkpt>
      <trkpt lat="39.8754910" lon="2.9943930">
        <ele>76.5</ele>
        <time>2018-12-30T10:36:58Z</time>
      </trkpt>
      <trkpt lat="39.8754610" lon="2.9943380">
        <ele>76.7</ele>
        <time>2018-12-30T10:36:59Z</time>
      </trkpt>
      <trkpt lat="39.8754300" lon="2.9942830">
        <ele>76.9</ele>
        <time>2018-12-30T10:37:00Z</time>
      </trkpt>
      <trkpt lat="39.8754010" lon="2.9942290">
        <ele>77.0</ele>
        <time>2018-12-30T10:37:01Z</time>
      </trkpt>
      <trkpt lat="39.8753710" lon="2.9941750">
        <ele>77.2</ele>
        <time>2018-12-30T10:37:02Z</time>
      </trkpt>
      <trkpt lat="39.8753440" lon="2.9941210">
        <ele>77.4</ele>
        <time>2018-12-30T10:37:03Z</time>
      </trkpt>
      <trkpt lat="39.8753170" lon="2.9940650">
        <ele>77.6</ele>
        <time>2018-12-30T10:37:04Z</time>
      </trkpt>
      <trkpt lat="39.8752890" lon="2.9940110">
        <ele>77.7</ele>
        <time>2018-12-30T10:37:05Z</time>
      </trkpt>
      <trkpt lat="39.8752600" lon="2.9939570">
        <ele>77.9</ele>
        <time>2018-12-30T10:37:06Z</time>
      </trkpt>
      <trkpt lat="39.8752310" lon="2.9939030">
        <ele>78.1</ele>
        <time>2018-12-30T10:37:07Z</time>
      </trkpt>
      <trkpt lat="39.8752040" lon="2.9938460">
        <ele>78.2</ele>
        <time>2018-12-30T10:37:08Z</time>
      </trkpt>
      <trkpt lat="39.8751750" lon="2.9937880">
        <ele>78.4</ele>
        <time>2018-12-30T10:37:09Z</time>
      </trkpt>
      <trkpt lat="39.8751440" lon="2.9937290">
        <ele>78.6</ele>
        <time>2018-12-30T10:37:10Z</time>
      </trkpt>
      <trkpt lat="39.8751120" lon="2.9936710">
        <ele>78.7</ele>
        <time>2018-12-30T10:37:11Z</time>
      </trkpt>
      <trkpt lat="39.8750810" lon="2.9936130">
        <ele>78.9</ele>
        <time>2018-12-30T10:37:12Z</time>
      </trkpt>
      <trkpt lat="39.8750500" lon="2.9935560">
        <ele>79.0</ele>
        <time>2018-12-30T10:37:13Z</time>
      </trkpt>
      <trkpt lat="39.8750200" lon="2.9934980">
        <ele>79.1</ele>
        <time>2018-12-30T10:37:14Z</time>
      </trkpt>
      <trkpt lat="39.8749920" lon="2.9934380">
        <ele>79.2</ele>
        <time>2018-12-30T10:37:15Z</time>
      </trkpt>
      <trkpt lat="39.8749660" lon="2.9933780">
        <ele>79.3</ele>
        <time>2018-12-30T10:37:16Z</time>
      </trkpt>
      <trkpt lat="39.8749400" lon="2.9933160">
        <ele>79.4</ele>
        <time>2018-12-30T10:37:17Z</time>
      </trkpt>
      <trkpt lat="39.8749150" lon="2.9932530">
        <ele>79.5</ele>
        <time>2018-12-30T10:37:18Z</time>
      </trkpt>
      <trkpt lat="39.8748910" lon="2.9931890">
        <ele>79.7</ele>
        <time>2018-12-30T10:37:19Z</time>
      </trkpt>
      <trkpt lat="39.8748700" lon="2.9931210">
        <ele>79.9</ele>
        <time>2018-12-30T10:37:20Z</time>
      </trkpt>
      <trkpt lat="39.8748490" lon="2.9930530">
        <ele>80.2</ele>
        <time>2018-12-30T10:37:21Z</time>
      </trkpt>
      <trkpt lat="39.8748300" lon="2.9929820">
        <ele>80.4</ele>
        <time>2018-12-30T10:37:22Z</time>
      </trkpt>
      <trkpt lat="39.8748130" lon="2.9929100">
        <ele>80.6</ele>
        <time>2018-12-30T10:37:23Z</time>
      </trkpt>
      <trkpt lat="39.8747970" lon="2.9928370">
        <ele>80.9</ele>
        <time>2018-12-30T10:37:24Z</time>
      </trkpt>
      <trkpt lat="39.8747810" lon="2.9927630">
        <ele>81.1</ele>
        <time>2018-12-30T10:37:25Z</time>
      </trkpt>
      <trkpt lat="39.8747640" lon="2.9926880">
        <ele>81.3</ele>
        <time>2018-12-30T10:37:26Z</time>
      </trkpt>
      <trkpt lat="39.8747470" lon="2.9926130">
        <ele>81.6</ele>
        <time>2018-12-30T10:37:27Z</time>
      </trkpt>
      <trkpt lat="39.8747310" lon="2.9925360">
        <ele>81.8</ele>
        <time>2018-12-30T10:37:28Z</time>
      </trkpt>
      <trkpt lat="39.8747160" lon="2.9924590">
        <ele>82.0</ele>
        <time>2018-12-30T10:37:29Z</time>
      </trkpt>
      <trkpt lat="39.8747010" lon="2.9923810">
        <ele>82.2</ele>
        <time>2018-12-30T10:37:30Z</time>
      </trkpt>
      <trkpt lat="39.8746860" lon="2.9923030">
        <ele>82.5</ele>
        <time>2018-12-30T10:37:31Z</time>
      </trkpt>
      <trkpt lat="39.8746700" lon="2.9922250">
        <ele>82.7</ele>
        <time>2018-12-30T10:37:32Z</time>
      </trkpt>
      <trkpt lat="39.8746540" lon="2.9921460">
        <ele>82.9</ele>
        <time>2018-12-30T10:37:33Z</time>
      </trkpt>
      <trkpt lat="39.8746370" lon="2.9920670">
        <ele>83.1</ele>
        <time>2018-12-30T10:37:34Z</time>
      </trkpt>
      <trkpt lat="39.8746190" lon="2.9919870">
        <ele>83.3</ele>
        <time>2018-12-30T10:37:35Z</time>
      </trkpt>
      <trkpt lat="39.8746010" lon="2.9919070">
        <ele>83.5</ele>
        <time>2018-12-30T10:37:36Z</time>
      </trkpt>
      <trkpt lat="39.8745830" lon="2.9918270">
        <ele>83.7</ele>
        <time>2018-12-30T10:37:37Z</time>
      </trkpt>
      <trkpt lat="39.8745650" lon="2.9917460">
        <ele>83.8</ele>
        <time>2018-12-30T10:37:38Z</time>
      </trkpt>
      <trkpt lat="39.8745480" lon="2.9916650">
        <ele>84.0</ele>
        <time>2018-12-30T10:37:39Z</time>
      </trkpt>
      <trkpt lat="39.8745310" lon="2.9915830">
        <ele>84.0</ele>
        <time>2018-12-30T10:37:40Z</time>
      </trkpt>
      <trkpt lat="39.8745140" lon="2.9915020">
        <ele>84.0</ele>
        <time>2018-12-30T10:37:41Z</time>
      </trkpt>
      <trkpt lat="39.8744970" lon="2.9914200">
        <ele>84.0</ele>
        <time>2018-12-30T10:37:42Z</time>
      </trkpt>
      <trkpt lat="39.8744800" lon="2.9913370">
        <ele>84.0</ele>
        <time>2018-12-30T10:37:43Z</time>
      </trkpt>
      <trkpt lat="39.8744640" lon="2.9912540">
        <ele>84.0</ele>
        <time>2018-12-30T10:37:44Z</time>
      </trkpt>
      <trkpt lat="39.8744490" lon="2.9911710">
        <ele>84.0</ele>
        <time>2018-12-30T10:37:45Z</time>
      </trkpt>
      <trkpt lat="39.8744330" lon="2.9910880">
        <ele>84.1</ele>
        <time>2018-12-30T10:37:46Z</time>
      </trkpt>
      <trkpt lat="39.8744150" lon="2.9910050">
        <ele>84.1</ele>
        <time>2018-12-30T10:37:47Z</time>
      </trkpt>
      <trkpt lat="39.8743950" lon="2.9909220">
        <ele>84.1</ele>
        <time>2018-12-30T10:37:48Z</time>
      </trkpt>
      <trkpt lat="39.8743760" lon="2.9908410">
        <ele>84.2</ele>
        <time>2018-12-30T10:37:49Z</time>
      </trkpt>
      <trkpt lat="39.8743580" lon="2.9907600">
        <ele>84.2</ele>
        <time>2018-12-30T10:37:50Z</time>
      </trkpt>
      <trkpt lat="39.8743410" lon="2.9906790">
        <ele>84.3</ele>
        <time>2018-12-30T10:37:51Z</time>
      </trkpt>
      <trkpt lat="39.8743220" lon="2.9905970">
        <ele>84.3</ele>
        <time>2018-12-30T10:37:52Z</time>
      </trkpt>
      <trkpt lat="39.8743040" lon="2.9905150">
        <ele>84.3</ele>
        <time>2018-12-30T10:37:53Z</time>
      </trkpt>
      <trkpt lat="39.8742840" lon="2.9904340">
        <ele>84.3</ele>
        <time>2018-12-30T10:37:54Z</time>
      </trkpt>
      <trkpt lat="39.8742660" lon="2.9903540">
        <ele>84.4</ele>
        <time>2018-12-30T10:37:55Z</time>
      </trkpt>
      <trkpt lat="39.8742480" lon="2.9902750">
        <ele>84.4</ele>
        <time>2018-12-30T10:37:56Z</time>
      </trkpt>
      <trkpt lat="39.8742290" lon="2.9901950">
        <ele>84.4</ele>
        <time>2018-12-30T10:37:57Z</time>
      </trkpt>
      <trkpt lat="39.8742100" lon="2.9901160">
        <ele>84.5</ele>
        <time>2018-12-30T10:37:58Z</time>
      </trkpt>
      <trkpt lat="39.8741860" lon="2.9900390">
        <ele>84.5</ele>
        <time>2018-12-30T10:37:59Z</time>
      </trkpt>
      <trkpt lat="39.8741600" lon="2.9899620">
        <ele>84.5</ele>
        <time>2018-12-30T10:38:00Z</time>
      </trkpt>
      <trkpt lat="39.8741340" lon="2.9898850">
        <ele>84.6</ele>
        <time>2018-12-30T10:38:01Z</time>
      </trkpt>
      <trkpt lat="39.8741070" lon="2.9898080">
        <ele>84.6</ele>
        <time>2018-12-30T10:38:02Z</time>
      </trkpt>
      <trkpt lat="39.8740810" lon="2.9897320">
        <ele>84.7</ele>
        <time>2018-12-30T10:38:03Z</time>
      </trkpt>
      <trkpt lat="39.8740550" lon="2.9896560">
        <ele>84.7</ele>
        <time>2018-12-30T10:38:04Z</time>
      </trkpt>
      <trkpt lat="39.8740300" lon="2.9895790">
        <ele>84.7</ele>
        <time>2018-12-30T10:38:05Z</time>
      </trkpt>
      <trkpt lat="39.8740040" lon="2.9895000">
        <ele>84.7</ele>
        <time>2018-12-30T10:38:06Z</time>
      </trkpt>
      <trkpt lat="39.8739720" lon="2.9894210">
        <ele>84.8</ele>
        <time>2018-12-30T10:38:07Z</time>
      </trkpt>
      <trkpt lat="39.8739390" lon="2.9893410">
        <ele>84.8</ele>
        <time>2018-12-30T10:38:08Z</time>
      </trkpt>
      <trkpt lat="39.8739030" lon="2.9892620">
        <ele>84.8</ele>
        <time>2018-12-30T10:38:09Z</time>
      </trkpt>
      <trkpt lat="39.8738700" lon="2.9891820">
        <ele>84.8</ele>
        <time>2018-12-30T10:38:10Z</time>
      </trkpt>
      <trkpt lat="39.8738370" lon="2.9891030">
        <ele>84.8</ele>
        <time>2018-12-30T10:38:11Z</time>
      </trkpt>
      <trkpt lat="39.8738060" lon="2.9890240">
        <ele>84.8</ele>
        <time>2018-12-30T10:38:12Z</time>
      </trkpt>
      <trkpt lat="39.8737760" lon="2.9889460">
        <ele>84.8</ele>
        <time>2018-12-30T10:38:13Z</time>
      </trkpt>
      <trkpt lat="39.8737460" lon="2.9888690">
        <ele>84.8</ele>
        <time>2018-12-30T10:38:14Z</time>
      </trkpt>
      <trkpt lat="39.8737150" lon="2.9887920">
        <ele>84.8</ele>
        <time>2018-12-30T10:38:15Z</time>
      </trkpt>
      <trkpt lat="39.8736830" lon="2.9887130">
        <ele>84.7</ele>
        <time>2018-12-30T10:38:16Z</time>
      </trkpt>
      <trkpt lat="39.8736510" lon="2.9886330">
        <ele>84.7</ele>
        <time>2018-12-30T10:38:17Z</time>
      </trkpt>
      <trkpt lat="39.8736190" lon="2.9885530">
        <ele>84.7</ele>
        <time>2018-12-30T10:38:18Z</time>
      </trkpt>
      <trkpt lat="39.8735860" lon="2.9884740">
        <ele>84.7</ele>
        <time>2018-12-30T10:38:19Z</time>
      </trkpt>
      <trkpt lat="39.8735550" lon="2.9883960">
        <ele>84.7</ele>
        <time>2018-12-30T10:38:20Z</time>
      </trkpt>
      <trkpt lat="39.8735250" lon="2.9883190">
        <ele>84.7</ele>
        <time>2018-12-30T10:38:21Z</time>
      </trkpt>
      <trkpt lat="39.8734960" lon="2.9882420">
        <ele>84.7</ele>
        <time>2018-12-30T10:38:22Z</time>
      </trkpt>
      <trkpt lat="39.8734660" lon="2.9881660">
        <ele>84.7</ele>
        <time>2018-12-30T10:38:23Z</time>
      </trkpt>
      <trkpt lat="39.8734370" lon="2.9880920">
        <ele>84.7</ele>
        <time>2018-12-30T10:38:24Z</time>
      </trkpt>
      <trkpt lat="39.8734080" lon="2.9880200">
        <ele>84.7</ele>
        <time>2018-12-30T10:38:25Z</time>
      </trkpt>
      <trkpt lat="39.8733810" lon="2.9879500">
        <ele>84.5</ele>
        <time>2018-12-30T10:38:26Z</time>
      </trkpt>
      <trkpt lat="39.8733550" lon="2.9878800">
        <ele>84.3</ele>
        <time>2018-12-30T10:38:27Z</time>
      </trkpt>
      <trkpt lat="39.8733290" lon="2.9878110">
        <ele>84.2</ele>
        <time>2018-12-30T10:38:28Z</time>
      </trkpt>
      <trkpt lat="39.8733030" lon="2.9877410">
        <ele>84.2</ele>
        <time>2018-12-30T10:38:29Z</time>
      </trkpt>
      <trkpt lat="39.8732760" lon="2.9876740">
        <ele>84.3</ele>
        <time>2018-12-30T10:38:30Z</time>
      </trkpt>
      <trkpt lat="39.8732510" lon="2.9876070">
        <ele>84.5</ele>
        <time>2018-12-30T10:38:31Z</time>
      </trkpt>
      <trkpt lat="39.8732260" lon="2.9875420">
        <ele>84.7</ele>
        <time>2018-12-30T10:38:32Z</time>
      </trkpt>
      <trkpt lat="39.8732010" lon="2.9874770">
        <ele>85.0</ele>
        <time>2018-12-30T10:38:33Z</time>
      </trkpt>
      <trkpt lat="39.8731750" lon="2.9874120">
        <ele>85.2</ele>
        <time>2018-12-30T10:38:34Z</time>
      </trkpt>
      <trkpt lat="39.8731490" lon="2.9873470">
        <ele>85.3</ele>
        <time>2018-12-30T10:38:35Z</time>
      </trkpt>
      <trkpt lat="39.8731240" lon="2.9872810">
        <ele>85.2</ele>
        <time>2018-12-30T10:38:36Z</time>
      </trkpt>
      <trkpt lat="39.8730980" lon="2.9872160">
        <ele>85.0</ele>
        <time>2018-12-30T10:38:37Z</time>
      </trkpt>
      <trkpt lat="39.8730720" lon="2.9871510">
        <ele>84.6</ele>
        <time>2018-12-30T10:38:38Z</time>
      </trkpt>
      <trkpt lat="39.8730460" lon="2.9870860">
        <ele>84.2</ele>
        <time>2018-12-30T10:38:39Z</time>
      </trkpt>
      <trkpt lat="39.8730210" lon="2.9870220">
        <ele>83.7</ele>
        <time>2018-12-30T10:38:40Z</time>
      </trkpt>
      <trkpt lat="39.8729960" lon="2.9869570">
        <ele>83.2</ele>
        <time>2018-12-30T10:38:41Z</time>
      </trkpt>
      <trkpt lat="39.8729730" lon="2.9868930">
        <ele>82.8</ele>
        <time>2018-12-30T10:38:42Z</time>
      </trkpt>
      <trkpt lat="39.8729490" lon="2.9868290">
        <ele>82.4</ele>
        <time>2018-12-30T10:38:43Z</time>
      </trkpt>
      <trkpt lat="39.8729250" lon="2.9867650">
        <ele>82.1</ele>
        <time>2018-12-30T10:38:44Z</time>
      </trkpt>
      <trkpt lat="39.8729010" lon="2.9867010">
        <ele>81.9</ele>
        <time>2018-12-30T10:38:45Z</time>
      </trkpt>
      <trkpt lat="39.8728780" lon="2.9866360">
        <ele>82.1</ele>
        <time>2018-12-30T10:38:46Z</time>
      </trkpt>
      <trkpt lat="39.8728540" lon="2.9865710">
        <ele>82.6</ele>
        <time>2018-12-30T10:38:47Z</time>
      </trkpt>
      <trkpt lat="39.8728300" lon="2.9865070">
        <ele>82.9</ele>
        <time>2018-12-30T10:38:48Z</time>
      </trkpt>
      <trkpt lat="39.8728070" lon="2.9864430">
        <ele>83.3</ele>
        <time>2018-12-30T10:38:49Z</time>
      </trkpt>
      <trkpt lat="39.8727840" lon="2.9863780">
        <ele>83.6</ele>
        <time>2018-12-30T10:38:50Z</time>
      </trkpt>
      <trkpt lat="39.8727610" lon="2.9863140">
        <ele>83.9</ele>
        <time>2018-12-30T10:38:51Z</time>
      </trkpt>
      <trkpt lat="39.8727360" lon="2.9862490">
        <ele>84.3</ele>
        <time>2018-12-30T10:38:52Z</time>
      </trkpt>
      <trkpt lat="39.8727100" lon="2.9861830">
        <ele>84.7</ele>
        <time>2018-12-30T10:38:53Z</time>
      </trkpt>
      <trkpt lat="39.8726830" lon="2.9861170">
        <ele>85.3</ele>
        <time>2018-12-30T10:38:54Z</time>
      </trkpt>
      <trkpt lat="39.8726550" lon="2.9860500">
        <ele>85.6</ele>
        <time>2018-12-30T10:38:55Z</time>
      </trkpt>
      <trkpt lat="39.8726280" lon="2.9859820">
        <ele>85.8</ele>
        <time>2018-12-30T10:38:56Z</time>
      </trkpt>
      <trkpt lat="39.8726000" lon="2.9859120">
        <ele>86.0</ele>
        <time>2018-12-30T10:38:57Z</time>
      </trkpt>
      <trkpt lat="39.8725730" lon="2.9858430">
        <ele>86.2</ele>
        <time>2018-12-30T10:38:58Z</time>
      </trkpt>
      <trkpt lat="39.8725450" lon="2.9857740">
        <ele>86.4</ele>
        <time>2018-12-30T10:38:59Z</time>
      </trkpt>
      <trkpt lat="39.8725170" lon="2.9857070">
        <ele>86.6</ele>
        <time>2018-12-30T10:39:00Z</time>
      </trkpt>
      <trkpt lat="39.8724890" lon="2.9856380">
        <ele>87.0</ele>
        <time>2018-12-30T10:39:01Z</time>
      </trkpt>
      <trkpt lat="39.8724610" lon="2.9855670">
        <ele>87.4</ele>
        <time>2018-12-30T10:39:02Z</time>
      </trkpt>
      <trkpt lat="39.8724340" lon="2.9854940">
        <ele>87.8</ele>
        <time>2018-12-30T10:39:03Z</time>
      </trkpt>
      <trkpt lat="39.8724060" lon="2.9854200">
        <ele>87.9</ele>
        <time>2018-12-30T10:39:04Z</time>
      </trkpt>
      <trkpt lat="39.8723790" lon="2.9853460">
        <ele>87.9</ele>
        <time>2018-12-30T10:39:05Z</time>
      </trkpt>
      <trkpt lat="39.8723500" lon="2.9852710">
        <ele>87.8</ele>
        <time>2018-12-30T10:39:06Z</time>
      </trkpt>
      <trkpt lat="39.8723230" lon="2.9851970">
        <ele>87.8</ele>
        <time>2018-12-30T10:39:07Z</time>
      </trkpt>
      <trkpt lat="39.8722960" lon="2.9851240">
        <ele>87.8</ele>
        <time>2018-12-30T10:39:08Z</time>
      </trkpt>
      <trkpt lat="39.8722710" lon="2.9850520">
        <ele>87.7</ele>
        <time>2018-12-30T10:39:09Z</time>
      </trkpt>
      <trkpt lat="39.8722460" lon="2.9849790">
        <ele>87.7</ele>
        <time>2018-12-30T10:39:10Z</time>
      </trkpt>
      <trkpt lat="39.8722210" lon="2.9849050">
        <ele>87.7</ele>
        <time>2018-12-30T10:39:11Z</time>
      </trkpt>
      <trkpt lat="39.8721970" lon="2.9848280">
        <ele>87.6</ele>
        <time>2018-12-30T10:39:12Z</time>
      </trkpt>
      <trkpt lat="39.8721740" lon="2.9847500">
        <ele>87.6</ele>
        <time>2018-12-30T10:39:13Z</time>
      </trkpt>
      <trkpt lat="39.8721520" lon="2.9846710">
        <ele>87.6</ele>
        <time>2018-12-30T10:39:14Z</time>
      </trkpt>
      <trkpt lat="39.8721270" lon="2.9845940">
        <ele>87.5</ele>
        <time>2018-12-30T10:39:15Z</time>
      </trkpt>
      <trkpt lat="39.8720950" lon="2.9845120">
        <ele>87.5</ele>
        <time>2018-12-30T10:39:16Z</time>
      </trkpt>
      <trkpt lat="39.8720630" lon="2.9844290">
        <ele>87.5</ele>
        <time>2018-12-30T10:39:17Z</time>
      </trkpt>
      <trkpt lat="39.8720320" lon="2.9843440">
        <ele>87.6</ele>
        <time>2018-12-30T10:39:18Z</time>
      </trkpt>
      <trkpt lat="39.8720060" lon="2.9842610">
        <ele>87.7</ele>
        <time>2018-12-30T10:39:19Z</time>
      </trkpt>
      <trkpt lat="39.8719770" lon="2.9841780">
        <ele>87.8</ele>
        <time>2018-12-30T10:39:20Z</time>
      </trkpt>
      <trkpt lat="39.8719410" lon="2.9840940">
        <ele>88.0</ele>
        <time>2018-12-30T10:39:21Z</time>
      </trkpt>
      <trkpt lat="39.8719030" lon="2.9840100">
        <ele>88.1</ele>
        <time>2018-12-30T10:39:22Z</time>
      </trkpt>
      <trkpt lat="39.8718640" lon="2.9839240">
        <ele>88.3</ele>
        <time>2018-12-30T10:39:23Z</time>
      </trkpt>
      <trkpt lat="39.8718280" lon="2.9838370">
        <ele>88.4</ele>
        <time>2018-12-30T10:39:24Z</time>
      </trkpt>
      <trkpt lat="39.8717920" lon="2.9837520">
        <ele>88.5</ele>
        <time>2018-12-30T10:39:25Z</time>
      </trkpt>
      <trkpt lat="39.8717530" lon="2.9836690">
        <ele>88.6</ele>
        <time>2018-12-30T10:39:26Z</time>
      </trkpt>
      <trkpt lat="39.8717130" lon="2.9835910">
        <ele>88.6</ele>
        <time>2018-12-30T10:39:27Z</time>
      </trkpt>
      <trkpt lat="39.8716700" lon="2.9835170">
        <ele>88.6</ele>
        <time>2018-12-30T10:39:28Z</time>
      </trkpt>
      <trkpt lat="39.8716250" lon="2.9834450">
        <ele>88.6</ele>
        <time>2018-12-30T10:39:29Z</time>
      </trkpt>
      <trkpt lat="39.8715760" lon="2.9833770">
        <ele>88.6</ele>
        <time>2018-12-30T10:39:30Z</time>
      </trkpt>
      <trkpt lat="39.8715250" lon="2.9833100">
        <ele>88.7</ele>
        <time>2018-12-30T10:39:31Z</time>
      </trkpt>
      <trkpt lat="39.8714730" lon="2.9832450">
        <ele>88.9</ele>
        <time>2018-12-30T10:39:32Z</time>
      </trkpt>
      <trkpt lat="39.8714240" lon="2.9831790">
        <ele>89.0</ele>
        <time>2018-12-30T10:39:33Z</time>
      </trkpt>
      <trkpt lat="39.8713750" lon="2.9831120">
        <ele>89.2</ele>
        <time>2018-12-30T10:39:34Z</time>
      </trkpt>
      <trkpt lat="39.8713230" lon="2.9830450">
        <ele>89.5</ele>
        <time>2018-12-30T10:39:35Z</time>
      </trkpt>
      <trkpt lat="39.8712680" lon="2.9829790">
        <ele>89.6</ele>
        <time>2018-12-30T10:39:36Z</time>
      </trkpt>
      <trkpt lat="39.8712090" lon="2.9829120">
        <ele>89.8</ele>
        <time>2018-12-30T10:39:37Z</time>
      </trkpt>
      <trkpt lat="39.8711510" lon="2.9828460">
        <ele>90.0</ele>
        <time>2018-12-30T10:39:38Z</time>
      </trkpt>
      <trkpt lat="39.8710930" lon="2.9827800">
        <ele>90.1</ele>
        <time>2018-12-30T10:39:39Z</time>
      </trkpt>
      <trkpt lat="39.8710360" lon="2.9827140">
        <ele>90.2</ele>
        <time>2018-12-30T10:39:40Z</time>
      </trkpt>
      <trkpt lat="39.8709800" lon="2.9826490">
        <ele>90.3</ele>
        <time>2018-12-30T10:39:41Z</time>
      </trkpt>
      <trkpt lat="39.8709250" lon="2.9825850">
        <ele>90.5</ele>
        <time>2018-12-30T10:39:42Z</time>
      </trkpt>
      <trkpt lat="39.8708700" lon="2.9825210">
        <ele>90.6</ele>
        <time>2018-12-30T10:39:43Z</time>
      </trkpt>
      <trkpt lat="39.8708150" lon="2.9824570">
        <ele>90.7</ele>
        <time>2018-12-30T10:39:44Z</time>
      </trkpt>
      <trkpt lat="39.8707630" lon="2.9823950">
        <ele>90.8</ele>
        <time>2018-12-30T10:39:45Z</time>
      </trkpt>
      <trkpt lat="39.8707110" lon="2.9823340">
        <ele>90.9</ele>
        <time>2018-12-30T10:39:46Z</time>
      </trkpt>
      <trkpt lat="39.8706610" lon="2.9822750">
        <ele>91.0</ele>
        <time>2018-12-30T10:39:47Z</time>
      </trkpt>
      <trkpt lat="39.8706110" lon="2.9822160">
        <ele>91.2</ele>
        <time>2018-12-30T10:39:48Z</time>
      </trkpt>
      <trkpt lat="39.8705630" lon="2.9821580">
        <ele>91.3</ele>
        <time>2018-12-30T10:39:49Z</time>
      </trkpt>
      <trkpt lat="39.8705180" lon="2.9820980">
        <ele>91.0</ele>
        <time>2018-12-30T10:39:50Z</time>
      </trkpt>
      <trkpt lat="39.8704710" lon="2.9820400">
        <ele>91.0</ele>
        <time>2018-12-30T10:39:51Z</time>
      </trkpt>
      <trkpt lat="39.8704250" lon="2.9819800">
        <ele>90.8</ele>
        <time>2018-12-30T10:39:52Z</time>
      </trkpt>
      <trkpt lat="39.8703810" lon="2.9819150">
        <ele>90.5</ele>
        <time>2018-12-30T10:39:53Z</time>
      </trkpt>
      <trkpt lat="39.8703430" lon="2.9818450">
        <ele>90.3</ele>
        <time>2018-12-30T10:39:54Z</time>
      </trkpt>
      <trkpt lat="39.8703070" lon="2.9817700">
        <ele>89.7</ele>
        <time>2018-12-30T10:39:55Z</time>
      </trkpt>
      <trkpt lat="39.8702720" lon="2.9816960">
        <ele>89.1</ele>
        <time>2018-12-30T10:39:56Z</time>
      </trkpt>
      <trkpt lat="39.8702360" lon="2.9816230">
        <ele>88.8</ele>
        <time>2018-12-30T10:39:57Z</time>
      </trkpt>
      <trkpt lat="39.8702010" lon="2.9815500">
        <ele>88.4</ele>
        <time>2018-12-30T10:39:58Z</time>
      </trkpt>
      <trkpt lat="39.8701670" lon="2.9814770">
        <ele>87.8</ele>
        <time>2018-12-30T10:39:59Z</time>
      </trkpt>
      <trkpt lat="39.8701360" lon="2.9814020">
        <ele>87.3</ele>
        <time>2018-12-30T10:40:00Z</time>
      </trkpt>
      <trkpt lat="39.8701050" lon="2.9813270">
        <ele>87.0</ele>
        <time>2018-12-30T10:40:01Z</time>
      </trkpt>
      <trkpt lat="39.8700740" lon="2.9812520">
        <ele>86.8</ele>
        <time>2018-12-30T10:40:02Z</time>
      </trkpt>
      <trkpt lat="39.8700420" lon="2.9811800">
        <ele>86.5</ele>
        <time>2018-12-30T10:40:03Z</time>
      </trkpt>
      <trkpt lat="39.8700090" lon="2.9811080">
        <ele>86.2</ele>
        <time>2018-12-30T10:40:04Z</time>
      </trkpt>
      <trkpt lat="39.8699780" lon="2.9810350">
        <ele>86.1</ele>
        <time>2018-12-30T10:40:05Z</time>
      </trkpt>
      <trkpt lat="39.8699470" lon="2.9809640">
        <ele>85.9</ele>
        <time>2018-12-30T10:40:06Z</time>
      </trkpt>
      <trkpt lat="39.8699170" lon="2.9808930">
        <ele>85.7</ele>
        <time>2018-12-30T10:40:07Z</time>
      </trkpt>
      <trkpt lat="39.8698890" lon="2.9808240">
        <ele>85.3</ele>
        <time>2018-12-30T10:40:08Z</time>
      </trkpt>
      <trkpt lat="39.8698610" lon="2.9807550">
        <ele>85.0</ele>
        <time>2018-12-30T10:40:09Z</time>
      </trkpt>
      <trkpt lat="39.8698340" lon="2.9806860">
        <ele>84.8</ele>
        <time>2018-12-30T10:40:10Z</time>
      </trkpt>
      <trkpt lat="39.8698070" lon="2.9806160">
        <ele>84.6</ele>
        <time>2018-12-30T10:40:11Z</time>
      </trkpt>
      <trkpt lat="39.8697820" lon="2.9805450">
        <ele>84.4</ele>
        <time>2018-12-30T10:40:12Z</time>
      </trkpt>
      <trkpt lat="39.8697550" lon="2.9804750">
        <ele>84.2</ele>
        <time>2018-12-30T10:40:13Z</time>
      </trkpt>
      <trkpt lat="39.8697260" lon="2.9804050">
        <ele>84.1</ele>
        <time>2018-12-30T10:40:14Z</time>
      </trkpt>
      <trkpt lat="39.8696960" lon="2.9803340">
        <ele>84.0</ele>
        <time>2018-12-30T10:40:15Z</time>
      </trkpt>
      <trkpt lat="39.8696670" lon="2.9802640">
        <ele>83.9</ele>
        <time>2018-12-30T10:40:16Z</time>
      </trkpt>
      <trkpt lat="39.8696370" lon="2.9801930">
        <ele>83.5</ele>
        <time>2018-12-30T10:40:17Z</time>
      </trkpt>
      <trkpt lat="39.8696070" lon="2.9801210">
        <ele>83.6</ele>
        <time>2018-12-30T10:40:18Z</time>
      </trkpt>
      <trkpt lat="39.8695760" lon="2.9800500">
        <ele>84.0</ele>
        <time>2018-12-30T10:40:19Z</time>
      </trkpt>
      <trkpt lat="39.8695450" lon="2.9799780">
        <ele>84.6</ele>
        <time>2018-12-30T10:40:20Z</time>
      </trkpt>
      <trkpt lat="39.8695140" lon="2.9799060">
        <ele>84.9</ele>
        <time>2018-12-30T10:40:21Z</time>
      </trkpt>
      <trkpt lat="39.8694840" lon="2.9798340">
        <ele>85.4</ele>
        <time>2018-12-30T10:40:22Z</time>
      </trkpt>
      <trkpt lat="39.8694530" lon="2.9797610">
        <ele>85.8</ele>
        <time>2018-12-30T10:40:23Z</time>
      </trkpt>
      <trkpt lat="39.8694230" lon="2.9796860">
        <ele>86.0</ele>
        <time>2018-12-30T10:40:24Z</time>
      </trkpt>
      <trkpt lat="39.8693940" lon="2.9796100">
        <ele>86.1</ele>
        <time>2018-12-30T10:40:25Z</time>
      </trkpt>
      <trkpt lat="39.8693680" lon="2.9795330">
        <ele>86.1</ele>
        <time>2018-12-30T10:40:26Z</time>
      </trkpt>
      <trkpt lat="39.8693440" lon="2.9794550">
        <ele>86.2</ele>
        <time>2018-12-30T10:40:27Z</time>
      </trkpt>
      <trkpt lat="39.8693210" lon="2.9793770">
        <ele>86.2</ele>
        <time>2018-12-30T10:40:28Z</time>
      </trkpt>
      <trkpt lat="39.8693000" lon="2.9792980">
        <ele>86.3</ele>
        <time>2018-12-30T10:40:29Z</time>
      </trkpt>
      <trkpt lat="39.8692810" lon="2.9792180">
        <ele>86.4</ele>
        <time>2018-12-30T10:40:30Z</time>
      </trkpt>
      <trkpt lat="39.8692630" lon="2.9791390">
        <ele>86.5</ele>
        <time>2018-12-30T10:40:31Z</time>
      </trkpt>
      <trkpt lat="39.8692450" lon="2.9790610">
        <ele>86.6</ele>
        <time>2018-12-30T10:40:32Z</time>
      </trkpt>
      <trkpt lat="39.8692290" lon="2.9789830">
        <ele>86.5</ele>
        <time>2018-12-30T10:40:33Z</time>
      </trkpt>
      <trkpt lat="39.8692130" lon="2.9789060">
        <ele>86.5</ele>
        <time>2018-12-30T10:40:34Z</time>
      </trkpt>
      <trkpt lat="39.8691960" lon="2.9788290">
        <ele>86.4</ele>
        <time>2018-12-30T10:40:35Z</time>
      </trkpt>
      <trkpt lat="39.8691770" lon="2.9787520">
        <ele>86.3</ele>
        <time>2018-12-30T10:40:36Z</time>
      </trkpt>
      <trkpt lat="39.8691580" lon="2.9786760">
        <ele>86.3</ele>
        <time>2018-12-30T10:40:37Z</time>
      </trkpt>
      <trkpt lat="39.8691390" lon="2.9785990">
        <ele>86.4</ele>
        <time>2018-12-30T10:40:38Z</time>
      </trkpt>
      <trkpt lat="39.8691210" lon="2.9785220">
        <ele>86.3</ele>
        <time>2018-12-30T10:40:39Z</time>
      </trkpt>
      <trkpt lat="39.8691040" lon="2.9784450">
        <ele>86.4</ele>
        <time>2018-12-30T10:40:40Z</time>
      </trkpt>
      <trkpt lat="39.8690880" lon="2.9783680">
        <ele>86.4</ele>
        <time>2018-12-30T10:40:41Z</time>
      </trkpt>
      <trkpt lat="39.8690710" lon="2.9782900">
        <ele>86.5</ele>
        <time>2018-12-30T10:40:42Z</time>
      </trkpt>
      <trkpt lat="39.8690530" lon="2.9782130">
        <ele>86.6</ele>
        <time>2018-12-30T10:40:43Z</time>
      </trkpt>
      <trkpt lat="39.8690340" lon="2.9781360">
        <ele>86.6</ele>
        <time>2018-12-30T10:40:44Z</time>
      </trkpt>
      <trkpt lat="39.8690150" lon="2.9780590">
        <ele>86.6</ele>
        <time>2018-12-30T10:40:45Z</time>
      </trkpt>
      <trkpt lat="39.8689970" lon="2.9779820">
        <ele>86.5</ele>
        <time>2018-12-30T10:40:46Z</time>
      </trkpt>
      <trkpt lat="39.8689800" lon="2.9779060">
        <ele>86.5</ele>
        <time>2018-12-30T10:40:47Z</time>
      </trkpt>
      <trkpt lat="39.8689640" lon="2.9778310">
        <ele>86.6</ele>
        <time>2018-12-30T10:40:48Z</time>
      </trkpt>
      <trkpt lat="39.8689470" lon="2.9777550">
        <ele>86.7</ele>
        <time>2018-12-30T10:40:49Z</time>
      </trkpt>
      <trkpt lat="39.8689290" lon="2.9776790">
        <ele>86.8</ele>
        <time>2018-12-30T10:40:50Z</time>
      </trkpt>
      <trkpt lat="39.8689110" lon="2.9776010">
        <ele>87.0</ele>
        <time>2018-12-30T10:40:51Z</time>
      </trkpt>
      <trkpt lat="39.8688910" lon="2.9775230">
        <ele>87.2</ele>
        <time>2018-12-30T10:40:52Z</time>
      </trkpt>
      <trkpt lat="39.8688710" lon="2.9774440">
        <ele>87.4</ele>
        <time>2018-12-30T10:40:53Z</time>
      </trkpt>
      <trkpt lat="39.8688520" lon="2.9773640">
        <ele>87.6</ele>
        <time>2018-12-30T10:40:54Z</time>
      </trkpt>
      <trkpt lat="39.8688320" lon="2.9772840">
        <ele>87.9</ele>
        <time>2018-12-30T10:40:55Z</time>
      </trkpt>
      <trkpt lat="39.8688120" lon="2.9772040">
        <ele>88.0</ele>
        <time>2018-12-30T10:40:56Z</time>
      </trkpt>
      <trkpt lat="39.8687930" lon="2.9771240">
        <ele>88.3</ele>
        <time>2018-12-30T10:40:57Z</time>
      </trkpt>
      <trkpt lat="39.8687740" lon="2.9770440">
        <ele>88.6</ele>
        <time>2018-12-30T10:40:58Z</time>
      </trkpt>
      <trkpt lat="39.8687550" lon="2.9769650">
        <ele>89.0</ele>
        <time>2018-12-30T10:40:59Z</time>
      </trkpt>
      <trkpt lat="39.8687370" lon="2.9768860">
        <ele>89.4</ele>
        <time>2018-12-30T10:41:00Z</time>
      </trkpt>
      <trkpt lat="39.8687200" lon="2.9768070">
        <ele>89.7</ele>
        <time>2018-12-30T10:41:01Z</time>
      </trkpt>
      <trkpt lat="39.8687030" lon="2.9767300">
        <ele>89.7</ele>
        <time>2018-12-30T10:41:02Z</time>
      </trkpt>
      <trkpt lat="39.8686860" lon="2.9766520">
        <ele>89.7</ele>
        <time>2018-12-30T10:41:03Z</time>
      </trkpt>
      <trkpt lat="39.8686700" lon="2.9765750">
        <ele>89.8</ele>
        <time>2018-12-30T10:41:04Z</time>
      </trkpt>
      <trkpt lat="39.8686540" lon="2.9764990">
        <ele>89.9</ele>
        <time>2018-12-30T10:41:05Z</time>
      </trkpt>
      <trkpt lat="39.8686380" lon="2.9764230">
        <ele>90.0</ele>
        <time>2018-12-30T10:41:06Z</time>
      </trkpt>
      <trkpt lat="39.8686200" lon="2.9763480">
        <ele>90.1</ele>
        <time>2018-12-30T10:41:07Z</time>
      </trkpt>
      <trkpt lat="39.8686020" lon="2.9762730">
        <ele>90.2</ele>
        <time>2018-12-30T10:41:08Z</time>
      </trkpt>
      <trkpt lat="39.8685840" lon="2.9761950">
        <ele>90.3</ele>
        <time>2018-12-30T10:41:09Z</time>
      </trkpt>
      <trkpt lat="39.8685650" lon="2.9761170">
        <ele>90.4</ele>
        <time>2018-12-30T10:41:10Z</time>
      </trkpt>
      <trkpt lat="39.8685460" lon="2.9760380">
        <ele>90.4</ele>
        <time>2018-12-30T10:41:11Z</time>
      </trkpt>
      <trkpt lat="39.8685250" lon="2.9759590">
        <ele>90.5</ele>
        <time>2018-12-30T10:41:12Z</time>
      </trkpt>
      <trkpt lat="39.8685040" lon="2.9758800">
        <ele>90.6</ele>
        <time>2018-12-30T10:41:13Z</time>
      </trkpt>
      <trkpt lat="39.8684840" lon="2.9758010">
        <ele>90.7</ele>
        <time>2018-12-30T10:41:14Z</time>
      </trkpt>
      <trkpt lat="39.8684650" lon="2.9757220">
        <ele>90.8</ele>
        <time>2018-12-30T10:41:15Z</time>
      </trkpt>
      <trkpt lat="39.8684460" lon="2.9756440">
        <ele>90.9</ele>
        <time>2018-12-30T10:41:16Z</time>
      </trkpt>
      <trkpt lat="39.8684270" lon="2.9755650">
        <ele>91.0</ele>
        <time>2018-12-30T10:41:17Z</time>
      </trkpt>
      <trkpt lat="39.8684100" lon="2.9754880">
        <ele>91.1</ele>
        <time>2018-12-30T10:41:18Z</time>
      </trkpt>
      <trkpt lat="39.8683920" lon="2.9754120">
        <ele>91.3</ele>
        <time>2018-12-30T10:41:19Z</time>
      </trkpt>
      <trkpt lat="39.8683750" lon="2.9753360">
        <ele>91.4</ele>
        <time>2018-12-30T10:41:20Z</time>
      </trkpt>
      <trkpt lat="39.8683570" lon="2.9752610">
        <ele>91.5</ele>
        <time>2018-12-30T10:41:21Z</time>
      </trkpt>
      <trkpt lat="39.8683400" lon="2.9751860">
        <ele>91.6</ele>
        <time>2018-12-30T10:41:22Z</time>
      </trkpt>
      <trkpt lat="39.8683210" lon="2.9751090">
        <ele>91.7</ele>
        <time>2018-12-30T10:41:23Z</time>
      </trkpt>
      <trkpt lat="39.8683020" lon="2.9750320">
        <ele>91.8</ele>
        <time>2018-12-30T10:41:24Z</time>
      </trkpt>
      <trkpt lat="39.8682810" lon="2.9749520">
        <ele>92.0</ele>
        <time>2018-12-30T10:41:25Z</time>
      </trkpt>
      <trkpt lat="39.8682620" lon="2.9748710">
        <ele>92.2</ele>
        <time>2018-12-30T10:41:26Z</time>
      </trkpt>
      <trkpt lat="39.8682430" lon="2.9747900">
        <ele>92.3</ele>
        <time>2018-12-30T10:41:27Z</time>
      </trkpt>
      <trkpt lat="39.8682250" lon="2.9747080">
        <ele>92.5</ele>
        <time>2018-12-30T10:41:28Z</time>
      </trkpt>
      <trkpt lat="39.8682060" lon="2.9746280">
        <ele>92.7</ele>
        <time>2018-12-30T10:41:29Z</time>
      </trkpt>
      <trkpt lat="39.8681870" lon="2.9745480">
        <ele>92.9</ele>
        <time>2018-12-30T10:41:30Z</time>
      </trkpt>
      <trkpt lat="39.8681670" lon="2.9744710">
        <ele>93.1</ele>
        <time>2018-12-30T10:41:31Z</time>
      </trkpt>
      <trkpt lat="39.8681490" lon="2.9743940">
        <ele>93.3</ele>
        <time>2018-12-30T10:41:32Z</time>
      </trkpt>
      <trkpt lat="39.8681310" lon="2.9743170">
        <ele>93.5</ele>
        <time>2018-12-30T10:41:33Z</time>
      </trkpt>
      <trkpt lat="39.8681130" lon="2.9742390">
        <ele>93.7</ele>
        <time>2018-12-30T10:41:34Z</time>
      </trkpt>
      <trkpt lat="39.8680940" lon="2.9741580">
        <ele>94.0</ele>
        <time>2018-12-30T10:41:35Z</time>
      </trkpt>
      <trkpt lat="39.8680760" lon="2.9740780">
        <ele>94.2</ele>
        <time>2018-12-30T10:41:36Z</time>
      </trkpt>
      <trkpt lat="39.8680580" lon="2.9739980">
        <ele>94.5</ele>
        <time>2018-12-30T10:41:37Z</time>
      </trkpt>
      <trkpt lat="39.8680390" lon="2.9739190">
        <ele>94.8</ele>
        <time>2018-12-30T10:41:38Z</time>
      </trkpt>
      <trkpt lat="39.8680210" lon="2.9738400">
        <ele>95.0</ele>
        <time>2018-12-30T10:41:39Z</time>
      </trkpt>
      <trkpt lat="39.8680020" lon="2.9737620">
        <ele>95.3</ele>
        <time>2018-12-30T10:41:40Z</time>
      </trkpt>
      <trkpt lat="39.8679840" lon="2.9736840">
        <ele>95.6</ele>
        <time>2018-12-30T10:41:41Z</time>
      </trkpt>
      <trkpt lat="39.8679660" lon="2.9736070">
        <ele>95.9</ele>
        <time>2018-12-30T10:41:42Z</time>
      </trkpt>
      <trkpt lat="39.8679490" lon="2.9735320">
        <ele>96.3</ele>
        <time>2018-12-30T10:41:43Z</time>
      </trkpt>
      <trkpt lat="39.8679310" lon="2.9734560">
        <ele>96.6</ele>
        <time>2018-12-30T10:41:44Z</time>
      </trkpt>
      <trkpt lat="39.8679120" lon="2.9733800">
        <ele>96.9</ele>
        <time>2018-12-30T10:41:45Z</time>
      </trkpt>
      <trkpt lat="39.8678930" lon="2.9733040">
        <ele>97.2</ele>
        <time>2018-12-30T10:41:46Z</time>
      </trkpt>
      <trkpt lat="39.8678740" lon="2.9732280">
        <ele>97.6</ele>
        <time>2018-12-30T10:41:47Z</time>
      </trkpt>
      <trkpt lat="39.8678570" lon="2.9731530">
        <ele>97.9</ele>
        <time>2018-12-30T10:41:48Z</time>
      </trkpt>
      <trkpt lat="39.8678420" lon="2.9730790">
        <ele>98.2</ele>
        <time>2018-12-30T10:41:49Z</time>
      </trkpt>
      <trkpt lat="39.8678270" lon="2.9730060">
        <ele>98.5</ele>
        <time>2018-12-30T10:41:50Z</time>
      </trkpt>
      <trkpt lat="39.8678110" lon="2.9729320">
        <ele>98.7</ele>
        <time>2018-12-30T10:41:51Z</time>
      </trkpt>
      <trkpt lat="39.8677970" lon="2.9728590">
        <ele>99.0</ele>
        <time>2018-12-30T10:41:52Z</time>
      </trkpt>
      <trkpt lat="39.8677870" lon="2.9727880">
        <ele>99.2</ele>
        <time>2018-12-30T10:41:53Z</time>
      </trkpt>
      <trkpt lat="39.8677750" lon="2.9727150">
        <ele>99.4</ele>
        <time>2018-12-30T10:41:54Z</time>
      </trkpt>
      <trkpt lat="39.8677590" lon="2.9726420">
        <ele>99.7</ele>
        <time>2018-12-30T10:41:55Z</time>
      </trkpt>
      <trkpt lat="39.8677390" lon="2.9725680">
        <ele>99.9</ele>
        <time>2018-12-30T10:41:56Z</time>
      </trkpt>
      <trkpt lat="39.8677220" lon="2.9724930">
        <ele>100.1</ele>
        <time>2018-12-30T10:41:57Z</time>
      </trkpt>
      <trkpt lat="39.8677080" lon="2.9724200">
        <ele>100.3</ele>
        <time>2018-12-30T10:41:58Z</time>
      </trkpt>
      <trkpt lat="39.8676950" lon="2.9723490">
        <ele>100.4</ele>
        <time>2018-12-30T10:41:59Z</time>
      </trkpt>
      <trkpt lat="39.8676850" lon="2.9722800">
        <ele>100.6</ele>
        <time>2018-12-30T10:42:00Z</time>
      </trkpt>
      <trkpt lat="39.8676770" lon="2.9722120">
        <ele>100.8</ele>
        <time>2018-12-30T10:42:01Z</time>
      </trkpt>
      <trkpt lat="39.8676690" lon="2.9721410">
        <ele>100.9</ele>
        <time>2018-12-30T10:42:02Z</time>
      </trkpt>
      <trkpt lat="39.8676630" lon="2.9720660">
        <ele>101.2</ele>
        <time>2018-12-30T10:42:03Z</time>
      </trkpt>
      <trkpt lat="39.8676610" lon="2.9719890">
        <ele>101.4</ele>
        <time>2018-12-30T10:42:04Z</time>
      </trkpt>
      <trkpt lat="39.8676630" lon="2.9719130">
        <ele>101.6</ele>
        <time>2018-12-30T10:42:05Z</time>
      </trkpt>
      <trkpt lat="39.8676670" lon="2.9718410">
        <ele>101.7</ele>
        <time>2018-12-30T10:42:06Z</time>
      </trkpt>
      <trkpt lat="39.8676700" lon="2.9717700">
        <ele>101.9</ele>
        <time>2018-12-30T10:42:07Z</time>
      </trkpt>
      <trkpt lat="39.8676780" lon="2.9717000">
        <ele>102.0</ele>
        <time>2018-12-30T10:42:08Z</time>
      </trkpt>
      <trkpt lat="39.8676900" lon="2.9716290">
        <ele>102.0</ele>
        <time>2018-12-30T10:42:09Z</time>
      </trkpt>
      <trkpt lat="39.8677070" lon="2.9715570">
        <ele>102.1</ele>
        <time>2018-12-30T10:42:10Z</time>
      </trkpt>
      <trkpt lat="39.8677230" lon="2.9714820">
        <ele>102.1</ele>
        <time>2018-12-30T10:42:11Z</time>
      </trkpt>
      <trkpt lat="39.8677400" lon="2.9714070">
        <ele>102.1</ele>
        <time>2018-12-30T10:42:12Z</time>
      </trkpt>
      <trkpt lat="39.8677570" lon="2.9713340">
        <ele>101.9</ele>
        <time>2018-12-30T10:42:13Z</time>
      </trkpt>
      <trkpt lat="39.8677730" lon="2.9712660">
        <ele>101.9</ele>
        <time>2018-12-30T10:42:14Z</time>
      </trkpt>
      <trkpt lat="39.8677900" lon="2.9712000">
        <ele>101.8</ele>
        <time>2018-12-30T10:42:15Z</time>
      </trkpt>
      <trkpt lat="39.8678090" lon="2.9711340">
        <ele>101.7</ele>
        <time>2018-12-30T10:42:16Z</time>
      </trkpt>
      <trkpt lat="39.8678290" lon="2.9710670">
        <ele>101.6</ele>
        <time>2018-12-30T10:42:17Z</time>
      </trkpt>
      <trkpt lat="39.8678490" lon="2.9709990">
        <ele>101.5</ele>
        <time>2018-12-30T10:42:18Z</time>
      </trkpt>
      <trkpt lat="39.8678680" lon="2.9709330">
        <ele>101.4</ele>
        <time>2018-12-30T10:42:19Z</time>
      </trkpt>
      <trkpt lat="39.8678860" lon="2.9708670">
        <ele>101.3</ele>
        <time>2018-12-30T10:42:20Z</time>
      </trkpt>
      <trkpt lat="39.8679030" lon="2.9708010">
        <ele>101.3</ele>
        <time>2018-12-30T10:42:21Z</time>
      </trkpt>
      <trkpt lat="39.8679180" lon="2.9707350">
        <ele>101.2</ele>
        <time>2018-12-30T10:42:22Z</time>
      </trkpt>
      <trkpt lat="39.8679330" lon="2.9706710">
        <ele>101.2</ele>
        <time>2018-12-30T10:42:23Z</time>
      </trkpt>
      <trkpt lat="39.8679520" lon="2.9706070">
        <ele>101.1</ele>
        <time>2018-12-30T10:42:24Z</time>
      </trkpt>
      <trkpt lat="39.8679740" lon="2.9705420">
        <ele>101.1</ele>
        <time>2018-12-30T10:42:25Z</time>
      </trkpt>
      <trkpt lat="39.8679950" lon="2.9704730">
        <ele>101.0</ele>
        <time>2018-12-30T10:42:26Z</time>
      </trkpt>
      <trkpt lat="39.8680130" lon="2.9703970">
        <ele>101.0</ele>
        <time>2018-12-30T10:42:27Z</time>
      </trkpt>
      <trkpt lat="39.8680290" lon="2.9703130">
        <ele>100.9</ele>
        <time>2018-12-30T10:42:28Z</time>
      </trkpt>
      <trkpt lat="39.8680440" lon="2.9702250">
        <ele>100.9</ele>
        <time>2018-12-30T10:42:29Z</time>
      </trkpt>
      <trkpt lat="39.8680590" lon="2.9701350">
        <ele>100.9</ele>
        <time>2018-12-30T10:42:30Z</time>
      </trkpt>
      <trkpt lat="39.8680740" lon="2.9700470">
        <ele>100.8</ele>
        <time>2018-12-30T10:42:31Z</time>
      </trkpt>
      <trkpt lat="39.8680900" lon="2.9699610">
        <ele>100.8</ele>
        <time>2018-12-30T10:42:32Z</time>
      </trkpt>
      <trkpt lat="39.8681080" lon="2.9698790">
        <ele>100.8</ele>
        <time>2018-12-30T10:42:33Z</time>
      </trkpt>
      <trkpt lat="39.8681260" lon="2.9697980">
        <ele>100.8</ele>
        <time>2018-12-30T10:42:34Z</time>
      </trkpt>
      <trkpt lat="39.8681450" lon="2.9697190">
        <ele>100.8</ele>
        <time>2018-12-30T10:42:35Z</time>
      </trkpt>
      <trkpt lat="39.8681630" lon="2.9696410">
        <ele>100.7</ele>
        <time>2018-12-30T10:42:36Z</time>
      </trkpt>
      <trkpt lat="39.8681820" lon="2.9695630">
        <ele>100.7</ele>
        <time>2018-12-30T10:42:37Z</time>
      </trkpt>
      <trkpt lat="39.8682000" lon="2.9694830">
        <ele>100.7</ele>
        <time>2018-12-30T10:42:38Z</time>
      </trkpt>
      <trkpt lat="39.8682180" lon="2.9694030">
        <ele>100.6</ele>
        <time>2018-12-30T10:42:39Z</time>
      </trkpt>
      <trkpt lat="39.8682360" lon="2.9693210">
        <ele>100.6</ele>
        <time>2018-12-30T10:42:40Z</time>
      </trkpt>
      <trkpt lat="39.8682550" lon="2.9692420">
        <ele>100.5</ele>
        <time>2018-12-30T10:42:41Z</time>
      </trkpt>
      <trkpt lat="39.8682730" lon="2.9691630">
        <ele>100.4</ele>
        <time>2018-12-30T10:42:42Z</time>
      </trkpt>
      <trkpt lat="39.8682910" lon="2.9690860">
        <ele>100.4</ele>
        <time>2018-12-30T10:42:43Z</time>
      </trkpt>
      <trkpt lat="39.8683100" lon="2.9690110">
        <ele>100.3</ele>
        <time>2018-12-30T10:42:44Z</time>
      </trkpt>
      <trkpt lat="39.8683290" lon="2.9689380">
        <ele>100.2</ele>
        <time>2018-12-30T10:42:45Z</time>
      </trkpt>
      <trkpt lat="39.8683470" lon="2.9688640">
        <ele>100.1</ele>
        <time>2018-12-30T10:42:46Z</time>
      </trkpt>
      <trkpt lat="39.8683640" lon="2.9687900">
        <ele>100.0</ele>
        <time>2018-12-30T10:42:47Z</time>
      </trkpt>
      <trkpt lat="39.8683820" lon="2.9687150">
        <ele>99.9</ele>
        <time>2018-12-30T10:42:48Z</time>
      </trkpt>
      <trkpt lat="39.8684000" lon="2.9686400">
        <ele>99.9</ele>
        <time>2018-12-30T10:42:49Z</time>
      </trkpt>
      <trkpt lat="39.8684180" lon="2.9685640">
        <ele>99.8</ele>
        <time>2018-12-30T10:42:50Z</time>
      </trkpt>
      <trkpt lat="39.8684360" lon="2.9684890">
        <ele>99.7</ele>
        <time>2018-12-30T10:42:51Z</time>
      </trkpt>
      <trkpt lat="39.8684530" lon="2.9684150">
        <ele>99.6</ele>
        <time>2018-12-30T10:42:52Z</time>
      </trkpt>
      <trkpt lat="39.8684690" lon="2.9683400">
        <ele>99.5</ele>
        <time>2018-12-30T10:42:53Z</time>
      </trkpt>
      <trkpt lat="39.8684860" lon="2.9682650">
        <ele>99.4</ele>
        <time>2018-12-30T10:42:54Z</time>
      </trkpt>
      <trkpt lat="39.8685030" lon="2.9681910">
        <ele>99.4</ele>
        <time>2018-12-30T10:42:55Z</time>
      </trkpt>
      <trkpt lat="39.8685220" lon="2.9681180">
        <ele>99.3</ele>
        <time>2018-12-30T10:42:56Z</time>
      </trkpt>
      <trkpt lat="39.8685400" lon="2.9680450">
        <ele>99.3</ele>
        <time>2018-12-30T10:42:57Z</time>
      </trkpt>
      <trkpt lat="39.8685590" lon="2.9679740">
        <ele>99.2</ele>
        <time>2018-12-30T10:42:58Z</time>
      </trkpt>
      <trkpt lat="39.8685770" lon="2.9679030">
        <ele>99.2</ele>
        <time>2018-12-30T10:42:59Z</time>
      </trkpt>
      <trkpt lat="39.8685950" lon="2.9678330">
        <ele>99.2</ele>
        <time>2018-12-30T10:43:00Z</time>
      </trkpt>
      <trkpt lat="39.8686140" lon="2.9677620">
        <ele>99.1</ele>
        <time>2018-12-30T10:43:01Z</time>
      </trkpt>
      <trkpt lat="39.8686320" lon="2.9676870">
        <ele>99.1</ele>
        <time>2018-12-30T10:43:02Z</time>
      </trkpt>
      <trkpt lat="39.8686480" lon="2.9676070">
        <ele>99.1</ele>
        <time>2018-12-30T10:43:03Z</time>
      </trkpt>
      <trkpt lat="39.8686630" lon="2.9675270">
        <ele>99.1</ele>
        <time>2018-12-30T10:43:04Z</time>
      </trkpt>
      <trkpt lat="39.8686770" lon="2.9674470">
        <ele>99.1</ele>
        <time>2018-12-30T10:43:05Z</time>
      </trkpt>
      <trkpt lat="39.8686930" lon="2.9673710">
        <ele>99.1</ele>
        <time>2018-12-30T10:43:06Z</time>
      </trkpt>
      <trkpt lat="39.8687090" lon="2.9672970">
        <ele>99.0</ele>
        <time>2018-12-30T10:43:07Z</time>
      </trkpt>
      <trkpt lat="39.8687270" lon="2.9672240">
        <ele>99.0</ele>
        <time>2018-12-30T10:43:08Z</time>
      </trkpt>
      <trkpt lat="39.8687440" lon="2.9671510">
        <ele>99.0</ele>
        <time>2018-12-30T10:43:09Z</time>
      </trkpt>
      <trkpt lat="39.8687620" lon="2.9670800">
        <ele>99.0</ele>
        <time>2018-12-30T10:43:10Z</time>
      </trkpt>
      <trkpt lat="39.8687790" lon="2.9670080">
        <ele>99.0</ele>
        <time>2018-12-30T10:43:11Z</time>
      </trkpt>
      <trkpt lat="39.8687950" lon="2.9669360">
        <ele>99.0</ele>
        <time>2018-12-30T10:43:12Z</time>
      </trkpt>
      <trkpt lat="39.8688110" lon="2.9668650">
        <ele>99.0</ele>
        <time>2018-12-30T10:43:13Z</time>
      </trkpt>
      <trkpt lat="39.8688260" lon="2.9667940">
        <ele>99.0</ele>
        <time>2018-12-30T10:43:14Z</time>
      </trkpt>
      <trkpt lat="39.8688400" lon="2.9667230">
        <ele>99.0</ele>
        <time>2018-12-30T10:43:15Z</time>
      </trkpt>
      <trkpt lat="39.8688540" lon="2.9666520">
        <ele>99.0</ele>
        <time>2018-12-30T10:43:16Z</time>
      </trkpt>
      <trkpt lat="39.8688690" lon="2.9665790">
        <ele>99.0</ele>
        <time>2018-12-30T10:43:17Z</time>
      </trkpt>
      <trkpt lat="39.8688840" lon="2.9665050">
        <ele>99.0</ele>
        <time>2018-12-30T10:43:18Z</time>
      </trkpt>
      <trkpt lat="39.8689030" lon="2.9664290">
        <ele>99.0</ele>
        <time>2018-12-30T10:43:19Z</time>
      </trkpt>
      <trkpt lat="39.8689220" lon="2.9663500">
        <ele>99.0</ele>
        <time>2018-12-30T10:43:20Z</time>
      </trkpt>
      <trkpt lat="39.8689420" lon="2.9662720">
        <ele>99.0</ele>
        <time>2018-12-30T10:43:21Z</time>
      </trkpt>
      <trkpt lat="39.8689600" lon="2.9661940">
        <ele>99.0</ele>
        <time>2018-12-30T10:43:22Z</time>
      </trkpt>
      <trkpt lat="39.8689780" lon="2.9661160">
        <ele>99.0</ele>
        <time>2018-12-30T10:43:23Z</time>
      </trkpt>
      <trkpt lat="39.8689960" lon="2.9660380">
        <ele>99.0</ele>
        <time>2018-12-30T10:43:24Z</time>
      </trkpt>
      <trkpt lat="39.8690140" lon="2.9659610">
        <ele>99.0</ele>
        <time>2018-12-30T10:43:25Z</time>
      </trkpt>
      <trkpt lat="39.8690320" lon="2.9658840">
        <ele>99.0</ele>
        <time>2018-12-30T10:43:26Z</time>
      </trkpt>
      <trkpt lat="39.8690500" lon="2.9658090">
        <ele>99.0</ele>
        <time>2018-12-30T10:43:27Z</time>
      </trkpt>
      <trkpt lat="39.8690670" lon="2.9657340">
        <ele>99.0</ele>
        <time>2018-12-30T10:43:28Z</time>
      </trkpt>
      <trkpt lat="39.8690850" lon="2.9656590">
        <ele>99.0</ele>
        <time>2018-12-30T10:43:29Z</time>
      </trkpt>
      <trkpt lat="39.8691030" lon="2.9655840">
        <ele>99.0</ele>
        <time>2018-12-30T10:43:30Z</time>
      </trkpt>
      <trkpt lat="39.8691220" lon="2.9655080">
        <ele>99.1</ele>
        <time>2018-12-30T10:43:31Z</time>
      </trkpt>
      <trkpt lat="39.8691400" lon="2.9654330">
        <ele>99.2</ele>
        <time>2018-12-30T10:43:32Z</time>
      </trkpt>
      <trkpt lat="39.8691580" lon="2.9653580">
        <ele>99.3</ele>
        <time>2018-12-30T10:43:33Z</time>
      </trkpt>
      <trkpt lat="39.8691760" lon="2.9652840">
        <ele>99.4</ele>
        <time>2018-12-30T10:43:34Z</time>
      </trkpt>
      <trkpt lat="39.8691930" lon="2.9652090">
        <ele>99.5</ele>
        <time>2018-12-30T10:43:35Z</time>
      </trkpt>
      <trkpt lat="39.8692110" lon="2.9651360">
        <ele>99.7</ele>
        <time>2018-12-30T10:43:36Z</time>
      </trkpt>
      <trkpt lat="39.8692290" lon="2.9650640">
        <ele>99.8</ele>
        <time>2018-12-30T10:43:37Z</time>
      </trkpt>
      <trkpt lat="39.8692460" lon="2.9649930">
        <ele>99.9</ele>
        <time>2018-12-30T10:43:38Z</time>
      </trkpt>
      <trkpt lat="39.8692630" lon="2.9649220">
        <ele>100.1</ele>
        <time>2018-12-30T10:43:39Z</time>
      </trkpt>
      <trkpt lat="39.8692790" lon="2.9648510">
        <ele>100.2</ele>
        <time>2018-12-30T10:43:40Z</time>
      </trkpt>
      <trkpt lat="39.8692960" lon="2.9647800">
        <ele>100.4</ele>
        <time>2018-12-30T10:43:41Z</time>
      </trkpt>
      <trkpt lat="39.8693130" lon="2.9647080">
        <ele>100.5</ele>
        <time>2018-12-30T10:43:42Z</time>
      </trkpt>
      <trkpt lat="39.8693300" lon="2.9646350">
        <ele>100.7</ele>
        <time>2018-12-30T10:43:43Z</time>
      </trkpt>
      <trkpt lat="39.8693470" lon="2.9645620">
        <ele>100.8</ele>
        <time>2018-12-30T10:43:44Z</time>
      </trkpt>
      <trkpt lat="39.8693640" lon="2.9644890">
        <ele>100.8</ele>
        <time>2018-12-30T10:43:45Z</time>
      </trkpt>
      <trkpt lat="39.8693810" lon="2.9644160">
        <ele>100.9</ele>
        <time>2018-12-30T10:43:46Z</time>
      </trkpt>
      <trkpt lat="39.8693970" lon="2.9643430">
        <ele>100.9</ele>
        <time>2018-12-30T10:43:47Z</time>
      </trkpt>
      <trkpt lat="39.8694140" lon="2.9642700">
        <ele>100.9</ele>
        <time>2018-12-30T10:43:48Z</time>
      </trkpt>
      <trkpt lat="39.8694320" lon="2.9641980">
        <ele>101.0</ele>
        <time>2018-12-30T10:43:49Z</time>
      </trkpt>
      <trkpt lat="39.8694500" lon="2.9641250">
        <ele>101.0</ele>
        <time>2018-12-30T10:43:50Z</time>
      </trkpt>
      <trkpt lat="39.8694670" lon="2.9640540">
        <ele>101.0</ele>
        <time>2018-12-30T10:43:51Z</time>
      </trkpt>
      <trkpt lat="39.8694840" lon="2.9639820">
        <ele>101.0</ele>
        <time>2018-12-30T10:43:52Z</time>
      </trkpt>
      <trkpt lat="39.8695010" lon="2.9639100">
        <ele>101.0</ele>
        <time>2018-12-30T10:43:53Z</time>
      </trkpt>
      <trkpt lat="39.8695180" lon="2.9638390">
        <ele>101.0</ele>
        <time>2018-12-30T10:43:54Z</time>
      </trkpt>
      <trkpt lat="39.8695360" lon="2.9637680">
        <ele>101.1</ele>
        <time>2018-12-30T10:43:55Z</time>
      </trkpt>
      <trkpt lat="39.8695540" lon="2.9636970">
        <ele>101.1</ele>
        <time>2018-12-30T10:43:56Z</time>
      </trkpt>
      <trkpt lat="39.8695710" lon="2.9636250">
        <ele>101.2</ele>
        <time>2018-12-30T10:43:57Z</time>
      </trkpt>
      <trkpt lat="39.8695870" lon="2.9635530">
        <ele>101.2</ele>
        <time>2018-12-30T10:43:58Z</time>
      </trkpt>
      <trkpt lat="39.8696020" lon="2.9634810">
        <ele>101.3</ele>
        <time>2018-12-30T10:43:59Z</time>
      </trkpt>
      <trkpt lat="39.8696180" lon="2.9634090">
        <ele>101.3</ele>
        <time>2018-12-30T10:44:00Z</time>
      </trkpt>
      <trkpt lat="39.8696340" lon="2.9633380">
        <ele>101.4</ele>
        <time>2018-12-30T10:44:01Z</time>
      </trkpt>
      <trkpt lat="39.8696510" lon="2.9632690">
        <ele>101.4</ele>
        <time>2018-12-30T10:44:02Z</time>
      </trkpt>
      <trkpt lat="39.8696690" lon="2.9632010">
        <ele>101.4</ele>
        <time>2018-12-30T10:44:03Z</time>
      </trkpt>
      <trkpt lat="39.8696850" lon="2.9631340">
        <ele>101.5</ele>
        <time>2018-12-30T10:44:04Z</time>
      </trkpt>
      <trkpt lat="39.8697020" lon="2.9630680">
        <ele>101.5</ele>
        <time>2018-12-30T10:44:05Z</time>
      </trkpt>
      <trkpt lat="39.8697190" lon="2.9630020">
        <ele>101.5</ele>
        <time>2018-12-30T10:44:06Z</time>
      </trkpt>
      <trkpt lat="39.8697370" lon="2.9629340">
        <ele>101.5</ele>
        <time>2018-12-30T10:44:07Z</time>
      </trkpt>
      <trkpt lat="39.8697550" lon="2.9628660">
        <ele>101.6</ele>
        <time>2018-12-30T10:44:08Z</time>
      </trkpt>
      <trkpt lat="39.8697740" lon="2.9627970">
        <ele>101.6</ele>
        <time>2018-12-30T10:44:09Z</time>
      </trkpt>
      <trkpt lat="39.8697940" lon="2.9627250">
        <ele>101.6</ele>
        <time>2018-12-30T10:44:10Z</time>
      </trkpt>
      <trkpt lat="39.8698130" lon="2.9626520">
        <ele>101.6</ele>
        <time>2018-12-30T10:44:11Z</time>
      </trkpt>
      <trkpt lat="39.8698310" lon="2.9625790">
        <ele>101.7</ele>
        <time>2018-12-30T10:44:12Z</time>
      </trkpt>
      <trkpt lat="39.8698480" lon="2.9625070">
        <ele>101.7</ele>
        <time>2018-12-30T10:44:13Z</time>
      </trkpt>
      <trkpt lat="39.8698630" lon="2.9624320">
        <ele>101.8</ele>
        <time>2018-12-30T10:44:14Z</time>
      </trkpt>
      <trkpt lat="39.8698730" lon="2.9623550">
        <ele>101.8</ele>
        <time>2018-12-30T10:44:15Z</time>
      </trkpt>
      <trkpt lat="39.8698750" lon="2.9622700">
        <ele>101.8</ele>
        <time>2018-12-30T10:44:16Z</time>
      </trkpt>
      <trkpt lat="39.8698710" lon="2.9621780">
        <ele>101.8</ele>
        <time>2018-12-30T10:44:17Z</time>
      </trkpt>
      <trkpt lat="39.8698650" lon="2.9620850">
        <ele>101.8</ele>
        <time>2018-12-30T10:44:18Z</time>
      </trkpt>
      <trkpt lat="39.8698580" lon="2.9619950">
        <ele>101.9</ele>
        <time>2018-12-30T10:44:19Z</time>
      </trkpt>
      <trkpt lat="39.8698520" lon="2.9619090">
        <ele>101.9</ele>
        <time>2018-12-30T10:44:20Z</time>
      </trkpt>
      <trkpt lat="39.8698460" lon="2.9618240">
        <ele>101.9</ele>
        <time>2018-12-30T10:44:21Z</time>
      </trkpt>
      <trkpt lat="39.8698400" lon="2.9617400">
        <ele>101.9</ele>
        <time>2018-12-30T10:44:22Z</time>
      </trkpt>
      <trkpt lat="39.8698330" lon="2.9616550">
        <ele>102.0</ele>
        <time>2018-12-30T10:44:23Z</time>
      </trkpt>
      <trkpt lat="39.8698260" lon="2.9615700">
        <ele>102.0</ele>
        <time>2018-12-30T10:44:24Z</time>
      </trkpt>
      <trkpt lat="39.8698180" lon="2.9614860">
        <ele>102.1</ele>
        <time>2018-12-30T10:44:25Z</time>
      </trkpt>
      <trkpt lat="39.8698100" lon="2.9614030">
        <ele>102.2</ele>
        <time>2018-12-30T10:44:26Z</time>
      </trkpt>
      <trkpt lat="39.8698020" lon="2.9613220">
        <ele>102.3</ele>
        <time>2018-12-30T10:44:27Z</time>
      </trkpt>
      <trkpt lat="39.8697940" lon="2.9612400">
        <ele>102.3</ele>
        <time>2018-12-30T10:44:28Z</time>
      </trkpt>
      <trkpt lat="39.8697860" lon="2.9611600">
        <ele>102.4</ele>
        <time>2018-12-30T10:44:29Z</time>
      </trkpt>
      <trkpt lat="39.8697770" lon="2.9610790">
        <ele>102.5</ele>
        <time>2018-12-30T10:44:30Z</time>
      </trkpt>
      <trkpt lat="39.8697690" lon="2.9609990">
        <ele>102.6</ele>
        <time>2018-12-30T10:44:31Z</time>
      </trkpt>
      <trkpt lat="39.8697620" lon="2.9609190">
        <ele>102.7</ele>
        <time>2018-12-30T10:44:32Z</time>
      </trkpt>
      <trkpt lat="39.8697550" lon="2.9608390">
        <ele>102.9</ele>
        <time>2018-12-30T10:44:33Z</time>
      </trkpt>
      <trkpt lat="39.8697480" lon="2.9607600">
        <ele>103.0</ele>
        <time>2018-12-30T10:44:34Z</time>
      </trkpt>
      <trkpt lat="39.8697420" lon="2.9606820">
        <ele>103.1</ele>
        <time>2018-12-30T10:44:35Z</time>
      </trkpt>
      <trkpt lat="39.8697350" lon="2.9606030">
        <ele>103.2</ele>
        <time>2018-12-30T10:44:36Z</time>
      </trkpt>
      <trkpt lat="39.8697280" lon="2.9605250">
        <ele>103.3</ele>
        <time>2018-12-30T10:44:37Z</time>
      </trkpt>
      <trkpt lat="39.8697200" lon="2.9604460">
        <ele>103.4</ele>
        <time>2018-12-30T10:44:38Z</time>
      </trkpt>
      <trkpt lat="39.8697140" lon="2.9603690">
        <ele>103.5</ele>
        <time>2018-12-30T10:44:39Z</time>
      </trkpt>
      <trkpt lat="39.8697070" lon="2.9602920">
        <ele>103.7</ele>
        <time>2018-12-30T10:44:40Z</time>
      </trkpt>
      <trkpt lat="39.8697000" lon="2.9602150">
        <ele>103.8</ele>
        <time>2018-12-30T10:44:41Z</time>
      </trkpt>
      <trkpt lat="39.8696940" lon="2.9601390">
        <ele>103.9</ele>
        <time>2018-12-30T10:44:42Z</time>
      </trkpt>
      <trkpt lat="39.8696870" lon="2.9600630">
        <ele>104.1</ele>
        <time>2018-12-30T10:44:43Z</time>
      </trkpt>
      <trkpt lat="39.8696790" lon="2.9599880">
        <ele>104.2</ele>
        <time>2018-12-30T10:44:44Z</time>
      </trkpt>
      <trkpt lat="39.8696720" lon="2.9599120">
        <ele>104.4</ele>
        <time>2018-12-30T10:44:45Z</time>
      </trkpt>
      <trkpt lat="39.8696650" lon="2.9598370">
        <ele>104.6</ele>
        <time>2018-12-30T10:44:46Z</time>
      </trkpt>
      <trkpt lat="39.8696590" lon="2.9597610">
        <ele>104.7</ele>
        <time>2018-12-30T10:44:47Z</time>
      </trkpt>
      <trkpt lat="39.8696520" lon="2.9596850">
        <ele>104.9</ele>
        <time>2018-12-30T10:44:48Z</time>
      </trkpt>
      <trkpt lat="39.8696450" lon="2.9596090">
        <ele>105.1</ele>
        <time>2018-12-30T10:44:49Z</time>
      </trkpt>
      <trkpt lat="39.8696380" lon="2.9595330">
        <ele>105.3</ele>
        <time>2018-12-30T10:44:50Z</time>
      </trkpt>
      <trkpt lat="39.8696310" lon="2.9594570">
        <ele>105.5</ele>
        <time>2018-12-30T10:44:51Z</time>
      </trkpt>
      <trkpt lat="39.8696250" lon="2.9593810">
        <ele>105.7</ele>
        <time>2018-12-30T10:44:52Z</time>
      </trkpt>
      <trkpt lat="39.8696180" lon="2.9593040">
        <ele>105.9</ele>
        <time>2018-12-30T10:44:53Z</time>
      </trkpt>
      <trkpt lat="39.8696110" lon="2.9592270">
        <ele>106.1</ele>
        <time>2018-12-30T10:44:54Z</time>
      </trkpt>
      <trkpt lat="39.8696040" lon="2.9591510">
        <ele>106.3</ele>
        <time>2018-12-30T10:44:55Z</time>
      </trkpt>
      <trkpt lat="39.8695980" lon="2.9590750">
        <ele>106.5</ele>
        <time>2018-12-30T10:44:56Z</time>
      </trkpt>
      <trkpt lat="39.8695910" lon="2.9589990">
        <ele>106.7</ele>
        <time>2018-12-30T10:44:57Z</time>
      </trkpt>
      <trkpt lat="39.8695850" lon="2.9589220">
        <ele>106.9</ele>
        <time>2018-12-30T10:44:58Z</time>
      </trkpt>
      <trkpt lat="39.8695780" lon="2.9588450">
        <ele>107.1</ele>
        <time>2018-12-30T10:44:59Z</time>
      </trkpt>
      <trkpt lat="39.8695700" lon="2.9587680">
        <ele>107.3</ele>
        <time>2018-12-30T10:45:00Z</time>
      </trkpt>
      <trkpt lat="39.8695620" lon="2.9586910">
        <ele>107.4</ele>
        <time>2018-12-30T10:45:01Z</time>
      </trkpt>
      <trkpt lat="39.8695540" lon="2.9586120">
        <ele>107.6</ele>
        <time>2018-12-30T10:45:02Z</time>
      </trkpt>
      <trkpt lat="39.8695470" lon="2.9585340">
        <ele>107.7</ele>
        <time>2018-12-30T10:45:03Z</time>
      </trkpt>
      <trkpt lat="39.8695410" lon="2.9584550">
        <ele>107.9</ele>
        <time>2018-12-30T10:45:04Z</time>
      </trkpt>
      <trkpt lat="39.8695350" lon="2.9583750">
        <ele>108.0</ele>
        <time>2018-12-30T10:45:05Z</time>
      </trkpt>
      <trkpt lat="39.8695290" lon="2.9582970">
        <ele>108.1</ele>
        <time>2018-12-30T10:45:06Z</time>
      </trkpt>
      <trkpt lat="39.8695210" lon="2.9582190">
        <ele>108.2</ele>
        <time>2018-12-30T10:45:07Z</time>
      </trkpt>
      <trkpt lat="39.8695130" lon="2.9581400">
        <ele>108.3</ele>
        <time>2018-12-30T10:45:08Z</time>
      </trkpt>
      <trkpt lat="39.8695050" lon="2.9580620">
        <ele>108.4</ele>
        <time>2018-12-30T10:45:09Z</time>
      </trkpt>
      <trkpt lat="39.8694980" lon="2.9579860">
        <ele>108.5</ele>
        <time>2018-12-30T10:45:10Z</time>
      </trkpt>
      <trkpt lat="39.8694920" lon="2.9579100">
        <ele>108.6</ele>
        <time>2018-12-30T10:45:11Z</time>
      </trkpt>
      <trkpt lat="39.8694870" lon="2.9578360">
        <ele>108.7</ele>
        <time>2018-12-30T10:45:12Z</time>
      </trkpt>
      <trkpt lat="39.8694810" lon="2.9577600">
        <ele>108.7</ele>
        <time>2018-12-30T10:45:13Z</time>
      </trkpt>
      <trkpt lat="39.8694730" lon="2.9576840">
        <ele>108.8</ele>
        <time>2018-12-30T10:45:14Z</time>
      </trkpt>
      <trkpt lat="39.8694640" lon="2.9576060">
        <ele>108.8</ele>
        <time>2018-12-30T10:45:15Z</time>
      </trkpt>
      <trkpt lat="39.8694570" lon="2.9575290">
        <ele>108.9</ele>
        <time>2018-12-30T10:45:16Z</time>
      </trkpt>
      <trkpt lat="39.8694500" lon="2.9574520">
        <ele>109.0</ele>
        <time>2018-12-30T10:45:17Z</time>
      </trkpt>
      <trkpt lat="39.8694440" lon="2.9573750">
        <ele>109.1</ele>
        <time>2018-12-30T10:45:18Z</time>
      </trkpt>
      <trkpt lat="39.8694370" lon="2.9572980">
        <ele>109.1</ele>
        <time>2018-12-30T10:45:19Z</time>
      </trkpt>
      <trkpt lat="39.8694290" lon="2.9572220">
        <ele>109.2</ele>
        <time>2018-12-30T10:45:20Z</time>
      </trkpt>
      <trkpt lat="39.8694200" lon="2.9571460">
        <ele>109.3</ele>
        <time>2018-12-30T10:45:21Z</time>
      </trkpt>
      <trkpt lat="39.8694110" lon="2.9570710">
        <ele>109.3</ele>
        <time>2018-12-30T10:45:22Z</time>
      </trkpt>
      <trkpt lat="39.8694000" lon="2.9569970">
        <ele>109.4</ele>
        <time>2018-12-30T10:45:23Z</time>
      </trkpt>
      <trkpt lat="39.8693880" lon="2.9569250">
        <ele>109.5</ele>
        <time>2018-12-30T10:45:24Z</time>
      </trkpt>
      <trkpt lat="39.8693740" lon="2.9568550">
        <ele>109.6</ele>
        <time>2018-12-30T10:45:25Z</time>
      </trkpt>
      <trkpt lat="39.8693570" lon="2.9567850">
        <ele>109.7</ele>
        <time>2018-12-30T10:45:26Z</time>
      </trkpt>
      <trkpt lat="39.8693390" lon="2.9567130">
        <ele>109.8</ele>
        <time>2018-12-30T10:45:27Z</time>
      </trkpt>
      <trkpt lat="39.8693190" lon="2.9566410">
        <ele>109.9</ele>
        <time>2018-12-30T10:45:28Z</time>
      </trkpt>
      <trkpt lat="39.8692990" lon="2.9565670">
        <ele>110.0</ele>
        <time>2018-12-30T10:45:29Z</time>
      </trkpt>
      <trkpt lat="39.8692800" lon="2.9564930">
        <ele>110.1</ele>
        <time>2018-12-30T10:45:30Z</time>
      </trkpt>
      <trkpt lat="39.8692590" lon="2.9564200">
        <ele>110.2</ele>
        <time>2018-12-30T10:45:31Z</time>
      </trkpt>
      <trkpt lat="39.8692360" lon="2.9563460">
        <ele>110.3</ele>
        <time>2018-12-30T10:45:32Z</time>
      </trkpt>
      <trkpt lat="39.8692130" lon="2.9562710">
        <ele>110.4</ele>
        <time>2018-12-30T10:45:33Z</time>
      </trkpt>
      <trkpt lat="39.8691900" lon="2.9561960">
        <ele>110.6</ele>
        <time>2018-12-30T10:45:34Z</time>
      </trkpt>
      <trkpt lat="39.8691660" lon="2.9561220">
        <ele>110.7</ele>
        <time>2018-12-30T10:45:35Z</time>
      </trkpt>
      <trkpt lat="39.8691430" lon="2.9560480">
        <ele>110.9</ele>
        <time>2018-12-30T10:45:36Z</time>
      </trkpt>
      <trkpt lat="39.8691210" lon="2.9559730">
        <ele>111.0</ele>
        <time>2018-12-30T10:45:37Z</time>
      </trkpt>
      <trkpt lat="39.8690980" lon="2.9558980">
        <ele>111.2</ele>
        <time>2018-12-30T10:45:38Z</time>
      </trkpt>
      <trkpt lat="39.8690730" lon="2.9558240">
        <ele>111.3</ele>
        <time>2018-12-30T10:45:39Z</time>
      </trkpt>
      <trkpt lat="39.8690510" lon="2.9557510">
        <ele>111.4</ele>
        <time>2018-12-30T10:45:40Z</time>
      </trkpt>
      <trkpt lat="39.8690280" lon="2.9556780">
        <ele>111.4</ele>
        <time>2018-12-30T10:45:41Z</time>
      </trkpt>
      <trkpt lat="39.8690060" lon="2.9556050">
        <ele>111.5</ele>
        <time>2018-12-30T10:45:42Z</time>
      </trkpt>
      <trkpt lat="39.8689850" lon="2.9555330">
        <ele>111.6</ele>
        <time>2018-12-30T10:45:43Z</time>
      </trkpt>
      <trkpt lat="39.8689650" lon="2.9554630">
        <ele>111.7</ele>
        <time>2018-12-30T10:45:44Z</time>
      </trkpt>
      <trkpt lat="39.8689440" lon="2.9553920">
        <ele>111.8</ele>
        <time>2018-12-30T10:45:45Z</time>
      </trkpt>
      <trkpt lat="39.8689250" lon="2.9553180">
        <ele>111.9</ele>
        <time>2018-12-30T10:45:46Z</time>
      </trkpt>
      <trkpt lat="39.8689050" lon="2.9552420">
        <ele>111.9</ele>
        <time>2018-12-30T10:45:47Z</time>
      </trkpt>
      <trkpt lat="39.8688860" lon="2.9551650">
        <ele>112.0</ele>
        <time>2018-12-30T10:45:48Z</time>
      </trkpt>
      <trkpt lat="39.8688640" lon="2.9550860">
        <ele>112.1</ele>
        <time>2018-12-30T10:45:49Z</time>
      </trkpt>
      <trkpt lat="39.8688380" lon="2.9550050">
        <ele>112.1</ele>
        <time>2018-12-30T10:45:50Z</time>
      </trkpt>
      <trkpt lat="39.8688110" lon="2.9549240">
        <ele>112.2</ele>
        <time>2018-12-30T10:45:51Z</time>
      </trkpt>
      <trkpt lat="39.8687830" lon="2.9548420">
        <ele>112.3</ele>
        <time>2018-12-30T10:45:52Z</time>
      </trkpt>
      <trkpt lat="39.8687550" lon="2.9547610">
        <ele>112.4</ele>
        <time>2018-12-30T10:45:53Z</time>
      </trkpt>
      <trkpt lat="39.8687270" lon="2.9546800">
        <ele>112.4</ele>
        <time>2018-12-30T10:45:54Z</time>
      </trkpt>
      <trkpt lat="39.8686990" lon="2.9545980">
        <ele>112.5</ele>
        <time>2018-12-30T10:45:55Z</time>
      </trkpt>
      <trkpt lat="39.8686720" lon="2.9545170">
        <ele>112.6</ele>
        <time>2018-12-30T10:45:56Z</time>
      </trkpt>
      <trkpt lat="39.8686450" lon="2.9544360">
        <ele>112.7</ele>
        <time>2018-12-30T10:45:57Z</time>
      </trkpt>
      <trkpt lat="39.8686200" lon="2.9543560">
        <ele>112.8</ele>
        <time>2018-12-30T10:45:58Z</time>
      </trkpt>
      <trkpt lat="39.8685950" lon="2.9542760">
        <ele>112.9</ele>
        <time>2018-12-30T10:45:59Z</time>
      </trkpt>
      <trkpt lat="39.8685710" lon="2.9541970">
        <ele>113.0</ele>
        <time>2018-12-30T10:46:00Z</time>
      </trkpt>
      <trkpt lat="39.8685460" lon="2.9541180">
        <ele>113.1</ele>
        <time>2018-12-30T10:46:01Z</time>
      </trkpt>
      <trkpt lat="39.8685220" lon="2.9540400">
        <ele>113.2</ele>
        <time>2018-12-30T10:46:02Z</time>
      </trkpt>
      <trkpt lat="39.8684980" lon="2.9539620">
        <ele>113.4</ele>
        <time>2018-12-30T10:46:03Z</time>
      </trkpt>
      <trkpt lat="39.8684740" lon="2.9538850">
        <ele>113.5</ele>
        <time>2018-12-30T10:46:04Z</time>
      </trkpt>
      <trkpt lat="39.8684520" lon="2.9538090">
        <ele>113.7</ele>
        <time>2018-12-30T10:46:05Z</time>
      </trkpt>
      <trkpt lat="39.8684310" lon="2.9537320">
        <ele>113.9</ele>
        <time>2018-12-30T10:46:06Z</time>
      </trkpt>
      <trkpt lat="39.8684120" lon="2.9536560">
        <ele>114.1</ele>
        <time>2018-12-30T10:46:07Z</time>
      </trkpt>
      <trkpt lat="39.8683970" lon="2.9535790">
        <ele>114.3</ele>
        <time>2018-12-30T10:46:08Z</time>
      </trkpt>
      <trkpt lat="39.8683840" lon="2.9535020">
        <ele>114.4</ele>
        <time>2018-12-30T10:46:09Z</time>
      </trkpt>
      <trkpt lat="39.8683740" lon="2.9534230">
        <ele>114.6</ele>
        <time>2018-12-30T10:46:10Z</time>
      </trkpt>
      <trkpt lat="39.8683680" lon="2.9533430">
        <ele>114.8</ele>
        <time>2018-12-30T10:46:11Z</time>
      </trkpt>
      <trkpt lat="39.8683660" lon="2.9532650">
        <ele>115.1</ele>
        <time>2018-12-30T10:46:12Z</time>
      </trkpt>
      <trkpt lat="39.8683700" lon="2.9531890">
        <ele>115.3</ele>
        <time>2018-12-30T10:46:13Z</time>
      </trkpt>
      <trkpt lat="39.8683760" lon="2.9531150">
        <ele>115.5</ele>
        <time>2018-12-30T10:46:14Z</time>
      </trkpt>
      <trkpt lat="39.8683810" lon="2.9530410">
        <ele>115.8</ele>
        <time>2018-12-30T10:46:15Z</time>
      </trkpt>
      <trkpt lat="39.8683850" lon="2.9529680">
        <ele>116.0</ele>
        <time>2018-12-30T10:46:16Z</time>
      </trkpt>
      <trkpt lat="39.8683890" lon="2.9528950">
        <ele>116.3</ele>
        <time>2018-12-30T10:46:17Z</time>
      </trkpt>
      <trkpt lat="39.8683940" lon="2.9528250">
        <ele>116.6</ele>
        <time>2018-12-30T10:46:18Z</time>
      </trkpt>
      <trkpt lat="39.8684020" lon="2.9527570">
        <ele>116.8</ele>
        <time>2018-12-30T10:46:19Z</time>
      </trkpt>
      <trkpt lat="39.8684110" lon="2.9526930">
        <ele>117.1</ele>
        <time>2018-12-30T10:46:20Z</time>
      </trkpt>
      <trkpt lat="39.8684200" lon="2.9526310">
        <ele>117.3</ele>
        <time>2018-12-30T10:46:21Z</time>
      </trkpt>
      <trkpt lat="39.8684270" lon="2.9525650">
        <ele>117.5</ele>
        <time>2018-12-30T10:46:22Z</time>
      </trkpt>
      <trkpt lat="39.8684320" lon="2.9524930">
        <ele>117.8</ele>
        <time>2018-12-30T10:46:23Z</time>
      </trkpt>
      <trkpt lat="39.8684350" lon="2.9524170">
        <ele>118.2</ele>
        <time>2018-12-30T10:46:24Z</time>
      </trkpt>
      <trkpt lat="39.8684400" lon="2.9523420">
        <ele>118.5</ele>
        <time>2018-12-30T10:46:25Z</time>
      </trkpt>
      <trkpt lat="39.8684460" lon="2.9522730">
        <ele>118.8</ele>
        <time>2018-12-30T10:46:26Z</time>
      </trkpt>
      <trkpt lat="39.8684530" lon="2.9522050">
        <ele>119.0</ele>
        <time>2018-12-30T10:46:27Z</time>
      </trkpt>
      <trkpt lat="39.8684600" lon="2.9521380">
        <ele>119.1</ele>
        <time>2018-12-30T10:46:28Z</time>
      </trkpt>
      <trkpt lat="39.8684670" lon="2.9520740">
        <ele>119.3</ele>
        <time>2018-12-30T10:46:29Z</time>
      </trkpt>
      <trkpt lat="39.8684720" lon="2.9520110">
        <ele>119.3</ele>
        <time>2018-12-30T10:46:30Z</time>
      </trkpt>
      <trkpt lat="39.8684770" lon="2.9519500">
        <ele>119.4</ele>
        <time>2018-12-30T10:46:31Z</time>
      </trkpt>
      <trkpt lat="39.8684820" lon="2.9518880">
        <ele>119.4</ele>
        <time>2018-12-30T10:46:32Z</time>
      </trkpt>
      <trkpt lat="39.8684880" lon="2.9518270">
        <ele>119.4</ele>
        <time>2018-12-30T10:46:33Z</time>
      </trkpt>
      <trkpt lat="39.8684950" lon="2.9517650">
        <ele>119.5</ele>
        <time>2018-12-30T10:46:34Z</time>
      </trkpt>
      <trkpt lat="39.8685010" lon="2.9517040">
        <ele>119.5</ele>
        <time>2018-12-30T10:46:35Z</time>
      </trkpt>
      <trkpt lat="39.8685060" lon="2.9516420">
        <ele>119.5</ele>
        <time>2018-12-30T10:46:36Z</time>
      </trkpt>
      <trkpt lat="39.8685110" lon="2.9515800">
        <ele>119.6</ele>
        <time>2018-12-30T10:46:37Z</time>
      </trkpt>
      <trkpt lat="39.8685170" lon="2.9515170">
        <ele>119.6</ele>
        <time>2018-12-30T10:46:38Z</time>
      </trkpt>
      <trkpt lat="39.8685230" lon="2.9514550">
        <ele>119.7</ele>
        <time>2018-12-30T10:46:39Z</time>
      </trkpt>
      <trkpt lat="39.8685300" lon="2.9513930">
        <ele>119.9</ele>
        <time>2018-12-30T10:46:40Z</time>
      </trkpt>
      <trkpt lat="39.8685400" lon="2.9513330">
        <ele>120.1</ele>
        <time>2018-12-30T10:46:41Z</time>
      </trkpt>
      <trkpt lat="39.8685520" lon="2.9512760">
        <ele>120.2</ele>
        <time>2018-12-30T10:46:42Z</time>
      </trkpt>
      <trkpt lat="39.8685660" lon="2.9512240">
        <ele>120.4</ele>
        <time>2018-12-30T10:46:43Z</time>
      </trkpt>
      <trkpt lat="39.8685820" lon="2.9511750">
        <ele>120.5</ele>
        <time>2018-12-30T10:46:44Z</time>
      </trkpt>
      <trkpt lat="39.8685970" lon="2.9511270">
        <ele>120.7</ele>
        <time>2018-12-30T10:46:45Z</time>
      </trkpt>
      <trkpt lat="39.8686140" lon="2.9510770">
        <ele>121.0</ele>
        <time>2018-12-30T10:46:46Z</time>
      </trkpt>
      <trkpt lat="39.8686310" lon="2.9510240">
        <ele>121.3</ele>
        <time>2018-12-30T10:46:47Z</time>
      </trkpt>
      <trkpt lat="39.8686490" lon="2.9509690">
        <ele>121.5</ele>
        <time>2018-12-30T10:46:48Z</time>
      </trkpt>
      <trkpt lat="39.8686680" lon="2.9509160">
        <ele>121.9</ele>
        <time>2018-12-30T10:46:49Z</time>
      </trkpt>
      <trkpt lat="39.8686890" lon="2.9508650">
        <ele>122.2</ele>
        <time>2018-12-30T10:46:50Z</time>
      </trkpt>
      <trkpt lat="39.8687110" lon="2.9508170">
        <ele>122.4</ele>
        <time>2018-12-30T10:46:51Z</time>
      </trkpt>
      <trkpt lat="39.8687330" lon="2.9507690">
        <ele>122.6</ele>
        <time>2018-12-30T10:46:52Z</time>
      </trkpt>
      <trkpt lat="39.8687520" lon="2.9507220">
        <ele>122.8</ele>
        <time>2018-12-30T10:46:53Z</time>
      </trkpt>
      <trkpt lat="39.8687690" lon="2.9506780">
        <ele>123.0</ele>
        <time>2018-12-30T10:46:54Z</time>
      </trkpt>
      <trkpt lat="39.8687860" lon="2.9506390">
        <ele>123.2</ele>
        <time>2018-12-30T10:46:55Z</time>
      </trkpt>
      <trkpt lat="39.8688040" lon="2.9506020">
        <ele>123.5</ele>
        <time>2018-12-30T10:46:56Z</time>
      </trkpt>
      <trkpt lat="39.8688210" lon="2.9505660">
        <ele>123.7</ele>
        <time>2018-12-30T10:46:57Z</time>
      </trkpt>
      <trkpt lat="39.8688360" lon="2.9505260">
        <ele>123.9</ele>
        <time>2018-12-30T10:46:58Z</time>
      </trkpt>
      <trkpt lat="39.8688500" lon="2.9504840">
        <ele>124.2</ele>
        <time>2018-12-30T10:46:59Z</time>
      </trkpt>
      <trkpt lat="39.8688650" lon="2.9504390">
        <ele>124.4</ele>
        <time>2018-12-30T10:47:00Z</time>
      </trkpt>
      <trkpt lat="39.8688810" lon="2.9503930">
        <ele>124.8</ele>
        <time>2018-12-30T10:47:01Z</time>
      </trkpt>
      <trkpt lat="39.8688950" lon="2.9503440">
        <ele>125.1</ele>
        <time>2018-12-30T10:47:02Z</time>
      </trkpt>
      <trkpt lat="39.8689070" lon="2.9502940">
        <ele>125.5</ele>
        <time>2018-12-30T10:47:03Z</time>
      </trkpt>
      <trkpt lat="39.8689170" lon="2.9502450">
        <ele>125.8</ele>
        <time>2018-12-30T10:47:04Z</time>
      </trkpt>
      <trkpt lat="39.8689260" lon="2.9501960">
        <ele>126.1</ele>
        <time>2018-12-30T10:47:05Z</time>
      </trkpt>
      <trkpt lat="39.8689350" lon="2.9501470">
        <ele>126.3</ele>
        <time>2018-12-30T10:47:06Z</time>
      </trkpt>
      <trkpt lat="39.8689440" lon="2.9500970">
        <ele>126.6</ele>
        <time>2018-12-30T10:47:07Z</time>
      </trkpt>
      <trkpt lat="39.8689550" lon="2.9500490">
        <ele>126.8</ele>
        <time>2018-12-30T10:47:08Z</time>
      </trkpt>
      <trkpt lat="39.8689660" lon="2.9500020">
        <ele>127.0</ele>
        <time>2018-12-30T10:47:09Z</time>
      </trkpt>
      <trkpt lat="39.8689780" lon="2.9499570">
        <ele>127.3</ele>
        <time>2018-12-30T10:47:10Z</time>
      </trkpt>
      <trkpt lat="39.8689900" lon="2.9499160">
        <ele>127.5</ele>
        <time>2018-12-30T10:47:11Z</time>
      </trkpt>
      <trkpt lat="39.8690010" lon="2.9498770">
        <ele>127.8</ele>
        <time>2018-12-30T10:47:12Z</time>
      </trkpt>
      <trkpt lat="39.8690110" lon="2.9498380">
        <ele>128.1</ele>
        <time>2018-12-30T10:47:13Z</time>
      </trkpt>
      <trkpt lat="39.8690220" lon="2.9498000">
        <ele>128.3</ele>
        <time>2018-12-30T10:47:14Z</time>
      </trkpt>
      <trkpt lat="39.8690300" lon="2.9497590">
        <ele>128.5</ele>
        <time>2018-12-30T10:47:15Z</time>
      </trkpt>
      <trkpt lat="39.8690380" lon="2.9497170">
        <ele>128.7</ele>
        <time>2018-12-30T10:47:16Z</time>
      </trkpt>
      <trkpt lat="39.8690450" lon="2.9496740">
        <ele>129.0</ele>
        <time>2018-12-30T10:47:17Z</time>
      </trkpt>
      <trkpt lat="39.8690530" lon="2.9496340">
        <ele>129.2</ele>
        <time>2018-12-30T10:47:18Z</time>
      </trkpt>
      <trkpt lat="39.8690600" lon="2.9495930">
        <ele>129.4</ele>
        <time>2018-12-30T10:47:19Z</time>
      </trkpt>
      <trkpt lat="39.8690670" lon="2.9495490">
        <ele>129.7</ele>
        <time>2018-12-30T10:47:20Z</time>
      </trkpt>
      <trkpt lat="39.8690740" lon="2.9495060">
        <ele>129.9</ele>
        <time>2018-12-30T10:47:21Z</time>
      </trkpt>
      <trkpt lat="39.8690830" lon="2.9494640">
        <ele>130.2</ele>
        <time>2018-12-30T10:47:22Z</time>
      </trkpt>
      <trkpt lat="39.8690930" lon="2.9494240">
        <ele>130.6</ele>
        <time>2018-12-30T10:47:23Z</time>
      </trkpt>
      <trkpt lat="39.8691050" lon="2.9493810">
        <ele>130.9</ele>
        <time>2018-12-30T10:47:24Z</time>
      </trkpt>
      <trkpt lat="39.8691150" lon="2.9493360">
        <ele>131.2</ele>
        <time>2018-12-30T10:47:25Z</time>
      </trkpt>
      <trkpt lat="39.8691240" lon="2.9492910">
        <ele>131.6</ele>
        <time>2018-12-30T10:47:26Z</time>
      </trkpt>
      <trkpt lat="39.8691330" lon="2.9492460">
        <ele>131.9</ele>
        <time>2018-12-30T10:47:27Z</time>
      </trkpt>
      <trkpt lat="39.8691440" lon="2.9492030">
        <ele>132.2</ele>
        <time>2018-12-30T10:47:28Z</time>
      </trkpt>
      <trkpt lat="39.8691550" lon="2.9491580">
        <ele>132.4</ele>
        <time>2018-12-30T10:47:29Z</time>
      </trkpt>
      <trkpt lat="39.8691660" lon="2.9491140">
        <ele>132.6</ele>
        <time>2018-12-30T10:47:30Z</time>
      </trkpt>
      <trkpt lat="39.8691760" lon="2.9490700">
        <ele>132.8</ele>
        <time>2018-12-30T10:47:31Z</time>
      </trkpt>
      <trkpt lat="39.8691870" lon="2.9490290">
        <ele>133.1</ele>
        <time>2018-12-30T10:47:32Z</time>
      </trkpt>
      <trkpt lat="39.8691970" lon="2.9489880">
        <ele>133.3</ele>
        <time>2018-12-30T10:47:33Z</time>
      </trkpt>
      <trkpt lat="39.8692050" lon="2.9489480">
        <ele>133.5</ele>
        <time>2018-12-30T10:47:34Z</time>
      </trkpt>
      <trkpt lat="39.8692120" lon="2.9489080">
        <ele>133.7</ele>
        <time>2018-12-30T10:47:35Z</time>
      </trkpt>
      <trkpt lat="39.8692200" lon="2.9488690">
        <ele>133.8</ele>
        <time>2018-12-30T10:47:36Z</time>
      </trkpt>
      <trkpt lat="39.8692270" lon="2.9488300">
        <ele>134.0</ele>
        <time>2018-12-30T10:47:37Z</time>
      </trkpt>
      <trkpt lat="39.8692330" lon="2.9487910">
        <ele>134.2</ele>
        <time>2018-12-30T10:47:38Z</time>
      </trkpt>
      <trkpt lat="39.8692370" lon="2.9487500">
        <ele>134.4</ele>
        <time>2018-12-30T10:47:39Z</time>
      </trkpt>
      <trkpt lat="39.8692380" lon="2.9487070">
        <ele>134.5</ele>
        <time>2018-12-30T10:47:40Z</time>
      </trkpt>
      <trkpt lat="39.8692380" lon="2.9486620">
        <ele>134.8</ele>
        <time>2018-12-30T10:47:41Z</time>
      </trkpt>
      <trkpt lat="39.8692370" lon="2.9486180">
        <ele>135.1</ele>
        <time>2018-12-30T10:47:42Z</time>
      </trkpt>
      <trkpt lat="39.8692390" lon="2.9485710">
        <ele>135.3</ele>
        <time>2018-12-30T10:47:43Z</time>
      </trkpt>
      <trkpt lat="39.8692400" lon="2.9485220">
        <ele>135.5</ele>
        <time>2018-12-30T10:47:44Z</time>
      </trkpt>
      <trkpt lat="39.8692410" lon="2.9484690">
        <ele>135.7</ele>
        <time>2018-12-30T10:47:45Z</time>
      </trkpt>
      <trkpt lat="39.8692410" lon="2.9484130">
        <ele>136.0</ele>
        <time>2018-12-30T10:47:46Z</time>
      </trkpt>
      <trkpt lat="39.8692410" lon="2.9483590">
        <ele>136.3</ele>
        <time>2018-12-30T10:47:47Z</time>
      </trkpt>
      <trkpt lat="39.8692420" lon="2.9483090">
        <ele>136.5</ele>
        <time>2018-12-30T10:47:48Z</time>
      </trkpt>
      <trkpt lat="39.8692410" lon="2.9482650">
        <ele>136.7</ele>
        <time>2018-12-30T10:47:49Z</time>
      </trkpt>
      <trkpt lat="39.8692400" lon="2.9482230">
        <ele>136.9</ele>
        <time>2018-12-30T10:47:50Z</time>
      </trkpt>
      <trkpt lat="39.8692390" lon="2.9481810">
        <ele>137.1</ele>
        <time>2018-12-30T10:47:51Z</time>
      </trkpt>
      <trkpt lat="39.8692370" lon="2.9481350">
        <ele>137.4</ele>
        <time>2018-12-30T10:47:52Z</time>
      </trkpt>
      <trkpt lat="39.8692350" lon="2.9480860">
        <ele>137.7</ele>
        <time>2018-12-30T10:47:53Z</time>
      </trkpt>
      <trkpt lat="39.8692350" lon="2.9480380">
        <ele>137.9</ele>
        <time>2018-12-30T10:47:54Z</time>
      </trkpt>
      <trkpt lat="39.8692350" lon="2.9479870">
        <ele>138.2</ele>
        <time>2018-12-30T10:47:55Z</time>
      </trkpt>
      <trkpt lat="39.8692350" lon="2.9479360">
        <ele>138.5</ele>
        <time>2018-12-30T10:47:56Z</time>
      </trkpt>
      <trkpt lat="39.8692320" lon="2.9478840">
        <ele>138.7</ele>
        <time>2018-12-30T10:47:57Z</time>
      </trkpt>
      <trkpt lat="39.8692250" lon="2.9478350">
        <ele>138.9</ele>
        <time>2018-12-30T10:47:58Z</time>
      </trkpt>
      <trkpt lat="39.8692160" lon="2.9477870">
        <ele>139.1</ele>
        <time>2018-12-30T10:47:59Z</time>
      </trkpt>
      <trkpt lat="39.8692080" lon="2.9477380">
        <ele>139.3</ele>
        <time>2018-12-30T10:48:00Z</time>
      </trkpt>
      <trkpt lat="39.8692010" lon="2.9476900">
        <ele>139.5</ele>
        <time>2018-12-30T10:48:01Z</time>
      </trkpt>
      <trkpt lat="39.8691970" lon="2.9476410">
        <ele>139.8</ele>
        <time>2018-12-30T10:48:02Z</time>
      </trkpt>
      <trkpt lat="39.8691920" lon="2.9475930">
        <ele>140.1</ele>
        <time>2018-12-30T10:48:03Z</time>
      </trkpt>
      <trkpt lat="39.8691880" lon="2.9475450">
        <ele>140.4</ele>
        <time>2018-12-30T10:48:04Z</time>
      </trkpt>
      <trkpt lat="39.8691850" lon="2.9474980">
        <ele>140.6</ele>
        <time>2018-12-30T10:48:05Z</time>
      </trkpt>
      <trkpt lat="39.8691840" lon="2.9474530">
        <ele>140.8</ele>
        <time>2018-12-30T10:48:06Z</time>
      </trkpt>
      <trkpt lat="39.8691830" lon="2.9474090">
        <ele>141.0</ele>
        <time>2018-12-30T10:48:07Z</time>
      </trkpt>
      <trkpt lat="39.8691820" lon="2.9473620">
        <ele>141.2</ele>
        <time>2018-12-30T10:48:08Z</time>
      </trkpt>
      <trkpt lat="39.8691790" lon="2.9473160">
        <ele>141.5</ele>
        <time>2018-12-30T10:48:09Z</time>
      </trkpt>
      <trkpt lat="39.8691780" lon="2.9472710">
        <ele>141.8</ele>
        <time>2018-12-30T10:48:10Z</time>
      </trkpt>
      <trkpt lat="39.8691770" lon="2.9472280">
        <ele>142.0</ele>
        <time>2018-12-30T10:48:11Z</time>
      </trkpt>
      <trkpt lat="39.8691780" lon="2.9471860">
        <ele>142.2</ele>
        <time>2018-12-30T10:48:12Z</time>
      </trkpt>
      <trkpt lat="39.8691810" lon="2.9471420">
        <ele>142.4</ele>
        <time>2018-12-30T10:48:13Z</time>
      </trkpt>
      <trkpt lat="39.8691850" lon="2.9470980">
        <ele>142.7</ele>
        <time>2018-12-30T10:48:14Z</time>
      </trkpt>
      <trkpt lat="39.8691890" lon="2.9470540">
        <ele>142.9</ele>
        <time>2018-12-30T10:48:15Z</time>
      </trkpt>
      <trkpt lat="39.8691940" lon="2.9470090">
        <ele>143.2</ele>
        <time>2018-12-30T10:48:16Z</time>
      </trkpt>
      <trkpt lat="39.8691990" lon="2.9469620">
        <ele>143.5</ele>
        <time>2018-12-30T10:48:17Z</time>
      </trkpt>
      <trkpt lat="39.8692050" lon="2.9469140">
        <ele>143.7</ele>
        <time>2018-12-30T10:48:18Z</time>
      </trkpt>
      <trkpt lat="39.8692140" lon="2.9468690">
        <ele>144.0</ele>
        <time>2018-12-30T10:48:19Z</time>
      </trkpt>
      <trkpt lat="39.8692260" lon="2.9468270">
        <ele>144.3</ele>
        <time>2018-12-30T10:48:20Z</time>
      </trkpt>
      <trkpt lat="39.8692410" lon="2.9467870">
        <ele>144.5</ele>
        <time>2018-12-30T10:48:21Z</time>
      </trkpt>
      <trkpt lat="39.8692570" lon="2.9467470">
        <ele>144.9</ele>
        <time>2018-12-30T10:48:22Z</time>
      </trkpt>
      <trkpt lat="39.8692740" lon="2.9467070">
        <ele>145.2</ele>
        <time>2018-12-30T10:48:23Z</time>
      </trkpt>
      <trkpt lat="39.8692910" lon="2.9466660">
        <ele>145.4</ele>
        <time>2018-12-30T10:48:24Z</time>
      </trkpt>
      <trkpt lat="39.8693080" lon="2.9466250">
        <ele>145.7</ele>
        <time>2018-12-30T10:48:25Z</time>
      </trkpt>
      <trkpt lat="39.8693270" lon="2.9465870">
        <ele>145.9</ele>
        <time>2018-12-30T10:48:26Z</time>
      </trkpt>
      <trkpt lat="39.8693460" lon="2.9465500">
        <ele>146.3</ele>
        <time>2018-12-30T10:48:27Z</time>
      </trkpt>
      <trkpt lat="39.8693640" lon="2.9465150">
        <ele>146.6</ele>
        <time>2018-12-30T10:48:28Z</time>
      </trkpt>
      <trkpt lat="39.8693820" lon="2.9464800">
        <ele>146.9</ele>
        <time>2018-12-30T10:48:29Z</time>
      </trkpt>
      <trkpt lat="39.8693970" lon="2.9464450">
        <ele>147.2</ele>
        <time>2018-12-30T10:48:30Z</time>
      </trkpt>
      <trkpt lat="39.8694090" lon="2.9464140">
        <ele>147.4</ele>
        <time>2018-12-30T10:48:31Z</time>
      </trkpt>
      <trkpt lat="39.8694190" lon="2.9463860">
        <ele>147.5</ele>
        <time>2018-12-30T10:48:32Z</time>
      </trkpt>
      <trkpt lat="39.8694270" lon="2.9463580">
        <ele>147.7</ele>
        <time>2018-12-30T10:48:33Z</time>
      </trkpt>
      <trkpt lat="39.8694350" lon="2.9463250">
        <ele>148.0</ele>
        <time>2018-12-30T10:48:34Z</time>
      </trkpt>
      <trkpt lat="39.8694400" lon="2.9462870">
        <ele>148.2</ele>
        <time>2018-12-30T10:48:35Z</time>
      </trkpt>
      <trkpt lat="39.8694420" lon="2.9462410">
        <ele>148.5</ele>
        <time>2018-12-30T10:48:36Z</time>
      </trkpt>
      <trkpt lat="39.8694400" lon="2.9461900">
        <ele>148.8</ele>
        <time>2018-12-30T10:48:37Z</time>
      </trkpt>
      <trkpt lat="39.8694350" lon="2.9461370">
        <ele>149.2</ele>
        <time>2018-12-30T10:48:38Z</time>
      </trkpt>
      <trkpt lat="39.8694260" lon="2.9460860">
        <ele>149.6</ele>
        <time>2018-12-30T10:48:39Z</time>
      </trkpt>
      <trkpt lat="39.8694120" lon="2.9460370">
        <ele>150.0</ele>
        <time>2018-12-30T10:48:40Z</time>
      </trkpt>
      <trkpt lat="39.8693900" lon="2.9459930">
        <ele>150.3</ele>
        <time>2018-12-30T10:48:41Z</time>
      </trkpt>
      <trkpt lat="39.8693660" lon="2.9459540">
        <ele>150.5</ele>
        <time>2018-12-30T10:48:42Z</time>
      </trkpt>
      <trkpt lat="39.8693380" lon="2.9459210">
        <ele>150.7</ele>
        <time>2018-12-30T10:48:43Z</time>
      </trkpt>
      <trkpt lat="39.8693110" lon="2.9458880">
        <ele>151.0</ele>
        <time>2018-12-30T10:48:44Z</time>
      </trkpt>
      <trkpt lat="39.8692840" lon="2.9458580">
        <ele>151.2</ele>
        <time>2018-12-30T10:48:45Z</time>
      </trkpt>
      <trkpt lat="39.8692580" lon="2.9458280">
        <ele>151.4</ele>
        <time>2018-12-30T10:48:46Z</time>
      </trkpt>
      <trkpt lat="39.8692300" lon="2.9457980">
        <ele>151.7</ele>
        <time>2018-12-30T10:48:47Z</time>
      </trkpt>
      <trkpt lat="39.8692010" lon="2.9457690">
        <ele>151.9</ele>
        <time>2018-12-30T10:48:48Z</time>
      </trkpt>
      <trkpt lat="39.8691710" lon="2.9457420">
        <ele>152.2</ele>
        <time>2018-12-30T10:48:49Z</time>
      </trkpt>
      <trkpt lat="39.8691400" lon="2.9457160">
        <ele>152.4</ele>
        <time>2018-12-30T10:48:50Z</time>
      </trkpt>
      <trkpt lat="39.8691110" lon="2.9456910">
        <ele>152.7</ele>
        <time>2018-12-30T10:48:51Z</time>
      </trkpt>
      <trkpt lat="39.8690810" lon="2.9456670">
        <ele>152.9</ele>
        <time>2018-12-30T10:48:52Z</time>
      </trkpt>
      <trkpt lat="39.8690510" lon="2.9456430">
        <ele>153.2</ele>
        <time>2018-12-30T10:48:53Z</time>
      </trkpt>
      <trkpt lat="39.8690190" lon="2.9456210">
        <ele>153.4</ele>
        <time>2018-12-30T10:48:54Z</time>
      </trkpt>
      <trkpt lat="39.8689880" lon="2.9455990">
        <ele>153.6</ele>
        <time>2018-12-30T10:48:55Z</time>
      </trkpt>
      <trkpt lat="39.8689550" lon="2.9455800">
        <ele>153.9</ele>
        <time>2018-12-30T10:48:56Z</time>
      </trkpt>
      <trkpt lat="39.8689220" lon="2.9455610">
        <ele>154.1</ele>
        <time>2018-12-30T10:48:57Z</time>
      </trkpt>
      <trkpt lat="39.8688900" lon="2.9455420">
        <ele>154.4</ele>
        <time>2018-12-30T10:48:58Z</time>
      </trkpt>
      <trkpt lat="39.8688590" lon="2.9455210">
        <ele>154.8</ele>
        <time>2018-12-30T10:48:59Z</time>
      </trkpt>
      <trkpt lat="39.8688270" lon="2.9455030">
        <ele>155.1</ele>
        <time>2018-12-30T10:49:00Z</time>
      </trkpt>
      <trkpt lat="39.8687930" lon="2.9454860">
        <ele>155.3</ele>
        <time>2018-12-30T10:49:01Z</time>
      </trkpt>
      <trkpt lat="39.8687580" lon="2.9454700">
        <ele>155.6</ele>
        <time>2018-12-30T10:49:02Z</time>
      </trkpt>
      <trkpt lat="39.8687250" lon="2.9454530">
        <ele>155.8</ele>
        <time>2018-12-30T10:49:03Z</time>
      </trkpt>
      <trkpt lat="39.8686920" lon="2.9454350">
        <ele>156.1</ele>
        <time>2018-12-30T10:49:04Z</time>
      </trkpt>
      <trkpt lat="39.8686620" lon="2.9454150">
        <ele>156.3</ele>
        <time>2018-12-30T10:49:05Z</time>
      </trkpt>
      <trkpt lat="39.8686320" lon="2.9453930">
        <ele>156.5</ele>
        <time>2018-12-30T10:49:06Z</time>
      </trkpt>
      <trkpt lat="39.8686020" lon="2.9453700">
        <ele>156.7</ele>
        <time>2018-12-30T10:49:07Z</time>
      </trkpt>
      <trkpt lat="39.8685720" lon="2.9453470">
        <ele>156.9</ele>
        <time>2018-12-30T10:49:08Z</time>
      </trkpt>
      <trkpt lat="39.8685440" lon="2.9453240">
        <ele>157.1</ele>
        <time>2018-12-30T10:49:09Z</time>
      </trkpt>
      <trkpt lat="39.8685180" lon="2.9453000">
        <ele>157.3</ele>
        <time>2018-12-30T10:49:10Z</time>
      </trkpt>
      <trkpt lat="39.8684930" lon="2.9452730">
        <ele>157.5</ele>
        <time>2018-12-30T10:49:11Z</time>
      </trkpt>
      <trkpt lat="39.8684680" lon="2.9452430">
        <ele>157.7</ele>
        <time>2018-12-30T10:49:12Z</time>
      </trkpt>
      <trkpt lat="39.8684420" lon="2.9452120">
        <ele>158.0</ele>
        <time>2018-12-30T10:49:13Z</time>
      </trkpt>
      <trkpt lat="39.8684180" lon="2.9451760">
        <ele>158.2</ele>
        <time>2018-12-30T10:49:14Z</time>
      </trkpt>
      <trkpt lat="39.8683940" lon="2.9451400">
        <ele>158.5</ele>
        <time>2018-12-30T10:49:15Z</time>
      </trkpt>
      <trkpt lat="39.8683710" lon="2.9451040">
        <ele>158.8</ele>
        <time>2018-12-30T10:49:16Z</time>
      </trkpt>
      <trkpt lat="39.8683510" lon="2.9450690">
        <ele>159.0</ele>
        <time>2018-12-30T10:49:17Z</time>
      </trkpt>
      <trkpt lat="39.8683330" lon="2.9450330">
        <ele>159.3</ele>
        <time>2018-12-30T10:49:18Z</time>
      </trkpt>
      <trkpt lat="39.8683160" lon="2.9449960">
        <ele>159.5</ele>
        <time>2018-12-30T10:49:19Z</time>
      </trkpt>
      <trkpt lat="39.8682970" lon="2.9449570">
        <ele>159.8</ele>
        <time>2018-12-30T10:49:20Z</time>
      </trkpt>
      <trkpt lat="39.8682790" lon="2.9449170">
        <ele>160.0</ele>
        <time>2018-12-30T10:49:21Z</time>
      </trkpt>
      <trkpt lat="39.8682620" lon="2.9448760">
        <ele>160.2</ele>
        <time>2018-12-30T10:49:22Z</time>
      </trkpt>
      <trkpt lat="39.8682470" lon="2.9448330">
        <ele>160.4</ele>
        <time>2018-12-30T10:49:23Z</time>
      </trkpt>
      <trkpt lat="39.8682320" lon="2.9447890">
        <ele>160.6</ele>
        <time>2018-12-30T10:49:24Z</time>
      </trkpt>
      <trkpt lat="39.8682180" lon="2.9447450">
        <ele>160.9</ele>
        <time>2018-12-30T10:49:25Z</time>
      </trkpt>
      <trkpt lat="39.8682050" lon="2.9447010">
        <ele>161.1</ele>
        <time>2018-12-30T10:49:26Z</time>
      </trkpt>
      <trkpt lat="39.8681930" lon="2.9446590">
        <ele>161.4</ele>
        <time>2018-12-30T10:49:27Z</time>
      </trkpt>
      <trkpt lat="39.8681790" lon="2.9446180">
        <ele>161.6</ele>
        <time>2018-12-30T10:49:28Z</time>
      </trkpt>
      <trkpt lat="39.8681620" lon="2.9445770">
        <ele>161.8</ele>
        <time>2018-12-30T10:49:29Z</time>
      </trkpt>
      <trkpt lat="39.8681440" lon="2.9445360">
        <ele>162.1</ele>
        <time>2018-12-30T10:49:30Z</time>
      </trkpt>
      <trkpt lat="39.8681280" lon="2.9444930">
        <ele>162.2</ele>
        <time>2018-12-30T10:49:31Z</time>
      </trkpt>
      <trkpt lat="39.8681110" lon="2.9444490">
        <ele>162.4</ele>
        <time>2018-12-30T10:49:32Z</time>
      </trkpt>
      <trkpt lat="39.8680950" lon="2.9444030">
        <ele>162.6</ele>
        <time>2018-12-30T10:49:33Z</time>
      </trkpt>
      <trkpt lat="39.8680790" lon="2.9443540">
        <ele>162.8</ele>
        <time>2018-12-30T10:49:34Z</time>
      </trkpt>
      <trkpt lat="39.8680640" lon="2.9443060">
        <ele>163.0</ele>
        <time>2018-12-30T10:49:35Z</time>
      </trkpt>
      <trkpt lat="39.8680510" lon="2.9442590">
        <ele>163.2</ele>
        <time>2018-12-30T10:49:36Z</time>
      </trkpt>
      <trkpt lat="39.8680370" lon="2.9442130">
        <ele>163.4</ele>
        <time>2018-12-30T10:49:37Z</time>
      </trkpt>
      <trkpt lat="39.8680240" lon="2.9441660">
        <ele>163.5</ele>
        <time>2018-12-30T10:49:38Z</time>
      </trkpt>
      <trkpt lat="39.8680110" lon="2.9441180">
        <ele>163.7</ele>
        <time>2018-12-30T10:49:39Z</time>
      </trkpt>
      <trkpt lat="39.8680010" lon="2.9440700">
        <ele>163.9</ele>
        <time>2018-12-30T10:49:40Z</time>
      </trkpt>
      <trkpt lat="39.8679920" lon="2.9440220">
        <ele>164.0</ele>
        <time>2018-12-30T10:49:41Z</time>
      </trkpt>
      <trkpt lat="39.8679830" lon="2.9439750">
        <ele>164.3</ele>
        <time>2018-12-30T10:49:42Z</time>
      </trkpt>
      <trkpt lat="39.8679750" lon="2.9439280">
        <ele>164.6</ele>
        <time>2018-12-30T10:49:43Z</time>
      </trkpt>
      <trkpt lat="39.8679680" lon="2.9438780">
        <ele>164.8</ele>
        <time>2018-12-30T10:49:44Z</time>
      </trkpt>
      <trkpt lat="39.8679620" lon="2.9438270">
        <ele>165.0</ele>
        <time>2018-12-30T10:49:45Z</time>
      </trkpt>
      <trkpt lat="39.8679530" lon="2.9437750">
        <ele>165.2</ele>
        <time>2018-12-30T10:49:46Z</time>
      </trkpt>
      <trkpt lat="39.8679400" lon="2.9437230">
        <ele>165.4</ele>
        <time>2018-12-30T10:49:47Z</time>
      </trkpt>
      <trkpt lat="39.8679220" lon="2.9436710">
        <ele>165.7</ele>
        <time>2018-12-30T10:49:48Z</time>
      </trkpt>
      <trkpt lat="39.8679010" lon="2.9436240">
        <ele>165.9</ele>
        <time>2018-12-30T10:49:49Z</time>
      </trkpt>
      <trkpt lat="39.8678790" lon="2.9435820">
        <ele>166.1</ele>
        <time>2018-12-30T10:49:50Z</time>
      </trkpt>
      <trkpt lat="39.8678550" lon="2.9435460">
        <ele>166.5</ele>
        <time>2018-12-30T10:49:51Z</time>
      </trkpt>
      <trkpt lat="39.8678290" lon="2.9435130">
        <ele>166.8</ele>
        <time>2018-12-30T10:49:52Z</time>
      </trkpt>
      <trkpt lat="39.8678010" lon="2.9434810">
        <ele>167.0</ele>
        <time>2018-12-30T10:49:53Z</time>
      </trkpt>
      <trkpt lat="39.8677720" lon="2.9434480">
        <ele>167.4</ele>
        <time>2018-12-30T10:49:54Z</time>
      </trkpt>
      <trkpt lat="39.8677430" lon="2.9434160">
        <ele>167.6</ele>
        <time>2018-12-30T10:49:55Z</time>
      </trkpt>
      <trkpt lat="39.8677140" lon="2.9433870">
        <ele>167.8</ele>
        <time>2018-12-30T10:49:56Z</time>
      </trkpt>
      <trkpt lat="39.8676830" lon="2.9433590">
        <ele>168.0</ele>
        <time>2018-12-30T10:49:57Z</time>
      </trkpt>
      <trkpt lat="39.8676520" lon="2.9433330">
        <ele>168.2</ele>
        <time>2018-12-30T10:49:58Z</time>
      </trkpt>
      <trkpt lat="39.8676210" lon="2.9433080">
        <ele>168.4</ele>
        <time>2018-12-30T10:49:59Z</time>
      </trkpt>
      <trkpt lat="39.8675900" lon="2.9432850">
        <ele>168.6</ele>
        <time>2018-12-30T10:50:00Z</time>
      </trkpt>
      <trkpt lat="39.8675580" lon="2.9432620">
        <ele>168.9</ele>
        <time>2018-12-30T10:50:01Z</time>
      </trkpt>
      <trkpt lat="39.8675280" lon="2.9432390">
        <ele>169.2</ele>
        <time>2018-12-30T10:50:02Z</time>
      </trkpt>
      <trkpt lat="39.8674990" lon="2.9432150">
        <ele>169.5</ele>
        <time>2018-12-30T10:50:03Z</time>
      </trkpt>
      <trkpt lat="39.8674700" lon="2.9431910">
        <ele>169.7</ele>
        <time>2018-12-30T10:50:04Z</time>
      </trkpt>
      <trkpt lat="39.8674400" lon="2.9431670">
        <ele>170.0</ele>
        <time>2018-12-30T10:50:05Z</time>
      </trkpt>
      <trkpt lat="39.8674100" lon="2.9431440">
        <ele>170.2</ele>
        <time>2018-12-30T10:50:06Z</time>
      </trkpt>
      <trkpt lat="39.8673800" lon="2.9431210">
        <ele>170.4</ele>
        <time>2018-12-30T10:50:07Z</time>
      </trkpt>
      <trkpt lat="39.8673510" lon="2.9430980">
        <ele>170.8</ele>
        <time>2018-12-30T10:50:08Z</time>
      </trkpt>
      <trkpt lat="39.8673220" lon="2.9430730">
        <ele>171.1</ele>
        <time>2018-12-30T10:50:09Z</time>
      </trkpt>
      <trkpt lat="39.8672930" lon="2.9430480">
        <ele>171.3</ele>
        <time>2018-12-30T10:50:10Z</time>
      </trkpt>
      <trkpt lat="39.8672640" lon="2.9430220">
        <ele>171.5</ele>
        <time>2018-12-30T10:50:11Z</time>
      </trkpt>
      <trkpt lat="39.8672360" lon="2.9429940">
        <ele>171.8</ele>
        <time>2018-12-30T10:50:12Z</time>
      </trkpt>
      <trkpt lat="39.8672110" lon="2.9429640">
        <ele>172.1</ele>
        <time>2018-12-30T10:50:13Z</time>
      </trkpt>
      <trkpt lat="39.8671920" lon="2.9429310">
        <ele>172.3</ele>
        <time>2018-12-30T10:50:14Z</time>
      </trkpt>
      <trkpt lat="39.8671730" lon="2.9428970">
        <ele>172.6</ele>
        <time>2018-12-30T10:50:15Z</time>
      </trkpt>
      <trkpt lat="39.8671550" lon="2.9428620">
        <ele>173.0</ele>
        <time>2018-12-30T10:50:16Z</time>
      </trkpt>
      <trkpt lat="39.8671330" lon="2.9428270">
        <ele>173.2</ele>
        <time>2018-12-30T10:50:17Z</time>
      </trkpt>
      <trkpt lat="39.8671110" lon="2.9427910">
        <ele>173.5</ele>
        <time>2018-12-30T10:50:18Z</time>
      </trkpt>
      <trkpt lat="39.8670880" lon="2.9427560">
        <ele>173.9</ele>
        <time>2018-12-30T10:50:19Z</time>
      </trkpt>
      <trkpt lat="39.8670650" lon="2.9427200">
        <ele>174.2</ele>
        <time>2018-12-30T10:50:20Z</time>
      </trkpt>
      <trkpt lat="39.8670420" lon="2.9426850">
        <ele>174.5</ele>
        <time>2018-12-30T10:50:21Z</time>
      </trkpt>
      <trkpt lat="39.8670180" lon="2.9426480">
        <ele>174.8</ele>
        <time>2018-12-30T10:50:22Z</time>
      </trkpt>
      <trkpt lat="39.8669940" lon="2.9426100">
        <ele>175.0</ele>
        <time>2018-12-30T10:50:23Z</time>
      </trkpt>
      <trkpt lat="39.8669720" lon="2.9425720">
        <ele>175.3</ele>
        <time>2018-12-30T10:50:24Z</time>
      </trkpt>
      <trkpt lat="39.8669510" lon="2.9425340">
        <ele>175.6</ele>
        <time>2018-12-30T10:50:25Z</time>
      </trkpt>
      <trkpt lat="39.8669290" lon="2.9424960">
        <ele>175.8</ele>
        <time>2018-12-30T10:50:26Z</time>
      </trkpt>
      <trkpt lat="39.8669040" lon="2.9424610">
        <ele>176.1</ele>
        <time>2018-12-30T10:50:27Z</time>
      </trkpt>
      <trkpt lat="39.8668780" lon="2.9424250">
        <ele>176.3</ele>
        <time>2018-12-30T10:50:28Z</time>
      </trkpt>
      <trkpt lat="39.8668540" lon="2.9423900">
        <ele>176.6</ele>
        <time>2018-12-30T10:50:29Z</time>
      </trkpt>
      <trkpt lat="39.8668310" lon="2.9423560">
        <ele>176.9</ele>
        <time>2018-12-30T10:50:30Z</time>
      </trkpt>
      <trkpt lat="39.8668080" lon="2.9423230">
        <ele>177.2</ele>
        <time>2018-12-30T10:50:31Z</time>
      </trkpt>
      <trkpt lat="39.8667850" lon="2.9422860">
        <ele>177.6</ele>
        <time>2018-12-30T10:50:32Z</time>
      </trkpt>
      <trkpt lat="39.8667630" lon="2.9422470">
        <ele>177.8</ele>
        <time>2018-12-30T10:50:33Z</time>
      </trkpt>
      <trkpt lat="39.8667410" lon="2.9422090">
        <ele>178.1</ele>
        <time>2018-12-30T10:50:34Z</time>
      </trkpt>
      <trkpt lat="39.8667190" lon="2.9421710">
        <ele>178.3</ele>
        <time>2018-12-30T10:50:35Z</time>
      </trkpt>
      <trkpt lat="39.8666960" lon="2.9421320">
        <ele>178.6</ele>
        <time>2018-12-30T10:50:36Z</time>
      </trkpt>
      <trkpt lat="39.8666740" lon="2.9420930">
        <ele>178.8</ele>
        <time>2018-12-30T10:50:37Z</time>
      </trkpt>
      <trkpt lat="39.8666540" lon="2.9420540">
        <ele>179.0</ele>
        <time>2018-12-30T10:50:38Z</time>
      </trkpt>
      <trkpt lat="39.8666360" lon="2.9420130">
        <ele>179.3</ele>
        <time>2018-12-30T10:50:39Z</time>
      </trkpt>
      <trkpt lat="39.8666190" lon="2.9419700">
        <ele>179.5</ele>
        <time>2018-12-30T10:50:40Z</time>
      </trkpt>
      <trkpt lat="39.8666040" lon="2.9419260">
        <ele>179.9</ele>
        <time>2018-12-30T10:50:41Z</time>
      </trkpt>
      <trkpt lat="39.8665920" lon="2.9418810">
        <ele>180.2</ele>
        <time>2018-12-30T10:50:42Z</time>
      </trkpt>
      <trkpt lat="39.8665810" lon="2.9418350">
        <ele>180.5</ele>
        <time>2018-12-30T10:50:43Z</time>
      </trkpt>
      <trkpt lat="39.8665710" lon="2.9417890">
        <ele>180.9</ele>
        <time>2018-12-30T10:50:44Z</time>
      </trkpt>
      <trkpt lat="39.8665660" lon="2.9417400">
        <ele>181.1</ele>
        <time>2018-12-30T10:50:45Z</time>
      </trkpt>
      <trkpt lat="39.8665630" lon="2.9416910">
        <ele>181.4</ele>
        <time>2018-12-30T10:50:46Z</time>
      </trkpt>
      <trkpt lat="39.8665630" lon="2.9416410">
        <ele>181.6</ele>
        <time>2018-12-30T10:50:47Z</time>
      </trkpt>
      <trkpt lat="39.8665610" lon="2.9415940">
        <ele>181.9</ele>
        <time>2018-12-30T10:50:48Z</time>
      </trkpt>
      <trkpt lat="39.8665600" lon="2.9415490">
        <ele>182.1</ele>
        <time>2018-12-30T10:50:49Z</time>
      </trkpt>
      <trkpt lat="39.8665570" lon="2.9415040">
        <ele>182.3</ele>
        <time>2018-12-30T10:50:50Z</time>
      </trkpt>
      <trkpt lat="39.8665550" lon="2.9414580">
        <ele>182.6</ele>
        <time>2018-12-30T10:50:51Z</time>
      </trkpt>
      <trkpt lat="39.8665510" lon="2.9414110">
        <ele>183.0</ele>
        <time>2018-12-30T10:50:52Z</time>
      </trkpt>
      <trkpt lat="39.8665490" lon="2.9413630">
        <ele>183.2</ele>
        <time>2018-12-30T10:50:53Z</time>
      </trkpt>
      <trkpt lat="39.8665430" lon="2.9413150">
        <ele>183.4</ele>
        <time>2018-12-30T10:50:54Z</time>
      </trkpt>
      <trkpt lat="39.8665330" lon="2.9412670">
        <ele>183.7</ele>
        <time>2018-12-30T10:50:55Z</time>
      </trkpt>
      <trkpt lat="39.8665200" lon="2.9412190">
        <ele>183.9</ele>
        <time>2018-12-30T10:50:56Z</time>
      </trkpt>
      <trkpt lat="39.8665060" lon="2.9411710">
        <ele>184.1</ele>
        <time>2018-12-30T10:50:57Z</time>
      </trkpt>
      <trkpt lat="39.8664920" lon="2.9411260">
        <ele>184.3</ele>
        <time>2018-12-30T10:50:58Z</time>
      </trkpt>
      <trkpt lat="39.8664760" lon="2.9410810">
        <ele>184.5</ele>
        <time>2018-12-30T10:50:59Z</time>
      </trkpt>
      <trkpt lat="39.8664600" lon="2.9410370">
        <ele>184.7</ele>
        <time>2018-12-30T10:51:00Z</time>
      </trkpt>
      <trkpt lat="39.8664420" lon="2.9409910">
        <ele>185.0</ele>
        <time>2018-12-30T10:51:01Z</time>
      </trkpt>
      <trkpt lat="39.8664240" lon="2.9409440">
        <ele>185.3</ele>
        <time>2018-12-30T10:51:02Z</time>
      </trkpt>
      <trkpt lat="39.8664050" lon="2.9408980">
        <ele>185.5</ele>
        <time>2018-12-30T10:51:03Z</time>
      </trkpt>
      <trkpt lat="39.8663860" lon="2.9408520">
        <ele>185.8</ele>
        <time>2018-12-30T10:51:04Z</time>
      </trkpt>
      <trkpt lat="39.8663680" lon="2.9408080">
        <ele>186.1</ele>
        <time>2018-12-30T10:51:05Z</time>
      </trkpt>
      <trkpt lat="39.8663490" lon="2.9407650">
        <ele>186.4</ele>
        <time>2018-12-30T10:51:06Z</time>
      </trkpt>
      <trkpt lat="39.8663300" lon="2.9407250">
        <ele>186.6</ele>
        <time>2018-12-30T10:51:07Z</time>
      </trkpt>
      <trkpt lat="39.8663120" lon="2.9406850">
        <ele>186.8</ele>
        <time>2018-12-30T10:51:08Z</time>
      </trkpt>
      <trkpt lat="39.8662960" lon="2.9406440">
        <ele>187.1</ele>
        <time>2018-12-30T10:51:09Z</time>
      </trkpt>
      <trkpt lat="39.8662790" lon="2.9406030">
        <ele>187.4</ele>
        <time>2018-12-30T10:51:10Z</time>
      </trkpt>
      <trkpt lat="39.8662630" lon="2.9405620">
        <ele>187.6</ele>
        <time>2018-12-30T10:51:11Z</time>
      </trkpt>
      <trkpt lat="39.8662470" lon="2.9405210">
        <ele>187.9</ele>
        <time>2018-12-30T10:51:12Z</time>
      </trkpt>
      <trkpt lat="39.8662320" lon="2.9404790">
        <ele>188.1</ele>
        <time>2018-12-30T10:51:13Z</time>
      </trkpt>
      <trkpt lat="39.8662160" lon="2.9404370">
        <ele>188.3</ele>
        <time>2018-12-30T10:51:14Z</time>
      </trkpt>
      <trkpt lat="39.8661990" lon="2.9403940">
        <ele>188.6</ele>
        <time>2018-12-30T10:51:15Z</time>
      </trkpt>
      <trkpt lat="39.8661840" lon="2.9403500">
        <ele>188.7</ele>
        <time>2018-12-30T10:51:16Z</time>
      </trkpt>
      <trkpt lat="39.8661690" lon="2.9403070">
        <ele>188.9</ele>
        <time>2018-12-30T10:51:17Z</time>
      </trkpt>
      <trkpt lat="39.8661560" lon="2.9402640">
        <ele>189.1</ele>
        <time>2018-12-30T10:51:18Z</time>
      </trkpt>
      <trkpt lat="39.8661420" lon="2.9402200">
        <ele>189.4</ele>
        <time>2018-12-30T10:51:19Z</time>
      </trkpt>
      <trkpt lat="39.8661290" lon="2.9401770">
        <ele>189.6</ele>
        <time>2018-12-30T10:51:20Z</time>
      </trkpt>
      <trkpt lat="39.8661170" lon="2.9401340">
        <ele>189.8</ele>
        <time>2018-12-30T10:51:21Z</time>
      </trkpt>
      <trkpt lat="39.8661060" lon="2.9400910">
        <ele>190.1</ele>
        <time>2018-12-30T10:51:22Z</time>
      </trkpt>
      <trkpt lat="39.8660950" lon="2.9400490">
        <ele>190.4</ele>
        <time>2018-12-30T10:51:23Z</time>
      </trkpt>
      <trkpt lat="39.8660840" lon="2.9400060">
        <ele>190.7</ele>
        <time>2018-12-30T10:51:24Z</time>
      </trkpt>
      <trkpt lat="39.8660730" lon="2.9399620">
        <ele>191.0</ele>
        <time>2018-12-30T10:51:25Z</time>
      </trkpt>
      <trkpt lat="39.8660610" lon="2.9399190">
        <ele>191.3</ele>
        <time>2018-12-30T10:51:26Z</time>
      </trkpt>
      <trkpt lat="39.8660510" lon="2.9398750">
        <ele>191.5</ele>
        <time>2018-12-30T10:51:27Z</time>
      </trkpt>
      <trkpt lat="39.8660420" lon="2.9398300">
        <ele>191.7</ele>
        <time>2018-12-30T10:51:28Z</time>
      </trkpt>
      <trkpt lat="39.8660330" lon="2.9397850">
        <ele>192.0</ele>
        <time>2018-12-30T10:51:29Z</time>
      </trkpt>
      <trkpt lat="39.8660230" lon="2.9397410">
        <ele>192.2</ele>
        <time>2018-12-30T10:51:30Z</time>
      </trkpt>
      <trkpt lat="39.8660120" lon="2.9396990">
        <ele>192.4</ele>
        <time>2018-12-30T10:51:31Z</time>
      </trkpt>
      <trkpt lat="39.8660010" lon="2.9396580">
        <ele>192.6</ele>
        <time>2018-12-30T10:51:32Z</time>
      </trkpt>
      <trkpt lat="39.8659900" lon="2.9396170">
        <ele>192.8</ele>
        <time>2018-12-30T10:51:33Z</time>
      </trkpt>
      <trkpt lat="39.8659780" lon="2.9395760">
        <ele>193.0</ele>
        <time>2018-12-30T10:51:34Z</time>
      </trkpt>
      <trkpt lat="39.8659670" lon="2.9395340">
        <ele>193.2</ele>
        <time>2018-12-30T10:51:35Z</time>
      </trkpt>
      <trkpt lat="39.8659560" lon="2.9394920">
        <ele>193.4</ele>
        <time>2018-12-30T10:51:36Z</time>
      </trkpt>
      <trkpt lat="39.8659470" lon="2.9394510">
        <ele>193.7</ele>
        <time>2018-12-30T10:51:37Z</time>
      </trkpt>
      <trkpt lat="39.8659380" lon="2.9394100">
        <ele>194.0</ele>
        <time>2018-12-30T10:51:38Z</time>
      </trkpt>
      <trkpt lat="39.8659280" lon="2.9393700">
        <ele>194.3</ele>
        <time>2018-12-30T10:51:39Z</time>
      </trkpt>
      <trkpt lat="39.8659170" lon="2.9393300">
        <ele>194.7</ele>
        <time>2018-12-30T10:51:40Z</time>
      </trkpt>
      <trkpt lat="39.8659060" lon="2.9392900">
        <ele>195.0</ele>
        <time>2018-12-30T10:51:41Z</time>
      </trkpt>
      <trkpt lat="39.8658950" lon="2.9392500">
        <ele>195.3</ele>
        <time>2018-12-30T10:51:42Z</time>
      </trkpt>
      <trkpt lat="39.8658850" lon="2.9392110">
        <ele>195.5</ele>
        <time>2018-12-30T10:51:43Z</time>
      </trkpt>
      <trkpt lat="39.8658760" lon="2.9391730">
        <ele>195.7</ele>
        <time>2018-12-30T10:51:44Z</time>
      </trkpt>
      <trkpt lat="39.8658680" lon="2.9391390">
        <ele>195.9</ele>
        <time>2018-12-30T10:51:45Z</time>
      </trkpt>
      <trkpt lat="39.8658600" lon="2.9391090">
        <ele>196.1</ele>
        <time>2018-12-30T10:51:46Z</time>
      </trkpt>
      <trkpt lat="39.8658530" lon="2.9390810">
        <ele>196.3</ele>
        <time>2018-12-30T10:51:47Z</time>
      </trkpt>
      <trkpt lat="39.8658470" lon="2.9390510">
        <ele>196.5</ele>
        <time>2018-12-30T10:51:48Z</time>
      </trkpt>
      <trkpt lat="39.8658420" lon="2.9390170">
        <ele>196.7</ele>
        <time>2018-12-30T10:51:49Z</time>
      </trkpt>
      <trkpt lat="39.8658390" lon="2.9389810">
        <ele>196.9</ele>
        <time>2018-12-30T10:51:50Z</time>
      </trkpt>
      <trkpt lat="39.8658380" lon="2.9389450">
        <ele>197.1</ele>
        <time>2018-12-30T10:51:51Z</time>
      </trkpt>
      <trkpt lat="39.8658390" lon="2.9389100">
        <ele>197.3</ele>
        <time>2018-12-30T10:51:52Z</time>
      </trkpt>
      <trkpt lat="39.8658450" lon="2.9388770">
        <ele>197.6</ele>
        <time>2018-12-30T10:51:53Z</time>
      </trkpt>
      <trkpt lat="39.8658540" lon="2.9388460">
        <ele>197.8</ele>
        <time>2018-12-30T10:51:54Z</time>
      </trkpt>
      <trkpt lat="39.8658640" lon="2.9388160">
        <ele>198.0</ele>
        <time>2018-12-30T10:51:55Z</time>
      </trkpt>
      <trkpt lat="39.8658780" lon="2.9387880">
        <ele>198.2</ele>
        <time>2018-12-30T10:51:56Z</time>
      </trkpt>
      <trkpt lat="39.8658930" lon="2.9387640">
        <ele>198.4</ele>
        <time>2018-12-30T10:51:57Z</time>
      </trkpt>
      <trkpt lat="39.8659110" lon="2.9387430">
        <ele>198.7</ele>
        <time>2018-12-30T10:51:58Z</time>
      </trkpt>
      <trkpt lat="39.8659300" lon="2.9387210">
        <ele>199.0</ele>
        <time>2018-12-30T10:51:59Z</time>
      </trkpt>
      <trkpt lat="39.8659490" lon="2.9387020">
        <ele>199.3</ele>
        <time>2018-12-30T10:52:00Z</time>
      </trkpt>
      <trkpt lat="39.8659690" lon="2.9386860">
        <ele>199.5</ele>
        <time>2018-12-30T10:52:01Z</time>
      </trkpt>
      <trkpt lat="39.8659900" lon="2.9386750">
        <ele>199.7</ele>
        <time>2018-12-30T10:52:02Z</time>
      </trkpt>
      <trkpt lat="39.8660140" lon="2.9386710">
        <ele>199.9</ele>
        <time>2018-12-30T10:52:03Z</time>
      </trkpt>
      <trkpt lat="39.8660420" lon="2.9386740">
        <ele>200.1</ele>
        <time>2018-12-30T10:52:04Z</time>
      </trkpt>
      <trkpt lat="39.8660730" lon="2.9386850">
        <ele>200.4</ele>
        <time>2018-12-30T10:52:05Z</time>
      </trkpt>
      <trkpt lat="39.8661030" lon="2.9386970">
        <ele>200.6</ele>
        <time>2018-12-30T10:52:06Z</time>
      </trkpt>
      <trkpt lat="39.8661270" lon="2.9387170">
        <ele>200.8</ele>
        <time>2018-12-30T10:52:07Z</time>
      </trkpt>
      <trkpt lat="39.8661470" lon="2.9387380">
        <ele>201.0</ele>
        <time>2018-12-30T10:52:08Z</time>
      </trkpt>
      <trkpt lat="39.8661650" lon="2.9387660">
        <ele>201.2</ele>
        <time>2018-12-30T10:52:09Z</time>
      </trkpt>
      <trkpt lat="39.8661810" lon="2.9388050">
        <ele>201.4</ele>
        <time>2018-12-30T10:52:10Z</time>
      </trkpt>
      <trkpt lat="39.8661950" lon="2.9388480">
        <ele>201.6</ele>
        <time>2018-12-30T10:52:11Z</time>
      </trkpt>
      <trkpt lat="39.8662040" lon="2.9388990">
        <ele>201.8</ele>
        <time>2018-12-30T10:52:12Z</time>
      </trkpt>
      <trkpt lat="39.8662100" lon="2.9389430">
        <ele>202.0</ele>
        <time>2018-12-30T10:52:13Z</time>
      </trkpt>
      <trkpt lat="39.8662150" lon="2.9389860">
        <ele>202.2</ele>
        <time>2018-12-30T10:52:14Z</time>
      </trkpt>
      <trkpt lat="39.8662220" lon="2.9390290">
        <ele>202.4</ele>
        <time>2018-12-30T10:52:15Z</time>
      </trkpt>
      <trkpt lat="39.8662280" lon="2.9390780">
        <ele>202.7</ele>
        <time>2018-12-30T10:52:16Z</time>
      </trkpt>
      <trkpt lat="39.8662330" lon="2.9391290">
        <ele>203.0</ele>
        <time>2018-12-30T10:52:17Z</time>
      </trkpt>
      <trkpt lat="39.8662390" lon="2.9391770">
        <ele>203.2</ele>
        <time>2018-12-30T10:52:18Z</time>
      </trkpt>
      <trkpt lat="39.8662420" lon="2.9392240">
        <ele>203.4</ele>
        <time>2018-12-30T10:52:19Z</time>
      </trkpt>
      <trkpt lat="39.8662460" lon="2.9392710">
        <ele>203.6</ele>
        <time>2018-12-30T10:52:20Z</time>
      </trkpt>
      <trkpt lat="39.8662500" lon="2.9393170">
        <ele>203.9</ele>
        <time>2018-12-30T10:52:21Z</time>
      </trkpt>
      <trkpt lat="39.8662550" lon="2.9393630">
        <ele>204.2</ele>
        <time>2018-12-30T10:52:22Z</time>
      </trkpt>
      <trkpt lat="39.8662600" lon="2.9394100">
        <ele>204.5</ele>
        <time>2018-12-30T10:52:23Z</time>
      </trkpt>
      <trkpt lat="39.8662650" lon="2.9394560">
        <ele>204.7</ele>
        <time>2018-12-30T10:52:24Z</time>
      </trkpt>
      <trkpt lat="39.8662710" lon="2.9395010">
        <ele>204.9</ele>
        <time>2018-12-30T10:52:25Z</time>
      </trkpt>
      <trkpt lat="39.8662770" lon="2.9395450">
        <ele>205.1</ele>
        <time>2018-12-30T10:52:26Z</time>
      </trkpt>
      <trkpt lat="39.8662860" lon="2.9395870">
        <ele>205.3</ele>
        <time>2018-12-30T10:52:27Z</time>
      </trkpt>
      <trkpt lat="39.8662970" lon="2.9396280">
        <ele>205.5</ele>
        <time>2018-12-30T10:52:28Z</time>
      </trkpt>
      <trkpt lat="39.8663140" lon="2.9396680">
        <ele>205.8</ele>
        <time>2018-12-30T10:52:29Z</time>
      </trkpt>
      <trkpt lat="39.8663310" lon="2.9397060">
        <ele>206.0</ele>
        <time>2018-12-30T10:52:30Z</time>
      </trkpt>
      <trkpt lat="39.8663540" lon="2.9397430">
        <ele>206.3</ele>
        <time>2018-12-30T10:52:31Z</time>
      </trkpt>
      <trkpt lat="39.8663750" lon="2.9397780">
        <ele>206.5</ele>
        <time>2018-12-30T10:52:32Z</time>
      </trkpt>
      <trkpt lat="39.8664000" lon="2.9398110">
        <ele>206.7</ele>
        <time>2018-12-30T10:52:33Z</time>
      </trkpt>
      <trkpt lat="39.8664220" lon="2.9398440">
        <ele>206.8</ele>
        <time>2018-12-30T10:52:34Z</time>
      </trkpt>
      <trkpt lat="39.8664450" lon="2.9398750">
        <ele>207.0</ele>
        <time>2018-12-30T10:52:35Z</time>
      </trkpt>
      <trkpt lat="39.8664680" lon="2.9399060">
        <ele>207.2</ele>
        <time>2018-12-30T10:52:36Z</time>
      </trkpt>
      <trkpt lat="39.8664910" lon="2.9399360">
        <ele>207.5</ele>
        <time>2018-12-30T10:52:37Z</time>
      </trkpt>
      <trkpt lat="39.8665130" lon="2.9399660">
        <ele>207.7</ele>
        <time>2018-12-30T10:52:38Z</time>
      </trkpt>
      <trkpt lat="39.8665350" lon="2.9399980">
        <ele>208.0</ele>
        <time>2018-12-30T10:52:39Z</time>
      </trkpt>
      <trkpt lat="39.8665570" lon="2.9400310">
        <ele>208.2</ele>
        <time>2018-12-30T10:52:40Z</time>
      </trkpt>
      <trkpt lat="39.8665800" lon="2.9400640">
        <ele>208.5</ele>
        <time>2018-12-30T10:52:41Z</time>
      </trkpt>
      <trkpt lat="39.8666040" lon="2.9400980">
        <ele>208.7</ele>
        <time>2018-12-30T10:52:42Z</time>
      </trkpt>
      <trkpt lat="39.8666290" lon="2.9401300">
        <ele>208.9</ele>
        <time>2018-12-30T10:52:43Z</time>
      </trkpt>
      <trkpt lat="39.8666530" lon="2.9401620">
        <ele>209.1</ele>
        <time>2018-12-30T10:52:44Z</time>
      </trkpt>
      <trkpt lat="39.8666780" lon="2.9401930">
        <ele>209.3</ele>
        <time>2018-12-30T10:52:45Z</time>
      </trkpt>
      <trkpt lat="39.8667030" lon="2.9402200">
        <ele>209.5</ele>
        <time>2018-12-30T10:52:46Z</time>
      </trkpt>
      <trkpt lat="39.8667270" lon="2.9402510">
        <ele>209.7</ele>
        <time>2018-12-30T10:52:47Z</time>
      </trkpt>
      <trkpt lat="39.8667510" lon="2.9402840">
        <ele>209.9</ele>
        <time>2018-12-30T10:52:48Z</time>
      </trkpt>
      <trkpt lat="39.8667740" lon="2.9403220">
        <ele>210.1</ele>
        <time>2018-12-30T10:52:49Z</time>
      </trkpt>
      <trkpt lat="39.8667960" lon="2.9403570">
        <ele>210.3</ele>
        <time>2018-12-30T10:52:50Z</time>
      </trkpt>
      <trkpt lat="39.8668180" lon="2.9403900">
        <ele>210.4</ele>
        <time>2018-12-30T10:52:51Z</time>
      </trkpt>
      <trkpt lat="39.8668400" lon="2.9404250">
        <ele>210.7</ele>
        <time>2018-12-30T10:52:52Z</time>
      </trkpt>
      <trkpt lat="39.8668620" lon="2.9404630">
        <ele>210.9</ele>
        <time>2018-12-30T10:52:53Z</time>
      </trkpt>
      <trkpt lat="39.8668840" lon="2.9404970">
        <ele>211.2</ele>
        <time>2018-12-30T10:52:54Z</time>
      </trkpt>
      <trkpt lat="39.8669110" lon="2.9405340">
        <ele>211.4</ele>
        <time>2018-12-30T10:52:55Z</time>
      </trkpt>
      <trkpt lat="39.8669370" lon="2.9405640">
        <ele>211.7</ele>
        <time>2018-12-30T10:52:56Z</time>
      </trkpt>
      <trkpt lat="39.8669640" lon="2.9405990">
        <ele>211.9</ele>
        <time>2018-12-30T10:52:57Z</time>
      </trkpt>
      <trkpt lat="39.8669870" lon="2.9406310">
        <ele>212.2</ele>
        <time>2018-12-30T10:52:58Z</time>
      </trkpt>
      <trkpt lat="39.8670110" lon="2.9406610">
        <ele>212.4</ele>
        <time>2018-12-30T10:52:59Z</time>
      </trkpt>
      <trkpt lat="39.8670350" lon="2.9406890">
        <ele>212.7</ele>
        <time>2018-12-30T10:53:00Z</time>
      </trkpt>
      <trkpt lat="39.8670610" lon="2.9407150">
        <ele>213.0</ele>
        <time>2018-12-30T10:53:01Z</time>
      </trkpt>
      <trkpt lat="39.8670870" lon="2.9407420">
        <ele>213.2</ele>
        <time>2018-12-30T10:53:02Z</time>
      </trkpt>
      <trkpt lat="39.8671140" lon="2.9407670">
        <ele>213.4</ele>
        <time>2018-12-30T10:53:03Z</time>
      </trkpt>
      <trkpt lat="39.8671440" lon="2.9407950">
        <ele>213.7</ele>
        <time>2018-12-30T10:53:04Z</time>
      </trkpt>
      <trkpt lat="39.8671750" lon="2.9408220">
        <ele>214.0</ele>
        <time>2018-12-30T10:53:05Z</time>
      </trkpt>
      <trkpt lat="39.8672060" lon="2.9408530">
        <ele>214.3</ele>
        <time>2018-12-30T10:53:06Z</time>
      </trkpt>
      <trkpt lat="39.8672360" lon="2.9408820">
        <ele>214.5</ele>
        <time>2018-12-30T10:53:07Z</time>
      </trkpt>
      <trkpt lat="39.8672680" lon="2.9409090">
        <ele>214.7</ele>
        <time>2018-12-30T10:53:08Z</time>
      </trkpt>
      <trkpt lat="39.8673050" lon="2.9409330">
        <ele>214.9</ele>
        <time>2018-12-30T10:53:09Z</time>
      </trkpt>
      <trkpt lat="39.8673430" lon="2.9409540">
        <ele>215.1</ele>
        <time>2018-12-30T10:53:10Z</time>
      </trkpt>
      <trkpt lat="39.8673830" lon="2.9409730">
        <ele>215.3</ele>
        <time>2018-12-30T10:53:11Z</time>
      </trkpt>
      <trkpt lat="39.8674210" lon="2.9409950">
        <ele>215.5</ele>
        <time>2018-12-30T10:53:12Z</time>
      </trkpt>
      <trkpt lat="39.8674580" lon="2.9410150">
        <ele>215.7</ele>
        <time>2018-12-30T10:53:13Z</time>
      </trkpt>
      <trkpt lat="39.8674940" lon="2.9410350">
        <ele>216.0</ele>
        <time>2018-12-30T10:53:14Z</time>
      </trkpt>
      <trkpt lat="39.8675290" lon="2.9410510">
        <ele>216.3</ele>
        <time>2018-12-30T10:53:15Z</time>
      </trkpt>
      <trkpt lat="39.8675640" lon="2.9410680">
        <ele>216.6</ele>
        <time>2018-12-30T10:53:16Z</time>
      </trkpt>
      <trkpt lat="39.8675990" lon="2.9410860">
        <ele>216.9</ele>
        <time>2018-12-30T10:53:17Z</time>
      </trkpt>
      <trkpt lat="39.8676350" lon="2.9411040">
        <ele>217.1</ele>
        <time>2018-12-30T10:53:18Z</time>
      </trkpt>
      <trkpt lat="39.8676740" lon="2.9411230">
        <ele>217.4</ele>
        <time>2018-12-30T10:53:19Z</time>
      </trkpt>
      <trkpt lat="39.8677130" lon="2.9411370">
        <ele>217.6</ele>
        <time>2018-12-30T10:53:20Z</time>
      </trkpt>
      <trkpt lat="39.8677530" lon="2.9411480">
        <ele>217.9</ele>
        <time>2018-12-30T10:53:21Z</time>
      </trkpt>
      <trkpt lat="39.8677910" lon="2.9411570">
        <ele>218.2</ele>
        <time>2018-12-30T10:53:22Z</time>
      </trkpt>
      <trkpt lat="39.8678300" lon="2.9411680">
        <ele>218.5</ele>
        <time>2018-12-30T10:53:23Z</time>
      </trkpt>
      <trkpt lat="39.8678680" lon="2.9411790">
        <ele>218.7</ele>
        <time>2018-12-30T10:53:24Z</time>
      </trkpt>
      <trkpt lat="39.8679040" lon="2.9411920">
        <ele>218.9</ele>
        <time>2018-12-30T10:53:25Z</time>
      </trkpt>
      <trkpt lat="39.8679400" lon="2.9412090">
        <ele>219.1</ele>
        <time>2018-12-30T10:53:26Z</time>
      </trkpt>
      <trkpt lat="39.8679750" lon="2.9412250">
        <ele>219.3</ele>
        <time>2018-12-30T10:53:27Z</time>
      </trkpt>
      <trkpt lat="39.8680100" lon="2.9412400">
        <ele>219.6</ele>
        <time>2018-12-30T10:53:28Z</time>
      </trkpt>
      <trkpt lat="39.8680450" lon="2.9412530">
        <ele>219.9</ele>
        <time>2018-12-30T10:53:29Z</time>
      </trkpt>
      <trkpt lat="39.8680780" lon="2.9412660">
        <ele>220.1</ele>
        <time>2018-12-30T10:53:30Z</time>
      </trkpt>
      <trkpt lat="39.8681120" lon="2.9412800">
        <ele>220.4</ele>
        <time>2018-12-30T10:53:31Z</time>
      </trkpt>
      <trkpt lat="39.8681440" lon="2.9412940">
        <ele>220.7</ele>
        <time>2018-12-30T10:53:32Z</time>
      </trkpt>
      <trkpt lat="39.8681760" lon="2.9413040">
        <ele>221.0</ele>
        <time>2018-12-30T10:53:33Z</time>
      </trkpt>
      <trkpt lat="39.8682060" lon="2.9413150">
        <ele>221.3</ele>
        <time>2018-12-30T10:53:34Z</time>
      </trkpt>
      <trkpt lat="39.8682350" lon="2.9413300">
        <ele>221.5</ele>
        <time>2018-12-30T10:53:35Z</time>
      </trkpt>
      <trkpt lat="39.8682630" lon="2.9413510">
        <ele>221.8</ele>
        <time>2018-12-30T10:53:36Z</time>
      </trkpt>
      <trkpt lat="39.8682930" lon="2.9413770">
        <ele>222.1</ele>
        <time>2018-12-30T10:53:37Z</time>
      </trkpt>
      <trkpt lat="39.8683230" lon="2.9414000">
        <ele>222.4</ele>
        <time>2018-12-30T10:53:38Z</time>
      </trkpt>
      <trkpt lat="39.8683520" lon="2.9414190">
        <ele>222.7</ele>
        <time>2018-12-30T10:53:39Z</time>
      </trkpt>
      <trkpt lat="39.8683810" lon="2.9414320">
        <ele>222.9</ele>
        <time>2018-12-30T10:53:40Z</time>
      </trkpt>
      <trkpt lat="39.8684110" lon="2.9414460">
        <ele>223.2</ele>
        <time>2018-12-30T10:53:41Z</time>
      </trkpt>
      <trkpt lat="39.8684440" lon="2.9414590">
        <ele>223.4</ele>
        <time>2018-12-30T10:53:42Z</time>
      </trkpt>
      <trkpt lat="39.8684790" lon="2.9414660">
        <ele>223.7</ele>
        <time>2018-12-30T10:53:43Z</time>
      </trkpt>
      <trkpt lat="39.8685120" lon="2.9414700">
        <ele>224.0</ele>
        <time>2018-12-30T10:53:44Z</time>
      </trkpt>
      <trkpt lat="39.8685450" lon="2.9414740">
        <ele>224.2</ele>
        <time>2018-12-30T10:53:45Z</time>
      </trkpt>
      <trkpt lat="39.8685760" lon="2.9414800">
        <ele>224.4</ele>
        <time>2018-12-30T10:53:46Z</time>
      </trkpt>
      <trkpt lat="39.8686070" lon="2.9414830">
        <ele>224.6</ele>
        <time>2018-12-30T10:53:47Z</time>
      </trkpt>
      <trkpt lat="39.8686420" lon="2.9414820">
        <ele>224.9</ele>
        <time>2018-12-30T10:53:48Z</time>
      </trkpt>
      <trkpt lat="39.8686750" lon="2.9414840">
        <ele>225.1</ele>
        <time>2018-12-30T10:53:49Z</time>
      </trkpt>
      <trkpt lat="39.8687110" lon="2.9414860">
        <ele>225.3</ele>
        <time>2018-12-30T10:53:50Z</time>
      </trkpt>
      <trkpt lat="39.8687460" lon="2.9414900">
        <ele>225.5</ele>
        <time>2018-12-30T10:53:51Z</time>
      </trkpt>
      <trkpt lat="39.8687830" lon="2.9414970">
        <ele>225.7</ele>
        <time>2018-12-30T10:53:52Z</time>
      </trkpt>
      <trkpt lat="39.8688190" lon="2.9415070">
        <ele>225.8</ele>
        <time>2018-12-30T10:53:53Z</time>
      </trkpt>
      <trkpt lat="39.8688510" lon="2.9415210">
        <ele>226.0</ele>
        <time>2018-12-30T10:53:54Z</time>
      </trkpt>
      <trkpt lat="39.8688770" lon="2.9415350">
        <ele>226.2</ele>
        <time>2018-12-30T10:53:55Z</time>
      </trkpt>
      <trkpt lat="39.8688930" lon="2.9415800">
        <ele>226.5</ele>
        <time>2018-12-30T10:53:56Z</time>
      </trkpt>
      <trkpt lat="39.8689050" lon="2.9416310">
        <ele>226.7</ele>
        <time>2018-12-30T10:53:57Z</time>
      </trkpt>
      <trkpt lat="39.8689080" lon="2.9416930">
        <ele>227.0</ele>
        <time>2018-12-30T10:53:58Z</time>
      </trkpt>
      <trkpt lat="39.8689120" lon="2.9417320">
        <ele>227.2</ele>
        <time>2018-12-30T10:53:59Z</time>
      </trkpt>
      <trkpt lat="39.8689140" lon="2.9417720">
        <ele>227.4</ele>
        <time>2018-12-30T10:54:00Z</time>
      </trkpt>
      <trkpt lat="39.8689160" lon="2.9418080">
        <ele>227.5</ele>
        <time>2018-12-30T10:54:01Z</time>
      </trkpt>
      <trkpt lat="39.8689170" lon="2.9418470">
        <ele>227.7</ele>
        <time>2018-12-30T10:54:02Z</time>
      </trkpt>
      <trkpt lat="39.8689170" lon="2.9418930">
        <ele>228.0</ele>
        <time>2018-12-30T10:54:03Z</time>
      </trkpt>
      <trkpt lat="39.8689170" lon="2.9419400">
        <ele>228.3</ele>
        <time>2018-12-30T10:54:04Z</time>
      </trkpt>
      <trkpt lat="39.8689160" lon="2.9419920">
        <ele>228.6</ele>
        <time>2018-12-30T10:54:05Z</time>
      </trkpt>
      <trkpt lat="39.8689160" lon="2.9420380">
        <ele>228.9</ele>
        <time>2018-12-30T10:54:06Z</time>
      </trkpt>
      <trkpt lat="39.8689160" lon="2.9420790">
        <ele>229.2</ele>
        <time>2018-12-30T10:54:07Z</time>
      </trkpt>
      <trkpt lat="39.8689190" lon="2.9421100">
        <ele>229.4</ele>
        <time>2018-12-30T10:54:08Z</time>
      </trkpt>
      <trkpt lat="39.8689210" lon="2.9421330">
        <ele>229.5</ele>
        <time>2018-12-30T10:54:09Z</time>
      </trkpt>
      <trkpt lat="39.8689240" lon="2.9421540">
        <ele>229.6</ele>
        <time>2018-12-30T10:54:10Z</time>
      </trkpt>
      <trkpt lat="39.8689270" lon="2.9421770">
        <ele>229.8</ele>
        <time>2018-12-30T10:54:11Z</time>
      </trkpt>
      <trkpt lat="39.8689320" lon="2.9422060">
        <ele>230.0</ele>
        <time>2018-12-30T10:54:12Z</time>
      </trkpt>
      <trkpt lat="39.8689370" lon="2.9422400">
        <ele>230.2</ele>
        <time>2018-12-30T10:54:13Z</time>
      </trkpt>
      <trkpt lat="39.8689420" lon="2.9422770">
        <ele>230.5</ele>
        <time>2018-12-30T10:54:14Z</time>
      </trkpt>
      <trkpt lat="39.8689480" lon="2.9423140">
        <ele>230.7</ele>
        <time>2018-12-30T10:54:15Z</time>
      </trkpt>
      <trkpt lat="39.8689560" lon="2.9423520">
        <ele>230.9</ele>
        <time>2018-12-30T10:54:16Z</time>
      </trkpt>
      <trkpt lat="39.8689650" lon="2.9423920">
        <ele>231.1</ele>
        <time>2018-12-30T10:54:17Z</time>
      </trkpt>
      <trkpt lat="39.8689760" lon="2.9424320">
        <ele>231.3</ele>
        <time>2018-12-30T10:54:18Z</time>
      </trkpt>
      <trkpt lat="39.8689870" lon="2.9424730">
        <ele>231.6</ele>
        <time>2018-12-30T10:54:19Z</time>
      </trkpt>
      <trkpt lat="39.8689980" lon="2.9425150">
        <ele>231.8</ele>
        <time>2018-12-30T10:54:20Z</time>
      </trkpt>
      <trkpt lat="39.8690080" lon="2.9425570">
        <ele>232.1</ele>
        <time>2018-12-30T10:54:21Z</time>
      </trkpt>
      <trkpt lat="39.8690180" lon="2.9425980">
        <ele>232.2</ele>
        <time>2018-12-30T10:54:22Z</time>
      </trkpt>
      <trkpt lat="39.8690280" lon="2.9426410">
        <ele>232.4</ele>
        <time>2018-12-30T10:54:23Z</time>
      </trkpt>
      <trkpt lat="39.8690370" lon="2.9426840">
        <ele>232.7</ele>
        <time>2018-12-30T10:54:24Z</time>
      </trkpt>
      <trkpt lat="39.8690470" lon="2.9427260">
        <ele>232.9</ele>
        <time>2018-12-30T10:54:25Z</time>
      </trkpt>
      <trkpt lat="39.8690580" lon="2.9427690">
        <ele>233.1</ele>
        <time>2018-12-30T10:54:26Z</time>
      </trkpt>
      <trkpt lat="39.8690690" lon="2.9428090">
        <ele>233.3</ele>
        <time>2018-12-30T10:54:27Z</time>
      </trkpt>
      <trkpt lat="39.8690790" lon="2.9428500">
        <ele>233.6</ele>
        <time>2018-12-30T10:54:28Z</time>
      </trkpt>
      <trkpt lat="39.8690890" lon="2.9428900">
        <ele>233.9</ele>
        <time>2018-12-30T10:54:29Z</time>
      </trkpt>
      <trkpt lat="39.8690990" lon="2.9429300">
        <ele>234.1</ele>
        <time>2018-12-30T10:54:30Z</time>
      </trkpt>
      <trkpt lat="39.8691090" lon="2.9429700">
        <ele>234.4</ele>
        <time>2018-12-30T10:54:31Z</time>
      </trkpt>
      <trkpt lat="39.8691180" lon="2.9430090">
        <ele>234.7</ele>
        <time>2018-12-30T10:54:32Z</time>
      </trkpt>
      <trkpt lat="39.8691280" lon="2.9430500">
        <ele>235.1</ele>
        <time>2018-12-30T10:54:33Z</time>
      </trkpt>
      <trkpt lat="39.8691370" lon="2.9430910">
        <ele>235.3</ele>
        <time>2018-12-30T10:54:34Z</time>
      </trkpt>
      <trkpt lat="39.8691460" lon="2.9431320">
        <ele>235.6</ele>
        <time>2018-12-30T10:54:35Z</time>
      </trkpt>
      <trkpt lat="39.8691550" lon="2.9431730">
        <ele>235.8</ele>
        <time>2018-12-30T10:54:36Z</time>
      </trkpt>
      <trkpt lat="39.8691650" lon="2.9432120">
        <ele>235.9</ele>
        <time>2018-12-30T10:54:37Z</time>
      </trkpt>
      <trkpt lat="39.8691760" lon="2.9432500">
        <ele>235.9</ele>
        <time>2018-12-30T10:54:38Z</time>
      </trkpt>
      <trkpt lat="39.8691860" lon="2.9432870">
        <ele>235.8</ele>
        <time>2018-12-30T10:54:39Z</time>
      </trkpt>
      <trkpt lat="39.8691970" lon="2.9433240">
        <ele>235.8</ele>
        <time>2018-12-30T10:54:40Z</time>
      </trkpt>
      <trkpt lat="39.8692100" lon="2.9433580">
        <ele>235.8</ele>
        <time>2018-12-30T10:54:41Z</time>
      </trkpt>
      <trkpt lat="39.8692250" lon="2.9433890">
        <ele>235.7</ele>
        <time>2018-12-30T10:54:42Z</time>
      </trkpt>
      <trkpt lat="39.8692440" lon="2.9434170">
        <ele>235.7</ele>
        <time>2018-12-30T10:54:43Z</time>
      </trkpt>
      <trkpt lat="39.8692670" lon="2.9434430">
        <ele>236.3</ele>
        <time>2018-12-30T10:54:44Z</time>
      </trkpt>
      <trkpt lat="39.8692920" lon="2.9434680">
        <ele>237.1</ele>
        <time>2018-12-30T10:54:45Z</time>
      </trkpt>
      <trkpt lat="39.8693200" lon="2.9434890">
        <ele>237.8</ele>
        <time>2018-12-30T10:54:46Z</time>
      </trkpt>
      <trkpt lat="39.8693490" lon="2.9435090">
        <ele>238.5</ele>
        <time>2018-12-30T10:54:47Z</time>
      </trkpt>
      <trkpt lat="39.8693800" lon="2.9435230">
        <ele>239.1</ele>
        <time>2018-12-30T10:54:48Z</time>
      </trkpt>
      <trkpt lat="39.8694120" lon="2.9435330">
        <ele>239.8</ele>
        <time>2018-12-30T10:54:49Z</time>
      </trkpt>
      <trkpt lat="39.8694430" lon="2.9435380">
        <ele>240.5</ele>
        <time>2018-12-30T10:54:50Z</time>
      </trkpt>
      <trkpt lat="39.8694740" lon="2.9435410">
        <ele>241.2</ele>
        <time>2018-12-30T10:54:51Z</time>
      </trkpt>
      <trkpt lat="39.8695020" lon="2.9435400">
        <ele>241.8</ele>
        <time>2018-12-30T10:54:52Z</time>
      </trkpt>
      <trkpt lat="39.8695300" lon="2.9435360">
        <ele>242.4</ele>
        <time>2018-12-30T10:54:53Z</time>
      </trkpt>
      <trkpt lat="39.8695570" lon="2.9435280">
        <ele>243.1</ele>
        <time>2018-12-30T10:54:54Z</time>
      </trkpt>
      <trkpt lat="39.8695850" lon="2.9435150">
        <ele>243.9</ele>
        <time>2018-12-30T10:54:55Z</time>
      </trkpt>
      <trkpt lat="39.8696120" lon="2.9434960">
        <ele>244.6</ele>
        <time>2018-12-30T10:54:56Z</time>
      </trkpt>
      <trkpt lat="39.8696390" lon="2.9434740">
        <ele>245.5</ele>
        <time>2018-12-30T10:54:57Z</time>
      </trkpt>
      <trkpt lat="39.8696650" lon="2.9434500">
        <ele>246.3</ele>
        <time>2018-12-30T10:54:58Z</time>
      </trkpt>
      <trkpt lat="39.8696880" lon="2.9434230">
        <ele>247.1</ele>
        <time>2018-12-30T10:54:59Z</time>
      </trkpt>
      <trkpt lat="39.8697100" lon="2.9433950">
        <ele>248.0</ele>
        <time>2018-12-30T10:55:00Z</time>
      </trkpt>
      <trkpt lat="39.8697310" lon="2.9433650">
        <ele>248.8</ele>
        <time>2018-12-30T10:55:01Z</time>
      </trkpt>
      <trkpt lat="39.8697500" lon="2.9433330">
        <ele>249.7</ele>
        <time>2018-12-30T10:55:02Z</time>
      </trkpt>
      <trkpt lat="39.8697660" lon="2.9432980">
        <ele>250.5</ele>
        <time>2018-12-30T10:55:03Z</time>
      </trkpt>
      <trkpt lat="39.8697780" lon="2.9432610">
        <ele>251.3</ele>
        <time>2018-12-30T10:55:04Z</time>
      </trkpt>
      <trkpt lat="39.8697860" lon="2.9432220">
        <ele>252.2</ele>
        <time>2018-12-30T10:55:05Z</time>
      </trkpt>
      <trkpt lat="39.8697920" lon="2.9431820">
        <ele>253.0</ele>
        <time>2018-12-30T10:55:06Z</time>
      </trkpt>
      <trkpt lat="39.8697950" lon="2.9431410">
        <ele>253.9</ele>
        <time>2018-12-30T10:55:07Z</time>
      </trkpt>
      <trkpt lat="39.8697960" lon="2.9431000">
        <ele>254.7</ele>
        <time>2018-12-30T10:55:08Z</time>
      </trkpt>
      <trkpt lat="39.8697930" lon="2.9430590">
        <ele>255.6</ele>
        <time>2018-12-30T10:55:09Z</time>
      </trkpt>
      <trkpt lat="39.8697870" lon="2.9430170">
        <ele>256.4</ele>
        <time>2018-12-30T10:55:10Z</time>
      </trkpt>
      <trkpt lat="39.8697790" lon="2.9429760">
        <ele>257.3</ele>
        <time>2018-12-30T10:55:11Z</time>
      </trkpt>
      <trkpt lat="39.8697710" lon="2.9429360">
        <ele>258.4</ele>
        <time>2018-12-30T10:55:12Z</time>
      </trkpt>
      <trkpt lat="39.8697630" lon="2.9428970">
        <ele>258.6</ele>
        <time>2018-12-30T10:55:13Z</time>
      </trkpt>
      <trkpt lat="39.8697550" lon="2.9428600">
        <ele>258.8</ele>
        <time>2018-12-30T10:55:14Z</time>
      </trkpt>
      <trkpt lat="39.8697460" lon="2.9428220">
        <ele>259.0</ele>
        <time>2018-12-30T10:55:15Z</time>
      </trkpt>
      <trkpt lat="39.8697360" lon="2.9427840">
        <ele>259.1</ele>
        <time>2018-12-30T10:55:16Z</time>
      </trkpt>
      <trkpt lat="39.8697250" lon="2.9427460">
        <ele>259.3</ele>
        <time>2018-12-30T10:55:17Z</time>
      </trkpt>
      <trkpt lat="39.8697130" lon="2.9427120">
        <ele>259.5</ele>
        <time>2018-12-30T10:55:18Z</time>
      </trkpt>
      <trkpt lat="39.8697000" lon="2.9426760">
        <ele>259.7</ele>
        <time>2018-12-30T10:55:19Z</time>
      </trkpt>
      <trkpt lat="39.8696870" lon="2.9426380">
        <ele>259.9</ele>
        <time>2018-12-30T10:55:20Z</time>
      </trkpt>
      <trkpt lat="39.8696740" lon="2.9425950">
        <ele>260.1</ele>
        <time>2018-12-30T10:55:21Z</time>
      </trkpt>
      <trkpt lat="39.8696610" lon="2.9425540">
        <ele>260.2</ele>
        <time>2018-12-30T10:55:22Z</time>
      </trkpt>
      <trkpt lat="39.8696490" lon="2.9425180">
        <ele>260.4</ele>
        <time>2018-12-30T10:55:23Z</time>
      </trkpt>
      <trkpt lat="39.8696390" lon="2.9424870">
        <ele>260.6</ele>
        <time>2018-12-30T10:55:24Z</time>
      </trkpt>
      <trkpt lat="39.8696300" lon="2.9424610">
        <ele>260.7</ele>
        <time>2018-12-30T10:55:25Z</time>
      </trkpt>
      <trkpt lat="39.8696230" lon="2.9424330">
        <ele>260.8</ele>
        <time>2018-12-30T10:55:26Z</time>
      </trkpt>
      <trkpt lat="39.8696150" lon="2.9424040">
        <ele>260.9</ele>
        <time>2018-12-30T10:55:27Z</time>
      </trkpt>
      <trkpt lat="39.8696040" lon="2.9423690">
        <ele>261.1</ele>
        <time>2018-12-30T10:55:28Z</time>
      </trkpt>
      <trkpt lat="39.8695910" lon="2.9423310">
        <ele>261.2</ele>
        <time>2018-12-30T10:55:29Z</time>
      </trkpt>
      <trkpt lat="39.8695770" lon="2.9422910">
        <ele>261.4</ele>
        <time>2018-12-30T10:55:30Z</time>
      </trkpt>
      <trkpt lat="39.8695630" lon="2.9422530">
        <ele>261.6</ele>
        <time>2018-12-30T10:55:31Z</time>
      </trkpt>
      <trkpt lat="39.8695510" lon="2.9422150">
        <ele>261.7</ele>
        <time>2018-12-30T10:55:32Z</time>
      </trkpt>
      <trkpt lat="39.8695390" lon="2.9421760">
        <ele>261.9</ele>
        <time>2018-12-30T10:55:33Z</time>
      </trkpt>
      <trkpt lat="39.8695270" lon="2.9421340">
        <ele>262.0</ele>
        <time>2018-12-30T10:55:34Z</time>
      </trkpt>
      <trkpt lat="39.8695140" lon="2.9420930">
        <ele>262.2</ele>
        <time>2018-12-30T10:55:35Z</time>
      </trkpt>
      <trkpt lat="39.8695000" lon="2.9420520">
        <ele>262.4</ele>
        <time>2018-12-30T10:55:36Z</time>
      </trkpt>
      <trkpt lat="39.8694860" lon="2.9420120">
        <ele>262.5</ele>
        <time>2018-12-30T10:55:37Z</time>
      </trkpt>
      <trkpt lat="39.8694710" lon="2.9419720">
        <ele>262.7</ele>
        <time>2018-12-30T10:55:38Z</time>
      </trkpt>
      <trkpt lat="39.8694560" lon="2.9419320">
        <ele>262.9</ele>
        <time>2018-12-30T10:55:39Z</time>
      </trkpt>
      <trkpt lat="39.8694430" lon="2.9418930">
        <ele>263.0</ele>
        <time>2018-12-30T10:55:40Z</time>
      </trkpt>
      <trkpt lat="39.8694320" lon="2.9418520">
        <ele>263.2</ele>
        <time>2018-12-30T10:55:41Z</time>
      </trkpt>
      <trkpt lat="39.8694210" lon="2.9418110">
        <ele>263.4</ele>
        <time>2018-12-30T10:55:42Z</time>
      </trkpt>
      <trkpt lat="39.8694090" lon="2.9417700">
        <ele>263.5</ele>
        <time>2018-12-30T10:55:43Z</time>
      </trkpt>
      <trkpt lat="39.8693970" lon="2.9417290">
        <ele>263.7</ele>
        <time>2018-12-30T10:55:44Z</time>
      </trkpt>
      <trkpt lat="39.8693870" lon="2.9416880">
        <ele>263.9</ele>
        <time>2018-12-30T10:55:45Z</time>
      </trkpt>
      <trkpt lat="39.8693820" lon="2.9416460">
        <ele>264.1</ele>
        <time>2018-12-30T10:55:46Z</time>
      </trkpt>
      <trkpt lat="39.8693780" lon="2.9416060">
        <ele>264.2</ele>
        <time>2018-12-30T10:55:47Z</time>
      </trkpt>
      <trkpt lat="39.8693760" lon="2.9415680">
        <ele>264.4</ele>
        <time>2018-12-30T10:55:48Z</time>
      </trkpt>
      <trkpt lat="39.8693760" lon="2.9415290">
        <ele>264.5</ele>
        <time>2018-12-30T10:55:49Z</time>
      </trkpt>
      <trkpt lat="39.8693760" lon="2.9414900">
        <ele>264.7</ele>
        <time>2018-12-30T10:55:50Z</time>
      </trkpt>
      <trkpt lat="39.8693760" lon="2.9414500">
        <ele>264.8</ele>
        <time>2018-12-30T10:55:51Z</time>
      </trkpt>
      <trkpt lat="39.8693740" lon="2.9414120">
        <ele>265.0</ele>
        <time>2018-12-30T10:55:52Z</time>
      </trkpt>
      <trkpt lat="39.8693710" lon="2.9413750">
        <ele>265.1</ele>
        <time>2018-12-30T10:55:53Z</time>
      </trkpt>
      <trkpt lat="39.8693660" lon="2.9413390">
        <ele>265.3</ele>
        <time>2018-12-30T10:55:54Z</time>
      </trkpt>
      <trkpt lat="39.8693590" lon="2.9413010">
        <ele>265.4</ele>
        <time>2018-12-30T10:55:55Z</time>
      </trkpt>
      <trkpt lat="39.8693520" lon="2.9412620">
        <ele>265.6</ele>
        <time>2018-12-30T10:55:56Z</time>
      </trkpt>
      <trkpt lat="39.8693430" lon="2.9412220">
        <ele>265.8</ele>
        <time>2018-12-30T10:55:57Z</time>
      </trkpt>
      <trkpt lat="39.8693310" lon="2.9411830">
        <ele>265.9</ele>
        <time>2018-12-30T10:55:58Z</time>
      </trkpt>
      <trkpt lat="39.8693150" lon="2.9411480">
        <ele>266.0</ele>
        <time>2018-12-30T10:55:59Z</time>
      </trkpt>
      <trkpt lat="39.8692970" lon="2.9411160">
        <ele>266.2</ele>
        <time>2018-12-30T10:56:00Z</time>
      </trkpt>
      <trkpt lat="39.8692720" lon="2.9410900">
        <ele>266.3</ele>
        <time>2018-12-30T10:56:01Z</time>
      </trkpt>
      <trkpt lat="39.8692450" lon="2.9410690">
        <ele>266.4</ele>
        <time>2018-12-30T10:56:02Z</time>
      </trkpt>
      <trkpt lat="39.8692150" lon="2.9410500">
        <ele>266.6</ele>
        <time>2018-12-30T10:56:03Z</time>
      </trkpt>
      <trkpt lat="39.8691860" lon="2.9410330">
        <ele>266.7</ele>
        <time>2018-12-30T10:56:04Z</time>
      </trkpt>
      <trkpt lat="39.8691550" lon="2.9410190">
        <ele>266.8</ele>
        <time>2018-12-30T10:56:05Z</time>
      </trkpt>
      <trkpt lat="39.8691260" lon="2.9410060">
        <ele>267.0</ele>
        <time>2018-12-30T10:56:06Z</time>
      </trkpt>
      <trkpt lat="39.8690950" lon="2.9409950">
        <ele>267.1</ele>
        <time>2018-12-30T10:56:07Z</time>
      </trkpt>
      <trkpt lat="39.8690630" lon="2.9409850">
        <ele>267.2</ele>
        <time>2018-12-30T10:56:08Z</time>
      </trkpt>
      <trkpt lat="39.8690310" lon="2.9409760">
        <ele>267.3</ele>
        <time>2018-12-30T10:56:09Z</time>
      </trkpt>
      <trkpt lat="39.8689980" lon="2.9409660">
        <ele>267.4</ele>
        <time>2018-12-30T10:56:10Z</time>
      </trkpt>
      <trkpt lat="39.8689650" lon="2.9409560">
        <ele>267.5</ele>
        <time>2018-12-30T10:56:11Z</time>
      </trkpt>
      <trkpt lat="39.8689310" lon="2.9409460">
        <ele>267.6</ele>
        <time>2018-12-30T10:56:12Z</time>
      </trkpt>
      <trkpt lat="39.8688980" lon="2.9409370">
        <ele>267.7</ele>
        <time>2018-12-30T10:56:13Z</time>
      </trkpt>
      <trkpt lat="39.8688670" lon="2.9409260">
        <ele>267.8</ele>
        <time>2018-12-30T10:56:14Z</time>
      </trkpt>
      <trkpt lat="39.8688360" lon="2.9409140">
        <ele>267.9</ele>
        <time>2018-12-30T10:56:15Z</time>
      </trkpt>
      <trkpt lat="39.8688070" lon="2.9409010">
        <ele>268.1</ele>
        <time>2018-12-30T10:56:16Z</time>
      </trkpt>
      <trkpt lat="39.8687770" lon="2.9408870">
        <ele>268.2</ele>
        <time>2018-12-30T10:56:17Z</time>
      </trkpt>
      <trkpt lat="39.8687470" lon="2.9408720">
        <ele>268.3</ele>
        <time>2018-12-30T10:56:18Z</time>
      </trkpt>
      <trkpt lat="39.8687160" lon="2.9408560">
        <ele>268.4</ele>
        <time>2018-12-30T10:56:19Z</time>
      </trkpt>
      <trkpt lat="39.8686870" lon="2.9408380">
        <ele>268.5</ele>
        <time>2018-12-30T10:56:20Z</time>
      </trkpt>
      <trkpt lat="39.8686550" lon="2.9408180">
        <ele>268.6</ele>
        <time>2018-12-30T10:56:21Z</time>
      </trkpt>
      <trkpt lat="39.8686210" lon="2.9407960">
        <ele>268.8</ele>
        <time>2018-12-30T10:56:22Z</time>
      </trkpt>
      <trkpt lat="39.8685860" lon="2.9407730">
        <ele>269.0</ele>
        <time>2018-12-30T10:56:23Z</time>
      </trkpt>
      <trkpt lat="39.8685520" lon="2.9407510">
        <ele>269.2</ele>
        <time>2018-12-30T10:56:24Z</time>
      </trkpt>
      <trkpt lat="39.8685180" lon="2.9407280">
        <ele>269.4</ele>
        <time>2018-12-30T10:56:25Z</time>
      </trkpt>
      <trkpt lat="39.8684840" lon="2.9407040">
        <ele>269.6</ele>
        <time>2018-12-30T10:56:26Z</time>
      </trkpt>
      <trkpt lat="39.8684510" lon="2.9406800">
        <ele>269.8</ele>
        <time>2018-12-30T10:56:27Z</time>
      </trkpt>
      <trkpt lat="39.8684180" lon="2.9406550">
        <ele>270.0</ele>
        <time>2018-12-30T10:56:28Z</time>
      </trkpt>
      <trkpt lat="39.8683850" lon="2.9406300">
        <ele>270.3</ele>
        <time>2018-12-30T10:56:29Z</time>
      </trkpt>
      <trkpt lat="39.8683530" lon="2.9406040">
        <ele>270.5</ele>
        <time>2018-12-30T10:56:30Z</time>
      </trkpt>
      <trkpt lat="39.8683220" lon="2.9405770">
        <ele>270.8</ele>
        <time>2018-12-30T10:56:31Z</time>
      </trkpt>
      <trkpt lat="39.8682910" lon="2.9405500">
        <ele>271.0</ele>
        <time>2018-12-30T10:56:32Z</time>
      </trkpt>
      <trkpt lat="39.8682610" lon="2.9405240">
        <ele>271.3</ele>
        <time>2018-12-30T10:56:33Z</time>
      </trkpt>
      <trkpt lat="39.8682310" lon="2.9404990">
        <ele>271.6</ele>
        <time>2018-12-30T10:56:34Z</time>
      </trkpt>
      <trkpt lat="39.8682020" lon="2.9404720">
        <ele>271.9</ele>
        <time>2018-12-30T10:56:35Z</time>
      </trkpt>
      <trkpt lat="39.8681740" lon="2.9404430">
        <ele>272.2</ele>
        <time>2018-12-30T10:56:36Z</time>
      </trkpt>
      <trkpt lat="39.8681450" lon="2.9404110">
        <ele>272.5</ele>
        <time>2018-12-30T10:56:37Z</time>
      </trkpt>
      <trkpt lat="39.8681170" lon="2.9403790">
        <ele>272.9</ele>
        <time>2018-12-30T10:56:38Z</time>
      </trkpt>
      <trkpt lat="39.8680890" lon="2.9403460">
        <ele>273.2</ele>
        <time>2018-12-30T10:56:39Z</time>
      </trkpt>
      <trkpt lat="39.8680610" lon="2.9403130">
        <ele>273.6</ele>
        <time>2018-12-30T10:56:40Z</time>
      </trkpt>
      <trkpt lat="39.8680350" lon="2.9402780">
        <ele>273.8</ele>
        <time>2018-12-30T10:56:41Z</time>
      </trkpt>
      <trkpt lat="39.8680080" lon="2.9402430">
        <ele>274.1</ele>
        <time>2018-12-30T10:56:42Z</time>
      </trkpt>
      <trkpt lat="39.8679800" lon="2.9402060">
        <ele>274.4</ele>
        <time>2018-12-30T10:56:43Z</time>
      </trkpt>
      <trkpt lat="39.8679520" lon="2.9401690">
        <ele>274.6</ele>
        <time>2018-12-30T10:56:44Z</time>
      </trkpt>
      <trkpt lat="39.8679240" lon="2.9401340">
        <ele>274.9</ele>
        <time>2018-12-30T10:56:45Z</time>
      </trkpt>
      <trkpt lat="39.8678980" lon="2.9400990">
        <ele>275.1</ele>
        <time>2018-12-30T10:56:46Z</time>
      </trkpt>
      <trkpt lat="39.8678710" lon="2.9400640">
        <ele>275.4</ele>
        <time>2018-12-30T10:56:47Z</time>
      </trkpt>
      <trkpt lat="39.8678450" lon="2.9400280">
        <ele>275.7</ele>
        <time>2018-12-30T10:56:48Z</time>
      </trkpt>
      <trkpt lat="39.8678190" lon="2.9399930">
        <ele>275.9</ele>
        <time>2018-12-30T10:56:49Z</time>
      </trkpt>
      <trkpt lat="39.8677930" lon="2.9399570">
        <ele>276.2</ele>
        <time>2018-12-30T10:56:50Z</time>
      </trkpt>
      <trkpt lat="39.8677660" lon="2.9399210">
        <ele>276.5</ele>
        <time>2018-12-30T10:56:51Z</time>
      </trkpt>
      <trkpt lat="39.8677390" lon="2.9398850">
        <ele>276.7</ele>
        <time>2018-12-30T10:56:52Z</time>
      </trkpt>
      <trkpt lat="39.8677130" lon="2.9398490">
        <ele>277.0</ele>
        <time>2018-12-30T10:56:53Z</time>
      </trkpt>
      <trkpt lat="39.8676860" lon="2.9398120">
        <ele>277.3</ele>
        <time>2018-12-30T10:56:54Z</time>
      </trkpt>
      <trkpt lat="39.8676580" lon="2.9397770">
        <ele>277.6</ele>
        <time>2018-12-30T10:56:55Z</time>
      </trkpt>
      <trkpt lat="39.8676300" lon="2.9397420">
        <ele>277.9</ele>
        <time>2018-12-30T10:56:56Z</time>
      </trkpt>
      <trkpt lat="39.8676010" lon="2.9397060">
        <ele>278.2</ele>
        <time>2018-12-30T10:56:57Z</time>
      </trkpt>
      <trkpt lat="39.8675720" lon="2.9396710">
        <ele>278.4</ele>
        <time>2018-12-30T10:56:58Z</time>
      </trkpt>
      <trkpt lat="39.8675420" lon="2.9396350">
        <ele>278.6</ele>
        <time>2018-12-30T10:56:59Z</time>
      </trkpt>
      <trkpt lat="39.8675140" lon="2.9395990">
        <ele>278.9</ele>
        <time>2018-12-30T10:57:00Z</time>
      </trkpt>
      <trkpt lat="39.8674880" lon="2.9395620">
        <ele>279.1</ele>
        <time>2018-12-30T10:57:01Z</time>
      </trkpt>
      <trkpt lat="39.8674640" lon="2.9395230">
        <ele>279.2</ele>
        <time>2018-12-30T10:57:02Z</time>
      </trkpt>
      <trkpt lat="39.8674420" lon="2.9394840">
        <ele>279.4</ele>
        <time>2018-12-30T10:57:03Z</time>
      </trkpt>
      <trkpt lat="39.8674200" lon="2.9394440">
        <ele>279.5</ele>
        <time>2018-12-30T10:57:04Z</time>
      </trkpt>
      <trkpt lat="39.8674010" lon="2.9394020">
        <ele>279.7</ele>
        <time>2018-12-30T10:57:05Z</time>
      </trkpt>
      <trkpt lat="39.8673850" lon="2.9393610">
        <ele>279.8</ele>
        <time>2018-12-30T10:57:06Z</time>
      </trkpt>
      <trkpt lat="39.8673730" lon="2.9393160">
        <ele>279.9</ele>
        <time>2018-12-30T10:57:07Z</time>
      </trkpt>
      <trkpt lat="39.8673630" lon="2.9392720">
        <ele>280.1</ele>
        <time>2018-12-30T10:57:08Z</time>
      </trkpt>
      <trkpt lat="39.8673560" lon="2.9392270">
        <ele>280.2</ele>
        <time>2018-12-30T10:57:09Z</time>
      </trkpt>
      <trkpt lat="39.8673500" lon="2.9391840">
        <ele>280.4</ele>
        <time>2018-12-30T10:57:10Z</time>
      </trkpt>
      <trkpt lat="39.8673430" lon="2.9391410">
        <ele>280.5</ele>
        <time>2018-12-30T10:57:11Z</time>
      </trkpt>
      <trkpt lat="39.8673350" lon="2.9391000">
        <ele>280.7</ele>
        <time>2018-12-30T10:57:12Z</time>
      </trkpt>
      <trkpt lat="39.8673290" lon="2.9390570">
        <ele>280.9</ele>
        <time>2018-12-30T10:57:13Z</time>
      </trkpt>
      <trkpt lat="39.8673250" lon="2.9390130">
        <ele>281.1</ele>
        <time>2018-12-30T10:57:14Z</time>
      </trkpt>
      <trkpt lat="39.8673230" lon="2.9389680">
        <ele>281.3</ele>
        <time>2018-12-30T10:57:15Z</time>
      </trkpt>
      <trkpt lat="39.8673220" lon="2.9389260">
        <ele>281.5</ele>
        <time>2018-12-30T10:57:16Z</time>
      </trkpt>
      <trkpt lat="39.8673180" lon="2.9388860">
        <ele>281.7</ele>
        <time>2018-12-30T10:57:17Z</time>
      </trkpt>
      <trkpt lat="39.8673150" lon="2.9388450">
        <ele>281.9</ele>
        <time>2018-12-30T10:57:18Z</time>
      </trkpt>
      <trkpt lat="39.8673130" lon="2.9388050">
        <ele>282.0</ele>
        <time>2018-12-30T10:57:19Z</time>
      </trkpt>
      <trkpt lat="39.8673160" lon="2.9387630">
        <ele>282.2</ele>
        <time>2018-12-30T10:57:20Z</time>
      </trkpt>
      <trkpt lat="39.8673200" lon="2.9387210">
        <ele>282.3</ele>
        <time>2018-12-30T10:57:21Z</time>
      </trkpt>
      <trkpt lat="39.8673240" lon="2.9386800">
        <ele>282.5</ele>
        <time>2018-12-30T10:57:22Z</time>
      </trkpt>
      <trkpt lat="39.8673260" lon="2.9386400">
        <ele>282.6</ele>
        <time>2018-12-30T10:57:23Z</time>
      </trkpt>
      <trkpt lat="39.8673280" lon="2.9386010">
        <ele>282.8</ele>
        <time>2018-12-30T10:57:24Z</time>
      </trkpt>
      <trkpt lat="39.8673290" lon="2.9385620">
        <ele>282.9</ele>
        <time>2018-12-30T10:57:25Z</time>
      </trkpt>
      <trkpt lat="39.8673270" lon="2.9385240">
        <ele>283.1</ele>
        <time>2018-12-30T10:57:26Z</time>
      </trkpt>
      <trkpt lat="39.8673240" lon="2.9384850">
        <ele>283.2</ele>
        <time>2018-12-30T10:57:27Z</time>
      </trkpt>
      <trkpt lat="39.8673170" lon="2.9384440">
        <ele>283.5</ele>
        <time>2018-12-30T10:57:28Z</time>
      </trkpt>
      <trkpt lat="39.8672990" lon="2.9384020">
        <ele>283.8</ele>
        <time>2018-12-30T10:57:29Z</time>
      </trkpt>
      <trkpt lat="39.8672690" lon="2.9383600">
        <ele>284.1</ele>
        <time>2018-12-30T10:57:30Z</time>
      </trkpt>
      <trkpt lat="39.8672360" lon="2.9383170">
        <ele>284.5</ele>
        <time>2018-12-30T10:57:31Z</time>
      </trkpt>
      <trkpt lat="39.8672040" lon="2.9382740">
        <ele>284.9</ele>
        <time>2018-12-30T10:57:32Z</time>
      </trkpt>
      <trkpt lat="39.8671790" lon="2.9382320">
        <ele>285.2</ele>
        <time>2018-12-30T10:57:33Z</time>
      </trkpt>
      <trkpt lat="39.8671560" lon="2.9381890">
        <ele>285.6</ele>
        <time>2018-12-30T10:57:34Z</time>
      </trkpt>
      <trkpt lat="39.8671410" lon="2.9381490">
        <ele>285.9</ele>
        <time>2018-12-30T10:57:35Z</time>
      </trkpt>
      <trkpt lat="39.8671270" lon="2.9381070">
        <ele>286.2</ele>
        <time>2018-12-30T10:57:36Z</time>
      </trkpt>
      <trkpt lat="39.8671140" lon="2.9380670">
        <ele>286.5</ele>
        <time>2018-12-30T10:57:37Z</time>
      </trkpt>
      <trkpt lat="39.8671030" lon="2.9380220">
        <ele>286.8</ele>
        <time>2018-12-30T10:57:38Z</time>
      </trkpt>
      <trkpt lat="39.8670940" lon="2.9379760">
        <ele>287.1</ele>
        <time>2018-12-30T10:57:39Z</time>
      </trkpt>
      <trkpt lat="39.8670830" lon="2.9379320">
        <ele>287.4</ele>
        <time>2018-12-30T10:57:40Z</time>
      </trkpt>
      <trkpt lat="39.8670700" lon="2.9378900">
        <ele>287.7</ele>
        <time>2018-12-30T10:57:41Z</time>
      </trkpt>
      <trkpt lat="39.8670560" lon="2.9378510">
        <ele>287.9</ele>
        <time>2018-12-30T10:57:42Z</time>
      </trkpt>
      <trkpt lat="39.8670430" lon="2.9378110">
        <ele>288.1</ele>
        <time>2018-12-30T10:57:43Z</time>
      </trkpt>
      <trkpt lat="39.8670290" lon="2.9377710">
        <ele>288.3</ele>
        <time>2018-12-30T10:57:44Z</time>
      </trkpt>
      <trkpt lat="39.8670160" lon="2.9377320">
        <ele>288.5</ele>
        <time>2018-12-30T10:57:45Z</time>
      </trkpt>
      <trkpt lat="39.8670050" lon="2.9376930">
        <ele>288.7</ele>
        <time>2018-12-30T10:57:46Z</time>
      </trkpt>
      <trkpt lat="39.8669950" lon="2.9376530">
        <ele>288.9</ele>
        <time>2018-12-30T10:57:47Z</time>
      </trkpt>
      <trkpt lat="39.8669860" lon="2.9376130">
        <ele>289.1</ele>
        <time>2018-12-30T10:57:48Z</time>
      </trkpt>
      <trkpt lat="39.8669760" lon="2.9375730">
        <ele>289.3</ele>
        <time>2018-12-30T10:57:49Z</time>
      </trkpt>
      <trkpt lat="39.8669670" lon="2.9375330">
        <ele>289.4</ele>
        <time>2018-12-30T10:57:50Z</time>
      </trkpt>
      <trkpt lat="39.8669590" lon="2.9374930">
        <ele>289.6</ele>
        <time>2018-12-30T10:57:51Z</time>
      </trkpt>
      <trkpt lat="39.8669490" lon="2.9374540">
        <ele>289.8</ele>
        <time>2018-12-30T10:57:52Z</time>
      </trkpt>
      <trkpt lat="39.8669410" lon="2.9374140">
        <ele>290.0</ele>
        <time>2018-12-30T10:57:53Z</time>
      </trkpt>
      <trkpt lat="39.8669340" lon="2.9373740">
        <ele>290.2</ele>
        <time>2018-12-30T10:57:54Z</time>
      </trkpt>
      <trkpt lat="39.8669280" lon="2.9373330">
        <ele>290.3</ele>
        <time>2018-12-30T10:57:55Z</time>
      </trkpt>
      <trkpt lat="39.8669210" lon="2.9372920">
        <ele>290.5</ele>
        <time>2018-12-30T10:57:56Z</time>
      </trkpt>
      <trkpt lat="39.8669150" lon="2.9372520">
        <ele>290.7</ele>
        <time>2018-12-30T10:57:57Z</time>
      </trkpt>
      <trkpt lat="39.8669080" lon="2.9372110">
        <ele>290.9</ele>
        <time>2018-12-30T10:57:58Z</time>
      </trkpt>
      <trkpt lat="39.8669010" lon="2.9371700">
        <ele>291.0</ele>
        <time>2018-12-30T10:57:59Z</time>
      </trkpt>
      <trkpt lat="39.8668920" lon="2.9371300">
        <ele>291.3</ele>
        <time>2018-12-30T10:58:00Z</time>
      </trkpt>
      <trkpt lat="39.8668840" lon="2.9370900">
        <ele>291.5</ele>
        <time>2018-12-30T10:58:01Z</time>
      </trkpt>
      <trkpt lat="39.8668760" lon="2.9370490">
        <ele>291.8</ele>
        <time>2018-12-30T10:58:02Z</time>
      </trkpt>
      <trkpt lat="39.8668710" lon="2.9370060">
        <ele>292.0</ele>
        <time>2018-12-30T10:58:03Z</time>
      </trkpt>
      <trkpt lat="39.8668660" lon="2.9369650">
        <ele>292.3</ele>
        <time>2018-12-30T10:58:04Z</time>
      </trkpt>
      <trkpt lat="39.8668600" lon="2.9369240">
        <ele>292.5</ele>
        <time>2018-12-30T10:58:05Z</time>
      </trkpt>
      <trkpt lat="39.8668540" lon="2.9368830">
        <ele>292.8</ele>
        <time>2018-12-30T10:58:06Z</time>
      </trkpt>
      <trkpt lat="39.8668460" lon="2.9368420">
        <ele>293.1</ele>
        <time>2018-12-30T10:58:07Z</time>
      </trkpt>
      <trkpt lat="39.8668370" lon="2.9368020">
        <ele>293.3</ele>
        <time>2018-12-30T10:58:08Z</time>
      </trkpt>
      <trkpt lat="39.8668290" lon="2.9367610">
        <ele>293.6</ele>
        <time>2018-12-30T10:58:09Z</time>
      </trkpt>
      <trkpt lat="39.8668200" lon="2.9367230">
        <ele>293.8</ele>
        <time>2018-12-30T10:58:10Z</time>
      </trkpt>
      <trkpt lat="39.8668120" lon="2.9366840">
        <ele>294.1</ele>
        <time>2018-12-30T10:58:11Z</time>
      </trkpt>
      <trkpt lat="39.8668040" lon="2.9366450">
        <ele>294.4</ele>
        <time>2018-12-30T10:58:12Z</time>
      </trkpt>
      <trkpt lat="39.8667960" lon="2.9366040">
        <ele>294.6</ele>
        <time>2018-12-30T10:58:13Z</time>
      </trkpt>
      <trkpt lat="39.8667860" lon="2.9365630">
        <ele>294.9</ele>
        <time>2018-12-30T10:58:14Z</time>
      </trkpt>
      <trkpt lat="39.8667770" lon="2.9365210">
        <ele>295.2</ele>
        <time>2018-12-30T10:58:15Z</time>
      </trkpt>
      <trkpt lat="39.8667670" lon="2.9364800">
        <ele>295.5</ele>
        <time>2018-12-30T10:58:16Z</time>
      </trkpt>
      <trkpt lat="39.8667590" lon="2.9364380">
        <ele>295.8</ele>
        <time>2018-12-30T10:58:17Z</time>
      </trkpt>
      <trkpt lat="39.8667520" lon="2.9363970">
        <ele>296.0</ele>
        <time>2018-12-30T10:58:18Z</time>
      </trkpt>
      <trkpt lat="39.8667460" lon="2.9363560">
        <ele>296.3</ele>
        <time>2018-12-30T10:58:19Z</time>
      </trkpt>
      <trkpt lat="39.8667380" lon="2.9363150">
        <ele>296.6</ele>
        <time>2018-12-30T10:58:20Z</time>
      </trkpt>
      <trkpt lat="39.8667290" lon="2.9362760">
        <ele>296.9</ele>
        <time>2018-12-30T10:58:21Z</time>
      </trkpt>
      <trkpt lat="39.8667210" lon="2.9362360">
        <ele>297.1</ele>
        <time>2018-12-30T10:58:22Z</time>
      </trkpt>
      <trkpt lat="39.8667120" lon="2.9361960">
        <ele>297.4</ele>
        <time>2018-12-30T10:58:23Z</time>
      </trkpt>
      <trkpt lat="39.8667050" lon="2.9361560">
        <ele>297.6</ele>
        <time>2018-12-30T10:58:24Z</time>
      </trkpt>
      <trkpt lat="39.8666990" lon="2.9361160">
        <ele>297.9</ele>
        <time>2018-12-30T10:58:25Z</time>
      </trkpt>
      <trkpt lat="39.8666940" lon="2.9360760">
        <ele>298.1</ele>
        <time>2018-12-30T10:58:26Z</time>
      </trkpt>
      <trkpt lat="39.8666890" lon="2.9360380">
        <ele>298.3</ele>
        <time>2018-12-30T10:58:27Z</time>
      </trkpt>
      <trkpt lat="39.8666840" lon="2.9360050">
        <ele>298.5</ele>
        <time>2018-12-30T10:58:28Z</time>
      </trkpt>
      <trkpt lat="39.8666790" lon="2.9359760">
        <ele>298.6</ele>
        <time>2018-12-30T10:58:29Z</time>
      </trkpt>
      <trkpt lat="39.8666730" lon="2.9359470">
        <ele>298.8</ele>
        <time>2018-12-30T10:58:30Z</time>
      </trkpt>
      <trkpt lat="39.8666660" lon="2.9359130">
        <ele>298.9</ele>
        <time>2018-12-30T10:58:31Z</time>
      </trkpt>
      <trkpt lat="39.8666600" lon="2.9358760">
        <ele>299.1</ele>
        <time>2018-12-30T10:58:32Z</time>
      </trkpt>
      <trkpt lat="39.8666530" lon="2.9358370">
        <ele>299.2</ele>
        <time>2018-12-30T10:58:33Z</time>
      </trkpt>
      <trkpt lat="39.8666470" lon="2.9357980">
        <ele>299.4</ele>
        <time>2018-12-30T10:58:34Z</time>
      </trkpt>
      <trkpt lat="39.8666400" lon="2.9357580">
        <ele>299.6</ele>
        <time>2018-12-30T10:58:35Z</time>
      </trkpt>
      <trkpt lat="39.8666340" lon="2.9357180">
        <ele>299.7</ele>
        <time>2018-12-30T10:58:36Z</time>
      </trkpt>
      <trkpt lat="39.8666280" lon="2.9356770">
        <ele>299.9</ele>
        <time>2018-12-30T10:58:37Z</time>
      </trkpt>
      <trkpt lat="39.8666230" lon="2.9356360">
        <ele>300.0</ele>
        <time>2018-12-30T10:58:38Z</time>
      </trkpt>
      <trkpt lat="39.8666190" lon="2.9355960">
        <ele>300.2</ele>
        <time>2018-12-30T10:58:39Z</time>
      </trkpt>
      <trkpt lat="39.8666160" lon="2.9355560">
        <ele>300.3</ele>
        <time>2018-12-30T10:58:40Z</time>
      </trkpt>
      <trkpt lat="39.8666150" lon="2.9355180">
        <ele>300.5</ele>
        <time>2018-12-30T10:58:41Z</time>
      </trkpt>
      <trkpt lat="39.8666150" lon="2.9354810">
        <ele>300.6</ele>
        <time>2018-12-30T10:58:42Z</time>
      </trkpt>
      <trkpt lat="39.8666150" lon="2.9354420">
        <ele>300.8</ele>
        <time>2018-12-30T10:58:43Z</time>
      </trkpt>
      <trkpt lat="39.8666160" lon="2.9354010">
        <ele>300.9</ele>
        <time>2018-12-30T10:58:44Z</time>
      </trkpt>
      <trkpt lat="39.8666180" lon="2.9353600">
        <ele>301.1</ele>
        <time>2018-12-30T10:58:45Z</time>
      </trkpt>
      <trkpt lat="39.8666200" lon="2.9353190">
        <ele>301.3</ele>
        <time>2018-12-30T10:58:46Z</time>
      </trkpt>
      <trkpt lat="39.8666250" lon="2.9352780">
        <ele>301.6</ele>
        <time>2018-12-30T10:58:47Z</time>
      </trkpt>
      <trkpt lat="39.8666300" lon="2.9352360">
        <ele>301.8</ele>
        <time>2018-12-30T10:58:48Z</time>
      </trkpt>
      <trkpt lat="39.8666350" lon="2.9351940">
        <ele>302.0</ele>
        <time>2018-12-30T10:58:49Z</time>
      </trkpt>
      <trkpt lat="39.8666390" lon="2.9351510">
        <ele>302.3</ele>
        <time>2018-12-30T10:58:50Z</time>
      </trkpt>
      <trkpt lat="39.8666420" lon="2.9351080">
        <ele>302.6</ele>
        <time>2018-12-30T10:58:51Z</time>
      </trkpt>
      <trkpt lat="39.8666440" lon="2.9350660">
        <ele>302.9</ele>
        <time>2018-12-30T10:58:52Z</time>
      </trkpt>
      <trkpt lat="39.8666460" lon="2.9350230">
        <ele>303.1</ele>
        <time>2018-12-30T10:58:53Z</time>
      </trkpt>
      <trkpt lat="39.8666480" lon="2.9349800">
        <ele>303.4</ele>
        <time>2018-12-30T10:58:54Z</time>
      </trkpt>
      <trkpt lat="39.8666510" lon="2.9349370">
        <ele>303.7</ele>
        <time>2018-12-30T10:58:55Z</time>
      </trkpt>
      <trkpt lat="39.8666540" lon="2.9348950">
        <ele>304.0</ele>
        <time>2018-12-30T10:58:56Z</time>
      </trkpt>
      <trkpt lat="39.8666570" lon="2.9348540">
        <ele>304.3</ele>
        <time>2018-12-30T10:58:57Z</time>
      </trkpt>
      <trkpt lat="39.8666600" lon="2.9348120">
        <ele>304.5</ele>
        <time>2018-12-30T10:58:58Z</time>
      </trkpt>
      <trkpt lat="39.8666620" lon="2.9347700">
        <ele>304.8</ele>
        <time>2018-12-30T10:58:59Z</time>
      </trkpt>
      <trkpt lat="39.8666640" lon="2.9347280">
        <ele>305.1</ele>
        <time>2018-12-30T10:59:00Z</time>
      </trkpt>
      <trkpt lat="39.8666680" lon="2.9346870">
        <ele>305.4</ele>
        <time>2018-12-30T10:59:01Z</time>
      </trkpt>
      <trkpt lat="39.8666710" lon="2.9346450">
        <ele>305.6</ele>
        <time>2018-12-30T10:59:02Z</time>
      </trkpt>
      <trkpt lat="39.8666750" lon="2.9346030">
        <ele>305.9</ele>
        <time>2018-12-30T10:59:03Z</time>
      </trkpt>
      <trkpt lat="39.8666780" lon="2.9345610">
        <ele>306.2</ele>
        <time>2018-12-30T10:59:04Z</time>
      </trkpt>
      <trkpt lat="39.8666810" lon="2.9345190">
        <ele>306.4</ele>
        <time>2018-12-30T10:59:05Z</time>
      </trkpt>
      <trkpt lat="39.8666840" lon="2.9344770">
        <ele>306.7</ele>
        <time>2018-12-30T10:59:06Z</time>
      </trkpt>
      <trkpt lat="39.8666860" lon="2.9344350">
        <ele>306.9</ele>
        <time>2018-12-30T10:59:07Z</time>
      </trkpt>
      <trkpt lat="39.8666890" lon="2.9343940">
        <ele>307.2</ele>
        <time>2018-12-30T10:59:08Z</time>
      </trkpt>
      <trkpt lat="39.8666910" lon="2.9343530">
        <ele>307.4</ele>
        <time>2018-12-30T10:59:09Z</time>
      </trkpt>
      <trkpt lat="39.8666940" lon="2.9343140">
        <ele>307.7</ele>
        <time>2018-12-30T10:59:10Z</time>
      </trkpt>
      <trkpt lat="39.8666960" lon="2.9342740">
        <ele>307.9</ele>
        <time>2018-12-30T10:59:11Z</time>
      </trkpt>
      <trkpt lat="39.8666990" lon="2.9342350">
        <ele>308.1</ele>
        <time>2018-12-30T10:59:12Z</time>
      </trkpt>
      <trkpt lat="39.8667030" lon="2.9341940">
        <ele>308.4</ele>
        <time>2018-12-30T10:59:13Z</time>
      </trkpt>
      <trkpt lat="39.8667070" lon="2.9341530">
        <ele>308.6</ele>
        <time>2018-12-30T10:59:14Z</time>
      </trkpt>
      <trkpt lat="39.8667110" lon="2.9341120">
        <ele>308.8</ele>
        <time>2018-12-30T10:59:15Z</time>
      </trkpt>
      <trkpt lat="39.8667130" lon="2.9340720">
        <ele>309.1</ele>
        <time>2018-12-30T10:59:16Z</time>
      </trkpt>
      <trkpt lat="39.8667140" lon="2.9340310">
        <ele>309.3</ele>
        <time>2018-12-30T10:59:17Z</time>
      </trkpt>
      <trkpt lat="39.8667150" lon="2.9339890">
        <ele>309.6</ele>
        <time>2018-12-30T10:59:18Z</time>
      </trkpt>
      <trkpt lat="39.8667170" lon="2.9339490">
        <ele>309.8</ele>
        <time>2018-12-30T10:59:19Z</time>
      </trkpt>
      <trkpt lat="39.8667200" lon="2.9339110">
        <ele>310.0</ele>
        <time>2018-12-30T10:59:20Z</time>
      </trkpt>
      <trkpt lat="39.8667240" lon="2.9338740">
        <ele>310.3</ele>
        <time>2018-12-30T10:59:21Z</time>
      </trkpt>
      <trkpt lat="39.8667290" lon="2.9338400">
        <ele>310.5</ele>
        <time>2018-12-30T10:59:22Z</time>
      </trkpt>
      <trkpt lat="39.8667350" lon="2.9338060">
        <ele>310.7</ele>
        <time>2018-12-30T10:59:23Z</time>
      </trkpt>
      <trkpt lat="39.8667410" lon="2.9337700">
        <ele>310.9</ele>
        <time>2018-12-30T10:59:24Z</time>
      </trkpt>
      <trkpt lat="39.8667500" lon="2.9337340">
        <ele>311.1</ele>
        <time>2018-12-30T10:59:25Z</time>
      </trkpt>
      <trkpt lat="39.8667600" lon="2.9336960">
        <ele>311.4</ele>
        <time>2018-12-30T10:59:26Z</time>
      </trkpt>
      <trkpt lat="39.8667720" lon="2.9336580">
        <ele>311.6</ele>
        <time>2018-12-30T10:59:27Z</time>
      </trkpt>
      <trkpt lat="39.8667860" lon="2.9336220">
        <ele>311.9</ele>
        <time>2018-12-30T10:59:28Z</time>
      </trkpt>
      <trkpt lat="39.8668000" lon="2.9335860">
        <ele>312.1</ele>
        <time>2018-12-30T10:59:29Z</time>
      </trkpt>
      <trkpt lat="39.8668150" lon="2.9335510">
        <ele>312.3</ele>
        <time>2018-12-30T10:59:30Z</time>
      </trkpt>
      <trkpt lat="39.8668320" lon="2.9335170">
        <ele>312.5</ele>
        <time>2018-12-30T10:59:31Z</time>
      </trkpt>
      <trkpt lat="39.8668500" lon="2.9334840">
        <ele>312.8</ele>
        <time>2018-12-30T10:59:32Z</time>
      </trkpt>
      <trkpt lat="39.8668700" lon="2.9334520">
        <ele>313.0</ele>
        <time>2018-12-30T10:59:33Z</time>
      </trkpt>
      <trkpt lat="39.8668890" lon="2.9334200">
        <ele>313.2</ele>
        <time>2018-12-30T10:59:34Z</time>
      </trkpt>
      <trkpt lat="39.8669090" lon="2.9333900">
        <ele>313.5</ele>
        <time>2018-12-30T10:59:35Z</time>
      </trkpt>
      <trkpt lat="39.8669300" lon="2.9333600">
        <ele>313.7</ele>
        <time>2018-12-30T10:59:36Z</time>
      </trkpt>
      <trkpt lat="39.8669520" lon="2.9333320">
        <ele>314.0</ele>
        <time>2018-12-30T10:59:37Z</time>
      </trkpt>
      <trkpt lat="39.8669740" lon="2.9333050">
        <ele>314.2</ele>
        <time>2018-12-30T10:59:38Z</time>
      </trkpt>
      <trkpt lat="39.8669960" lon="2.9332770">
        <ele>314.5</ele>
        <time>2018-12-30T10:59:39Z</time>
      </trkpt>
      <trkpt lat="39.8670180" lon="2.9332500">
        <ele>314.7</ele>
        <time>2018-12-30T10:59:40Z</time>
      </trkpt>
      <trkpt lat="39.8670410" lon="2.9332230">
        <ele>315.0</ele>
        <time>2018-12-30T10:59:41Z</time>
      </trkpt>
      <trkpt lat="39.8670630" lon="2.9331950">
        <ele>315.2</ele>
        <time>2018-12-30T10:59:42Z</time>
      </trkpt>
      <trkpt lat="39.8670850" lon="2.9331650">
        <ele>315.5</ele>
        <time>2018-12-30T10:59:43Z</time>
      </trkpt>
      <trkpt lat="39.8671070" lon="2.9331350">
        <ele>315.7</ele>
        <time>2018-12-30T10:59:44Z</time>
      </trkpt>
      <trkpt lat="39.8671270" lon="2.9331090">
        <ele>316.0</ele>
        <time>2018-12-30T10:59:45Z</time>
      </trkpt>
      <trkpt lat="39.8671450" lon="2.9330870">
        <ele>316.2</ele>
        <time>2018-12-30T10:59:46Z</time>
      </trkpt>
      <trkpt lat="39.8671600" lon="2.9330670">
        <ele>316.3</ele>
        <time>2018-12-30T10:59:47Z</time>
      </trkpt>
      <trkpt lat="39.8671720" lon="2.9330480">
        <ele>316.5</ele>
        <time>2018-12-30T10:59:48Z</time>
      </trkpt>
      <trkpt lat="39.8671840" lon="2.9330270">
        <ele>316.6</ele>
        <time>2018-12-30T10:59:49Z</time>
      </trkpt>
      <trkpt lat="39.8671990" lon="2.9330080">
        <ele>316.8</ele>
        <time>2018-12-30T10:59:50Z</time>
      </trkpt>
      <trkpt lat="39.8672160" lon="2.9329880">
        <ele>316.9</ele>
        <time>2018-12-30T10:59:51Z</time>
      </trkpt>
      <trkpt lat="39.8672350" lon="2.9329660">
        <ele>317.1</ele>
        <time>2018-12-30T10:59:52Z</time>
      </trkpt>
      <trkpt lat="39.8672510" lon="2.9329390">
        <ele>317.3</ele>
        <time>2018-12-30T10:59:53Z</time>
      </trkpt>
      <trkpt lat="39.8672670" lon="2.9329090">
        <ele>317.4</ele>
        <time>2018-12-30T10:59:54Z</time>
      </trkpt>
      <trkpt lat="39.8672810" lon="2.9328760">
        <ele>317.6</ele>
        <time>2018-12-30T10:59:55Z</time>
      </trkpt>
      <trkpt lat="39.8672950" lon="2.9328420">
        <ele>317.8</ele>
        <time>2018-12-30T10:59:56Z</time>
      </trkpt>
      <trkpt lat="39.8673060" lon="2.9328060">
        <ele>318.0</ele>
        <time>2018-12-30T10:59:57Z</time>
      </trkpt>
      <trkpt lat="39.8673160" lon="2.9327700">
        <ele>318.2</ele>
        <time>2018-12-30T10:59:58Z</time>
      </trkpt>
      <trkpt lat="39.8673240" lon="2.9327350">
        <ele>318.4</ele>
        <time>2018-12-30T10:59:59Z</time>
      </trkpt>
      <trkpt lat="39.8673310" lon="2.9327020">
        <ele>318.5</ele>
        <time>2018-12-30T11:00:00Z</time>
      </trkpt>
      <trkpt lat="39.8673380" lon="2.9326720">
        <ele>318.7</ele>
        <time>2018-12-30T11:00:01Z</time>
      </trkpt>
      <trkpt lat="39.8673400" lon="2.9326390">
        <ele>318.8</ele>
        <time>2018-12-30T11:00:02Z</time>
      </trkpt>
      <trkpt lat="39.8673350" lon="2.9325980">
        <ele>319.1</ele>
        <time>2018-12-30T11:00:03Z</time>
      </trkpt>
      <trkpt lat="39.8673240" lon="2.9325530">
        <ele>319.3</ele>
        <time>2018-12-30T11:00:04Z</time>
      </trkpt>
      <trkpt lat="39.8673120" lon="2.9325100">
        <ele>319.5</ele>
        <time>2018-12-30T11:00:05Z</time>
      </trkpt>
      <trkpt lat="39.8673030" lon="2.9324740">
        <ele>319.8</ele>
        <time>2018-12-30T11:00:06Z</time>
      </trkpt>
      <trkpt lat="39.8672960" lon="2.9324390">
        <ele>320.0</ele>
        <time>2018-12-30T11:00:07Z</time>
      </trkpt>
      <trkpt lat="39.8672870" lon="2.9324050">
        <ele>320.2</ele>
        <time>2018-12-30T11:00:08Z</time>
      </trkpt>
      <trkpt lat="39.8672780" lon="2.9323690">
        <ele>320.4</ele>
        <time>2018-12-30T11:00:09Z</time>
      </trkpt>
      <trkpt lat="39.8672680" lon="2.9323340">
        <ele>320.6</ele>
        <time>2018-12-30T11:00:10Z</time>
      </trkpt>
      <trkpt lat="39.8672580" lon="2.9322990">
        <ele>320.8</ele>
        <time>2018-12-30T11:00:11Z</time>
      </trkpt>
      <trkpt lat="39.8672480" lon="2.9322670">
        <ele>321.0</ele>
        <time>2018-12-30T11:00:12Z</time>
      </trkpt>
      <trkpt lat="39.8672360" lon="2.9322350">
        <ele>321.1</ele>
        <time>2018-12-30T11:00:13Z</time>
      </trkpt>
      <trkpt lat="39.8672220" lon="2.9322020">
        <ele>321.3</ele>
        <time>2018-12-30T11:00:14Z</time>
      </trkpt>
      <trkpt lat="39.8672080" lon="2.9321670">
        <ele>321.5</ele>
        <time>2018-12-30T11:00:15Z</time>
      </trkpt>
      <trkpt lat="39.8671930" lon="2.9321300">
        <ele>321.7</ele>
        <time>2018-12-30T11:00:16Z</time>
      </trkpt>
      <trkpt lat="39.8671780" lon="2.9320930">
        <ele>321.9</ele>
        <time>2018-12-30T11:00:17Z</time>
      </trkpt>
      <trkpt lat="39.8671620" lon="2.9320530">
        <ele>322.2</ele>
        <time>2018-12-30T11:00:18Z</time>
      </trkpt>
      <trkpt lat="39.8671460" lon="2.9320100">
        <ele>322.4</ele>
        <time>2018-12-30T11:00:19Z</time>
      </trkpt>
      <trkpt lat="39.8671300" lon="2.9319660">
        <ele>322.7</ele>
        <time>2018-12-30T11:00:20Z</time>
      </trkpt>
      <trkpt lat="39.8671160" lon="2.9319210">
        <ele>322.9</ele>
        <time>2018-12-30T11:00:21Z</time>
      </trkpt>
      <trkpt lat="39.8671010" lon="2.9318780">
        <ele>323.2</ele>
        <time>2018-12-30T11:00:22Z</time>
      </trkpt>
      <trkpt lat="39.8670860" lon="2.9318360">
        <ele>323.4</ele>
        <time>2018-12-30T11:00:23Z</time>
      </trkpt>
      <trkpt lat="39.8670710" lon="2.9317950">
        <ele>323.6</ele>
        <time>2018-12-30T11:00:24Z</time>
      </trkpt>
      <trkpt lat="39.8670570" lon="2.9317570">
        <ele>323.9</ele>
        <time>2018-12-30T11:00:25Z</time>
      </trkpt>
      <trkpt lat="39.8670430" lon="2.9317170">
        <ele>324.1</ele>
        <time>2018-12-30T11:00:26Z</time>
      </trkpt>
      <trkpt lat="39.8670300" lon="2.9316740">
        <ele>324.3</ele>
        <time>2018-12-30T11:00:27Z</time>
      </trkpt>
      <trkpt lat="39.8670160" lon="2.9316310">
        <ele>324.6</ele>
        <time>2018-12-30T11:00:28Z</time>
      </trkpt>
      <trkpt lat="39.8670030" lon="2.9315900">
        <ele>324.8</ele>
        <time>2018-12-30T11:00:29Z</time>
      </trkpt>
      <trkpt lat="39.8669900" lon="2.9315500">
        <ele>325.0</ele>
        <time>2018-12-30T11:00:30Z</time>
      </trkpt>
      <trkpt lat="39.8669780" lon="2.9315110">
        <ele>325.3</ele>
        <time>2018-12-30T11:00:31Z</time>
      </trkpt>
      <trkpt lat="39.8669650" lon="2.9314750">
        <ele>325.6</ele>
        <time>2018-12-30T11:00:32Z</time>
      </trkpt>
      <trkpt lat="39.8669500" lon="2.9314410">
        <ele>325.9</ele>
        <time>2018-12-30T11:00:33Z</time>
      </trkpt>
      <trkpt lat="39.8669320" lon="2.9314090">
        <ele>326.1</ele>
        <time>2018-12-30T11:00:34Z</time>
      </trkpt>
      <trkpt lat="39.8669100" lon="2.9313820">
        <ele>326.3</ele>
        <time>2018-12-30T11:00:35Z</time>
      </trkpt>
      <trkpt lat="39.8668870" lon="2.9313590">
        <ele>326.6</ele>
        <time>2018-12-30T11:00:36Z</time>
      </trkpt>
      <trkpt lat="39.8668630" lon="2.9313400">
        <ele>326.8</ele>
        <time>2018-12-30T11:00:37Z</time>
      </trkpt>
      <trkpt lat="39.8668400" lon="2.9313210">
        <ele>327.0</ele>
        <time>2018-12-30T11:00:38Z</time>
      </trkpt>
      <trkpt lat="39.8668160" lon="2.9313060">
        <ele>327.1</ele>
        <time>2018-12-30T11:00:39Z</time>
      </trkpt>
      <trkpt lat="39.8667910" lon="2.9312910">
        <ele>327.3</ele>
        <time>2018-12-30T11:00:40Z</time>
      </trkpt>
      <trkpt lat="39.8667640" lon="2.9312790">
        <ele>327.4</ele>
        <time>2018-12-30T11:00:41Z</time>
      </trkpt>
      <trkpt lat="39.8667380" lon="2.9312650">
        <ele>327.6</ele>
        <time>2018-12-30T11:00:42Z</time>
      </trkpt>
      <trkpt lat="39.8667100" lon="2.9312540">
        <ele>327.8</ele>
        <time>2018-12-30T11:00:43Z</time>
      </trkpt>
      <trkpt lat="39.8666800" lon="2.9312440">
        <ele>327.9</ele>
        <time>2018-12-30T11:00:44Z</time>
      </trkpt>
      <trkpt lat="39.8666480" lon="2.9312360">
        <ele>328.1</ele>
        <time>2018-12-30T11:00:45Z</time>
      </trkpt>
      <trkpt lat="39.8666160" lon="2.9312270">
        <ele>328.3</ele>
        <time>2018-12-30T11:00:46Z</time>
      </trkpt>
      <trkpt lat="39.8665840" lon="2.9312160">
        <ele>328.6</ele>
        <time>2018-12-30T11:00:47Z</time>
      </trkpt>
      <trkpt lat="39.8665520" lon="2.9312040">
        <ele>328.9</ele>
        <time>2018-12-30T11:00:48Z</time>
      </trkpt>
      <trkpt lat="39.8665180" lon="2.9311930">
        <ele>329.2</ele>
        <time>2018-12-30T11:00:49Z</time>
      </trkpt>
      <trkpt lat="39.8664850" lon="2.9311820">
        <ele>329.5</ele>
        <time>2018-12-30T11:00:50Z</time>
      </trkpt>
      <trkpt lat="39.8664530" lon="2.9311720">
        <ele>329.8</ele>
        <time>2018-12-30T11:00:51Z</time>
      </trkpt>
      <trkpt lat="39.8664210" lon="2.9311610">
        <ele>330.1</ele>
        <time>2018-12-30T11:00:52Z</time>
      </trkpt>
      <trkpt lat="39.8663890" lon="2.9311500">
        <ele>330.4</ele>
        <time>2018-12-30T11:00:53Z</time>
      </trkpt>
      <trkpt lat="39.8663580" lon="2.9311390">
        <ele>330.6</ele>
        <time>2018-12-30T11:00:54Z</time>
      </trkpt>
      <trkpt lat="39.8663260" lon="2.9311280">
        <ele>330.9</ele>
        <time>2018-12-30T11:00:55Z</time>
      </trkpt>
      <trkpt lat="39.8662940" lon="2.9311170">
        <ele>331.1</ele>
        <time>2018-12-30T11:00:56Z</time>
      </trkpt>
      <trkpt lat="39.8662620" lon="2.9311070">
        <ele>331.4</ele>
        <time>2018-12-30T11:00:57Z</time>
      </trkpt>
      <trkpt lat="39.8662310" lon="2.9310960">
        <ele>331.6</ele>
        <time>2018-12-30T11:00:58Z</time>
      </trkpt>
      <trkpt lat="39.8661990" lon="2.9310840">
        <ele>331.9</ele>
        <time>2018-12-30T11:00:59Z</time>
      </trkpt>
      <trkpt lat="39.8661690" lon="2.9310700">
        <ele>332.3</ele>
        <time>2018-12-30T11:01:00Z</time>
      </trkpt>
      <trkpt lat="39.8661400" lon="2.9310560">
        <ele>332.7</ele>
        <time>2018-12-30T11:01:01Z</time>
      </trkpt>
      <trkpt lat="39.8661130" lon="2.9310390">
        <ele>333.0</ele>
        <time>2018-12-30T11:01:02Z</time>
      </trkpt>
      <trkpt lat="39.8660870" lon="2.9310210">
        <ele>333.3</ele>
        <time>2018-12-30T11:01:03Z</time>
      </trkpt>
      <trkpt lat="39.8660630" lon="2.9309970">
        <ele>333.7</ele>
        <time>2018-12-30T11:01:04Z</time>
      </trkpt>
      <trkpt lat="39.8660410" lon="2.9309670">
        <ele>334.0</ele>
        <time>2018-12-30T11:01:05Z</time>
      </trkpt>
      <trkpt lat="39.8660240" lon="2.9309300">
        <ele>334.4</ele>
        <time>2018-12-30T11:01:06Z</time>
      </trkpt>
      <trkpt lat="39.8660120" lon="2.9308900">
        <ele>334.7</ele>
        <time>2018-12-30T11:01:07Z</time>
      </trkpt>
      <trkpt lat="39.8660010" lon="2.9308530">
        <ele>335.0</ele>
        <time>2018-12-30T11:01:08Z</time>
      </trkpt>
      <trkpt lat="39.8659910" lon="2.9308220">
        <ele>335.2</ele>
        <time>2018-12-30T11:01:09Z</time>
      </trkpt>
      <trkpt lat="39.8659840" lon="2.9307940">
        <ele>335.3</ele>
        <time>2018-12-30T11:01:10Z</time>
      </trkpt>
      <trkpt lat="39.8659820" lon="2.9307650">
        <ele>335.5</ele>
        <time>2018-12-30T11:01:11Z</time>
      </trkpt>
      <trkpt lat="39.8659840" lon="2.9307350">
        <ele>335.6</ele>
        <time>2018-12-30T11:01:12Z</time>
      </trkpt>
      <trkpt lat="39.8659910" lon="2.9307040">
        <ele>335.7</ele>
        <time>2018-12-30T11:01:13Z</time>
      </trkpt>
      <trkpt lat="39.8660020" lon="2.9306690">
        <ele>335.9</ele>
        <time>2018-12-30T11:01:14Z</time>
      </trkpt>
      <trkpt lat="39.8660170" lon="2.9306290">
        <ele>336.0</ele>
        <time>2018-12-30T11:01:15Z</time>
      </trkpt>
      <trkpt lat="39.8660310" lon="2.9305900">
        <ele>336.2</ele>
        <time>2018-12-30T11:01:16Z</time>
      </trkpt>
      <trkpt lat="39.8660440" lon="2.9305540">
        <ele>336.4</ele>
        <time>2018-12-30T11:01:17Z</time>
      </trkpt>
      <trkpt lat="39.8660560" lon="2.9305160">
        <ele>336.6</ele>
        <time>2018-12-30T11:01:18Z</time>
      </trkpt>
      <trkpt lat="39.8660690" lon="2.9304770">
        <ele>336.8</ele>
        <time>2018-12-30T11:01:19Z</time>
      </trkpt>
      <trkpt lat="39.8660820" lon="2.9304340">
        <ele>337.1</ele>
        <time>2018-12-30T11:01:20Z</time>
      </trkpt>
      <trkpt lat="39.8660960" lon="2.9303920">
        <ele>337.3</ele>
        <time>2018-12-30T11:01:21Z</time>
      </trkpt>
      <trkpt lat="39.8661080" lon="2.9303450">
        <ele>337.6</ele>
        <time>2018-12-30T11:01:22Z</time>
      </trkpt>
      <trkpt lat="39.8661180" lon="2.9302980">
        <ele>337.9</ele>
        <time>2018-12-30T11:01:23Z</time>
      </trkpt>
      <trkpt lat="39.8661280" lon="2.9302490">
        <ele>338.2</ele>
        <time>2018-12-30T11:01:24Z</time>
      </trkpt>
      <trkpt lat="39.8661370" lon="2.9302030">
        <ele>338.5</ele>
        <time>2018-12-30T11:01:25Z</time>
      </trkpt>
      <trkpt lat="39.8661460" lon="2.9301590">
        <ele>338.7</ele>
        <time>2018-12-30T11:01:26Z</time>
      </trkpt>
      <trkpt lat="39.8661540" lon="2.9301190">
        <ele>339.0</ele>
        <time>2018-12-30T11:01:27Z</time>
      </trkpt>
      <trkpt lat="39.8661600" lon="2.9300800">
        <ele>339.2</ele>
        <time>2018-12-30T11:01:28Z</time>
      </trkpt>
      <trkpt lat="39.8661670" lon="2.9300430">
        <ele>339.4</ele>
        <time>2018-12-30T11:01:29Z</time>
      </trkpt>
      <trkpt lat="39.8661750" lon="2.9300050">
        <ele>339.6</ele>
        <time>2018-12-30T11:01:30Z</time>
      </trkpt>
      <trkpt lat="39.8661840" lon="2.9299670">
        <ele>339.8</ele>
        <time>2018-12-30T11:01:31Z</time>
      </trkpt>
      <trkpt lat="39.8661950" lon="2.9299280">
        <ele>340.0</ele>
        <time>2018-12-30T11:01:32Z</time>
      </trkpt>
      <trkpt lat="39.8662080" lon="2.9298880">
        <ele>340.2</ele>
        <time>2018-12-30T11:01:33Z</time>
      </trkpt>
      <trkpt lat="39.8662210" lon="2.9298490">
        <ele>340.4</ele>
        <time>2018-12-30T11:01:34Z</time>
      </trkpt>
      <trkpt lat="39.8662370" lon="2.9298130">
        <ele>340.6</ele>
        <time>2018-12-30T11:01:35Z</time>
      </trkpt>
      <trkpt lat="39.8662540" lon="2.9297770">
        <ele>340.8</ele>
        <time>2018-12-30T11:01:36Z</time>
      </trkpt>
      <trkpt lat="39.8662720" lon="2.9297410">
        <ele>341.0</ele>
        <time>2018-12-30T11:01:37Z</time>
      </trkpt>
      <trkpt lat="39.8662900" lon="2.9297050">
        <ele>341.1</ele>
        <time>2018-12-30T11:01:38Z</time>
      </trkpt>
      <trkpt lat="39.8663100" lon="2.9296700">
        <ele>341.3</ele>
        <time>2018-12-30T11:01:39Z</time>
      </trkpt>
      <trkpt lat="39.8663370" lon="2.9296370">
        <ele>341.4</ele>
        <time>2018-12-30T11:01:40Z</time>
      </trkpt>
      <trkpt lat="39.8663670" lon="2.9296050">
        <ele>341.6</ele>
        <time>2018-12-30T11:01:41Z</time>
      </trkpt>
      <trkpt lat="39.8664010" lon="2.9295730">
        <ele>341.8</ele>
        <time>2018-12-30T11:01:42Z</time>
      </trkpt>
      <trkpt lat="39.8664330" lon="2.9295390">
        <ele>341.9</ele>
        <time>2018-12-30T11:01:43Z</time>
      </trkpt>
      <trkpt lat="39.8664640" lon="2.9295030">
        <ele>342.1</ele>
        <time>2018-12-30T11:01:44Z</time>
      </trkpt>
      <trkpt lat="39.8664930" lon="2.9294660">
        <ele>342.2</ele>
        <time>2018-12-30T11:01:45Z</time>
      </trkpt>
      <trkpt lat="39.8665210" lon="2.9294270">
        <ele>342.4</ele>
        <time>2018-12-30T11:01:46Z</time>
      </trkpt>
      <trkpt lat="39.8665490" lon="2.9293870">
        <ele>342.5</ele>
        <time>2018-12-30T11:01:47Z</time>
      </trkpt>
      <trkpt lat="39.8665750" lon="2.9293470">
        <ele>342.7</ele>
        <time>2018-12-30T11:01:48Z</time>
      </trkpt>
      <trkpt lat="39.8666000" lon="2.9293040">
        <ele>342.9</ele>
        <time>2018-12-30T11:01:49Z</time>
      </trkpt>
      <trkpt lat="39.8666240" lon="2.9292570">
        <ele>342.8</ele>
        <time>2018-12-30T11:01:50Z</time>
      </trkpt>
      <trkpt lat="39.8666460" lon="2.9292070">
        <ele>342.8</ele>
        <time>2018-12-30T11:01:51Z</time>
      </trkpt>
      <trkpt lat="39.8666680" lon="2.9291560">
        <ele>342.7</ele>
        <time>2018-12-30T11:01:52Z</time>
      </trkpt>
      <trkpt lat="39.8666890" lon="2.9291050">
        <ele>342.7</ele>
        <time>2018-12-30T11:01:53Z</time>
      </trkpt>
      <trkpt lat="39.8667100" lon="2.9290540">
        <ele>342.6</ele>
        <time>2018-12-30T11:01:54Z</time>
      </trkpt>
      <trkpt lat="39.8667310" lon="2.9290030">
        <ele>342.5</ele>
        <time>2018-12-30T11:01:55Z</time>
      </trkpt>
      <trkpt lat="39.8667520" lon="2.9289530">
        <ele>342.5</ele>
        <time>2018-12-30T11:01:56Z</time>
      </trkpt>
      <trkpt lat="39.8667720" lon="2.9289030">
        <ele>342.4</ele>
        <time>2018-12-30T11:01:57Z</time>
      </trkpt>
      <trkpt lat="39.8667930" lon="2.9288550">
        <ele>342.4</ele>
        <time>2018-12-30T11:01:58Z</time>
      </trkpt>
      <trkpt lat="39.8668140" lon="2.9288080">
        <ele>342.3</ele>
        <time>2018-12-30T11:01:59Z</time>
      </trkpt>
      <trkpt lat="39.8668350" lon="2.9287610">
        <ele>342.3</ele>
        <time>2018-12-30T11:02:00Z</time>
      </trkpt>
      <trkpt lat="39.8668560" lon="2.9287120">
        <ele>342.2</ele>
        <time>2018-12-30T11:02:01Z</time>
      </trkpt>
      <trkpt lat="39.8668760" lon="2.9286620">
        <ele>342.2</ele>
        <time>2018-12-30T11:02:02Z</time>
      </trkpt>
      <trkpt lat="39.8668960" lon="2.9286120">
        <ele>342.2</ele>
        <time>2018-12-30T11:02:03Z</time>
      </trkpt>
      <trkpt lat="39.8669150" lon="2.9285620">
        <ele>342.2</ele>
        <time>2018-12-30T11:02:04Z</time>
      </trkpt>
      <trkpt lat="39.8669330" lon="2.9285110">
        <ele>342.2</ele>
        <time>2018-12-30T11:02:05Z</time>
      </trkpt>
      <trkpt lat="39.8669510" lon="2.9284600">
        <ele>342.2</ele>
        <time>2018-12-30T11:02:06Z</time>
      </trkpt>
      <trkpt lat="39.8669700" lon="2.9284090">
        <ele>342.1</ele>
        <time>2018-12-30T11:02:07Z</time>
      </trkpt>
      <trkpt lat="39.8669910" lon="2.9283580">
        <ele>342.1</ele>
        <time>2018-12-30T11:02:08Z</time>
      </trkpt>
      <trkpt lat="39.8670120" lon="2.9283080">
        <ele>342.1</ele>
        <time>2018-12-30T11:02:09Z</time>
      </trkpt>
      <trkpt lat="39.8670320" lon="2.9282590">
        <ele>342.1</ele>
        <time>2018-12-30T11:02:10Z</time>
      </trkpt>
      <trkpt lat="39.8670520" lon="2.9282090">
        <ele>342.4</ele>
        <time>2018-12-30T11:02:11Z</time>
      </trkpt>
      <trkpt lat="39.8670710" lon="2.9281600">
        <ele>342.8</ele>
        <time>2018-12-30T11:02:12Z</time>
      </trkpt>
      <trkpt lat="39.8670910" lon="2.9281130">
        <ele>343.1</ele>
        <time>2018-12-30T11:02:13Z</time>
      </trkpt>
      <trkpt lat="39.8671090" lon="2.9280650">
        <ele>343.5</ele>
        <time>2018-12-30T11:02:14Z</time>
      </trkpt>
      <trkpt lat="39.8671280" lon="2.9280190">
        <ele>343.8</ele>
        <time>2018-12-30T11:02:15Z</time>
      </trkpt>
      <trkpt lat="39.8671450" lon="2.9279720">
        <ele>344.2</ele>
        <time>2018-12-30T11:02:16Z</time>
      </trkpt>
      <trkpt lat="39.8671640" lon="2.9279280">
        <ele>344.5</ele>
        <time>2018-12-30T11:02:17Z</time>
      </trkpt>
      <trkpt lat="39.8671830" lon="2.9278850">
        <ele>344.9</ele>
        <time>2018-12-30T11:02:18Z</time>
      </trkpt>
      <trkpt lat="39.8672020" lon="2.9278440">
        <ele>345.2</ele>
        <time>2018-12-30T11:02:19Z</time>
      </trkpt>
      <trkpt lat="39.8672210" lon="2.9278020">
        <ele>345.5</ele>
        <time>2018-12-30T11:02:20Z</time>
      </trkpt>
      <trkpt lat="39.8672420" lon="2.9277620">
        <ele>345.8</ele>
        <time>2018-12-30T11:02:21Z</time>
      </trkpt>
      <trkpt lat="39.8672640" lon="2.9277240">
        <ele>346.2</ele>
        <time>2018-12-30T11:02:22Z</time>
      </trkpt>
      <trkpt lat="39.8672980" lon="2.9276980">
        <ele>346.6</ele>
        <time>2018-12-30T11:02:23Z</time>
      </trkpt>
      <trkpt lat="39.8673410" lon="2.9276840">
        <ele>346.9</ele>
        <time>2018-12-30T11:02:24Z</time>
      </trkpt>
      <trkpt lat="39.8673900" lon="2.9276800">
        <ele>347.3</ele>
        <time>2018-12-30T11:02:25Z</time>
      </trkpt>
      <trkpt lat="39.8674310" lon="2.9276820">
        <ele>347.7</ele>
        <time>2018-12-30T11:02:26Z</time>
      </trkpt>
      <trkpt lat="39.8674660" lon="2.9276880">
        <ele>348.0</ele>
        <time>2018-12-30T11:02:27Z</time>
      </trkpt>
      <trkpt lat="39.8674980" lon="2.9277030">
        <ele>348.3</ele>
        <time>2018-12-30T11:02:28Z</time>
      </trkpt>
      <trkpt lat="39.8675320" lon="2.9277210">
        <ele>348.6</ele>
        <time>2018-12-30T11:02:29Z</time>
      </trkpt>
      <trkpt lat="39.8675630" lon="2.9277430">
        <ele>349.0</ele>
        <time>2018-12-30T11:02:30Z</time>
      </trkpt>
      <trkpt lat="39.8675920" lon="2.9277740">
        <ele>349.3</ele>
        <time>2018-12-30T11:02:31Z</time>
      </trkpt>
      <trkpt lat="39.8676150" lon="2.9278090">
        <ele>349.7</ele>
        <time>2018-12-30T11:02:32Z</time>
      </trkpt>
      <trkpt lat="39.8676350" lon="2.9278470">
        <ele>350.0</ele>
        <time>2018-12-30T11:02:33Z</time>
      </trkpt>
      <trkpt lat="39.8676540" lon="2.9278810">
        <ele>350.3</ele>
        <time>2018-12-30T11:02:34Z</time>
      </trkpt>
      <trkpt lat="39.8676730" lon="2.9279150">
        <ele>350.6</ele>
        <time>2018-12-30T11:02:35Z</time>
      </trkpt>
      <trkpt lat="39.8676880" lon="2.9279530">
        <ele>350.9</ele>
        <time>2018-12-30T11:02:36Z</time>
      </trkpt>
      <trkpt lat="39.8677020" lon="2.9279920">
        <ele>351.1</ele>
        <time>2018-12-30T11:02:37Z</time>
      </trkpt>
      <trkpt lat="39.8677140" lon="2.9280320">
        <ele>351.4</ele>
        <time>2018-12-30T11:02:38Z</time>
      </trkpt>
      <trkpt lat="39.8677260" lon="2.9280700">
        <ele>351.7</ele>
        <time>2018-12-30T11:02:39Z</time>
      </trkpt>
      <trkpt lat="39.8677390" lon="2.9281080">
        <ele>351.9</ele>
        <time>2018-12-30T11:02:40Z</time>
      </trkpt>
      <trkpt lat="39.8677500" lon="2.9281460">
        <ele>352.2</ele>
        <time>2018-12-30T11:02:41Z</time>
      </trkpt>
      <trkpt lat="39.8677610" lon="2.9281840">
        <ele>352.4</ele>
        <time>2018-12-30T11:02:42Z</time>
      </trkpt>
      <trkpt lat="39.8677710" lon="2.9282220">
        <ele>352.7</ele>
        <time>2018-12-30T11:02:43Z</time>
      </trkpt>
      <trkpt lat="39.8677810" lon="2.9282600">
        <ele>352.9</ele>
        <time>2018-12-30T11:02:44Z</time>
      </trkpt>
      <trkpt lat="39.8677910" lon="2.9282970">
        <ele>353.2</ele>
        <time>2018-12-30T11:02:45Z</time>
      </trkpt>
      <trkpt lat="39.8678030" lon="2.9283340">
        <ele>353.4</ele>
        <time>2018-12-30T11:02:46Z</time>
      </trkpt>
      <trkpt lat="39.8678130" lon="2.9283710">
        <ele>353.7</ele>
        <time>2018-12-30T11:02:47Z</time>
      </trkpt>
      <trkpt lat="39.8678250" lon="2.9284080">
        <ele>354.0</ele>
        <time>2018-12-30T11:02:48Z</time>
      </trkpt>
      <trkpt lat="39.8678370" lon="2.9284450">
        <ele>354.2</ele>
        <time>2018-12-30T11:02:49Z</time>
      </trkpt>
      <trkpt lat="39.8678500" lon="2.9284820">
        <ele>354.5</ele>
        <time>2018-12-30T11:02:50Z</time>
      </trkpt>
      <trkpt lat="39.8678640" lon="2.9285190">
        <ele>354.8</ele>
        <time>2018-12-30T11:02:51Z</time>
      </trkpt>
      <trkpt lat="39.8678800" lon="2.9285550">
        <ele>355.1</ele>
        <time>2018-12-30T11:02:52Z</time>
      </trkpt>
      <trkpt lat="39.8678970" lon="2.9285900">
        <ele>355.5</ele>
        <time>2018-12-30T11:02:53Z</time>
      </trkpt>
      <trkpt lat="39.8679180" lon="2.9286220">
        <ele>355.8</ele>
        <time>2018-12-30T11:02:54Z</time>
      </trkpt>
      <trkpt lat="39.8679420" lon="2.9286530">
        <ele>356.2</ele>
        <time>2018-12-30T11:02:55Z</time>
      </trkpt>
      <trkpt lat="39.8679680" lon="2.9286800">
        <ele>356.5</ele>
        <time>2018-12-30T11:02:56Z</time>
      </trkpt>
      <trkpt lat="39.8679960" lon="2.9287030">
        <ele>356.9</ele>
        <time>2018-12-30T11:02:57Z</time>
      </trkpt>
      <trkpt lat="39.8680260" lon="2.9287220">
        <ele>357.3</ele>
        <time>2018-12-30T11:02:58Z</time>
      </trkpt>
      <trkpt lat="39.8680560" lon="2.9287350">
        <ele>357.7</ele>
        <time>2018-12-30T11:02:59Z</time>
      </trkpt>
      <trkpt lat="39.8680870" lon="2.9287440">
        <ele>358.0</ele>
        <time>2018-12-30T11:03:00Z</time>
      </trkpt>
      <trkpt lat="39.8681170" lon="2.9287500">
        <ele>358.4</ele>
        <time>2018-12-30T11:03:01Z</time>
      </trkpt>
      <trkpt lat="39.8681470" lon="2.9287530">
        <ele>358.7</ele>
        <time>2018-12-30T11:03:02Z</time>
      </trkpt>
      <trkpt lat="39.8681760" lon="2.9287520">
        <ele>359.1</ele>
        <time>2018-12-30T11:03:03Z</time>
      </trkpt>
      <trkpt lat="39.8682060" lon="2.9287420">
        <ele>359.5</ele>
        <time>2018-12-30T11:03:04Z</time>
      </trkpt>
      <trkpt lat="39.8682360" lon="2.9287250">
        <ele>360.0</ele>
        <time>2018-12-30T11:03:05Z</time>
      </trkpt>
      <trkpt lat="39.8682660" lon="2.9287050">
        <ele>360.4</ele>
        <time>2018-12-30T11:03:06Z</time>
      </trkpt>
      <trkpt lat="39.8682920" lon="2.9286860">
        <ele>360.8</ele>
        <time>2018-12-30T11:03:07Z</time>
      </trkpt>
      <trkpt lat="39.8683150" lon="2.9286620">
        <ele>361.2</ele>
        <time>2018-12-30T11:03:08Z</time>
      </trkpt>
      <trkpt lat="39.8683370" lon="2.9286340">
        <ele>361.7</ele>
        <time>2018-12-30T11:03:09Z</time>
      </trkpt>
      <trkpt lat="39.8683570" lon="2.9285990">
        <ele>362.1</ele>
        <time>2018-12-30T11:03:10Z</time>
      </trkpt>
      <trkpt lat="39.8683750" lon="2.9285600">
        <ele>362.6</ele>
        <time>2018-12-30T11:03:11Z</time>
      </trkpt>
      <trkpt lat="39.8683910" lon="2.9285180">
        <ele>363.1</ele>
        <time>2018-12-30T11:03:12Z</time>
      </trkpt>
      <trkpt lat="39.8684050" lon="2.9284770">
        <ele>363.6</ele>
        <time>2018-12-30T11:03:13Z</time>
      </trkpt>
      <trkpt lat="39.8684180" lon="2.9284370">
        <ele>364.0</ele>
        <time>2018-12-30T11:03:14Z</time>
      </trkpt>
      <trkpt lat="39.8684300" lon="2.9283970">
        <ele>364.5</ele>
        <time>2018-12-30T11:03:15Z</time>
      </trkpt>
      <trkpt lat="39.8684410" lon="2.9283560">
        <ele>364.9</ele>
        <time>2018-12-30T11:03:16Z</time>
      </trkpt>
      <trkpt lat="39.8684520" lon="2.9283150">
        <ele>365.3</ele>
        <time>2018-12-30T11:03:17Z</time>
      </trkpt>
      <trkpt lat="39.8684610" lon="2.9282730">
        <ele>365.8</ele>
        <time>2018-12-30T11:03:18Z</time>
      </trkpt>
      <trkpt lat="39.8684720" lon="2.9282310">
        <ele>366.2</ele>
        <time>2018-12-30T11:03:19Z</time>
      </trkpt>
      <trkpt lat="39.8684840" lon="2.9281900">
        <ele>366.6</ele>
        <time>2018-12-30T11:03:20Z</time>
      </trkpt>
      <trkpt lat="39.8684960" lon="2.9281490">
        <ele>367.1</ele>
        <time>2018-12-30T11:03:21Z</time>
      </trkpt>
      <trkpt lat="39.8685070" lon="2.9281070">
        <ele>367.5</ele>
        <time>2018-12-30T11:03:22Z</time>
      </trkpt>
      <trkpt lat="39.8685180" lon="2.9280640">
        <ele>368.0</ele>
        <time>2018-12-30T11:03:23Z</time>
      </trkpt>
      <trkpt lat="39.8685290" lon="2.9280220">
        <ele>368.4</ele>
        <time>2018-12-30T11:03:24Z</time>
      </trkpt>
      <trkpt lat="39.8685390" lon="2.9279800">
        <ele>368.8</ele>
        <time>2018-12-30T11:03:25Z</time>
      </trkpt>
      <trkpt lat="39.8685500" lon="2.9279380">
        <ele>369.2</ele>
        <time>2018-12-30T11:03:26Z</time>
      </trkpt>
      <trkpt lat="39.8685600" lon="2.9278960">
        <ele>369.7</ele>
        <time>2018-12-30T11:03:27Z</time>
      </trkpt>
      <trkpt lat="39.8685700" lon="2.9278530">
        <ele>370.1</ele>
        <time>2018-12-30T11:03:28Z</time>
      </trkpt>
      <trkpt lat="39.8685800" lon="2.9278110">
        <ele>370.5</ele>
        <time>2018-12-30T11:03:29Z</time>
      </trkpt>
      <trkpt lat="39.8685910" lon="2.9277690">
        <ele>370.9</ele>
        <time>2018-12-30T11:03:30Z</time>
      </trkpt>
      <trkpt lat="39.8686010" lon="2.9277270">
        <ele>371.3</ele>
        <time>2018-12-30T11:03:31Z</time>
      </trkpt>
      <trkpt lat="39.8686130" lon="2.9276860">
        <ele>371.7</ele>
        <time>2018-12-30T11:03:32Z</time>
      </trkpt>
      <trkpt lat="39.8686230" lon="2.9276440">
        <ele>372.1</ele>
        <time>2018-12-30T11:03:33Z</time>
      </trkpt>
      <trkpt lat="39.8686330" lon="2.9276030">
        <ele>372.5</ele>
        <time>2018-12-30T11:03:34Z</time>
      </trkpt>
      <trkpt lat="39.8686410" lon="2.9275610">
        <ele>372.7</ele>
        <time>2018-12-30T11:03:35Z</time>
      </trkpt>
      <trkpt lat="39.8686490" lon="2.9275200">
        <ele>372.9</ele>
        <time>2018-12-30T11:03:36Z</time>
      </trkpt>
      <trkpt lat="39.8686580" lon="2.9274790">
        <ele>373.2</ele>
        <time>2018-12-30T11:03:37Z</time>
      </trkpt>
      <trkpt lat="39.8686680" lon="2.9274380">
        <ele>373.4</ele>
        <time>2018-12-30T11:03:38Z</time>
      </trkpt>
      <trkpt lat="39.8686780" lon="2.9273980">
        <ele>373.6</ele>
        <time>2018-12-30T11:03:39Z</time>
      </trkpt>
      <trkpt lat="39.8686880" lon="2.9273590">
        <ele>373.8</ele>
        <time>2018-12-30T11:03:40Z</time>
      </trkpt>
      <trkpt lat="39.8686970" lon="2.9273190">
        <ele>373.9</ele>
        <time>2018-12-30T11:03:41Z</time>
      </trkpt>
      <trkpt lat="39.8687070" lon="2.9272790">
        <ele>374.1</ele>
        <time>2018-12-30T11:03:42Z</time>
      </trkpt>
      <trkpt lat="39.8687160" lon="2.9272390">
        <ele>374.3</ele>
        <time>2018-12-30T11:03:43Z</time>
      </trkpt>
      <trkpt lat="39.8687250" lon="2.9271990">
        <ele>374.5</ele>
        <time>2018-12-30T11:03:44Z</time>
      </trkpt>
      <trkpt lat="39.8687340" lon="2.9271590">
        <ele>374.6</ele>
        <time>2018-12-30T11:03:45Z</time>
      </trkpt>
      <trkpt lat="39.8687440" lon="2.9271190">
        <ele>374.8</ele>
        <time>2018-12-30T11:03:46Z</time>
      </trkpt>
      <trkpt lat="39.8687550" lon="2.9270790">
        <ele>375.0</ele>
        <time>2018-12-30T11:03:47Z</time>
      </trkpt>
      <trkpt lat="39.8687670" lon="2.9270390">
        <ele>375.2</ele>
        <time>2018-12-30T11:03:48Z</time>
      </trkpt>
      <trkpt lat="39.8687800" lon="2.9270000">
        <ele>375.4</ele>
        <time>2018-12-30T11:03:49Z</time>
      </trkpt>
      <trkpt lat="39.8687930" lon="2.9269620">
        <ele>375.5</ele>
        <time>2018-12-30T11:03:50Z</time>
      </trkpt>
      <trkpt lat="39.8688070" lon="2.9269240">
        <ele>375.7</ele>
        <time>2018-12-30T11:03:51Z</time>
      </trkpt>
      <trkpt lat="39.8688200" lon="2.9268860">
        <ele>375.9</ele>
        <time>2018-12-30T11:03:52Z</time>
      </trkpt>
      <trkpt lat="39.8688350" lon="2.9268490">
        <ele>376.1</ele>
        <time>2018-12-30T11:03:53Z</time>
      </trkpt>
      <trkpt lat="39.8688510" lon="2.9268130">
        <ele>376.3</ele>
        <time>2018-12-30T11:03:54Z</time>
      </trkpt>
      <trkpt lat="39.8688690" lon="2.9267780">
        <ele>376.5</ele>
        <time>2018-12-30T11:03:55Z</time>
      </trkpt>
      <trkpt lat="39.8688880" lon="2.9267450">
        <ele>376.7</ele>
        <time>2018-12-30T11:03:56Z</time>
      </trkpt>
      <trkpt lat="39.8689090" lon="2.9267130">
        <ele>376.9</ele>
        <time>2018-12-30T11:03:57Z</time>
      </trkpt>
      <trkpt lat="39.8689310" lon="2.9266810">
        <ele>377.1</ele>
        <time>2018-12-30T11:03:58Z</time>
      </trkpt>
      <trkpt lat="39.8689520" lon="2.9266480">
        <ele>377.3</ele>
        <time>2018-12-30T11:03:59Z</time>
      </trkpt>
      <trkpt lat="39.8689750" lon="2.9266160">
        <ele>377.5</ele>
        <time>2018-12-30T11:04:00Z</time>
      </trkpt>
      <trkpt lat="39.8689970" lon="2.9265840">
        <ele>377.8</ele>
        <time>2018-12-30T11:04:01Z</time>
      </trkpt>
      <trkpt lat="39.8690200" lon="2.9265530">
        <ele>378.0</ele>
        <time>2018-12-30T11:04:02Z</time>
      </trkpt>
      <trkpt lat="39.8690420" lon="2.9265200">
        <ele>378.2</ele>
        <time>2018-12-30T11:04:03Z</time>
      </trkpt>
      <trkpt lat="39.8690650" lon="2.9264870">
        <ele>378.4</ele>
        <time>2018-12-30T11:04:04Z</time>
      </trkpt>
      <trkpt lat="39.8690870" lon="2.9264540">
        <ele>378.6</ele>
        <time>2018-12-30T11:04:05Z</time>
      </trkpt>
      <trkpt lat="39.8691100" lon="2.9264230">
        <ele>378.9</ele>
        <time>2018-12-30T11:04:06Z</time>
      </trkpt>
      <trkpt lat="39.8691320" lon="2.9263930">
        <ele>379.1</ele>
        <time>2018-12-30T11:04:07Z</time>
      </trkpt>
      <trkpt lat="39.8691540" lon="2.9263630">
        <ele>379.3</ele>
        <time>2018-12-30T11:04:08Z</time>
      </trkpt>
      <trkpt lat="39.8691740" lon="2.9263320">
        <ele>379.5</ele>
        <time>2018-12-30T11:04:09Z</time>
      </trkpt>
      <trkpt lat="39.8691940" lon="2.9263020">
        <ele>379.7</ele>
        <time>2018-12-30T11:04:10Z</time>
      </trkpt>
      <trkpt lat="39.8692130" lon="2.9262710">
        <ele>380.0</ele>
        <time>2018-12-30T11:04:11Z</time>
      </trkpt>
      <trkpt lat="39.8692320" lon="2.9262390">
        <ele>380.2</ele>
        <time>2018-12-30T11:04:12Z</time>
      </trkpt>
      <trkpt lat="39.8692490" lon="2.9262080">
        <ele>380.4</ele>
        <time>2018-12-30T11:04:13Z</time>
      </trkpt>
      <trkpt lat="39.8692660" lon="2.9261780">
        <ele>380.6</ele>
        <time>2018-12-30T11:04:14Z</time>
      </trkpt>
      <trkpt lat="39.8692820" lon="2.9261490">
        <ele>380.8</ele>
        <time>2018-12-30T11:04:15Z</time>
      </trkpt>
      <trkpt lat="39.8692980" lon="2.9261170">
        <ele>381.0</ele>
        <time>2018-12-30T11:04:16Z</time>
      </trkpt>
      <trkpt lat="39.8693130" lon="2.9260820">
        <ele>381.2</ele>
        <time>2018-12-30T11:04:17Z</time>
      </trkpt>
      <trkpt lat="39.8693260" lon="2.9260430">
        <ele>381.5</ele>
        <time>2018-12-30T11:04:18Z</time>
      </trkpt>
      <trkpt lat="39.8693400" lon="2.9260030">
        <ele>381.7</ele>
        <time>2018-12-30T11:04:19Z</time>
      </trkpt>
      <trkpt lat="39.8693540" lon="2.9259620">
        <ele>381.9</ele>
        <time>2018-12-30T11:04:20Z</time>
      </trkpt>
      <trkpt lat="39.8693680" lon="2.9259220">
        <ele>382.2</ele>
        <time>2018-12-30T11:04:21Z</time>
      </trkpt>
      <trkpt lat="39.8693810" lon="2.9258830">
        <ele>382.4</ele>
        <time>2018-12-30T11:04:22Z</time>
      </trkpt>
      <trkpt lat="39.8693930" lon="2.9258460">
        <ele>382.6</ele>
        <time>2018-12-30T11:04:23Z</time>
      </trkpt>
      <trkpt lat="39.8694040" lon="2.9258110">
        <ele>382.8</ele>
        <time>2018-12-30T11:04:24Z</time>
      </trkpt>
      <trkpt lat="39.8694140" lon="2.9257740">
        <ele>383.1</ele>
        <time>2018-12-30T11:04:25Z</time>
      </trkpt>
      <trkpt lat="39.8694230" lon="2.9257360">
        <ele>383.3</ele>
        <time>2018-12-30T11:04:26Z</time>
      </trkpt>
      <trkpt lat="39.8694300" lon="2.9256970">
        <ele>383.5</ele>
        <time>2018-12-30T11:04:27Z</time>
      </trkpt>
      <trkpt lat="39.8694360" lon="2.9256570">
        <ele>383.7</ele>
        <time>2018-12-30T11:04:28Z</time>
      </trkpt>
      <trkpt lat="39.8694410" lon="2.9256160">
        <ele>383.9</ele>
        <time>2018-12-30T11:04:29Z</time>
      </trkpt>
      <trkpt lat="39.8694430" lon="2.9255720">
        <ele>384.2</ele>
        <time>2018-12-30T11:04:30Z</time>
      </trkpt>
      <trkpt lat="39.8694400" lon="2.9255270">
        <ele>384.4</ele>
        <time>2018-12-30T11:04:31Z</time>
      </trkpt>
      <trkpt lat="39.8694310" lon="2.9254800">
        <ele>384.7</ele>
        <time>2018-12-30T11:04:32Z</time>
      </trkpt>
      <trkpt lat="39.8694200" lon="2.9254420">
        <ele>384.9</ele>
        <time>2018-12-30T11:04:33Z</time>
      </trkpt>
      <trkpt lat="39.8694090" lon="2.9254070">
        <ele>385.1</ele>
        <time>2018-12-30T11:04:34Z</time>
      </trkpt>
      <trkpt lat="39.8693980" lon="2.9253770">
        <ele>385.2</ele>
        <time>2018-12-30T11:04:35Z</time>
      </trkpt>
      <trkpt lat="39.8693840" lon="2.9253440">
        <ele>385.4</ele>
        <time>2018-12-30T11:04:36Z</time>
      </trkpt>
      <trkpt lat="39.8693670" lon="2.9253110">
        <ele>385.6</ele>
        <time>2018-12-30T11:04:37Z</time>
      </trkpt>
      <trkpt lat="39.8693490" lon="2.9252770">
        <ele>385.8</ele>
        <time>2018-12-30T11:04:38Z</time>
      </trkpt>
      <trkpt lat="39.8693300" lon="2.9252440">
        <ele>385.9</ele>
        <time>2018-12-30T11:04:39Z</time>
      </trkpt>
      <trkpt lat="39.8693100" lon="2.9252130">
        <ele>386.1</ele>
        <time>2018-12-30T11:04:40Z</time>
      </trkpt>
      <trkpt lat="39.8692880" lon="2.9251860">
        <ele>386.3</ele>
        <time>2018-12-30T11:04:41Z</time>
      </trkpt>
      <trkpt lat="39.8692640" lon="2.9251610">
        <ele>386.4</ele>
        <time>2018-12-30T11:04:42Z</time>
      </trkpt>
      <trkpt lat="39.8692380" lon="2.9251340">
        <ele>386.6</ele>
        <time>2018-12-30T11:04:43Z</time>
      </trkpt>
      <trkpt lat="39.8692130" lon="2.9251080">
        <ele>386.8</ele>
        <time>2018-12-30T11:04:44Z</time>
      </trkpt>
      <trkpt lat="39.8691890" lon="2.9250820">
        <ele>386.9</ele>
        <time>2018-12-30T11:04:45Z</time>
      </trkpt>
      <trkpt lat="39.8691630" lon="2.9250570">
        <ele>387.1</ele>
        <time>2018-12-30T11:04:46Z</time>
      </trkpt>
      <trkpt lat="39.8691360" lon="2.9250330">
        <ele>387.2</ele>
        <time>2018-12-30T11:04:47Z</time>
      </trkpt>
      <trkpt lat="39.8691060" lon="2.9250130">
        <ele>387.4</ele>
        <time>2018-12-30T11:04:48Z</time>
      </trkpt>
      <trkpt lat="39.8690740" lon="2.9249920">
        <ele>387.6</ele>
        <time>2018-12-30T11:04:49Z</time>
      </trkpt>
      <trkpt lat="39.8690420" lon="2.9249700">
        <ele>387.7</ele>
        <time>2018-12-30T11:04:50Z</time>
      </trkpt>
      <trkpt lat="39.8690090" lon="2.9249500">
        <ele>387.9</ele>
        <time>2018-12-30T11:04:51Z</time>
      </trkpt>
      <trkpt lat="39.8689750" lon="2.9249330">
        <ele>388.0</ele>
        <time>2018-12-30T11:04:52Z</time>
      </trkpt>
      <trkpt lat="39.8689390" lon="2.9249190">
        <ele>388.1</ele>
        <time>2018-12-30T11:04:53Z</time>
      </trkpt>
      <trkpt lat="39.8689030" lon="2.9249040">
        <ele>388.3</ele>
        <time>2018-12-30T11:04:54Z</time>
      </trkpt>
      <trkpt lat="39.8688680" lon="2.9248900">
        <ele>388.4</ele>
        <time>2018-12-30T11:04:55Z</time>
      </trkpt>
      <trkpt lat="39.8688330" lon="2.9248770">
        <ele>388.5</ele>
        <time>2018-12-30T11:04:56Z</time>
      </trkpt>
      <trkpt lat="39.8687980" lon="2.9248640">
        <ele>388.5</ele>
        <time>2018-12-30T11:04:57Z</time>
      </trkpt>
      <trkpt lat="39.8687620" lon="2.9248520">
        <ele>388.6</ele>
        <time>2018-12-30T11:04:58Z</time>
      </trkpt>
      <trkpt lat="39.8687250" lon="2.9248400">
        <ele>388.6</ele>
        <time>2018-12-30T11:04:59Z</time>
      </trkpt>
      <trkpt lat="39.8686890" lon="2.9248280">
        <ele>388.7</ele>
        <time>2018-12-30T11:05:00Z</time>
      </trkpt>
      <trkpt lat="39.8686530" lon="2.9248150">
        <ele>388.8</ele>
        <time>2018-12-30T11:05:01Z</time>
      </trkpt>
      <trkpt lat="39.8686200" lon="2.9248030">
        <ele>388.8</ele>
        <time>2018-12-30T11:05:02Z</time>
      </trkpt>
      <trkpt lat="39.8685860" lon="2.9247910">
        <ele>388.8</ele>
        <time>2018-12-30T11:05:03Z</time>
      </trkpt>
      <trkpt lat="39.8685550" lon="2.9247790">
        <ele>388.9</ele>
        <time>2018-12-30T11:05:04Z</time>
      </trkpt>
      <trkpt lat="39.8685230" lon="2.9247680">
        <ele>388.9</ele>
        <time>2018-12-30T11:05:05Z</time>
      </trkpt>
      <trkpt lat="39.8684910" lon="2.9247580">
        <ele>388.9</ele>
        <time>2018-12-30T11:05:06Z</time>
      </trkpt>
      <trkpt lat="39.8684590" lon="2.9247470">
        <ele>388.9</ele>
        <time>2018-12-30T11:05:07Z</time>
      </trkpt>
      <trkpt lat="39.8684290" lon="2.9247360">
        <ele>388.9</ele>
        <time>2018-12-30T11:05:08Z</time>
      </trkpt>
      <trkpt lat="39.8683990" lon="2.9247240">
        <ele>389.0</ele>
        <time>2018-12-30T11:05:09Z</time>
      </trkpt>
      <trkpt lat="39.8683680" lon="2.9247110">
        <ele>389.0</ele>
        <time>2018-12-30T11:05:10Z</time>
      </trkpt>
      <trkpt lat="39.8683400" lon="2.9246970">
        <ele>389.0</ele>
        <time>2018-12-30T11:05:11Z</time>
      </trkpt>
      <trkpt lat="39.8683120" lon="2.9246820">
        <ele>389.0</ele>
        <time>2018-12-30T11:05:12Z</time>
      </trkpt>
      <trkpt lat="39.8682830" lon="2.9246690">
        <ele>389.0</ele>
        <time>2018-12-30T11:05:13Z</time>
      </trkpt>
      <trkpt lat="39.8682530" lon="2.9246600">
        <ele>389.0</ele>
        <time>2018-12-30T11:05:14Z</time>
      </trkpt>
      <trkpt lat="39.8682170" lon="2.9246550">
        <ele>389.0</ele>
        <time>2018-12-30T11:05:15Z</time>
      </trkpt>
      <trkpt lat="39.8681810" lon="2.9246480">
        <ele>389.0</ele>
        <time>2018-12-30T11:05:16Z</time>
      </trkpt>
      <trkpt lat="39.8681430" lon="2.9246430">
        <ele>389.1</ele>
        <time>2018-12-30T11:05:17Z</time>
      </trkpt>
      <trkpt lat="39.8681070" lon="2.9246360">
        <ele>389.1</ele>
        <time>2018-12-30T11:05:18Z</time>
      </trkpt>
      <trkpt lat="39.8680710" lon="2.9246300">
        <ele>389.1</ele>
        <time>2018-12-30T11:05:19Z</time>
      </trkpt>
      <trkpt lat="39.8680360" lon="2.9246220">
        <ele>389.2</ele>
        <time>2018-12-30T11:05:20Z</time>
      </trkpt>
      <trkpt lat="39.8680020" lon="2.9246130">
        <ele>389.6</ele>
        <time>2018-12-30T11:05:21Z</time>
      </trkpt>
      <trkpt lat="39.8679670" lon="2.9246050">
        <ele>389.9</ele>
        <time>2018-12-30T11:05:22Z</time>
      </trkpt>
      <trkpt lat="39.8679330" lon="2.9245960">
        <ele>390.1</ele>
        <time>2018-12-30T11:05:23Z</time>
      </trkpt>
      <trkpt lat="39.8678980" lon="2.9245870">
        <ele>390.4</ele>
        <time>2018-12-30T11:05:24Z</time>
      </trkpt>
      <trkpt lat="39.8678620" lon="2.9245750">
        <ele>390.7</ele>
        <time>2018-12-30T11:05:25Z</time>
      </trkpt>
      <trkpt lat="39.8678260" lon="2.9245620">
        <ele>391.0</ele>
        <time>2018-12-30T11:05:26Z</time>
      </trkpt>
      <trkpt lat="39.8677910" lon="2.9245490">
        <ele>391.3</ele>
        <time>2018-12-30T11:05:27Z</time>
      </trkpt>
      <trkpt lat="39.8677560" lon="2.9245350">
        <ele>391.6</ele>
        <time>2018-12-30T11:05:28Z</time>
      </trkpt>
      <trkpt lat="39.8677180" lon="2.9245240">
        <ele>391.9</ele>
        <time>2018-12-30T11:05:29Z</time>
      </trkpt>
      <trkpt lat="39.8676800" lon="2.9245140">
        <ele>392.2</ele>
        <time>2018-12-30T11:05:30Z</time>
      </trkpt>
      <trkpt lat="39.8676400" lon="2.9245060">
        <ele>392.5</ele>
        <time>2018-12-30T11:05:31Z</time>
      </trkpt>
      <trkpt lat="39.8676010" lon="2.9244960">
        <ele>392.8</ele>
        <time>2018-12-30T11:05:32Z</time>
      </trkpt>
      <trkpt lat="39.8675620" lon="2.9244860">
        <ele>393.1</ele>
        <time>2018-12-30T11:05:33Z</time>
      </trkpt>
      <trkpt lat="39.8675220" lon="2.9244750">
        <ele>393.4</ele>
        <time>2018-12-30T11:05:34Z</time>
      </trkpt>
      <trkpt lat="39.8674820" lon="2.9244660">
        <ele>393.6</ele>
        <time>2018-12-30T11:05:35Z</time>
      </trkpt>
      <trkpt lat="39.8674420" lon="2.9244570">
        <ele>393.9</ele>
        <time>2018-12-30T11:05:36Z</time>
      </trkpt>
      <trkpt lat="39.8674010" lon="2.9244460">
        <ele>394.2</ele>
        <time>2018-12-30T11:05:37Z</time>
      </trkpt>
      <trkpt lat="39.8673610" lon="2.9244340">
        <ele>394.5</ele>
        <time>2018-12-30T11:05:38Z</time>
      </trkpt>
      <trkpt lat="39.8673210" lon="2.9244220">
        <ele>394.7</ele>
        <time>2018-12-30T11:05:39Z</time>
      </trkpt>
      <trkpt lat="39.8672810" lon="2.9244110">
        <ele>394.9</ele>
        <time>2018-12-30T11:05:40Z</time>
      </trkpt>
      <trkpt lat="39.8672430" lon="2.9244000">
        <ele>395.1</ele>
        <time>2018-12-30T11:05:41Z</time>
      </trkpt>
      <trkpt lat="39.8672060" lon="2.9243910">
        <ele>395.3</ele>
        <time>2018-12-30T11:05:42Z</time>
      </trkpt>
      <trkpt lat="39.8671690" lon="2.9243840">
        <ele>395.5</ele>
        <time>2018-12-30T11:05:43Z</time>
      </trkpt>
      <trkpt lat="39.8671310" lon="2.9243790">
        <ele>395.6</ele>
        <time>2018-12-30T11:05:44Z</time>
      </trkpt>
      <trkpt lat="39.8670930" lon="2.9243750">
        <ele>395.7</ele>
        <time>2018-12-30T11:05:45Z</time>
      </trkpt>
      <trkpt lat="39.8670540" lon="2.9243720">
        <ele>395.8</ele>
        <time>2018-12-30T11:05:46Z</time>
      </trkpt>
      <trkpt lat="39.8670150" lon="2.9243700">
        <ele>395.9</ele>
        <time>2018-12-30T11:05:47Z</time>
      </trkpt>
      <trkpt lat="39.8669750" lon="2.9243680">
        <ele>396.0</ele>
        <time>2018-12-30T11:05:48Z</time>
      </trkpt>
      <trkpt lat="39.8669360" lon="2.9243650">
        <ele>396.0</ele>
        <time>2018-12-30T11:05:49Z</time>
      </trkpt>
      <trkpt lat="39.8668960" lon="2.9243630">
        <ele>396.1</ele>
        <time>2018-12-30T11:05:50Z</time>
      </trkpt>
      <trkpt lat="39.8668560" lon="2.9243610">
        <ele>396.1</ele>
        <time>2018-12-30T11:05:51Z</time>
      </trkpt>
      <trkpt lat="39.8668160" lon="2.9243590">
        <ele>396.2</ele>
        <time>2018-12-30T11:05:52Z</time>
      </trkpt>
      <trkpt lat="39.8667760" lon="2.9243570">
        <ele>396.2</ele>
        <time>2018-12-30T11:05:53Z</time>
      </trkpt>
      <trkpt lat="39.8667350" lon="2.9243560">
        <ele>396.2</ele>
        <time>2018-12-30T11:05:54Z</time>
      </trkpt>
      <trkpt lat="39.8666930" lon="2.9243560">
        <ele>396.3</ele>
        <time>2018-12-30T11:05:55Z</time>
      </trkpt>
      <trkpt lat="39.8666500" lon="2.9243540">
        <ele>396.3</ele>
        <time>2018-12-30T11:05:56Z</time>
      </trkpt>
      <trkpt lat="39.8666060" lon="2.9243510">
        <ele>396.4</ele>
        <time>2018-12-30T11:05:57Z</time>
      </trkpt>
      <trkpt lat="39.8665620" lon="2.9243420">
        <ele>396.4</ele>
        <time>2018-12-30T11:05:58Z</time>
      </trkpt>
      <trkpt lat="39.8665180" lon="2.9243270">
        <ele>396.5</ele>
        <time>2018-12-30T11:05:59Z</time>
      </trkpt>
      <trkpt lat="39.8664760" lon="2.9243020">
        <ele>396.5</ele>
        <time>2018-12-30T11:06:00Z</time>
      </trkpt>
      <trkpt lat="39.8664400" lon="2.9242660">
        <ele>396.6</ele>
        <time>2018-12-30T11:06:01Z</time>
      </trkpt>
      <trkpt lat="39.8664100" lon="2.9242190">
        <ele>396.6</ele>
        <time>2018-12-30T11:06:02Z</time>
      </trkpt>
      <trkpt lat="39.8663870" lon="2.9241650">
        <ele>396.7</ele>
        <time>2018-12-30T11:06:03Z</time>
      </trkpt>
      <trkpt lat="39.8663680" lon="2.9241080">
        <ele>396.8</ele>
        <time>2018-12-30T11:06:04Z</time>
      </trkpt>
      <trkpt lat="39.8663510" lon="2.9240480">
        <ele>396.9</ele>
        <time>2018-12-30T11:06:05Z</time>
      </trkpt>
      <trkpt lat="39.8663370" lon="2.9239870">
        <ele>397.1</ele>
        <time>2018-12-30T11:06:06Z</time>
      </trkpt>
      <trkpt lat="39.8663220" lon="2.9239230">
        <ele>397.2</ele>
        <time>2018-12-30T11:06:07Z</time>
      </trkpt>
      <trkpt lat="39.8663090" lon="2.9238560">
        <ele>397.4</ele>
        <time>2018-12-30T11:06:08Z</time>
      </trkpt>
      <trkpt lat="39.8662950" lon="2.9237870">
        <ele>397.5</ele>
        <time>2018-12-30T11:06:09Z</time>
      </trkpt>
      <trkpt lat="39.8662820" lon="2.9237170">
        <ele>397.7</ele>
        <time>2018-12-30T11:06:10Z</time>
      </trkpt>
      <trkpt lat="39.8662680" lon="2.9236460">
        <ele>397.8</ele>
        <time>2018-12-30T11:06:11Z</time>
      </trkpt>
      <trkpt lat="39.8662540" lon="2.9235740">
        <ele>398.0</ele>
        <time>2018-12-30T11:06:12Z</time>
      </trkpt>
      <trkpt lat="39.8662390" lon="2.9235020">
        <ele>398.1</ele>
        <time>2018-12-30T11:06:13Z</time>
      </trkpt>
      <trkpt lat="39.8662250" lon="2.9234280">
        <ele>398.2</ele>
        <time>2018-12-30T11:06:14Z</time>
      </trkpt>
      <trkpt lat="39.8662100" lon="2.9233550">
        <ele>398.3</ele>
        <time>2018-12-30T11:06:15Z</time>
      </trkpt>
      <trkpt lat="39.8661960" lon="2.9232820">
        <ele>398.6</ele>
        <time>2018-12-30T11:06:16Z</time>
      </trkpt>
      <trkpt lat="39.8661820" lon="2.9232110">
        <ele>398.8</ele>
        <time>2018-12-30T11:06:17Z</time>
      </trkpt>
      <trkpt lat="39.8661680" lon="2.9231410">
        <ele>399.1</ele>
        <time>2018-12-30T11:06:18Z</time>
      </trkpt>
      <trkpt lat="39.8661550" lon="2.9230720">
        <ele>399.3</ele>
        <time>2018-12-30T11:06:19Z</time>
      </trkpt>
      <trkpt lat="39.8661410" lon="2.9230060">
        <ele>399.6</ele>
        <time>2018-12-30T11:06:20Z</time>
      </trkpt>
      <trkpt lat="39.8661270" lon="2.9229410">
        <ele>399.9</ele>
        <time>2018-12-30T11:06:21Z</time>
      </trkpt>
      <trkpt lat="39.8661140" lon="2.9228760">
        <ele>400.3</ele>
        <time>2018-12-30T11:06:22Z</time>
      </trkpt>
      <trkpt lat="39.8661000" lon="2.9228090">
        <ele>400.6</ele>
        <time>2018-12-30T11:06:23Z</time>
      </trkpt>
      <trkpt lat="39.8660880" lon="2.9227410">
        <ele>401.0</ele>
        <time>2018-12-30T11:06:24Z</time>
      </trkpt>
      <trkpt lat="39.8660760" lon="2.9226750">
        <ele>401.3</ele>
        <time>2018-12-30T11:06:25Z</time>
      </trkpt>
      <trkpt lat="39.8660630" lon="2.9226090">
        <ele>401.7</ele>
        <time>2018-12-30T11:06:26Z</time>
      </trkpt>
      <trkpt lat="39.8660510" lon="2.9225430">
        <ele>401.8</ele>
        <time>2018-12-30T11:06:27Z</time>
      </trkpt>
      <trkpt lat="39.8660400" lon="2.9224750">
        <ele>402.0</ele>
        <time>2018-12-30T11:06:28Z</time>
      </trkpt>
      <trkpt lat="39.8660290" lon="2.9224070">
        <ele>402.2</ele>
        <time>2018-12-30T11:06:29Z</time>
      </trkpt>
      <trkpt lat="39.8660190" lon="2.9223400">
        <ele>402.3</ele>
        <time>2018-12-30T11:06:30Z</time>
      </trkpt>
      <trkpt lat="39.8660100" lon="2.9222750">
        <ele>402.5</ele>
        <time>2018-12-30T11:06:31Z</time>
      </trkpt>
      <trkpt lat="39.8660050" lon="2.9222070">
        <ele>402.7</ele>
        <time>2018-12-30T11:06:32Z</time>
      </trkpt>
      <trkpt lat="39.8660050" lon="2.9221370">
        <ele>402.9</ele>
        <time>2018-12-30T11:06:33Z</time>
      </trkpt>
      <trkpt lat="39.8660100" lon="2.9220650">
        <ele>403.1</ele>
        <time>2018-12-30T11:06:34Z</time>
      </trkpt>
      <trkpt lat="39.8660140" lon="2.9219920">
        <ele>403.4</ele>
        <time>2018-12-30T11:06:35Z</time>
      </trkpt>
      <trkpt lat="39.8660180" lon="2.9219200">
        <ele>403.6</ele>
        <time>2018-12-30T11:06:36Z</time>
      </trkpt>
      <trkpt lat="39.8660250" lon="2.9218520">
        <ele>403.9</ele>
        <time>2018-12-30T11:06:37Z</time>
      </trkpt>
      <trkpt lat="39.8660330" lon="2.9217860">
        <ele>404.1</ele>
        <time>2018-12-30T11:06:38Z</time>
      </trkpt>
      <trkpt lat="39.8660400" lon="2.9217210">
        <ele>404.4</ele>
        <time>2018-12-30T11:06:39Z</time>
      </trkpt>
      <trkpt lat="39.8660470" lon="2.9216540">
        <ele>404.7</ele>
        <time>2018-12-30T11:06:40Z</time>
      </trkpt>
      <trkpt lat="39.8660510" lon="2.9215830">
        <ele>405.0</ele>
        <time>2018-12-30T11:06:41Z</time>
      </trkpt>
      <trkpt lat="39.8660550" lon="2.9215130">
        <ele>405.3</ele>
        <time>2018-12-30T11:06:42Z</time>
      </trkpt>
      <trkpt lat="39.8660580" lon="2.9214420">
        <ele>405.6</ele>
        <time>2018-12-30T11:06:43Z</time>
      </trkpt>
      <trkpt lat="39.8660630" lon="2.9213730">
        <ele>406.0</ele>
        <time>2018-12-30T11:06:44Z</time>
      </trkpt>
      <trkpt lat="39.8660670" lon="2.9213030">
        <ele>406.3</ele>
        <time>2018-12-30T11:06:45Z</time>
      </trkpt>
      <trkpt lat="39.8660680" lon="2.9212340">
        <ele>406.7</ele>
        <time>2018-12-30T11:06:46Z</time>
      </trkpt>
      <trkpt lat="39.8660660" lon="2.9211650">
        <ele>407.0</ele>
        <time>2018-12-30T11:06:47Z</time>
      </trkpt>
      <trkpt lat="39.8660580" lon="2.9210930">
        <ele>407.5</ele>
        <time>2018-12-30T11:06:48Z</time>
      </trkpt>
      <trkpt lat="39.8660410" lon="2.9210240">
        <ele>408.0</ele>
        <time>2018-12-30T11:06:49Z</time>
      </trkpt>
      <trkpt lat="39.8660180" lon="2.9209570">
        <ele>408.5</ele>
        <time>2018-12-30T11:06:50Z</time>
      </trkpt>
      <trkpt lat="39.8659860" lon="2.9208940">
        <ele>409.0</ele>
        <time>2018-12-30T11:06:51Z</time>
      </trkpt>
      <trkpt lat="39.8659500" lon="2.9208290">
        <ele>409.6</ele>
        <time>2018-12-30T11:06:52Z</time>
      </trkpt>
      <trkpt lat="39.8659080" lon="2.9207600">
        <ele>410.3</ele>
        <time>2018-12-30T11:06:53Z</time>
      </trkpt>
      <trkpt lat="39.8658640" lon="2.9206890">
        <ele>410.9</ele>
        <time>2018-12-30T11:06:54Z</time>
      </trkpt>
      <trkpt lat="39.8658130" lon="2.9206150">
        <ele>411.5</ele>
        <time>2018-12-30T11:06:55Z</time>
      </trkpt>
      <trkpt lat="39.8657560" lon="2.9205410">
        <ele>412.2</ele>
        <time>2018-12-30T11:06:56Z</time>
      </trkpt>
      <trkpt lat="39.8656920" lon="2.9204630">
        <ele>413.0</ele>
        <time>2018-12-30T11:06:57Z</time>
      </trkpt>
      <trkpt lat="39.8656280" lon="2.9203810">
        <ele>413.7</ele>
        <time>2018-12-30T11:06:58Z</time>
      </trkpt>
      <trkpt lat="39.8655660" lon="2.9202950">
        <ele>414.3</ele>
        <time>2018-12-30T11:06:59Z</time>
      </trkpt>
      <trkpt lat="39.8655040" lon="2.9202070">
        <ele>414.9</ele>
        <time>2018-12-30T11:07:00Z</time>
      </trkpt>
      <trkpt lat="39.8654410" lon="2.9201150">
        <ele>415.4</ele>
        <time>2018-12-30T11:07:01Z</time>
      </trkpt>
      <trkpt lat="39.8653790" lon="2.9200190">
        <ele>415.9</ele>
        <time>2018-12-30T11:07:02Z</time>
      </trkpt>
      <trkpt lat="39.8653170" lon="2.9199190">
        <ele>416.4</ele>
        <time>2018-12-30T11:07:03Z</time>
      </trkpt>
      <trkpt lat="39.8652560" lon="2.9198140">
        <ele>416.8</ele>
        <time>2018-12-30T11:07:04Z</time>
      </trkpt>
      <trkpt lat="39.8651940" lon="2.9197080">
        <ele>417.2</ele>
        <time>2018-12-30T11:07:05Z</time>
      </trkpt>
      <trkpt lat="39.8651320" lon="2.9196020">
        <ele>417.6</ele>
        <time>2018-12-30T11:07:06Z</time>
      </trkpt>
      <trkpt lat="39.8650710" lon="2.9194990">
        <ele>418.0</ele>
        <time>2018-12-30T11:07:07Z</time>
      </trkpt>
      <trkpt lat="39.8650120" lon="2.9194000">
        <ele>418.4</ele>
        <time>2018-12-30T11:07:08Z</time>
      </trkpt>
      <trkpt lat="39.8649550" lon="2.9193040">
        <ele>418.7</ele>
        <time>2018-12-30T11:07:09Z</time>
      </trkpt>
      <trkpt lat="39.8649010" lon="2.9192180">
        <ele>419.1</ele>
        <time>2018-12-30T11:07:10Z</time>
      </trkpt>
      <trkpt lat="39.8648460" lon="2.9191410">
        <ele>419.4</ele>
        <time>2018-12-30T11:07:11Z</time>
      </trkpt>
      <trkpt lat="39.8647880" lon="2.9190710">
        <ele>419.7</ele>
        <time>2018-12-30T11:07:12Z</time>
      </trkpt>
      <trkpt lat="39.8647300" lon="2.9190030">
        <ele>420.0</ele>
        <time>2018-12-30T11:07:13Z</time>
      </trkpt>
      <trkpt lat="39.8646730" lon="2.9189350">
        <ele>420.3</ele>
        <time>2018-12-30T11:07:14Z</time>
      </trkpt>
      <trkpt lat="39.8646190" lon="2.9188690">
        <ele>420.6</ele>
        <time>2018-12-30T11:07:15Z</time>
      </trkpt>
      <trkpt lat="39.8645700" lon="2.9188020">
        <ele>420.9</ele>
        <time>2018-12-30T11:07:16Z</time>
      </trkpt>
      <trkpt lat="39.8645350" lon="2.9187290">
        <ele>421.1</ele>
        <time>2018-12-30T11:07:17Z</time>
      </trkpt>
      <trkpt lat="39.8645080" lon="2.9186540">
        <ele>421.4</ele>
        <time>2018-12-30T11:07:18Z</time>
      </trkpt>
      <trkpt lat="39.8644870" lon="2.9185800">
        <ele>421.6</ele>
        <time>2018-12-30T11:07:19Z</time>
      </trkpt>
      <trkpt lat="39.8644630" lon="2.9185150">
        <ele>421.8</ele>
        <time>2018-12-30T11:07:20Z</time>
      </trkpt>
      <trkpt lat="39.8644410" lon="2.9184540">
        <ele>422.0</ele>
        <time>2018-12-30T11:07:21Z</time>
      </trkpt>
      <trkpt lat="39.8644210" lon="2.9183950">
        <ele>422.2</ele>
        <time>2018-12-30T11:07:22Z</time>
      </trkpt>
      <trkpt lat="39.8644030" lon="2.9183380">
        <ele>422.3</ele>
        <time>2018-12-30T11:07:23Z</time>
      </trkpt>
      <trkpt lat="39.8643870" lon="2.9182810">
        <ele>422.5</ele>
        <time>2018-12-30T11:07:24Z</time>
      </trkpt>
      <trkpt lat="39.8643720" lon="2.9182250">
        <ele>422.7</ele>
        <time>2018-12-30T11:07:25Z</time>
      </trkpt>
      <trkpt lat="39.8643570" lon="2.9181690">
        <ele>422.9</ele>
        <time>2018-12-30T11:07:26Z</time>
      </trkpt>
      <trkpt lat="39.8643420" lon="2.9181170">
        <ele>423.0</ele>
        <time>2018-12-30T11:07:27Z</time>
      </trkpt>
      <trkpt lat="39.8643280" lon="2.9180660">
        <ele>423.2</ele>
        <time>2018-12-30T11:07:28Z</time>
      </trkpt>
      <trkpt lat="39.8643140" lon="2.9180170">
        <ele>423.3</ele>
        <time>2018-12-30T11:07:29Z</time>
      </trkpt>
      <trkpt lat="39.8643010" lon="2.9179700">
        <ele>423.5</ele>
        <time>2018-12-30T11:07:30Z</time>
      </trkpt>
      <trkpt lat="39.8642870" lon="2.9179250">
        <ele>423.6</ele>
        <time>2018-12-30T11:07:31Z</time>
      </trkpt>
      <trkpt lat="39.8642730" lon="2.9178820">
        <ele>423.8</ele>
        <time>2018-12-30T11:07:32Z</time>
      </trkpt>
      <trkpt lat="39.8642580" lon="2.9178410">
        <ele>423.9</ele>
        <time>2018-12-30T11:07:33Z</time>
      </trkpt>
      <trkpt lat="39.8642440" lon="2.9178000">
        <ele>424.1</ele>
        <time>2018-12-30T11:07:34Z</time>
      </trkpt>
      <trkpt lat="39.8642290" lon="2.9177590">
        <ele>424.2</ele>
        <time>2018-12-30T11:07:35Z</time>
      </trkpt>
      <trkpt lat="39.8642140" lon="2.9177190">
        <ele>424.3</ele>
        <time>2018-12-30T11:07:36Z</time>
      </trkpt>
      <trkpt lat="39.8641960" lon="2.9176820">
        <ele>424.5</ele>
        <time>2018-12-30T11:07:37Z</time>
      </trkpt>
      <trkpt lat="39.8641730" lon="2.9176490">
        <ele>424.6</ele>
        <time>2018-12-30T11:07:38Z</time>
      </trkpt>
      <trkpt lat="39.8641460" lon="2.9176190">
        <ele>424.7</ele>
        <time>2018-12-30T11:07:39Z</time>
      </trkpt>
      <trkpt lat="39.8641150" lon="2.9175900">
        <ele>424.9</ele>
        <time>2018-12-30T11:07:40Z</time>
      </trkpt>
      <trkpt lat="39.8640830" lon="2.9175630">
        <ele>425.1</ele>
        <time>2018-12-30T11:07:41Z</time>
      </trkpt>
      <trkpt lat="39.8640500" lon="2.9175360">
        <ele>425.2</ele>
        <time>2018-12-30T11:07:42Z</time>
      </trkpt>
      <trkpt lat="39.8640170" lon="2.9175110">
        <ele>425.4</ele>
        <time>2018-12-30T11:07:43Z</time>
      </trkpt>
      <trkpt lat="39.8639820" lon="2.9174880">
        <ele>425.5</ele>
        <time>2018-12-30T11:07:44Z</time>
      </trkpt>
      <trkpt lat="39.8639460" lon="2.9174670">
        <ele>425.7</ele>
        <time>2018-12-30T11:07:45Z</time>
      </trkpt>
      <trkpt lat="39.8639100" lon="2.9174480">
        <ele>425.8</ele>
        <time>2018-12-30T11:07:46Z</time>
      </trkpt>
      <trkpt lat="39.8638730" lon="2.9174320">
        <ele>426.0</ele>
        <time>2018-12-30T11:07:47Z</time>
      </trkpt>
      <trkpt lat="39.8638360" lon="2.9174170">
        <ele>426.1</ele>
        <time>2018-12-30T11:07:48Z</time>
      </trkpt>
      <trkpt lat="39.8638000" lon="2.9174010">
        <ele>426.2</ele>
        <time>2018-12-30T11:07:49Z</time>
      </trkpt>
      <trkpt lat="39.8637640" lon="2.9173850">
        <ele>426.4</ele>
        <time>2018-12-30T11:07:50Z</time>
      </trkpt>
      <trkpt lat="39.8637270" lon="2.9173710">
        <ele>426.5</ele>
        <time>2018-12-30T11:07:51Z</time>
      </trkpt>
      <trkpt lat="39.8636900" lon="2.9173570">
        <ele>426.7</ele>
        <time>2018-12-30T11:07:52Z</time>
      </trkpt>
      <trkpt lat="39.8636530" lon="2.9173440">
        <ele>426.8</ele>
        <time>2018-12-30T11:07:53Z</time>
      </trkpt>
      <trkpt lat="39.8636170" lon="2.9173300">
        <ele>427.0</ele>
        <time>2018-12-30T11:07:54Z</time>
      </trkpt>
      <trkpt lat="39.8635800" lon="2.9173160">
        <ele>427.1</ele>
        <time>2018-12-30T11:07:55Z</time>
      </trkpt>
      <trkpt lat="39.8635450" lon="2.9173000">
        <ele>427.2</ele>
        <time>2018-12-30T11:07:56Z</time>
      </trkpt>
      <trkpt lat="39.8635090" lon="2.9172840">
        <ele>427.4</ele>
        <time>2018-12-30T11:07:57Z</time>
      </trkpt>
      <trkpt lat="39.8634730" lon="2.9172680">
        <ele>427.5</ele>
        <time>2018-12-30T11:07:58Z</time>
      </trkpt>
      <trkpt lat="39.8634380" lon="2.9172520">
        <ele>427.7</ele>
        <time>2018-12-30T11:07:59Z</time>
      </trkpt>
      <trkpt lat="39.8634020" lon="2.9172340">
        <ele>427.8</ele>
        <time>2018-12-30T11:08:00Z</time>
      </trkpt>
      <trkpt lat="39.8633670" lon="2.9172140">
        <ele>428.0</ele>
        <time>2018-12-30T11:08:01Z</time>
      </trkpt>
      <trkpt lat="39.8633330" lon="2.9171920">
        <ele>428.1</ele>
        <time>2018-12-30T11:08:02Z</time>
      </trkpt>
      <trkpt lat="39.8632990" lon="2.9171660">
        <ele>428.3</ele>
        <time>2018-12-30T11:08:03Z</time>
      </trkpt>
      <trkpt lat="39.8632660" lon="2.9171370">
        <ele>428.4</ele>
        <time>2018-12-30T11:08:04Z</time>
      </trkpt>
      <trkpt lat="39.8632350" lon="2.9171050">
        <ele>428.6</ele>
        <time>2018-12-30T11:08:05Z</time>
      </trkpt>
      <trkpt lat="39.8632070" lon="2.9170690">
        <ele>428.7</ele>
        <time>2018-12-30T11:08:06Z</time>
      </trkpt>
      <trkpt lat="39.8631830" lon="2.9170300">
        <ele>428.9</ele>
        <time>2018-12-30T11:08:07Z</time>
      </trkpt>
      <trkpt lat="39.8631620" lon="2.9169880">
        <ele>429.0</ele>
        <time>2018-12-30T11:08:08Z</time>
      </trkpt>
      <trkpt lat="39.8631430" lon="2.9169440">
        <ele>429.2</ele>
        <time>2018-12-30T11:08:09Z</time>
      </trkpt>
      <trkpt lat="39.8631250" lon="2.9169000">
        <ele>429.3</ele>
        <time>2018-12-30T11:08:10Z</time>
      </trkpt>
      <trkpt lat="39.8631070" lon="2.9168560">
        <ele>429.5</ele>
        <time>2018-12-30T11:08:11Z</time>
      </trkpt>
      <trkpt lat="39.8630900" lon="2.9168140">
        <ele>429.6</ele>
        <time>2018-12-30T11:08:12Z</time>
      </trkpt>
      <trkpt lat="39.8630750" lon="2.9167740">
        <ele>429.8</ele>
        <time>2018-12-30T11:08:13Z</time>
      </trkpt>
      <trkpt lat="39.8630590" lon="2.9167360">
        <ele>429.9</ele>
        <time>2018-12-30T11:08:14Z</time>
      </trkpt>
      <trkpt lat="39.8630410" lon="2.9167000">
        <ele>430.1</ele>
        <time>2018-12-30T11:08:15Z</time>
      </trkpt>
      <trkpt lat="39.8630210" lon="2.9166660">
        <ele>430.2</ele>
        <time>2018-12-30T11:08:16Z</time>
      </trkpt>
      <trkpt lat="39.8629990" lon="2.9166330">
        <ele>430.3</ele>
        <time>2018-12-30T11:08:17Z</time>
      </trkpt>
      <trkpt lat="39.8629740" lon="2.9166030">
        <ele>430.5</ele>
        <time>2018-12-30T11:08:18Z</time>
      </trkpt>
      <trkpt lat="39.8629480" lon="2.9165740">
        <ele>430.6</ele>
        <time>2018-12-30T11:08:19Z</time>
      </trkpt>
      <trkpt lat="39.8629190" lon="2.9165460">
        <ele>430.7</ele>
        <time>2018-12-30T11:08:20Z</time>
      </trkpt>
      <trkpt lat="39.8628890" lon="2.9165180">
        <ele>430.9</ele>
        <time>2018-12-30T11:08:21Z</time>
      </trkpt>
      <trkpt lat="39.8628580" lon="2.9164920">
        <ele>431.0</ele>
        <time>2018-12-30T11:08:22Z</time>
      </trkpt>
      <trkpt lat="39.8628260" lon="2.9164650">
        <ele>431.2</ele>
        <time>2018-12-30T11:08:23Z</time>
      </trkpt>
      <trkpt lat="39.8627920" lon="2.9164400">
        <ele>431.3</ele>
        <time>2018-12-30T11:08:24Z</time>
      </trkpt>
      <trkpt lat="39.8627560" lon="2.9164150">
        <ele>431.5</ele>
        <time>2018-12-30T11:08:25Z</time>
      </trkpt>
      <trkpt lat="39.8627190" lon="2.9163930">
        <ele>431.6</ele>
        <time>2018-12-30T11:08:26Z</time>
      </trkpt>
      <trkpt lat="39.8626800" lon="2.9163740">
        <ele>431.8</ele>
        <time>2018-12-30T11:08:27Z</time>
      </trkpt>
      <trkpt lat="39.8626420" lon="2.9163590">
        <ele>431.9</ele>
        <time>2018-12-30T11:08:28Z</time>
      </trkpt>
      <trkpt lat="39.8626020" lon="2.9163470">
        <ele>432.1</ele>
        <time>2018-12-30T11:08:29Z</time>
      </trkpt>
      <trkpt lat="39.8625620" lon="2.9163390">
        <ele>432.2</ele>
        <time>2018-12-30T11:08:30Z</time>
      </trkpt>
      <trkpt lat="39.8625220" lon="2.9163370">
        <ele>432.4</ele>
        <time>2018-12-30T11:08:31Z</time>
      </trkpt>
      <trkpt lat="39.8624810" lon="2.9163380">
        <ele>432.5</ele>
        <time>2018-12-30T11:08:32Z</time>
      </trkpt>
      <trkpt lat="39.8624390" lon="2.9163420">
        <ele>432.6</ele>
        <time>2018-12-30T11:08:33Z</time>
      </trkpt>
      <trkpt lat="39.8623980" lon="2.9163460">
        <ele>432.8</ele>
        <time>2018-12-30T11:08:34Z</time>
      </trkpt>
      <trkpt lat="39.8623570" lon="2.9163510">
        <ele>432.9</ele>
        <time>2018-12-30T11:08:35Z</time>
      </trkpt>
      <trkpt lat="39.8623140" lon="2.9163600">
        <ele>433.1</ele>
        <time>2018-12-30T11:08:36Z</time>
      </trkpt>
      <trkpt lat="39.8622700" lon="2.9163710">
        <ele>433.2</ele>
        <time>2018-12-30T11:08:37Z</time>
      </trkpt>
      <trkpt lat="39.8622240" lon="2.9163820">
        <ele>433.4</ele>
        <time>2018-12-30T11:08:38Z</time>
      </trkpt>
      <trkpt lat="39.8621780" lon="2.9163920">
        <ele>433.6</ele>
        <time>2018-12-30T11:08:39Z</time>
      </trkpt>
      <trkpt lat="39.8621310" lon="2.9164010">
        <ele>433.7</ele>
        <time>2018-12-30T11:08:40Z</time>
      </trkpt>
      <trkpt lat="39.8620820" lon="2.9164120">
        <ele>433.9</ele>
        <time>2018-12-30T11:08:41Z</time>
      </trkpt>
      <trkpt lat="39.8620330" lon="2.9164240">
        <ele>434.1</ele>
        <time>2018-12-30T11:08:42Z</time>
      </trkpt>
      <trkpt lat="39.8619840" lon="2.9164360">
        <ele>434.3</ele>
        <time>2018-12-30T11:08:43Z</time>
      </trkpt>
      <trkpt lat="39.8619340" lon="2.9164470">
        <ele>434.4</ele>
        <time>2018-12-30T11:08:44Z</time>
      </trkpt>
      <trkpt lat="39.8618860" lon="2.9164590">
        <ele>434.6</ele>
        <time>2018-12-30T11:08:45Z</time>
      </trkpt>
      <trkpt lat="39.8618390" lon="2.9164710">
        <ele>434.8</ele>
        <time>2018-12-30T11:08:46Z</time>
      </trkpt>
      <trkpt lat="39.8617920" lon="2.9164820">
        <ele>434.9</ele>
        <time>2018-12-30T11:08:47Z</time>
      </trkpt>
      <trkpt lat="39.8617460" lon="2.9164920">
        <ele>435.1</ele>
        <time>2018-12-30T11:08:48Z</time>
      </trkpt>
      <trkpt lat="39.8616980" lon="2.9165040">
        <ele>435.3</ele>
        <time>2018-12-30T11:08:49Z</time>
      </trkpt>
      <trkpt lat="39.8616510" lon="2.9165170">
        <ele>435.4</ele>
        <time>2018-12-30T11:08:50Z</time>
      </trkpt>
      <trkpt lat="39.8616040" lon="2.9165300">
        <ele>435.6</ele>
        <time>2018-12-30T11:08:51Z</time>
      </trkpt>
      <trkpt lat="39.8615570" lon="2.9165430">
        <ele>435.7</ele>
        <time>2018-12-30T11:08:52Z</time>
      </trkpt>
      <trkpt lat="39.8615110" lon="2.9165540">
        <ele>435.9</ele>
        <time>2018-12-30T11:08:53Z</time>
      </trkpt>
      <trkpt lat="39.8614650" lon="2.9165630">
        <ele>436.0</ele>
        <time>2018-12-30T11:08:54Z</time>
      </trkpt>
      <trkpt lat="39.8614210" lon="2.9165670">
        <ele>436.2</ele>
        <time>2018-12-30T11:08:55Z</time>
      </trkpt>
      <trkpt lat="39.8613780" lon="2.9165650">
        <ele>436.4</ele>
        <time>2018-12-30T11:08:56Z</time>
      </trkpt>
      <trkpt lat="39.8613360" lon="2.9165570">
        <ele>436.5</ele>
        <time>2018-12-30T11:08:57Z</time>
      </trkpt>
      <trkpt lat="39.8612950" lon="2.9165450">
        <ele>436.7</ele>
        <time>2018-12-30T11:08:58Z</time>
      </trkpt>
      <trkpt lat="39.8612550" lon="2.9165280">
        <ele>436.9</ele>
        <time>2018-12-30T11:08:59Z</time>
      </trkpt>
      <trkpt lat="39.8612170" lon="2.9165080">
        <ele>437.1</ele>
        <time>2018-12-30T11:09:00Z</time>
      </trkpt>
      <trkpt lat="39.8611810" lon="2.9164860">
        <ele>437.3</ele>
        <time>2018-12-30T11:09:01Z</time>
      </trkpt>
      <trkpt lat="39.8611470" lon="2.9164600">
        <ele>437.5</ele>
        <time>2018-12-30T11:09:02Z</time>
      </trkpt>
      <trkpt lat="39.8611170" lon="2.9164300">
        <ele>437.7</ele>
        <time>2018-12-30T11:09:03Z</time>
      </trkpt>
      <trkpt lat="39.8610910" lon="2.9163970">
        <ele>437.8</ele>
        <time>2018-12-30T11:09:04Z</time>
      </trkpt>
      <trkpt lat="39.8610690" lon="2.9163640">
        <ele>438.0</ele>
        <time>2018-12-30T11:09:05Z</time>
      </trkpt>
      <trkpt lat="39.8610490" lon="2.9163320">
        <ele>438.1</ele>
        <time>2018-12-30T11:09:06Z</time>
      </trkpt>
      <trkpt lat="39.8610310" lon="2.9162990">
        <ele>438.2</ele>
        <time>2018-12-30T11:09:07Z</time>
      </trkpt>
      <trkpt lat="39.8610140" lon="2.9162640">
        <ele>438.3</ele>
        <time>2018-12-30T11:09:08Z</time>
      </trkpt>
      <trkpt lat="39.8609980" lon="2.9162260">
        <ele>438.5</ele>
        <time>2018-12-30T11:09:09Z</time>
      </trkpt>
      <trkpt lat="39.8609820" lon="2.9161900">
        <ele>438.6</ele>
        <time>2018-12-30T11:09:10Z</time>
      </trkpt>
      <trkpt lat="39.8609640" lon="2.9161550">
        <ele>438.7</ele>
        <time>2018-12-30T11:09:11Z</time>
      </trkpt>
      <trkpt lat="39.8609480" lon="2.9161110">
        <ele>438.8</ele>
        <time>2018-12-30T11:09:12Z</time>
      </trkpt>
      <trkpt lat="39.8609280" lon="2.9160650">
        <ele>439.0</ele>
        <time>2018-12-30T11:09:13Z</time>
      </trkpt>
      <trkpt lat="39.8609040" lon="2.9160210">
        <ele>439.1</ele>
        <time>2018-12-30T11:09:14Z</time>
      </trkpt>
      <trkpt lat="39.8608760" lon="2.9159840">
        <ele>439.3</ele>
        <time>2018-12-30T11:09:15Z</time>
      </trkpt>
      <trkpt lat="39.8608470" lon="2.9159470">
        <ele>439.4</ele>
        <time>2018-12-30T11:09:16Z</time>
      </trkpt>
      <trkpt lat="39.8608160" lon="2.9159130">
        <ele>439.5</ele>
        <time>2018-12-30T11:09:17Z</time>
      </trkpt>
      <trkpt lat="39.8607830" lon="2.9158850">
        <ele>439.7</ele>
        <time>2018-12-30T11:09:18Z</time>
      </trkpt>
      <trkpt lat="39.8607500" lon="2.9158600">
        <ele>439.8</ele>
        <time>2018-12-30T11:09:19Z</time>
      </trkpt>
      <trkpt lat="39.8607170" lon="2.9158350">
        <ele>440.0</ele>
        <time>2018-12-30T11:09:20Z</time>
      </trkpt>
      <trkpt lat="39.8606820" lon="2.9158110">
        <ele>440.1</ele>
        <time>2018-12-30T11:09:21Z</time>
      </trkpt>
      <trkpt lat="39.8606470" lon="2.9157860">
        <ele>440.2</ele>
        <time>2018-12-30T11:09:22Z</time>
      </trkpt>
      <trkpt lat="39.8606120" lon="2.9157590">
        <ele>440.4</ele>
        <time>2018-12-30T11:09:23Z</time>
      </trkpt>
      <trkpt lat="39.8605770" lon="2.9157310">
        <ele>440.5</ele>
        <time>2018-12-30T11:09:24Z</time>
      </trkpt>
      <trkpt lat="39.8605420" lon="2.9157040">
        <ele>440.7</ele>
        <time>2018-12-30T11:09:25Z</time>
      </trkpt>
      <trkpt lat="39.8605080" lon="2.9156800">
        <ele>440.8</ele>
        <time>2018-12-30T11:09:26Z</time>
      </trkpt>
      <trkpt lat="39.8604750" lon="2.9156560">
        <ele>441.0</ele>
        <time>2018-12-30T11:09:27Z</time>
      </trkpt>
      <trkpt lat="39.8604410" lon="2.9156330">
        <ele>441.1</ele>
        <time>2018-12-30T11:09:28Z</time>
      </trkpt>
      <trkpt lat="39.8604060" lon="2.9156100">
        <ele>441.2</ele>
        <time>2018-12-30T11:09:29Z</time>
      </trkpt>
      <trkpt lat="39.8603720" lon="2.9155870">
        <ele>441.3</ele>
        <time>2018-12-30T11:09:30Z</time>
      </trkpt>
      <trkpt lat="39.8603380" lon="2.9155640">
        <ele>441.5</ele>
        <time>2018-12-30T11:09:31Z</time>
      </trkpt>
      <trkpt lat="39.8603040" lon="2.9155410">
        <ele>441.6</ele>
        <time>2018-12-30T11:09:32Z</time>
      </trkpt>
      <trkpt lat="39.8602700" lon="2.9155190">
        <ele>441.7</ele>
        <time>2018-12-30T11:09:33Z</time>
      </trkpt>
      <trkpt lat="39.8602350" lon="2.9154980">
        <ele>441.9</ele>
        <time>2018-12-30T11:09:34Z</time>
      </trkpt>
      <trkpt lat="39.8602000" lon="2.9154790">
        <ele>442.0</ele>
        <time>2018-12-30T11:09:35Z</time>
      </trkpt>
      <trkpt lat="39.8601640" lon="2.9154630">
        <ele>442.1</ele>
        <time>2018-12-30T11:09:36Z</time>
      </trkpt>
      <trkpt lat="39.8601280" lon="2.9154510">
        <ele>442.3</ele>
        <time>2018-12-30T11:09:37Z</time>
      </trkpt>
      <trkpt lat="39.8600910" lon="2.9154440">
        <ele>442.4</ele>
        <time>2018-12-30T11:09:38Z</time>
      </trkpt>
      <trkpt lat="39.8600540" lon="2.9154410">
        <ele>442.5</ele>
        <time>2018-12-30T11:09:39Z</time>
      </trkpt>
      <trkpt lat="39.8600170" lon="2.9154420">
        <ele>442.6</ele>
        <time>2018-12-30T11:09:40Z</time>
      </trkpt>
      <trkpt lat="39.8599820" lon="2.9154460">
        <ele>442.8</ele>
        <time>2018-12-30T11:09:41Z</time>
      </trkpt>
      <trkpt lat="39.8599470" lon="2.9154520">
        <ele>442.9</ele>
        <time>2018-12-30T11:09:42Z</time>
      </trkpt>
      <trkpt lat="39.8599110" lon="2.9154610">
        <ele>443.0</ele>
        <time>2018-12-30T11:09:43Z</time>
      </trkpt>
      <trkpt lat="39.8598720" lon="2.9154710">
        <ele>443.2</ele>
        <time>2018-12-30T11:09:44Z</time>
      </trkpt>
      <trkpt lat="39.8598320" lon="2.9154810">
        <ele>443.3</ele>
        <time>2018-12-30T11:09:45Z</time>
      </trkpt>
      <trkpt lat="39.8597920" lon="2.9154910">
        <ele>443.5</ele>
        <time>2018-12-30T11:09:46Z</time>
      </trkpt>
      <trkpt lat="39.8597530" lon="2.9154990">
        <ele>443.7</ele>
        <time>2018-12-30T11:09:47Z</time>
      </trkpt>
      <trkpt lat="39.8597140" lon="2.9155060">
        <ele>443.9</ele>
        <time>2018-12-30T11:09:48Z</time>
      </trkpt>
      <trkpt lat="39.8596750" lon="2.9155110">
        <ele>444.1</ele>
        <time>2018-12-30T11:09:49Z</time>
      </trkpt>
      <trkpt lat="39.8596350" lon="2.9155120">
        <ele>444.3</ele>
        <time>2018-12-30T11:09:50Z</time>
      </trkpt>
      <trkpt lat="39.8595950" lon="2.9155060">
        <ele>444.5</ele>
        <time>2018-12-30T11:09:51Z</time>
      </trkpt>
      <trkpt lat="39.8595570" lon="2.9154900">
        <ele>444.8</ele>
        <time>2018-12-30T11:09:52Z</time>
      </trkpt>
      <trkpt lat="39.8595230" lon="2.9154650">
        <ele>445.0</ele>
        <time>2018-12-30T11:09:53Z</time>
      </trkpt>
      <trkpt lat="39.8594900" lon="2.9154350">
        <ele>445.3</ele>
        <time>2018-12-30T11:09:54Z</time>
      </trkpt>
      <trkpt lat="39.8594600" lon="2.9154030">
        <ele>445.4</ele>
        <time>2018-12-30T11:09:55Z</time>
      </trkpt>
      <trkpt lat="39.8594330" lon="2.9153650">
        <ele>445.5</ele>
        <time>2018-12-30T11:09:56Z</time>
      </trkpt>
      <trkpt lat="39.8594090" lon="2.9153210">
        <ele>445.5</ele>
        <time>2018-12-30T11:09:57Z</time>
      </trkpt>
      <trkpt lat="39.8593880" lon="2.9152740">
        <ele>445.6</ele>
        <time>2018-12-30T11:09:58Z</time>
      </trkpt>
      <trkpt lat="39.8593680" lon="2.9152280">
        <ele>445.7</ele>
        <time>2018-12-30T11:09:59Z</time>
      </trkpt>
      <trkpt lat="39.8593470" lon="2.9151820">
        <ele>445.8</ele>
        <time>2018-12-30T11:10:00Z</time>
      </trkpt>
      <trkpt lat="39.8593260" lon="2.9151350">
        <ele>445.9</ele>
        <time>2018-12-30T11:10:01Z</time>
      </trkpt>
      <trkpt lat="39.8593030" lon="2.9150860">
        <ele>445.9</ele>
        <time>2018-12-30T11:10:02Z</time>
      </trkpt>
      <trkpt lat="39.8592800" lon="2.9150360">
        <ele>446.0</ele>
        <time>2018-12-30T11:10:03Z</time>
      </trkpt>
      <trkpt lat="39.8592530" lon="2.9149860">
        <ele>446.1</ele>
        <time>2018-12-30T11:10:04Z</time>
      </trkpt>
      <trkpt lat="39.8592240" lon="2.9149350">
        <ele>446.2</ele>
        <time>2018-12-30T11:10:05Z</time>
      </trkpt>
      <trkpt lat="39.8591930" lon="2.9148860">
        <ele>446.3</ele>
        <time>2018-12-30T11:10:06Z</time>
      </trkpt>
      <trkpt lat="39.8591610" lon="2.9148380">
        <ele>446.4</ele>
        <time>2018-12-30T11:10:07Z</time>
      </trkpt>
      <trkpt lat="39.8591260" lon="2.9147920">
        <ele>446.4</ele>
        <time>2018-12-30T11:10:08Z</time>
      </trkpt>
      <trkpt lat="39.8590870" lon="2.9147440">
        <ele>446.6</ele>
        <time>2018-12-30T11:10:09Z</time>
      </trkpt>
      <trkpt lat="39.8590470" lon="2.9146940">
        <ele>446.7</ele>
        <time>2018-12-30T11:10:10Z</time>
      </trkpt>
      <trkpt lat="39.8590060" lon="2.9146420">
        <ele>446.8</ele>
        <time>2018-12-30T11:10:11Z</time>
      </trkpt>
      <trkpt lat="39.8589620" lon="2.9145930">
        <ele>447.0</ele>
        <time>2018-12-30T11:10:12Z</time>
      </trkpt>
      <trkpt lat="39.8589130" lon="2.9145450">
        <ele>447.2</ele>
        <time>2018-12-30T11:10:13Z</time>
      </trkpt>
      <trkpt lat="39.8588590" lon="2.9145010">
        <ele>447.4</ele>
        <time>2018-12-30T11:10:14Z</time>
      </trkpt>
      <trkpt lat="39.8588030" lon="2.9144570">
        <ele>447.6</ele>
        <time>2018-12-30T11:10:15Z</time>
      </trkpt>
      <trkpt lat="39.8587450" lon="2.9144160">
        <ele>447.8</ele>
        <time>2018-12-30T11:10:16Z</time>
      </trkpt>
      <trkpt lat="39.8586870" lon="2.9143750">
        <ele>448.0</ele>
        <time>2018-12-30T11:10:17Z</time>
      </trkpt>
      <trkpt lat="39.8586300" lon="2.9143350">
        <ele>448.3</ele>
        <time>2018-12-30T11:10:18Z</time>
      </trkpt>
      <trkpt lat="39.8585720" lon="2.9142960">
        <ele>448.5</ele>
        <time>2018-12-30T11:10:19Z</time>
      </trkpt>
      <trkpt lat="39.8585150" lon="2.9142600">
        <ele>448.7</ele>
        <time>2018-12-30T11:10:20Z</time>
      </trkpt>
      <trkpt lat="39.8584580" lon="2.9142250">
        <ele>449.0</ele>
        <time>2018-12-30T11:10:21Z</time>
      </trkpt>
      <trkpt lat="39.8584020" lon="2.9141910">
        <ele>449.2</ele>
        <time>2018-12-30T11:10:22Z</time>
      </trkpt>
      <trkpt lat="39.8583470" lon="2.9141570">
        <ele>449.4</ele>
        <time>2018-12-30T11:10:23Z</time>
      </trkpt>
      <trkpt lat="39.8582930" lon="2.9141230">
        <ele>449.5</ele>
        <time>2018-12-30T11:10:24Z</time>
      </trkpt>
      <trkpt lat="39.8582400" lon="2.9140900">
        <ele>449.7</ele>
        <time>2018-12-30T11:10:25Z</time>
      </trkpt>
      <trkpt lat="39.8581860" lon="2.9140620">
        <ele>449.9</ele>
        <time>2018-12-30T11:10:26Z</time>
      </trkpt>
      <trkpt lat="39.8581300" lon="2.9140410">
        <ele>450.0</ele>
        <time>2018-12-30T11:10:27Z</time>
      </trkpt>
      <trkpt lat="39.8580720" lon="2.9140290">
        <ele>450.2</ele>
        <time>2018-12-30T11:10:28Z</time>
      </trkpt>
      <trkpt lat="39.8580150" lon="2.9140230">
        <ele>450.3</ele>
        <time>2018-12-30T11:10:29Z</time>
      </trkpt>
      <trkpt lat="39.8579570" lon="2.9140220">
        <ele>450.5</ele>
        <time>2018-12-30T11:10:30Z</time>
      </trkpt>
      <trkpt lat="39.8579010" lon="2.9140230">
        <ele>450.7</ele>
        <time>2018-12-30T11:10:31Z</time>
      </trkpt>
      <trkpt lat="39.8578450" lon="2.9140260">
        <ele>450.9</ele>
        <time>2018-12-30T11:10:32Z</time>
      </trkpt>
      <trkpt lat="39.8577890" lon="2.9140300">
        <ele>451.1</ele>
        <time>2018-12-30T11:10:33Z</time>
      </trkpt>
      <trkpt lat="39.8577330" lon="2.9140350">
        <ele>451.4</ele>
        <time>2018-12-30T11:10:34Z</time>
      </trkpt>
      <trkpt lat="39.8576760" lon="2.9140410">
        <ele>451.6</ele>
        <time>2018-12-30T11:10:35Z</time>
      </trkpt>
      <trkpt lat="39.8576200" lon="2.9140460">
        <ele>451.9</ele>
        <time>2018-12-30T11:10:36Z</time>
      </trkpt>
      <trkpt lat="39.8575640" lon="2.9140510">
        <ele>452.1</ele>
        <time>2018-12-30T11:10:37Z</time>
      </trkpt>
      <trkpt lat="39.8575060" lon="2.9140560">
        <ele>452.3</ele>
        <time>2018-12-30T11:10:38Z</time>
      </trkpt>
      <trkpt lat="39.8574480" lon="2.9140600">
        <ele>452.6</ele>
        <time>2018-12-30T11:10:39Z</time>
      </trkpt>
      <trkpt lat="39.8573890" lon="2.9140630">
        <ele>452.8</ele>
        <time>2018-12-30T11:10:40Z</time>
      </trkpt>
      <trkpt lat="39.8573310" lon="2.9140630">
        <ele>453.1</ele>
        <time>2018-12-30T11:10:41Z</time>
      </trkpt>
      <trkpt lat="39.8572730" lon="2.9140600">
        <ele>453.3</ele>
        <time>2018-12-30T11:10:42Z</time>
      </trkpt>
      <trkpt lat="39.8572160" lon="2.9140500">
        <ele>453.5</ele>
        <time>2018-12-30T11:10:43Z</time>
      </trkpt>
      <trkpt lat="39.8571610" lon="2.9140260">
        <ele>453.8</ele>
        <time>2018-12-30T11:10:44Z</time>
      </trkpt>
      <trkpt lat="39.8571090" lon="2.9139900">
        <ele>454.0</ele>
        <time>2018-12-30T11:10:45Z</time>
      </trkpt>
      <trkpt lat="39.8570620" lon="2.9139400">
        <ele>454.3</ele>
        <time>2018-12-30T11:10:46Z</time>
      </trkpt>
      <trkpt lat="39.8570190" lon="2.9138850">
        <ele>454.6</ele>
        <time>2018-12-30T11:10:47Z</time>
      </trkpt>
      <trkpt lat="39.8569800" lon="2.9138260">
        <ele>454.8</ele>
        <time>2018-12-30T11:10:48Z</time>
      </trkpt>
      <trkpt lat="39.8569430" lon="2.9137660">
        <ele>455.0</ele>
        <time>2018-12-30T11:10:49Z</time>
      </trkpt>
      <trkpt lat="39.8569060" lon="2.9137060">
        <ele>455.2</ele>
        <time>2018-12-30T11:10:50Z</time>
      </trkpt>
      <trkpt lat="39.8568710" lon="2.9136450">
        <ele>455.4</ele>
        <time>2018-12-30T11:10:51Z</time>
      </trkpt>
      <trkpt lat="39.8568360" lon="2.9135850">
        <ele>455.6</ele>
        <time>2018-12-30T11:10:52Z</time>
      </trkpt>
      <trkpt lat="39.8568030" lon="2.9135250">
        <ele>455.7</ele>
        <time>2018-12-30T11:10:53Z</time>
      </trkpt>
      <trkpt lat="39.8567710" lon="2.9134650">
        <ele>455.8</ele>
        <time>2018-12-30T11:10:54Z</time>
      </trkpt>
      <trkpt lat="39.8567430" lon="2.9134020">
        <ele>456.0</ele>
        <time>2018-12-30T11:10:55Z</time>
      </trkpt>
      <trkpt lat="39.8567210" lon="2.9133350">
        <ele>456.1</ele>
        <time>2018-12-30T11:10:56Z</time>
      </trkpt>
      <trkpt lat="39.8567070" lon="2.9132650">
        <ele>456.2</ele>
        <time>2018-12-30T11:10:57Z</time>
      </trkpt>
      <trkpt lat="39.8567010" lon="2.9131930">
        <ele>456.4</ele>
        <time>2018-12-30T11:10:58Z</time>
      </trkpt>
      <trkpt lat="39.8567060" lon="2.9131210">
        <ele>456.5</ele>
        <time>2018-12-30T11:10:59Z</time>
      </trkpt>
      <trkpt lat="39.8567200" lon="2.9130540">
        <ele>456.7</ele>
        <time>2018-12-30T11:11:00Z</time>
      </trkpt>
      <trkpt lat="39.8567410" lon="2.9129920">
        <ele>456.9</ele>
        <time>2018-12-30T11:11:01Z</time>
      </trkpt>
      <trkpt lat="39.8567640" lon="2.9129330">
        <ele>457.1</ele>
        <time>2018-12-30T11:11:02Z</time>
      </trkpt>
      <trkpt lat="39.8567870" lon="2.9128730">
        <ele>457.3</ele>
        <time>2018-12-30T11:11:03Z</time>
      </trkpt>
      <trkpt lat="39.8568120" lon="2.9128130">
        <ele>457.5</ele>
        <time>2018-12-30T11:11:04Z</time>
      </trkpt>
      <trkpt lat="39.8568390" lon="2.9127560">
        <ele>457.8</ele>
        <time>2018-12-30T11:11:05Z</time>
      </trkpt>
      <trkpt lat="39.8568690" lon="2.9127010">
        <ele>458.1</ele>
        <time>2018-12-30T11:11:06Z</time>
      </trkpt>
      <trkpt lat="39.8569000" lon="2.9126460">
        <ele>458.5</ele>
        <time>2018-12-30T11:11:07Z</time>
      </trkpt>
      <trkpt lat="39.8569310" lon="2.9125900">
        <ele>458.8</ele>
        <time>2018-12-30T11:11:08Z</time>
      </trkpt>
      <trkpt lat="39.8569650" lon="2.9125350">
        <ele>459.3</ele>
        <time>2018-12-30T11:11:09Z</time>
      </trkpt>
      <trkpt lat="39.8570010" lon="2.9124810">
        <ele>459.7</ele>
        <time>2018-12-30T11:11:10Z</time>
      </trkpt>
      <trkpt lat="39.8570410" lon="2.9124300">
        <ele>460.1</ele>
        <time>2018-12-30T11:11:11Z</time>
      </trkpt>
      <trkpt lat="39.8570830" lon="2.9123820">
        <ele>460.6</ele>
        <time>2018-12-30T11:11:12Z</time>
      </trkpt>
      <trkpt lat="39.8571280" lon="2.9123360">
        <ele>461.1</ele>
        <time>2018-12-30T11:11:13Z</time>
      </trkpt>
      <trkpt lat="39.8571740" lon="2.9122890">
        <ele>461.7</ele>
        <time>2018-12-30T11:11:14Z</time>
      </trkpt>
      <trkpt lat="39.8572200" lon="2.9122420">
        <ele>462.2</ele>
        <time>2018-12-30T11:11:15Z</time>
      </trkpt>
      <trkpt lat="39.8572660" lon="2.9121940">
        <ele>462.8</ele>
        <time>2018-12-30T11:11:16Z</time>
      </trkpt>
      <trkpt lat="39.8573110" lon="2.9121460">
        <ele>463.3</ele>
        <time>2018-12-30T11:11:17Z</time>
      </trkpt>
      <trkpt lat="39.8573570" lon="2.9120980">
        <ele>463.8</ele>
        <time>2018-12-30T11:11:18Z</time>
      </trkpt>
      <trkpt lat="39.8574030" lon="2.9120500">
        <ele>464.3</ele>
        <time>2018-12-30T11:11:19Z</time>
      </trkpt>
      <trkpt lat="39.8574490" lon="2.9120020">
        <ele>464.8</ele>
        <time>2018-12-30T11:11:20Z</time>
      </trkpt>
      <trkpt lat="39.8574950" lon="2.9119540">
        <ele>465.3</ele>
        <time>2018-12-30T11:11:21Z</time>
      </trkpt>
      <trkpt lat="39.8575420" lon="2.9119060">
        <ele>465.7</ele>
        <time>2018-12-30T11:11:22Z</time>
      </trkpt>
      <trkpt lat="39.8575880" lon="2.9118590">
        <ele>466.2</ele>
        <time>2018-12-30T11:11:23Z</time>
      </trkpt>
      <trkpt lat="39.8576320" lon="2.9118130">
        <ele>466.6</ele>
        <time>2018-12-30T11:11:24Z</time>
      </trkpt>
      <trkpt lat="39.8576750" lon="2.9117680">
        <ele>467.0</ele>
        <time>2018-12-30T11:11:25Z</time>
      </trkpt>
      <trkpt lat="39.8577160" lon="2.9117250">
        <ele>467.3</ele>
        <time>2018-12-30T11:11:26Z</time>
      </trkpt>
      <trkpt lat="39.8577560" lon="2.9116840">
        <ele>467.7</ele>
        <time>2018-12-30T11:11:27Z</time>
      </trkpt>
      <trkpt lat="39.8577940" lon="2.9116440">
        <ele>468.0</ele>
        <time>2018-12-30T11:11:28Z</time>
      </trkpt>
      <trkpt lat="39.8578320" lon="2.9116070">
        <ele>468.3</ele>
        <time>2018-12-30T11:11:29Z</time>
      </trkpt>
      <trkpt lat="39.8578670" lon="2.9115700">
        <ele>468.6</ele>
        <time>2018-12-30T11:11:30Z</time>
      </trkpt>
      <trkpt lat="39.8579010" lon="2.9115370">
        <ele>468.9</ele>
        <time>2018-12-30T11:11:31Z</time>
      </trkpt>
      <trkpt lat="39.8579340" lon="2.9115040">
        <ele>469.2</ele>
        <time>2018-12-30T11:11:32Z</time>
      </trkpt>
      <trkpt lat="39.8579650" lon="2.9114700">
        <ele>469.5</ele>
        <time>2018-12-30T11:11:33Z</time>
      </trkpt>
      <trkpt lat="39.8579950" lon="2.9114360">
        <ele>469.7</ele>
        <time>2018-12-30T11:11:34Z</time>
      </trkpt>
      <trkpt lat="39.8580240" lon="2.9114030">
        <ele>470.0</ele>
        <time>2018-12-30T11:11:35Z</time>
      </trkpt>
      <trkpt lat="39.8580540" lon="2.9113710">
        <ele>470.2</ele>
        <time>2018-12-30T11:11:36Z</time>
      </trkpt>
      <trkpt lat="39.8580840" lon="2.9113400">
        <ele>470.5</ele>
        <time>2018-12-30T11:11:37Z</time>
      </trkpt>
      <trkpt lat="39.8581140" lon="2.9113100">
        <ele>470.8</ele>
        <time>2018-12-30T11:11:38Z</time>
      </trkpt>
      <trkpt lat="39.8581440" lon="2.9112800">
        <ele>471.1</ele>
        <time>2018-12-30T11:11:39Z</time>
      </trkpt>
      <trkpt lat="39.8581750" lon="2.9112510">
        <ele>471.3</ele>
        <time>2018-12-30T11:11:40Z</time>
      </trkpt>
      <trkpt lat="39.8582050" lon="2.9112200">
        <ele>471.6</ele>
        <time>2018-12-30T11:11:41Z</time>
      </trkpt>
      <trkpt lat="39.8582340" lon="2.9111890">
        <ele>471.9</ele>
        <time>2018-12-30T11:11:42Z</time>
      </trkpt>
      <trkpt lat="39.8582620" lon="2.9111590">
        <ele>472.2</ele>
        <time>2018-12-30T11:11:43Z</time>
      </trkpt>
      <trkpt lat="39.8582900" lon="2.9111300">
        <ele>472.5</ele>
        <time>2018-12-30T11:11:44Z</time>
      </trkpt>
      <trkpt lat="39.8583180" lon="2.9111020">
        <ele>472.8</ele>
        <time>2018-12-30T11:11:45Z</time>
      </trkpt>
      <trkpt lat="39.8583450" lon="2.9110740">
        <ele>473.0</ele>
        <time>2018-12-30T11:11:46Z</time>
      </trkpt>
      <trkpt lat="39.8583700" lon="2.9110470">
        <ele>473.3</ele>
        <time>2018-12-30T11:11:47Z</time>
      </trkpt>
      <trkpt lat="39.8583930" lon="2.9110180">
        <ele>473.6</ele>
        <time>2018-12-30T11:11:48Z</time>
      </trkpt>
      <trkpt lat="39.8584150" lon="2.9109870">
        <ele>473.9</ele>
        <time>2018-12-30T11:11:49Z</time>
      </trkpt>
      <trkpt lat="39.8584330" lon="2.9109540">
        <ele>474.1</ele>
        <time>2018-12-30T11:11:50Z</time>
      </trkpt>
      <trkpt lat="39.8584480" lon="2.9109200">
        <ele>474.4</ele>
        <time>2018-12-30T11:11:51Z</time>
      </trkpt>
      <trkpt lat="39.8584610" lon="2.9108850">
        <ele>474.7</ele>
        <time>2018-12-30T11:11:52Z</time>
      </trkpt>
      <trkpt lat="39.8584720" lon="2.9108470">
        <ele>474.9</ele>
        <time>2018-12-30T11:11:53Z</time>
      </trkpt>
      <trkpt lat="39.8584800" lon="2.9108080">
        <ele>475.2</ele>
        <time>2018-12-30T11:11:54Z</time>
      </trkpt>
      <trkpt lat="39.8584850" lon="2.9107680">
        <ele>475.5</ele>
        <time>2018-12-30T11:11:55Z</time>
      </trkpt>
      <trkpt lat="39.8584880" lon="2.9107280">
        <ele>475.8</ele>
        <time>2018-12-30T11:11:56Z</time>
      </trkpt>
      <trkpt lat="39.8584900" lon="2.9106890">
        <ele>476.1</ele>
        <time>2018-12-30T11:11:57Z</time>
      </trkpt>
      <trkpt lat="39.8584880" lon="2.9106520">
        <ele>476.4</ele>
        <time>2018-12-30T11:11:58Z</time>
      </trkpt>
      <trkpt lat="39.8584820" lon="2.9106220">
        <ele>476.6</ele>
        <time>2018-12-30T11:11:59Z</time>
      </trkpt>
      <trkpt lat="39.8584670" lon="2.9105930">
        <ele>476.9</ele>
        <time>2018-12-30T11:12:00Z</time>
      </trkpt>
      <trkpt lat="39.8584400" lon="2.9105720">
        <ele>477.2</ele>
        <time>2018-12-30T11:12:01Z</time>
      </trkpt>
      <trkpt lat="39.8584090" lon="2.9105490">
        <ele>477.6</ele>
        <time>2018-12-30T11:12:02Z</time>
      </trkpt>
      <trkpt lat="39.8583780" lon="2.9105330">
        <ele>477.9</ele>
        <time>2018-12-30T11:12:03Z</time>
      </trkpt>
      <trkpt lat="39.8583500" lon="2.9105170">
        <ele>478.2</ele>
        <time>2018-12-30T11:12:04Z</time>
      </trkpt>
      <trkpt lat="39.8583210" lon="2.9105060">
        <ele>478.5</ele>
        <time>2018-12-30T11:12:05Z</time>
      </trkpt>
      <trkpt lat="39.8582910" lon="2.9104960">
        <ele>478.8</ele>
        <time>2018-12-30T11:12:06Z</time>
      </trkpt>
      <trkpt lat="39.8582620" lon="2.9104890">
        <ele>479.1</ele>
        <time>2018-12-30T11:12:07Z</time>
      </trkpt>
      <trkpt lat="39.8582370" lon="2.9104830">
        <ele>479.3</ele>
        <time>2018-12-30T11:12:08Z</time>
      </trkpt>
      <trkpt lat="39.8582160" lon="2.9104790">
        <ele>479.5</ele>
        <time>2018-12-30T11:12:09Z</time>
      </trkpt>
      <trkpt lat="39.8581960" lon="2.9104760">
        <ele>479.6</ele>
        <time>2018-12-30T11:12:10Z</time>
      </trkpt>
      <trkpt lat="39.8581740" lon="2.9104740">
        <ele>479.8</ele>
        <time>2018-12-30T11:12:11Z</time>
      </trkpt>
      <trkpt lat="39.8581470" lon="2.9104720">
        <ele>480.1</ele>
        <time>2018-12-30T11:12:12Z</time>
      </trkpt>
      <trkpt lat="39.8581170" lon="2.9104720">
        <ele>480.3</ele>
        <time>2018-12-30T11:12:13Z</time>
      </trkpt>
      <trkpt lat="39.8580850" lon="2.9104710">
        <ele>480.6</ele>
        <time>2018-12-30T11:12:14Z</time>
      </trkpt>
      <trkpt lat="39.8580550" lon="2.9104710">
        <ele>480.8</ele>
        <time>2018-12-30T11:12:15Z</time>
      </trkpt>
      <trkpt lat="39.8580250" lon="2.9104700">
        <ele>481.1</ele>
        <time>2018-12-30T11:12:16Z</time>
      </trkpt>
      <trkpt lat="39.8579950" lon="2.9104700">
        <ele>481.3</ele>
        <time>2018-12-30T11:12:17Z</time>
      </trkpt>
      <trkpt lat="39.8579650" lon="2.9104700">
        <ele>481.6</ele>
        <time>2018-12-30T11:12:18Z</time>
      </trkpt>
      <trkpt lat="39.8579370" lon="2.9104720">
        <ele>481.8</ele>
        <time>2018-12-30T11:12:19Z</time>
      </trkpt>
      <trkpt lat="39.8579080" lon="2.9104730">
        <ele>482.0</ele>
        <time>2018-12-30T11:12:20Z</time>
      </trkpt>
      <trkpt lat="39.8578800" lon="2.9104730">
        <ele>482.3</ele>
        <time>2018-12-30T11:12:21Z</time>
      </trkpt>
      <trkpt lat="39.8578510" lon="2.9104730">
        <ele>482.5</ele>
        <time>2018-12-30T11:12:22Z</time>
      </trkpt>
      <trkpt lat="39.8578230" lon="2.9104730">
        <ele>482.7</ele>
        <time>2018-12-30T11:12:23Z</time>
      </trkpt>
      <trkpt lat="39.8577940" lon="2.9104730">
        <ele>482.9</ele>
        <time>2018-12-30T11:12:24Z</time>
      </trkpt>
      <trkpt lat="39.8577660" lon="2.9104710">
        <ele>483.2</ele>
        <time>2018-12-30T11:12:25Z</time>
      </trkpt>
      <trkpt lat="39.8577370" lon="2.9104680">
        <ele>483.4</ele>
        <time>2018-12-30T11:12:26Z</time>
      </trkpt>
      <trkpt lat="39.8577090" lon="2.9104650">
        <ele>483.6</ele>
        <time>2018-12-30T11:12:27Z</time>
      </trkpt>
      <trkpt lat="39.8576810" lon="2.9104630">
        <ele>483.8</ele>
        <time>2018-12-30T11:12:28Z</time>
      </trkpt>
      <trkpt lat="39.8576520" lon="2.9104600">
        <ele>484.0</ele>
        <time>2018-12-30T11:12:29Z</time>
      </trkpt>
      <trkpt lat="39.8576240" lon="2.9104580">
        <ele>484.2</ele>
        <time>2018-12-30T11:12:30Z</time>
      </trkpt>
      <trkpt lat="39.8575950" lon="2.9104540">
        <ele>484.4</ele>
        <time>2018-12-30T11:12:31Z</time>
      </trkpt>
      <trkpt lat="39.8575670" lon="2.9104480">
        <ele>484.6</ele>
        <time>2018-12-30T11:12:32Z</time>
      </trkpt>
      <trkpt lat="39.8575390" lon="2.9104400">
        <ele>484.8</ele>
        <time>2018-12-30T11:12:33Z</time>
      </trkpt>
      <trkpt lat="39.8575090" lon="2.9104340">
        <ele>485.0</ele>
        <time>2018-12-30T11:12:34Z</time>
      </trkpt>
      <trkpt lat="39.8574780" lon="2.9104300">
        <ele>485.2</ele>
        <time>2018-12-30T11:12:35Z</time>
      </trkpt>
      <trkpt lat="39.8574460" lon="2.9104240">
        <ele>485.4</ele>
        <time>2018-12-30T11:12:36Z</time>
      </trkpt>
      <trkpt lat="39.8574150" lon="2.9104170">
        <ele>485.5</ele>
        <time>2018-12-30T11:12:37Z</time>
      </trkpt>
      <trkpt lat="39.8573830" lon="2.9104110">
        <ele>485.7</ele>
        <time>2018-12-30T11:12:38Z</time>
      </trkpt>
      <trkpt lat="39.8573500" lon="2.9104060">
        <ele>485.9</ele>
        <time>2018-12-30T11:12:39Z</time>
      </trkpt>
      <trkpt lat="39.8573190" lon="2.9104020">
        <ele>486.0</ele>
        <time>2018-12-30T11:12:40Z</time>
      </trkpt>
      <trkpt lat="39.8572880" lon="2.9103970">
        <ele>486.1</ele>
        <time>2018-12-30T11:12:41Z</time>
      </trkpt>
      <trkpt lat="39.8572570" lon="2.9103930">
        <ele>486.3</ele>
        <time>2018-12-30T11:12:42Z</time>
      </trkpt>
      <trkpt lat="39.8572270" lon="2.9103890">
        <ele>486.4</ele>
        <time>2018-12-30T11:12:43Z</time>
      </trkpt>
      <trkpt lat="39.8571960" lon="2.9103850">
        <ele>486.5</ele>
        <time>2018-12-30T11:12:44Z</time>
      </trkpt>
      <trkpt lat="39.8571650" lon="2.9103810">
        <ele>486.6</ele>
        <time>2018-12-30T11:12:45Z</time>
      </trkpt>
      <trkpt lat="39.8571340" lon="2.9103750">
        <ele>486.7</ele>
        <time>2018-12-30T11:12:46Z</time>
      </trkpt>
      <trkpt lat="39.8571030" lon="2.9103680">
        <ele>486.8</ele>
        <time>2018-12-30T11:12:47Z</time>
      </trkpt>
      <trkpt lat="39.8570730" lon="2.9103590">
        <ele>486.9</ele>
        <time>2018-12-30T11:12:48Z</time>
      </trkpt>
      <trkpt lat="39.8570440" lon="2.9103500">
        <ele>486.9</ele>
        <time>2018-12-30T11:12:49Z</time>
      </trkpt>
      <trkpt lat="39.8570150" lon="2.9103390">
        <ele>487.0</ele>
        <time>2018-12-30T11:12:50Z</time>
      </trkpt>
      <trkpt lat="39.8569860" lon="2.9103270">
        <ele>487.1</ele>
        <time>2018-12-30T11:12:51Z</time>
      </trkpt>
      <trkpt lat="39.8569580" lon="2.9103140">
        <ele>487.1</ele>
        <time>2018-12-30T11:12:52Z</time>
      </trkpt>
      <trkpt lat="39.8569280" lon="2.9103010">
        <ele>487.2</ele>
        <time>2018-12-30T11:12:53Z</time>
      </trkpt>
      <trkpt lat="39.8569000" lon="2.9102860">
        <ele>487.2</ele>
        <time>2018-12-30T11:12:54Z</time>
      </trkpt>
      <trkpt lat="39.8568720" lon="2.9102700">
        <ele>487.3</ele>
        <time>2018-12-30T11:12:55Z</time>
      </trkpt>
      <trkpt lat="39.8568450" lon="2.9102530">
        <ele>487.3</ele>
        <time>2018-12-30T11:12:56Z</time>
      </trkpt>
      <trkpt lat="39.8568190" lon="2.9102350">
        <ele>487.3</ele>
        <time>2018-12-30T11:12:57Z</time>
      </trkpt>
      <trkpt lat="39.8567940" lon="2.9102160">
        <ele>487.4</ele>
        <time>2018-12-30T11:12:58Z</time>
      </trkpt>
      <trkpt lat="39.8567700" lon="2.9101940">
        <ele>487.4</ele>
        <time>2018-12-30T11:12:59Z</time>
      </trkpt>
      <trkpt lat="39.8567450" lon="2.9101700">
        <ele>487.4</ele>
        <time>2018-12-30T11:13:00Z</time>
      </trkpt>
      <trkpt lat="39.8567210" lon="2.9101450">
        <ele>487.4</ele>
        <time>2018-12-30T11:13:01Z</time>
      </trkpt>
      <trkpt lat="39.8566960" lon="2.9101210">
        <ele>487.5</ele>
        <time>2018-12-30T11:13:02Z</time>
      </trkpt>
      <trkpt lat="39.8566720" lon="2.9100990">
        <ele>487.5</ele>
        <time>2018-12-30T11:13:03Z</time>
      </trkpt>
      <trkpt lat="39.8566480" lon="2.9100760">
        <ele>487.5</ele>
        <time>2018-12-30T11:13:04Z</time>
      </trkpt>
      <trkpt lat="39.8566220" lon="2.9100500">
        <ele>487.5</ele>
        <time>2018-12-30T11:13:05Z</time>
      </trkpt>
      <trkpt lat="39.8565960" lon="2.9100230">
        <ele>487.5</ele>
        <time>2018-12-30T11:13:06Z</time>
      </trkpt>
      <trkpt lat="39.8565700" lon="2.9099960">
        <ele>487.5</ele>
        <time>2018-12-30T11:13:07Z</time>
      </trkpt>
      <trkpt lat="39.8565460" lon="2.9099710">
        <ele>487.6</ele>
        <time>2018-12-30T11:13:08Z</time>
      </trkpt>
      <trkpt lat="39.8565220" lon="2.9099450">
        <ele>487.6</ele>
        <time>2018-12-30T11:13:09Z</time>
      </trkpt>
      <trkpt lat="39.8564970" lon="2.9099180">
        <ele>487.6</ele>
        <time>2018-12-30T11:13:10Z</time>
      </trkpt>
      <trkpt lat="39.8564720" lon="2.9098900">
        <ele>487.7</ele>
        <time>2018-12-30T11:13:11Z</time>
      </trkpt>
      <trkpt lat="39.8564480" lon="2.9098600">
        <ele>487.7</ele>
        <time>2018-12-30T11:13:12Z</time>
      </trkpt>
      <trkpt lat="39.8564250" lon="2.9098300">
        <ele>487.7</ele>
        <time>2018-12-30T11:13:13Z</time>
      </trkpt>
      <trkpt lat="39.8564020" lon="2.9098020">
        <ele>487.8</ele>
        <time>2018-12-30T11:13:14Z</time>
      </trkpt>
      <trkpt lat="39.8563800" lon="2.9097730">
        <ele>487.8</ele>
        <time>2018-12-30T11:13:15Z</time>
      </trkpt>
      <trkpt lat="39.8563560" lon="2.9097470">
        <ele>487.9</ele>
        <time>2018-12-30T11:13:16Z</time>
      </trkpt>
      <trkpt lat="39.8563310" lon="2.9097200">
        <ele>487.9</ele>
        <time>2018-12-30T11:13:17Z</time>
      </trkpt>
      <trkpt lat="39.8563050" lon="2.9096960">
        <ele>488.0</ele>
        <time>2018-12-30T11:13:18Z</time>
      </trkpt>
      <trkpt lat="39.8562780" lon="2.9096700">
        <ele>488.1</ele>
        <time>2018-12-30T11:13:19Z</time>
      </trkpt>
      <trkpt lat="39.8562510" lon="2.9096440">
        <ele>488.2</ele>
        <time>2018-12-30T11:13:20Z</time>
      </trkpt>
      <trkpt lat="39.8562230" lon="2.9096190">
        <ele>488.3</ele>
        <time>2018-12-30T11:13:21Z</time>
      </trkpt>
      <trkpt lat="39.8561950" lon="2.9095920">
        <ele>488.4</ele>
        <time>2018-12-30T11:13:22Z</time>
      </trkpt>
      <trkpt lat="39.8561660" lon="2.9095610">
        <ele>488.5</ele>
        <time>2018-12-30T11:13:23Z</time>
      </trkpt>
      <trkpt lat="39.8561370" lon="2.9095270">
        <ele>488.6</ele>
        <time>2018-12-30T11:13:24Z</time>
      </trkpt>
      <trkpt lat="39.8561060" lon="2.9094910">
        <ele>488.8</ele>
        <time>2018-12-30T11:13:25Z</time>
      </trkpt>
      <trkpt lat="39.8560750" lon="2.9094530">
        <ele>489.0</ele>
        <time>2018-12-30T11:13:26Z</time>
      </trkpt>
      <trkpt lat="39.8560430" lon="2.9094170">
        <ele>489.2</ele>
        <time>2018-12-30T11:13:27Z</time>
      </trkpt>
      <trkpt lat="39.8560100" lon="2.9093800">
        <ele>489.4</ele>
        <time>2018-12-30T11:13:28Z</time>
      </trkpt>
      <trkpt lat="39.8559760" lon="2.9093440">
        <ele>489.7</ele>
        <time>2018-12-30T11:13:29Z</time>
      </trkpt>
      <trkpt lat="39.8559420" lon="2.9093050">
        <ele>489.9</ele>
        <time>2018-12-30T11:13:30Z</time>
      </trkpt>
      <trkpt lat="39.8559060" lon="2.9092660">
        <ele>490.3</ele>
        <time>2018-12-30T11:13:31Z</time>
      </trkpt>
      <trkpt lat="39.8558670" lon="2.9092260">
        <ele>490.6</ele>
        <time>2018-12-30T11:13:32Z</time>
      </trkpt>
      <trkpt lat="39.8558280" lon="2.9091840">
        <ele>491.0</ele>
        <time>2018-12-30T11:13:33Z</time>
      </trkpt>
      <trkpt lat="39.8557880" lon="2.9091400">
        <ele>491.4</ele>
        <time>2018-12-30T11:13:34Z</time>
      </trkpt>
      <trkpt lat="39.8557480" lon="2.9090960">
        <ele>491.8</ele>
        <time>2018-12-30T11:13:35Z</time>
      </trkpt>
      <trkpt lat="39.8557070" lon="2.9090510">
        <ele>492.2</ele>
        <time>2018-12-30T11:13:36Z</time>
      </trkpt>
      <trkpt lat="39.8556650" lon="2.9090080">
        <ele>492.6</ele>
        <time>2018-12-30T11:13:37Z</time>
      </trkpt>
      <trkpt lat="39.8556230" lon="2.9089640">
        <ele>493.1</ele>
        <time>2018-12-30T11:13:38Z</time>
      </trkpt>
      <trkpt lat="39.8555810" lon="2.9089210">
        <ele>493.5</ele>
        <time>2018-12-30T11:13:39Z</time>
      </trkpt>
      <trkpt lat="39.8555380" lon="2.9088760">
        <ele>494.0</ele>
        <time>2018-12-30T11:13:40Z</time>
      </trkpt>
      <trkpt lat="39.8554950" lon="2.9088330">
        <ele>494.4</ele>
        <time>2018-12-30T11:13:41Z</time>
      </trkpt>
      <trkpt lat="39.8554510" lon="2.9087880">
        <ele>494.9</ele>
        <time>2018-12-30T11:13:42Z</time>
      </trkpt>
      <trkpt lat="39.8554070" lon="2.9087420">
        <ele>495.3</ele>
        <time>2018-12-30T11:13:43Z</time>
      </trkpt>
      <trkpt lat="39.8553620" lon="2.9086980">
        <ele>495.8</ele>
        <time>2018-12-30T11:13:44Z</time>
      </trkpt>
      <trkpt lat="39.8553160" lon="2.9086550">
        <ele>496.2</ele>
        <time>2018-12-30T11:13:45Z</time>
      </trkpt>
      <trkpt lat="39.8552700" lon="2.9086120">
        <ele>496.7</ele>
        <time>2018-12-30T11:13:46Z</time>
      </trkpt>
      <trkpt lat="39.8552260" lon="2.9085700">
        <ele>497.1</ele>
        <time>2018-12-30T11:13:47Z</time>
      </trkpt>
      <trkpt lat="39.8551820" lon="2.9085280">
        <ele>497.6</ele>
        <time>2018-12-30T11:13:48Z</time>
      </trkpt>
      <trkpt lat="39.8551390" lon="2.9084880">
        <ele>498.0</ele>
        <time>2018-12-30T11:13:49Z</time>
      </trkpt>
      <trkpt lat="39.8550970" lon="2.9084470">
        <ele>498.4</ele>
        <time>2018-12-30T11:13:50Z</time>
      </trkpt>
      <trkpt lat="39.8550560" lon="2.9084060">
        <ele>498.8</ele>
        <time>2018-12-30T11:13:51Z</time>
      </trkpt>
      <trkpt lat="39.8550150" lon="2.9083670">
        <ele>499.2</ele>
        <time>2018-12-30T11:13:52Z</time>
      </trkpt>
      <trkpt lat="39.8549750" lon="2.9083300">
        <ele>499.5</ele>
        <time>2018-12-30T11:13:53Z</time>
      </trkpt>
      <trkpt lat="39.8549350" lon="2.9082950">
        <ele>499.9</ele>
        <time>2018-12-30T11:13:54Z</time>
      </trkpt>
      <trkpt lat="39.8548960" lon="2.9082600">
        <ele>500.3</ele>
        <time>2018-12-30T11:13:55Z</time>
      </trkpt>
      <trkpt lat="39.8548580" lon="2.9082280">
        <ele>500.6</ele>
        <time>2018-12-30T11:13:56Z</time>
      </trkpt>
      <trkpt lat="39.8548220" lon="2.9081970">
        <ele>500.9</ele>
        <time>2018-12-30T11:13:57Z</time>
      </trkpt>
      <trkpt lat="39.8547890" lon="2.9081690">
        <ele>501.2</ele>
        <time>2018-12-30T11:13:58Z</time>
      </trkpt>
      <trkpt lat="39.8547590" lon="2.9081420">
        <ele>501.5</ele>
        <time>2018-12-30T11:13:59Z</time>
      </trkpt>
      <trkpt lat="39.8547320" lon="2.9081180">
        <ele>501.7</ele>
        <time>2018-12-30T11:14:00Z</time>
      </trkpt>
      <trkpt lat="39.8547050" lon="2.9080940">
        <ele>502.0</ele>
        <time>2018-12-30T11:14:01Z</time>
      </trkpt>
      <trkpt lat="39.8546770" lon="2.9080680">
        <ele>502.2</ele>
        <time>2018-12-30T11:14:02Z</time>
      </trkpt>
      <trkpt lat="39.8546500" lon="2.9080400">
        <ele>502.5</ele>
        <time>2018-12-30T11:14:03Z</time>
      </trkpt>
      <trkpt lat="39.8546210" lon="2.9080120">
        <ele>502.7</ele>
        <time>2018-12-30T11:14:04Z</time>
      </trkpt>
      <trkpt lat="39.8545910" lon="2.9079850">
        <ele>503.0</ele>
        <time>2018-12-30T11:14:05Z</time>
      </trkpt>
      <trkpt lat="39.8545620" lon="2.9079580">
        <ele>503.2</ele>
        <time>2018-12-30T11:14:06Z</time>
      </trkpt>
      <trkpt lat="39.8545320" lon="2.9079310">
        <ele>503.5</ele>
        <time>2018-12-30T11:14:07Z</time>
      </trkpt>
      <trkpt lat="39.8545030" lon="2.9079050">
        <ele>503.7</ele>
        <time>2018-12-30T11:14:08Z</time>
      </trkpt>
      <trkpt lat="39.8544750" lon="2.9078770">
        <ele>504.0</ele>
        <time>2018-12-30T11:14:09Z</time>
      </trkpt>
      <trkpt lat="39.8544480" lon="2.9078480">
        <ele>504.2</ele>
        <time>2018-12-30T11:14:10Z</time>
      </trkpt>
      <trkpt lat="39.8544230" lon="2.9078180">
        <ele>504.5</ele>
        <time>2018-12-30T11:14:11Z</time>
      </trkpt>
      <trkpt lat="39.8543990" lon="2.9077840">
        <ele>504.7</ele>
        <time>2018-12-30T11:14:12Z</time>
      </trkpt>
      <trkpt lat="39.8543760" lon="2.9077500">
        <ele>505.0</ele>
        <time>2018-12-30T11:14:13Z</time>
      </trkpt>
      <trkpt lat="39.8543540" lon="2.9077150">
        <ele>505.2</ele>
        <time>2018-12-30T11:14:14Z</time>
      </trkpt>
      <trkpt lat="39.8543320" lon="2.9076810">
        <ele>505.5</ele>
        <time>2018-12-30T11:14:15Z</time>
      </trkpt>
      <trkpt lat="39.8543120" lon="2.9076460">
        <ele>505.7</ele>
        <time>2018-12-30T11:14:16Z</time>
      </trkpt>
      <trkpt lat="39.8542950" lon="2.9076100">
        <ele>506.0</ele>
        <time>2018-12-30T11:14:17Z</time>
      </trkpt>
      <trkpt lat="39.8542790" lon="2.9075760">
        <ele>506.3</ele>
        <time>2018-12-30T11:14:18Z</time>
      </trkpt>
      <trkpt lat="39.8542630" lon="2.9075420">
        <ele>506.5</ele>
        <time>2018-12-30T11:14:19Z</time>
      </trkpt>
      <trkpt lat="39.8542500" lon="2.9075090">
        <ele>506.7</ele>
        <time>2018-12-30T11:14:20Z</time>
      </trkpt>
      <trkpt lat="39.8542380" lon="2.9074750">
        <ele>507.0</ele>
        <time>2018-12-30T11:14:21Z</time>
      </trkpt>
      <trkpt lat="39.8542260" lon="2.9074390">
        <ele>507.2</ele>
        <time>2018-12-30T11:14:22Z</time>
      </trkpt>
      <trkpt lat="39.8542140" lon="2.9074030">
        <ele>507.5</ele>
        <time>2018-12-30T11:14:23Z</time>
      </trkpt>
      <trkpt lat="39.8542020" lon="2.9073680">
        <ele>507.8</ele>
        <time>2018-12-30T11:14:24Z</time>
      </trkpt>
      <trkpt lat="39.8541920" lon="2.9073340">
        <ele>508.0</ele>
        <time>2018-12-30T11:14:25Z</time>
      </trkpt>
      <trkpt lat="39.8541820" lon="2.9073000">
        <ele>508.3</ele>
        <time>2018-12-30T11:14:26Z</time>
      </trkpt>
      <trkpt lat="39.8541700" lon="2.9072680">
        <ele>508.5</ele>
        <time>2018-12-30T11:14:27Z</time>
      </trkpt>
      <trkpt lat="39.8541580" lon="2.9072350">
        <ele>508.8</ele>
        <time>2018-12-30T11:14:28Z</time>
      </trkpt>
      <trkpt lat="39.8541460" lon="2.9072040">
        <ele>509.0</ele>
        <time>2018-12-30T11:14:29Z</time>
      </trkpt>
      <trkpt lat="39.8541350" lon="2.9071690">
        <ele>509.3</ele>
        <time>2018-12-30T11:14:30Z</time>
      </trkpt>
      <trkpt lat="39.8541240" lon="2.9071300">
        <ele>509.6</ele>
        <time>2018-12-30T11:14:31Z</time>
      </trkpt>
      <trkpt lat="39.8541140" lon="2.9070890">
        <ele>509.9</ele>
        <time>2018-12-30T11:14:32Z</time>
      </trkpt>
      <trkpt lat="39.8541020" lon="2.9070490">
        <ele>510.2</ele>
        <time>2018-12-30T11:14:33Z</time>
      </trkpt>
      <trkpt lat="39.8540910" lon="2.9070100">
        <ele>510.5</ele>
        <time>2018-12-30T11:14:34Z</time>
      </trkpt>
      <trkpt lat="39.8540800" lon="2.9069720">
        <ele>510.8</ele>
        <time>2018-12-30T11:14:35Z</time>
      </trkpt>
      <trkpt lat="39.8540710" lon="2.9069320">
        <ele>511.1</ele>
        <time>2018-12-30T11:14:36Z</time>
      </trkpt>
      <trkpt lat="39.8540660" lon="2.9068910">
        <ele>511.4</ele>
        <time>2018-12-30T11:14:37Z</time>
      </trkpt>
      <trkpt lat="39.8540630" lon="2.9068500">
        <ele>511.7</ele>
        <time>2018-12-30T11:14:38Z</time>
      </trkpt>
      <trkpt lat="39.8540620" lon="2.9068060">
        <ele>512.0</ele>
        <time>2018-12-30T11:14:39Z</time>
      </trkpt>
      <trkpt lat="39.8540630" lon="2.9067620">
        <ele>512.4</ele>
        <time>2018-12-30T11:14:40Z</time>
      </trkpt>
      <trkpt lat="39.8540670" lon="2.9067200">
        <ele>512.7</ele>
        <time>2018-12-30T11:14:41Z</time>
      </trkpt>
      <trkpt lat="39.8540710" lon="2.9066850">
        <ele>512.9</ele>
        <time>2018-12-30T11:14:42Z</time>
      </trkpt>
      <trkpt lat="39.8540750" lon="2.9066570">
        <ele>513.1</ele>
        <time>2018-12-30T11:14:43Z</time>
      </trkpt>
      <trkpt lat="39.8540790" lon="2.9066330">
        <ele>513.3</ele>
        <time>2018-12-30T11:14:44Z</time>
      </trkpt>
      <trkpt lat="39.8540850" lon="2.9066070">
        <ele>513.5</ele>
        <time>2018-12-30T11:14:45Z</time>
      </trkpt>
      <trkpt lat="39.8540940" lon="2.9065770">
        <ele>513.7</ele>
        <time>2018-12-30T11:14:46Z</time>
      </trkpt>
      <trkpt lat="39.8541060" lon="2.9065430">
        <ele>514.0</ele>
        <time>2018-12-30T11:14:47Z</time>
      </trkpt>
      <trkpt lat="39.8541190" lon="2.9065080">
        <ele>514.2</ele>
        <time>2018-12-30T11:14:48Z</time>
      </trkpt>
      <trkpt lat="39.8541340" lon="2.9064730">
        <ele>514.5</ele>
        <time>2018-12-30T11:14:49Z</time>
      </trkpt>
      <trkpt lat="39.8541490" lon="2.9064370">
        <ele>514.8</ele>
        <time>2018-12-30T11:14:50Z</time>
      </trkpt>
      <trkpt lat="39.8541650" lon="2.9064010">
        <ele>515.0</ele>
        <time>2018-12-30T11:14:51Z</time>
      </trkpt>
      <trkpt lat="39.8541820" lon="2.9063640">
        <ele>515.3</ele>
        <time>2018-12-30T11:14:52Z</time>
      </trkpt>
      <trkpt lat="39.8542000" lon="2.9063270">
        <ele>515.5</ele>
        <time>2018-12-30T11:14:53Z</time>
      </trkpt>
      <trkpt lat="39.8542170" lon="2.9062900">
        <ele>515.8</ele>
        <time>2018-12-30T11:14:54Z</time>
      </trkpt>
      <trkpt lat="39.8542350" lon="2.9062540">
        <ele>516.0</ele>
        <time>2018-12-30T11:14:55Z</time>
      </trkpt>
      <trkpt lat="39.8542530" lon="2.9062180">
        <ele>516.3</ele>
        <time>2018-12-30T11:14:56Z</time>
      </trkpt>
      <trkpt lat="39.8542730" lon="2.9061840">
        <ele>516.5</ele>
        <time>2018-12-30T11:14:57Z</time>
      </trkpt>
      <trkpt lat="39.8542930" lon="2.9061500">
        <ele>516.7</ele>
        <time>2018-12-30T11:14:58Z</time>
      </trkpt>
      <trkpt lat="39.8543140" lon="2.9061180">
        <ele>516.9</ele>
        <time>2018-12-30T11:14:59Z</time>
      </trkpt>
      <trkpt lat="39.8543350" lon="2.9060860">
        <ele>517.1</ele>
        <time>2018-12-30T11:15:00Z</time>
      </trkpt>
      <trkpt lat="39.8543540" lon="2.9060550">
        <ele>517.3</ele>
        <time>2018-12-30T11:15:01Z</time>
      </trkpt>
      <trkpt lat="39.8543730" lon="2.9060240">
        <ele>517.5</ele>
        <time>2018-12-30T11:15:02Z</time>
      </trkpt>
      <trkpt lat="39.8543900" lon="2.9059920">
        <ele>517.7</ele>
        <time>2018-12-30T11:15:03Z</time>
      </trkpt>
      <trkpt lat="39.8544060" lon="2.9059590">
        <ele>517.9</ele>
        <time>2018-12-30T11:15:04Z</time>
      </trkpt>
      <trkpt lat="39.8544210" lon="2.9059240">
        <ele>518.1</ele>
        <time>2018-12-30T11:15:05Z</time>
      </trkpt>
      <trkpt lat="39.8544330" lon="2.9058880">
        <ele>518.3</ele>
        <time>2018-12-30T11:15:06Z</time>
      </trkpt>
      <trkpt lat="39.8544440" lon="2.9058510">
        <ele>518.4</ele>
        <time>2018-12-30T11:15:07Z</time>
      </trkpt>
      <trkpt lat="39.8544540" lon="2.9058130">
        <ele>518.6</ele>
        <time>2018-12-30T11:15:08Z</time>
      </trkpt>
      <trkpt lat="39.8544640" lon="2.9057760">
        <ele>518.8</ele>
        <time>2018-12-30T11:15:09Z</time>
      </trkpt>
      <trkpt lat="39.8544740" lon="2.9057410">
        <ele>519.0</ele>
        <time>2018-12-30T11:15:10Z</time>
      </trkpt>
      <trkpt lat="39.8544850" lon="2.9057090">
        <ele>519.2</ele>
        <time>2018-12-30T11:15:11Z</time>
      </trkpt>
      <trkpt lat="39.8544950" lon="2.9056760">
        <ele>519.3</ele>
        <time>2018-12-30T11:15:12Z</time>
      </trkpt>
      <trkpt lat="39.8545030" lon="2.9056410">
        <ele>519.5</ele>
        <time>2018-12-30T11:15:13Z</time>
      </trkpt>
      <trkpt lat="39.8545090" lon="2.9056010">
        <ele>519.7</ele>
        <time>2018-12-30T11:15:14Z</time>
      </trkpt>
      <trkpt lat="39.8545130" lon="2.9055590">
        <ele>519.9</ele>
        <time>2018-12-30T11:15:15Z</time>
      </trkpt>
      <trkpt lat="39.8545180" lon="2.9055170">
        <ele>520.1</ele>
        <time>2018-12-30T11:15:16Z</time>
      </trkpt>
      <trkpt lat="39.8545220" lon="2.9054750">
        <ele>520.3</ele>
        <time>2018-12-30T11:15:17Z</time>
      </trkpt>
      <trkpt lat="39.8545260" lon="2.9054330">
        <ele>520.5</ele>
        <time>2018-12-30T11:15:18Z</time>
      </trkpt>
      <trkpt lat="39.8545290" lon="2.9053900">
        <ele>520.7</ele>
        <time>2018-12-30T11:15:19Z</time>
      </trkpt>
      <trkpt lat="39.8545310" lon="2.9053470">
        <ele>520.9</ele>
        <time>2018-12-30T11:15:20Z</time>
      </trkpt>
      <trkpt lat="39.8545340" lon="2.9053040">
        <ele>521.1</ele>
        <time>2018-12-30T11:15:21Z</time>
      </trkpt>
      <trkpt lat="39.8545380" lon="2.9052610">
        <ele>521.4</ele>
        <time>2018-12-30T11:15:22Z</time>
      </trkpt>
      <trkpt lat="39.8545440" lon="2.9052190">
        <ele>521.6</ele>
        <time>2018-12-30T11:15:23Z</time>
      </trkpt>
      <trkpt lat="39.8545510" lon="2.9051760">
        <ele>521.8</ele>
        <time>2018-12-30T11:15:24Z</time>
      </trkpt>
      <trkpt lat="39.8545580" lon="2.9051340">
        <ele>522.0</ele>
        <time>2018-12-30T11:15:25Z</time>
      </trkpt>
      <trkpt lat="39.8545660" lon="2.9050930">
        <ele>522.3</ele>
        <time>2018-12-30T11:15:26Z</time>
      </trkpt>
      <trkpt lat="39.8545770" lon="2.9050520">
        <ele>522.5</ele>
        <time>2018-12-30T11:15:27Z</time>
      </trkpt>
      <trkpt lat="39.8545890" lon="2.9050130">
        <ele>522.7</ele>
        <time>2018-12-30T11:15:28Z</time>
      </trkpt>
      <trkpt lat="39.8546030" lon="2.9049750">
        <ele>522.9</ele>
        <time>2018-12-30T11:15:29Z</time>
      </trkpt>
      <trkpt lat="39.8546200" lon="2.9049390">
        <ele>523.2</ele>
        <time>2018-12-30T11:15:30Z</time>
      </trkpt>
      <trkpt lat="39.8546430" lon="2.9049050">
        <ele>523.4</ele>
        <time>2018-12-30T11:15:31Z</time>
      </trkpt>
      <trkpt lat="39.8546700" lon="2.9048720">
        <ele>523.7</ele>
        <time>2018-12-30T11:15:32Z</time>
      </trkpt>
      <trkpt lat="39.8546970" lon="2.9048380">
        <ele>523.9</ele>
        <time>2018-12-30T11:15:33Z</time>
      </trkpt>
      <trkpt lat="39.8547200" lon="2.9048040">
        <ele>524.2</ele>
        <time>2018-12-30T11:15:34Z</time>
      </trkpt>
      <trkpt lat="39.8547410" lon="2.9047710">
        <ele>524.4</ele>
        <time>2018-12-30T11:15:35Z</time>
      </trkpt>
      <trkpt lat="39.8547600" lon="2.9047420">
        <ele>524.6</ele>
        <time>2018-12-30T11:15:36Z</time>
      </trkpt>
      <trkpt lat="39.8547770" lon="2.9047170">
        <ele>524.8</ele>
        <time>2018-12-30T11:15:37Z</time>
      </trkpt>
      <trkpt lat="39.8547920" lon="2.9046940">
        <ele>525.0</ele>
        <time>2018-12-30T11:15:38Z</time>
      </trkpt>
      <trkpt lat="39.8548080" lon="2.9046710">
        <ele>525.1</ele>
        <time>2018-12-30T11:15:39Z</time>
      </trkpt>
      <trkpt lat="39.8548250" lon="2.9046450">
        <ele>525.3</ele>
        <time>2018-12-30T11:15:40Z</time>
      </trkpt>
      <trkpt lat="39.8548440" lon="2.9046160">
        <ele>525.6</ele>
        <time>2018-12-30T11:15:41Z</time>
      </trkpt>
      <trkpt lat="39.8548640" lon="2.9045870">
        <ele>525.8</ele>
        <time>2018-12-30T11:15:42Z</time>
      </trkpt>
      <trkpt lat="39.8548860" lon="2.9045580">
        <ele>526.0</ele>
        <time>2018-12-30T11:15:43Z</time>
      </trkpt>
      <trkpt lat="39.8549080" lon="2.9045270">
        <ele>526.3</ele>
        <time>2018-12-30T11:15:44Z</time>
      </trkpt>
      <trkpt lat="39.8549290" lon="2.9044950">
        <ele>526.5</ele>
        <time>2018-12-30T11:15:45Z</time>
      </trkpt>
      <trkpt lat="39.8549500" lon="2.9044610">
        <ele>526.8</ele>
        <time>2018-12-30T11:15:46Z</time>
      </trkpt>
      <trkpt lat="39.8549710" lon="2.9044270">
        <ele>527.1</ele>
        <time>2018-12-30T11:15:47Z</time>
      </trkpt>
      <trkpt lat="39.8549950" lon="2.9043940">
        <ele>527.3</ele>
        <time>2018-12-30T11:15:48Z</time>
      </trkpt>
      <trkpt lat="39.8550220" lon="2.9043640">
        <ele>527.6</ele>
        <time>2018-12-30T11:15:49Z</time>
      </trkpt>
      <trkpt lat="39.8550510" lon="2.9043360">
        <ele>527.9</ele>
        <time>2018-12-30T11:15:50Z</time>
      </trkpt>
      <trkpt lat="39.8550810" lon="2.9043110">
        <ele>528.2</ele>
        <time>2018-12-30T11:15:51Z</time>
      </trkpt>
      <trkpt lat="39.8551140" lon="2.9042910">
        <ele>528.5</ele>
        <time>2018-12-30T11:15:52Z</time>
      </trkpt>
      <trkpt lat="39.8551470" lon="2.9042770">
        <ele>528.8</ele>
        <time>2018-12-30T11:15:53Z</time>
      </trkpt>
      <trkpt lat="39.8551810" lon="2.9042660">
        <ele>529.1</ele>
        <time>2018-12-30T11:15:54Z</time>
      </trkpt>
      <trkpt lat="39.8552150" lon="2.9042580">
        <ele>529.4</ele>
        <time>2018-12-30T11:15:55Z</time>
      </trkpt>
      <trkpt lat="39.8552500" lon="2.9042500">
        <ele>529.7</ele>
        <time>2018-12-30T11:15:56Z</time>
      </trkpt>
      <trkpt lat="39.8552830" lon="2.9042420">
        <ele>530.0</ele>
        <time>2018-12-30T11:15:57Z</time>
      </trkpt>
      <trkpt lat="39.8553160" lon="2.9042360">
        <ele>530.3</ele>
        <time>2018-12-30T11:15:58Z</time>
      </trkpt>
      <trkpt lat="39.8553490" lon="2.9042290">
        <ele>530.6</ele>
        <time>2018-12-30T11:15:59Z</time>
      </trkpt>
      <trkpt lat="39.8553820" lon="2.9042230">
        <ele>530.9</ele>
        <time>2018-12-30T11:16:00Z</time>
      </trkpt>
      <trkpt lat="39.8554150" lon="2.9042170">
        <ele>531.1</ele>
        <time>2018-12-30T11:16:01Z</time>
      </trkpt>
      <trkpt lat="39.8554480" lon="2.9042110">
        <ele>531.4</ele>
        <time>2018-12-30T11:16:02Z</time>
      </trkpt>
      <trkpt lat="39.8554800" lon="2.9042060">
        <ele>531.7</ele>
        <time>2018-12-30T11:16:03Z</time>
      </trkpt>
      <trkpt lat="39.8555120" lon="2.9042020">
        <ele>532.0</ele>
        <time>2018-12-30T11:16:04Z</time>
      </trkpt>
      <trkpt lat="39.8555440" lon="2.9041970">
        <ele>532.2</ele>
        <time>2018-12-30T11:16:05Z</time>
      </trkpt>
      <trkpt lat="39.8555750" lon="2.9041900">
        <ele>532.5</ele>
        <time>2018-12-30T11:16:06Z</time>
      </trkpt>
      <trkpt lat="39.8556070" lon="2.9041800">
        <ele>532.8</ele>
        <time>2018-12-30T11:16:07Z</time>
      </trkpt>
      <trkpt lat="39.8556380" lon="2.9041680">
        <ele>533.0</ele>
        <time>2018-12-30T11:16:08Z</time>
      </trkpt>
      <trkpt lat="39.8556690" lon="2.9041570">
        <ele>533.3</ele>
        <time>2018-12-30T11:16:09Z</time>
      </trkpt>
      <trkpt lat="39.8556990" lon="2.9041440">
        <ele>533.5</ele>
        <time>2018-12-30T11:16:10Z</time>
      </trkpt>
      <trkpt lat="39.8557280" lon="2.9041300">
        <ele>533.7</ele>
        <time>2018-12-30T11:16:11Z</time>
      </trkpt>
      <trkpt lat="39.8557560" lon="2.9041120">
        <ele>533.9</ele>
        <time>2018-12-30T11:16:12Z</time>
      </trkpt>
      <trkpt lat="39.8557830" lon="2.9040910">
        <ele>534.1</ele>
        <time>2018-12-30T11:16:13Z</time>
      </trkpt>
      <trkpt lat="39.8558090" lon="2.9040670">
        <ele>534.4</ele>
        <time>2018-12-30T11:16:14Z</time>
      </trkpt>
      <trkpt lat="39.8558340" lon="2.9040430">
        <ele>534.6</ele>
        <time>2018-12-30T11:16:15Z</time>
      </trkpt>
      <trkpt lat="39.8558590" lon="2.9040170">
        <ele>534.8</ele>
        <time>2018-12-30T11:16:16Z</time>
      </trkpt>
      <trkpt lat="39.8558830" lon="2.9039890">
        <ele>535.0</ele>
        <time>2018-12-30T11:16:17Z</time>
      </trkpt>
      <trkpt lat="39.8559060" lon="2.9039610">
        <ele>535.2</ele>
        <time>2018-12-30T11:16:18Z</time>
      </trkpt>
      <trkpt lat="39.8559270" lon="2.9039300">
        <ele>535.4</ele>
        <time>2018-12-30T11:16:19Z</time>
      </trkpt>
      <trkpt lat="39.8559470" lon="2.9038990">
        <ele>535.6</ele>
        <time>2018-12-30T11:16:20Z</time>
      </trkpt>
      <trkpt lat="39.8559660" lon="2.9038660">
        <ele>535.8</ele>
        <time>2018-12-30T11:16:21Z</time>
      </trkpt>
      <trkpt lat="39.8559850" lon="2.9038330">
        <ele>536.0</ele>
        <time>2018-12-30T11:16:22Z</time>
      </trkpt>
      <trkpt lat="39.8560020" lon="2.9037980">
        <ele>536.2</ele>
        <time>2018-12-30T11:16:23Z</time>
      </trkpt>
      <trkpt lat="39.8560170" lon="2.9037630">
        <ele>536.3</ele>
        <time>2018-12-30T11:16:24Z</time>
      </trkpt>
      <trkpt lat="39.8560310" lon="2.9037260">
        <ele>536.5</ele>
        <time>2018-12-30T11:16:25Z</time>
      </trkpt>
      <trkpt lat="39.8560460" lon="2.9036890">
        <ele>536.6</ele>
        <time>2018-12-30T11:16:26Z</time>
      </trkpt>
      <trkpt lat="39.8560590" lon="2.9036520">
        <ele>536.8</ele>
        <time>2018-12-30T11:16:27Z</time>
      </trkpt>
      <trkpt lat="39.8560720" lon="2.9036180">
        <ele>536.9</ele>
        <time>2018-12-30T11:16:28Z</time>
      </trkpt>
      <trkpt lat="39.8560820" lon="2.9035870">
        <ele>537.0</ele>
        <time>2018-12-30T11:16:29Z</time>
      </trkpt>
      <trkpt lat="39.8560910" lon="2.9035610">
        <ele>537.1</ele>
        <time>2018-12-30T11:16:30Z</time>
      </trkpt>
      <trkpt lat="39.8560990" lon="2.9035380">
        <ele>537.2</ele>
        <time>2018-12-30T11:16:31Z</time>
      </trkpt>
      <trkpt lat="39.8561080" lon="2.9035150">
        <ele>537.3</ele>
        <time>2018-12-30T11:16:32Z</time>
      </trkpt>
      <trkpt lat="39.8561170" lon="2.9034920">
        <ele>537.4</ele>
        <time>2018-12-30T11:16:33Z</time>
      </trkpt>
      <trkpt lat="39.8561260" lon="2.9034660">
        <ele>537.4</ele>
        <time>2018-12-30T11:16:34Z</time>
      </trkpt>
      <trkpt lat="39.8561360" lon="2.9034360">
        <ele>537.5</ele>
        <time>2018-12-30T11:16:35Z</time>
      </trkpt>
      <trkpt lat="39.8561450" lon="2.9034040">
        <ele>537.6</ele>
        <time>2018-12-30T11:16:36Z</time>
      </trkpt>
      <trkpt lat="39.8561550" lon="2.9033700">
        <ele>537.7</ele>
        <time>2018-12-30T11:16:37Z</time>
      </trkpt>
      <trkpt lat="39.8561660" lon="2.9033350">
        <ele>537.8</ele>
        <time>2018-12-30T11:16:38Z</time>
      </trkpt>
      <trkpt lat="39.8561790" lon="2.9033000">
        <ele>537.9</ele>
        <time>2018-12-30T11:16:39Z</time>
      </trkpt>
      <trkpt lat="39.8561890" lon="2.9032640">
        <ele>538.0</ele>
        <time>2018-12-30T11:16:40Z</time>
      </trkpt>
      <trkpt lat="39.8561940" lon="2.9032240">
        <ele>538.1</ele>
        <time>2018-12-30T11:16:41Z</time>
      </trkpt>
      <trkpt lat="39.8561950" lon="2.9031800">
        <ele>538.2</ele>
        <time>2018-12-30T11:16:42Z</time>
      </trkpt>
      <trkpt lat="39.8561950" lon="2.9031350">
        <ele>538.3</ele>
        <time>2018-12-30T11:16:43Z</time>
      </trkpt>
      <trkpt lat="39.8561960" lon="2.9030930">
        <ele>538.3</ele>
        <time>2018-12-30T11:16:44Z</time>
      </trkpt>
      <trkpt lat="39.8561980" lon="2.9030500">
        <ele>538.4</ele>
        <time>2018-12-30T11:16:45Z</time>
      </trkpt>
      <trkpt lat="39.8562000" lon="2.9030060">
        <ele>538.5</ele>
        <time>2018-12-30T11:16:46Z</time>
      </trkpt>
      <trkpt lat="39.8561990" lon="2.9029610">
        <ele>538.5</ele>
        <time>2018-12-30T11:16:47Z</time>
      </trkpt>
      <trkpt lat="39.8561970" lon="2.9029150">
        <ele>538.6</ele>
        <time>2018-12-30T11:16:48Z</time>
      </trkpt>
      <trkpt lat="39.8561950" lon="2.9028700">
        <ele>538.7</ele>
        <time>2018-12-30T11:16:49Z</time>
      </trkpt>
      <trkpt lat="39.8561930" lon="2.9028260">
        <ele>538.7</ele>
        <time>2018-12-30T11:16:50Z</time>
      </trkpt>
      <trkpt lat="39.8561920" lon="2.9027840">
        <ele>538.8</ele>
        <time>2018-12-30T11:16:51Z</time>
      </trkpt>
      <trkpt lat="39.8561920" lon="2.9027420">
        <ele>538.8</ele>
        <time>2018-12-30T11:16:52Z</time>
      </trkpt>
      <trkpt lat="39.8561900" lon="2.9027000">
        <ele>538.9</ele>
        <time>2018-12-30T11:16:53Z</time>
      </trkpt>
      <trkpt lat="39.8561880" lon="2.9026560">
        <ele>538.9</ele>
        <time>2018-12-30T11:16:54Z</time>
      </trkpt>
      <trkpt lat="39.8561850" lon="2.9026120">
        <ele>538.9</ele>
        <time>2018-12-30T11:16:55Z</time>
      </trkpt>
      <trkpt lat="39.8561810" lon="2.9025660">
        <ele>539.0</ele>
        <time>2018-12-30T11:16:56Z</time>
      </trkpt>
      <trkpt lat="39.8561770" lon="2.9025200">
        <ele>539.0</ele>
        <time>2018-12-30T11:16:57Z</time>
      </trkpt>
      <trkpt lat="39.8561740" lon="2.9024730">
        <ele>539.1</ele>
        <time>2018-12-30T11:16:58Z</time>
      </trkpt>
      <trkpt lat="39.8561730" lon="2.9024270">
        <ele>539.1</ele>
        <time>2018-12-30T11:16:59Z</time>
      </trkpt>
      <trkpt lat="39.8561720" lon="2.9023810">
        <ele>539.2</ele>
        <time>2018-12-30T11:17:00Z</time>
      </trkpt>
      <trkpt lat="39.8561710" lon="2.9023360">
        <ele>539.2</ele>
        <time>2018-12-30T11:17:01Z</time>
      </trkpt>
      <trkpt lat="39.8561690" lon="2.9022900">
        <ele>539.2</ele>
        <time>2018-12-30T11:17:02Z</time>
      </trkpt>
      <trkpt lat="39.8561670" lon="2.9022460">
        <ele>539.3</ele>
        <time>2018-12-30T11:17:03Z</time>
      </trkpt>
      <trkpt lat="39.8561620" lon="2.9022020">
        <ele>539.3</ele>
        <time>2018-12-30T11:17:04Z</time>
      </trkpt>
      <trkpt lat="39.8561530" lon="2.9021550">
        <ele>539.4</ele>
        <time>2018-12-30T11:17:05Z</time>
      </trkpt>
      <trkpt lat="39.8561410" lon="2.9021060">
        <ele>539.5</ele>
        <time>2018-12-30T11:17:06Z</time>
      </trkpt>
      <trkpt lat="39.8561290" lon="2.9020570">
        <ele>539.6</ele>
        <time>2018-12-30T11:17:07Z</time>
      </trkpt>
      <trkpt lat="39.8561160" lon="2.9020100">
        <ele>539.6</ele>
        <time>2018-12-30T11:17:08Z</time>
      </trkpt>
      <trkpt lat="39.8561020" lon="2.9019660">
        <ele>539.7</ele>
        <time>2018-12-30T11:17:09Z</time>
      </trkpt>
      <trkpt lat="39.8560850" lon="2.9019230">
        <ele>539.7</ele>
        <time>2018-12-30T11:17:10Z</time>
      </trkpt>
      <trkpt lat="39.8560660" lon="2.9018810">
        <ele>539.7</ele>
        <time>2018-12-30T11:17:11Z</time>
      </trkpt>
      <trkpt lat="39.8560460" lon="2.9018410">
        <ele>539.7</ele>
        <time>2018-12-30T11:17:12Z</time>
      </trkpt>
      <trkpt lat="39.8560250" lon="2.9018020">
        <ele>539.7</ele>
        <time>2018-12-30T11:17:13Z</time>
      </trkpt>
      <trkpt lat="39.8560030" lon="2.9017630">
        <ele>539.7</ele>
        <time>2018-12-30T11:17:14Z</time>
      </trkpt>
      <trkpt lat="39.8559810" lon="2.9017230">
        <ele>539.7</ele>
        <time>2018-12-30T11:17:15Z</time>
      </trkpt>
      <trkpt lat="39.8559590" lon="2.9016830">
        <ele>539.6</ele>
        <time>2018-12-30T11:17:16Z</time>
      </trkpt>
      <trkpt lat="39.8559370" lon="2.9016430">
        <ele>539.5</ele>
        <time>2018-12-30T11:17:17Z</time>
      </trkpt>
      <trkpt lat="39.8559130" lon="2.9016050">
        <ele>539.4</ele>
        <time>2018-12-30T11:17:18Z</time>
      </trkpt>
      <trkpt lat="39.8558900" lon="2.9015680">
        <ele>539.3</ele>
        <time>2018-12-30T11:17:19Z</time>
      </trkpt>
      <trkpt lat="39.8558660" lon="2.9015300">
        <ele>539.2</ele>
        <time>2018-12-30T11:17:20Z</time>
      </trkpt>
      <trkpt lat="39.8558420" lon="2.9014930">
        <ele>539.1</ele>
        <time>2018-12-30T11:17:21Z</time>
      </trkpt>
      <trkpt lat="39.8558190" lon="2.9014540">
        <ele>539.0</ele>
        <time>2018-12-30T11:17:22Z</time>
      </trkpt>
      <trkpt lat="39.8557970" lon="2.9014160">
        <ele>538.9</ele>
        <time>2018-12-30T11:17:23Z</time>
      </trkpt>
      <trkpt lat="39.8557750" lon="2.9013790">
        <ele>538.7</ele>
        <time>2018-12-30T11:17:24Z</time>
      </trkpt>
      <trkpt lat="39.8557530" lon="2.9013420">
        <ele>538.6</ele>
        <time>2018-12-30T11:17:25Z</time>
      </trkpt>
      <trkpt lat="39.8555270" lon="2.9009580">
        <ele>537.2</ele>
        <time>2018-12-30T11:19:30Z</time>
      </trkpt>
      <trkpt lat="39.8555130" lon="2.9009260">
        <ele>537.1</ele>
        <time>2018-12-30T11:19:31Z</time>
      </trkpt>
      <trkpt lat="39.8554940" lon="2.9008910">
        <ele>537.0</ele>
        <time>2018-12-30T11:19:32Z</time>
      </trkpt>
      <trkpt lat="39.8554730" lon="2.9008530">
        <ele>536.8</ele>
        <time>2018-12-30T11:19:33Z</time>
      </trkpt>
      <trkpt lat="39.8554490" lon="2.9008010">
        <ele>536.6</ele>
        <time>2018-12-30T11:19:34Z</time>
      </trkpt>
      <trkpt lat="39.8554150" lon="2.9007330">
        <ele>536.3</ele>
        <time>2018-12-30T11:19:35Z</time>
      </trkpt>
      <trkpt lat="39.8553740" lon="2.9006540">
        <ele>535.8</ele>
        <time>2018-12-30T11:19:36Z</time>
      </trkpt>
      <trkpt lat="39.8553260" lon="2.9005740">
        <ele>535.2</ele>
        <time>2018-12-30T11:19:37Z</time>
      </trkpt>
      <trkpt lat="39.8552790" lon="2.9005000">
        <ele>534.6</ele>
        <time>2018-12-30T11:19:38Z</time>
      </trkpt>
      <trkpt lat="39.8552340" lon="2.9004240">
        <ele>534.0</ele>
        <time>2018-12-30T11:19:39Z</time>
      </trkpt>
      <trkpt lat="39.8551870" lon="2.9003440">
        <ele>533.3</ele>
        <time>2018-12-30T11:19:40Z</time>
      </trkpt>
      <trkpt lat="39.8551360" lon="2.9002600">
        <ele>532.6</ele>
        <time>2018-12-30T11:19:41Z</time>
      </trkpt>
      <trkpt lat="39.8550810" lon="2.9001620">
        <ele>531.8</ele>
        <time>2018-12-30T11:19:42Z</time>
      </trkpt>
      <trkpt lat="39.8550230" lon="2.9000550">
        <ele>530.9</ele>
        <time>2018-12-30T11:19:43Z</time>
      </trkpt>
      <trkpt lat="39.8549610" lon="2.8999420">
        <ele>529.9</ele>
        <time>2018-12-30T11:19:44Z</time>
      </trkpt>
      <trkpt lat="39.8548990" lon="2.8998330">
        <ele>529.0</ele>
        <time>2018-12-30T11:19:45Z</time>
      </trkpt>
      <trkpt lat="39.8548340" lon="2.8997230">
        <ele>528.0</ele>
        <time>2018-12-30T11:19:46Z</time>
      </trkpt>
      <trkpt lat="39.8547690" lon="2.8996120">
        <ele>526.9</ele>
        <time>2018-12-30T11:19:47Z</time>
      </trkpt>
      <trkpt lat="39.8547010" lon="2.8994920">
        <ele>525.6</ele>
        <time>2018-12-30T11:19:48Z</time>
      </trkpt>
      <trkpt lat="39.8546320" lon="2.8993700">
        <ele>524.3</ele>
        <time>2018-12-30T11:19:49Z</time>
      </trkpt>
      <trkpt lat="39.8545610" lon="2.8992420">
        <ele>523.2</ele>
        <time>2018-12-30T11:19:50Z</time>
      </trkpt>
      <trkpt lat="39.8544880" lon="2.8991130">
        <ele>522.3</ele>
        <time>2018-12-30T11:19:51Z</time>
      </trkpt>
      <trkpt lat="39.8544140" lon="2.8989810">
        <ele>521.5</ele>
        <time>2018-12-30T11:19:52Z</time>
      </trkpt>
      <trkpt lat="39.8543400" lon="2.8988500">
        <ele>520.8</ele>
        <time>2018-12-30T11:19:53Z</time>
      </trkpt>
      <trkpt lat="39.8542650" lon="2.8987200">
        <ele>520.3</ele>
        <time>2018-12-30T11:19:54Z</time>
      </trkpt>
      <trkpt lat="39.8541910" lon="2.8985910">
        <ele>520.1</ele>
        <time>2018-12-30T11:19:55Z</time>
      </trkpt>
      <trkpt lat="39.8541170" lon="2.8984630">
        <ele>520.1</ele>
        <time>2018-12-30T11:19:56Z</time>
      </trkpt>
      <trkpt lat="39.8540450" lon="2.8983370">
        <ele>520.4</ele>
        <time>2018-12-30T11:19:57Z</time>
      </trkpt>
      <trkpt lat="39.8539740" lon="2.8982170">
        <ele>520.8</ele>
        <time>2018-12-30T11:19:58Z</time>
      </trkpt>
      <trkpt lat="39.8539040" lon="2.8981040">
        <ele>521.2</ele>
        <time>2018-12-30T11:19:59Z</time>
      </trkpt>
      <trkpt lat="39.8538330" lon="2.8980030">
        <ele>521.6</ele>
        <time>2018-12-30T11:20:00Z</time>
      </trkpt>
      <trkpt lat="39.8537590" lon="2.8979140">
        <ele>521.8</ele>
        <time>2018-12-30T11:20:01Z</time>
      </trkpt>
      <trkpt lat="39.8536790" lon="2.8978400">
        <ele>521.9</ele>
        <time>2018-12-30T11:20:02Z</time>
      </trkpt>
      <trkpt lat="39.8535930" lon="2.8977730">
        <ele>522.0</ele>
        <time>2018-12-30T11:20:03Z</time>
      </trkpt>
      <trkpt lat="39.8535050" lon="2.8977090">
        <ele>521.8</ele>
        <time>2018-12-30T11:20:04Z</time>
      </trkpt>
      <trkpt lat="39.8534160" lon="2.8976510">
        <ele>521.5</ele>
        <time>2018-12-30T11:20:05Z</time>
      </trkpt>
      <trkpt lat="39.8533270" lon="2.8975980">
        <ele>521.1</ele>
        <time>2018-12-30T11:20:06Z</time>
      </trkpt>
      <trkpt lat="39.8532370" lon="2.8975460">
        <ele>520.7</ele>
        <time>2018-12-30T11:20:07Z</time>
      </trkpt>
      <trkpt lat="39.8531470" lon="2.8974930">
        <ele>520.5</ele>
        <time>2018-12-30T11:20:08Z</time>
      </trkpt>
      <trkpt lat="39.8530560" lon="2.8974390">
        <ele>520.3</ele>
        <time>2018-12-30T11:20:09Z</time>
      </trkpt>
      <trkpt lat="39.8529650" lon="2.8973860">
        <ele>520.2</ele>
        <time>2018-12-30T11:20:10Z</time>
      </trkpt>
      <trkpt lat="39.8528730" lon="2.8973350">
        <ele>520.0</ele>
        <time>2018-12-30T11:20:11Z</time>
      </trkpt>
      <trkpt lat="39.8527820" lon="2.8972880">
        <ele>519.6</ele>
        <time>2018-12-30T11:20:12Z</time>
      </trkpt>
      <trkpt lat="39.8526890" lon="2.8972460">
        <ele>519.0</ele>
        <time>2018-12-30T11:20:13Z</time>
      </trkpt>
      <trkpt lat="39.8525930" lon="2.8972070">
        <ele>518.4</ele>
        <time>2018-12-30T11:20:14Z</time>
      </trkpt>
      <trkpt lat="39.8524880" lon="2.8971710">
        <ele>517.5</ele>
        <time>2018-12-30T11:20:15Z</time>
      </trkpt>
      <trkpt lat="39.8523770" lon="2.8971340">
        <ele>516.3</ele>
        <time>2018-12-30T11:20:16Z</time>
      </trkpt>
      <trkpt lat="39.8522600" lon="2.8970990">
        <ele>514.7</ele>
        <time>2018-12-30T11:20:17Z</time>
      </trkpt>
      <trkpt lat="39.8521420" lon="2.8970650">
        <ele>513.1</ele>
        <time>2018-12-30T11:20:18Z</time>
      </trkpt>
      <trkpt lat="39.8520230" lon="2.8970320">
        <ele>512.1</ele>
        <time>2018-12-30T11:20:19Z</time>
      </trkpt>
      <trkpt lat="39.8519030" lon="2.8969970">
        <ele>511.7</ele>
        <time>2018-12-30T11:20:20Z</time>
      </trkpt>
      <trkpt lat="39.8517810" lon="2.8969580">
        <ele>511.7</ele>
        <time>2018-12-30T11:20:21Z</time>
      </trkpt>
      <trkpt lat="39.8516600" lon="2.8969190">
        <ele>511.8</ele>
        <time>2018-12-30T11:20:22Z</time>
      </trkpt>
      <trkpt lat="39.8515410" lon="2.8968800">
        <ele>511.9</ele>
        <time>2018-12-30T11:20:23Z</time>
      </trkpt>
      <trkpt lat="39.8514260" lon="2.8968450">
        <ele>512.1</ele>
        <time>2018-12-30T11:20:24Z</time>
      </trkpt>
      <trkpt lat="39.8513140" lon="2.8968110">
        <ele>512.1</ele>
        <time>2018-12-30T11:20:25Z</time>
      </trkpt>
      <trkpt lat="39.8512040" lon="2.8967770">
        <ele>512.2</ele>
        <time>2018-12-30T11:20:26Z</time>
      </trkpt>
      <trkpt lat="39.8510960" lon="2.8967440">
        <ele>512.3</ele>
        <time>2018-12-30T11:20:27Z</time>
      </trkpt>
      <trkpt lat="39.8509930" lon="2.8967140">
        <ele>512.5</ele>
        <time>2018-12-30T11:20:28Z</time>
      </trkpt>
      <trkpt lat="39.8508930" lon="2.8966890">
        <ele>512.6</ele>
        <time>2018-12-30T11:20:29Z</time>
      </trkpt>
      <trkpt lat="39.8507950" lon="2.8966700">
        <ele>512.7</ele>
        <time>2018-12-30T11:20:30Z</time>
      </trkpt>
      <trkpt lat="39.8506980" lon="2.8966540">
        <ele>512.6</ele>
        <time>2018-12-30T11:20:31Z</time>
      </trkpt>
      <trkpt lat="39.8506020" lon="2.8966410">
        <ele>512.3</ele>
        <time>2018-12-30T11:20:32Z</time>
      </trkpt>
      <trkpt lat="39.8505050" lon="2.8966290">
        <ele>511.8</ele>
        <time>2018-12-30T11:20:33Z</time>
      </trkpt>
      <trkpt lat="39.8504070" lon="2.8966160">
        <ele>511.0</ele>
        <time>2018-12-30T11:20:34Z</time>
      </trkpt>
      <trkpt lat="39.8503070" lon="2.8966030">
        <ele>510.3</ele>
        <time>2018-12-30T11:20:35Z</time>
      </trkpt>
      <trkpt lat="39.8502030" lon="2.8965910">
        <ele>509.6</ele>
        <time>2018-12-30T11:20:36Z</time>
      </trkpt>
      <trkpt lat="39.8500960" lon="2.8965780">
        <ele>509.2</ele>
        <time>2018-12-30T11:20:37Z</time>
      </trkpt>
      <trkpt lat="39.8499870" lon="2.8965650">
        <ele>508.9</ele>
        <time>2018-12-30T11:20:38Z</time>
      </trkpt>
      <trkpt lat="39.8498760" lon="2.8965510">
        <ele>508.8</ele>
        <time>2018-12-30T11:20:39Z</time>
      </trkpt>
      <trkpt lat="39.8497650" lon="2.8965370">
        <ele>508.8</ele>
        <time>2018-12-30T11:20:40Z</time>
      </trkpt>
      <trkpt lat="39.8496560" lon="2.8965240">
        <ele>508.9</ele>
        <time>2018-12-30T11:20:41Z</time>
      </trkpt>
      <trkpt lat="39.8495480" lon="2.8965110">
        <ele>509.1</ele>
        <time>2018-12-30T11:20:42Z</time>
      </trkpt>
      <trkpt lat="39.8494440" lon="2.8964980">
        <ele>509.3</ele>
        <time>2018-12-30T11:20:43Z</time>
      </trkpt>
      <trkpt lat="39.8493430" lon="2.8964850">
        <ele>509.6</ele>
        <time>2018-12-30T11:20:44Z</time>
      </trkpt>
      <trkpt lat="39.8492440" lon="2.8964730">
        <ele>509.9</ele>
        <time>2018-12-30T11:20:45Z</time>
      </trkpt>
      <trkpt lat="39.8491470" lon="2.8964630">
        <ele>510.2</ele>
        <time>2018-12-30T11:20:46Z</time>
      </trkpt>
      <trkpt lat="39.8490530" lon="2.8964530">
        <ele>510.5</ele>
        <time>2018-12-30T11:20:47Z</time>
      </trkpt>
      <trkpt lat="39.8489610" lon="2.8964420">
        <ele>510.9</ele>
        <time>2018-12-30T11:20:48Z</time>
      </trkpt>
      <trkpt lat="39.8488720" lon="2.8964310">
        <ele>511.3</ele>
        <time>2018-12-30T11:20:49Z</time>
      </trkpt>
      <trkpt lat="39.8487860" lon="2.8964190">
        <ele>511.7</ele>
        <time>2018-12-30T11:20:50Z</time>
      </trkpt>
      <trkpt lat="39.8487040" lon="2.8964080">
        <ele>512.2</ele>
        <time>2018-12-30T11:20:51Z</time>
      </trkpt>
      <trkpt lat="39.8486270" lon="2.8963980">
        <ele>512.6</ele>
        <time>2018-12-30T11:20:52Z</time>
      </trkpt>
      <trkpt lat="39.8485510" lon="2.8963890">
        <ele>513.0</ele>
        <time>2018-12-30T11:20:53Z</time>
      </trkpt>
      <trkpt lat="39.8484770" lon="2.8963790">
        <ele>513.4</ele>
        <time>2018-12-30T11:20:54Z</time>
      </trkpt>
      <trkpt lat="39.8484040" lon="2.8963680">
        <ele>513.7</ele>
        <time>2018-12-30T11:20:55Z</time>
      </trkpt>
      <trkpt lat="39.8483320" lon="2.8963490">
        <ele>514.0</ele>
        <time>2018-12-30T11:20:56Z</time>
      </trkpt>
      <trkpt lat="39.8482630" lon="2.8963220">
        <ele>514.4</ele>
        <time>2018-12-30T11:20:57Z</time>
      </trkpt>
      <trkpt lat="39.8481970" lon="2.8962870">
        <ele>514.7</ele>
        <time>2018-12-30T11:20:58Z</time>
      </trkpt>
      <trkpt lat="39.8481340" lon="2.8962490">
        <ele>515.0</ele>
        <time>2018-12-30T11:20:59Z</time>
      </trkpt>
      <trkpt lat="39.8480700" lon="2.8962060">
        <ele>515.3</ele>
        <time>2018-12-30T11:21:00Z</time>
      </trkpt>
      <trkpt lat="39.8480060" lon="2.8961580">
        <ele>515.6</ele>
        <time>2018-12-30T11:21:01Z</time>
      </trkpt>
      <trkpt lat="39.8479430" lon="2.8961080">
        <ele>516.0</ele>
        <time>2018-12-30T11:21:02Z</time>
      </trkpt>
      <trkpt lat="39.8478800" lon="2.8960610">
        <ele>516.2</ele>
        <time>2018-12-30T11:21:03Z</time>
      </trkpt>
      <trkpt lat="39.8478180" lon="2.8960150">
        <ele>516.4</ele>
        <time>2018-12-30T11:21:04Z</time>
      </trkpt>
      <trkpt lat="39.8477570" lon="2.8959690">
        <ele>516.6</ele>
        <time>2018-12-30T11:21:05Z</time>
      </trkpt>
      <trkpt lat="39.8476960" lon="2.8959240">
        <ele>516.9</ele>
        <time>2018-12-30T11:21:06Z</time>
      </trkpt>
      <trkpt lat="39.8476370" lon="2.8958780">
        <ele>517.1</ele>
        <time>2018-12-30T11:21:07Z</time>
      </trkpt>
      <trkpt lat="39.8475770" lon="2.8958330">
        <ele>517.3</ele>
        <time>2018-12-30T11:21:08Z</time>
      </trkpt>
      <trkpt lat="39.8475190" lon="2.8957890">
        <ele>517.6</ele>
        <time>2018-12-30T11:21:09Z</time>
      </trkpt>
      <trkpt lat="39.8474610" lon="2.8957460">
        <ele>517.8</ele>
        <time>2018-12-30T11:21:10Z</time>
      </trkpt>
      <trkpt lat="39.8474040" lon="2.8957030">
        <ele>518.0</ele>
        <time>2018-12-30T11:21:11Z</time>
      </trkpt>
      <trkpt lat="39.8473470" lon="2.8956600">
        <ele>518.2</ele>
        <time>2018-12-30T11:21:12Z</time>
      </trkpt>
      <trkpt lat="39.8472900" lon="2.8956180">
        <ele>518.4</ele>
        <time>2018-12-30T11:21:13Z</time>
      </trkpt>
      <trkpt lat="39.8472330" lon="2.8955760">
        <ele>518.6</ele>
        <time>2018-12-30T11:21:14Z</time>
      </trkpt>
      <trkpt lat="39.8471770" lon="2.8955340">
        <ele>518.8</ele>
        <time>2018-12-30T11:21:15Z</time>
      </trkpt>
      <trkpt lat="39.8471220" lon="2.8954910">
        <ele>519.0</ele>
        <time>2018-12-30T11:21:16Z</time>
      </trkpt>
      <trkpt lat="39.8470680" lon="2.8954480">
        <ele>519.1</ele>
        <time>2018-12-30T11:21:17Z</time>
      </trkpt>
      <trkpt lat="39.8470130" lon="2.8954060">
        <ele>519.3</ele>
        <time>2018-12-30T11:21:18Z</time>
      </trkpt>
      <trkpt lat="39.8469590" lon="2.8953650">
        <ele>519.5</ele>
        <time>2018-12-30T11:21:19Z</time>
      </trkpt>
      <trkpt lat="39.8469060" lon="2.8953270">
        <ele>519.7</ele>
        <time>2018-12-30T11:21:20Z</time>
      </trkpt>
      <trkpt lat="39.8468520" lon="2.8952900">
        <ele>519.9</ele>
        <time>2018-12-30T11:21:21Z</time>
      </trkpt>
      <trkpt lat="39.8467990" lon="2.8952530">
        <ele>520.1</ele>
        <time>2018-12-30T11:21:22Z</time>
      </trkpt>
      <trkpt lat="39.8467470" lon="2.8952180">
        <ele>520.2</ele>
        <time>2018-12-30T11:21:23Z</time>
      </trkpt>
      <trkpt lat="39.8466920" lon="2.8951860">
        <ele>520.3</ele>
        <time>2018-12-30T11:21:24Z</time>
      </trkpt>
      <trkpt lat="39.8466370" lon="2.8951560">
        <ele>520.4</ele>
        <time>2018-12-30T11:21:25Z</time>
      </trkpt>
      <trkpt lat="39.8465800" lon="2.8951270">
        <ele>520.5</ele>
        <time>2018-12-30T11:21:26Z</time>
      </trkpt>
      <trkpt lat="39.8465240" lon="2.8950970">
        <ele>520.6</ele>
        <time>2018-12-30T11:21:27Z</time>
      </trkpt>
      <trkpt lat="39.8464670" lon="2.8950660">
        <ele>520.6</ele>
        <time>2018-12-30T11:21:28Z</time>
      </trkpt>
      <trkpt lat="39.8464100" lon="2.8950340">
        <ele>520.7</ele>
        <time>2018-12-30T11:21:29Z</time>
      </trkpt>
      <trkpt lat="39.8463530" lon="2.8950030">
        <ele>520.7</ele>
        <time>2018-12-30T11:21:30Z</time>
      </trkpt>
      <trkpt lat="39.8462950" lon="2.8949720">
        <ele>520.8</ele>
        <time>2018-12-30T11:21:31Z</time>
      </trkpt>
      <trkpt lat="39.8462360" lon="2.8949420">
        <ele>520.9</ele>
        <time>2018-12-30T11:21:32Z</time>
      </trkpt>
      <trkpt lat="39.8461760" lon="2.8949130">
        <ele>520.9</ele>
        <time>2018-12-30T11:21:33Z</time>
      </trkpt>
      <trkpt lat="39.8461150" lon="2.8948890">
        <ele>521.0</ele>
        <time>2018-12-30T11:21:34Z</time>
      </trkpt>
      <trkpt lat="39.8460510" lon="2.8948710">
        <ele>521.1</ele>
        <time>2018-12-30T11:21:35Z</time>
      </trkpt>
      <trkpt lat="39.8459860" lon="2.8948580">
        <ele>521.1</ele>
        <time>2018-12-30T11:21:36Z</time>
      </trkpt>
      <trkpt lat="39.8459210" lon="2.8948510">
        <ele>521.2</ele>
        <time>2018-12-30T11:21:37Z</time>
      </trkpt>
      <trkpt lat="39.8458580" lon="2.8948480">
        <ele>521.3</ele>
        <time>2018-12-30T11:21:38Z</time>
      </trkpt>
      <trkpt lat="39.8457960" lon="2.8948500">
        <ele>521.4</ele>
        <time>2018-12-30T11:21:39Z</time>
      </trkpt>
      <trkpt lat="39.8457360" lon="2.8948540">
        <ele>521.5</ele>
        <time>2018-12-30T11:21:40Z</time>
      </trkpt>
      <trkpt lat="39.8456760" lon="2.8948640">
        <ele>521.6</ele>
        <time>2018-12-30T11:21:41Z</time>
      </trkpt>
      <trkpt lat="39.8456150" lon="2.8948780">
        <ele>521.7</ele>
        <time>2018-12-30T11:21:42Z</time>
      </trkpt>
      <trkpt lat="39.8455520" lon="2.8948980">
        <ele>521.8</ele>
        <time>2018-12-30T11:21:43Z</time>
      </trkpt>
      <trkpt lat="39.8454900" lon="2.8949180">
        <ele>521.9</ele>
        <time>2018-12-30T11:21:44Z</time>
      </trkpt>
      <trkpt lat="39.8454270" lon="2.8949370">
        <ele>522.0</ele>
        <time>2018-12-30T11:21:45Z</time>
      </trkpt>
      <trkpt lat="39.8453650" lon="2.8949550">
        <ele>522.0</ele>
        <time>2018-12-30T11:21:46Z</time>
      </trkpt>
      <trkpt lat="39.8453020" lon="2.8949730">
        <ele>522.1</ele>
        <time>2018-12-30T11:21:47Z</time>
      </trkpt>
      <trkpt lat="39.8452390" lon="2.8949920">
        <ele>522.1</ele>
        <time>2018-12-30T11:21:48Z</time>
      </trkpt>
      <trkpt lat="39.8451750" lon="2.8950110">
        <ele>522.2</ele>
        <time>2018-12-30T11:21:49Z</time>
      </trkpt>
      <trkpt lat="39.8451110" lon="2.8950300">
        <ele>522.2</ele>
        <time>2018-12-30T11:21:50Z</time>
      </trkpt>
      <trkpt lat="39.8450460" lon="2.8950470">
        <ele>522.2</ele>
        <time>2018-12-30T11:21:51Z</time>
      </trkpt>
      <trkpt lat="39.8449800" lon="2.8950660">
        <ele>522.1</ele>
        <time>2018-12-30T11:21:52Z</time>
      </trkpt>
      <trkpt lat="39.8449110" lon="2.8950860">
        <ele>522.1</ele>
        <time>2018-12-30T11:21:53Z</time>
      </trkpt>
      <trkpt lat="39.8448390" lon="2.8951090">
        <ele>522.0</ele>
        <time>2018-12-30T11:21:54Z</time>
      </trkpt>
      <trkpt lat="39.8447660" lon="2.8951320">
        <ele>521.9</ele>
        <time>2018-12-30T11:21:55Z</time>
      </trkpt>
      <trkpt lat="39.8446920" lon="2.8951560">
        <ele>521.8</ele>
        <time>2018-12-30T11:21:56Z</time>
      </trkpt>
      <trkpt lat="39.8446200" lon="2.8951770">
        <ele>521.7</ele>
        <time>2018-12-30T11:21:57Z</time>
      </trkpt>
      <trkpt lat="39.8445470" lon="2.8951980">
        <ele>521.6</ele>
        <time>2018-12-30T11:21:58Z</time>
      </trkpt>
      <trkpt lat="39.8444740" lon="2.8952190">
        <ele>521.5</ele>
        <time>2018-12-30T11:21:59Z</time>
      </trkpt>
      <trkpt lat="39.8443980" lon="2.8952430">
        <ele>521.4</ele>
        <time>2018-12-30T11:22:00Z</time>
      </trkpt>
      <trkpt lat="39.8443210" lon="2.8952700">
        <ele>521.4</ele>
        <time>2018-12-30T11:22:01Z</time>
      </trkpt>
      <trkpt lat="39.8442440" lon="2.8952970">
        <ele>521.3</ele>
        <time>2018-12-30T11:22:02Z</time>
      </trkpt>
      <trkpt lat="39.8441690" lon="2.8953200">
        <ele>521.2</ele>
        <time>2018-12-30T11:22:03Z</time>
      </trkpt>
      <trkpt lat="39.8440930" lon="2.8953420">
        <ele>521.2</ele>
        <time>2018-12-30T11:22:04Z</time>
      </trkpt>
      <trkpt lat="39.8440180" lon="2.8953640">
        <ele>521.1</ele>
        <time>2018-12-30T11:22:05Z</time>
      </trkpt>
      <trkpt lat="39.8439420" lon="2.8953870">
        <ele>521.1</ele>
        <time>2018-12-30T11:22:06Z</time>
      </trkpt>
      <trkpt lat="39.8438640" lon="2.8954110">
        <ele>519.7</ele>
        <time>2018-12-30T11:22:07Z</time>
      </trkpt>
      <trkpt lat="39.8437860" lon="2.8954330">
        <ele>519.3</ele>
        <time>2018-12-30T11:22:08Z</time>
      </trkpt>
      <trkpt lat="39.8437090" lon="2.8954540">
        <ele>518.9</ele>
        <time>2018-12-30T11:22:09Z</time>
      </trkpt>
      <trkpt lat="39.8436340" lon="2.8954720">
        <ele>518.5</ele>
        <time>2018-12-30T11:22:10Z</time>
      </trkpt>
      <trkpt lat="39.8435580" lon="2.8954930">
        <ele>517.9</ele>
        <time>2018-12-30T11:22:11Z</time>
      </trkpt>
      <trkpt lat="39.8434820" lon="2.8955140">
        <ele>517.2</ele>
        <time>2018-12-30T11:22:12Z</time>
      </trkpt>
      <trkpt lat="39.8434000" lon="2.8955400">
        <ele>516.4</ele>
        <time>2018-12-30T11:22:13Z</time>
      </trkpt>
      <trkpt lat="39.8433140" lon="2.8955680">
        <ele>515.4</ele>
        <time>2018-12-30T11:22:14Z</time>
      </trkpt>
      <trkpt lat="39.8432250" lon="2.8955950">
        <ele>514.5</ele>
        <time>2018-12-30T11:22:15Z</time>
      </trkpt>
      <trkpt lat="39.8431350" lon="2.8956190">
        <ele>513.7</ele>
        <time>2018-12-30T11:22:16Z</time>
      </trkpt>
      <trkpt lat="39.8430420" lon="2.8956470">
        <ele>512.7</ele>
        <time>2018-12-30T11:22:17Z</time>
      </trkpt>
      <trkpt lat="39.8429430" lon="2.8956790">
        <ele>511.7</ele>
        <time>2018-12-30T11:22:18Z</time>
      </trkpt>
      <trkpt lat="39.8428410" lon="2.8957150">
        <ele>510.6</ele>
        <time>2018-12-30T11:22:19Z</time>
      </trkpt>
      <trkpt lat="39.8427360" lon="2.8957490">
        <ele>509.1</ele>
        <time>2018-12-30T11:22:20Z</time>
      </trkpt>
      <trkpt lat="39.8426310" lon="2.8957820">
        <ele>507.6</ele>
        <time>2018-12-30T11:22:21Z</time>
      </trkpt>
      <trkpt lat="39.8425230" lon="2.8958150">
        <ele>506.1</ele>
        <time>2018-12-30T11:22:22Z</time>
      </trkpt>
      <trkpt lat="39.8424130" lon="2.8958480">
        <ele>504.7</ele>
        <time>2018-12-30T11:22:23Z</time>
      </trkpt>
      <trkpt lat="39.8423020" lon="2.8958800">
        <ele>503.3</ele>
        <time>2018-12-30T11:22:24Z</time>
      </trkpt>
      <trkpt lat="39.8421880" lon="2.8959120">
        <ele>502.2</ele>
        <time>2018-12-30T11:22:25Z</time>
      </trkpt>
      <trkpt lat="39.8420720" lon="2.8959460">
        <ele>501.4</ele>
        <time>2018-12-30T11:22:26Z</time>
      </trkpt>
      <trkpt lat="39.8419550" lon="2.8959810">
        <ele>501.1</ele>
        <time>2018-12-30T11:22:27Z</time>
      </trkpt>
      <trkpt lat="39.8418390" lon="2.8960170">
        <ele>501.0</ele>
        <time>2018-12-30T11:22:28Z</time>
      </trkpt>
      <trkpt lat="39.8417270" lon="2.8960500">
        <ele>501.0</ele>
        <time>2018-12-30T11:22:29Z</time>
      </trkpt>
      <trkpt lat="39.8416180" lon="2.8960830">
        <ele>501.4</ele>
        <time>2018-12-30T11:22:30Z</time>
      </trkpt>
      <trkpt lat="39.8415130" lon="2.8961140">
        <ele>501.9</ele>
        <time>2018-12-30T11:22:31Z</time>
      </trkpt>
      <trkpt lat="39.8414120" lon="2.8961440">
        <ele>502.5</ele>
        <time>2018-12-30T11:22:32Z</time>
      </trkpt>
      <trkpt lat="39.8413120" lon="2.8961750">
        <ele>503.0</ele>
        <time>2018-12-30T11:22:33Z</time>
      </trkpt>
      <trkpt lat="39.8412150" lon="2.8962040">
        <ele>503.5</ele>
        <time>2018-12-30T11:22:34Z</time>
      </trkpt>
      <trkpt lat="39.8411180" lon="2.8962320">
        <ele>504.1</ele>
        <time>2018-12-30T11:22:35Z</time>
      </trkpt>
      <trkpt lat="39.8410300" lon="2.8962600">
        <ele>504.8</ele>
        <time>2018-12-30T11:22:36Z</time>
      </trkpt>
      <trkpt lat="39.8409500" lon="2.8962850">
        <ele>505.6</ele>
        <time>2018-12-30T11:22:37Z</time>
      </trkpt>
      <trkpt lat="39.8408770" lon="2.8963080">
        <ele>506.3</ele>
        <time>2018-12-30T11:22:38Z</time>
      </trkpt>
      <trkpt lat="39.8408050" lon="2.8963300">
        <ele>507.0</ele>
        <time>2018-12-30T11:22:39Z</time>
      </trkpt>
      <trkpt lat="39.8407310" lon="2.8963520">
        <ele>507.8</ele>
        <time>2018-12-30T11:22:40Z</time>
      </trkpt>
      <trkpt lat="39.8406630" lon="2.8963730">
        <ele>508.5</ele>
        <time>2018-12-30T11:22:41Z</time>
      </trkpt>
      <trkpt lat="39.8406000" lon="2.8963910">
        <ele>509.1</ele>
        <time>2018-12-30T11:22:42Z</time>
      </trkpt>
      <trkpt lat="39.8405440" lon="2.8964080">
        <ele>509.7</ele>
        <time>2018-12-30T11:22:43Z</time>
      </trkpt>
      <trkpt lat="39.8404950" lon="2.8964280">
        <ele>510.2</ele>
        <time>2018-12-30T11:22:44Z</time>
      </trkpt>
      <trkpt lat="39.8404520" lon="2.8964490">
        <ele>510.6</ele>
        <time>2018-12-30T11:22:45Z</time>
      </trkpt>
      <trkpt lat="39.8404120" lon="2.8964680">
        <ele>511.1</ele>
        <time>2018-12-30T11:22:46Z</time>
      </trkpt>
      <trkpt lat="39.8403770" lon="2.8964820">
        <ele>511.4</ele>
        <time>2018-12-30T11:22:47Z</time>
      </trkpt>
      <trkpt lat="39.8403450" lon="2.8964930">
        <ele>511.8</ele>
        <time>2018-12-30T11:22:48Z</time>
      </trkpt>
      <trkpt lat="39.8403200" lon="2.8965050">
        <ele>512.1</ele>
        <time>2018-12-30T11:22:49Z</time>
      </trkpt>
      <trkpt lat="39.8403000" lon="2.8965120">
        <ele>512.3</ele>
        <time>2018-12-30T11:22:50Z</time>
      </trkpt>
      <trkpt lat="39.8402830" lon="2.8965140">
        <ele>512.5</ele>
        <time>2018-12-30T11:22:51Z</time>
      </trkpt>
      <trkpt lat="39.8402690" lon="2.8965110">
        <ele>512.7</ele>
        <time>2018-12-30T11:22:52Z</time>
      </trkpt>
      <trkpt lat="39.8402520" lon="2.8965130">
        <ele>512.8</ele>
        <time>2018-12-30T11:22:53Z</time>
      </trkpt>
      <trkpt lat="39.8402330" lon="2.8965190">
        <ele>513.0</ele>
        <time>2018-12-30T11:22:54Z</time>
      </trkpt>
      <trkpt lat="39.8402100" lon="2.8965270">
        <ele>513.2</ele>
        <time>2018-12-30T11:22:55Z</time>
      </trkpt>
      <trkpt lat="39.8401820" lon="2.8965380">
        <ele>513.5</ele>
        <time>2018-12-30T11:22:56Z</time>
      </trkpt>
      <trkpt lat="39.8401490" lon="2.8965470">
        <ele>513.8</ele>
        <time>2018-12-30T11:22:57Z</time>
      </trkpt>
      <trkpt lat="39.8401090" lon="2.8965560">
        <ele>514.1</ele>
        <time>2018-12-30T11:22:58Z</time>
      </trkpt>
      <trkpt lat="39.8400690" lon="2.8965650">
        <ele>514.5</ele>
        <time>2018-12-30T11:22:59Z</time>
      </trkpt>
      <trkpt lat="39.8400270" lon="2.8965750">
        <ele>514.9</ele>
        <time>2018-12-30T11:23:00Z</time>
      </trkpt>
      <trkpt lat="39.8399860" lon="2.8965870">
        <ele>515.2</ele>
        <time>2018-12-30T11:23:01Z</time>
      </trkpt>
      <trkpt lat="39.8399420" lon="2.8966040">
        <ele>515.6</ele>
        <time>2018-12-30T11:23:02Z</time>
      </trkpt>
      <trkpt lat="39.8398970" lon="2.8966220">
        <ele>515.9</ele>
        <time>2018-12-30T11:23:03Z</time>
      </trkpt>
      <trkpt lat="39.8398500" lon="2.8966400">
        <ele>516.3</ele>
        <time>2018-12-30T11:23:04Z</time>
      </trkpt>
      <trkpt lat="39.8398010" lon="2.8966540">
        <ele>516.6</ele>
        <time>2018-12-30T11:23:05Z</time>
      </trkpt>
      <trkpt lat="39.8397520" lon="2.8966660">
        <ele>516.9</ele>
        <time>2018-12-30T11:23:06Z</time>
      </trkpt>
      <trkpt lat="39.8397030" lon="2.8966780">
        <ele>517.2</ele>
        <time>2018-12-30T11:23:07Z</time>
      </trkpt>
      <trkpt lat="39.8396540" lon="2.8966930">
        <ele>517.4</ele>
        <time>2018-12-30T11:23:08Z</time>
      </trkpt>
      <trkpt lat="39.8396060" lon="2.8967090">
        <ele>517.7</ele>
        <time>2018-12-30T11:23:09Z</time>
      </trkpt>
      <trkpt lat="39.8395580" lon="2.8967230">
        <ele>518.0</ele>
        <time>2018-12-30T11:23:10Z</time>
      </trkpt>
      <trkpt lat="39.8395100" lon="2.8967360">
        <ele>518.3</ele>
        <time>2018-12-30T11:23:11Z</time>
      </trkpt>
      <trkpt lat="39.8394620" lon="2.8967470">
        <ele>518.5</ele>
        <time>2018-12-30T11:23:12Z</time>
      </trkpt>
      <trkpt lat="39.8394150" lon="2.8967590">
        <ele>518.8</ele>
        <time>2018-12-30T11:23:13Z</time>
      </trkpt>
      <trkpt lat="39.8393670" lon="2.8967730">
        <ele>519.1</ele>
        <time>2018-12-30T11:23:14Z</time>
      </trkpt>
      <trkpt lat="39.8393180" lon="2.8967870">
        <ele>519.4</ele>
        <time>2018-12-30T11:23:15Z</time>
      </trkpt>
      <trkpt lat="39.8392670" lon="2.8968020">
        <ele>519.7</ele>
        <time>2018-12-30T11:23:16Z</time>
      </trkpt>
      <trkpt lat="39.8392140" lon="2.8968200">
        <ele>520.0</ele>
        <time>2018-12-30T11:23:17Z</time>
      </trkpt>
      <trkpt lat="39.8391580" lon="2.8968380">
        <ele>520.4</ele>
        <time>2018-12-30T11:23:18Z</time>
      </trkpt>
      <trkpt lat="39.8391040" lon="2.8968530">
        <ele>520.7</ele>
        <time>2018-12-30T11:23:19Z</time>
      </trkpt>
      <trkpt lat="39.8390470" lon="2.8968680">
        <ele>521.2</ele>
        <time>2018-12-30T11:23:20Z</time>
      </trkpt>
      <trkpt lat="39.8389940" lon="2.8968820">
        <ele>521.9</ele>
        <time>2018-12-30T11:23:21Z</time>
      </trkpt>
      <trkpt lat="39.8389410" lon="2.8968970">
        <ele>522.6</ele>
        <time>2018-12-30T11:23:22Z</time>
      </trkpt>
      <trkpt lat="39.8388910" lon="2.8969110">
        <ele>523.8</ele>
        <time>2018-12-30T11:23:23Z</time>
      </trkpt>
      <trkpt lat="39.8388420" lon="2.8969280">
        <ele>524.1</ele>
        <time>2018-12-30T11:23:24Z</time>
      </trkpt>
      <trkpt lat="39.8387930" lon="2.8969460">
        <ele>524.3</ele>
        <time>2018-12-30T11:23:25Z</time>
      </trkpt>
      <trkpt lat="39.8387430" lon="2.8969620">
        <ele>524.6</ele>
        <time>2018-12-30T11:23:26Z</time>
      </trkpt>
      <trkpt lat="39.8386930" lon="2.8969740">
        <ele>525.0</ele>
        <time>2018-12-30T11:23:27Z</time>
      </trkpt>
      <trkpt lat="39.8386440" lon="2.8969860">
        <ele>525.3</ele>
        <time>2018-12-30T11:23:28Z</time>
      </trkpt>
      <trkpt lat="39.8385970" lon="2.8969990">
        <ele>525.6</ele>
        <time>2018-12-30T11:23:29Z</time>
      </trkpt>
      <trkpt lat="39.8385530" lon="2.8970130">
        <ele>525.9</ele>
        <time>2018-12-30T11:23:30Z</time>
      </trkpt>
      <trkpt lat="39.8385100" lon="2.8970270">
        <ele>526.2</ele>
        <time>2018-12-30T11:23:31Z</time>
      </trkpt>
      <trkpt lat="39.8384670" lon="2.8970420">
        <ele>526.5</ele>
        <time>2018-12-30T11:23:32Z</time>
      </trkpt>
      <trkpt lat="39.8384250" lon="2.8970570">
        <ele>526.9</ele>
        <time>2018-12-30T11:23:33Z</time>
      </trkpt>
      <trkpt lat="39.8383840" lon="2.8970710">
        <ele>527.3</ele>
        <time>2018-12-30T11:23:34Z</time>
      </trkpt>
      <trkpt lat="39.8383430" lon="2.8970840">
        <ele>527.6</ele>
        <time>2018-12-30T11:23:35Z</time>
      </trkpt>
      <trkpt lat="39.8383030" lon="2.8970950">
        <ele>528.0</ele>
        <time>2018-12-30T11:23:36Z</time>
      </trkpt>
      <trkpt lat="39.8382630" lon="2.8971040">
        <ele>528.4</ele>
        <time>2018-12-30T11:23:37Z</time>
      </trkpt>
      <trkpt lat="39.8382230" lon="2.8971150">
        <ele>528.8</ele>
        <time>2018-12-30T11:23:38Z</time>
      </trkpt>
      <trkpt lat="39.8381830" lon="2.8971270">
        <ele>529.2</ele>
        <time>2018-12-30T11:23:39Z</time>
      </trkpt>
      <trkpt lat="39.8381430" lon="2.8971410">
        <ele>529.7</ele>
        <time>2018-12-30T11:23:40Z</time>
      </trkpt>
      <trkpt lat="39.8381040" lon="2.8971540">
        <ele>530.1</ele>
        <time>2018-12-30T11:23:41Z</time>
      </trkpt>
      <trkpt lat="39.8380660" lon="2.8971650">
        <ele>530.6</ele>
        <time>2018-12-30T11:23:42Z</time>
      </trkpt>
      <trkpt lat="39.8380270" lon="2.8971750">
        <ele>531.0</ele>
        <time>2018-12-30T11:23:43Z</time>
      </trkpt>
      <trkpt lat="39.8379890" lon="2.8971850">
        <ele>531.5</ele>
        <time>2018-12-30T11:23:44Z</time>
      </trkpt>
      <trkpt lat="39.8379520" lon="2.8971970">
        <ele>531.9</ele>
        <time>2018-12-30T11:23:45Z</time>
      </trkpt>
      <trkpt lat="39.8379150" lon="2.8972090">
        <ele>532.3</ele>
        <time>2018-12-30T11:23:46Z</time>
      </trkpt>
      <trkpt lat="39.8378790" lon="2.8972220">
        <ele>532.7</ele>
        <time>2018-12-30T11:23:47Z</time>
      </trkpt>
      <trkpt lat="39.8378430" lon="2.8972330">
        <ele>533.1</ele>
        <time>2018-12-30T11:23:48Z</time>
      </trkpt>
      <trkpt lat="39.8378070" lon="2.8972440">
        <ele>533.5</ele>
        <time>2018-12-30T11:23:49Z</time>
      </trkpt>
      <trkpt lat="39.8377690" lon="2.8972530">
        <ele>534.0</ele>
        <time>2018-12-30T11:23:50Z</time>
      </trkpt>
      <trkpt lat="39.8377320" lon="2.8972620">
        <ele>534.3</ele>
        <time>2018-12-30T11:23:51Z</time>
      </trkpt>
      <trkpt lat="39.8376950" lon="2.8972690">
        <ele>534.5</ele>
        <time>2018-12-30T11:23:52Z</time>
      </trkpt>
      <trkpt lat="39.8376590" lon="2.8972770">
        <ele>534.8</ele>
        <time>2018-12-30T11:23:53Z</time>
      </trkpt>
      <trkpt lat="39.8376220" lon="2.8972820">
        <ele>535.0</ele>
        <time>2018-12-30T11:23:54Z</time>
      </trkpt>
      <trkpt lat="39.8375850" lon="2.8972890">
        <ele>535.3</ele>
        <time>2018-12-30T11:23:55Z</time>
      </trkpt>
      <trkpt lat="39.8375480" lon="2.8972940">
        <ele>535.5</ele>
        <time>2018-12-30T11:23:56Z</time>
      </trkpt>
      <trkpt lat="39.8375090" lon="2.8973000">
        <ele>535.8</ele>
        <time>2018-12-30T11:23:57Z</time>
      </trkpt>
      <trkpt lat="39.8374730" lon="2.8973060">
        <ele>536.0</ele>
        <time>2018-12-30T11:23:58Z</time>
      </trkpt>
      <trkpt lat="39.8374360" lon="2.8973090">
        <ele>536.3</ele>
        <time>2018-12-30T11:23:59Z</time>
      </trkpt>
      <trkpt lat="39.8374000" lon="2.8973130">
        <ele>536.6</ele>
        <time>2018-12-30T11:24:00Z</time>
      </trkpt>
      <trkpt lat="39.8373630" lon="2.8973150">
        <ele>536.8</ele>
        <time>2018-12-30T11:24:01Z</time>
      </trkpt>
      <trkpt lat="39.8373260" lon="2.8973140">
        <ele>537.1</ele>
        <time>2018-12-30T11:24:02Z</time>
      </trkpt>
      <trkpt lat="39.8372880" lon="2.8973100">
        <ele>537.3</ele>
        <time>2018-12-30T11:24:03Z</time>
      </trkpt>
      <trkpt lat="39.8372490" lon="2.8973020">
        <ele>537.5</ele>
        <time>2018-12-30T11:24:04Z</time>
      </trkpt>
      <trkpt lat="39.8372120" lon="2.8972900">
        <ele>537.7</ele>
        <time>2018-12-30T11:24:05Z</time>
      </trkpt>
      <trkpt lat="39.8371750" lon="2.8972760">
        <ele>537.9</ele>
        <time>2018-12-30T11:24:06Z</time>
      </trkpt>
      <trkpt lat="39.8371360" lon="2.8972630">
        <ele>538.1</ele>
        <time>2018-12-30T11:24:07Z</time>
      </trkpt>
      <trkpt lat="39.8370960" lon="2.8972520">
        <ele>538.4</ele>
        <time>2018-12-30T11:24:08Z</time>
      </trkpt>
      <trkpt lat="39.8370560" lon="2.8972450">
        <ele>538.6</ele>
        <time>2018-12-30T11:24:09Z</time>
      </trkpt>
      <trkpt lat="39.8370170" lon="2.8972360">
        <ele>538.8</ele>
        <time>2018-12-30T11:24:10Z</time>
      </trkpt>
      <trkpt lat="39.8369770" lon="2.8972270">
        <ele>539.0</ele>
        <time>2018-12-30T11:24:11Z</time>
      </trkpt>
      <trkpt lat="39.8369380" lon="2.8972160">
        <ele>539.2</ele>
        <time>2018-12-30T11:24:12Z</time>
      </trkpt>
      <trkpt lat="39.8368990" lon="2.8972040">
        <ele>539.4</ele>
        <time>2018-12-30T11:24:13Z</time>
      </trkpt>
      <trkpt lat="39.8368610" lon="2.8971910">
        <ele>539.6</ele>
        <time>2018-12-30T11:24:14Z</time>
      </trkpt>
      <trkpt lat="39.8368230" lon="2.8971790">
        <ele>539.8</ele>
        <time>2018-12-30T11:24:15Z</time>
      </trkpt>
      <trkpt lat="39.8367860" lon="2.8971670">
        <ele>540.0</ele>
        <time>2018-12-30T11:24:16Z</time>
      </trkpt>
      <trkpt lat="39.8367450" lon="2.8971550">
        <ele>540.2</ele>
        <time>2018-12-30T11:24:17Z</time>
      </trkpt>
      <trkpt lat="39.8367060" lon="2.8971390">
        <ele>540.3</ele>
        <time>2018-12-30T11:24:18Z</time>
      </trkpt>
      <trkpt lat="39.8366660" lon="2.8971240">
        <ele>540.5</ele>
        <time>2018-12-30T11:24:19Z</time>
      </trkpt>
      <trkpt lat="39.8366250" lon="2.8971110">
        <ele>540.6</ele>
        <time>2018-12-30T11:24:20Z</time>
      </trkpt>
      <trkpt lat="39.8365830" lon="2.8970990">
        <ele>540.7</ele>
        <time>2018-12-30T11:24:21Z</time>
      </trkpt>
      <trkpt lat="39.8365410" lon="2.8970860">
        <ele>540.9</ele>
        <time>2018-12-30T11:24:22Z</time>
      </trkpt>
      <trkpt lat="39.8364990" lon="2.8970730">
        <ele>541.0</ele>
        <time>2018-12-30T11:24:23Z</time>
      </trkpt>
      <trkpt lat="39.8364570" lon="2.8970590">
        <ele>541.1</ele>
        <time>2018-12-30T11:24:24Z</time>
      </trkpt>
      <trkpt lat="39.8364140" lon="2.8970450">
        <ele>541.2</ele>
        <time>2018-12-30T11:24:25Z</time>
      </trkpt>
      <trkpt lat="39.8363710" lon="2.8970310">
        <ele>541.6</ele>
        <time>2018-12-30T11:24:26Z</time>
      </trkpt>
      <trkpt lat="39.8363280" lon="2.8970170">
        <ele>541.9</ele>
        <time>2018-12-30T11:24:27Z</time>
      </trkpt>
      <trkpt lat="39.8362850" lon="2.8970010">
        <ele>542.2</ele>
        <time>2018-12-30T11:24:28Z</time>
      </trkpt>
      <trkpt lat="39.8362410" lon="2.8969850">
        <ele>542.6</ele>
        <time>2018-12-30T11:24:29Z</time>
      </trkpt>
      <trkpt lat="39.8361970" lon="2.8969700">
        <ele>542.9</ele>
        <time>2018-12-30T11:24:30Z</time>
      </trkpt>
      <trkpt lat="39.8361520" lon="2.8969570">
        <ele>543.2</ele>
        <time>2018-12-30T11:24:31Z</time>
      </trkpt>
      <trkpt lat="39.8361080" lon="2.8969420">
        <ele>543.5</ele>
        <time>2018-12-30T11:24:32Z</time>
      </trkpt>
      <trkpt lat="39.8360630" lon="2.8969270">
        <ele>543.8</ele>
        <time>2018-12-30T11:24:33Z</time>
      </trkpt>
      <trkpt lat="39.8360190" lon="2.8969110">
        <ele>544.1</ele>
        <time>2018-12-30T11:24:34Z</time>
      </trkpt>
      <trkpt lat="39.8359750" lon="2.8968950">
        <ele>544.4</ele>
        <time>2018-12-30T11:24:35Z</time>
      </trkpt>
      <trkpt lat="39.8359300" lon="2.8968790">
        <ele>544.6</ele>
        <time>2018-12-30T11:24:36Z</time>
      </trkpt>
      <trkpt lat="39.8358850" lon="2.8968630">
        <ele>544.9</ele>
        <time>2018-12-30T11:24:37Z</time>
      </trkpt>
      <trkpt lat="39.8358390" lon="2.8968460">
        <ele>545.2</ele>
        <time>2018-12-30T11:24:38Z</time>
      </trkpt>
      <trkpt lat="39.8357950" lon="2.8968300">
        <ele>545.4</ele>
        <time>2018-12-30T11:24:39Z</time>
      </trkpt>
      <trkpt lat="39.8357510" lon="2.8968130">
        <ele>545.7</ele>
        <time>2018-12-30T11:24:40Z</time>
      </trkpt>
      <trkpt lat="39.8357080" lon="2.8967960">
        <ele>545.9</ele>
        <time>2018-12-30T11:24:41Z</time>
      </trkpt>
      <trkpt lat="39.8356650" lon="2.8967780">
        <ele>546.2</ele>
        <time>2018-12-30T11:24:42Z</time>
      </trkpt>
      <trkpt lat="39.8356220" lon="2.8967590">
        <ele>546.4</ele>
        <time>2018-12-30T11:24:43Z</time>
      </trkpt>
      <trkpt lat="39.8355800" lon="2.8967370">
        <ele>546.7</ele>
        <time>2018-12-30T11:24:44Z</time>
      </trkpt>
      <trkpt lat="39.8355400" lon="2.8967140">
        <ele>546.9</ele>
        <time>2018-12-30T11:24:45Z</time>
      </trkpt>
      <trkpt lat="39.8355020" lon="2.8966880">
        <ele>547.2</ele>
        <time>2018-12-30T11:24:46Z</time>
      </trkpt>
      <trkpt lat="39.8354650" lon="2.8966600">
        <ele>547.4</ele>
        <time>2018-12-30T11:24:47Z</time>
      </trkpt>
      <trkpt lat="39.8354300" lon="2.8966300">
        <ele>547.6</ele>
        <time>2018-12-30T11:24:48Z</time>
      </trkpt>
      <trkpt lat="39.8353950" lon="2.8966000">
        <ele>547.7</ele>
        <time>2018-12-30T11:24:49Z</time>
      </trkpt>
      <trkpt lat="39.8353600" lon="2.8965690">
        <ele>547.9</ele>
        <time>2018-12-30T11:24:50Z</time>
      </trkpt>
      <trkpt lat="39.8353260" lon="2.8965370">
        <ele>548.1</ele>
        <time>2018-12-30T11:24:51Z</time>
      </trkpt>
      <trkpt lat="39.8352940" lon="2.8965060">
        <ele>548.3</ele>
        <time>2018-12-30T11:24:52Z</time>
      </trkpt>
      <trkpt lat="39.8352620" lon="2.8964730">
        <ele>548.5</ele>
        <time>2018-12-30T11:24:53Z</time>
      </trkpt>
      <trkpt lat="39.8352310" lon="2.8964400">
        <ele>548.7</ele>
        <time>2018-12-30T11:24:54Z</time>
      </trkpt>
      <trkpt lat="39.8352010" lon="2.8964070">
        <ele>549.0</ele>
        <time>2018-12-30T11:24:55Z</time>
      </trkpt>
      <trkpt lat="39.8351700" lon="2.8963730">
        <ele>549.2</ele>
        <time>2018-12-30T11:24:56Z</time>
      </trkpt>
      <trkpt lat="39.8351390" lon="2.8963380">
        <ele>549.5</ele>
        <time>2018-12-30T11:24:57Z</time>
      </trkpt>
      <trkpt lat="39.8351070" lon="2.8963040">
        <ele>549.7</ele>
        <time>2018-12-30T11:24:58Z</time>
      </trkpt>
      <trkpt lat="39.8350750" lon="2.8962700">
        <ele>549.9</ele>
        <time>2018-12-30T11:24:59Z</time>
      </trkpt>
      <trkpt lat="39.8350430" lon="2.8962360">
        <ele>550.2</ele>
        <time>2018-12-30T11:25:00Z</time>
      </trkpt>
      <trkpt lat="39.8350110" lon="2.8962000">
        <ele>550.4</ele>
        <time>2018-12-30T11:25:01Z</time>
      </trkpt>
      <trkpt lat="39.8349810" lon="2.8961640">
        <ele>550.6</ele>
        <time>2018-12-30T11:25:02Z</time>
      </trkpt>
      <trkpt lat="39.8349500" lon="2.8961290">
        <ele>550.8</ele>
        <time>2018-12-30T11:25:03Z</time>
      </trkpt>
      <trkpt lat="39.8349180" lon="2.8960950">
        <ele>551.0</ele>
        <time>2018-12-30T11:25:04Z</time>
      </trkpt>
      <trkpt lat="39.8348840" lon="2.8960630">
        <ele>551.2</ele>
        <time>2018-12-30T11:25:05Z</time>
      </trkpt>
      <trkpt lat="39.8348500" lon="2.8960310">
        <ele>551.4</ele>
        <time>2018-12-30T11:25:06Z</time>
      </trkpt>
      <trkpt lat="39.8348150" lon="2.8960010">
        <ele>551.6</ele>
        <time>2018-12-30T11:25:07Z</time>
      </trkpt>
      <trkpt lat="39.8347810" lon="2.8959700">
        <ele>551.8</ele>
        <time>2018-12-30T11:25:08Z</time>
      </trkpt>
      <trkpt lat="39.8347450" lon="2.8959420">
        <ele>551.9</ele>
        <time>2018-12-30T11:25:09Z</time>
      </trkpt>
      <trkpt lat="39.8347090" lon="2.8959150">
        <ele>552.1</ele>
        <time>2018-12-30T11:25:10Z</time>
      </trkpt>
      <trkpt lat="39.8346730" lon="2.8958920">
        <ele>552.2</ele>
        <time>2018-12-30T11:25:11Z</time>
      </trkpt>
      <trkpt lat="39.8346350" lon="2.8958740">
        <ele>552.5</ele>
        <time>2018-12-30T11:25:12Z</time>
      </trkpt>
      <trkpt lat="39.8345950" lon="2.8958600">
        <ele>552.7</ele>
        <time>2018-12-30T11:25:13Z</time>
      </trkpt>
      <trkpt lat="39.8345530" lon="2.8958510">
        <ele>552.9</ele>
        <time>2018-12-30T11:25:14Z</time>
      </trkpt>
      <trkpt lat="39.8345110" lon="2.8958440">
        <ele>553.1</ele>
        <time>2018-12-30T11:25:15Z</time>
      </trkpt>
      <trkpt lat="39.8344680" lon="2.8958400">
        <ele>553.3</ele>
        <time>2018-12-30T11:25:16Z</time>
      </trkpt>
      <trkpt lat="39.8344250" lon="2.8958380">
        <ele>553.5</ele>
        <time>2018-12-30T11:25:17Z</time>
      </trkpt>
      <trkpt lat="39.8343820" lon="2.8958370">
        <ele>553.8</ele>
        <time>2018-12-30T11:25:18Z</time>
      </trkpt>
      <trkpt lat="39.8343400" lon="2.8958390">
        <ele>554.0</ele>
        <time>2018-12-30T11:25:19Z</time>
      </trkpt>
      <trkpt lat="39.8342990" lon="2.8958400">
        <ele>554.2</ele>
        <time>2018-12-30T11:25:20Z</time>
      </trkpt>
      <trkpt lat="39.8342590" lon="2.8958420">
        <ele>554.4</ele>
        <time>2018-12-30T11:25:21Z</time>
      </trkpt>
      <trkpt lat="39.8342190" lon="2.8958440">
        <ele>554.6</ele>
        <time>2018-12-30T11:25:22Z</time>
      </trkpt>
      <trkpt lat="39.8341800" lon="2.8958450">
        <ele>554.8</ele>
        <time>2018-12-30T11:25:23Z</time>
      </trkpt>
      <trkpt lat="39.8341400" lon="2.8958490">
        <ele>555.0</ele>
        <time>2018-12-30T11:25:24Z</time>
      </trkpt>
      <trkpt lat="39.8341000" lon="2.8958530">
        <ele>555.2</ele>
        <time>2018-12-30T11:25:25Z</time>
      </trkpt>
      <trkpt lat="39.8340590" lon="2.8958580">
        <ele>555.4</ele>
        <time>2018-12-30T11:25:26Z</time>
      </trkpt>
      <trkpt lat="39.8340190" lon="2.8958620">
        <ele>555.6</ele>
        <time>2018-12-30T11:25:27Z</time>
      </trkpt>
      <trkpt lat="39.8339800" lon="2.8958660">
        <ele>555.8</ele>
        <time>2018-12-30T11:25:28Z</time>
      </trkpt>
      <trkpt lat="39.8339420" lon="2.8958700">
        <ele>555.9</ele>
        <time>2018-12-30T11:25:29Z</time>
      </trkpt>
      <trkpt lat="39.8339040" lon="2.8958730">
        <ele>556.1</ele>
        <time>2018-12-30T11:25:30Z</time>
      </trkpt>
      <trkpt lat="39.8338660" lon="2.8958760">
        <ele>556.3</ele>
        <time>2018-12-30T11:25:31Z</time>
      </trkpt>
      <trkpt lat="39.8338280" lon="2.8958810">
        <ele>556.5</ele>
        <time>2018-12-30T11:25:32Z</time>
      </trkpt>
      <trkpt lat="39.8337900" lon="2.8958860">
        <ele>556.6</ele>
        <time>2018-12-30T11:25:33Z</time>
      </trkpt>
      <trkpt lat="39.8337510" lon="2.8958920">
        <ele>556.8</ele>
        <time>2018-12-30T11:25:34Z</time>
      </trkpt>
      <trkpt lat="39.8337140" lon="2.8958980">
        <ele>557.1</ele>
        <time>2018-12-30T11:25:35Z</time>
      </trkpt>
      <trkpt lat="39.8336760" lon="2.8959020">
        <ele>557.3</ele>
        <time>2018-12-30T11:25:36Z</time>
      </trkpt>
      <trkpt lat="39.8336390" lon="2.8959050">
        <ele>557.5</ele>
        <time>2018-12-30T11:25:37Z</time>
      </trkpt>
      <trkpt lat="39.8336020" lon="2.8959070">
        <ele>557.7</ele>
        <time>2018-12-30T11:25:38Z</time>
      </trkpt>
      <trkpt lat="39.8335650" lon="2.8959090">
        <ele>558.0</ele>
        <time>2018-12-30T11:25:39Z</time>
      </trkpt>
      <trkpt lat="39.8335270" lon="2.8959100">
        <ele>558.3</ele>
        <time>2018-12-30T11:25:40Z</time>
      </trkpt>
      <trkpt lat="39.8334900" lon="2.8959110">
        <ele>558.6</ele>
        <time>2018-12-30T11:25:41Z</time>
      </trkpt>
      <trkpt lat="39.8334540" lon="2.8959110">
        <ele>558.8</ele>
        <time>2018-12-30T11:25:42Z</time>
      </trkpt>
      <trkpt lat="39.8334180" lon="2.8959110">
        <ele>559.1</ele>
        <time>2018-12-30T11:25:43Z</time>
      </trkpt>
      <trkpt lat="39.8333820" lon="2.8959110">
        <ele>559.4</ele>
        <time>2018-12-30T11:25:44Z</time>
      </trkpt>
      <trkpt lat="39.8333450" lon="2.8959100">
        <ele>559.7</ele>
        <time>2018-12-30T11:25:45Z</time>
      </trkpt>
      <trkpt lat="39.8333080" lon="2.8959070">
        <ele>560.0</ele>
        <time>2018-12-30T11:25:46Z</time>
      </trkpt>
      <trkpt lat="39.8332710" lon="2.8959020">
        <ele>560.2</ele>
        <time>2018-12-30T11:25:47Z</time>
      </trkpt>
      <trkpt lat="39.8332350" lon="2.8958960">
        <ele>560.5</ele>
        <time>2018-12-30T11:25:48Z</time>
      </trkpt>
      <trkpt lat="39.8331990" lon="2.8958890">
        <ele>560.7</ele>
        <time>2018-12-30T11:25:49Z</time>
      </trkpt>
      <trkpt lat="39.8331620" lon="2.8958820">
        <ele>560.9</ele>
        <time>2018-12-30T11:25:50Z</time>
      </trkpt>
      <trkpt lat="39.8331240" lon="2.8958760">
        <ele>561.2</ele>
        <time>2018-12-30T11:25:51Z</time>
      </trkpt>
      <trkpt lat="39.8330860" lon="2.8958730">
        <ele>561.4</ele>
        <time>2018-12-30T11:25:52Z</time>
      </trkpt>
      <trkpt lat="39.8330470" lon="2.8958700">
        <ele>561.6</ele>
        <time>2018-12-30T11:25:53Z</time>
      </trkpt>
      <trkpt lat="39.8330100" lon="2.8958650">
        <ele>561.8</ele>
        <time>2018-12-30T11:25:54Z</time>
      </trkpt>
      <trkpt lat="39.8329730" lon="2.8958590">
        <ele>562.0</ele>
        <time>2018-12-30T11:25:55Z</time>
      </trkpt>
      <trkpt lat="39.8329370" lon="2.8958520">
        <ele>562.1</ele>
        <time>2018-12-30T11:25:56Z</time>
      </trkpt>
      <trkpt lat="39.8329010" lon="2.8958460">
        <ele>562.3</ele>
        <time>2018-12-30T11:25:57Z</time>
      </trkpt>
      <trkpt lat="39.8328640" lon="2.8958410">
        <ele>562.4</ele>
        <time>2018-12-30T11:25:58Z</time>
      </trkpt>
      <trkpt lat="39.8328280" lon="2.8958350">
        <ele>562.6</ele>
        <time>2018-12-30T11:25:59Z</time>
      </trkpt>
      <trkpt lat="39.8327940" lon="2.8958280">
        <ele>562.7</ele>
        <time>2018-12-30T11:26:00Z</time>
      </trkpt>
      <trkpt lat="39.8327590" lon="2.8958210">
        <ele>562.9</ele>
        <time>2018-12-30T11:26:01Z</time>
      </trkpt>
      <trkpt lat="39.8327250" lon="2.8958140">
        <ele>563.0</ele>
        <time>2018-12-30T11:26:02Z</time>
      </trkpt>
      <trkpt lat="39.8326910" lon="2.8958070">
        <ele>563.1</ele>
        <time>2018-12-30T11:26:03Z</time>
      </trkpt>
      <trkpt lat="39.8326580" lon="2.8958000">
        <ele>563.3</ele>
        <time>2018-12-30T11:26:04Z</time>
      </trkpt>
      <trkpt lat="39.8326240" lon="2.8957920">
        <ele>563.4</ele>
        <time>2018-12-30T11:26:05Z</time>
      </trkpt>
      <trkpt lat="39.8325900" lon="2.8957840">
        <ele>563.5</ele>
        <time>2018-12-30T11:26:06Z</time>
      </trkpt>
      <trkpt lat="39.8325570" lon="2.8957760">
        <ele>563.6</ele>
        <time>2018-12-30T11:26:07Z</time>
      </trkpt>
      <trkpt lat="39.8325230" lon="2.8957700">
        <ele>563.7</ele>
        <time>2018-12-30T11:26:08Z</time>
      </trkpt>
      <trkpt lat="39.8324890" lon="2.8957640">
        <ele>563.8</ele>
        <time>2018-12-30T11:26:09Z</time>
      </trkpt>
      <trkpt lat="39.8324540" lon="2.8957580">
        <ele>563.9</ele>
        <time>2018-12-30T11:26:10Z</time>
      </trkpt>
      <trkpt lat="39.8324180" lon="2.8957510">
        <ele>564.0</ele>
        <time>2018-12-30T11:26:11Z</time>
      </trkpt>
      <trkpt lat="39.8323830" lon="2.8957450">
        <ele>564.1</ele>
        <time>2018-12-30T11:26:12Z</time>
      </trkpt>
      <trkpt lat="39.8323460" lon="2.8957380">
        <ele>564.1</ele>
        <time>2018-12-30T11:26:13Z</time>
      </trkpt>
      <trkpt lat="39.8323090" lon="2.8957310">
        <ele>564.2</ele>
        <time>2018-12-30T11:26:14Z</time>
      </trkpt>
      <trkpt lat="39.8322710" lon="2.8957240">
        <ele>564.3</ele>
        <time>2018-12-30T11:26:15Z</time>
      </trkpt>
      <trkpt lat="39.8322340" lon="2.8957150">
        <ele>564.4</ele>
        <time>2018-12-30T11:26:16Z</time>
      </trkpt>
      <trkpt lat="39.8321950" lon="2.8957050">
        <ele>564.5</ele>
        <time>2018-12-30T11:26:17Z</time>
      </trkpt>
      <trkpt lat="39.8321570" lon="2.8956960">
        <ele>564.6</ele>
        <time>2018-12-30T11:26:18Z</time>
      </trkpt>
      <trkpt lat="39.8321170" lon="2.8956870">
        <ele>564.7</ele>
        <time>2018-12-30T11:26:19Z</time>
      </trkpt>
      <trkpt lat="39.8320770" lon="2.8956770">
        <ele>564.8</ele>
        <time>2018-12-30T11:26:20Z</time>
      </trkpt>
      <trkpt lat="39.8320340" lon="2.8956680">
        <ele>564.9</ele>
        <time>2018-12-30T11:26:21Z</time>
      </trkpt>
      <trkpt lat="39.8319890" lon="2.8956580">
        <ele>564.9</ele>
        <time>2018-12-30T11:26:22Z</time>
      </trkpt>
      <trkpt lat="39.8319430" lon="2.8956500">
        <ele>565.0</ele>
        <time>2018-12-30T11:26:23Z</time>
      </trkpt>
      <trkpt lat="39.8318960" lon="2.8956420">
        <ele>565.0</ele>
        <time>2018-12-30T11:26:24Z</time>
      </trkpt>
      <trkpt lat="39.8318480" lon="2.8956340">
        <ele>565.0</ele>
        <time>2018-12-30T11:26:25Z</time>
      </trkpt>
      <trkpt lat="39.8318010" lon="2.8956240">
        <ele>565.1</ele>
        <time>2018-12-30T11:26:26Z</time>
      </trkpt>
      <trkpt lat="39.8317520" lon="2.8956140">
        <ele>565.1</ele>
        <time>2018-12-30T11:26:27Z</time>
      </trkpt>
      <trkpt lat="39.8317030" lon="2.8956050">
        <ele>565.1</ele>
        <time>2018-12-30T11:26:28Z</time>
      </trkpt>
      <trkpt lat="39.8316530" lon="2.8955970">
        <ele>565.1</ele>
        <time>2018-12-30T11:26:29Z</time>
      </trkpt>
      <trkpt lat="39.8316020" lon="2.8955920">
        <ele>565.1</ele>
        <time>2018-12-30T11:26:30Z</time>
      </trkpt>
      <trkpt lat="39.8315490" lon="2.8955900">
        <ele>565.1</ele>
        <time>2018-12-30T11:26:31Z</time>
      </trkpt>
      <trkpt lat="39.8314960" lon="2.8955880">
        <ele>565.1</ele>
        <time>2018-12-30T11:26:32Z</time>
      </trkpt>
      <trkpt lat="39.8314440" lon="2.8955860">
        <ele>565.1</ele>
        <time>2018-12-30T11:26:33Z</time>
      </trkpt>
      <trkpt lat="39.8313920" lon="2.8955850">
        <ele>565.1</ele>
        <time>2018-12-30T11:26:34Z</time>
      </trkpt>
      <trkpt lat="39.8313360" lon="2.8955900">
        <ele>565.1</ele>
        <time>2018-12-30T11:26:35Z</time>
      </trkpt>
      <trkpt lat="39.8312790" lon="2.8956000">
        <ele>565.1</ele>
        <time>2018-12-30T11:26:36Z</time>
      </trkpt>
      <trkpt lat="39.8312190" lon="2.8956120">
        <ele>565.1</ele>
        <time>2018-12-30T11:26:37Z</time>
      </trkpt>
      <trkpt lat="39.8311590" lon="2.8956230">
        <ele>565.1</ele>
        <time>2018-12-30T11:26:38Z</time>
      </trkpt>
      <trkpt lat="39.8310980" lon="2.8956350">
        <ele>565.0</ele>
        <time>2018-12-30T11:26:39Z</time>
      </trkpt>
      <trkpt lat="39.8310380" lon="2.8956490">
        <ele>565.0</ele>
        <time>2018-12-30T11:26:40Z</time>
      </trkpt>
      <trkpt lat="39.8309780" lon="2.8956620">
        <ele>564.9</ele>
        <time>2018-12-30T11:26:41Z</time>
      </trkpt>
      <trkpt lat="39.8309170" lon="2.8956740">
        <ele>564.8</ele>
        <time>2018-12-30T11:26:42Z</time>
      </trkpt>
      <trkpt lat="39.8308550" lon="2.8956850">
        <ele>564.8</ele>
        <time>2018-12-30T11:26:43Z</time>
      </trkpt>
      <trkpt lat="39.8307920" lon="2.8956970">
        <ele>564.7</ele>
        <time>2018-12-30T11:26:44Z</time>
      </trkpt>
      <trkpt lat="39.8307270" lon="2.8957100">
        <ele>564.6</ele>
        <time>2018-12-30T11:26:45Z</time>
      </trkpt>
      <trkpt lat="39.8306620" lon="2.8957270">
        <ele>564.6</ele>
        <time>2018-12-30T11:26:46Z</time>
      </trkpt>
      <trkpt lat="39.8305970" lon="2.8957460">
        <ele>564.6</ele>
        <time>2018-12-30T11:26:47Z</time>
      </trkpt>
      <trkpt lat="39.8305360" lon="2.8957670">
        <ele>564.5</ele>
        <time>2018-12-30T11:26:48Z</time>
      </trkpt>
      <trkpt lat="39.8304790" lon="2.8957920">
        <ele>564.5</ele>
        <time>2018-12-30T11:26:49Z</time>
      </trkpt>
      <trkpt lat="39.8304260" lon="2.8958290">
        <ele>564.5</ele>
        <time>2018-12-30T11:26:50Z</time>
      </trkpt>
      <trkpt lat="39.8303760" lon="2.8958800">
        <ele>564.5</ele>
        <time>2018-12-30T11:26:51Z</time>
      </trkpt>
      <trkpt lat="39.8303270" lon="2.8959480">
        <ele>564.5</ele>
        <time>2018-12-30T11:26:52Z</time>
      </trkpt>
      <trkpt lat="39.8302730" lon="2.8960300">
        <ele>564.4</ele>
        <time>2018-12-30T11:26:53Z</time>
      </trkpt>
      <trkpt lat="39.8302180" lon="2.8961180">
        <ele>564.4</ele>
        <time>2018-12-30T11:26:54Z</time>
      </trkpt>
      <trkpt lat="39.8301650" lon="2.8962050">
        <ele>564.3</ele>
        <time>2018-12-30T11:26:55Z</time>
      </trkpt>
      <trkpt lat="39.8301170" lon="2.8962850">
        <ele>564.3</ele>
        <time>2018-12-30T11:26:56Z</time>
      </trkpt>
      <trkpt lat="39.8300660" lon="2.8963670">
        <ele>564.3</ele>
        <time>2018-12-30T11:26:57Z</time>
      </trkpt>
      <trkpt lat="39.8300140" lon="2.8964500">
        <ele>564.2</ele>
        <time>2018-12-30T11:26:58Z</time>
      </trkpt>
      <trkpt lat="39.8299580" lon="2.8965410">
        <ele>564.0</ele>
        <time>2018-12-30T11:26:59Z</time>
      </trkpt>
      <trkpt lat="39.8299050" lon="2.8966310">
        <ele>563.6</ele>
        <time>2018-12-30T11:27:00Z</time>
      </trkpt>
      <trkpt lat="39.8298500" lon="2.8967260">
        <ele>563.1</ele>
        <time>2018-12-30T11:27:01Z</time>
      </trkpt>
      <trkpt lat="39.8297960" lon="2.8968190">
        <ele>562.6</ele>
        <time>2018-12-30T11:27:02Z</time>
      </trkpt>
      <trkpt lat="39.8297410" lon="2.8969130">
        <ele>562.2</ele>
        <time>2018-12-30T11:27:03Z</time>
      </trkpt>
      <trkpt lat="39.8296870" lon="2.8970070">
        <ele>561.7</ele>
        <time>2018-12-30T11:27:04Z</time>
      </trkpt>
      <trkpt lat="39.8296330" lon="2.8971000">
        <ele>561.1</ele>
        <time>2018-12-30T11:27:05Z</time>
      </trkpt>
      <trkpt lat="39.8295790" lon="2.8971940">
        <ele>560.4</ele>
        <time>2018-12-30T11:27:06Z</time>
      </trkpt>
      <trkpt lat="39.8295280" lon="2.8972860">
        <ele>559.8</ele>
        <time>2018-12-30T11:27:07Z</time>
      </trkpt>
      <trkpt lat="39.8294770" lon="2.8973800">
        <ele>559.2</ele>
        <time>2018-12-30T11:27:08Z</time>
      </trkpt>
      <trkpt lat="39.8294240" lon="2.8974760">
        <ele>558.5</ele>
        <time>2018-12-30T11:27:09Z</time>
      </trkpt>
      <trkpt lat="39.8293690" lon="2.8975760">
        <ele>557.7</ele>
        <time>2018-12-30T11:27:10Z</time>
      </trkpt>
      <trkpt lat="39.8293140" lon="2.8976760">
        <ele>557.5</ele>
        <time>2018-12-30T11:27:11Z</time>
      </trkpt>
      <trkpt lat="39.8292560" lon="2.8977770">
        <ele>557.1</ele>
        <time>2018-12-30T11:27:12Z</time>
      </trkpt>
      <trkpt lat="39.8291970" lon="2.8978750">
        <ele>556.6</ele>
        <time>2018-12-30T11:27:13Z</time>
      </trkpt>
      <trkpt lat="39.8291280" lon="2.8979620">
        <ele>556.2</ele>
        <time>2018-12-30T11:27:14Z</time>
      </trkpt>
      <trkpt lat="39.8290470" lon="2.8980350">
        <ele>555.7</ele>
        <time>2018-12-30T11:27:15Z</time>
      </trkpt>
      <trkpt lat="39.8289490" lon="2.8980800">
        <ele>555.3</ele>
        <time>2018-12-30T11:27:16Z</time>
      </trkpt>
      <trkpt lat="39.8288470" lon="2.8980960">
        <ele>554.9</ele>
        <time>2018-12-30T11:27:17Z</time>
      </trkpt>
      <trkpt lat="39.8287420" lon="2.8980870">
        <ele>554.7</ele>
        <time>2018-12-30T11:27:18Z</time>
      </trkpt>
      <trkpt lat="39.8286370" lon="2.8980670">
        <ele>554.6</ele>
        <time>2018-12-30T11:27:19Z</time>
      </trkpt>
      <trkpt lat="39.8285270" lon="2.8980450">
        <ele>554.4</ele>
        <time>2018-12-30T11:27:20Z</time>
      </trkpt>
      <trkpt lat="39.8284160" lon="2.8980190">
        <ele>554.1</ele>
        <time>2018-12-30T11:27:21Z</time>
      </trkpt>
      <trkpt lat="39.8283050" lon="2.8979920">
        <ele>553.5</ele>
        <time>2018-12-30T11:27:22Z</time>
      </trkpt>
      <trkpt lat="39.8281940" lon="2.8979680">
        <ele>552.5</ele>
        <time>2018-12-30T11:27:23Z</time>
      </trkpt>
      <trkpt lat="39.8280800" lon="2.8979540">
        <ele>551.3</ele>
        <time>2018-12-30T11:27:24Z</time>
      </trkpt>
      <trkpt lat="39.8279870" lon="2.8979610">
        <ele>550.4</ele>
        <time>2018-12-30T11:27:25Z</time>
      </trkpt>
      <trkpt lat="39.8278950" lon="2.8980070">
        <ele>549.7</ele>
        <time>2018-12-30T11:27:26Z</time>
      </trkpt>
      <trkpt lat="39.8278160" lon="2.8980910">
        <ele>549.1</ele>
        <time>2018-12-30T11:27:27Z</time>
      </trkpt>
      <trkpt lat="39.8277350" lon="2.8982010">
        <ele>548.6</ele>
        <time>2018-12-30T11:27:28Z</time>
      </trkpt>
      <trkpt lat="39.8276710" lon="2.8983180">
        <ele>548.2</ele>
        <time>2018-12-30T11:27:29Z</time>
      </trkpt>
      <trkpt lat="39.8276150" lon="2.8984400">
        <ele>547.8</ele>
        <time>2018-12-30T11:27:30Z</time>
      </trkpt>
      <trkpt lat="39.8275610" lon="2.8985640">
        <ele>547.5</ele>
        <time>2018-12-30T11:27:31Z</time>
      </trkpt>
      <trkpt lat="39.8275050" lon="2.8986920">
        <ele>547.1</ele>
        <time>2018-12-30T11:27:32Z</time>
      </trkpt>
      <trkpt lat="39.8274510" lon="2.8988210">
        <ele>546.7</ele>
        <time>2018-12-30T11:27:33Z</time>
      </trkpt>
      <trkpt lat="39.8273990" lon="2.8989500">
        <ele>546.2</ele>
        <time>2018-12-30T11:27:34Z</time>
      </trkpt>
      <trkpt lat="39.8273500" lon="2.8990760">
        <ele>545.5</ele>
        <time>2018-12-30T11:27:35Z</time>
      </trkpt>
      <trkpt lat="39.8273000" lon="2.8992050">
        <ele>544.8</ele>
        <time>2018-12-30T11:27:36Z</time>
      </trkpt>
      <trkpt lat="39.8272420" lon="2.8993350">
        <ele>544.0</ele>
        <time>2018-12-30T11:27:37Z</time>
      </trkpt>
      <trkpt lat="39.8271710" lon="2.8994570">
        <ele>543.2</ele>
        <time>2018-12-30T11:27:38Z</time>
      </trkpt>
      <trkpt lat="39.8270940" lon="2.8995570">
        <ele>542.5</ele>
        <time>2018-12-30T11:27:39Z</time>
      </trkpt>
      <trkpt lat="39.8269910" lon="2.8996270">
        <ele>541.7</ele>
        <time>2018-12-30T11:27:40Z</time>
      </trkpt>
      <trkpt lat="39.8268820" lon="2.8996690">
        <ele>541.1</ele>
        <time>2018-12-30T11:27:41Z</time>
      </trkpt>
      <trkpt lat="39.8267600" lon="2.8996990">
        <ele>540.5</ele>
        <time>2018-12-30T11:27:42Z</time>
      </trkpt>
      <trkpt lat="39.8266480" lon="2.8997240">
        <ele>539.9</ele>
        <time>2018-12-30T11:27:43Z</time>
      </trkpt>
      <trkpt lat="39.8265380" lon="2.8997490">
        <ele>539.3</ele>
        <time>2018-12-30T11:27:44Z</time>
      </trkpt>
      <trkpt lat="39.8264260" lon="2.8997730">
        <ele>538.8</ele>
        <time>2018-12-30T11:27:45Z</time>
      </trkpt>
      <trkpt lat="39.8263090" lon="2.8997980">
        <ele>538.2</ele>
        <time>2018-12-30T11:27:46Z</time>
      </trkpt>
      <trkpt lat="39.8261820" lon="2.8998310">
        <ele>537.5</ele>
        <time>2018-12-30T11:27:47Z</time>
      </trkpt>
      <trkpt lat="39.8260520" lon="2.8998610">
        <ele>536.9</ele>
        <time>2018-12-30T11:27:48Z</time>
      </trkpt>
      <trkpt lat="39.8259230" lon="2.8998860">
        <ele>536.3</ele>
        <time>2018-12-30T11:27:49Z</time>
      </trkpt>
      <trkpt lat="39.8258000" lon="2.8998950">
        <ele>535.6</ele>
        <time>2018-12-30T11:27:50Z</time>
      </trkpt>
      <trkpt lat="39.8256810" lon="2.8998880">
        <ele>534.9</ele>
        <time>2018-12-30T11:27:51Z</time>
      </trkpt>
      <trkpt lat="39.8255720" lon="2.8998660">
        <ele>534.1</ele>
        <time>2018-12-30T11:27:52Z</time>
      </trkpt>
      <trkpt lat="39.8254680" lon="2.8998380">
        <ele>533.4</ele>
        <time>2018-12-30T11:27:53Z</time>
      </trkpt>
      <trkpt lat="39.8253660" lon="2.8998040">
        <ele>532.7</ele>
        <time>2018-12-30T11:27:54Z</time>
      </trkpt>
      <trkpt lat="39.8252610" lon="2.8997680">
        <ele>532.0</ele>
        <time>2018-12-30T11:27:55Z</time>
      </trkpt>
      <trkpt lat="39.8251590" lon="2.8997230">
        <ele>531.2</ele>
        <time>2018-12-30T11:27:56Z</time>
      </trkpt>
      <trkpt lat="39.8250570" lon="2.8996680">
        <ele>530.5</ele>
        <time>2018-12-30T11:27:57Z</time>
      </trkpt>
      <trkpt lat="39.8249600" lon="2.8996050">
        <ele>529.8</ele>
        <time>2018-12-30T11:27:58Z</time>
      </trkpt>
      <trkpt lat="39.8248640" lon="2.8995420">
        <ele>529.1</ele>
        <time>2018-12-30T11:27:59Z</time>
      </trkpt>
      <trkpt lat="39.8247700" lon="2.8994820">
        <ele>528.7</ele>
        <time>2018-12-30T11:28:00Z</time>
      </trkpt>
      <trkpt lat="39.8246750" lon="2.8994240">
        <ele>528.3</ele>
        <time>2018-12-30T11:28:01Z</time>
      </trkpt>
      <trkpt lat="39.8245780" lon="2.8993600">
        <ele>528.1</ele>
        <time>2018-12-30T11:28:02Z</time>
      </trkpt>
      <trkpt lat="39.8244820" lon="2.8992950">
        <ele>528.0</ele>
        <time>2018-12-30T11:28:03Z</time>
      </trkpt>
      <trkpt lat="39.8243870" lon="2.8992310">
        <ele>527.8</ele>
        <time>2018-12-30T11:28:04Z</time>
      </trkpt>
      <trkpt lat="39.8242920" lon="2.8991680">
        <ele>527.6</ele>
        <time>2018-12-30T11:28:05Z</time>
      </trkpt>
      <trkpt lat="39.8241980" lon="2.8991040">
        <ele>527.1</ele>
        <time>2018-12-30T11:28:06Z</time>
      </trkpt>
      <trkpt lat="39.8241040" lon="2.8990380">
        <ele>526.2</ele>
        <time>2018-12-30T11:28:07Z</time>
      </trkpt>
      <trkpt lat="39.8240110" lon="2.8989700">
        <ele>525.0</ele>
        <time>2018-12-30T11:28:08Z</time>
      </trkpt>
      <trkpt lat="39.8239200" lon="2.8989030">
        <ele>523.7</ele>
        <time>2018-12-30T11:28:09Z</time>
      </trkpt>
      <trkpt lat="39.8238320" lon="2.8988380">
        <ele>522.6</ele>
        <time>2018-12-30T11:28:10Z</time>
      </trkpt>
      <trkpt lat="39.8237470" lon="2.8987720">
        <ele>521.7</ele>
        <time>2018-12-30T11:28:11Z</time>
      </trkpt>
      <trkpt lat="39.8236690" lon="2.8986830">
        <ele>520.9</ele>
        <time>2018-12-30T11:28:12Z</time>
      </trkpt>
      <trkpt lat="39.8235920" lon="2.8985910">
        <ele>520.2</ele>
        <time>2018-12-30T11:28:13Z</time>
      </trkpt>
      <trkpt lat="39.8235170" lon="2.8984740">
        <ele>519.3</ele>
        <time>2018-12-30T11:28:14Z</time>
      </trkpt>
      <trkpt lat="39.8234380" lon="2.8983550">
        <ele>518.4</ele>
        <time>2018-12-30T11:28:15Z</time>
      </trkpt>
      <trkpt lat="39.8233600" lon="2.8982230">
        <ele>517.4</ele>
        <time>2018-12-30T11:28:16Z</time>
      </trkpt>
      <trkpt lat="39.8232830" lon="2.8981090">
        <ele>516.6</ele>
        <time>2018-12-30T11:28:17Z</time>
      </trkpt>
      <trkpt lat="39.8232080" lon="2.8980090">
        <ele>516.0</ele>
        <time>2018-12-30T11:28:18Z</time>
      </trkpt>
      <trkpt lat="39.8231350" lon="2.8979140">
        <ele>515.5</ele>
        <time>2018-12-30T11:28:19Z</time>
      </trkpt>
      <trkpt lat="39.8230580" lon="2.8977960">
        <ele>515.1</ele>
        <time>2018-12-30T11:28:20Z</time>
      </trkpt>
      <trkpt lat="39.8229810" lon="2.8976660">
        <ele>514.8</ele>
        <time>2018-12-30T11:28:21Z</time>
      </trkpt>
      <trkpt lat="39.8229030" lon="2.8975330">
        <ele>514.2</ele>
        <time>2018-12-30T11:28:22Z</time>
      </trkpt>
      <trkpt lat="39.8228280" lon="2.8974190">
        <ele>513.4</ele>
        <time>2018-12-30T11:28:23Z</time>
      </trkpt>
      <trkpt lat="39.8227520" lon="2.8973150">
        <ele>512.4</ele>
        <time>2018-12-30T11:28:24Z</time>
      </trkpt>
      <trkpt lat="39.8226780" lon="2.8972190">
        <ele>511.4</ele>
        <time>2018-12-30T11:28:25Z</time>
      </trkpt>
      <trkpt lat="39.8226050" lon="2.8971280">
        <ele>510.6</ele>
        <time>2018-12-30T11:28:26Z</time>
      </trkpt>
      <trkpt lat="39.8225320" lon="2.8970460">
        <ele>509.9</ele>
        <time>2018-12-30T11:28:27Z</time>
      </trkpt>
      <trkpt lat="39.8224610" lon="2.8969670">
        <ele>509.2</ele>
        <time>2018-12-30T11:28:28Z</time>
      </trkpt>
      <trkpt lat="39.8223920" lon="2.8968920">
        <ele>508.6</ele>
        <time>2018-12-30T11:28:29Z</time>
      </trkpt>
      <trkpt lat="39.8223250" lon="2.8968150">
        <ele>508.0</ele>
        <time>2018-12-30T11:28:30Z</time>
      </trkpt>
      <trkpt lat="39.8222570" lon="2.8967340">
        <ele>507.4</ele>
        <time>2018-12-30T11:28:31Z</time>
      </trkpt>
      <trkpt lat="39.8221890" lon="2.8966440">
        <ele>506.7</ele>
        <time>2018-12-30T11:28:32Z</time>
      </trkpt>
      <trkpt lat="39.8221210" lon="2.8965440">
        <ele>506.0</ele>
        <time>2018-12-30T11:28:33Z</time>
      </trkpt>
      <trkpt lat="39.8220560" lon="2.8964410">
        <ele>505.4</ele>
        <time>2018-12-30T11:28:34Z</time>
      </trkpt>
      <trkpt lat="39.8219910" lon="2.8963420">
        <ele>504.8</ele>
        <time>2018-12-30T11:28:35Z</time>
      </trkpt>
      <trkpt lat="39.8219270" lon="2.8962570">
        <ele>504.3</ele>
        <time>2018-12-30T11:28:36Z</time>
      </trkpt>
      <trkpt lat="39.8218610" lon="2.8961780">
        <ele>503.9</ele>
        <time>2018-12-30T11:28:37Z</time>
      </trkpt>
      <trkpt lat="39.8217950" lon="2.8961050">
        <ele>503.5</ele>
        <time>2018-12-30T11:28:38Z</time>
      </trkpt>
      <trkpt lat="39.8217280" lon="2.8960210">
        <ele>503.1</ele>
        <time>2018-12-30T11:28:39Z</time>
      </trkpt>
      <trkpt lat="39.8216600" lon="2.8959190">
        <ele>502.7</ele>
        <time>2018-12-30T11:28:40Z</time>
      </trkpt>
      <trkpt lat="39.8215930" lon="2.8958140">
        <ele>502.3</ele>
        <time>2018-12-30T11:28:41Z</time>
      </trkpt>
      <trkpt lat="39.8215260" lon="2.8957150">
        <ele>501.9</ele>
        <time>2018-12-30T11:28:42Z</time>
      </trkpt>
      <trkpt lat="39.8214610" lon="2.8956350">
        <ele>501.4</ele>
        <time>2018-12-30T11:28:43Z</time>
      </trkpt>
      <trkpt lat="39.8213930" lon="2.8955530">
        <ele>500.9</ele>
        <time>2018-12-30T11:28:44Z</time>
      </trkpt>
      <trkpt lat="39.8213240" lon="2.8954680">
        <ele>500.3</ele>
        <time>2018-12-30T11:28:45Z</time>
      </trkpt>
      <trkpt lat="39.8212540" lon="2.8953810">
        <ele>499.8</ele>
        <time>2018-12-30T11:28:46Z</time>
      </trkpt>
      <trkpt lat="39.8211850" lon="2.8952950">
        <ele>499.3</ele>
        <time>2018-12-30T11:28:47Z</time>
      </trkpt>
      <trkpt lat="39.8211170" lon="2.8952130">
        <ele>498.9</ele>
        <time>2018-12-30T11:28:48Z</time>
      </trkpt>
      <trkpt lat="39.8210480" lon="2.8951330">
        <ele>498.7</ele>
        <time>2018-12-30T11:28:49Z</time>
      </trkpt>
      <trkpt lat="39.8209790" lon="2.8950530">
        <ele>498.5</ele>
        <time>2018-12-30T11:28:50Z</time>
      </trkpt>
      <trkpt lat="39.8209120" lon="2.8949700">
        <ele>498.3</ele>
        <time>2018-12-30T11:28:51Z</time>
      </trkpt>
      <trkpt lat="39.8208440" lon="2.8948810">
        <ele>498.2</ele>
        <time>2018-12-30T11:28:52Z</time>
      </trkpt>
      <trkpt lat="39.8207740" lon="2.8947520">
        <ele>498.1</ele>
        <time>2018-12-30T11:28:53Z</time>
      </trkpt>
      <trkpt lat="39.8207080" lon="2.8945890">
        <ele>497.7</ele>
        <time>2018-12-30T11:28:54Z</time>
      </trkpt>
      <trkpt lat="39.8206490" lon="2.8943970">
        <ele>497.2</ele>
        <time>2018-12-30T11:28:55Z</time>
      </trkpt>
      <trkpt lat="39.8206000" lon="2.8942110">
        <ele>496.7</ele>
        <time>2018-12-30T11:28:56Z</time>
      </trkpt>
      <trkpt lat="39.8205560" lon="2.8940440">
        <ele>496.4</ele>
        <time>2018-12-30T11:28:57Z</time>
      </trkpt>
      <trkpt lat="39.8205160" lon="2.8938960">
        <ele>496.2</ele>
        <time>2018-12-30T11:28:58Z</time>
      </trkpt>
      <trkpt lat="39.8204800" lon="2.8937580">
        <ele>495.9</ele>
        <time>2018-12-30T11:28:59Z</time>
      </trkpt>
      <trkpt lat="39.8204500" lon="2.8936160">
        <ele>495.7</ele>
        <time>2018-12-30T11:29:00Z</time>
      </trkpt>
      <trkpt lat="39.8204690" lon="2.8934840">
        <ele>495.5</ele>
        <time>2018-12-30T11:29:01Z</time>
      </trkpt>
      <trkpt lat="39.8205200" lon="2.8933570">
        <ele>495.4</ele>
        <time>2018-12-30T11:29:02Z</time>
      </trkpt>
      <trkpt lat="39.8205920" lon="2.8932380">
        <ele>495.3</ele>
        <time>2018-12-30T11:29:03Z</time>
      </trkpt>
      <trkpt lat="39.8206410" lon="2.8931160">
        <ele>495.1</ele>
        <time>2018-12-30T11:29:04Z</time>
      </trkpt>
      <trkpt lat="39.8206780" lon="2.8929960">
        <ele>494.9</ele>
        <time>2018-12-30T11:29:05Z</time>
      </trkpt>
      <trkpt lat="39.8207090" lon="2.8928830">
        <ele>494.8</ele>
        <time>2018-12-30T11:29:06Z</time>
      </trkpt>
      <trkpt lat="39.8207350" lon="2.8927760">
        <ele>494.7</ele>
        <time>2018-12-30T11:29:07Z</time>
      </trkpt>
      <trkpt lat="39.8207570" lon="2.8926780">
        <ele>494.6</ele>
        <time>2018-12-30T11:29:08Z</time>
      </trkpt>
      <trkpt lat="39.8207560" lon="2.8925900">
        <ele>494.6</ele>
        <time>2018-12-30T11:29:09Z</time>
      </trkpt>
      <trkpt lat="39.8207320" lon="2.8925150">
        <ele>494.5</ele>
        <time>2018-12-30T11:29:10Z</time>
      </trkpt>
      <trkpt lat="39.8206930" lon="2.8924570">
        <ele>494.6</ele>
        <time>2018-12-30T11:29:11Z</time>
      </trkpt>
      <trkpt lat="39.8206570" lon="2.8924110">
        <ele>494.8</ele>
        <time>2018-12-30T11:29:12Z</time>
      </trkpt>
      <trkpt lat="39.8206250" lon="2.8923700">
        <ele>495.0</ele>
        <time>2018-12-30T11:29:13Z</time>
      </trkpt>
      <trkpt lat="39.8205910" lon="2.8923290">
        <ele>495.1</ele>
        <time>2018-12-30T11:29:14Z</time>
      </trkpt>
      <trkpt lat="39.8205560" lon="2.8922910">
        <ele>495.3</ele>
        <time>2018-12-30T11:29:15Z</time>
      </trkpt>
      <trkpt lat="39.8205200" lon="2.8922610">
        <ele>496.0</ele>
        <time>2018-12-30T11:29:16Z</time>
      </trkpt>
      <trkpt lat="39.8204810" lon="2.8922370">
        <ele>496.5</ele>
        <time>2018-12-30T11:29:17Z</time>
      </trkpt>
      <trkpt lat="39.8204370" lon="2.8922180">
        <ele>497.1</ele>
        <time>2018-12-30T11:29:18Z</time>
      </trkpt>
      <trkpt lat="39.8203920" lon="2.8922020">
        <ele>497.9</ele>
        <time>2018-12-30T11:29:19Z</time>
      </trkpt>
      <trkpt lat="39.8203450" lon="2.8921890">
        <ele>498.7</ele>
        <time>2018-12-30T11:29:20Z</time>
      </trkpt>
      <trkpt lat="39.8202990" lon="2.8921790">
        <ele>499.3</ele>
        <time>2018-12-30T11:29:21Z</time>
      </trkpt>
      <trkpt lat="39.8202540" lon="2.8921750">
        <ele>499.9</ele>
        <time>2018-12-30T11:29:22Z</time>
      </trkpt>
      <trkpt lat="39.8202110" lon="2.8921840">
        <ele>500.4</ele>
        <time>2018-12-30T11:29:23Z</time>
      </trkpt>
      <trkpt lat="39.8201720" lon="2.8921980">
        <ele>500.9</ele>
        <time>2018-12-30T11:29:24Z</time>
      </trkpt>
      <trkpt lat="39.8201340" lon="2.8922190">
        <ele>501.4</ele>
        <time>2018-12-30T11:29:25Z</time>
      </trkpt>
      <trkpt lat="39.8200970" lon="2.8922480">
        <ele>501.9</ele>
        <time>2018-12-30T11:29:26Z</time>
      </trkpt>
      <trkpt lat="39.8200540" lon="2.8922940">
        <ele>502.9</ele>
        <time>2018-12-30T11:29:27Z</time>
      </trkpt>
      <trkpt lat="39.8200080" lon="2.8923560">
        <ele>504.0</ele>
        <time>2018-12-30T11:29:28Z</time>
      </trkpt>
      <trkpt lat="39.8199610" lon="2.8924190">
        <ele>504.9</ele>
        <time>2018-12-30T11:29:29Z</time>
      </trkpt>
      <trkpt lat="39.8199170" lon="2.8924730">
        <ele>505.5</ele>
        <time>2018-12-30T11:29:30Z</time>
      </trkpt>
      <trkpt lat="39.8198780" lon="2.8925160">
        <ele>506.0</ele>
        <time>2018-12-30T11:29:31Z</time>
      </trkpt>
      <trkpt lat="39.8198360" lon="2.8925530">
        <ele>506.5</ele>
        <time>2018-12-30T11:29:32Z</time>
      </trkpt>
      <trkpt lat="39.8197920" lon="2.8925820">
        <ele>507.0</ele>
        <time>2018-12-30T11:29:33Z</time>
      </trkpt>
      <trkpt lat="39.8197440" lon="2.8926050">
        <ele>507.4</ele>
        <time>2018-12-30T11:29:34Z</time>
      </trkpt>
      <trkpt lat="39.8196940" lon="2.8926200">
        <ele>507.9</ele>
        <time>2018-12-30T11:29:35Z</time>
      </trkpt>
      <trkpt lat="39.8196450" lon="2.8926260">
        <ele>508.4</ele>
        <time>2018-12-30T11:29:36Z</time>
      </trkpt>
      <trkpt lat="39.8195970" lon="2.8926290">
        <ele>508.9</ele>
        <time>2018-12-30T11:29:37Z</time>
      </trkpt>
      <trkpt lat="39.8195500" lon="2.8926300">
        <ele>509.3</ele>
        <time>2018-12-30T11:29:38Z</time>
      </trkpt>
      <trkpt lat="39.8195020" lon="2.8926340">
        <ele>510.0</ele>
        <time>2018-12-30T11:29:39Z</time>
      </trkpt>
      <trkpt lat="39.8194570" lon="2.8926330">
        <ele>510.6</ele>
        <time>2018-12-30T11:29:40Z</time>
      </trkpt>
      <trkpt lat="39.8194110" lon="2.8926340">
        <ele>511.3</ele>
        <time>2018-12-30T11:29:41Z</time>
      </trkpt>
      <trkpt lat="39.8193680" lon="2.8926310">
        <ele>511.8</ele>
        <time>2018-12-30T11:29:42Z</time>
      </trkpt>
      <trkpt lat="39.8193230" lon="2.8926300">
        <ele>512.4</ele>
        <time>2018-12-30T11:29:43Z</time>
      </trkpt>
      <trkpt lat="39.8192800" lon="2.8926260">
        <ele>513.0</ele>
        <time>2018-12-30T11:29:44Z</time>
      </trkpt>
      <trkpt lat="39.8192360" lon="2.8926260">
        <ele>513.6</ele>
        <time>2018-12-30T11:29:45Z</time>
      </trkpt>
      <trkpt lat="39.8191890" lon="2.8926290">
        <ele>514.2</ele>
        <time>2018-12-30T11:29:46Z</time>
      </trkpt>
      <trkpt lat="39.8191430" lon="2.8926320">
        <ele>514.8</ele>
        <time>2018-12-30T11:29:47Z</time>
      </trkpt>
      <trkpt lat="39.8190980" lon="2.8926340">
        <ele>515.4</ele>
        <time>2018-12-30T11:29:48Z</time>
      </trkpt>
      <trkpt lat="39.8190570" lon="2.8926300">
        <ele>515.9</ele>
        <time>2018-12-30T11:29:49Z</time>
      </trkpt>
      <trkpt lat="39.8190180" lon="2.8926240">
        <ele>516.4</ele>
        <time>2018-12-30T11:29:50Z</time>
      </trkpt>
      <trkpt lat="39.8189800" lon="2.8926160">
        <ele>516.8</ele>
        <time>2018-12-30T11:29:51Z</time>
      </trkpt>
      <trkpt lat="39.8189420" lon="2.8926120">
        <ele>517.3</ele>
        <time>2018-12-30T11:29:52Z</time>
      </trkpt>
      <trkpt lat="39.8189030" lon="2.8926070">
        <ele>517.7</ele>
        <time>2018-12-30T11:29:53Z</time>
      </trkpt>
      <trkpt lat="39.8188640" lon="2.8926040">
        <ele>518.2</ele>
        <time>2018-12-30T11:29:54Z</time>
      </trkpt>
      <trkpt lat="39.8188250" lon="2.8926010">
        <ele>518.6</ele>
        <time>2018-12-30T11:29:55Z</time>
      </trkpt>
      <trkpt lat="39.8187850" lon="2.8925990">
        <ele>519.0</ele>
        <time>2018-12-30T11:29:56Z</time>
      </trkpt>
      <trkpt lat="39.8187450" lon="2.8925970">
        <ele>519.4</ele>
        <time>2018-12-30T11:29:57Z</time>
      </trkpt>
      <trkpt lat="39.8187050" lon="2.8925920">
        <ele>519.7</ele>
        <time>2018-12-30T11:29:58Z</time>
      </trkpt>
      <trkpt lat="39.8186650" lon="2.8925820">
        <ele>520.1</ele>
        <time>2018-12-30T11:29:59Z</time>
      </trkpt>
      <trkpt lat="39.8186260" lon="2.8925710">
        <ele>520.4</ele>
        <time>2018-12-30T11:30:00Z</time>
      </trkpt>
      <trkpt lat="39.8185830" lon="2.8925650">
        <ele>520.7</ele>
        <time>2018-12-30T11:30:01Z</time>
      </trkpt>
      <trkpt lat="39.8185400" lon="2.8925620">
        <ele>521.0</ele>
        <time>2018-12-30T11:30:02Z</time>
      </trkpt>
      <trkpt lat="39.8184960" lon="2.8925590">
        <ele>521.3</ele>
        <time>2018-12-30T11:30:03Z</time>
      </trkpt>
      <trkpt lat="39.8184540" lon="2.8925530">
        <ele>521.6</ele>
        <time>2018-12-30T11:30:04Z</time>
      </trkpt>
      <trkpt lat="39.8184120" lon="2.8925470">
        <ele>521.9</ele>
        <time>2018-12-30T11:30:05Z</time>
      </trkpt>
      <trkpt lat="39.8183710" lon="2.8925400">
        <ele>522.1</ele>
        <time>2018-12-30T11:30:06Z</time>
      </trkpt>
      <trkpt lat="39.8183300" lon="2.8925330">
        <ele>522.3</ele>
        <time>2018-12-30T11:30:07Z</time>
      </trkpt>
      <trkpt lat="39.8182910" lon="2.8925250">
        <ele>522.6</ele>
        <time>2018-12-30T11:30:08Z</time>
      </trkpt>
      <trkpt lat="39.8182530" lon="2.8925150">
        <ele>522.7</ele>
        <time>2018-12-30T11:30:09Z</time>
      </trkpt>
      <trkpt lat="39.8182170" lon="2.8925020">
        <ele>522.9</ele>
        <time>2018-12-30T11:30:10Z</time>
      </trkpt>
      <trkpt lat="39.8181820" lon="2.8924880">
        <ele>523.0</ele>
        <time>2018-12-30T11:30:11Z</time>
      </trkpt>
      <trkpt lat="39.8181480" lon="2.8924740">
        <ele>523.2</ele>
        <time>2018-12-30T11:30:12Z</time>
      </trkpt>
      <trkpt lat="39.8181100" lon="2.8924660">
        <ele>523.3</ele>
        <time>2018-12-30T11:30:13Z</time>
      </trkpt>
      <trkpt lat="39.8180700" lon="2.8924590">
        <ele>523.4</ele>
        <time>2018-12-30T11:30:14Z</time>
      </trkpt>
      <trkpt lat="39.8180290" lon="2.8924520">
        <ele>523.5</ele>
        <time>2018-12-30T11:30:15Z</time>
      </trkpt>
      <trkpt lat="39.8179880" lon="2.8924430">
        <ele>523.5</ele>
        <time>2018-12-30T11:30:16Z</time>
      </trkpt>
      <trkpt lat="39.8179480" lon="2.8924340">
        <ele>523.4</ele>
        <time>2018-12-30T11:30:17Z</time>
      </trkpt>
      <trkpt lat="39.8179080" lon="2.8924250">
        <ele>523.4</ele>
        <time>2018-12-30T11:30:18Z</time>
      </trkpt>
      <trkpt lat="39.8178710" lon="2.8924160">
        <ele>523.2</ele>
        <time>2018-12-30T11:30:19Z</time>
      </trkpt>
      <trkpt lat="39.8178370" lon="2.8924110">
        <ele>523.0</ele>
        <time>2018-12-30T11:30:20Z</time>
      </trkpt>
      <trkpt lat="39.8178050" lon="2.8924100">
        <ele>522.7</ele>
        <time>2018-12-30T11:30:21Z</time>
      </trkpt>
      <trkpt lat="39.8177750" lon="2.8924160">
        <ele>522.4</ele>
        <time>2018-12-30T11:30:22Z</time>
      </trkpt>
      <trkpt lat="39.8177500" lon="2.8924280">
        <ele>522.1</ele>
        <time>2018-12-30T11:30:23Z</time>
      </trkpt>
      <trkpt lat="39.8177310" lon="2.8924490">
        <ele>521.8</ele>
        <time>2018-12-30T11:30:24Z</time>
      </trkpt>
      <trkpt lat="39.8177230" lon="2.8924780">
        <ele>521.6</ele>
        <time>2018-12-30T11:30:25Z</time>
      </trkpt>
      <trkpt lat="39.8177110" lon="2.8925200">
        <ele>521.2</ele>
        <time>2018-12-30T11:30:26Z</time>
      </trkpt>
      <trkpt lat="39.8176920" lon="2.8925730">
        <ele>520.8</ele>
        <time>2018-12-30T11:30:27Z</time>
      </trkpt>
      <trkpt lat="39.8176540" lon="2.8926520">
        <ele>520.2</ele>
        <time>2018-12-30T11:30:28Z</time>
      </trkpt>
      <trkpt lat="39.8176190" lon="2.8927290">
        <ele>519.6</ele>
        <time>2018-12-30T11:30:29Z</time>
      </trkpt>
      <trkpt lat="39.8175860" lon="2.8928050">
        <ele>519.0</ele>
        <time>2018-12-30T11:30:30Z</time>
      </trkpt>
      <trkpt lat="39.8175660" lon="2.8928630">
        <ele>518.7</ele>
        <time>2018-12-30T11:30:31Z</time>
      </trkpt>
      <trkpt lat="39.8175480" lon="2.8929190">
        <ele>518.4</ele>
        <time>2018-12-30T11:30:32Z</time>
      </trkpt>
      <trkpt lat="39.8175350" lon="2.8929720">
        <ele>518.2</ele>
        <time>2018-12-30T11:30:33Z</time>
      </trkpt>
      <trkpt lat="39.8175220" lon="2.8930250">
        <ele>518.0</ele>
        <time>2018-12-30T11:30:34Z</time>
      </trkpt>
      <trkpt lat="39.8175100" lon="2.8930750">
        <ele>517.9</ele>
        <time>2018-12-30T11:30:35Z</time>
      </trkpt>
      <trkpt lat="39.8174950" lon="2.8931230">
        <ele>517.7</ele>
        <time>2018-12-30T11:30:36Z</time>
      </trkpt>
      <trkpt lat="39.8174800" lon="2.8931710">
        <ele>517.7</ele>
        <time>2018-12-30T11:30:37Z</time>
      </trkpt>
      <trkpt lat="39.8174660" lon="2.8932200">
        <ele>517.7</ele>
        <time>2018-12-30T11:30:38Z</time>
      </trkpt>
      <trkpt lat="39.8174520" lon="2.8932690">
        <ele>517.6</ele>
        <time>2018-12-30T11:30:39Z</time>
      </trkpt>
      <trkpt lat="39.8174390" lon="2.8933170">
        <ele>517.7</ele>
        <time>2018-12-30T11:30:40Z</time>
      </trkpt>
      <trkpt lat="39.8174270" lon="2.8933640">
        <ele>517.7</ele>
        <time>2018-12-30T11:30:41Z</time>
      </trkpt>
      <trkpt lat="39.8174140" lon="2.8934110">
        <ele>517.8</ele>
        <time>2018-12-30T11:30:42Z</time>
      </trkpt>
      <trkpt lat="39.8174010" lon="2.8934600">
        <ele>517.8</ele>
        <time>2018-12-30T11:30:43Z</time>
      </trkpt>
      <trkpt lat="39.8173860" lon="2.8935090">
        <ele>517.9</ele>
        <time>2018-12-30T11:30:44Z</time>
      </trkpt>
      <trkpt lat="39.8173710" lon="2.8935560">
        <ele>518.0</ele>
        <time>2018-12-30T11:30:45Z</time>
      </trkpt>
      <trkpt lat="39.8173560" lon="2.8936010">
        <ele>518.1</ele>
        <time>2018-12-30T11:30:46Z</time>
      </trkpt>
      <trkpt lat="39.8173390" lon="2.8936420">
        <ele>518.2</ele>
        <time>2018-12-30T11:30:47Z</time>
      </trkpt>
      <trkpt lat="39.8173190" lon="2.8936790">
        <ele>518.3</ele>
        <time>2018-12-30T11:30:48Z</time>
      </trkpt>
      <trkpt lat="39.8172890" lon="2.8937100">
        <ele>518.5</ele>
        <time>2018-12-30T11:30:49Z</time>
      </trkpt>
      <trkpt lat="39.8172510" lon="2.8937330">
        <ele>519.1</ele>
        <time>2018-12-30T11:30:50Z</time>
      </trkpt>
      <trkpt lat="39.8172070" lon="2.8937500">
        <ele>519.7</ele>
        <time>2018-12-30T11:30:51Z</time>
      </trkpt>
      <trkpt lat="39.8171670" lon="2.8937620">
        <ele>520.3</ele>
        <time>2018-12-30T11:30:52Z</time>
      </trkpt>
      <trkpt lat="39.8171290" lon="2.8937740">
        <ele>520.9</ele>
        <time>2018-12-30T11:30:53Z</time>
      </trkpt>
      <trkpt lat="39.8170910" lon="2.8937860">
        <ele>521.4</ele>
        <time>2018-12-30T11:30:54Z</time>
      </trkpt>
      <trkpt lat="39.8170520" lon="2.8938010">
        <ele>522.0</ele>
        <time>2018-12-30T11:30:55Z</time>
      </trkpt>
      <trkpt lat="39.8170140" lon="2.8938190">
        <ele>522.6</ele>
        <time>2018-12-30T11:30:56Z</time>
      </trkpt>
      <trkpt lat="39.8169770" lon="2.8938370">
        <ele>523.1</ele>
        <time>2018-12-30T11:30:57Z</time>
      </trkpt>
      <trkpt lat="39.8169410" lon="2.8938560">
        <ele>523.8</ele>
        <time>2018-12-30T11:30:58Z</time>
      </trkpt>
      <trkpt lat="39.8169040" lon="2.8938800">
        <ele>524.1</ele>
        <time>2018-12-30T11:30:59Z</time>
      </trkpt>
      <trkpt lat="39.8168620" lon="2.8939180">
        <ele>524.6</ele>
        <time>2018-12-30T11:31:00Z</time>
      </trkpt>
      <trkpt lat="39.8168180" lon="2.8939630">
        <ele>525.0</ele>
        <time>2018-12-30T11:31:01Z</time>
      </trkpt>
      <trkpt lat="39.8167790" lon="2.8940140">
        <ele>525.4</ele>
        <time>2018-12-30T11:31:02Z</time>
      </trkpt>
      <trkpt lat="39.8167480" lon="2.8940620">
        <ele>525.8</ele>
        <time>2018-12-30T11:31:03Z</time>
      </trkpt>
      <trkpt lat="39.8167260" lon="2.8941150">
        <ele>526.1</ele>
        <time>2018-12-30T11:31:04Z</time>
      </trkpt>
      <trkpt lat="39.8167050" lon="2.8941680">
        <ele>526.5</ele>
        <time>2018-12-30T11:31:05Z</time>
      </trkpt>
      <trkpt lat="39.8166870" lon="2.8942260">
        <ele>526.8</ele>
        <time>2018-12-30T11:31:06Z</time>
      </trkpt>
      <trkpt lat="39.8166730" lon="2.8942870">
        <ele>527.2</ele>
        <time>2018-12-30T11:31:07Z</time>
      </trkpt>
      <trkpt lat="39.8166610" lon="2.8943510">
        <ele>527.5</ele>
        <time>2018-12-30T11:31:08Z</time>
      </trkpt>
      <trkpt lat="39.8166510" lon="2.8944170">
        <ele>527.9</ele>
        <time>2018-12-30T11:31:09Z</time>
      </trkpt>
      <trkpt lat="39.8166360" lon="2.8944810">
        <ele>528.3</ele>
        <time>2018-12-30T11:31:10Z</time>
      </trkpt>
      <trkpt lat="39.8166230" lon="2.8945460">
        <ele>528.7</ele>
        <time>2018-12-30T11:31:11Z</time>
      </trkpt>
      <trkpt lat="39.8166070" lon="2.8946100">
        <ele>529.1</ele>
        <time>2018-12-30T11:31:12Z</time>
      </trkpt>
      <trkpt lat="39.8165910" lon="2.8946730">
        <ele>529.5</ele>
        <time>2018-12-30T11:31:13Z</time>
      </trkpt>
      <trkpt lat="39.8165790" lon="2.8947350">
        <ele>529.9</ele>
        <time>2018-12-30T11:31:14Z</time>
      </trkpt>
      <trkpt lat="39.8165670" lon="2.8947980">
        <ele>530.3</ele>
        <time>2018-12-30T11:31:15Z</time>
      </trkpt>
      <trkpt lat="39.8165540" lon="2.8948640">
        <ele>530.7</ele>
        <time>2018-12-30T11:31:16Z</time>
      </trkpt>
      <trkpt lat="39.8165390" lon="2.8949300">
        <ele>531.1</ele>
        <time>2018-12-30T11:31:17Z</time>
      </trkpt>
      <trkpt lat="39.8165240" lon="2.8949970">
        <ele>531.6</ele>
        <time>2018-12-30T11:31:18Z</time>
      </trkpt>
      <trkpt lat="39.8165110" lon="2.8950600">
        <ele>532.0</ele>
        <time>2018-12-30T11:31:19Z</time>
      </trkpt>
      <trkpt lat="39.8165000" lon="2.8951230">
        <ele>532.5</ele>
        <time>2018-12-30T11:31:20Z</time>
      </trkpt>
      <trkpt lat="39.8164890" lon="2.8951840">
        <ele>532.9</ele>
        <time>2018-12-30T11:31:21Z</time>
      </trkpt>
      <trkpt lat="39.8164770" lon="2.8952450">
        <ele>533.8</ele>
        <time>2018-12-30T11:31:22Z</time>
      </trkpt>
      <trkpt lat="39.8164650" lon="2.8953040">
        <ele>534.9</ele>
        <time>2018-12-30T11:31:23Z</time>
      </trkpt>
      <trkpt lat="39.8164530" lon="2.8953630">
        <ele>536.0</ele>
        <time>2018-12-30T11:31:24Z</time>
      </trkpt>
      <trkpt lat="39.8164440" lon="2.8954200">
        <ele>537.0</ele>
        <time>2018-12-30T11:31:25Z</time>
      </trkpt>
      <trkpt lat="39.8164350" lon="2.8954760">
        <ele>537.9</ele>
        <time>2018-12-30T11:31:26Z</time>
      </trkpt>
      <trkpt lat="39.8164230" lon="2.8955350">
        <ele>538.9</ele>
        <time>2018-12-30T11:31:27Z</time>
      </trkpt>
      <trkpt lat="39.8164110" lon="2.8955950">
        <ele>539.9</ele>
        <time>2018-12-30T11:31:28Z</time>
      </trkpt>
      <trkpt lat="39.8163970" lon="2.8956580">
        <ele>540.9</ele>
        <time>2018-12-30T11:31:29Z</time>
      </trkpt>
      <trkpt lat="39.8163870" lon="2.8957190">
        <ele>541.6</ele>
        <time>2018-12-30T11:31:30Z</time>
      </trkpt>
      <trkpt lat="39.8163750" lon="2.8957830">
        <ele>542.4</ele>
        <time>2018-12-30T11:31:31Z</time>
      </trkpt>
      <trkpt lat="39.8163620" lon="2.8958470">
        <ele>543.1</ele>
        <time>2018-12-30T11:31:32Z</time>
      </trkpt>
      <trkpt lat="39.8163480" lon="2.8959120">
        <ele>543.8</ele>
        <time>2018-12-30T11:31:33Z</time>
      </trkpt>
      <trkpt lat="39.8163340" lon="2.8959740">
        <ele>544.3</ele>
        <time>2018-12-30T11:31:34Z</time>
      </trkpt>
      <trkpt lat="39.8163180" lon="2.8960310">
        <ele>544.8</ele>
        <time>2018-12-30T11:31:35Z</time>
      </trkpt>
      <trkpt lat="39.8163010" lon="2.8960810">
        <ele>545.2</ele>
        <time>2018-12-30T11:31:36Z</time>
      </trkpt>
      <trkpt lat="39.8162810" lon="2.8961260">
        <ele>545.5</ele>
        <time>2018-12-30T11:31:37Z</time>
      </trkpt>
      <trkpt lat="39.8162590" lon="2.8961650">
        <ele>545.8</ele>
        <time>2018-12-30T11:31:38Z</time>
      </trkpt>
      <trkpt lat="39.8162320" lon="2.8961960">
        <ele>546.1</ele>
        <time>2018-12-30T11:31:39Z</time>
      </trkpt>
      <trkpt lat="39.8161990" lon="2.8962220">
        <ele>546.5</ele>
        <time>2018-12-30T11:31:40Z</time>
      </trkpt>
      <trkpt lat="39.8161600" lon="2.8962390">
        <ele>546.8</ele>
        <time>2018-12-30T11:31:41Z</time>
      </trkpt>
      <trkpt lat="39.8161170" lon="2.8962530">
        <ele>547.2</ele>
        <time>2018-12-30T11:31:42Z</time>
      </trkpt>
      <trkpt lat="39.8160710" lon="2.8962600">
        <ele>547.6</ele>
        <time>2018-12-30T11:31:43Z</time>
      </trkpt>
      <trkpt lat="39.8160260" lon="2.8962660">
        <ele>548.0</ele>
        <time>2018-12-30T11:31:44Z</time>
      </trkpt>
      <trkpt lat="39.8159790" lon="2.8962680">
        <ele>548.3</ele>
        <time>2018-12-30T11:31:45Z</time>
      </trkpt>
      <trkpt lat="39.8159350" lon="2.8962660">
        <ele>548.7</ele>
        <time>2018-12-30T11:31:46Z</time>
      </trkpt>
      <trkpt lat="39.8158930" lon="2.8962550">
        <ele>549.1</ele>
        <time>2018-12-30T11:31:47Z</time>
      </trkpt>
      <trkpt lat="39.8158550" lon="2.8962350">
        <ele>549.4</ele>
        <time>2018-12-30T11:31:48Z</time>
      </trkpt>
      <trkpt lat="39.8158180" lon="2.8962110">
        <ele>549.8</ele>
        <time>2018-12-30T11:31:49Z</time>
      </trkpt>
      <trkpt lat="39.8157830" lon="2.8961840">
        <ele>550.4</ele>
        <time>2018-12-30T11:31:50Z</time>
      </trkpt>
      <trkpt lat="39.8157500" lon="2.8961550">
        <ele>550.7</ele>
        <time>2018-12-30T11:31:51Z</time>
      </trkpt>
      <trkpt lat="39.8157250" lon="2.8961200">
        <ele>551.0</ele>
        <time>2018-12-30T11:31:52Z</time>
      </trkpt>
      <trkpt lat="39.8157050" lon="2.8960800">
        <ele>551.2</ele>
        <time>2018-12-30T11:31:53Z</time>
      </trkpt>
      <trkpt lat="39.8156890" lon="2.8960350">
        <ele>551.4</ele>
        <time>2018-12-30T11:31:54Z</time>
      </trkpt>
      <trkpt lat="39.8156760" lon="2.8959870">
        <ele>551.5</ele>
        <time>2018-12-30T11:31:55Z</time>
      </trkpt>
      <trkpt lat="39.8156650" lon="2.8959400">
        <ele>551.6</ele>
        <time>2018-12-30T11:31:56Z</time>
      </trkpt>
      <trkpt lat="39.8156560" lon="2.8958910">
        <ele>551.6</ele>
        <time>2018-12-30T11:31:57Z</time>
      </trkpt>
      <trkpt lat="39.8156470" lon="2.8958400">
        <ele>551.6</ele>
        <time>2018-12-30T11:31:58Z</time>
      </trkpt>
      <trkpt lat="39.8156360" lon="2.8957870">
        <ele>551.6</ele>
        <time>2018-12-30T11:31:59Z</time>
      </trkpt>
      <trkpt lat="39.8156230" lon="2.8957350">
        <ele>551.6</ele>
        <time>2018-12-30T11:32:00Z</time>
      </trkpt>
      <trkpt lat="39.8156120" lon="2.8956840">
        <ele>551.5</ele>
        <time>2018-12-30T11:32:01Z</time>
      </trkpt>
      <trkpt lat="39.8156020" lon="2.8956320">
        <ele>551.5</ele>
        <time>2018-12-30T11:32:02Z</time>
      </trkpt>
      <trkpt lat="39.8155930" lon="2.8955810">
        <ele>551.5</ele>
        <time>2018-12-30T11:32:03Z</time>
      </trkpt>
      <trkpt lat="39.8155840" lon="2.8955290">
        <ele>551.5</ele>
        <time>2018-12-30T11:32:04Z</time>
      </trkpt>
      <trkpt lat="39.8155720" lon="2.8954760">
        <ele>551.6</ele>
        <time>2018-12-30T11:32:05Z</time>
      </trkpt>
      <trkpt lat="39.8155610" lon="2.8954250">
        <ele>551.6</ele>
        <time>2018-12-30T11:32:06Z</time>
      </trkpt>
      <trkpt lat="39.8155490" lon="2.8953760">
        <ele>551.7</ele>
        <time>2018-12-30T11:32:07Z</time>
      </trkpt>
      <trkpt lat="39.8155370" lon="2.8953300">
        <ele>551.8</ele>
        <time>2018-12-30T11:32:08Z</time>
      </trkpt>
      <trkpt lat="39.8155260" lon="2.8952820">
        <ele>551.9</ele>
        <time>2018-12-30T11:32:09Z</time>
      </trkpt>
      <trkpt lat="39.8155150" lon="2.8952360">
        <ele>552.0</ele>
        <time>2018-12-30T11:32:10Z</time>
      </trkpt>
      <trkpt lat="39.8155050" lon="2.8951880">
        <ele>552.1</ele>
        <time>2018-12-30T11:32:11Z</time>
      </trkpt>
      <trkpt lat="39.8154960" lon="2.8951410">
        <ele>552.3</ele>
        <time>2018-12-30T11:32:12Z</time>
      </trkpt>
      <trkpt lat="39.8154870" lon="2.8950920">
        <ele>552.4</ele>
        <time>2018-12-30T11:32:13Z</time>
      </trkpt>
      <trkpt lat="39.8154780" lon="2.8950420">
        <ele>552.5</ele>
        <time>2018-12-30T11:32:14Z</time>
      </trkpt>
      <trkpt lat="39.8154690" lon="2.8949880">
        <ele>552.7</ele>
        <time>2018-12-30T11:32:15Z</time>
      </trkpt>
      <trkpt lat="39.8154610" lon="2.8949330">
        <ele>552.8</ele>
        <time>2018-12-30T11:32:16Z</time>
      </trkpt>
      <trkpt lat="39.8154530" lon="2.8948780">
        <ele>552.9</ele>
        <time>2018-12-30T11:32:17Z</time>
      </trkpt>
      <trkpt lat="39.8154450" lon="2.8948250">
        <ele>553.1</ele>
        <time>2018-12-30T11:32:18Z</time>
      </trkpt>
      <trkpt lat="39.8154380" lon="2.8947720">
        <ele>553.2</ele>
        <time>2018-12-30T11:32:19Z</time>
      </trkpt>
      <trkpt lat="39.8154310" lon="2.8947180">
        <ele>553.3</ele>
        <time>2018-12-30T11:32:20Z</time>
      </trkpt>
      <trkpt lat="39.8154240" lon="2.8946650">
        <ele>553.5</ele>
        <time>2018-12-30T11:32:21Z</time>
      </trkpt>
      <trkpt lat="39.8154170" lon="2.8946120">
        <ele>553.6</ele>
        <time>2018-12-30T11:32:22Z</time>
      </trkpt>
      <trkpt lat="39.8154080" lon="2.8945610">
        <ele>553.8</ele>
        <time>2018-12-30T11:32:23Z</time>
      </trkpt>
      <trkpt lat="39.8154000" lon="2.8945080">
        <ele>554.0</ele>
        <time>2018-12-30T11:32:24Z</time>
      </trkpt>
      <trkpt lat="39.8153910" lon="2.8944560">
        <ele>554.2</ele>
        <time>2018-12-30T11:32:25Z</time>
      </trkpt>
      <trkpt lat="39.8153840" lon="2.8944030">
        <ele>554.4</ele>
        <time>2018-12-30T11:32:26Z</time>
      </trkpt>
      <trkpt lat="39.8153740" lon="2.8943530">
        <ele>554.6</ele>
        <time>2018-12-30T11:32:27Z</time>
      </trkpt>
      <trkpt lat="39.8153640" lon="2.8943030">
        <ele>554.9</ele>
        <time>2018-12-30T11:32:28Z</time>
      </trkpt>
      <trkpt lat="39.8153540" lon="2.8942530">
        <ele>555.1</ele>
        <time>2018-12-30T11:32:29Z</time>
      </trkpt>
      <trkpt lat="39.8153440" lon="2.8942020">
        <ele>555.4</ele>
        <time>2018-12-30T11:32:30Z</time>
      </trkpt>
      <trkpt lat="39.8153360" lon="2.8941500">
        <ele>555.7</ele>
        <time>2018-12-30T11:32:31Z</time>
      </trkpt>
      <trkpt lat="39.8153300" lon="2.8940980">
        <ele>556.0</ele>
        <time>2018-12-30T11:32:32Z</time>
      </trkpt>
      <trkpt lat="39.8153220" lon="2.8940450">
        <ele>556.2</ele>
        <time>2018-12-30T11:32:33Z</time>
      </trkpt>
      <trkpt lat="39.8153140" lon="2.8939920">
        <ele>556.5</ele>
        <time>2018-12-30T11:32:34Z</time>
      </trkpt>
      <trkpt lat="39.8153070" lon="2.8939360">
        <ele>556.8</ele>
        <time>2018-12-30T11:32:35Z</time>
      </trkpt>
      <trkpt lat="39.8153020" lon="2.8938790">
        <ele>557.0</ele>
        <time>2018-12-30T11:32:36Z</time>
      </trkpt>
      <trkpt lat="39.8152990" lon="2.8938220">
        <ele>557.3</ele>
        <time>2018-12-30T11:32:37Z</time>
      </trkpt>
      <trkpt lat="39.8152940" lon="2.8937660">
        <ele>557.5</ele>
        <time>2018-12-30T11:32:38Z</time>
      </trkpt>
      <trkpt lat="39.8152880" lon="2.8937120">
        <ele>557.7</ele>
        <time>2018-12-30T11:32:39Z</time>
      </trkpt>
      <trkpt lat="39.8152790" lon="2.8936560">
        <ele>557.9</ele>
        <time>2018-12-30T11:32:40Z</time>
      </trkpt>
      <trkpt lat="39.8152680" lon="2.8936010">
        <ele>558.2</ele>
        <time>2018-12-30T11:32:41Z</time>
      </trkpt>
      <trkpt lat="39.8152570" lon="2.8935450">
        <ele>558.4</ele>
        <time>2018-12-30T11:32:42Z</time>
      </trkpt>
      <trkpt lat="39.8152480" lon="2.8934930">
        <ele>558.7</ele>
        <time>2018-12-30T11:32:43Z</time>
      </trkpt>
      <trkpt lat="39.8152390" lon="2.8934420">
        <ele>558.9</ele>
        <time>2018-12-30T11:32:44Z</time>
      </trkpt>
      <trkpt lat="39.8152310" lon="2.8933940">
        <ele>559.1</ele>
        <time>2018-12-30T11:32:45Z</time>
      </trkpt>
      <trkpt lat="39.8152220" lon="2.8933480">
        <ele>559.3</ele>
        <time>2018-12-30T11:32:46Z</time>
      </trkpt>
      <trkpt lat="39.8152140" lon="2.8933050">
        <ele>559.5</ele>
        <time>2018-12-30T11:32:47Z</time>
      </trkpt>
      <trkpt lat="39.8152070" lon="2.8932670">
        <ele>559.7</ele>
        <time>2018-12-30T11:32:48Z</time>
      </trkpt>
      <trkpt lat="39.8152020" lon="2.8932260">
        <ele>559.9</ele>
        <time>2018-12-30T11:32:49Z</time>
      </trkpt>
      <trkpt lat="39.8151950" lon="2.8931810">
        <ele>560.1</ele>
        <time>2018-12-30T11:32:50Z</time>
      </trkpt>
      <trkpt lat="39.8151880" lon="2.8931330">
        <ele>560.3</ele>
        <time>2018-12-30T11:32:51Z</time>
      </trkpt>
      <trkpt lat="39.8151790" lon="2.8930870">
        <ele>560.6</ele>
        <time>2018-12-30T11:32:52Z</time>
      </trkpt>
      <trkpt lat="39.8151660" lon="2.8930430">
        <ele>560.8</ele>
        <time>2018-12-30T11:32:53Z</time>
      </trkpt>
      <trkpt lat="39.8151500" lon="2.8929980">
        <ele>561.1</ele>
        <time>2018-12-30T11:32:54Z</time>
      </trkpt>
      <trkpt lat="39.8151340" lon="2.8929510">
        <ele>561.3</ele>
        <time>2018-12-30T11:32:55Z</time>
      </trkpt>
      <trkpt lat="39.8151160" lon="2.8929030">
        <ele>561.6</ele>
        <time>2018-12-30T11:32:56Z</time>
      </trkpt>
      <trkpt lat="39.8150980" lon="2.8928550">
        <ele>561.8</ele>
        <time>2018-12-30T11:32:57Z</time>
      </trkpt>
      <trkpt lat="39.8150760" lon="2.8928080">
        <ele>562.0</ele>
        <time>2018-12-30T11:32:58Z</time>
      </trkpt>
      <trkpt lat="39.8150560" lon="2.8927560">
        <ele>562.3</ele>
        <time>2018-12-30T11:32:59Z</time>
      </trkpt>
      <trkpt lat="39.8150330" lon="2.8927060">
        <ele>562.6</ele>
        <time>2018-12-30T11:33:00Z</time>
      </trkpt>
      <trkpt lat="39.8150100" lon="2.8926530">
        <ele>562.9</ele>
        <time>2018-12-30T11:33:01Z</time>
      </trkpt>
      <trkpt lat="39.8149860" lon="2.8926030">
        <ele>563.2</ele>
        <time>2018-12-30T11:33:02Z</time>
      </trkpt>
      <trkpt lat="39.8149630" lon="2.8925540">
        <ele>563.5</ele>
        <time>2018-12-30T11:33:03Z</time>
      </trkpt>
      <trkpt lat="39.8149410" lon="2.8925130">
        <ele>563.7</ele>
        <time>2018-12-30T11:33:04Z</time>
      </trkpt>
      <trkpt lat="39.8149190" lon="2.8924720">
        <ele>563.9</ele>
        <time>2018-12-30T11:33:05Z</time>
      </trkpt>
      <trkpt lat="39.8148960" lon="2.8924320">
        <ele>564.2</ele>
        <time>2018-12-30T11:33:06Z</time>
      </trkpt>
      <trkpt lat="39.8148730" lon="2.8923920">
        <ele>564.5</ele>
        <time>2018-12-30T11:33:07Z</time>
      </trkpt>
      <trkpt lat="39.8148500" lon="2.8923560">
        <ele>564.8</ele>
        <time>2018-12-30T11:33:08Z</time>
      </trkpt>
      <trkpt lat="39.8148270" lon="2.8923200">
        <ele>565.1</ele>
        <time>2018-12-30T11:33:09Z</time>
      </trkpt>
      <trkpt lat="39.8148070" lon="2.8922830">
        <ele>565.3</ele>
        <time>2018-12-30T11:33:10Z</time>
      </trkpt>
      <trkpt lat="39.8147880" lon="2.8922400">
        <ele>565.6</ele>
        <time>2018-12-30T11:33:11Z</time>
      </trkpt>
      <trkpt lat="39.8147700" lon="2.8921930">
        <ele>565.9</ele>
        <time>2018-12-30T11:33:12Z</time>
      </trkpt>
      <trkpt lat="39.8147500" lon="2.8921440">
        <ele>566.2</ele>
        <time>2018-12-30T11:33:13Z</time>
      </trkpt>
      <trkpt lat="39.8147300" lon="2.8920980">
        <ele>566.4</ele>
        <time>2018-12-30T11:33:14Z</time>
      </trkpt>
      <trkpt lat="39.8147110" lon="2.8920500">
        <ele>566.6</ele>
        <time>2018-12-30T11:33:15Z</time>
      </trkpt>
      <trkpt lat="39.8146950" lon="2.8919980">
        <ele>566.7</ele>
        <time>2018-12-30T11:33:16Z</time>
      </trkpt>
      <trkpt lat="39.8146810" lon="2.8919460">
        <ele>566.7</ele>
        <time>2018-12-30T11:33:17Z</time>
      </trkpt>
      <trkpt lat="39.8146690" lon="2.8918960">
        <ele>566.5</ele>
        <time>2018-12-30T11:33:18Z</time>
      </trkpt>
      <trkpt lat="39.8146580" lon="2.8918440">
        <ele>566.3</ele>
        <time>2018-12-30T11:33:19Z</time>
      </trkpt>
      <trkpt lat="39.8146480" lon="2.8917890">
        <ele>565.9</ele>
        <time>2018-12-30T11:33:20Z</time>
      </trkpt>
      <trkpt lat="39.8146380" lon="2.8917330">
        <ele>565.5</ele>
        <time>2018-12-30T11:33:21Z</time>
      </trkpt>
      <trkpt lat="39.8146300" lon="2.8916790">
        <ele>565.0</ele>
        <time>2018-12-30T11:33:22Z</time>
      </trkpt>
      <trkpt lat="39.8146220" lon="2.8916270">
        <ele>564.5</ele>
        <time>2018-12-30T11:33:23Z</time>
      </trkpt>
      <trkpt lat="39.8146120" lon="2.8915760">
        <ele>564.0</ele>
        <time>2018-12-30T11:33:24Z</time>
      </trkpt>
      <trkpt lat="39.8146010" lon="2.8915270">
        <ele>563.4</ele>
        <time>2018-12-30T11:33:25Z</time>
      </trkpt>
      <trkpt lat="39.8145900" lon="2.8914800">
        <ele>562.9</ele>
        <time>2018-12-30T11:33:26Z</time>
      </trkpt>
      <trkpt lat="39.8145810" lon="2.8914370">
        <ele>562.4</ele>
        <time>2018-12-30T11:33:27Z</time>
      </trkpt>
      <trkpt lat="39.8145730" lon="2.8913930">
        <ele>561.9</ele>
        <time>2018-12-30T11:33:28Z</time>
      </trkpt>
      <trkpt lat="39.8145660" lon="2.8913490">
        <ele>561.4</ele>
        <time>2018-12-30T11:33:29Z</time>
      </trkpt>
      <trkpt lat="39.8145540" lon="2.8913010">
        <ele>560.9</ele>
        <time>2018-12-30T11:33:30Z</time>
      </trkpt>
      <trkpt lat="39.8145400" lon="2.8912530">
        <ele>561.1</ele>
        <time>2018-12-30T11:33:31Z</time>
      </trkpt>
      <trkpt lat="39.8145200" lon="2.8912050">
        <ele>561.4</ele>
        <time>2018-12-30T11:33:32Z</time>
      </trkpt>
      <trkpt lat="39.8144970" lon="2.8911550">
        <ele>561.6</ele>
        <time>2018-12-30T11:33:33Z</time>
      </trkpt>
      <trkpt lat="39.8144720" lon="2.8911050">
        <ele>561.9</ele>
        <time>2018-12-30T11:33:34Z</time>
      </trkpt>
      <trkpt lat="39.8144450" lon="2.8910560">
        <ele>562.2</ele>
        <time>2018-12-30T11:33:35Z</time>
      </trkpt>
      <trkpt lat="39.8144180" lon="2.8910110">
        <ele>562.5</ele>
        <time>2018-12-30T11:33:36Z</time>
      </trkpt>
      <trkpt lat="39.8143890" lon="2.8909720">
        <ele>562.8</ele>
        <time>2018-12-30T11:33:37Z</time>
      </trkpt>
      <trkpt lat="39.8143590" lon="2.8909390">
        <ele>563.1</ele>
        <time>2018-12-30T11:33:38Z</time>
      </trkpt>
      <trkpt lat="39.8143260" lon="2.8909070">
        <ele>563.3</ele>
        <time>2018-12-30T11:33:39Z</time>
      </trkpt>
      <trkpt lat="39.8142910" lon="2.8908760">
        <ele>563.6</ele>
        <time>2018-12-30T11:33:40Z</time>
      </trkpt>
      <trkpt lat="39.8142540" lon="2.8908450">
        <ele>563.9</ele>
        <time>2018-12-30T11:33:41Z</time>
      </trkpt>
      <trkpt lat="39.8142150" lon="2.8908130">
        <ele>564.3</ele>
        <time>2018-12-30T11:33:42Z</time>
      </trkpt>
      <trkpt lat="39.8141750" lon="2.8907780">
        <ele>564.6</ele>
        <time>2018-12-30T11:33:43Z</time>
      </trkpt>
      <trkpt lat="39.8141360" lon="2.8907430">
        <ele>564.9</ele>
        <time>2018-12-30T11:33:44Z</time>
      </trkpt>
      <trkpt lat="39.8140990" lon="2.8907110">
        <ele>565.2</ele>
        <time>2018-12-30T11:33:45Z</time>
      </trkpt>
      <trkpt lat="39.8140640" lon="2.8906810">
        <ele>565.4</ele>
        <time>2018-12-30T11:33:46Z</time>
      </trkpt>
      <trkpt lat="39.8140300" lon="2.8906490">
        <ele>565.7</ele>
        <time>2018-12-30T11:33:47Z</time>
      </trkpt>
      <trkpt lat="39.8139970" lon="2.8906160">
        <ele>565.9</ele>
        <time>2018-12-30T11:33:48Z</time>
      </trkpt>
      <trkpt lat="39.8139630" lon="2.8905790">
        <ele>566.1</ele>
        <time>2018-12-30T11:33:49Z</time>
      </trkpt>
      <trkpt lat="39.8139300" lon="2.8905380">
        <ele>566.3</ele>
        <time>2018-12-30T11:33:50Z</time>
      </trkpt>
      <trkpt lat="39.8138980" lon="2.8904930">
        <ele>566.5</ele>
        <time>2018-12-30T11:33:51Z</time>
      </trkpt>
      <trkpt lat="39.8138650" lon="2.8904480">
        <ele>566.7</ele>
        <time>2018-12-30T11:33:52Z</time>
      </trkpt>
      <trkpt lat="39.8138360" lon="2.8904050">
        <ele>566.9</ele>
        <time>2018-12-30T11:33:53Z</time>
      </trkpt>
      <trkpt lat="39.8138100" lon="2.8903610">
        <ele>567.0</ele>
        <time>2018-12-30T11:33:54Z</time>
      </trkpt>
      <trkpt lat="39.8137850" lon="2.8903180">
        <ele>567.2</ele>
        <time>2018-12-30T11:33:55Z</time>
      </trkpt>
      <trkpt lat="39.8137600" lon="2.8902770">
        <ele>567.4</ele>
        <time>2018-12-30T11:33:56Z</time>
      </trkpt>
      <trkpt lat="39.8137320" lon="2.8902380">
        <ele>567.5</ele>
        <time>2018-12-30T11:33:57Z</time>
      </trkpt>
      <trkpt lat="39.8137030" lon="2.8902000">
        <ele>568.8</ele>
        <time>2018-12-30T11:33:58Z</time>
      </trkpt>
      <trkpt lat="39.8136740" lon="2.8901620">
        <ele>569.8</ele>
        <time>2018-12-30T11:33:59Z</time>
      </trkpt>
      <trkpt lat="39.8136470" lon="2.8901250">
        <ele>570.4</ele>
        <time>2018-12-30T11:34:00Z</time>
      </trkpt>
      <trkpt lat="39.8136200" lon="2.8900910">
        <ele>571.1</ele>
        <time>2018-12-30T11:34:01Z</time>
      </trkpt>
      <trkpt lat="39.8135920" lon="2.8900580">
        <ele>571.8</ele>
        <time>2018-12-30T11:34:02Z</time>
      </trkpt>
      <trkpt lat="39.8135640" lon="2.8900230">
        <ele>572.5</ele>
        <time>2018-12-30T11:34:03Z</time>
      </trkpt>
      <trkpt lat="39.8135380" lon="2.8899830">
        <ele>573.6</ele>
        <time>2018-12-30T11:34:04Z</time>
      </trkpt>
      <trkpt lat="39.8135190" lon="2.8899460">
        <ele>574.5</ele>
        <time>2018-12-30T11:34:05Z</time>
      </trkpt>
      <trkpt lat="39.8135020" lon="2.8899090">
        <ele>575.3</ele>
        <time>2018-12-30T11:34:06Z</time>
      </trkpt>
      <trkpt lat="39.8134880" lon="2.8898740">
        <ele>576.1</ele>
        <time>2018-12-30T11:34:07Z</time>
      </trkpt>
      <trkpt lat="39.8134770" lon="2.8898390">
        <ele>576.9</ele>
        <time>2018-12-30T11:34:08Z</time>
      </trkpt>
      <trkpt lat="39.8134670" lon="2.8898030">
        <ele>577.6</ele>
        <time>2018-12-30T11:34:09Z</time>
      </trkpt>
      <trkpt lat="39.8134560" lon="2.8897680">
        <ele>578.4</ele>
        <time>2018-12-30T11:34:10Z</time>
      </trkpt>
      <trkpt lat="39.8134390" lon="2.8897340">
        <ele>579.2</ele>
        <time>2018-12-30T11:34:11Z</time>
      </trkpt>
      <trkpt lat="39.8134150" lon="2.8897050">
        <ele>580.1</ele>
        <time>2018-12-30T11:34:12Z</time>
      </trkpt>
      <trkpt lat="39.8133820" lon="2.8896760">
        <ele>581.1</ele>
        <time>2018-12-30T11:34:13Z</time>
      </trkpt>
      <trkpt lat="39.8133430" lon="2.8896530">
        <ele>582.0</ele>
        <time>2018-12-30T11:34:14Z</time>
      </trkpt>
      <trkpt lat="39.8133010" lon="2.8896360">
        <ele>582.9</ele>
        <time>2018-12-30T11:34:15Z</time>
      </trkpt>
      <trkpt lat="39.8132600" lon="2.8896300">
        <ele>585.4</ele>
        <time>2018-12-30T11:34:16Z</time>
      </trkpt>
      <trkpt lat="39.8132180" lon="2.8896300">
        <ele>585.5</ele>
        <time>2018-12-30T11:34:17Z</time>
      </trkpt>
      <trkpt lat="39.8131780" lon="2.8896350">
        <ele>585.6</ele>
        <time>2018-12-30T11:34:18Z</time>
      </trkpt>
      <trkpt lat="39.8131380" lon="2.8896420">
        <ele>585.7</ele>
        <time>2018-12-30T11:34:19Z</time>
      </trkpt>
      <trkpt lat="39.8130980" lon="2.8896470">
        <ele>585.8</ele>
        <time>2018-12-30T11:34:20Z</time>
      </trkpt>
      <trkpt lat="39.8130570" lon="2.8896520">
        <ele>586.0</ele>
        <time>2018-12-30T11:34:21Z</time>
      </trkpt>
      <trkpt lat="39.8130150" lon="2.8896570">
        <ele>586.2</ele>
        <time>2018-12-30T11:34:22Z</time>
      </trkpt>
      <trkpt lat="39.8129750" lon="2.8896620">
        <ele>586.4</ele>
        <time>2018-12-30T11:34:23Z</time>
      </trkpt>
      <trkpt lat="39.8129350" lon="2.8896690">
        <ele>586.6</ele>
        <time>2018-12-30T11:34:24Z</time>
      </trkpt>
      <trkpt lat="39.8128980" lon="2.8896750">
        <ele>586.9</ele>
        <time>2018-12-30T11:34:25Z</time>
      </trkpt>
      <trkpt lat="39.8128590" lon="2.8896820">
        <ele>587.1</ele>
        <time>2018-12-30T11:34:26Z</time>
      </trkpt>
      <trkpt lat="39.8128230" lon="2.8896840">
        <ele>587.4</ele>
        <time>2018-12-30T11:34:27Z</time>
      </trkpt>
      <trkpt lat="39.8127870" lon="2.8896870">
        <ele>587.7</ele>
        <time>2018-12-30T11:34:28Z</time>
      </trkpt>
      <trkpt lat="39.8127520" lon="2.8896860">
        <ele>588.0</ele>
        <time>2018-12-30T11:34:29Z</time>
      </trkpt>
      <trkpt lat="39.8127160" lon="2.8896860">
        <ele>588.2</ele>
        <time>2018-12-30T11:34:30Z</time>
      </trkpt>
      <trkpt lat="39.8126810" lon="2.8896840">
        <ele>588.2</ele>
        <time>2018-12-30T11:34:31Z</time>
      </trkpt>
      <trkpt lat="39.8126480" lon="2.8896840">
        <ele>588.0</ele>
        <time>2018-12-30T11:34:32Z</time>
      </trkpt>
      <trkpt lat="39.8126120" lon="2.8896900">
        <ele>587.9</ele>
        <time>2018-12-30T11:34:33Z</time>
      </trkpt>
      <trkpt lat="39.8125750" lon="2.8896990">
        <ele>587.8</ele>
        <time>2018-12-30T11:34:34Z</time>
      </trkpt>
      <trkpt lat="39.8125380" lon="2.8897090">
        <ele>587.8</ele>
        <time>2018-12-30T11:34:35Z</time>
      </trkpt>
      <trkpt lat="39.8125110" lon="2.8897220">
        <ele>587.9</ele>
        <time>2018-12-30T11:34:36Z</time>
      </trkpt>
      <trkpt lat="39.8125560" lon="2.8898040">
        <ele>588.0</ele>
        <time>2018-12-30T11:51:13Z</time>
      </trkpt>
      <trkpt lat="39.8125790" lon="2.8897930">
        <ele>588.0</ele>
        <time>2018-12-30T11:51:14Z</time>
      </trkpt>
      <trkpt lat="39.8126010" lon="2.8897840">
        <ele>588.0</ele>
        <time>2018-12-30T11:51:15Z</time>
      </trkpt>
      <trkpt lat="39.8126280" lon="2.8897650">
        <ele>588.1</ele>
        <time>2018-12-30T11:51:16Z</time>
      </trkpt>
      <trkpt lat="39.8126530" lon="2.8897420">
        <ele>588.1</ele>
        <time>2018-12-30T11:51:17Z</time>
      </trkpt>
      <trkpt lat="39.8126760" lon="2.8897190">
        <ele>588.2</ele>
        <time>2018-12-30T11:51:18Z</time>
      </trkpt>
      <trkpt lat="39.8126920" lon="2.8897040">
        <ele>588.2</ele>
        <time>2018-12-30T11:51:19Z</time>
      </trkpt>
      <trkpt lat="39.8127090" lon="2.8896910">
        <ele>588.2</ele>
        <time>2018-12-30T11:51:20Z</time>
      </trkpt>
      <trkpt lat="39.8127300" lon="2.8896770">
        <ele>588.3</ele>
        <time>2018-12-30T11:51:21Z</time>
      </trkpt>
      <trkpt lat="39.8127540" lon="2.8896640">
        <ele>588.3</ele>
        <time>2018-12-30T11:51:22Z</time>
      </trkpt>
      <trkpt lat="39.8127820" lon="2.8896560">
        <ele>587.7</ele>
        <time>2018-12-30T11:51:23Z</time>
      </trkpt>
      <trkpt lat="39.8128120" lon="2.8896480">
        <ele>587.5</ele>
        <time>2018-12-30T11:51:24Z</time>
      </trkpt>
      <trkpt lat="39.8128490" lon="2.8896450">
        <ele>587.2</ele>
        <time>2018-12-30T11:51:25Z</time>
      </trkpt>
      <trkpt lat="39.8128870" lon="2.8896400">
        <ele>586.9</ele>
        <time>2018-12-30T11:51:26Z</time>
      </trkpt>
      <trkpt lat="39.8129270" lon="2.8896360">
        <ele>586.7</ele>
        <time>2018-12-30T11:51:27Z</time>
      </trkpt>
      <trkpt lat="39.8129710" lon="2.8896270">
        <ele>586.4</ele>
        <time>2018-12-30T11:51:28Z</time>
      </trkpt>
      <trkpt lat="39.8130380" lon="2.8896040">
        <ele>586.1</ele>
        <time>2018-12-30T11:51:29Z</time>
      </trkpt>
      <trkpt lat="39.8131170" lon="2.8895710">
        <ele>585.7</ele>
        <time>2018-12-30T11:51:30Z</time>
      </trkpt>
      <trkpt lat="39.8132020" lon="2.8895300">
        <ele>585.5</ele>
        <time>2018-12-30T11:51:31Z</time>
      </trkpt>
      <trkpt lat="39.8132740" lon="2.8894930">
        <ele>585.3</ele>
        <time>2018-12-30T11:51:32Z</time>
      </trkpt>
      <trkpt lat="39.8133400" lon="2.8894550">
        <ele>585.4</ele>
        <time>2018-12-30T11:51:33Z</time>
      </trkpt>
      <trkpt lat="39.8134020" lon="2.8894190">
        <ele>585.6</ele>
        <time>2018-12-30T11:51:34Z</time>
      </trkpt>
      <trkpt lat="39.8134610" lon="2.8893860">
        <ele>585.8</ele>
        <time>2018-12-30T11:51:35Z</time>
      </trkpt>
      <trkpt lat="39.8135190" lon="2.8893560">
        <ele>585.9</ele>
        <time>2018-12-30T11:51:36Z</time>
      </trkpt>
      <trkpt lat="39.8135790" lon="2.8893270">
        <ele>586.2</ele>
        <time>2018-12-30T11:51:37Z</time>
      </trkpt>
      <trkpt lat="39.8136410" lon="2.8892970">
        <ele>586.5</ele>
        <time>2018-12-30T11:51:38Z</time>
      </trkpt>
      <trkpt lat="39.8137050" lon="2.8892650">
        <ele>586.7</ele>
        <time>2018-12-30T11:51:39Z</time>
      </trkpt>
      <trkpt lat="39.8137700" lon="2.8892320">
        <ele>587.0</ele>
        <time>2018-12-30T11:51:40Z</time>
      </trkpt>
      <trkpt lat="39.8138330" lon="2.8891980">
        <ele>587.3</ele>
        <time>2018-12-30T11:51:41Z</time>
      </trkpt>
      <trkpt lat="39.8138950" lon="2.8891630">
        <ele>587.6</ele>
        <time>2018-12-30T11:51:42Z</time>
      </trkpt>
      <trkpt lat="39.8139540" lon="2.8891260">
        <ele>587.9</ele>
        <time>2018-12-30T11:51:43Z</time>
      </trkpt>
      <trkpt lat="39.8140100" lon="2.8890870">
        <ele>588.2</ele>
        <time>2018-12-30T11:51:44Z</time>
      </trkpt>
      <trkpt lat="39.8140640" lon="2.8890470">
        <ele>588.5</ele>
        <time>2018-12-30T11:51:45Z</time>
      </trkpt>
      <trkpt lat="39.8141170" lon="2.8890050">
        <ele>588.8</ele>
        <time>2018-12-30T11:51:46Z</time>
      </trkpt>
      <trkpt lat="39.8141710" lon="2.8889650">
        <ele>589.1</ele>
        <time>2018-12-30T11:51:47Z</time>
      </trkpt>
      <trkpt lat="39.8142240" lon="2.8889250">
        <ele>589.4</ele>
        <time>2018-12-30T11:51:48Z</time>
      </trkpt>
      <trkpt lat="39.8142750" lon="2.8888870">
        <ele>589.7</ele>
        <time>2018-12-30T11:51:49Z</time>
      </trkpt>
      <trkpt lat="39.8143270" lon="2.8888500">
        <ele>590.0</ele>
        <time>2018-12-30T11:51:50Z</time>
      </trkpt>
      <trkpt lat="39.8143800" lon="2.8888120">
        <ele>590.2</ele>
        <time>2018-12-30T11:51:51Z</time>
      </trkpt>
      <trkpt lat="39.8144320" lon="2.8887760">
        <ele>590.4</ele>
        <time>2018-12-30T11:51:52Z</time>
      </trkpt>
      <trkpt lat="39.8144810" lon="2.8887400">
        <ele>590.6</ele>
        <time>2018-12-30T11:51:53Z</time>
      </trkpt>
      <trkpt lat="39.8145280" lon="2.8887040">
        <ele>590.8</ele>
        <time>2018-12-30T11:51:54Z</time>
      </trkpt>
      <trkpt lat="39.8145770" lon="2.8886680">
        <ele>591.1</ele>
        <time>2018-12-30T11:51:55Z</time>
      </trkpt>
      <trkpt lat="39.8146250" lon="2.8886310">
        <ele>591.3</ele>
        <time>2018-12-30T11:51:56Z</time>
      </trkpt>
      <trkpt lat="39.8146730" lon="2.8885950">
        <ele>591.5</ele>
        <time>2018-12-30T11:51:57Z</time>
      </trkpt>
      <trkpt lat="39.8147200" lon="2.8885600">
        <ele>591.8</ele>
        <time>2018-12-30T11:51:58Z</time>
      </trkpt>
      <trkpt lat="39.8147640" lon="2.8885270">
        <ele>592.0</ele>
        <time>2018-12-30T11:51:59Z</time>
      </trkpt>
      <trkpt lat="39.8148070" lon="2.8884950">
        <ele>592.2</ele>
        <time>2018-12-30T11:52:00Z</time>
      </trkpt>
      <trkpt lat="39.8148460" lon="2.8884650">
        <ele>592.4</ele>
        <time>2018-12-30T11:52:01Z</time>
      </trkpt>
      <trkpt lat="39.8148840" lon="2.8884370">
        <ele>592.6</ele>
        <time>2018-12-30T11:52:02Z</time>
      </trkpt>
      <trkpt lat="39.8149200" lon="2.8884110">
        <ele>592.9</ele>
        <time>2018-12-30T11:52:03Z</time>
      </trkpt>
      <trkpt lat="39.8149550" lon="2.8883860">
        <ele>593.0</ele>
        <time>2018-12-30T11:52:04Z</time>
      </trkpt>
      <trkpt lat="39.8149880" lon="2.8883610">
        <ele>593.2</ele>
        <time>2018-12-30T11:52:05Z</time>
      </trkpt>
      <trkpt lat="39.8150220" lon="2.8883380">
        <ele>593.4</ele>
        <time>2018-12-30T11:52:06Z</time>
      </trkpt>
      <trkpt lat="39.8150540" lon="2.8883150">
        <ele>593.6</ele>
        <time>2018-12-30T11:52:07Z</time>
      </trkpt>
      <trkpt lat="39.8150840" lon="2.8882920">
        <ele>593.7</ele>
        <time>2018-12-30T11:52:08Z</time>
      </trkpt>
      <trkpt lat="39.8151140" lon="2.8882690">
        <ele>593.9</ele>
        <time>2018-12-30T11:52:09Z</time>
      </trkpt>
      <trkpt lat="39.8151450" lon="2.8882450">
        <ele>594.0</ele>
        <time>2018-12-30T11:52:10Z</time>
      </trkpt>
      <trkpt lat="39.8151760" lon="2.8882220">
        <ele>594.2</ele>
        <time>2018-12-30T11:52:11Z</time>
      </trkpt>
      <trkpt lat="39.8152080" lon="2.8881970">
        <ele>594.1</ele>
        <time>2018-12-30T11:52:12Z</time>
      </trkpt>
      <trkpt lat="39.8152390" lon="2.8881700">
        <ele>593.9</ele>
        <time>2018-12-30T11:52:13Z</time>
      </trkpt>
      <trkpt lat="39.8152700" lon="2.8881420">
        <ele>593.6</ele>
        <time>2018-12-30T11:52:14Z</time>
      </trkpt>
      <trkpt lat="39.8153000" lon="2.8881120">
        <ele>593.4</ele>
        <time>2018-12-30T11:52:15Z</time>
      </trkpt>
      <trkpt lat="39.8153270" lon="2.8880810">
        <ele>593.2</ele>
        <time>2018-12-30T11:52:16Z</time>
      </trkpt>
      <trkpt lat="39.8153530" lon="2.8880460">
        <ele>593.1</ele>
        <time>2018-12-30T11:52:17Z</time>
      </trkpt>
      <trkpt lat="39.8153770" lon="2.8880080">
        <ele>592.9</ele>
        <time>2018-12-30T11:52:18Z</time>
      </trkpt>
      <trkpt lat="39.8153990" lon="2.8879670">
        <ele>592.7</ele>
        <time>2018-12-30T11:52:19Z</time>
      </trkpt>
      <trkpt lat="39.8154210" lon="2.8879270">
        <ele>592.5</ele>
        <time>2018-12-30T11:52:20Z</time>
      </trkpt>
      <trkpt lat="39.8154420" lon="2.8878860">
        <ele>592.3</ele>
        <time>2018-12-30T11:52:21Z</time>
      </trkpt>
      <trkpt lat="39.8154630" lon="2.8878450">
        <ele>592.1</ele>
        <time>2018-12-30T11:52:22Z</time>
      </trkpt>
      <trkpt lat="39.8154820" lon="2.8878020">
        <ele>591.9</ele>
        <time>2018-12-30T11:52:23Z</time>
      </trkpt>
      <trkpt lat="39.8155000" lon="2.8877550">
        <ele>591.7</ele>
        <time>2018-12-30T11:52:24Z</time>
      </trkpt>
      <trkpt lat="39.8155180" lon="2.8877070">
        <ele>591.6</ele>
        <time>2018-12-30T11:52:25Z</time>
      </trkpt>
      <trkpt lat="39.8155340" lon="2.8876580">
        <ele>591.5</ele>
        <time>2018-12-30T11:52:26Z</time>
      </trkpt>
      <trkpt lat="39.8155510" lon="2.8876120">
        <ele>591.3</ele>
        <time>2018-12-30T11:52:27Z</time>
      </trkpt>
      <trkpt lat="39.8155670" lon="2.8875650">
        <ele>591.2</ele>
        <time>2018-12-30T11:52:28Z</time>
      </trkpt>
      <trkpt lat="39.8155840" lon="2.8875190">
        <ele>591.1</ele>
        <time>2018-12-30T11:52:29Z</time>
      </trkpt>
      <trkpt lat="39.8156010" lon="2.8874730">
        <ele>591.0</ele>
        <time>2018-12-30T11:52:30Z</time>
      </trkpt>
      <trkpt lat="39.8156190" lon="2.8874310">
        <ele>590.9</ele>
        <time>2018-12-30T11:52:31Z</time>
      </trkpt>
      <trkpt lat="39.8156360" lon="2.8873890">
        <ele>590.8</ele>
        <time>2018-12-30T11:52:32Z</time>
      </trkpt>
      <trkpt lat="39.8156560" lon="2.8873470">
        <ele>590.7</ele>
        <time>2018-12-30T11:52:33Z</time>
      </trkpt>
      <trkpt lat="39.8156770" lon="2.8873030">
        <ele>590.6</ele>
        <time>2018-12-30T11:52:34Z</time>
      </trkpt>
      <trkpt lat="39.8156990" lon="2.8872550">
        <ele>590.5</ele>
        <time>2018-12-30T11:52:35Z</time>
      </trkpt>
      <trkpt lat="39.8157210" lon="2.8872070">
        <ele>590.3</ele>
        <time>2018-12-30T11:52:36Z</time>
      </trkpt>
      <trkpt lat="39.8157440" lon="2.8871600">
        <ele>590.2</ele>
        <time>2018-12-30T11:52:37Z</time>
      </trkpt>
      <trkpt lat="39.8157680" lon="2.8871150">
        <ele>590.1</ele>
        <time>2018-12-30T11:52:38Z</time>
      </trkpt>
      <trkpt lat="39.8157910" lon="2.8870720">
        <ele>590.0</ele>
        <time>2018-12-30T11:52:39Z</time>
      </trkpt>
      <trkpt lat="39.8158160" lon="2.8870290">
        <ele>589.8</ele>
        <time>2018-12-30T11:52:40Z</time>
      </trkpt>
      <trkpt lat="39.8158400" lon="2.8869880">
        <ele>589.7</ele>
        <time>2018-12-30T11:52:41Z</time>
      </trkpt>
      <trkpt lat="39.8158630" lon="2.8869490">
        <ele>589.6</ele>
        <time>2018-12-30T11:52:42Z</time>
      </trkpt>
      <trkpt lat="39.8158850" lon="2.8869100">
        <ele>589.5</ele>
        <time>2018-12-30T11:52:43Z</time>
      </trkpt>
      <trkpt lat="39.8159070" lon="2.8868720">
        <ele>589.4</ele>
        <time>2018-12-30T11:52:44Z</time>
      </trkpt>
      <trkpt lat="39.8159280" lon="2.8868330">
        <ele>589.3</ele>
        <time>2018-12-30T11:52:45Z</time>
      </trkpt>
      <trkpt lat="39.8159470" lon="2.8867950">
        <ele>589.2</ele>
        <time>2018-12-30T11:52:46Z</time>
      </trkpt>
      <trkpt lat="39.8159640" lon="2.8867590">
        <ele>589.1</ele>
        <time>2018-12-30T11:52:47Z</time>
      </trkpt>
      <trkpt lat="39.8159790" lon="2.8867220">
        <ele>589.0</ele>
        <time>2018-12-30T11:52:48Z</time>
      </trkpt>
      <trkpt lat="39.8159900" lon="2.8866810">
        <ele>588.9</ele>
        <time>2018-12-30T11:52:49Z</time>
      </trkpt>
      <trkpt lat="39.8159980" lon="2.8866380">
        <ele>588.8</ele>
        <time>2018-12-30T11:52:50Z</time>
      </trkpt>
      <trkpt lat="39.8160020" lon="2.8865930">
        <ele>588.7</ele>
        <time>2018-12-30T11:52:51Z</time>
      </trkpt>
      <trkpt lat="39.8160040" lon="2.8865510">
        <ele>588.6</ele>
        <time>2018-12-30T11:52:52Z</time>
      </trkpt>
      <trkpt lat="39.8160040" lon="2.8865100">
        <ele>588.5</ele>
        <time>2018-12-30T11:52:53Z</time>
      </trkpt>
      <trkpt lat="39.8159980" lon="2.8864650">
        <ele>588.8</ele>
        <time>2018-12-30T11:52:54Z</time>
      </trkpt>
      <trkpt lat="39.8159860" lon="2.8864200">
        <ele>589.1</ele>
        <time>2018-12-30T11:52:55Z</time>
      </trkpt>
      <trkpt lat="39.8159710" lon="2.8863740">
        <ele>589.4</ele>
        <time>2018-12-30T11:52:56Z</time>
      </trkpt>
      <trkpt lat="39.8159540" lon="2.8863340">
        <ele>589.7</ele>
        <time>2018-12-30T11:52:57Z</time>
      </trkpt>
      <trkpt lat="39.8159340" lon="2.8862930">
        <ele>590.0</ele>
        <time>2018-12-30T11:52:58Z</time>
      </trkpt>
      <trkpt lat="39.8159130" lon="2.8862510">
        <ele>590.2</ele>
        <time>2018-12-30T11:52:59Z</time>
      </trkpt>
      <trkpt lat="39.8158920" lon="2.8862070">
        <ele>590.5</ele>
        <time>2018-12-30T11:53:00Z</time>
      </trkpt>
      <trkpt lat="39.8158690" lon="2.8861610">
        <ele>590.9</ele>
        <time>2018-12-30T11:53:01Z</time>
      </trkpt>
      <trkpt lat="39.8158470" lon="2.8861170">
        <ele>591.2</ele>
        <time>2018-12-30T11:53:02Z</time>
      </trkpt>
      <trkpt lat="39.8158260" lon="2.8860720">
        <ele>591.5</ele>
        <time>2018-12-30T11:53:03Z</time>
      </trkpt>
      <trkpt lat="39.8158070" lon="2.8860270">
        <ele>591.8</ele>
        <time>2018-12-30T11:53:04Z</time>
      </trkpt>
      <trkpt lat="39.8157890" lon="2.8859790">
        <ele>592.1</ele>
        <time>2018-12-30T11:53:05Z</time>
      </trkpt>
      <trkpt lat="39.8157730" lon="2.8859290">
        <ele>592.4</ele>
        <time>2018-12-30T11:53:06Z</time>
      </trkpt>
      <trkpt lat="39.8157590" lon="2.8858790">
        <ele>592.8</ele>
        <time>2018-12-30T11:53:07Z</time>
      </trkpt>
      <trkpt lat="39.8157470" lon="2.8858290">
        <ele>593.1</ele>
        <time>2018-12-30T11:53:08Z</time>
      </trkpt>
      <trkpt lat="39.8157380" lon="2.8857800">
        <ele>593.4</ele>
        <time>2018-12-30T11:53:09Z</time>
      </trkpt>
      <trkpt lat="39.8157290" lon="2.8857320">
        <ele>593.6</ele>
        <time>2018-12-30T11:53:10Z</time>
      </trkpt>
      <trkpt lat="39.8157200" lon="2.8856870">
        <ele>593.9</ele>
        <time>2018-12-30T11:53:11Z</time>
      </trkpt>
      <trkpt lat="39.8157090" lon="2.8856420">
        <ele>594.1</ele>
        <time>2018-12-30T11:53:12Z</time>
      </trkpt>
      <trkpt lat="39.8156960" lon="2.8856000">
        <ele>594.3</ele>
        <time>2018-12-30T11:53:13Z</time>
      </trkpt>
      <trkpt lat="39.8156810" lon="2.8855580">
        <ele>594.6</ele>
        <time>2018-12-30T11:53:14Z</time>
      </trkpt>
      <trkpt lat="39.8156630" lon="2.8855190">
        <ele>594.9</ele>
        <time>2018-12-30T11:53:15Z</time>
      </trkpt>
      <trkpt lat="39.8156430" lon="2.8854800">
        <ele>595.2</ele>
        <time>2018-12-30T11:53:16Z</time>
      </trkpt>
      <trkpt lat="39.8156220" lon="2.8854400">
        <ele>595.6</ele>
        <time>2018-12-30T11:53:17Z</time>
      </trkpt>
      <trkpt lat="39.8156000" lon="2.8854020">
        <ele>595.9</ele>
        <time>2018-12-30T11:53:18Z</time>
      </trkpt>
      <trkpt lat="39.8155770" lon="2.8853650">
        <ele>596.2</ele>
        <time>2018-12-30T11:53:19Z</time>
      </trkpt>
      <trkpt lat="39.8155550" lon="2.8853310">
        <ele>596.5</ele>
        <time>2018-12-30T11:53:20Z</time>
      </trkpt>
      <trkpt lat="39.8155320" lon="2.8852940">
        <ele>596.8</ele>
        <time>2018-12-30T11:53:21Z</time>
      </trkpt>
      <trkpt lat="39.8155100" lon="2.8852550">
        <ele>597.0</ele>
        <time>2018-12-30T11:53:22Z</time>
      </trkpt>
      <trkpt lat="39.8154880" lon="2.8852140">
        <ele>597.3</ele>
        <time>2018-12-30T11:53:23Z</time>
      </trkpt>
      <trkpt lat="39.8154660" lon="2.8851770">
        <ele>597.5</ele>
        <time>2018-12-30T11:53:24Z</time>
      </trkpt>
      <trkpt lat="39.8154450" lon="2.8851400">
        <ele>597.7</ele>
        <time>2018-12-30T11:53:25Z</time>
      </trkpt>
      <trkpt lat="39.8154240" lon="2.8851010">
        <ele>597.9</ele>
        <time>2018-12-30T11:53:26Z</time>
      </trkpt>
      <trkpt lat="39.8154050" lon="2.8850580">
        <ele>598.2</ele>
        <time>2018-12-30T11:53:27Z</time>
      </trkpt>
      <trkpt lat="39.8153890" lon="2.8850150">
        <ele>598.5</ele>
        <time>2018-12-30T11:53:28Z</time>
      </trkpt>
      <trkpt lat="39.8153750" lon="2.8849700">
        <ele>598.7</ele>
        <time>2018-12-30T11:53:29Z</time>
      </trkpt>
      <trkpt lat="39.8153610" lon="2.8849250">
        <ele>599.0</ele>
        <time>2018-12-30T11:53:30Z</time>
      </trkpt>
      <trkpt lat="39.8153550" lon="2.8848760">
        <ele>599.3</ele>
        <time>2018-12-30T11:53:31Z</time>
      </trkpt>
      <trkpt lat="39.8153590" lon="2.8848260">
        <ele>599.6</ele>
        <time>2018-12-30T11:53:32Z</time>
      </trkpt>
      <trkpt lat="39.8153700" lon="2.8847750">
        <ele>600.0</ele>
        <time>2018-12-30T11:53:33Z</time>
      </trkpt>
      <trkpt lat="39.8153810" lon="2.8847260">
        <ele>600.3</ele>
        <time>2018-12-30T11:53:34Z</time>
      </trkpt>
      <trkpt lat="39.8153900" lon="2.8846790">
        <ele>600.6</ele>
        <time>2018-12-30T11:53:35Z</time>
      </trkpt>
      <trkpt lat="39.8154000" lon="2.8846330">
        <ele>600.8</ele>
        <time>2018-12-30T11:53:36Z</time>
      </trkpt>
      <trkpt lat="39.8154100" lon="2.8845880">
        <ele>601.1</ele>
        <time>2018-12-30T11:53:37Z</time>
      </trkpt>
      <trkpt lat="39.8154210" lon="2.8845440">
        <ele>601.4</ele>
        <time>2018-12-30T11:53:38Z</time>
      </trkpt>
      <trkpt lat="39.8154310" lon="2.8845010">
        <ele>601.6</ele>
        <time>2018-12-30T11:53:39Z</time>
      </trkpt>
      <trkpt lat="39.8154400" lon="2.8844530">
        <ele>601.9</ele>
        <time>2018-12-30T11:53:40Z</time>
      </trkpt>
      <trkpt lat="39.8154460" lon="2.8844050">
        <ele>602.1</ele>
        <time>2018-12-30T11:53:41Z</time>
      </trkpt>
      <trkpt lat="39.8154500" lon="2.8843530">
        <ele>602.4</ele>
        <time>2018-12-30T11:53:42Z</time>
      </trkpt>
      <trkpt lat="39.8154530" lon="2.8843010">
        <ele>602.6</ele>
        <time>2018-12-30T11:53:43Z</time>
      </trkpt>
      <trkpt lat="39.8154550" lon="2.8842490">
        <ele>602.8</ele>
        <time>2018-12-30T11:53:44Z</time>
      </trkpt>
      <trkpt lat="39.8154560" lon="2.8841960">
        <ele>603.0</ele>
        <time>2018-12-30T11:53:45Z</time>
      </trkpt>
      <trkpt lat="39.8154570" lon="2.8841450">
        <ele>603.2</ele>
        <time>2018-12-30T11:53:46Z</time>
      </trkpt>
      <trkpt lat="39.8154580" lon="2.8840930">
        <ele>603.4</ele>
        <time>2018-12-30T11:53:47Z</time>
      </trkpt>
      <trkpt lat="39.8154580" lon="2.8840390">
        <ele>603.7</ele>
        <time>2018-12-30T11:53:48Z</time>
      </trkpt>
      <trkpt lat="39.8154560" lon="2.8839850">
        <ele>604.0</ele>
        <time>2018-12-30T11:53:49Z</time>
      </trkpt>
      <trkpt lat="39.8154550" lon="2.8839310">
        <ele>604.3</ele>
        <time>2018-12-30T11:53:50Z</time>
      </trkpt>
      <trkpt lat="39.8154540" lon="2.8838780">
        <ele>604.8</ele>
        <time>2018-12-30T11:53:51Z</time>
      </trkpt>
      <trkpt lat="39.8154550" lon="2.8838240">
        <ele>605.2</ele>
        <time>2018-12-30T11:53:52Z</time>
      </trkpt>
      <trkpt lat="39.8154580" lon="2.8837710">
        <ele>605.7</ele>
        <time>2018-12-30T11:53:53Z</time>
      </trkpt>
      <trkpt lat="39.8154630" lon="2.8837190">
        <ele>606.2</ele>
        <time>2018-12-30T11:53:54Z</time>
      </trkpt>
      <trkpt lat="39.8154690" lon="2.8836690">
        <ele>606.6</ele>
        <time>2018-12-30T11:53:55Z</time>
      </trkpt>
      <trkpt lat="39.8154750" lon="2.8836170">
        <ele>607.0</ele>
        <time>2018-12-30T11:53:56Z</time>
      </trkpt>
      <trkpt lat="39.8154820" lon="2.8835660">
        <ele>607.4</ele>
        <time>2018-12-30T11:53:57Z</time>
      </trkpt>
      <trkpt lat="39.8154890" lon="2.8835170">
        <ele>607.7</ele>
        <time>2018-12-30T11:53:58Z</time>
      </trkpt>
      <trkpt lat="39.8154940" lon="2.8834710">
        <ele>607.9</ele>
        <time>2018-12-30T11:53:59Z</time>
      </trkpt>
      <trkpt lat="39.8154980" lon="2.8834230">
        <ele>608.1</ele>
        <time>2018-12-30T11:54:00Z</time>
      </trkpt>
      <trkpt lat="39.8155020" lon="2.8833740">
        <ele>608.2</ele>
        <time>2018-12-30T11:54:01Z</time>
      </trkpt>
      <trkpt lat="39.8155060" lon="2.8833230">
        <ele>608.4</ele>
        <time>2018-12-30T11:54:02Z</time>
      </trkpt>
      <trkpt lat="39.8155110" lon="2.8832730">
        <ele>608.5</ele>
        <time>2018-12-30T11:54:03Z</time>
      </trkpt>
      <trkpt lat="39.8155160" lon="2.8832260">
        <ele>608.6</ele>
        <time>2018-12-30T11:54:04Z</time>
      </trkpt>
      <trkpt lat="39.8155210" lon="2.8831810">
        <ele>608.7</ele>
        <time>2018-12-30T11:54:05Z</time>
      </trkpt>
      <trkpt lat="39.8155230" lon="2.8831360">
        <ele>608.7</ele>
        <time>2018-12-30T11:54:06Z</time>
      </trkpt>
      <trkpt lat="39.8155250" lon="2.8830910">
        <ele>608.9</ele>
        <time>2018-12-30T11:54:07Z</time>
      </trkpt>
      <trkpt lat="39.8155270" lon="2.8830430">
        <ele>609.0</ele>
        <time>2018-12-30T11:54:08Z</time>
      </trkpt>
      <trkpt lat="39.8155270" lon="2.8829930">
        <ele>609.3</ele>
        <time>2018-12-30T11:54:09Z</time>
      </trkpt>
      <trkpt lat="39.8155260" lon="2.8829420">
        <ele>609.6</ele>
        <time>2018-12-30T11:54:10Z</time>
      </trkpt>
      <trkpt lat="39.8155220" lon="2.8828890">
        <ele>609.9</ele>
        <time>2018-12-30T11:54:11Z</time>
      </trkpt>
      <trkpt lat="39.8155210" lon="2.8828350">
        <ele>610.4</ele>
        <time>2018-12-30T11:54:12Z</time>
      </trkpt>
      <trkpt lat="39.8155200" lon="2.8827820">
        <ele>610.9</ele>
        <time>2018-12-30T11:54:13Z</time>
      </trkpt>
      <trkpt lat="39.8155230" lon="2.8827330">
        <ele>611.3</ele>
        <time>2018-12-30T11:54:14Z</time>
      </trkpt>
      <trkpt lat="39.8155240" lon="2.8826880">
        <ele>611.7</ele>
        <time>2018-12-30T11:54:15Z</time>
      </trkpt>
      <trkpt lat="39.8155250" lon="2.8826440">
        <ele>612.1</ele>
        <time>2018-12-30T11:54:16Z</time>
      </trkpt>
      <trkpt lat="39.8155240" lon="2.8825980">
        <ele>612.5</ele>
        <time>2018-12-30T11:54:17Z</time>
      </trkpt>
      <trkpt lat="39.8155210" lon="2.8825500">
        <ele>612.8</ele>
        <time>2018-12-30T11:54:18Z</time>
      </trkpt>
      <trkpt lat="39.8155160" lon="2.8825040">
        <ele>613.1</ele>
        <time>2018-12-30T11:54:19Z</time>
      </trkpt>
      <trkpt lat="39.8155070" lon="2.8824550">
        <ele>613.5</ele>
        <time>2018-12-30T11:54:20Z</time>
      </trkpt>
      <trkpt lat="39.8154970" lon="2.8824060">
        <ele>613.8</ele>
        <time>2018-12-30T11:54:21Z</time>
      </trkpt>
      <trkpt lat="39.8154860" lon="2.8823520">
        <ele>614.1</ele>
        <time>2018-12-30T11:54:22Z</time>
      </trkpt>
      <trkpt lat="39.8154780" lon="2.8823000">
        <ele>614.4</ele>
        <time>2018-12-30T11:54:23Z</time>
      </trkpt>
      <trkpt lat="39.8154680" lon="2.8822500">
        <ele>614.6</ele>
        <time>2018-12-30T11:54:24Z</time>
      </trkpt>
      <trkpt lat="39.8154590" lon="2.8822000">
        <ele>614.9</ele>
        <time>2018-12-30T11:54:25Z</time>
      </trkpt>
      <trkpt lat="39.8154480" lon="2.8821490">
        <ele>615.2</ele>
        <time>2018-12-30T11:54:26Z</time>
      </trkpt>
      <trkpt lat="39.8154380" lon="2.8820960">
        <ele>615.5</ele>
        <time>2018-12-30T11:54:27Z</time>
      </trkpt>
      <trkpt lat="39.8154270" lon="2.8820450">
        <ele>615.9</ele>
        <time>2018-12-30T11:54:28Z</time>
      </trkpt>
      <trkpt lat="39.8154170" lon="2.8819950">
        <ele>616.2</ele>
        <time>2018-12-30T11:54:29Z</time>
      </trkpt>
      <trkpt lat="39.8154050" lon="2.8819450">
        <ele>616.5</ele>
        <time>2018-12-30T11:54:30Z</time>
      </trkpt>
      <trkpt lat="39.8153950" lon="2.8818960">
        <ele>616.8</ele>
        <time>2018-12-30T11:54:31Z</time>
      </trkpt>
      <trkpt lat="39.8153870" lon="2.8818460">
        <ele>617.0</ele>
        <time>2018-12-30T11:54:32Z</time>
      </trkpt>
      <trkpt lat="39.8153810" lon="2.8817950">
        <ele>617.2</ele>
        <time>2018-12-30T11:54:33Z</time>
      </trkpt>
      <trkpt lat="39.8153770" lon="2.8817440">
        <ele>617.5</ele>
        <time>2018-12-30T11:54:34Z</time>
      </trkpt>
      <trkpt lat="39.8153750" lon="2.8816930">
        <ele>617.7</ele>
        <time>2018-12-30T11:54:35Z</time>
      </trkpt>
      <trkpt lat="39.8153770" lon="2.8816380">
        <ele>617.9</ele>
        <time>2018-12-30T11:54:36Z</time>
      </trkpt>
      <trkpt lat="39.8153810" lon="2.8815820">
        <ele>618.1</ele>
        <time>2018-12-30T11:54:37Z</time>
      </trkpt>
      <trkpt lat="39.8153900" lon="2.8815240">
        <ele>618.3</ele>
        <time>2018-12-30T11:54:38Z</time>
      </trkpt>
      <trkpt lat="39.8154020" lon="2.8814670">
        <ele>618.6</ele>
        <time>2018-12-30T11:54:39Z</time>
      </trkpt>
      <trkpt lat="39.8154160" lon="2.8814090">
        <ele>618.8</ele>
        <time>2018-12-30T11:54:40Z</time>
      </trkpt>
      <trkpt lat="39.8154310" lon="2.8813530">
        <ele>619.1</ele>
        <time>2018-12-30T11:54:41Z</time>
      </trkpt>
      <trkpt lat="39.8154490" lon="2.8813000">
        <ele>619.4</ele>
        <time>2018-12-30T11:54:42Z</time>
      </trkpt>
      <trkpt lat="39.8154680" lon="2.8812490">
        <ele>619.6</ele>
        <time>2018-12-30T11:54:43Z</time>
      </trkpt>
      <trkpt lat="39.8154920" lon="2.8812020">
        <ele>619.9</ele>
        <time>2018-12-30T11:54:44Z</time>
      </trkpt>
      <trkpt lat="39.8155170" lon="2.8811570">
        <ele>620.2</ele>
        <time>2018-12-30T11:54:45Z</time>
      </trkpt>
      <trkpt lat="39.8155440" lon="2.8811140">
        <ele>620.5</ele>
        <time>2018-12-30T11:54:46Z</time>
      </trkpt>
      <trkpt lat="39.8155710" lon="2.8810700">
        <ele>620.7</ele>
        <time>2018-12-30T11:54:47Z</time>
      </trkpt>
      <trkpt lat="39.8156020" lon="2.8810280">
        <ele>621.0</ele>
        <time>2018-12-30T11:54:48Z</time>
      </trkpt>
      <trkpt lat="39.8156370" lon="2.8809870">
        <ele>621.2</ele>
        <time>2018-12-30T11:54:49Z</time>
      </trkpt>
      <trkpt lat="39.8156710" lon="2.8809430">
        <ele>621.5</ele>
        <time>2018-12-30T11:54:50Z</time>
      </trkpt>
      <trkpt lat="39.8157010" lon="2.8808970">
        <ele>621.7</ele>
        <time>2018-12-30T11:54:51Z</time>
      </trkpt>
      <trkpt lat="39.8157270" lon="2.8808520">
        <ele>621.9</ele>
        <time>2018-12-30T11:54:52Z</time>
      </trkpt>
      <trkpt lat="39.8157530" lon="2.8808110">
        <ele>622.2</ele>
        <time>2018-12-30T11:54:53Z</time>
      </trkpt>
      <trkpt lat="39.8157760" lon="2.8807680">
        <ele>622.4</ele>
        <time>2018-12-30T11:54:54Z</time>
      </trkpt>
      <trkpt lat="39.8157950" lon="2.8807240">
        <ele>622.6</ele>
        <time>2018-12-30T11:54:55Z</time>
      </trkpt>
      <trkpt lat="39.8158040" lon="2.8806750">
        <ele>622.8</ele>
        <time>2018-12-30T11:54:56Z</time>
      </trkpt>
      <trkpt lat="39.8158090" lon="2.8806250">
        <ele>623.1</ele>
        <time>2018-12-30T11:54:57Z</time>
      </trkpt>
      <trkpt lat="39.8158080" lon="2.8805750">
        <ele>623.3</ele>
        <time>2018-12-30T11:54:58Z</time>
      </trkpt>
      <trkpt lat="39.8158070" lon="2.8805240">
        <ele>623.5</ele>
        <time>2018-12-30T11:54:59Z</time>
      </trkpt>
      <trkpt lat="39.8158060" lon="2.8804740">
        <ele>623.7</ele>
        <time>2018-12-30T11:55:00Z</time>
      </trkpt>
      <trkpt lat="39.8158050" lon="2.8804250">
        <ele>624.0</ele>
        <time>2018-12-30T11:55:01Z</time>
      </trkpt>
      <trkpt lat="39.8158020" lon="2.8803770">
        <ele>624.2</ele>
        <time>2018-12-30T11:55:02Z</time>
      </trkpt>
      <trkpt lat="39.8157980" lon="2.8803260">
        <ele>624.5</ele>
        <time>2018-12-30T11:55:03Z</time>
      </trkpt>
      <trkpt lat="39.8157930" lon="2.8802740">
        <ele>624.7</ele>
        <time>2018-12-30T11:55:04Z</time>
      </trkpt>
      <trkpt lat="39.8157880" lon="2.8802230">
        <ele>624.9</ele>
        <time>2018-12-30T11:55:05Z</time>
      </trkpt>
      <trkpt lat="39.8157840" lon="2.8801720">
        <ele>625.1</ele>
        <time>2018-12-30T11:55:06Z</time>
      </trkpt>
      <trkpt lat="39.8157800" lon="2.8801210">
        <ele>625.3</ele>
        <time>2018-12-30T11:55:07Z</time>
      </trkpt>
      <trkpt lat="39.8157740" lon="2.8800690">
        <ele>625.4</ele>
        <time>2018-12-30T11:55:08Z</time>
      </trkpt>
      <trkpt lat="39.8157690" lon="2.8800170">
        <ele>625.6</ele>
        <time>2018-12-30T11:55:09Z</time>
      </trkpt>
      <trkpt lat="39.8157640" lon="2.8799660">
        <ele>625.7</ele>
        <time>2018-12-30T11:55:10Z</time>
      </trkpt>
      <trkpt lat="39.8157600" lon="2.8799140">
        <ele>625.9</ele>
        <time>2018-12-30T11:55:11Z</time>
      </trkpt>
      <trkpt lat="39.8157550" lon="2.8798630">
        <ele>626.1</ele>
        <time>2018-12-30T11:55:12Z</time>
      </trkpt>
      <trkpt lat="39.8157480" lon="2.8798130">
        <ele>626.4</ele>
        <time>2018-12-30T11:55:13Z</time>
      </trkpt>
      <trkpt lat="39.8157420" lon="2.8797640">
        <ele>626.7</ele>
        <time>2018-12-30T11:55:14Z</time>
      </trkpt>
      <trkpt lat="39.8157350" lon="2.8797170">
        <ele>627.1</ele>
        <time>2018-12-30T11:55:15Z</time>
      </trkpt>
      <trkpt lat="39.8157280" lon="2.8796700">
        <ele>627.4</ele>
        <time>2018-12-30T11:55:16Z</time>
      </trkpt>
      <trkpt lat="39.8157230" lon="2.8796220">
        <ele>627.8</ele>
        <time>2018-12-30T11:55:17Z</time>
      </trkpt>
      <trkpt lat="39.8157200" lon="2.8795740">
        <ele>628.1</ele>
        <time>2018-12-30T11:55:18Z</time>
      </trkpt>
      <trkpt lat="39.8157170" lon="2.8795240">
        <ele>628.3</ele>
        <time>2018-12-30T11:55:19Z</time>
      </trkpt>
      <trkpt lat="39.8157160" lon="2.8794740">
        <ele>628.6</ele>
        <time>2018-12-30T11:55:20Z</time>
      </trkpt>
      <trkpt lat="39.8157170" lon="2.8794240">
        <ele>628.9</ele>
        <time>2018-12-30T11:55:21Z</time>
      </trkpt>
      <trkpt lat="39.8157200" lon="2.8793750">
        <ele>629.2</ele>
        <time>2018-12-30T11:55:22Z</time>
      </trkpt>
      <trkpt lat="39.8157250" lon="2.8793270">
        <ele>629.5</ele>
        <time>2018-12-30T11:55:23Z</time>
      </trkpt>
      <trkpt lat="39.8157310" lon="2.8792810">
        <ele>629.8</ele>
        <time>2018-12-30T11:55:24Z</time>
      </trkpt>
      <trkpt lat="39.8157410" lon="2.8792380">
        <ele>630.2</ele>
        <time>2018-12-30T11:55:25Z</time>
      </trkpt>
      <trkpt lat="39.8157580" lon="2.8791970">
        <ele>630.6</ele>
        <time>2018-12-30T11:55:26Z</time>
      </trkpt>
      <trkpt lat="39.8157780" lon="2.8791590">
        <ele>631.0</ele>
        <time>2018-12-30T11:55:27Z</time>
      </trkpt>
      <trkpt lat="39.8157980" lon="2.8791230">
        <ele>631.4</ele>
        <time>2018-12-30T11:55:28Z</time>
      </trkpt>
      <trkpt lat="39.8158170" lon="2.8790890">
        <ele>631.8</ele>
        <time>2018-12-30T11:55:29Z</time>
      </trkpt>
      <trkpt lat="39.8158350" lon="2.8790540">
        <ele>632.1</ele>
        <time>2018-12-30T11:55:30Z</time>
      </trkpt>
      <trkpt lat="39.8158530" lon="2.8790180">
        <ele>632.5</ele>
        <time>2018-12-30T11:55:31Z</time>
      </trkpt>
      <trkpt lat="39.8158690" lon="2.8789830">
        <ele>632.8</ele>
        <time>2018-12-30T11:55:32Z</time>
      </trkpt>
      <trkpt lat="39.8158850" lon="2.8789480">
        <ele>633.1</ele>
        <time>2018-12-30T11:55:33Z</time>
      </trkpt>
      <trkpt lat="39.8158990" lon="2.8789140">
        <ele>633.4</ele>
        <time>2018-12-30T11:55:34Z</time>
      </trkpt>
      <trkpt lat="39.8159150" lon="2.8788780">
        <ele>633.8</ele>
        <time>2018-12-30T11:55:35Z</time>
      </trkpt>
      <trkpt lat="39.8159300" lon="2.8788410">
        <ele>634.1</ele>
        <time>2018-12-30T11:55:36Z</time>
      </trkpt>
      <trkpt lat="39.8159460" lon="2.8787990">
        <ele>634.5</ele>
        <time>2018-12-30T11:55:37Z</time>
      </trkpt>
      <trkpt lat="39.8159610" lon="2.8787550">
        <ele>634.9</ele>
        <time>2018-12-30T11:55:38Z</time>
      </trkpt>
      <trkpt lat="39.8159770" lon="2.8787110">
        <ele>635.3</ele>
        <time>2018-12-30T11:55:39Z</time>
      </trkpt>
      <trkpt lat="39.8159940" lon="2.8786710">
        <ele>635.6</ele>
        <time>2018-12-30T11:55:40Z</time>
      </trkpt>
      <trkpt lat="39.8160120" lon="2.8786320">
        <ele>635.9</ele>
        <time>2018-12-30T11:55:41Z</time>
      </trkpt>
      <trkpt lat="39.8160300" lon="2.8785940">
        <ele>636.1</ele>
        <time>2018-12-30T11:55:42Z</time>
      </trkpt>
      <trkpt lat="39.8160490" lon="2.8785570">
        <ele>636.3</ele>
        <time>2018-12-30T11:55:43Z</time>
      </trkpt>
      <trkpt lat="39.8160680" lon="2.8785220">
        <ele>636.6</ele>
        <time>2018-12-30T11:55:44Z</time>
      </trkpt>
      <trkpt lat="39.8160910" lon="2.8784900">
        <ele>636.8</ele>
        <time>2018-12-30T11:55:45Z</time>
      </trkpt>
      <trkpt lat="39.8161210" lon="2.8784620">
        <ele>637.0</ele>
        <time>2018-12-30T11:55:46Z</time>
      </trkpt>
      <trkpt lat="39.8161560" lon="2.8784370">
        <ele>637.3</ele>
        <time>2018-12-30T11:55:47Z</time>
      </trkpt>
      <trkpt lat="39.8161910" lon="2.8784130">
        <ele>637.6</ele>
        <time>2018-12-30T11:55:48Z</time>
      </trkpt>
      <trkpt lat="39.8162230" lon="2.8783890">
        <ele>637.9</ele>
        <time>2018-12-30T11:55:49Z</time>
      </trkpt>
      <trkpt lat="39.8162540" lon="2.8783660">
        <ele>638.2</ele>
        <time>2018-12-30T11:55:50Z</time>
      </trkpt>
      <trkpt lat="39.8162870" lon="2.8783440">
        <ele>638.6</ele>
        <time>2018-12-30T11:55:51Z</time>
      </trkpt>
      <trkpt lat="39.8163190" lon="2.8783240">
        <ele>639.0</ele>
        <time>2018-12-30T11:55:52Z</time>
      </trkpt>
      <trkpt lat="39.8163510" lon="2.8783040">
        <ele>639.3</ele>
        <time>2018-12-30T11:55:53Z</time>
      </trkpt>
      <trkpt lat="39.8163820" lon="2.8782850">
        <ele>639.7</ele>
        <time>2018-12-30T11:55:54Z</time>
      </trkpt>
      <trkpt lat="39.8164140" lon="2.8782690">
        <ele>640.0</ele>
        <time>2018-12-30T11:55:55Z</time>
      </trkpt>
      <trkpt lat="39.8164470" lon="2.8782570">
        <ele>640.3</ele>
        <time>2018-12-30T11:55:56Z</time>
      </trkpt>
      <trkpt lat="39.8164810" lon="2.8782470">
        <ele>640.6</ele>
        <time>2018-12-30T11:55:57Z</time>
      </trkpt>
      <trkpt lat="39.8165190" lon="2.8782370">
        <ele>641.0</ele>
        <time>2018-12-30T11:55:58Z</time>
      </trkpt>
      <trkpt lat="39.8165580" lon="2.8782280">
        <ele>641.2</ele>
        <time>2018-12-30T11:55:59Z</time>
      </trkpt>
      <trkpt lat="39.8165980" lon="2.8782220">
        <ele>641.5</ele>
        <time>2018-12-30T11:56:00Z</time>
      </trkpt>
      <trkpt lat="39.8166380" lon="2.8782210">
        <ele>641.7</ele>
        <time>2018-12-30T11:56:01Z</time>
      </trkpt>
      <trkpt lat="39.8166770" lon="2.8782240">
        <ele>641.9</ele>
        <time>2018-12-30T11:56:02Z</time>
      </trkpt>
      <trkpt lat="39.8167160" lon="2.8782290">
        <ele>642.0</ele>
        <time>2018-12-30T11:56:03Z</time>
      </trkpt>
      <trkpt lat="39.8167550" lon="2.8782370">
        <ele>642.2</ele>
        <time>2018-12-30T11:56:04Z</time>
      </trkpt>
      <trkpt lat="39.8167930" lon="2.8782460">
        <ele>642.4</ele>
        <time>2018-12-30T11:56:05Z</time>
      </trkpt>
      <trkpt lat="39.8168310" lon="2.8782550">
        <ele>642.5</ele>
        <time>2018-12-30T11:56:06Z</time>
      </trkpt>
      <trkpt lat="39.8168670" lon="2.8782630">
        <ele>642.7</ele>
        <time>2018-12-30T11:56:07Z</time>
      </trkpt>
      <trkpt lat="39.8168990" lon="2.8782740">
        <ele>642.9</ele>
        <time>2018-12-30T11:56:08Z</time>
      </trkpt>
      <trkpt lat="39.8169270" lon="2.8782900">
        <ele>643.0</ele>
        <time>2018-12-30T11:56:09Z</time>
      </trkpt>
      <trkpt lat="39.8169550" lon="2.8783050">
        <ele>643.2</ele>
        <time>2018-12-30T11:56:10Z</time>
      </trkpt>
      <trkpt lat="39.8169840" lon="2.8783120">
        <ele>643.3</ele>
        <time>2018-12-30T11:56:11Z</time>
      </trkpt>
      <trkpt lat="39.8170140" lon="2.8783040">
        <ele>643.4</ele>
        <time>2018-12-30T11:56:12Z</time>
      </trkpt>
      <trkpt lat="39.8170410" lon="2.8782880">
        <ele>643.5</ele>
        <time>2018-12-30T11:56:13Z</time>
      </trkpt>
      <trkpt lat="39.8170640" lon="2.8782620">
        <ele>643.6</ele>
        <time>2018-12-30T11:56:14Z</time>
      </trkpt>
      <trkpt lat="39.8170800" lon="2.8782300">
        <ele>643.7</ele>
        <time>2018-12-30T11:56:15Z</time>
      </trkpt>
      <trkpt lat="39.8170880" lon="2.8781910">
        <ele>643.8</ele>
        <time>2018-12-30T11:56:16Z</time>
      </trkpt>
      <trkpt lat="39.8170910" lon="2.8781520">
        <ele>643.8</ele>
        <time>2018-12-30T11:56:17Z</time>
      </trkpt>
      <trkpt lat="39.8170890" lon="2.8781110">
        <ele>643.9</ele>
        <time>2018-12-30T11:56:18Z</time>
      </trkpt>
      <trkpt lat="39.8170830" lon="2.8780700">
        <ele>644.1</ele>
        <time>2018-12-30T11:56:19Z</time>
      </trkpt>
      <trkpt lat="39.8170740" lon="2.8780260">
        <ele>644.2</ele>
        <time>2018-12-30T11:56:20Z</time>
      </trkpt>
      <trkpt lat="39.8170610" lon="2.8779810">
        <ele>644.5</ele>
        <time>2018-12-30T11:56:21Z</time>
      </trkpt>
      <trkpt lat="39.8170480" lon="2.8779360">
        <ele>644.7</ele>
        <time>2018-12-30T11:56:22Z</time>
      </trkpt>
      <trkpt lat="39.8170340" lon="2.8778910">
        <ele>645.0</ele>
        <time>2018-12-30T11:56:23Z</time>
      </trkpt>
      <trkpt lat="39.8170220" lon="2.8778480">
        <ele>645.4</ele>
        <time>2018-12-30T11:56:24Z</time>
      </trkpt>
      <trkpt lat="39.8170120" lon="2.8778040">
        <ele>645.7</ele>
        <time>2018-12-30T11:56:25Z</time>
      </trkpt>
      <trkpt lat="39.8170040" lon="2.8777590">
        <ele>646.1</ele>
        <time>2018-12-30T11:56:26Z</time>
      </trkpt>
      <trkpt lat="39.8169980" lon="2.8777140">
        <ele>646.5</ele>
        <time>2018-12-30T11:56:27Z</time>
      </trkpt>
      <trkpt lat="39.8169940" lon="2.8776680">
        <ele>646.8</ele>
        <time>2018-12-30T11:56:28Z</time>
      </trkpt>
      <trkpt lat="39.8169930" lon="2.8776220">
        <ele>647.2</ele>
        <time>2018-12-30T11:56:29Z</time>
      </trkpt>
      <trkpt lat="39.8169930" lon="2.8775760">
        <ele>647.5</ele>
        <time>2018-12-30T11:56:30Z</time>
      </trkpt>
      <trkpt lat="39.8169950" lon="2.8775300">
        <ele>647.8</ele>
        <time>2018-12-30T11:56:31Z</time>
      </trkpt>
      <trkpt lat="39.8169990" lon="2.8774840">
        <ele>648.0</ele>
        <time>2018-12-30T11:56:32Z</time>
      </trkpt>
      <trkpt lat="39.8170060" lon="2.8774370">
        <ele>648.2</ele>
        <time>2018-12-30T11:56:33Z</time>
      </trkpt>
      <trkpt lat="39.8170130" lon="2.8773910">
        <ele>648.4</ele>
        <time>2018-12-30T11:56:34Z</time>
      </trkpt>
      <trkpt lat="39.8170230" lon="2.8773470">
        <ele>648.5</ele>
        <time>2018-12-30T11:56:35Z</time>
      </trkpt>
      <trkpt lat="39.8170380" lon="2.8773070">
        <ele>648.6</ele>
        <time>2018-12-30T11:56:36Z</time>
      </trkpt>
      <trkpt lat="39.8170570" lon="2.8772720">
        <ele>648.8</ele>
        <time>2018-12-30T11:56:37Z</time>
      </trkpt>
      <trkpt lat="39.8170810" lon="2.8772430">
        <ele>648.9</ele>
        <time>2018-12-30T11:56:38Z</time>
      </trkpt>
      <trkpt lat="39.8171100" lon="2.8772210">
        <ele>649.0</ele>
        <time>2018-12-30T11:56:39Z</time>
      </trkpt>
      <trkpt lat="39.8171430" lon="2.8772040">
        <ele>649.2</ele>
        <time>2018-12-30T11:56:40Z</time>
      </trkpt>
      <trkpt lat="39.8171800" lon="2.8771930">
        <ele>649.4</ele>
        <time>2018-12-30T11:56:41Z</time>
      </trkpt>
      <trkpt lat="39.8172170" lon="2.8771870">
        <ele>649.6</ele>
        <time>2018-12-30T11:56:42Z</time>
      </trkpt>
      <trkpt lat="39.8172580" lon="2.8771840">
        <ele>649.9</ele>
        <time>2018-12-30T11:56:43Z</time>
      </trkpt>
      <trkpt lat="39.8172990" lon="2.8771840">
        <ele>650.1</ele>
        <time>2018-12-30T11:56:44Z</time>
      </trkpt>
      <trkpt lat="39.8173430" lon="2.8771860">
        <ele>650.3</ele>
        <time>2018-12-30T11:56:45Z</time>
      </trkpt>
      <trkpt lat="39.8173860" lon="2.8771900">
        <ele>650.5</ele>
        <time>2018-12-30T11:56:46Z</time>
      </trkpt>
      <trkpt lat="39.8174310" lon="2.8771990">
        <ele>650.7</ele>
        <time>2018-12-30T11:56:47Z</time>
      </trkpt>
      <trkpt lat="39.8174750" lon="2.8772110">
        <ele>650.9</ele>
        <time>2018-12-30T11:56:48Z</time>
      </trkpt>
      <trkpt lat="39.8175180" lon="2.8772260">
        <ele>651.1</ele>
        <time>2018-12-30T11:56:49Z</time>
      </trkpt>
      <trkpt lat="39.8175580" lon="2.8772420">
        <ele>651.3</ele>
        <time>2018-12-30T11:56:50Z</time>
      </trkpt>
      <trkpt lat="39.8175960" lon="2.8772560">
        <ele>651.6</ele>
        <time>2018-12-30T11:56:51Z</time>
      </trkpt>
      <trkpt lat="39.8176320" lon="2.8772680">
        <ele>651.9</ele>
        <time>2018-12-30T11:56:52Z</time>
      </trkpt>
      <trkpt lat="39.8176670" lon="2.8772770">
        <ele>652.3</ele>
        <time>2018-12-30T11:56:53Z</time>
      </trkpt>
      <trkpt lat="39.8177020" lon="2.8772840">
        <ele>652.7</ele>
        <time>2018-12-30T11:56:54Z</time>
      </trkpt>
      <trkpt lat="39.8177380" lon="2.8772850">
        <ele>653.1</ele>
        <time>2018-12-30T11:56:55Z</time>
      </trkpt>
      <trkpt lat="39.8177770" lon="2.8772820">
        <ele>653.5</ele>
        <time>2018-12-30T11:56:56Z</time>
      </trkpt>
      <trkpt lat="39.8178160" lon="2.8772770">
        <ele>653.9</ele>
        <time>2018-12-30T11:56:57Z</time>
      </trkpt>
      <trkpt lat="39.8178550" lon="2.8772740">
        <ele>654.2</ele>
        <time>2018-12-30T11:56:58Z</time>
      </trkpt>
      <trkpt lat="39.8178950" lon="2.8772700">
        <ele>654.5</ele>
        <time>2018-12-30T11:56:59Z</time>
      </trkpt>
      <trkpt lat="39.8179370" lon="2.8772660">
        <ele>654.8</ele>
        <time>2018-12-30T11:57:00Z</time>
      </trkpt>
      <trkpt lat="39.8179800" lon="2.8772590">
        <ele>655.0</ele>
        <time>2018-12-30T11:57:01Z</time>
      </trkpt>
      <trkpt lat="39.8180230" lon="2.8772510">
        <ele>655.2</ele>
        <time>2018-12-30T11:57:02Z</time>
      </trkpt>
      <trkpt lat="39.8180650" lon="2.8772430">
        <ele>655.3</ele>
        <time>2018-12-30T11:57:03Z</time>
      </trkpt>
      <trkpt lat="39.8181060" lon="2.8772340">
        <ele>655.5</ele>
        <time>2018-12-30T11:57:04Z</time>
      </trkpt>
      <trkpt lat="39.8181460" lon="2.8772210">
        <ele>655.6</ele>
        <time>2018-12-30T11:57:05Z</time>
      </trkpt>
      <trkpt lat="39.8181820" lon="2.8772010">
        <ele>655.8</ele>
        <time>2018-12-30T11:57:06Z</time>
      </trkpt>
      <trkpt lat="39.8182160" lon="2.8771740">
        <ele>655.9</ele>
        <time>2018-12-30T11:57:07Z</time>
      </trkpt>
      <trkpt lat="39.8182460" lon="2.8771420">
        <ele>656.0</ele>
        <time>2018-12-30T11:57:08Z</time>
      </trkpt>
      <trkpt lat="39.8182750" lon="2.8771040">
        <ele>656.2</ele>
        <time>2018-12-30T11:57:09Z</time>
      </trkpt>
      <trkpt lat="39.8183010" lon="2.8770640">
        <ele>656.4</ele>
        <time>2018-12-30T11:57:10Z</time>
      </trkpt>
      <trkpt lat="39.8183250" lon="2.8770220">
        <ele>656.6</ele>
        <time>2018-12-30T11:57:11Z</time>
      </trkpt>
      <trkpt lat="39.8183480" lon="2.8769780">
        <ele>656.8</ele>
        <time>2018-12-30T11:57:12Z</time>
      </trkpt>
      <trkpt lat="39.8183700" lon="2.8769340">
        <ele>657.1</ele>
        <time>2018-12-30T11:57:13Z</time>
      </trkpt>
      <trkpt lat="39.8183950" lon="2.8768900">
        <ele>657.5</ele>
        <time>2018-12-30T11:57:14Z</time>
      </trkpt>
      <trkpt lat="39.8184220" lon="2.8768480">
        <ele>657.8</ele>
        <time>2018-12-30T11:57:15Z</time>
      </trkpt>
      <trkpt lat="39.8184500" lon="2.8768080">
        <ele>658.1</ele>
        <time>2018-12-30T11:57:16Z</time>
      </trkpt>
      <trkpt lat="39.8184810" lon="2.8767700">
        <ele>658.4</ele>
        <time>2018-12-30T11:57:17Z</time>
      </trkpt>
      <trkpt lat="39.8185120" lon="2.8767320">
        <ele>658.7</ele>
        <time>2018-12-30T11:57:18Z</time>
      </trkpt>
      <trkpt lat="39.8185460" lon="2.8766960">
        <ele>659.0</ele>
        <time>2018-12-30T11:57:19Z</time>
      </trkpt>
      <trkpt lat="39.8185800" lon="2.8766620">
        <ele>659.2</ele>
        <time>2018-12-30T11:57:20Z</time>
      </trkpt>
      <trkpt lat="39.8186170" lon="2.8766310">
        <ele>659.5</ele>
        <time>2018-12-30T11:57:21Z</time>
      </trkpt>
      <trkpt lat="39.8186580" lon="2.8766030">
        <ele>659.7</ele>
        <time>2018-12-30T11:57:22Z</time>
      </trkpt>
      <trkpt lat="39.8187010" lon="2.8765800">
        <ele>659.8</ele>
        <time>2018-12-30T11:57:23Z</time>
      </trkpt>
      <trkpt lat="39.8187440" lon="2.8765610">
        <ele>659.9</ele>
        <time>2018-12-30T11:57:24Z</time>
      </trkpt>
      <trkpt lat="39.8187880" lon="2.8765460">
        <ele>660.1</ele>
        <time>2018-12-30T11:57:25Z</time>
      </trkpt>
      <trkpt lat="39.8188330" lon="2.8765330">
        <ele>660.2</ele>
        <time>2018-12-30T11:57:26Z</time>
      </trkpt>
      <trkpt lat="39.8188790" lon="2.8765200">
        <ele>660.4</ele>
        <time>2018-12-30T11:57:27Z</time>
      </trkpt>
      <trkpt lat="39.8189250" lon="2.8765120">
        <ele>660.6</ele>
        <time>2018-12-30T11:57:28Z</time>
      </trkpt>
      <trkpt lat="39.8189700" lon="2.8765050">
        <ele>660.8</ele>
        <time>2018-12-30T11:57:29Z</time>
      </trkpt>
      <trkpt lat="39.8190140" lon="2.8765000">
        <ele>661.1</ele>
        <time>2018-12-30T11:57:30Z</time>
      </trkpt>
      <trkpt lat="39.8190570" lon="2.8764940">
        <ele>661.3</ele>
        <time>2018-12-30T11:57:31Z</time>
      </trkpt>
      <trkpt lat="39.8190980" lon="2.8764900">
        <ele>661.5</ele>
        <time>2018-12-30T11:57:32Z</time>
      </trkpt>
      <trkpt lat="39.8191380" lon="2.8764880">
        <ele>661.7</ele>
        <time>2018-12-30T11:57:33Z</time>
      </trkpt>
      <trkpt lat="39.8191790" lon="2.8764860">
        <ele>661.9</ele>
        <time>2018-12-30T11:57:34Z</time>
      </trkpt>
      <trkpt lat="39.8192240" lon="2.8764810">
        <ele>662.1</ele>
        <time>2018-12-30T11:57:35Z</time>
      </trkpt>
      <trkpt lat="39.8192690" lon="2.8764740">
        <ele>662.3</ele>
        <time>2018-12-30T11:57:36Z</time>
      </trkpt>
      <trkpt lat="39.8193140" lon="2.8764660">
        <ele>662.5</ele>
        <time>2018-12-30T11:57:37Z</time>
      </trkpt>
      <trkpt lat="39.8193570" lon="2.8764600">
        <ele>662.7</ele>
        <time>2018-12-30T11:57:38Z</time>
      </trkpt>
      <trkpt lat="39.8194000" lon="2.8764540">
        <ele>662.8</ele>
        <time>2018-12-30T11:57:39Z</time>
      </trkpt>
      <trkpt lat="39.8194420" lon="2.8764450">
        <ele>663.1</ele>
        <time>2018-12-30T11:57:40Z</time>
      </trkpt>
      <trkpt lat="39.8194830" lon="2.8764350">
        <ele>663.3</ele>
        <time>2018-12-30T11:57:41Z</time>
      </trkpt>
      <trkpt lat="39.8195230" lon="2.8764240">
        <ele>663.6</ele>
        <time>2018-12-30T11:57:42Z</time>
      </trkpt>
      <trkpt lat="39.8195630" lon="2.8764140">
        <ele>663.9</ele>
        <time>2018-12-30T11:57:43Z</time>
      </trkpt>
      <trkpt lat="39.8196030" lon="2.8764020">
        <ele>664.3</ele>
        <time>2018-12-30T11:57:44Z</time>
      </trkpt>
      <trkpt lat="39.8196430" lon="2.8763890">
        <ele>664.6</ele>
        <time>2018-12-30T11:57:45Z</time>
      </trkpt>
      <trkpt lat="39.8196810" lon="2.8763750">
        <ele>665.0</ele>
        <time>2018-12-30T11:57:46Z</time>
      </trkpt>
      <trkpt lat="39.8197180" lon="2.8763590">
        <ele>665.3</ele>
        <time>2018-12-30T11:57:47Z</time>
      </trkpt>
      <trkpt lat="39.8197520" lon="2.8763400">
        <ele>665.6</ele>
        <time>2018-12-30T11:57:48Z</time>
      </trkpt>
      <trkpt lat="39.8197830" lon="2.8763170">
        <ele>665.9</ele>
        <time>2018-12-30T11:57:49Z</time>
      </trkpt>
      <trkpt lat="39.8198120" lon="2.8762910">
        <ele>666.2</ele>
        <time>2018-12-30T11:57:50Z</time>
      </trkpt>
      <trkpt lat="39.8198400" lon="2.8762570">
        <ele>666.5</ele>
        <time>2018-12-30T11:57:51Z</time>
      </trkpt>
      <trkpt lat="39.8198670" lon="2.8762230">
        <ele>666.7</ele>
        <time>2018-12-30T11:57:52Z</time>
      </trkpt>
      <trkpt lat="39.8198930" lon="2.8761890">
        <ele>666.9</ele>
        <time>2018-12-30T11:57:53Z</time>
      </trkpt>
      <trkpt lat="39.8199170" lon="2.8761580">
        <ele>667.1</ele>
        <time>2018-12-30T11:57:54Z</time>
      </trkpt>
      <trkpt lat="39.8199390" lon="2.8761240">
        <ele>667.2</ele>
        <time>2018-12-30T11:57:55Z</time>
      </trkpt>
      <trkpt lat="39.8199600" lon="2.8760880">
        <ele>667.3</ele>
        <time>2018-12-30T11:57:56Z</time>
      </trkpt>
      <trkpt lat="39.8199820" lon="2.8760510">
        <ele>667.5</ele>
        <time>2018-12-30T11:57:57Z</time>
      </trkpt>
      <trkpt lat="39.8200040" lon="2.8760130">
        <ele>667.6</ele>
        <time>2018-12-30T11:57:58Z</time>
      </trkpt>
      <trkpt lat="39.8200240" lon="2.8759750">
        <ele>667.8</ele>
        <time>2018-12-30T11:57:59Z</time>
      </trkpt>
      <trkpt lat="39.8200440" lon="2.8759380">
        <ele>668.0</ele>
        <time>2018-12-30T11:58:00Z</time>
      </trkpt>
      <trkpt lat="39.8200610" lon="2.8759010">
        <ele>668.1</ele>
        <time>2018-12-30T11:58:01Z</time>
      </trkpt>
      <trkpt lat="39.8200780" lon="2.8758630">
        <ele>668.3</ele>
        <time>2018-12-30T11:58:02Z</time>
      </trkpt>
      <trkpt lat="39.8200930" lon="2.8758240">
        <ele>668.5</ele>
        <time>2018-12-30T11:58:03Z</time>
      </trkpt>
      <trkpt lat="39.8201080" lon="2.8757850">
        <ele>668.7</ele>
        <time>2018-12-30T11:58:04Z</time>
      </trkpt>
      <trkpt lat="39.8201220" lon="2.8757450">
        <ele>668.9</ele>
        <time>2018-12-30T11:58:05Z</time>
      </trkpt>
      <trkpt lat="39.8201350" lon="2.8757030">
        <ele>669.1</ele>
        <time>2018-12-30T11:58:06Z</time>
      </trkpt>
      <trkpt lat="39.8201460" lon="2.8756600">
        <ele>669.3</ele>
        <time>2018-12-30T11:58:07Z</time>
      </trkpt>
      <trkpt lat="39.8201550" lon="2.8756150">
        <ele>669.6</ele>
        <time>2018-12-30T11:58:08Z</time>
      </trkpt>
      <trkpt lat="39.8201640" lon="2.8755710">
        <ele>669.8</ele>
        <time>2018-12-30T11:58:09Z</time>
      </trkpt>
      <trkpt lat="39.8201710" lon="2.8755240">
        <ele>670.0</ele>
        <time>2018-12-30T11:58:10Z</time>
      </trkpt>
      <trkpt lat="39.8201780" lon="2.8754780">
        <ele>670.3</ele>
        <time>2018-12-30T11:58:11Z</time>
      </trkpt>
      <trkpt lat="39.8201830" lon="2.8754310">
        <ele>670.6</ele>
        <time>2018-12-30T11:58:12Z</time>
      </trkpt>
      <trkpt lat="39.8201880" lon="2.8753850">
        <ele>670.9</ele>
        <time>2018-12-30T11:58:13Z</time>
      </trkpt>
      <trkpt lat="39.8201950" lon="2.8753390">
        <ele>671.2</ele>
        <time>2018-12-30T11:58:14Z</time>
      </trkpt>
      <trkpt lat="39.8202020" lon="2.8752930">
        <ele>671.5</ele>
        <time>2018-12-30T11:58:15Z</time>
      </trkpt>
      <trkpt lat="39.8202090" lon="2.8752490">
        <ele>671.7</ele>
        <time>2018-12-30T11:58:16Z</time>
      </trkpt>
      <trkpt lat="39.8202170" lon="2.8752060">
        <ele>672.0</ele>
        <time>2018-12-30T11:58:17Z</time>
      </trkpt>
      <trkpt lat="39.8202270" lon="2.8751640">
        <ele>672.3</ele>
        <time>2018-12-30T11:58:18Z</time>
      </trkpt>
      <trkpt lat="39.8202380" lon="2.8751240">
        <ele>672.6</ele>
        <time>2018-12-30T11:58:19Z</time>
      </trkpt>
      <trkpt lat="39.8202520" lon="2.8750860">
        <ele>672.8</ele>
        <time>2018-12-30T11:58:20Z</time>
      </trkpt>
      <trkpt lat="39.8202670" lon="2.8750520">
        <ele>673.1</ele>
        <time>2018-12-30T11:58:21Z</time>
      </trkpt>
      <trkpt lat="39.8202850" lon="2.8750190">
        <ele>673.3</ele>
        <time>2018-12-30T11:58:22Z</time>
      </trkpt>
      <trkpt lat="39.8203040" lon="2.8749910">
        <ele>673.6</ele>
        <time>2018-12-30T11:58:23Z</time>
      </trkpt>
      <trkpt lat="39.8203240" lon="2.8749610">
        <ele>673.9</ele>
        <time>2018-12-30T11:58:24Z</time>
      </trkpt>
      <trkpt lat="39.8203460" lon="2.8749310">
        <ele>674.1</ele>
        <time>2018-12-30T11:58:25Z</time>
      </trkpt>
      <trkpt lat="39.8203700" lon="2.8748980">
        <ele>674.4</ele>
        <time>2018-12-30T11:58:26Z</time>
      </trkpt>
      <trkpt lat="39.8203960" lon="2.8748660">
        <ele>674.7</ele>
        <time>2018-12-30T11:58:27Z</time>
      </trkpt>
      <trkpt lat="39.8204210" lon="2.8748320">
        <ele>675.0</ele>
        <time>2018-12-30T11:58:28Z</time>
      </trkpt>
      <trkpt lat="39.8204460" lon="2.8747970">
        <ele>675.2</ele>
        <time>2018-12-30T11:58:29Z</time>
      </trkpt>
      <trkpt lat="39.8204720" lon="2.8747640">
        <ele>675.5</ele>
        <time>2018-12-30T11:58:30Z</time>
      </trkpt>
      <trkpt lat="39.8204970" lon="2.8747330">
        <ele>675.8</ele>
        <time>2018-12-30T11:58:31Z</time>
      </trkpt>
      <trkpt lat="39.8205230" lon="2.8747030">
        <ele>676.1</ele>
        <time>2018-12-30T11:58:32Z</time>
      </trkpt>
      <trkpt lat="39.8205480" lon="2.8746710">
        <ele>676.4</ele>
        <time>2018-12-30T11:58:33Z</time>
      </trkpt>
      <trkpt lat="39.8205730" lon="2.8746370">
        <ele>676.7</ele>
        <time>2018-12-30T11:58:34Z</time>
      </trkpt>
      <trkpt lat="39.8205950" lon="2.8745990">
        <ele>676.9</ele>
        <time>2018-12-30T11:58:35Z</time>
      </trkpt>
      <trkpt lat="39.8206140" lon="2.8745560">
        <ele>677.1</ele>
        <time>2018-12-30T11:58:36Z</time>
      </trkpt>
      <trkpt lat="39.8206270" lon="2.8745070">
        <ele>677.4</ele>
        <time>2018-12-30T11:58:37Z</time>
      </trkpt>
      <trkpt lat="39.8206350" lon="2.8744540">
        <ele>677.6</ele>
        <time>2018-12-30T11:58:38Z</time>
      </trkpt>
      <trkpt lat="39.8206380" lon="2.8744020">
        <ele>677.8</ele>
        <time>2018-12-30T11:58:39Z</time>
      </trkpt>
      <trkpt lat="39.8206380" lon="2.8743480">
        <ele>678.0</ele>
        <time>2018-12-30T11:58:40Z</time>
      </trkpt>
      <trkpt lat="39.8206340" lon="2.8742950">
        <ele>678.1</ele>
        <time>2018-12-30T11:58:41Z</time>
      </trkpt>
      <trkpt lat="39.8206270" lon="2.8742370">
        <ele>678.4</ele>
        <time>2018-12-30T11:58:42Z</time>
      </trkpt>
      <trkpt lat="39.8206180" lon="2.8741780">
        <ele>678.6</ele>
        <time>2018-12-30T11:58:43Z</time>
      </trkpt>
      <trkpt lat="39.8206070" lon="2.8741170">
        <ele>678.8</ele>
        <time>2018-12-30T11:58:44Z</time>
      </trkpt>
      <trkpt lat="39.8205950" lon="2.8740530">
        <ele>679.0</ele>
        <time>2018-12-30T11:58:45Z</time>
      </trkpt>
      <trkpt lat="39.8205800" lon="2.8739880">
        <ele>679.1</ele>
        <time>2018-12-30T11:58:46Z</time>
      </trkpt>
      <trkpt lat="39.8205620" lon="2.8739190">
        <ele>679.3</ele>
        <time>2018-12-30T11:58:47Z</time>
      </trkpt>
      <trkpt lat="39.8205440" lon="2.8738490">
        <ele>679.4</ele>
        <time>2018-12-30T11:58:48Z</time>
      </trkpt>
      <trkpt lat="39.8205270" lon="2.8737780">
        <ele>679.4</ele>
        <time>2018-12-30T11:58:49Z</time>
      </trkpt>
      <trkpt lat="39.8205110" lon="2.8737070">
        <ele>679.3</ele>
        <time>2018-12-30T11:58:50Z</time>
      </trkpt>
      <trkpt lat="39.8204960" lon="2.8736370">
        <ele>679.2</ele>
        <time>2018-12-30T11:58:51Z</time>
      </trkpt>
      <trkpt lat="39.8204820" lon="2.8735650">
        <ele>679.0</ele>
        <time>2018-12-30T11:58:52Z</time>
      </trkpt>
      <trkpt lat="39.8204690" lon="2.8734910">
        <ele>678.8</ele>
        <time>2018-12-30T11:58:53Z</time>
      </trkpt>
      <trkpt lat="39.8204580" lon="2.8734170">
        <ele>678.7</ele>
        <time>2018-12-30T11:58:54Z</time>
      </trkpt>
      <trkpt lat="39.8204460" lon="2.8733420">
        <ele>678.5</ele>
        <time>2018-12-30T11:58:55Z</time>
      </trkpt>
      <trkpt lat="39.8204340" lon="2.8732650">
        <ele>678.4</ele>
        <time>2018-12-30T11:58:56Z</time>
      </trkpt>
      <trkpt lat="39.8204270" lon="2.8731840">
        <ele>678.4</ele>
        <time>2018-12-30T11:58:57Z</time>
      </trkpt>
      <trkpt lat="39.8204260" lon="2.8731000">
        <ele>678.3</ele>
        <time>2018-12-30T11:58:58Z</time>
      </trkpt>
      <trkpt lat="39.8204310" lon="2.8730150">
        <ele>678.3</ele>
        <time>2018-12-30T11:58:59Z</time>
      </trkpt>
      <trkpt lat="39.8204410" lon="2.8729290">
        <ele>678.3</ele>
        <time>2018-12-30T11:59:00Z</time>
      </trkpt>
      <trkpt lat="39.8204570" lon="2.8728420">
        <ele>678.3</ele>
        <time>2018-12-30T11:59:01Z</time>
      </trkpt>
      <trkpt lat="39.8204780" lon="2.8727570">
        <ele>678.2</ele>
        <time>2018-12-30T11:59:02Z</time>
      </trkpt>
      <trkpt lat="39.8205040" lon="2.8726750">
        <ele>678.2</ele>
        <time>2018-12-30T11:59:03Z</time>
      </trkpt>
      <trkpt lat="39.8205350" lon="2.8725980">
        <ele>678.2</ele>
        <time>2018-12-30T11:59:04Z</time>
      </trkpt>
      <trkpt lat="39.8205700" lon="2.8725240">
        <ele>678.2</ele>
        <time>2018-12-30T11:59:05Z</time>
      </trkpt>
      <trkpt lat="39.8206090" lon="2.8724520">
        <ele>678.1</ele>
        <time>2018-12-30T11:59:06Z</time>
      </trkpt>
      <trkpt lat="39.8206480" lon="2.8723800">
        <ele>678.1</ele>
        <time>2018-12-30T11:59:07Z</time>
      </trkpt>
      <trkpt lat="39.8206860" lon="2.8723090">
        <ele>678.4</ele>
        <time>2018-12-30T11:59:08Z</time>
      </trkpt>
      <trkpt lat="39.8207210" lon="2.8722380">
        <ele>678.6</ele>
        <time>2018-12-30T11:59:09Z</time>
      </trkpt>
      <trkpt lat="39.8207570" lon="2.8721720">
        <ele>678.9</ele>
        <time>2018-12-30T11:59:10Z</time>
      </trkpt>
      <trkpt lat="39.8207910" lon="2.8721080">
        <ele>679.1</ele>
        <time>2018-12-30T11:59:11Z</time>
      </trkpt>
      <trkpt lat="39.8208220" lon="2.8720470">
        <ele>679.4</ele>
        <time>2018-12-30T11:59:12Z</time>
      </trkpt>
      <trkpt lat="39.8208510" lon="2.8719820">
        <ele>679.7</ele>
        <time>2018-12-30T11:59:13Z</time>
      </trkpt>
      <trkpt lat="39.8208790" lon="2.8719160">
        <ele>679.9</ele>
        <time>2018-12-30T11:59:14Z</time>
      </trkpt>
      <trkpt lat="39.8209040" lon="2.8718490">
        <ele>680.2</ele>
        <time>2018-12-30T11:59:15Z</time>
      </trkpt>
      <trkpt lat="39.8209280" lon="2.8717860">
        <ele>680.4</ele>
        <time>2018-12-30T11:59:16Z</time>
      </trkpt>
      <trkpt lat="39.8209530" lon="2.8717270">
        <ele>680.7</ele>
        <time>2018-12-30T11:59:17Z</time>
      </trkpt>
      <trkpt lat="39.8209780" lon="2.8716710">
        <ele>680.9</ele>
        <time>2018-12-30T11:59:18Z</time>
      </trkpt>
      <trkpt lat="39.8210040" lon="2.8716170">
        <ele>681.1</ele>
        <time>2018-12-30T11:59:19Z</time>
      </trkpt>
      <trkpt lat="39.8210290" lon="2.8715640">
        <ele>681.3</ele>
        <time>2018-12-30T11:59:20Z</time>
      </trkpt>
      <trkpt lat="39.8210530" lon="2.8715100">
        <ele>681.5</ele>
        <time>2018-12-30T11:59:21Z</time>
      </trkpt>
      <trkpt lat="39.8210770" lon="2.8714550">
        <ele>681.6</ele>
        <time>2018-12-30T11:59:22Z</time>
      </trkpt>
      <trkpt lat="39.8211000" lon="2.8714010">
        <ele>681.8</ele>
        <time>2018-12-30T11:59:23Z</time>
      </trkpt>
      <trkpt lat="39.8211240" lon="2.8713460">
        <ele>682.0</ele>
        <time>2018-12-30T11:59:24Z</time>
      </trkpt>
      <trkpt lat="39.8211490" lon="2.8712890">
        <ele>682.1</ele>
        <time>2018-12-30T11:59:25Z</time>
      </trkpt>
      <trkpt lat="39.8211740" lon="2.8712230">
        <ele>682.3</ele>
        <time>2018-12-30T11:59:26Z</time>
      </trkpt>
      <trkpt lat="39.8212010" lon="2.8711520">
        <ele>682.4</ele>
        <time>2018-12-30T11:59:27Z</time>
      </trkpt>
      <trkpt lat="39.8212280" lon="2.8710840">
        <ele>682.5</ele>
        <time>2018-12-30T11:59:28Z</time>
      </trkpt>
      <trkpt lat="39.8212570" lon="2.8710200">
        <ele>682.6</ele>
        <time>2018-12-30T11:59:29Z</time>
      </trkpt>
      <trkpt lat="39.8212850" lon="2.8709540">
        <ele>682.7</ele>
        <time>2018-12-30T11:59:30Z</time>
      </trkpt>
      <trkpt lat="39.8213110" lon="2.8708860">
        <ele>682.8</ele>
        <time>2018-12-30T11:59:31Z</time>
      </trkpt>
      <trkpt lat="39.8213370" lon="2.8708170">
        <ele>682.8</ele>
        <time>2018-12-30T11:59:32Z</time>
      </trkpt>
      <trkpt lat="39.8213650" lon="2.8707510">
        <ele>682.9</ele>
        <time>2018-12-30T11:59:33Z</time>
      </trkpt>
      <trkpt lat="39.8213940" lon="2.8706870">
        <ele>682.9</ele>
        <time>2018-12-30T11:59:34Z</time>
      </trkpt>
      <trkpt lat="39.8214220" lon="2.8706230">
        <ele>682.9</ele>
        <time>2018-12-30T11:59:35Z</time>
      </trkpt>
      <trkpt lat="39.8214520" lon="2.8705610">
        <ele>683.0</ele>
        <time>2018-12-30T11:59:36Z</time>
      </trkpt>
      <trkpt lat="39.8214830" lon="2.8704980">
        <ele>683.0</ele>
        <time>2018-12-30T11:59:37Z</time>
      </trkpt>
      <trkpt lat="39.8215130" lon="2.8704350">
        <ele>683.1</ele>
        <time>2018-12-30T11:59:38Z</time>
      </trkpt>
      <trkpt lat="39.8215450" lon="2.8703720">
        <ele>683.2</ele>
        <time>2018-12-30T11:59:39Z</time>
      </trkpt>
      <trkpt lat="39.8215780" lon="2.8703060">
        <ele>683.3</ele>
        <time>2018-12-30T11:59:40Z</time>
      </trkpt>
      <trkpt lat="39.8216120" lon="2.8702390">
        <ele>683.5</ele>
        <time>2018-12-30T11:59:41Z</time>
      </trkpt>
      <trkpt lat="39.8216460" lon="2.8701660">
        <ele>683.7</ele>
        <time>2018-12-30T11:59:42Z</time>
      </trkpt>
      <trkpt lat="39.8216750" lon="2.8700910">
        <ele>683.9</ele>
        <time>2018-12-30T11:59:43Z</time>
      </trkpt>
      <trkpt lat="39.8217030" lon="2.8700170">
        <ele>684.1</ele>
        <time>2018-12-30T11:59:44Z</time>
      </trkpt>
      <trkpt lat="39.8217290" lon="2.8699470">
        <ele>684.2</ele>
        <time>2018-12-30T11:59:45Z</time>
      </trkpt>
      <trkpt lat="39.8217520" lon="2.8698690">
        <ele>684.5</ele>
        <time>2018-12-30T11:59:46Z</time>
      </trkpt>
      <trkpt lat="39.8217710" lon="2.8697840">
        <ele>684.8</ele>
        <time>2018-12-30T11:59:47Z</time>
      </trkpt>
      <trkpt lat="39.8217890" lon="2.8696880">
        <ele>685.0</ele>
        <time>2018-12-30T11:59:48Z</time>
      </trkpt>
      <trkpt lat="39.8218070" lon="2.8696010">
        <ele>685.3</ele>
        <time>2018-12-30T11:59:49Z</time>
      </trkpt>
      <trkpt lat="39.8218220" lon="2.8695210">
        <ele>685.4</ele>
        <time>2018-12-30T11:59:50Z</time>
      </trkpt>
      <trkpt lat="39.8218340" lon="2.8694470">
        <ele>685.6</ele>
        <time>2018-12-30T11:59:51Z</time>
      </trkpt>
      <trkpt lat="39.8218450" lon="2.8693700">
        <ele>685.7</ele>
        <time>2018-12-30T11:59:52Z</time>
      </trkpt>
      <trkpt lat="39.8218570" lon="2.8692890">
        <ele>685.9</ele>
        <time>2018-12-30T11:59:53Z</time>
      </trkpt>
      <trkpt lat="39.8218690" lon="2.8692090">
        <ele>686.0</ele>
        <time>2018-12-30T11:59:54Z</time>
      </trkpt>
      <trkpt lat="39.8218780" lon="2.8691280">
        <ele>686.0</ele>
        <time>2018-12-30T11:59:55Z</time>
      </trkpt>
      <trkpt lat="39.8218860" lon="2.8690430">
        <ele>686.0</ele>
        <time>2018-12-30T11:59:56Z</time>
      </trkpt>
      <trkpt lat="39.8218930" lon="2.8689550">
        <ele>686.1</ele>
        <time>2018-12-30T11:59:57Z</time>
      </trkpt>
      <trkpt lat="39.8218990" lon="2.8688670">
        <ele>686.1</ele>
        <time>2018-12-30T11:59:58Z</time>
      </trkpt>
      <trkpt lat="39.8218990" lon="2.8687770">
        <ele>686.0</ele>
        <time>2018-12-30T11:59:59Z</time>
      </trkpt>
      <trkpt lat="39.8218960" lon="2.8686860">
        <ele>686.0</ele>
        <time>2018-12-30T12:00:00Z</time>
      </trkpt>
      <trkpt lat="39.8218890" lon="2.8685970">
        <ele>685.9</ele>
        <time>2018-12-30T12:00:01Z</time>
      </trkpt>
      <trkpt lat="39.8218830" lon="2.8685050">
        <ele>685.8</ele>
        <time>2018-12-30T12:00:02Z</time>
      </trkpt>
      <trkpt lat="39.8218760" lon="2.8684120">
        <ele>685.6</ele>
        <time>2018-12-30T12:00:03Z</time>
      </trkpt>
      <trkpt lat="39.8218630" lon="2.8683160">
        <ele>685.4</ele>
        <time>2018-12-30T12:00:04Z</time>
      </trkpt>
      <trkpt lat="39.8218470" lon="2.8682220">
        <ele>685.0</ele>
        <time>2018-12-30T12:00:05Z</time>
      </trkpt>
      <trkpt lat="39.8218270" lon="2.8681250">
        <ele>684.7</ele>
        <time>2018-12-30T12:00:06Z</time>
      </trkpt>
      <trkpt lat="39.8218020" lon="2.8680280">
        <ele>684.2</ele>
        <time>2018-12-30T12:00:07Z</time>
      </trkpt>
      <trkpt lat="39.8217740" lon="2.8679280">
        <ele>683.8</ele>
        <time>2018-12-30T12:00:08Z</time>
      </trkpt>
      <trkpt lat="39.8217410" lon="2.8678270">
        <ele>683.4</ele>
        <time>2018-12-30T12:00:09Z</time>
      </trkpt>
      <trkpt lat="39.8217100" lon="2.8677260">
        <ele>683.1</ele>
        <time>2018-12-30T12:00:10Z</time>
      </trkpt>
      <trkpt lat="39.8216770" lon="2.8676280">
        <ele>682.7</ele>
        <time>2018-12-30T12:00:11Z</time>
      </trkpt>
      <trkpt lat="39.8216460" lon="2.8675310">
        <ele>682.4</ele>
        <time>2018-12-30T12:00:12Z</time>
      </trkpt>
      <trkpt lat="39.8216200" lon="2.8674330">
        <ele>682.1</ele>
        <time>2018-12-30T12:00:13Z</time>
      </trkpt>
      <trkpt lat="39.8216050" lon="2.8673290">
        <ele>681.8</ele>
        <time>2018-12-30T12:00:14Z</time>
      </trkpt>
      <trkpt lat="39.8215970" lon="2.8672230">
        <ele>681.5</ele>
        <time>2018-12-30T12:00:15Z</time>
      </trkpt>
      <trkpt lat="39.8215950" lon="2.8671140">
        <ele>681.2</ele>
        <time>2018-12-30T12:00:16Z</time>
      </trkpt>
      <trkpt lat="39.8216000" lon="2.8670040">
        <ele>680.8</ele>
        <time>2018-12-30T12:00:17Z</time>
      </trkpt>
      <trkpt lat="39.8216130" lon="2.8668930">
        <ele>680.5</ele>
        <time>2018-12-30T12:00:18Z</time>
      </trkpt>
      <trkpt lat="39.8216350" lon="2.8667870">
        <ele>680.1</ele>
        <time>2018-12-30T12:00:19Z</time>
      </trkpt>
      <trkpt lat="39.8216640" lon="2.8666870">
        <ele>679.8</ele>
        <time>2018-12-30T12:00:20Z</time>
      </trkpt>
      <trkpt lat="39.8216970" lon="2.8665910">
        <ele>679.5</ele>
        <time>2018-12-30T12:00:21Z</time>
      </trkpt>
      <trkpt lat="39.8217360" lon="2.8664980">
        <ele>679.3</ele>
        <time>2018-12-30T12:00:22Z</time>
      </trkpt>
      <trkpt lat="39.8217810" lon="2.8664070">
        <ele>679.1</ele>
        <time>2018-12-30T12:00:23Z</time>
      </trkpt>
      <trkpt lat="39.8218310" lon="2.8663210">
        <ele>678.8</ele>
        <time>2018-12-30T12:00:24Z</time>
      </trkpt>
      <trkpt lat="39.8218820" lon="2.8662360">
        <ele>678.6</ele>
        <time>2018-12-30T12:00:25Z</time>
      </trkpt>
      <trkpt lat="39.8219330" lon="2.8661530">
        <ele>678.3</ele>
        <time>2018-12-30T12:00:26Z</time>
      </trkpt>
      <trkpt lat="39.8219850" lon="2.8660740">
        <ele>678.0</ele>
        <time>2018-12-30T12:00:27Z</time>
      </trkpt>
      <trkpt lat="39.8220350" lon="2.8659940">
        <ele>677.7</ele>
        <time>2018-12-30T12:00:28Z</time>
      </trkpt>
      <trkpt lat="39.8220840" lon="2.8659160">
        <ele>677.5</ele>
        <time>2018-12-30T12:00:29Z</time>
      </trkpt>
      <trkpt lat="39.8221240" lon="2.8658360">
        <ele>677.3</ele>
        <time>2018-12-30T12:00:30Z</time>
      </trkpt>
      <trkpt lat="39.8221550" lon="2.8657500">
        <ele>677.2</ele>
        <time>2018-12-30T12:00:31Z</time>
      </trkpt>
      <trkpt lat="39.8221660" lon="2.8656550">
        <ele>677.1</ele>
        <time>2018-12-30T12:00:32Z</time>
      </trkpt>
      <trkpt lat="39.8221700" lon="2.8655620">
        <ele>677.0</ele>
        <time>2018-12-30T12:00:33Z</time>
      </trkpt>
      <trkpt lat="39.8221660" lon="2.8654730">
        <ele>676.9</ele>
        <time>2018-12-30T12:00:34Z</time>
      </trkpt>
      <trkpt lat="39.8221390" lon="2.8653920">
        <ele>676.9</ele>
        <time>2018-12-30T12:00:35Z</time>
      </trkpt>
      <trkpt lat="39.8220960" lon="2.8653100">
        <ele>676.8</ele>
        <time>2018-12-30T12:00:36Z</time>
      </trkpt>
      <trkpt lat="39.8220430" lon="2.8652250">
        <ele>676.7</ele>
        <time>2018-12-30T12:00:37Z</time>
      </trkpt>
      <trkpt lat="39.8220160" lon="2.8651280">
        <ele>676.6</ele>
        <time>2018-12-30T12:00:38Z</time>
      </trkpt>
      <trkpt lat="39.8220100" lon="2.8650270">
        <ele>676.5</ele>
        <time>2018-12-30T12:00:39Z</time>
      </trkpt>
      <trkpt lat="39.8220240" lon="2.8649190">
        <ele>676.4</ele>
        <time>2018-12-30T12:00:40Z</time>
      </trkpt>
      <trkpt lat="39.8220490" lon="2.8648070">
        <ele>676.3</ele>
        <time>2018-12-30T12:00:41Z</time>
      </trkpt>
      <trkpt lat="39.8220780" lon="2.8646900">
        <ele>676.1</ele>
        <time>2018-12-30T12:00:42Z</time>
      </trkpt>
      <trkpt lat="39.8221120" lon="2.8645750">
        <ele>676.0</ele>
        <time>2018-12-30T12:00:43Z</time>
      </trkpt>
      <trkpt lat="39.8221510" lon="2.8644640">
        <ele>675.7</ele>
        <time>2018-12-30T12:00:44Z</time>
      </trkpt>
      <trkpt lat="39.8221960" lon="2.8643590">
        <ele>675.4</ele>
        <time>2018-12-30T12:00:45Z</time>
      </trkpt>
      <trkpt lat="39.8222460" lon="2.8642590">
        <ele>675.0</ele>
        <time>2018-12-30T12:00:46Z</time>
      </trkpt>
      <trkpt lat="39.8223010" lon="2.8641580">
        <ele>674.4</ele>
        <time>2018-12-30T12:00:47Z</time>
      </trkpt>
      <trkpt lat="39.8223580" lon="2.8640570">
        <ele>673.8</ele>
        <time>2018-12-30T12:00:48Z</time>
      </trkpt>
      <trkpt lat="39.8224140" lon="2.8639550">
        <ele>673.2</ele>
        <time>2018-12-30T12:00:49Z</time>
      </trkpt>
      <trkpt lat="39.8224690" lon="2.8638600">
        <ele>672.5</ele>
        <time>2018-12-30T12:00:50Z</time>
      </trkpt>
      <trkpt lat="39.8225230" lon="2.8637650">
        <ele>671.9</ele>
        <time>2018-12-30T12:00:51Z</time>
      </trkpt>
      <trkpt lat="39.8225790" lon="2.8636710">
        <ele>671.4</ele>
        <time>2018-12-30T12:00:52Z</time>
      </trkpt>
      <trkpt lat="39.8226340" lon="2.8635810">
        <ele>670.8</ele>
        <time>2018-12-30T12:00:53Z</time>
      </trkpt>
      <trkpt lat="39.8226870" lon="2.8634840">
        <ele>670.5</ele>
        <time>2018-12-30T12:00:54Z</time>
      </trkpt>
      <trkpt lat="39.8227390" lon="2.8633880">
        <ele>670.7</ele>
        <time>2018-12-30T12:00:55Z</time>
      </trkpt>
      <trkpt lat="39.8227880" lon="2.8632930">
        <ele>671.0</ele>
        <time>2018-12-30T12:00:56Z</time>
      </trkpt>
      <trkpt lat="39.8228410" lon="2.8632160">
        <ele>671.4</ele>
        <time>2018-12-30T12:00:57Z</time>
      </trkpt>
      <trkpt lat="39.8228980" lon="2.8631510">
        <ele>671.7</ele>
        <time>2018-12-30T12:00:58Z</time>
      </trkpt>
      <trkpt lat="39.8229540" lon="2.8630890">
        <ele>672.0</ele>
        <time>2018-12-30T12:00:59Z</time>
      </trkpt>
      <trkpt lat="39.8230030" lon="2.8630250">
        <ele>672.0</ele>
        <time>2018-12-30T12:01:00Z</time>
      </trkpt>
      <trkpt lat="39.8230370" lon="2.8629530">
        <ele>671.9</ele>
        <time>2018-12-30T12:01:01Z</time>
      </trkpt>
      <trkpt lat="39.8230610" lon="2.8628770">
        <ele>671.4</ele>
        <time>2018-12-30T12:01:02Z</time>
      </trkpt>
      <trkpt lat="39.8230740" lon="2.8627950">
        <ele>670.8</ele>
        <time>2018-12-30T12:01:03Z</time>
      </trkpt>
      <trkpt lat="39.8230820" lon="2.8627090">
        <ele>670.0</ele>
        <time>2018-12-30T12:01:04Z</time>
      </trkpt>
      <trkpt lat="39.8230880" lon="2.8626170">
        <ele>669.2</ele>
        <time>2018-12-30T12:01:05Z</time>
      </trkpt>
      <trkpt lat="39.8230930" lon="2.8625210">
        <ele>668.5</ele>
        <time>2018-12-30T12:01:06Z</time>
      </trkpt>
      <trkpt lat="39.8231100" lon="2.8624220">
        <ele>667.7</ele>
        <time>2018-12-30T12:01:07Z</time>
      </trkpt>
      <trkpt lat="39.8231380" lon="2.8623230">
        <ele>666.9</ele>
        <time>2018-12-30T12:01:08Z</time>
      </trkpt>
      <trkpt lat="39.8231780" lon="2.8622240">
        <ele>666.1</ele>
        <time>2018-12-30T12:01:09Z</time>
      </trkpt>
      <trkpt lat="39.8232200" lon="2.8621280">
        <ele>665.3</ele>
        <time>2018-12-30T12:01:10Z</time>
      </trkpt>
      <trkpt lat="39.8232620" lon="2.8620340">
        <ele>664.5</ele>
        <time>2018-12-30T12:01:11Z</time>
      </trkpt>
      <trkpt lat="39.8232980" lon="2.8619400">
        <ele>663.8</ele>
        <time>2018-12-30T12:01:12Z</time>
      </trkpt>
      <trkpt lat="39.8233030" lon="2.8618460">
        <ele>663.2</ele>
        <time>2018-12-30T12:01:13Z</time>
      </trkpt>
      <trkpt lat="39.8232840" lon="2.8617500">
        <ele>662.5</ele>
        <time>2018-12-30T12:01:14Z</time>
      </trkpt>
      <trkpt lat="39.8232510" lon="2.8616540">
        <ele>661.9</ele>
        <time>2018-12-30T12:01:15Z</time>
      </trkpt>
      <trkpt lat="39.8232300" lon="2.8615530">
        <ele>661.3</ele>
        <time>2018-12-30T12:01:16Z</time>
      </trkpt>
      <trkpt lat="39.8232140" lon="2.8614430">
        <ele>660.7</ele>
        <time>2018-12-30T12:01:17Z</time>
      </trkpt>
      <trkpt lat="39.8232030" lon="2.8613290">
        <ele>660.0</ele>
        <time>2018-12-30T12:01:18Z</time>
      </trkpt>
      <trkpt lat="39.8232040" lon="2.8612170">
        <ele>659.5</ele>
        <time>2018-12-30T12:01:19Z</time>
      </trkpt>
      <trkpt lat="39.8232260" lon="2.8611360">
        <ele>659.2</ele>
        <time>2018-12-30T12:01:20Z</time>
      </trkpt>
      <trkpt lat="39.8232650" lon="2.8610760">
        <ele>659.1</ele>
        <time>2018-12-30T12:01:21Z</time>
      </trkpt>
      <trkpt lat="39.8233100" lon="2.8610390">
        <ele>659.1</ele>
        <time>2018-12-30T12:01:22Z</time>
      </trkpt>
      <trkpt lat="39.8233570" lon="2.8610100">
        <ele>659.1</ele>
        <time>2018-12-30T12:01:23Z</time>
      </trkpt>
      <trkpt lat="39.8234030" lon="2.8609890">
        <ele>659.2</ele>
        <time>2018-12-30T12:01:24Z</time>
      </trkpt>
      <trkpt lat="39.8234510" lon="2.8609780">
        <ele>659.3</ele>
        <time>2018-12-30T12:01:25Z</time>
      </trkpt>
      <trkpt lat="39.8234960" lon="2.8609610">
        <ele>659.3</ele>
        <time>2018-12-30T12:01:26Z</time>
      </trkpt>
      <trkpt lat="39.8235500" lon="2.8609260">
        <ele>659.3</ele>
        <time>2018-12-30T12:01:27Z</time>
      </trkpt>
      <trkpt lat="39.8236100" lon="2.8608760">
        <ele>659.0</ele>
        <time>2018-12-30T12:01:28Z</time>
      </trkpt>
      <trkpt lat="39.8236730" lon="2.8608110">
        <ele>658.4</ele>
        <time>2018-12-30T12:01:29Z</time>
      </trkpt>
      <trkpt lat="39.8237360" lon="2.8607500">
        <ele>657.8</ele>
        <time>2018-12-30T12:01:30Z</time>
      </trkpt>
      <trkpt lat="39.8238040" lon="2.8606850">
        <ele>657.1</ele>
        <time>2018-12-30T12:01:31Z</time>
      </trkpt>
      <trkpt lat="39.8238730" lon="2.8606220">
        <ele>656.5</ele>
        <time>2018-12-30T12:01:32Z</time>
      </trkpt>
      <trkpt lat="39.8239400" lon="2.8605530">
        <ele>656.1</ele>
        <time>2018-12-30T12:01:33Z</time>
      </trkpt>
      <trkpt lat="39.8240050" lon="2.8604810">
        <ele>655.7</ele>
        <time>2018-12-30T12:01:34Z</time>
      </trkpt>
      <trkpt lat="39.8240650" lon="2.8604050">
        <ele>655.5</ele>
        <time>2018-12-30T12:01:35Z</time>
      </trkpt>
      <trkpt lat="39.8241210" lon="2.8603280">
        <ele>655.4</ele>
        <time>2018-12-30T12:01:36Z</time>
      </trkpt>
      <trkpt lat="39.8241730" lon="2.8602490">
        <ele>655.3</ele>
        <time>2018-12-30T12:01:37Z</time>
      </trkpt>
      <trkpt lat="39.8242290" lon="2.8601750">
        <ele>655.3</ele>
        <time>2018-12-30T12:01:38Z</time>
      </trkpt>
      <trkpt lat="39.8242860" lon="2.8601010">
        <ele>655.3</ele>
        <time>2018-12-30T12:01:39Z</time>
      </trkpt>
      <trkpt lat="39.8243430" lon="2.8600310">
        <ele>655.4</ele>
        <time>2018-12-30T12:01:40Z</time>
      </trkpt>
      <trkpt lat="39.8243990" lon="2.8599630">
        <ele>655.5</ele>
        <time>2018-12-30T12:01:41Z</time>
      </trkpt>
      <trkpt lat="39.8244500" lon="2.8599010">
        <ele>655.6</ele>
        <time>2018-12-30T12:01:42Z</time>
      </trkpt>
      <trkpt lat="39.8244990" lon="2.8598380">
        <ele>655.7</ele>
        <time>2018-12-30T12:01:43Z</time>
      </trkpt>
      <trkpt lat="39.8245460" lon="2.8597720">
        <ele>655.8</ele>
        <time>2018-12-30T12:01:44Z</time>
      </trkpt>
      <trkpt lat="39.8245910" lon="2.8596990">
        <ele>655.9</ele>
        <time>2018-12-30T12:01:45Z</time>
      </trkpt>
      <trkpt lat="39.8246320" lon="2.8596240">
        <ele>655.9</ele>
        <time>2018-12-30T12:01:46Z</time>
      </trkpt>
      <trkpt lat="39.8246710" lon="2.8595510">
        <ele>656.1</ele>
        <time>2018-12-30T12:01:47Z</time>
      </trkpt>
      <trkpt lat="39.8247090" lon="2.8594820">
        <ele>656.3</ele>
        <time>2018-12-30T12:01:48Z</time>
      </trkpt>
      <trkpt lat="39.8247430" lon="2.8594170">
        <ele>656.5</ele>
        <time>2018-12-30T12:01:49Z</time>
      </trkpt>
      <trkpt lat="39.8247710" lon="2.8593500">
        <ele>656.7</ele>
        <time>2018-12-30T12:01:50Z</time>
      </trkpt>
      <trkpt lat="39.8247900" lon="2.8592790">
        <ele>656.9</ele>
        <time>2018-12-30T12:01:51Z</time>
      </trkpt>
      <trkpt lat="39.8247940" lon="2.8592050">
        <ele>657.0</ele>
        <time>2018-12-30T12:01:52Z</time>
      </trkpt>
      <trkpt lat="39.8247900" lon="2.8591280">
        <ele>657.0</ele>
        <time>2018-12-30T12:01:53Z</time>
      </trkpt>
      <trkpt lat="39.8247760" lon="2.8590510">
        <ele>657.0</ele>
        <time>2018-12-30T12:01:54Z</time>
      </trkpt>
      <trkpt lat="39.8247570" lon="2.8589740">
        <ele>656.8</ele>
        <time>2018-12-30T12:01:55Z</time>
      </trkpt>
      <trkpt lat="39.8247220" lon="2.8588980">
        <ele>656.6</ele>
        <time>2018-12-30T12:01:56Z</time>
      </trkpt>
      <trkpt lat="39.8246810" lon="2.8588230">
        <ele>656.3</ele>
        <time>2018-12-30T12:01:57Z</time>
      </trkpt>
      <trkpt lat="39.8246350" lon="2.8587480">
        <ele>655.9</ele>
        <time>2018-12-30T12:01:58Z</time>
      </trkpt>
      <trkpt lat="39.8245920" lon="2.8586730">
        <ele>655.5</ele>
        <time>2018-12-30T12:01:59Z</time>
      </trkpt>
      <trkpt lat="39.8245480" lon="2.8585970">
        <ele>655.0</ele>
        <time>2018-12-30T12:02:00Z</time>
      </trkpt>
      <trkpt lat="39.8245010" lon="2.8585180">
        <ele>654.4</ele>
        <time>2018-12-30T12:02:01Z</time>
      </trkpt>
      <trkpt lat="39.8244530" lon="2.8584370">
        <ele>653.8</ele>
        <time>2018-12-30T12:02:02Z</time>
      </trkpt>
      <trkpt lat="39.8244030" lon="2.8583570">
        <ele>653.3</ele>
        <time>2018-12-30T12:02:03Z</time>
      </trkpt>
      <trkpt lat="39.8243520" lon="2.8582770">
        <ele>652.7</ele>
        <time>2018-12-30T12:02:04Z</time>
      </trkpt>
      <trkpt lat="39.8243020" lon="2.8581970">
        <ele>652.3</ele>
        <time>2018-12-30T12:02:05Z</time>
      </trkpt>
      <trkpt lat="39.8242540" lon="2.8581140">
        <ele>652.1</ele>
        <time>2018-12-30T12:02:06Z</time>
      </trkpt>
      <trkpt lat="39.8242210" lon="2.8580230">
        <ele>651.9</ele>
        <time>2018-12-30T12:02:07Z</time>
      </trkpt>
      <trkpt lat="39.8242010" lon="2.8579250">
        <ele>651.9</ele>
        <time>2018-12-30T12:02:08Z</time>
      </trkpt>
      <trkpt lat="39.8241930" lon="2.8578230">
        <ele>652.0</ele>
        <time>2018-12-30T12:02:09Z</time>
      </trkpt>
      <trkpt lat="39.8241830" lon="2.8577230">
        <ele>652.1</ele>
        <time>2018-12-30T12:02:10Z</time>
      </trkpt>
      <trkpt lat="39.8241690" lon="2.8576250">
        <ele>652.2</ele>
        <time>2018-12-30T12:02:11Z</time>
      </trkpt>
      <trkpt lat="39.8241470" lon="2.8575300">
        <ele>652.4</ele>
        <time>2018-12-30T12:02:12Z</time>
      </trkpt>
      <trkpt lat="39.8241210" lon="2.8574410">
        <ele>652.6</ele>
        <time>2018-12-30T12:02:13Z</time>
      </trkpt>
      <trkpt lat="39.8240930" lon="2.8573580">
        <ele>652.7</ele>
        <time>2018-12-30T12:02:14Z</time>
      </trkpt>
      <trkpt lat="39.8240650" lon="2.8572750">
        <ele>652.7</ele>
        <time>2018-12-30T12:02:15Z</time>
      </trkpt>
      <trkpt lat="39.8240330" lon="2.8571930">
        <ele>652.8</ele>
        <time>2018-12-30T12:02:16Z</time>
      </trkpt>
      <trkpt lat="39.8240010" lon="2.8571130">
        <ele>652.8</ele>
        <time>2018-12-30T12:02:17Z</time>
      </trkpt>
      <trkpt lat="39.8239670" lon="2.8570360">
        <ele>652.8</ele>
        <time>2018-12-30T12:02:18Z</time>
      </trkpt>
      <trkpt lat="39.8239320" lon="2.8569620">
        <ele>652.9</ele>
        <time>2018-12-30T12:02:19Z</time>
      </trkpt>
      <trkpt lat="39.8238920" lon="2.8568900">
        <ele>652.9</ele>
        <time>2018-12-30T12:02:20Z</time>
      </trkpt>
      <trkpt lat="39.8238480" lon="2.8568200">
        <ele>652.8</ele>
        <time>2018-12-30T12:02:21Z</time>
      </trkpt>
      <trkpt lat="39.8238010" lon="2.8567490">
        <ele>652.7</ele>
        <time>2018-12-30T12:02:22Z</time>
      </trkpt>
      <trkpt lat="39.8237490" lon="2.8566810">
        <ele>652.5</ele>
        <time>2018-12-30T12:02:23Z</time>
      </trkpt>
      <trkpt lat="39.8236910" lon="2.8566180">
        <ele>652.3</ele>
        <time>2018-12-30T12:02:24Z</time>
      </trkpt>
      <trkpt lat="39.8236270" lon="2.8565590">
        <ele>652.2</ele>
        <time>2018-12-30T12:02:25Z</time>
      </trkpt>
      <trkpt lat="39.8235600" lon="2.8565060">
        <ele>651.8</ele>
        <time>2018-12-30T12:02:26Z</time>
      </trkpt>
      <trkpt lat="39.8234850" lon="2.8564570">
        <ele>651.2</ele>
        <time>2018-12-30T12:02:27Z</time>
      </trkpt>
      <trkpt lat="39.8234050" lon="2.8564130">
        <ele>650.1</ele>
        <time>2018-12-30T12:02:28Z</time>
      </trkpt>
      <trkpt lat="39.8233210" lon="2.8563700">
        <ele>648.5</ele>
        <time>2018-12-30T12:02:29Z</time>
      </trkpt>
      <trkpt lat="39.8232370" lon="2.8563300">
        <ele>647.0</ele>
        <time>2018-12-30T12:02:30Z</time>
      </trkpt>
      <trkpt lat="39.8231530" lon="2.8562890">
        <ele>645.6</ele>
        <time>2018-12-30T12:02:31Z</time>
      </trkpt>
      <trkpt lat="39.8230680" lon="2.8562490">
        <ele>644.2</ele>
        <time>2018-12-30T12:02:32Z</time>
      </trkpt>
      <trkpt lat="39.8229840" lon="2.8562070">
        <ele>643.0</ele>
        <time>2018-12-30T12:02:33Z</time>
      </trkpt>
      <trkpt lat="39.8228980" lon="2.8561620">
        <ele>642.2</ele>
        <time>2018-12-30T12:02:34Z</time>
      </trkpt>
      <trkpt lat="39.8228090" lon="2.8561170">
        <ele>641.7</ele>
        <time>2018-12-30T12:02:35Z</time>
      </trkpt>
      <trkpt lat="39.8227180" lon="2.8560670">
        <ele>641.1</ele>
        <time>2018-12-30T12:02:36Z</time>
      </trkpt>
      <trkpt lat="39.8226360" lon="2.8560020">
        <ele>640.4</ele>
        <time>2018-12-30T12:02:37Z</time>
      </trkpt>
      <trkpt lat="39.8225670" lon="2.8559170">
        <ele>639.5</ele>
        <time>2018-12-30T12:02:38Z</time>
      </trkpt>
      <trkpt lat="39.8225110" lon="2.8558130">
        <ele>638.4</ele>
        <time>2018-12-30T12:02:39Z</time>
      </trkpt>
      <trkpt lat="39.8224680" lon="2.8557000">
        <ele>637.6</ele>
        <time>2018-12-30T12:02:40Z</time>
      </trkpt>
      <trkpt lat="39.8224380" lon="2.8555780">
        <ele>637.1</ele>
        <time>2018-12-30T12:02:41Z</time>
      </trkpt>
      <trkpt lat="39.8224330" lon="2.8554520">
        <ele>637.2</ele>
        <time>2018-12-30T12:02:42Z</time>
      </trkpt>
      <trkpt lat="39.8224470" lon="2.8553330">
        <ele>637.5</ele>
        <time>2018-12-30T12:02:43Z</time>
      </trkpt>
      <trkpt lat="39.8224730" lon="2.8552220">
        <ele>637.8</ele>
        <time>2018-12-30T12:02:44Z</time>
      </trkpt>
      <trkpt lat="39.8224950" lon="2.8551190">
        <ele>638.3</ele>
        <time>2018-12-30T12:02:45Z</time>
      </trkpt>
      <trkpt lat="39.8225160" lon="2.8550200">
        <ele>638.7</ele>
        <time>2018-12-30T12:02:46Z</time>
      </trkpt>
      <trkpt lat="39.8225370" lon="2.8549270">
        <ele>638.9</ele>
        <time>2018-12-30T12:02:47Z</time>
      </trkpt>
      <trkpt lat="39.8225560" lon="2.8548360">
        <ele>639.0</ele>
        <time>2018-12-30T12:02:48Z</time>
      </trkpt>
      <trkpt lat="39.8225730" lon="2.8547450">
        <ele>639.0</ele>
        <time>2018-12-30T12:02:49Z</time>
      </trkpt>
      <trkpt lat="39.8225840" lon="2.8546510">
        <ele>638.8</ele>
        <time>2018-12-30T12:02:50Z</time>
      </trkpt>
      <trkpt lat="39.8225910" lon="2.8545570">
        <ele>638.5</ele>
        <time>2018-12-30T12:02:51Z</time>
      </trkpt>
      <trkpt lat="39.8225840" lon="2.8544550">
        <ele>638.1</ele>
        <time>2018-12-30T12:02:52Z</time>
      </trkpt>
      <trkpt lat="39.8225660" lon="2.8543460">
        <ele>637.6</ele>
        <time>2018-12-30T12:02:53Z</time>
      </trkpt>
      <trkpt lat="39.8225440" lon="2.8542320">
        <ele>637.0</ele>
        <time>2018-12-30T12:02:54Z</time>
      </trkpt>
      <trkpt lat="39.8225370" lon="2.8541140">
        <ele>636.4</ele>
        <time>2018-12-30T12:02:55Z</time>
      </trkpt>
      <trkpt lat="39.8225540" lon="2.8539950">
        <ele>635.9</ele>
        <time>2018-12-30T12:02:56Z</time>
      </trkpt>
      <trkpt lat="39.8225900" lon="2.8538830">
        <ele>635.6</ele>
        <time>2018-12-30T12:02:57Z</time>
      </trkpt>
      <trkpt lat="39.8226390" lon="2.8537790">
        <ele>635.5</ele>
        <time>2018-12-30T12:02:58Z</time>
      </trkpt>
      <trkpt lat="39.8226960" lon="2.8536880">
        <ele>635.5</ele>
        <time>2018-12-30T12:02:59Z</time>
      </trkpt>
      <trkpt lat="39.8227550" lon="2.8536030">
        <ele>635.4</ele>
        <time>2018-12-30T12:03:00Z</time>
      </trkpt>
      <trkpt lat="39.8228150" lon="2.8535230">
        <ele>635.4</ele>
        <time>2018-12-30T12:03:01Z</time>
      </trkpt>
      <trkpt lat="39.8228720" lon="2.8534390">
        <ele>635.4</ele>
        <time>2018-12-30T12:03:02Z</time>
      </trkpt>
      <trkpt lat="39.8229270" lon="2.8533510">
        <ele>635.5</ele>
        <time>2018-12-30T12:03:03Z</time>
      </trkpt>
      <trkpt lat="39.8229760" lon="2.8532550">
        <ele>635.7</ele>
        <time>2018-12-30T12:03:04Z</time>
      </trkpt>
      <trkpt lat="39.8230220" lon="2.8531570">
        <ele>636.2</ele>
        <time>2018-12-30T12:03:05Z</time>
      </trkpt>
      <trkpt lat="39.8230640" lon="2.8530620">
        <ele>636.7</ele>
        <time>2018-12-30T12:03:06Z</time>
      </trkpt>
      <trkpt lat="39.8231060" lon="2.8529750">
        <ele>637.3</ele>
        <time>2018-12-30T12:03:07Z</time>
      </trkpt>
      <trkpt lat="39.8231440" lon="2.8528930">
        <ele>637.8</ele>
        <time>2018-12-30T12:03:08Z</time>
      </trkpt>
      <trkpt lat="39.8231820" lon="2.8528160">
        <ele>638.2</ele>
        <time>2018-12-30T12:03:09Z</time>
      </trkpt>
      <trkpt lat="39.8232160" lon="2.8527390">
        <ele>638.5</ele>
        <time>2018-12-30T12:03:10Z</time>
      </trkpt>
      <trkpt lat="39.8232450" lon="2.8526590">
        <ele>638.8</ele>
        <time>2018-12-30T12:03:11Z</time>
      </trkpt>
      <trkpt lat="39.8232690" lon="2.8525750">
        <ele>639.1</ele>
        <time>2018-12-30T12:03:12Z</time>
      </trkpt>
      <trkpt lat="39.8232790" lon="2.8524910">
        <ele>639.4</ele>
        <time>2018-12-30T12:03:13Z</time>
      </trkpt>
      <trkpt lat="39.8232820" lon="2.8524110">
        <ele>639.8</ele>
        <time>2018-12-30T12:03:14Z</time>
      </trkpt>
      <trkpt lat="39.8232830" lon="2.8523270">
        <ele>640.2</ele>
        <time>2018-12-30T12:03:15Z</time>
      </trkpt>
      <trkpt lat="39.8232920" lon="2.8522380">
        <ele>640.7</ele>
        <time>2018-12-30T12:03:16Z</time>
      </trkpt>
      <trkpt lat="39.8233080" lon="2.8521510">
        <ele>641.2</ele>
        <time>2018-12-30T12:03:17Z</time>
      </trkpt>
      <trkpt lat="39.8233310" lon="2.8520730">
        <ele>641.5</ele>
        <time>2018-12-30T12:03:18Z</time>
      </trkpt>
      <trkpt lat="39.8233600" lon="2.8520050">
        <ele>641.7</ele>
        <time>2018-12-30T12:03:19Z</time>
      </trkpt>
      <trkpt lat="39.8233940" lon="2.8519390">
        <ele>641.8</ele>
        <time>2018-12-30T12:03:20Z</time>
      </trkpt>
      <trkpt lat="39.8234300" lon="2.8518790">
        <ele>641.9</ele>
        <time>2018-12-30T12:03:21Z</time>
      </trkpt>
      <trkpt lat="39.8234720" lon="2.8518220">
        <ele>641.9</ele>
        <time>2018-12-30T12:03:22Z</time>
      </trkpt>
      <trkpt lat="39.8235190" lon="2.8517670">
        <ele>641.9</ele>
        <time>2018-12-30T12:03:23Z</time>
      </trkpt>
      <trkpt lat="39.8235720" lon="2.8517140">
        <ele>642.0</ele>
        <time>2018-12-30T12:03:24Z</time>
      </trkpt>
      <trkpt lat="39.8236300" lon="2.8516660">
        <ele>642.1</ele>
        <time>2018-12-30T12:03:25Z</time>
      </trkpt>
      <trkpt lat="39.8236890" lon="2.8516230">
        <ele>642.2</ele>
        <time>2018-12-30T12:03:26Z</time>
      </trkpt>
      <trkpt lat="39.8237490" lon="2.8515810">
        <ele>642.4</ele>
        <time>2018-12-30T12:03:27Z</time>
      </trkpt>
      <trkpt lat="39.8238070" lon="2.8515380">
        <ele>642.6</ele>
        <time>2018-12-30T12:03:28Z</time>
      </trkpt>
      <trkpt lat="39.8238630" lon="2.8514910">
        <ele>642.8</ele>
        <time>2018-12-30T12:03:29Z</time>
      </trkpt>
      <trkpt lat="39.8239210" lon="2.8514420">
        <ele>643.1</ele>
        <time>2018-12-30T12:03:30Z</time>
      </trkpt>
      <trkpt lat="39.8239760" lon="2.8513850">
        <ele>643.3</ele>
        <time>2018-12-30T12:03:31Z</time>
      </trkpt>
      <trkpt lat="39.8240290" lon="2.8513240">
        <ele>643.7</ele>
        <time>2018-12-30T12:03:32Z</time>
      </trkpt>
      <trkpt lat="39.8240820" lon="2.8512610">
        <ele>644.0</ele>
        <time>2018-12-30T12:03:33Z</time>
      </trkpt>
      <trkpt lat="39.8241340" lon="2.8512020">
        <ele>644.4</ele>
        <time>2018-12-30T12:03:34Z</time>
      </trkpt>
      <trkpt lat="39.8241860" lon="2.8511450">
        <ele>644.9</ele>
        <time>2018-12-30T12:03:35Z</time>
      </trkpt>
      <trkpt lat="39.8242360" lon="2.8510920">
        <ele>645.4</ele>
        <time>2018-12-30T12:03:36Z</time>
      </trkpt>
      <trkpt lat="39.8242840" lon="2.8510410">
        <ele>645.9</ele>
        <time>2018-12-30T12:03:37Z</time>
      </trkpt>
      <trkpt lat="39.8243300" lon="2.8509930">
        <ele>646.4</ele>
        <time>2018-12-30T12:03:38Z</time>
      </trkpt>
      <trkpt lat="39.8243730" lon="2.8509460">
        <ele>646.9</ele>
        <time>2018-12-30T12:03:39Z</time>
      </trkpt>
      <trkpt lat="39.8244170" lon="2.8509010">
        <ele>647.4</ele>
        <time>2018-12-30T12:03:40Z</time>
      </trkpt>
      <trkpt lat="39.8244600" lon="2.8508600">
        <ele>647.8</ele>
        <time>2018-12-30T12:03:41Z</time>
      </trkpt>
      <trkpt lat="39.8245030" lon="2.8508200">
        <ele>648.2</ele>
        <time>2018-12-30T12:03:42Z</time>
      </trkpt>
      <trkpt lat="39.8245420" lon="2.8507730">
        <ele>648.6</ele>
        <time>2018-12-30T12:03:43Z</time>
      </trkpt>
      <trkpt lat="39.8245800" lon="2.8507240">
        <ele>649.0</ele>
        <time>2018-12-30T12:03:44Z</time>
      </trkpt>
      <trkpt lat="39.8246170" lon="2.8506730">
        <ele>649.3</ele>
        <time>2018-12-30T12:03:45Z</time>
      </trkpt>
      <trkpt lat="39.8246530" lon="2.8506260">
        <ele>649.6</ele>
        <time>2018-12-30T12:03:46Z</time>
      </trkpt>
      <trkpt lat="39.8246870" lon="2.8505780">
        <ele>649.9</ele>
        <time>2018-12-30T12:03:47Z</time>
      </trkpt>
      <trkpt lat="39.8247250" lon="2.8505330">
        <ele>650.1</ele>
        <time>2018-12-30T12:03:48Z</time>
      </trkpt>
      <trkpt lat="39.8247630" lon="2.8504870">
        <ele>650.2</ele>
        <time>2018-12-30T12:03:49Z</time>
      </trkpt>
      <trkpt lat="39.8248040" lon="2.8504430">
        <ele>650.3</ele>
        <time>2018-12-30T12:03:50Z</time>
      </trkpt>
      <trkpt lat="39.8248380" lon="2.8503920">
        <ele>650.3</ele>
        <time>2018-12-30T12:03:51Z</time>
      </trkpt>
      <trkpt lat="39.8248690" lon="2.8503380">
        <ele>650.2</ele>
        <time>2018-12-30T12:03:52Z</time>
      </trkpt>
      <trkpt lat="39.8248970" lon="2.8502820">
        <ele>650.1</ele>
        <time>2018-12-30T12:03:53Z</time>
      </trkpt>
      <trkpt lat="39.8249240" lon="2.8502280">
        <ele>649.9</ele>
        <time>2018-12-30T12:03:54Z</time>
      </trkpt>
      <trkpt lat="39.8249450" lon="2.8501660">
        <ele>649.6</ele>
        <time>2018-12-30T12:03:55Z</time>
      </trkpt>
      <trkpt lat="39.8249650" lon="2.8501000">
        <ele>649.3</ele>
        <time>2018-12-30T12:03:56Z</time>
      </trkpt>
      <trkpt lat="39.8249870" lon="2.8500290">
        <ele>648.9</ele>
        <time>2018-12-30T12:03:57Z</time>
      </trkpt>
      <trkpt lat="39.8250140" lon="2.8499550">
        <ele>648.6</ele>
        <time>2018-12-30T12:03:58Z</time>
      </trkpt>
      <trkpt lat="39.8250320" lon="2.8498640">
        <ele>648.4</ele>
        <time>2018-12-30T12:03:59Z</time>
      </trkpt>
      <trkpt lat="39.8250470" lon="2.8497620">
        <ele>648.2</ele>
        <time>2018-12-30T12:04:00Z</time>
      </trkpt>
      <trkpt lat="39.8250600" lon="2.8496530">
        <ele>648.2</ele>
        <time>2018-12-30T12:04:01Z</time>
      </trkpt>
      <trkpt lat="39.8250790" lon="2.8495540">
        <ele>648.4</ele>
        <time>2018-12-30T12:04:02Z</time>
      </trkpt>
      <trkpt lat="39.8251000" lon="2.8494560">
        <ele>648.6</ele>
        <time>2018-12-30T12:04:03Z</time>
      </trkpt>
      <trkpt lat="39.8251230" lon="2.8493590">
        <ele>648.3</ele>
        <time>2018-12-30T12:04:04Z</time>
      </trkpt>
      <trkpt lat="39.8251510" lon="2.8492650">
        <ele>647.8</ele>
        <time>2018-12-30T12:04:05Z</time>
      </trkpt>
      <trkpt lat="39.8251800" lon="2.8491710">
        <ele>647.3</ele>
        <time>2018-12-30T12:04:06Z</time>
      </trkpt>
      <trkpt lat="39.8252120" lon="2.8490810">
        <ele>646.7</ele>
        <time>2018-12-30T12:04:07Z</time>
      </trkpt>
      <trkpt lat="39.8252420" lon="2.8489890">
        <ele>646.1</ele>
        <time>2018-12-30T12:04:08Z</time>
      </trkpt>
      <trkpt lat="39.8252740" lon="2.8488990">
        <ele>645.6</ele>
        <time>2018-12-30T12:04:09Z</time>
      </trkpt>
      <trkpt lat="39.8253090" lon="2.8488090">
        <ele>645.0</ele>
        <time>2018-12-30T12:04:10Z</time>
      </trkpt>
      <trkpt lat="39.8253440" lon="2.8487180">
        <ele>644.5</ele>
        <time>2018-12-30T12:04:11Z</time>
      </trkpt>
      <trkpt lat="39.8253800" lon="2.8486280">
        <ele>644.0</ele>
        <time>2018-12-30T12:04:12Z</time>
      </trkpt>
      <trkpt lat="39.8254170" lon="2.8485410">
        <ele>643.5</ele>
        <time>2018-12-30T12:04:13Z</time>
      </trkpt>
      <trkpt lat="39.8254540" lon="2.8484550">
        <ele>642.9</ele>
        <time>2018-12-30T12:04:14Z</time>
      </trkpt>
      <trkpt lat="39.8254900" lon="2.8483680">
        <ele>642.3</ele>
        <time>2018-12-30T12:04:15Z</time>
      </trkpt>
      <trkpt lat="39.8255240" lon="2.8482790">
        <ele>641.7</ele>
        <time>2018-12-30T12:04:16Z</time>
      </trkpt>
      <trkpt lat="39.8255590" lon="2.8481900">
        <ele>641.1</ele>
        <time>2018-12-30T12:04:17Z</time>
      </trkpt>
      <trkpt lat="39.8255960" lon="2.8481030">
        <ele>640.6</ele>
        <time>2018-12-30T12:04:18Z</time>
      </trkpt>
      <trkpt lat="39.8256450" lon="2.8480380">
        <ele>640.1</ele>
        <time>2018-12-30T12:04:19Z</time>
      </trkpt>
      <trkpt lat="39.8257030" lon="2.8479850">
        <ele>639.7</ele>
        <time>2018-12-30T12:04:20Z</time>
      </trkpt>
      <trkpt lat="39.8257660" lon="2.8479450">
        <ele>639.2</ele>
        <time>2018-12-30T12:04:21Z</time>
      </trkpt>
      <trkpt lat="39.8258260" lon="2.8478970">
        <ele>638.8</ele>
        <time>2018-12-30T12:04:22Z</time>
      </trkpt>
      <trkpt lat="39.8258850" lon="2.8478490">
        <ele>638.3</ele>
        <time>2018-12-30T12:04:23Z</time>
      </trkpt>
      <trkpt lat="39.8259430" lon="2.8477950">
        <ele>637.9</ele>
        <time>2018-12-30T12:04:24Z</time>
      </trkpt>
      <trkpt lat="39.8259990" lon="2.8477330">
        <ele>637.3</ele>
        <time>2018-12-30T12:04:25Z</time>
      </trkpt>
      <trkpt lat="39.8260470" lon="2.8476650">
        <ele>636.8</ele>
        <time>2018-12-30T12:04:26Z</time>
      </trkpt>
      <trkpt lat="39.8260910" lon="2.8475910">
        <ele>636.1</ele>
        <time>2018-12-30T12:04:27Z</time>
      </trkpt>
      <trkpt lat="39.8261270" lon="2.8475080">
        <ele>635.3</ele>
        <time>2018-12-30T12:04:28Z</time>
      </trkpt>
      <trkpt lat="39.8261550" lon="2.8474200">
        <ele>634.4</ele>
        <time>2018-12-30T12:04:29Z</time>
      </trkpt>
      <trkpt lat="39.8261740" lon="2.8473240">
        <ele>633.2</ele>
        <time>2018-12-30T12:04:30Z</time>
      </trkpt>
      <trkpt lat="39.8261840" lon="2.8472250">
        <ele>631.6</ele>
        <time>2018-12-30T12:04:31Z</time>
      </trkpt>
      <trkpt lat="39.8261850" lon="2.8471180">
        <ele>629.7</ele>
        <time>2018-12-30T12:04:32Z</time>
      </trkpt>
      <trkpt lat="39.8261780" lon="2.8470060">
        <ele>627.3</ele>
        <time>2018-12-30T12:04:33Z</time>
      </trkpt>
      <trkpt lat="39.8261670" lon="2.8468890">
        <ele>626.3</ele>
        <time>2018-12-30T12:04:34Z</time>
      </trkpt>
      <trkpt lat="39.8261550" lon="2.8467660">
        <ele>625.6</ele>
        <time>2018-12-30T12:04:35Z</time>
      </trkpt>
      <trkpt lat="39.8261440" lon="2.8466350">
        <ele>624.8</ele>
        <time>2018-12-30T12:04:36Z</time>
      </trkpt>
      <trkpt lat="39.8261320" lon="2.8464940">
        <ele>623.9</ele>
        <time>2018-12-30T12:04:37Z</time>
      </trkpt>
      <trkpt lat="39.8261220" lon="2.8463500">
        <ele>623.0</ele>
        <time>2018-12-30T12:04:38Z</time>
      </trkpt>
      <trkpt lat="39.8261190" lon="2.8462080">
        <ele>622.1</ele>
        <time>2018-12-30T12:04:39Z</time>
      </trkpt>
      <trkpt lat="39.8261240" lon="2.8460720">
        <ele>621.2</ele>
        <time>2018-12-30T12:04:40Z</time>
      </trkpt>
      <trkpt lat="39.8261330" lon="2.8459420">
        <ele>620.4</ele>
        <time>2018-12-30T12:04:41Z</time>
      </trkpt>
      <trkpt lat="39.8261410" lon="2.8458180">
        <ele>619.6</ele>
        <time>2018-12-30T12:04:42Z</time>
      </trkpt>
      <trkpt lat="39.8261510" lon="2.8457010">
        <ele>618.9</ele>
        <time>2018-12-30T12:04:43Z</time>
      </trkpt>
      <trkpt lat="39.8261650" lon="2.8455890">
        <ele>618.3</ele>
        <time>2018-12-30T12:04:44Z</time>
      </trkpt>
      <trkpt lat="39.8261850" lon="2.8454840">
        <ele>617.7</ele>
        <time>2018-12-30T12:04:45Z</time>
      </trkpt>
      <trkpt lat="39.8262070" lon="2.8453860">
        <ele>617.3</ele>
        <time>2018-12-30T12:04:46Z</time>
      </trkpt>
      <trkpt lat="39.8262290" lon="2.8452940">
        <ele>616.9</ele>
        <time>2018-12-30T12:04:47Z</time>
      </trkpt>
      <trkpt lat="39.8262510" lon="2.8452030">
        <ele>616.5</ele>
        <time>2018-12-30T12:04:48Z</time>
      </trkpt>
      <trkpt lat="39.8262690" lon="2.8451100">
        <ele>616.2</ele>
        <time>2018-12-30T12:04:49Z</time>
      </trkpt>
      <trkpt lat="39.8262860" lon="2.8450210">
        <ele>616.0</ele>
        <time>2018-12-30T12:04:50Z</time>
      </trkpt>
      <trkpt lat="39.8263020" lon="2.8449330">
        <ele>615.7</ele>
        <time>2018-12-30T12:04:51Z</time>
      </trkpt>
      <trkpt lat="39.8263240" lon="2.8448530">
        <ele>615.6</ele>
        <time>2018-12-30T12:04:52Z</time>
      </trkpt>
      <trkpt lat="39.8263450" lon="2.8447720">
        <ele>615.4</ele>
        <time>2018-12-30T12:04:53Z</time>
      </trkpt>
      <trkpt lat="39.8263650" lon="2.8446930">
        <ele>615.3</ele>
        <time>2018-12-30T12:04:54Z</time>
      </trkpt>
      <trkpt lat="39.8263790" lon="2.8446050">
        <ele>615.1</ele>
        <time>2018-12-30T12:04:55Z</time>
      </trkpt>
      <trkpt lat="39.8263950" lon="2.8445200">
        <ele>615.0</ele>
        <time>2018-12-30T12:04:56Z</time>
      </trkpt>
      <trkpt lat="39.8264110" lon="2.8444360">
        <ele>614.9</ele>
        <time>2018-12-30T12:04:57Z</time>
      </trkpt>
      <trkpt lat="39.8264320" lon="2.8443620">
        <ele>614.8</ele>
        <time>2018-12-30T12:04:58Z</time>
      </trkpt>
      <trkpt lat="39.8264500" lon="2.8442820">
        <ele>614.8</ele>
        <time>2018-12-30T12:04:59Z</time>
      </trkpt>
      <trkpt lat="39.8264670" lon="2.8442030">
        <ele>614.7</ele>
        <time>2018-12-30T12:05:00Z</time>
      </trkpt>
      <trkpt lat="39.8264800" lon="2.8441190">
        <ele>614.6</ele>
        <time>2018-12-30T12:05:01Z</time>
      </trkpt>
      <trkpt lat="39.8264920" lon="2.8440340">
        <ele>614.5</ele>
        <time>2018-12-30T12:05:02Z</time>
      </trkpt>
      <trkpt lat="39.8265040" lon="2.8439460">
        <ele>614.4</ele>
        <time>2018-12-30T12:05:03Z</time>
      </trkpt>
      <trkpt lat="39.8265110" lon="2.8438540">
        <ele>614.2</ele>
        <time>2018-12-30T12:05:04Z</time>
      </trkpt>
      <trkpt lat="39.8265190" lon="2.8437690">
        <ele>614.1</ele>
        <time>2018-12-30T12:05:05Z</time>
      </trkpt>
      <trkpt lat="39.8265260" lon="2.8436850">
        <ele>613.9</ele>
        <time>2018-12-30T12:05:06Z</time>
      </trkpt>
      <trkpt lat="39.8265360" lon="2.8436030">
        <ele>613.7</ele>
        <time>2018-12-30T12:05:07Z</time>
      </trkpt>
      <trkpt lat="39.8265420" lon="2.8435120">
        <ele>613.5</ele>
        <time>2018-12-30T12:05:08Z</time>
      </trkpt>
      <trkpt lat="39.8265470" lon="2.8434210">
        <ele>613.3</ele>
        <time>2018-12-30T12:05:09Z</time>
      </trkpt>
      <trkpt lat="39.8265510" lon="2.8433280">
        <ele>613.1</ele>
        <time>2018-12-30T12:05:10Z</time>
      </trkpt>
      <trkpt lat="39.8265590" lon="2.8432400">
        <ele>612.8</ele>
        <time>2018-12-30T12:05:11Z</time>
      </trkpt>
      <trkpt lat="39.8265650" lon="2.8431530">
        <ele>612.6</ele>
        <time>2018-12-30T12:05:12Z</time>
      </trkpt>
      <trkpt lat="39.8265720" lon="2.8430660">
        <ele>612.3</ele>
        <time>2018-12-30T12:05:13Z</time>
      </trkpt>
      <trkpt lat="39.8265780" lon="2.8429770">
        <ele>612.0</ele>
        <time>2018-12-30T12:05:14Z</time>
      </trkpt>
      <trkpt lat="39.8265800" lon="2.8428840">
        <ele>611.7</ele>
        <time>2018-12-30T12:05:15Z</time>
      </trkpt>
      <trkpt lat="39.8265880" lon="2.8427890">
        <ele>611.4</ele>
        <time>2018-12-30T12:05:16Z</time>
      </trkpt>
      <trkpt lat="39.8265970" lon="2.8426910">
        <ele>611.0</ele>
        <time>2018-12-30T12:05:17Z</time>
      </trkpt>
      <trkpt lat="39.8266090" lon="2.8425870">
        <ele>610.7</ele>
        <time>2018-12-30T12:05:18Z</time>
      </trkpt>
      <trkpt lat="39.8266150" lon="2.8424770">
        <ele>610.3</ele>
        <time>2018-12-30T12:05:19Z</time>
      </trkpt>
      <trkpt lat="39.8266170" lon="2.8423670">
        <ele>609.9</ele>
        <time>2018-12-30T12:05:20Z</time>
      </trkpt>
      <trkpt lat="39.8266120" lon="2.8422590">
        <ele>609.5</ele>
        <time>2018-12-30T12:05:21Z</time>
      </trkpt>
      <trkpt lat="39.8265960" lon="2.8421460">
        <ele>609.1</ele>
        <time>2018-12-30T12:05:22Z</time>
      </trkpt>
      <trkpt lat="39.8265710" lon="2.8420320">
        <ele>608.7</ele>
        <time>2018-12-30T12:05:23Z</time>
      </trkpt>
      <trkpt lat="39.8265400" lon="2.8419080">
        <ele>608.2</ele>
        <time>2018-12-30T12:05:24Z</time>
      </trkpt>
      <trkpt lat="39.8265060" lon="2.8417820">
        <ele>607.7</ele>
        <time>2018-12-30T12:05:25Z</time>
      </trkpt>
      <trkpt lat="39.8264690" lon="2.8416580">
        <ele>607.1</ele>
        <time>2018-12-30T12:05:26Z</time>
      </trkpt>
      <trkpt lat="39.8264260" lon="2.8415600">
        <ele>606.6</ele>
        <time>2018-12-30T12:05:27Z</time>
      </trkpt>
      <trkpt lat="39.8263750" lon="2.8414990">
        <ele>606.2</ele>
        <time>2018-12-30T12:05:28Z</time>
      </trkpt>
      <trkpt lat="39.8263190" lon="2.8414790">
        <ele>605.9</ele>
        <time>2018-12-30T12:05:29Z</time>
      </trkpt>
      <trkpt lat="39.8262580" lon="2.8414800">
        <ele>605.5</ele>
        <time>2018-12-30T12:05:30Z</time>
      </trkpt>
      <trkpt lat="39.8261960" lon="2.8414910">
        <ele>605.2</ele>
        <time>2018-12-30T12:05:31Z</time>
      </trkpt>
      <trkpt lat="39.8261350" lon="2.8415070">
        <ele>604.8</ele>
        <time>2018-12-30T12:05:32Z</time>
      </trkpt>
      <trkpt lat="39.8260800" lon="2.8415310">
        <ele>604.4</ele>
        <time>2018-12-30T12:05:33Z</time>
      </trkpt>
      <trkpt lat="39.8260240" lon="2.8415490">
        <ele>604.0</ele>
        <time>2018-12-30T12:05:34Z</time>
      </trkpt>
      <trkpt lat="39.8259690" lon="2.8415410">
        <ele>603.7</ele>
        <time>2018-12-30T12:05:35Z</time>
      </trkpt>
      <trkpt lat="39.8259210" lon="2.8415010">
        <ele>603.3</ele>
        <time>2018-12-30T12:05:36Z</time>
      </trkpt>
      <trkpt lat="39.8258820" lon="2.8414440">
        <ele>603.0</ele>
        <time>2018-12-30T12:05:37Z</time>
      </trkpt>
      <trkpt lat="39.8258670" lon="2.8413690">
        <ele>602.6</ele>
        <time>2018-12-30T12:05:38Z</time>
      </trkpt>
      <trkpt lat="39.8258510" lon="2.8412860">
        <ele>602.3</ele>
        <time>2018-12-30T12:05:39Z</time>
      </trkpt>
      <trkpt lat="39.8258470" lon="2.8411860">
        <ele>601.8</ele>
        <time>2018-12-30T12:05:40Z</time>
      </trkpt>
      <trkpt lat="39.8258320" lon="2.8410880">
        <ele>601.3</ele>
        <time>2018-12-30T12:05:41Z</time>
      </trkpt>
      <trkpt lat="39.8258250" lon="2.8409870">
        <ele>600.8</ele>
        <time>2018-12-30T12:05:42Z</time>
      </trkpt>
      <trkpt lat="39.8258140" lon="2.8408910">
        <ele>600.3</ele>
        <time>2018-12-30T12:05:43Z</time>
      </trkpt>
      <trkpt lat="39.8258040" lon="2.8407920">
        <ele>599.9</ele>
        <time>2018-12-30T12:05:44Z</time>
      </trkpt>
      <trkpt lat="39.8257960" lon="2.8406900">
        <ele>599.4</ele>
        <time>2018-12-30T12:05:45Z</time>
      </trkpt>
      <trkpt lat="39.8257880" lon="2.8405870">
        <ele>598.9</ele>
        <time>2018-12-30T12:05:46Z</time>
      </trkpt>
      <trkpt lat="39.8257910" lon="2.8404820">
        <ele>598.4</ele>
        <time>2018-12-30T12:05:47Z</time>
      </trkpt>
      <trkpt lat="39.8257950" lon="2.8403750">
        <ele>597.8</ele>
        <time>2018-12-30T12:05:48Z</time>
      </trkpt>
      <trkpt lat="39.8258010" lon="2.8402680">
        <ele>597.2</ele>
        <time>2018-12-30T12:05:49Z</time>
      </trkpt>
      <trkpt lat="39.8258010" lon="2.8401630">
        <ele>596.6</ele>
        <time>2018-12-30T12:05:50Z</time>
      </trkpt>
      <trkpt lat="39.8258030" lon="2.8400520">
        <ele>595.9</ele>
        <time>2018-12-30T12:05:51Z</time>
      </trkpt>
      <trkpt lat="39.8258200" lon="2.8399290">
        <ele>595.1</ele>
        <time>2018-12-30T12:05:52Z</time>
      </trkpt>
      <trkpt lat="39.8258490" lon="2.8397920">
        <ele>594.1</ele>
        <time>2018-12-30T12:05:53Z</time>
      </trkpt>
      <trkpt lat="39.8259170" lon="2.8396520">
        <ele>592.9</ele>
        <time>2018-12-30T12:05:54Z</time>
      </trkpt>
      <trkpt lat="39.8259990" lon="2.8395230">
        <ele>591.7</ele>
        <time>2018-12-30T12:05:55Z</time>
      </trkpt>
      <trkpt lat="39.8260920" lon="2.8394170">
        <ele>590.6</ele>
        <time>2018-12-30T12:05:56Z</time>
      </trkpt>
      <trkpt lat="39.8261740" lon="2.8393320">
        <ele>589.6</ele>
        <time>2018-12-30T12:05:57Z</time>
      </trkpt>
      <trkpt lat="39.8262560" lon="2.8392700">
        <ele>588.7</ele>
        <time>2018-12-30T12:05:58Z</time>
      </trkpt>
      <trkpt lat="39.8263430" lon="2.8392240">
        <ele>587.8</ele>
        <time>2018-12-30T12:05:59Z</time>
      </trkpt>
      <trkpt lat="39.8264330" lon="2.8391870">
        <ele>586.9</ele>
        <time>2018-12-30T12:06:00Z</time>
      </trkpt>
      <trkpt lat="39.8265250" lon="2.8391510">
        <ele>586.0</ele>
        <time>2018-12-30T12:06:01Z</time>
      </trkpt>
      <trkpt lat="39.8266180" lon="2.8391080">
        <ele>585.2</ele>
        <time>2018-12-30T12:06:02Z</time>
      </trkpt>
      <trkpt lat="39.8267120" lon="2.8390620">
        <ele>584.3</ele>
        <time>2018-12-30T12:06:03Z</time>
      </trkpt>
      <trkpt lat="39.8268060" lon="2.8390190">
        <ele>583.3</ele>
        <time>2018-12-30T12:06:04Z</time>
      </trkpt>
      <trkpt lat="39.8269000" lon="2.8389840">
        <ele>582.4</ele>
        <time>2018-12-30T12:06:05Z</time>
      </trkpt>
      <trkpt lat="39.8269940" lon="2.8389510">
        <ele>581.6</ele>
        <time>2018-12-30T12:06:06Z</time>
      </trkpt>
      <trkpt lat="39.8270870" lon="2.8389150">
        <ele>580.7</ele>
        <time>2018-12-30T12:06:07Z</time>
      </trkpt>
      <trkpt lat="39.8271790" lon="2.8388720">
        <ele>579.9</ele>
        <time>2018-12-30T12:06:08Z</time>
      </trkpt>
      <trkpt lat="39.8272700" lon="2.8388190">
        <ele>579.1</ele>
        <time>2018-12-30T12:06:09Z</time>
      </trkpt>
      <trkpt lat="39.8273610" lon="2.8387600">
        <ele>578.2</ele>
        <time>2018-12-30T12:06:10Z</time>
      </trkpt>
      <trkpt lat="39.8274540" lon="2.8386960">
        <ele>577.3</ele>
        <time>2018-12-30T12:06:11Z</time>
      </trkpt>
      <trkpt lat="39.8275470" lon="2.8386300">
        <ele>576.5</ele>
        <time>2018-12-30T12:06:12Z</time>
      </trkpt>
      <trkpt lat="39.8276420" lon="2.8385620">
        <ele>575.7</ele>
        <time>2018-12-30T12:06:13Z</time>
      </trkpt>
      <trkpt lat="39.8277380" lon="2.8384950">
        <ele>575.0</ele>
        <time>2018-12-30T12:06:14Z</time>
      </trkpt>
      <trkpt lat="39.8278350" lon="2.8384310">
        <ele>574.3</ele>
        <time>2018-12-30T12:06:15Z</time>
      </trkpt>
      <trkpt lat="39.8279320" lon="2.8383710">
        <ele>573.6</ele>
        <time>2018-12-30T12:06:16Z</time>
      </trkpt>
      <trkpt lat="39.8280290" lon="2.8383150">
        <ele>572.9</ele>
        <time>2018-12-30T12:06:17Z</time>
      </trkpt>
      <trkpt lat="39.8281220" lon="2.8382680">
        <ele>572.4</ele>
        <time>2018-12-30T12:06:18Z</time>
      </trkpt>
      <trkpt lat="39.8282100" lon="2.8382280">
        <ele>571.9</ele>
        <time>2018-12-30T12:06:19Z</time>
      </trkpt>
      <trkpt lat="39.8282930" lon="2.8381890">
        <ele>571.4</ele>
        <time>2018-12-30T12:06:20Z</time>
      </trkpt>
      <trkpt lat="39.8283720" lon="2.8381460">
        <ele>570.9</ele>
        <time>2018-12-30T12:06:21Z</time>
      </trkpt>
      <trkpt lat="39.8284320" lon="2.8380790">
        <ele>570.5</ele>
        <time>2018-12-30T12:06:22Z</time>
      </trkpt>
      <trkpt lat="39.8284760" lon="2.8380020">
        <ele>570.2</ele>
        <time>2018-12-30T12:06:23Z</time>
      </trkpt>
      <trkpt lat="39.8285040" lon="2.8379140">
        <ele>569.8</ele>
        <time>2018-12-30T12:06:24Z</time>
      </trkpt>
      <trkpt lat="39.8285330" lon="2.8378400">
        <ele>569.6</ele>
        <time>2018-12-30T12:06:25Z</time>
      </trkpt>
      <trkpt lat="39.8285600" lon="2.8377660">
        <ele>569.3</ele>
        <time>2018-12-30T12:06:26Z</time>
      </trkpt>
      <trkpt lat="39.8285850" lon="2.8376910">
        <ele>569.0</ele>
        <time>2018-12-30T12:06:27Z</time>
      </trkpt>
      <trkpt lat="39.8286060" lon="2.8376150">
        <ele>568.9</ele>
        <time>2018-12-30T12:06:28Z</time>
      </trkpt>
      <trkpt lat="39.8286250" lon="2.8375360">
        <ele>568.7</ele>
        <time>2018-12-30T12:06:29Z</time>
      </trkpt>
      <trkpt lat="39.8286390" lon="2.8374560">
        <ele>568.5</ele>
        <time>2018-12-30T12:06:30Z</time>
      </trkpt>
      <trkpt lat="39.8286490" lon="2.8373720">
        <ele>568.3</ele>
        <time>2018-12-30T12:06:31Z</time>
      </trkpt>
      <trkpt lat="39.8286530" lon="2.8372870">
        <ele>568.2</ele>
        <time>2018-12-30T12:06:32Z</time>
      </trkpt>
      <trkpt lat="39.8286500" lon="2.8371970">
        <ele>568.0</ele>
        <time>2018-12-30T12:06:33Z</time>
      </trkpt>
      <trkpt lat="39.8286360" lon="2.8371040">
        <ele>567.9</ele>
        <time>2018-12-30T12:06:34Z</time>
      </trkpt>
      <trkpt lat="39.8286080" lon="2.8370080">
        <ele>568.9</ele>
        <time>2018-12-30T12:06:35Z</time>
      </trkpt>
      <trkpt lat="39.8285660" lon="2.8369110">
        <ele>569.6</ele>
        <time>2018-12-30T12:06:36Z</time>
      </trkpt>
      <trkpt lat="39.8285160" lon="2.8368180">
        <ele>570.3</ele>
        <time>2018-12-30T12:06:37Z</time>
      </trkpt>
      <trkpt lat="39.8284620" lon="2.8367220">
        <ele>571.1</ele>
        <time>2018-12-30T12:06:38Z</time>
      </trkpt>
      <trkpt lat="39.8284070" lon="2.8366230">
        <ele>572.0</ele>
        <time>2018-12-30T12:06:39Z</time>
      </trkpt>
      <trkpt lat="39.8283520" lon="2.8365180">
        <ele>572.9</ele>
        <time>2018-12-30T12:06:40Z</time>
      </trkpt>
      <trkpt lat="39.8282990" lon="2.8364110">
        <ele>573.7</ele>
        <time>2018-12-30T12:06:41Z</time>
      </trkpt>
      <trkpt lat="39.8282500" lon="2.8362980">
        <ele>574.9</ele>
        <time>2018-12-30T12:06:42Z</time>
      </trkpt>
      <trkpt lat="39.8282050" lon="2.8361780">
        <ele>576.0</ele>
        <time>2018-12-30T12:06:43Z</time>
      </trkpt>
      <trkpt lat="39.8281740" lon="2.8360440">
        <ele>577.1</ele>
        <time>2018-12-30T12:06:44Z</time>
      </trkpt>
      <trkpt lat="39.8281510" lon="2.8359060">
        <ele>578.3</ele>
        <time>2018-12-30T12:06:45Z</time>
      </trkpt>
      <trkpt lat="39.8281510" lon="2.8357630">
        <ele>579.1</ele>
        <time>2018-12-30T12:06:46Z</time>
      </trkpt>
      <trkpt lat="39.8281490" lon="2.8356260">
        <ele>580.1</ele>
        <time>2018-12-30T12:06:47Z</time>
      </trkpt>
      <trkpt lat="39.8281540" lon="2.8354860">
        <ele>581.1</ele>
        <time>2018-12-30T12:06:48Z</time>
      </trkpt>
      <trkpt lat="39.8281550" lon="2.8353510">
        <ele>582.0</ele>
        <time>2018-12-30T12:06:49Z</time>
      </trkpt>
      <trkpt lat="39.8281680" lon="2.8352140">
        <ele>582.9</ele>
        <time>2018-12-30T12:06:50Z</time>
      </trkpt>
      <trkpt lat="39.8281830" lon="2.8350780">
        <ele>584.0</ele>
        <time>2018-12-30T12:06:51Z</time>
      </trkpt>
      <trkpt lat="39.8282050" lon="2.8349430">
        <ele>584.9</ele>
        <time>2018-12-30T12:06:52Z</time>
      </trkpt>
      <trkpt lat="39.8282290" lon="2.8348100">
        <ele>585.9</ele>
        <time>2018-12-30T12:06:53Z</time>
      </trkpt>
      <trkpt lat="39.8282590" lon="2.8346850">
        <ele>587.1</ele>
        <time>2018-12-30T12:06:54Z</time>
      </trkpt>
      <trkpt lat="39.8282900" lon="2.8345670">
        <ele>587.9</ele>
        <time>2018-12-30T12:06:55Z</time>
      </trkpt>
      <trkpt lat="39.8283210" lon="2.8344530">
        <ele>588.5</ele>
        <time>2018-12-30T12:06:56Z</time>
      </trkpt>
      <trkpt lat="39.8283450" lon="2.8343330">
        <ele>589.1</ele>
        <time>2018-12-30T12:06:57Z</time>
      </trkpt>
      <trkpt lat="39.8283450" lon="2.8342030">
        <ele>589.7</ele>
        <time>2018-12-30T12:06:58Z</time>
      </trkpt>
      <trkpt lat="39.8283280" lon="2.8340690">
        <ele>590.3</ele>
        <time>2018-12-30T12:06:59Z</time>
      </trkpt>
      <trkpt lat="39.8283020" lon="2.8339350">
        <ele>590.9</ele>
        <time>2018-12-30T12:07:00Z</time>
      </trkpt>
      <trkpt lat="39.8282730" lon="2.8338040">
        <ele>591.4</ele>
        <time>2018-12-30T12:07:01Z</time>
      </trkpt>
      <trkpt lat="39.8282370" lon="2.8336650">
        <ele>592.0</ele>
        <time>2018-12-30T12:07:02Z</time>
      </trkpt>
      <trkpt lat="39.8281910" lon="2.8335260">
        <ele>592.7</ele>
        <time>2018-12-30T12:07:03Z</time>
      </trkpt>
      <trkpt lat="39.8281430" lon="2.8333910">
        <ele>593.3</ele>
        <time>2018-12-30T12:07:04Z</time>
      </trkpt>
      <trkpt lat="39.8280950" lon="2.8332630">
        <ele>593.9</ele>
        <time>2018-12-30T12:07:05Z</time>
      </trkpt>
      <trkpt lat="39.8280450" lon="2.8331370">
        <ele>594.6</ele>
        <time>2018-12-30T12:07:06Z</time>
      </trkpt>
      <trkpt lat="39.8279940" lon="2.8330100">
        <ele>595.3</ele>
        <time>2018-12-30T12:07:07Z</time>
      </trkpt>
      <trkpt lat="39.8279500" lon="2.8328830">
        <ele>596.0</ele>
        <time>2018-12-30T12:07:08Z</time>
      </trkpt>
      <trkpt lat="39.8279110" lon="2.8327510">
        <ele>593.9</ele>
        <time>2018-12-30T12:07:09Z</time>
      </trkpt>
      <trkpt lat="39.8278820" lon="2.8326120">
        <ele>591.9</ele>
        <time>2018-12-30T12:07:10Z</time>
      </trkpt>
      <trkpt lat="39.8278570" lon="2.8324610">
        <ele>590.0</ele>
        <time>2018-12-30T12:07:11Z</time>
      </trkpt>
      <trkpt lat="39.8278390" lon="2.8323060">
        <ele>588.3</ele>
        <time>2018-12-30T12:07:12Z</time>
      </trkpt>
      <trkpt lat="39.8278230" lon="2.8321510">
        <ele>586.5</ele>
        <time>2018-12-30T12:07:13Z</time>
      </trkpt>
      <trkpt lat="39.8278090" lon="2.8320030">
        <ele>584.8</ele>
        <time>2018-12-30T12:07:14Z</time>
      </trkpt>
      <trkpt lat="39.8277940" lon="2.8318630">
        <ele>583.3</ele>
        <time>2018-12-30T12:07:15Z</time>
      </trkpt>
      <trkpt lat="39.8277760" lon="2.8317280">
        <ele>581.7</ele>
        <time>2018-12-30T12:07:16Z</time>
      </trkpt>
      <trkpt lat="39.8277420" lon="2.8316020">
        <ele>580.0</ele>
        <time>2018-12-30T12:07:17Z</time>
      </trkpt>
      <trkpt lat="39.8276940" lon="2.8314870">
        <ele>578.5</ele>
        <time>2018-12-30T12:07:18Z</time>
      </trkpt>
      <trkpt lat="39.8276360" lon="2.8313780">
        <ele>577.0</ele>
        <time>2018-12-30T12:07:19Z</time>
      </trkpt>
      <trkpt lat="39.8275790" lon="2.8312700">
        <ele>575.5</ele>
        <time>2018-12-30T12:07:20Z</time>
      </trkpt>
      <trkpt lat="39.8275220" lon="2.8311630">
        <ele>574.0</ele>
        <time>2018-12-30T12:07:21Z</time>
      </trkpt>
      <trkpt lat="39.8274640" lon="2.8310580">
        <ele>572.6</ele>
        <time>2018-12-30T12:07:22Z</time>
      </trkpt>
      <trkpt lat="39.8273970" lon="2.8309610">
        <ele>571.1</ele>
        <time>2018-12-30T12:07:23Z</time>
      </trkpt>
      <trkpt lat="39.8273250" lon="2.8308700">
        <ele>569.6</ele>
        <time>2018-12-30T12:07:24Z</time>
      </trkpt>
      <trkpt lat="39.8272540" lon="2.8307860">
        <ele>568.2</ele>
        <time>2018-12-30T12:07:25Z</time>
      </trkpt>
      <trkpt lat="39.8271880" lon="2.8307040">
        <ele>566.9</ele>
        <time>2018-12-30T12:07:26Z</time>
      </trkpt>
      <trkpt lat="39.8271250" lon="2.8306240">
        <ele>565.1</ele>
        <time>2018-12-30T12:07:27Z</time>
      </trkpt>
      <trkpt lat="39.8270620" lon="2.8305460">
        <ele>565.0</ele>
        <time>2018-12-30T12:07:28Z</time>
      </trkpt>
      <trkpt lat="39.8269990" lon="2.8304720">
        <ele>565.0</ele>
        <time>2018-12-30T12:07:29Z</time>
      </trkpt>
      <trkpt lat="39.8269410" lon="2.8304020">
        <ele>564.9</ele>
        <time>2018-12-30T12:07:30Z</time>
      </trkpt>
      <trkpt lat="39.8268870" lon="2.8303330">
        <ele>564.9</ele>
        <time>2018-12-30T12:07:31Z</time>
      </trkpt>
      <trkpt lat="39.8268390" lon="2.8302660">
        <ele>564.9</ele>
        <time>2018-12-30T12:07:32Z</time>
      </trkpt>
      <trkpt lat="39.8267900" lon="2.8302000">
        <ele>564.9</ele>
        <time>2018-12-30T12:07:33Z</time>
      </trkpt>
      <trkpt lat="39.8267410" lon="2.8301330">
        <ele>564.8</ele>
        <time>2018-12-30T12:07:34Z</time>
      </trkpt>
      <trkpt lat="39.8266880" lon="2.8300680">
        <ele>564.8</ele>
        <time>2018-12-30T12:07:35Z</time>
      </trkpt>
      <trkpt lat="39.8266310" lon="2.8300070">
        <ele>564.7</ele>
        <time>2018-12-30T12:07:36Z</time>
      </trkpt>
      <trkpt lat="39.8265720" lon="2.8299530">
        <ele>564.7</ele>
        <time>2018-12-30T12:07:37Z</time>
      </trkpt>
      <trkpt lat="39.8265130" lon="2.8299000">
        <ele>564.6</ele>
        <time>2018-12-30T12:07:38Z</time>
      </trkpt>
      <trkpt lat="39.8264530" lon="2.8298490">
        <ele>564.4</ele>
        <time>2018-12-30T12:07:39Z</time>
      </trkpt>
      <trkpt lat="39.8263910" lon="2.8297980">
        <ele>564.2</ele>
        <time>2018-12-30T12:07:40Z</time>
      </trkpt>
      <trkpt lat="39.8263250" lon="2.8297490">
        <ele>564.1</ele>
        <time>2018-12-30T12:07:41Z</time>
      </trkpt>
      <trkpt lat="39.8262530" lon="2.8297020">
        <ele>564.0</ele>
        <time>2018-12-30T12:07:42Z</time>
      </trkpt>
      <trkpt lat="39.8261800" lon="2.8296600">
        <ele>563.9</ele>
        <time>2018-12-30T12:07:43Z</time>
      </trkpt>
      <trkpt lat="39.8261080" lon="2.8296270">
        <ele>563.8</ele>
        <time>2018-12-30T12:07:44Z</time>
      </trkpt>
      <trkpt lat="39.8260360" lon="2.8295940">
        <ele>563.8</ele>
        <time>2018-12-30T12:07:45Z</time>
      </trkpt>
      <trkpt lat="39.8259620" lon="2.8295660">
        <ele>563.8</ele>
        <time>2018-12-30T12:07:46Z</time>
      </trkpt>
      <trkpt lat="39.8258860" lon="2.8295360">
        <ele>563.9</ele>
        <time>2018-12-30T12:07:47Z</time>
      </trkpt>
      <trkpt lat="39.8258100" lon="2.8295090">
        <ele>563.9</ele>
        <time>2018-12-30T12:07:48Z</time>
      </trkpt>
      <trkpt lat="39.8257330" lon="2.8294860">
        <ele>563.9</ele>
        <time>2018-12-30T12:07:49Z</time>
      </trkpt>
      <trkpt lat="39.8256540" lon="2.8294610">
        <ele>563.9</ele>
        <time>2018-12-30T12:07:50Z</time>
      </trkpt>
      <trkpt lat="39.8255730" lon="2.8294320">
        <ele>563.8</ele>
        <time>2018-12-30T12:07:51Z</time>
      </trkpt>
      <trkpt lat="39.8254960" lon="2.8293930">
        <ele>563.6</ele>
        <time>2018-12-30T12:07:52Z</time>
      </trkpt>
      <trkpt lat="39.8254190" lon="2.8293540">
        <ele>563.4</ele>
        <time>2018-12-30T12:07:53Z</time>
      </trkpt>
      <trkpt lat="39.8253430" lon="2.8293140">
        <ele>563.1</ele>
        <time>2018-12-30T12:07:54Z</time>
      </trkpt>
      <trkpt lat="39.8252630" lon="2.8292810">
        <ele>562.7</ele>
        <time>2018-12-30T12:07:55Z</time>
      </trkpt>
      <trkpt lat="39.8251880" lon="2.8292500">
        <ele>562.2</ele>
        <time>2018-12-30T12:07:56Z</time>
      </trkpt>
      <trkpt lat="39.8251140" lon="2.8292200">
        <ele>561.6</ele>
        <time>2018-12-30T12:07:57Z</time>
      </trkpt>
      <trkpt lat="39.8250460" lon="2.8291880">
        <ele>561.1</ele>
        <time>2018-12-30T12:07:58Z</time>
      </trkpt>
      <trkpt lat="39.8249780" lon="2.8291540">
        <ele>560.6</ele>
        <time>2018-12-30T12:07:59Z</time>
      </trkpt>
      <trkpt lat="39.8249100" lon="2.8291150">
        <ele>560.0</ele>
        <time>2018-12-30T12:08:00Z</time>
      </trkpt>
      <trkpt lat="39.8248420" lon="2.8290670">
        <ele>559.4</ele>
        <time>2018-12-30T12:08:01Z</time>
      </trkpt>
      <trkpt lat="39.8247710" lon="2.8290110">
        <ele>559.0</ele>
        <time>2018-12-30T12:08:02Z</time>
      </trkpt>
      <trkpt lat="39.8247010" lon="2.8289470">
        <ele>558.5</ele>
        <time>2018-12-30T12:08:03Z</time>
      </trkpt>
      <trkpt lat="39.8246290" lon="2.8288770">
        <ele>558.0</ele>
        <time>2018-12-30T12:08:04Z</time>
      </trkpt>
      <trkpt lat="39.8245550" lon="2.8288010">
        <ele>557.5</ele>
        <time>2018-12-30T12:08:05Z</time>
      </trkpt>
      <trkpt lat="39.8244790" lon="2.8287250">
        <ele>556.9</ele>
        <time>2018-12-30T12:08:06Z</time>
      </trkpt>
      <trkpt lat="39.8244010" lon="2.8286490">
        <ele>556.4</ele>
        <time>2018-12-30T12:08:07Z</time>
      </trkpt>
      <trkpt lat="39.8243230" lon="2.8285730">
        <ele>555.9</ele>
        <time>2018-12-30T12:08:08Z</time>
      </trkpt>
      <trkpt lat="39.8242450" lon="2.8284960">
        <ele>555.5</ele>
        <time>2018-12-30T12:08:09Z</time>
      </trkpt>
      <trkpt lat="39.8241700" lon="2.8284180">
        <ele>554.9</ele>
        <time>2018-12-30T12:08:10Z</time>
      </trkpt>
      <trkpt lat="39.8240950" lon="2.8283380">
        <ele>554.4</ele>
        <time>2018-12-30T12:08:11Z</time>
      </trkpt>
      <trkpt lat="39.8240200" lon="2.8282570">
        <ele>553.8</ele>
        <time>2018-12-30T12:08:12Z</time>
      </trkpt>
      <trkpt lat="39.8239450" lon="2.8281760">
        <ele>553.1</ele>
        <time>2018-12-30T12:08:13Z</time>
      </trkpt>
      <trkpt lat="39.8238700" lon="2.8280970">
        <ele>552.4</ele>
        <time>2018-12-30T12:08:14Z</time>
      </trkpt>
      <trkpt lat="39.8237950" lon="2.8280190">
        <ele>551.5</ele>
        <time>2018-12-30T12:08:15Z</time>
      </trkpt>
      <trkpt lat="39.8237190" lon="2.8279420">
        <ele>550.7</ele>
        <time>2018-12-30T12:08:16Z</time>
      </trkpt>
      <trkpt lat="39.8236410" lon="2.8278630">
        <ele>550.3</ele>
        <time>2018-12-30T12:08:17Z</time>
      </trkpt>
      <trkpt lat="39.8235610" lon="2.8277830">
        <ele>550.2</ele>
        <time>2018-12-30T12:08:18Z</time>
      </trkpt>
      <trkpt lat="39.8234770" lon="2.8277050">
        <ele>550.0</ele>
        <time>2018-12-30T12:08:19Z</time>
      </trkpt>
      <trkpt lat="39.8233880" lon="2.8276360">
        <ele>549.9</ele>
        <time>2018-12-30T12:08:20Z</time>
      </trkpt>
      <trkpt lat="39.8232940" lon="2.8275750">
        <ele>549.8</ele>
        <time>2018-12-30T12:08:21Z</time>
      </trkpt>
      <trkpt lat="39.8231990" lon="2.8275230">
        <ele>549.8</ele>
        <time>2018-12-30T12:08:22Z</time>
      </trkpt>
      <trkpt lat="39.8231050" lon="2.8274750">
        <ele>549.8</ele>
        <time>2018-12-30T12:08:23Z</time>
      </trkpt>
      <trkpt lat="39.8230130" lon="2.8274290">
        <ele>549.8</ele>
        <time>2018-12-30T12:08:24Z</time>
      </trkpt>
      <trkpt lat="39.8229200" lon="2.8273970">
        <ele>549.8</ele>
        <time>2018-12-30T12:08:25Z</time>
      </trkpt>
      <trkpt lat="39.8228260" lon="2.8273760">
        <ele>549.8</ele>
        <time>2018-12-30T12:08:26Z</time>
      </trkpt>
      <trkpt lat="39.8227340" lon="2.8273690">
        <ele>549.9</ele>
        <time>2018-12-30T12:08:27Z</time>
      </trkpt>
      <trkpt lat="39.8226420" lon="2.8273730">
        <ele>550.0</ele>
        <time>2018-12-30T12:08:28Z</time>
      </trkpt>
      <trkpt lat="39.8225540" lon="2.8273820">
        <ele>550.1</ele>
        <time>2018-12-30T12:08:29Z</time>
      </trkpt>
      <trkpt lat="39.8224660" lon="2.8273980">
        <ele>550.1</ele>
        <time>2018-12-30T12:08:30Z</time>
      </trkpt>
      <trkpt lat="39.8223820" lon="2.8274160">
        <ele>550.2</ele>
        <time>2018-12-30T12:08:31Z</time>
      </trkpt>
      <trkpt lat="39.8223010" lon="2.8274400">
        <ele>550.6</ele>
        <time>2018-12-30T12:08:32Z</time>
      </trkpt>
      <trkpt lat="39.8222220" lon="2.8274660">
        <ele>550.9</ele>
        <time>2018-12-30T12:08:33Z</time>
      </trkpt>
      <trkpt lat="39.8221430" lon="2.8274910">
        <ele>551.3</ele>
        <time>2018-12-30T12:08:34Z</time>
      </trkpt>
      <trkpt lat="39.8220690" lon="2.8275150">
        <ele>551.7</ele>
        <time>2018-12-30T12:08:35Z</time>
      </trkpt>
      <trkpt lat="39.8219960" lon="2.8275370">
        <ele>552.1</ele>
        <time>2018-12-30T12:08:36Z</time>
      </trkpt>
      <trkpt lat="39.8219270" lon="2.8275560">
        <ele>552.5</ele>
        <time>2018-12-30T12:08:37Z</time>
      </trkpt>
      <trkpt lat="39.8218620" lon="2.8275730">
        <ele>552.9</ele>
        <time>2018-12-30T12:08:38Z</time>
      </trkpt>
      <trkpt lat="39.8218420" lon="2.8276270">
        <ele>553.2</ele>
        <time>2018-12-30T12:08:39Z</time>
      </trkpt>
      <trkpt lat="39.8218440" lon="2.8276950">
        <ele>553.4</ele>
        <time>2018-12-30T12:08:40Z</time>
      </trkpt>
      <trkpt lat="39.8218480" lon="2.8277670">
        <ele>553.6</ele>
        <time>2018-12-30T12:08:41Z</time>
      </trkpt>
      <trkpt lat="39.8218170" lon="2.8278150">
        <ele>553.8</ele>
        <time>2018-12-30T12:08:42Z</time>
      </trkpt>
      <trkpt lat="39.8217810" lon="2.8278700">
        <ele>554.0</ele>
        <time>2018-12-30T12:08:43Z</time>
      </trkpt>
      <trkpt lat="39.8217600" lon="2.8279420">
        <ele>554.2</ele>
        <time>2018-12-30T12:08:44Z</time>
      </trkpt>
      <trkpt lat="39.8217530" lon="2.8280170">
        <ele>554.4</ele>
        <time>2018-12-30T12:08:45Z</time>
      </trkpt>
      <trkpt lat="39.8217480" lon="2.8280930">
        <ele>554.7</ele>
        <time>2018-12-30T12:08:46Z</time>
      </trkpt>
      <trkpt lat="39.8217350" lon="2.8281660">
        <ele>554.9</ele>
        <time>2018-12-30T12:08:47Z</time>
      </trkpt>
      <trkpt lat="39.8217150" lon="2.8282380">
        <ele>555.3</ele>
        <time>2018-12-30T12:08:48Z</time>
      </trkpt>
      <trkpt lat="39.8216930" lon="2.8283050">
        <ele>555.6</ele>
        <time>2018-12-30T12:08:49Z</time>
      </trkpt>
      <trkpt lat="39.8216660" lon="2.8283580">
        <ele>555.8</ele>
        <time>2018-12-30T12:08:50Z</time>
      </trkpt>
      <trkpt lat="39.8216310" lon="2.8283970">
        <ele>556.0</ele>
        <time>2018-12-30T12:08:51Z</time>
      </trkpt>
      <trkpt lat="39.8215830" lon="2.8284290">
        <ele>556.2</ele>
        <time>2018-12-30T12:08:52Z</time>
      </trkpt>
      <trkpt lat="39.8215300" lon="2.8284630">
        <ele>556.4</ele>
        <time>2018-12-30T12:08:53Z</time>
      </trkpt>
      <trkpt lat="39.8214730" lon="2.8285030">
        <ele>556.7</ele>
        <time>2018-12-30T12:08:54Z</time>
      </trkpt>
      <trkpt lat="39.8214190" lon="2.8285450">
        <ele>556.9</ele>
        <time>2018-12-30T12:08:55Z</time>
      </trkpt>
      <trkpt lat="39.8213650" lon="2.8285870">
        <ele>557.1</ele>
        <time>2018-12-30T12:08:56Z</time>
      </trkpt>
      <trkpt lat="39.8213130" lon="2.8286260">
        <ele>557.2</ele>
        <time>2018-12-30T12:08:57Z</time>
      </trkpt>
      <trkpt lat="39.8212610" lon="2.8286650">
        <ele>557.3</ele>
        <time>2018-12-30T12:08:58Z</time>
      </trkpt>
      <trkpt lat="39.8212090" lon="2.8287040">
        <ele>557.5</ele>
        <time>2018-12-30T12:08:59Z</time>
      </trkpt>
      <trkpt lat="39.8211590" lon="2.8287430">
        <ele>557.6</ele>
        <time>2018-12-30T12:09:00Z</time>
      </trkpt>
      <trkpt lat="39.8211140" lon="2.8287880">
        <ele>557.9</ele>
        <time>2018-12-30T12:09:01Z</time>
      </trkpt>
      <trkpt lat="39.8210740" lon="2.8288400">
        <ele>558.0</ele>
        <time>2018-12-30T12:09:02Z</time>
      </trkpt>
      <trkpt lat="39.8210370" lon="2.8289020">
        <ele>558.2</ele>
        <time>2018-12-30T12:09:03Z</time>
      </trkpt>
      <trkpt lat="39.8210040" lon="2.8289680">
        <ele>558.3</ele>
        <time>2018-12-30T12:09:04Z</time>
      </trkpt>
      <trkpt lat="39.8209760" lon="2.8290380">
        <ele>558.4</ele>
        <time>2018-12-30T12:09:05Z</time>
      </trkpt>
      <trkpt lat="39.8209510" lon="2.8291080">
        <ele>558.5</ele>
        <time>2018-12-30T12:09:06Z</time>
      </trkpt>
      <trkpt lat="39.8209290" lon="2.8291820">
        <ele>558.6</ele>
        <time>2018-12-30T12:09:07Z</time>
      </trkpt>
      <trkpt lat="39.8209070" lon="2.8292570">
        <ele>558.7</ele>
        <time>2018-12-30T12:09:08Z</time>
      </trkpt>
      <trkpt lat="39.8208840" lon="2.8293330">
        <ele>558.7</ele>
        <time>2018-12-30T12:09:09Z</time>
      </trkpt>
      <trkpt lat="39.8208590" lon="2.8294090">
        <ele>558.8</ele>
        <time>2018-12-30T12:09:10Z</time>
      </trkpt>
      <trkpt lat="39.8208340" lon="2.8294850">
        <ele>558.8</ele>
        <time>2018-12-30T12:09:11Z</time>
      </trkpt>
      <trkpt lat="39.8208050" lon="2.8295630">
        <ele>558.8</ele>
        <time>2018-12-30T12:09:12Z</time>
      </trkpt>
      <trkpt lat="39.8207680" lon="2.8296400">
        <ele>558.8</ele>
        <time>2018-12-30T12:09:13Z</time>
      </trkpt>
      <trkpt lat="39.8207240" lon="2.8297160">
        <ele>558.7</ele>
        <time>2018-12-30T12:09:14Z</time>
      </trkpt>
      <trkpt lat="39.8206760" lon="2.8297870">
        <ele>558.7</ele>
        <time>2018-12-30T12:09:15Z</time>
      </trkpt>
      <trkpt lat="39.8206250" lon="2.8298480">
        <ele>558.6</ele>
        <time>2018-12-30T12:09:16Z</time>
      </trkpt>
      <trkpt lat="39.8205700" lon="2.8298950">
        <ele>558.5</ele>
        <time>2018-12-30T12:09:17Z</time>
      </trkpt>
      <trkpt lat="39.8205100" lon="2.8299320">
        <ele>558.3</ele>
        <time>2018-12-30T12:09:18Z</time>
      </trkpt>
      <trkpt lat="39.8204450" lon="2.8299620">
        <ele>558.2</ele>
        <time>2018-12-30T12:09:19Z</time>
      </trkpt>
      <trkpt lat="39.8203780" lon="2.8299900">
        <ele>558.0</ele>
        <time>2018-12-30T12:09:20Z</time>
      </trkpt>
      <trkpt lat="39.8203050" lon="2.8300110">
        <ele>557.8</ele>
        <time>2018-12-30T12:09:21Z</time>
      </trkpt>
      <trkpt lat="39.8202230" lon="2.8300260">
        <ele>557.6</ele>
        <time>2018-12-30T12:09:22Z</time>
      </trkpt>
      <trkpt lat="39.8201340" lon="2.8300350">
        <ele>557.5</ele>
        <time>2018-12-30T12:09:23Z</time>
      </trkpt>
      <trkpt lat="39.8200420" lon="2.8300380">
        <ele>557.2</ele>
        <time>2018-12-30T12:09:24Z</time>
      </trkpt>
      <trkpt lat="39.8199520" lon="2.8300290">
        <ele>557.0</ele>
        <time>2018-12-30T12:09:25Z</time>
      </trkpt>
      <trkpt lat="39.8198650" lon="2.8300070">
        <ele>556.8</ele>
        <time>2018-12-30T12:09:26Z</time>
      </trkpt>
      <trkpt lat="39.8197790" lon="2.8299700">
        <ele>556.6</ele>
        <time>2018-12-30T12:09:27Z</time>
      </trkpt>
      <trkpt lat="39.8196980" lon="2.8299230">
        <ele>556.5</ele>
        <time>2018-12-30T12:09:28Z</time>
      </trkpt>
      <trkpt lat="39.8196190" lon="2.8298670">
        <ele>556.3</ele>
        <time>2018-12-30T12:09:29Z</time>
      </trkpt>
      <trkpt lat="39.8195420" lon="2.8298050">
        <ele>556.2</ele>
        <time>2018-12-30T12:09:30Z</time>
      </trkpt>
      <trkpt lat="39.8194670" lon="2.8297400">
        <ele>556.1</ele>
        <time>2018-12-30T12:09:31Z</time>
      </trkpt>
      <trkpt lat="39.8193950" lon="2.8296740">
        <ele>556.1</ele>
        <time>2018-12-30T12:09:32Z</time>
      </trkpt>
      <trkpt lat="39.8193250" lon="2.8296100">
        <ele>556.0</ele>
        <time>2018-12-30T12:09:33Z</time>
      </trkpt>
      <trkpt lat="39.8192540" lon="2.8295560">
        <ele>555.8</ele>
        <time>2018-12-30T12:09:34Z</time>
      </trkpt>
      <trkpt lat="39.8191780" lon="2.8295290">
        <ele>555.7</ele>
        <time>2018-12-30T12:09:35Z</time>
      </trkpt>
      <trkpt lat="39.8191010" lon="2.8295390">
        <ele>555.4</ele>
        <time>2018-12-30T12:09:36Z</time>
      </trkpt>
      <trkpt lat="39.8190260" lon="2.8295880">
        <ele>555.2</ele>
        <time>2018-12-30T12:09:37Z</time>
      </trkpt>
      <trkpt lat="39.8189590" lon="2.8296580">
        <ele>554.8</ele>
        <time>2018-12-30T12:09:38Z</time>
      </trkpt>
      <trkpt lat="39.8188900" lon="2.8297350">
        <ele>554.2</ele>
        <time>2018-12-30T12:09:39Z</time>
      </trkpt>
      <trkpt lat="39.8188170" lon="2.8298070">
        <ele>553.5</ele>
        <time>2018-12-30T12:09:40Z</time>
      </trkpt>
      <trkpt lat="39.8187340" lon="2.8298640">
        <ele>552.9</ele>
        <time>2018-12-30T12:09:41Z</time>
      </trkpt>
      <trkpt lat="39.8186450" lon="2.8298910">
        <ele>552.4</ele>
        <time>2018-12-30T12:09:42Z</time>
      </trkpt>
      <trkpt lat="39.8185540" lon="2.8298990">
        <ele>552.0</ele>
        <time>2018-12-30T12:09:43Z</time>
      </trkpt>
      <trkpt lat="39.8184800" lon="2.8298700">
        <ele>551.4</ele>
        <time>2018-12-30T12:09:44Z</time>
      </trkpt>
      <trkpt lat="39.8184480" lon="2.8298010">
        <ele>551.2</ele>
        <time>2018-12-30T12:09:45Z</time>
      </trkpt>
      <trkpt lat="39.8184390" lon="2.8296970">
        <ele>550.8</ele>
        <time>2018-12-30T12:09:46Z</time>
      </trkpt>
      <trkpt lat="39.8184390" lon="2.8295770">
        <ele>550.5</ele>
        <time>2018-12-30T12:09:47Z</time>
      </trkpt>
      <trkpt lat="39.8184220" lon="2.8294610">
        <ele>550.2</ele>
        <time>2018-12-30T12:09:48Z</time>
      </trkpt>
      <trkpt lat="39.8183990" lon="2.8293420">
        <ele>549.9</ele>
        <time>2018-12-30T12:09:49Z</time>
      </trkpt>
      <trkpt lat="39.8183710" lon="2.8292320">
        <ele>549.7</ele>
        <time>2018-12-30T12:09:50Z</time>
      </trkpt>
      <trkpt lat="39.8183370" lon="2.8291280">
        <ele>549.6</ele>
        <time>2018-12-30T12:09:51Z</time>
      </trkpt>
      <trkpt lat="39.8182970" lon="2.8290320">
        <ele>549.6</ele>
        <time>2018-12-30T12:09:52Z</time>
      </trkpt>
      <trkpt lat="39.8182550" lon="2.8289440">
        <ele>549.6</ele>
        <time>2018-12-30T12:09:53Z</time>
      </trkpt>
      <trkpt lat="39.8182040" lon="2.8288680">
        <ele>549.6</ele>
        <time>2018-12-30T12:09:54Z</time>
      </trkpt>
      <trkpt lat="39.8181300" lon="2.8288070">
        <ele>549.7</ele>
        <time>2018-12-30T12:09:55Z</time>
      </trkpt>
      <trkpt lat="39.8180430" lon="2.8287610">
        <ele>549.8</ele>
        <time>2018-12-30T12:09:56Z</time>
      </trkpt>
      <trkpt lat="39.8179490" lon="2.8287370">
        <ele>550.0</ele>
        <time>2018-12-30T12:09:57Z</time>
      </trkpt>
      <trkpt lat="39.8178610" lon="2.8287340">
        <ele>550.2</ele>
        <time>2018-12-30T12:09:58Z</time>
      </trkpt>
      <trkpt lat="39.8177740" lon="2.8287540">
        <ele>550.4</ele>
        <time>2018-12-30T12:09:59Z</time>
      </trkpt>
      <trkpt lat="39.8176940" lon="2.8287890">
        <ele>550.7</ele>
        <time>2018-12-30T12:10:00Z</time>
      </trkpt>
      <trkpt lat="39.8176210" lon="2.8288310">
        <ele>551.0</ele>
        <time>2018-12-30T12:10:01Z</time>
      </trkpt>
      <trkpt lat="39.8175430" lon="2.8288840">
        <ele>551.3</ele>
        <time>2018-12-30T12:10:02Z</time>
      </trkpt>
      <trkpt lat="39.8174550" lon="2.8289470">
        <ele>551.8</ele>
        <time>2018-12-30T12:10:03Z</time>
      </trkpt>
      <trkpt lat="39.8173690" lon="2.8290240">
        <ele>552.3</ele>
        <time>2018-12-30T12:10:04Z</time>
      </trkpt>
      <trkpt lat="39.8172820" lon="2.8291060">
        <ele>552.8</ele>
        <time>2018-12-30T12:10:05Z</time>
      </trkpt>
      <trkpt lat="39.8172000" lon="2.8291840">
        <ele>553.4</ele>
        <time>2018-12-30T12:10:06Z</time>
      </trkpt>
      <trkpt lat="39.8171170" lon="2.8292640">
        <ele>554.1</ele>
        <time>2018-12-30T12:10:07Z</time>
      </trkpt>
      <trkpt lat="39.8170360" lon="2.8293460">
        <ele>554.7</ele>
        <time>2018-12-30T12:10:08Z</time>
      </trkpt>
      <trkpt lat="39.8169540" lon="2.8294370">
        <ele>555.4</ele>
        <time>2018-12-30T12:10:09Z</time>
      </trkpt>
      <trkpt lat="39.8168710" lon="2.8295250">
        <ele>556.1</ele>
        <time>2018-12-30T12:10:10Z</time>
      </trkpt>
      <trkpt lat="39.8167900" lon="2.8296040">
        <ele>556.9</ele>
        <time>2018-12-30T12:10:11Z</time>
      </trkpt>
      <trkpt lat="39.8167100" lon="2.8296720">
        <ele>557.5</ele>
        <time>2018-12-30T12:10:12Z</time>
      </trkpt>
      <trkpt lat="39.8166270" lon="2.8297310">
        <ele>558.2</ele>
        <time>2018-12-30T12:10:13Z</time>
      </trkpt>
      <trkpt lat="39.8165240" lon="2.8297520">
        <ele>558.9</ele>
        <time>2018-12-30T12:10:14Z</time>
      </trkpt>
      <trkpt lat="39.8164150" lon="2.8297390">
        <ele>559.8</ele>
        <time>2018-12-30T12:10:15Z</time>
      </trkpt>
      <trkpt lat="39.8163140" lon="2.8296980">
        <ele>560.6</ele>
        <time>2018-12-30T12:10:16Z</time>
      </trkpt>
      <trkpt lat="39.8162970" lon="2.8296340">
        <ele>561.0</ele>
        <time>2018-12-30T12:10:17Z</time>
      </trkpt>
      <trkpt lat="39.8163010" lon="2.8295690">
        <ele>561.4</ele>
        <time>2018-12-30T12:10:18Z</time>
      </trkpt>
      <trkpt lat="39.8163150" lon="2.8294960">
        <ele>561.8</ele>
        <time>2018-12-30T12:10:19Z</time>
      </trkpt>
      <trkpt lat="39.8162780" lon="2.8294450">
        <ele>562.2</ele>
        <time>2018-12-30T12:10:20Z</time>
      </trkpt>
      <trkpt lat="39.8162450" lon="2.8293910">
        <ele>562.5</ele>
        <time>2018-12-30T12:10:21Z</time>
      </trkpt>
      <trkpt lat="39.8162170" lon="2.8293300">
        <ele>562.9</ele>
        <time>2018-12-30T12:10:22Z</time>
      </trkpt>
      <trkpt lat="39.8162050" lon="2.8292580">
        <ele>563.3</ele>
        <time>2018-12-30T12:10:23Z</time>
      </trkpt>
      <trkpt lat="39.8161960" lon="2.8291840">
        <ele>563.7</ele>
        <time>2018-12-30T12:10:24Z</time>
      </trkpt>
      <trkpt lat="39.8161910" lon="2.8291110">
        <ele>564.1</ele>
        <time>2018-12-30T12:10:25Z</time>
      </trkpt>
      <trkpt lat="39.8161760" lon="2.8290430">
        <ele>564.4</ele>
        <time>2018-12-30T12:10:26Z</time>
      </trkpt>
      <trkpt lat="39.8161620" lon="2.8289690">
        <ele>564.8</ele>
        <time>2018-12-30T12:10:27Z</time>
      </trkpt>
      <trkpt lat="39.8161500" lon="2.8288880">
        <ele>565.3</ele>
        <time>2018-12-30T12:10:28Z</time>
      </trkpt>
      <trkpt lat="39.8161400" lon="2.8288080">
        <ele>565.7</ele>
        <time>2018-12-30T12:10:29Z</time>
      </trkpt>
      <trkpt lat="39.8161290" lon="2.8287310">
        <ele>566.1</ele>
        <time>2018-12-30T12:10:30Z</time>
      </trkpt>
      <trkpt lat="39.8161180" lon="2.8286590">
        <ele>566.6</ele>
        <time>2018-12-30T12:10:31Z</time>
      </trkpt>
      <trkpt lat="39.8161080" lon="2.8285860">
        <ele>567.0</ele>
        <time>2018-12-30T12:10:32Z</time>
      </trkpt>
      <trkpt lat="39.8160970" lon="2.8285170">
        <ele>567.4</ele>
        <time>2018-12-30T12:10:33Z</time>
      </trkpt>
      <trkpt lat="39.8160840" lon="2.8284480">
        <ele>567.9</ele>
        <time>2018-12-30T12:10:34Z</time>
      </trkpt>
      <trkpt lat="39.8160730" lon="2.8283830">
        <ele>568.3</ele>
        <time>2018-12-30T12:10:35Z</time>
      </trkpt>
      <trkpt lat="39.8160610" lon="2.8283150">
        <ele>568.7</ele>
        <time>2018-12-30T12:10:36Z</time>
      </trkpt>
      <trkpt lat="39.8160490" lon="2.8282480">
        <ele>569.2</ele>
        <time>2018-12-30T12:10:37Z</time>
      </trkpt>
      <trkpt lat="39.8160380" lon="2.8281810">
        <ele>569.6</ele>
        <time>2018-12-30T12:10:38Z</time>
      </trkpt>
      <trkpt lat="39.8160280" lon="2.8281140">
        <ele>570.1</ele>
        <time>2018-12-30T12:10:39Z</time>
      </trkpt>
      <trkpt lat="39.8160180" lon="2.8280450">
        <ele>570.6</ele>
        <time>2018-12-30T12:10:40Z</time>
      </trkpt>
      <trkpt lat="39.8160100" lon="2.8279730">
        <ele>571.1</ele>
        <time>2018-12-30T12:10:41Z</time>
      </trkpt>
      <trkpt lat="39.8160020" lon="2.8278990">
        <ele>571.6</ele>
        <time>2018-12-30T12:10:42Z</time>
      </trkpt>
      <trkpt lat="39.8159940" lon="2.8278270">
        <ele>572.2</ele>
        <time>2018-12-30T12:10:43Z</time>
      </trkpt>
      <trkpt lat="39.8159850" lon="2.8277570">
        <ele>572.7</ele>
        <time>2018-12-30T12:10:44Z</time>
      </trkpt>
      <trkpt lat="39.8159720" lon="2.8276900">
        <ele>573.2</ele>
        <time>2018-12-30T12:10:45Z</time>
      </trkpt>
      <trkpt lat="39.8159520" lon="2.8276260">
        <ele>573.8</ele>
        <time>2018-12-30T12:10:46Z</time>
      </trkpt>
      <trkpt lat="39.8159240" lon="2.8275680">
        <ele>574.4</ele>
        <time>2018-12-30T12:10:47Z</time>
      </trkpt>
      <trkpt lat="39.8158920" lon="2.8275160">
        <ele>574.9</ele>
        <time>2018-12-30T12:10:48Z</time>
      </trkpt>
      <trkpt lat="39.8158580" lon="2.8274690">
        <ele>575.4</ele>
        <time>2018-12-30T12:10:49Z</time>
      </trkpt>
      <trkpt lat="39.8158250" lon="2.8274250">
        <ele>575.9</ele>
        <time>2018-12-30T12:10:50Z</time>
      </trkpt>
      <trkpt lat="39.8157920" lon="2.8273850">
        <ele>576.3</ele>
        <time>2018-12-30T12:10:51Z</time>
      </trkpt>
      <trkpt lat="39.8157570" lon="2.8273450">
        <ele>576.7</ele>
        <time>2018-12-30T12:10:52Z</time>
      </trkpt>
      <trkpt lat="39.8157210" lon="2.8273050">
        <ele>577.2</ele>
        <time>2018-12-30T12:10:53Z</time>
      </trkpt>
      <trkpt lat="39.8156850" lon="2.8272640">
        <ele>577.6</ele>
        <time>2018-12-30T12:10:54Z</time>
      </trkpt>
      <trkpt lat="39.8156490" lon="2.8272240">
        <ele>578.0</ele>
        <time>2018-12-30T12:10:55Z</time>
      </trkpt>
      <trkpt lat="39.8156110" lon="2.8271850">
        <ele>578.5</ele>
        <time>2018-12-30T12:10:56Z</time>
      </trkpt>
      <trkpt lat="39.8155750" lon="2.8271460">
        <ele>578.9</ele>
        <time>2018-12-30T12:10:57Z</time>
      </trkpt>
      <trkpt lat="39.8155390" lon="2.8271070">
        <ele>579.3</ele>
        <time>2018-12-30T12:10:58Z</time>
      </trkpt>
      <trkpt lat="39.8155050" lon="2.8270690">
        <ele>579.8</ele>
        <time>2018-12-30T12:10:59Z</time>
      </trkpt>
      <trkpt lat="39.8154720" lon="2.8270340">
        <ele>580.2</ele>
        <time>2018-12-30T12:11:00Z</time>
      </trkpt>
      <trkpt lat="39.8154400" lon="2.8270020">
        <ele>580.5</ele>
        <time>2018-12-30T12:11:01Z</time>
      </trkpt>
      <trkpt lat="39.8154130" lon="2.8269650">
        <ele>580.9</ele>
        <time>2018-12-30T12:11:02Z</time>
      </trkpt>
      <trkpt lat="39.8153900" lon="2.8269220">
        <ele>581.3</ele>
        <time>2018-12-30T12:11:03Z</time>
      </trkpt>
      <trkpt lat="39.8153710" lon="2.8268770">
        <ele>581.7</ele>
        <time>2018-12-30T12:11:04Z</time>
      </trkpt>
      <trkpt lat="39.8153530" lon="2.8268340">
        <ele>582.0</ele>
        <time>2018-12-30T12:11:05Z</time>
      </trkpt>
      <trkpt lat="39.8153340" lon="2.8267940">
        <ele>582.3</ele>
        <time>2018-12-30T12:11:06Z</time>
      </trkpt>
      <trkpt lat="39.8153160" lon="2.8267560">
        <ele>582.7</ele>
        <time>2018-12-30T12:11:07Z</time>
      </trkpt>
      <trkpt lat="39.8152990" lon="2.8267220">
        <ele>582.9</ele>
        <time>2018-12-30T12:11:08Z</time>
      </trkpt>
      <trkpt lat="39.8152830" lon="2.8266910">
        <ele>583.2</ele>
        <time>2018-12-30T12:11:09Z</time>
      </trkpt>
      <trkpt lat="39.8152660" lon="2.8266600">
        <ele>583.4</ele>
        <time>2018-12-30T12:11:10Z</time>
      </trkpt>
      <trkpt lat="39.8152440" lon="2.8266230">
        <ele>583.7</ele>
        <time>2018-12-30T12:11:11Z</time>
      </trkpt>
      <trkpt lat="39.8152190" lon="2.8265840">
        <ele>584.1</ele>
        <time>2018-12-30T12:11:12Z</time>
      </trkpt>
      <trkpt lat="39.8151940" lon="2.8265450">
        <ele>584.4</ele>
        <time>2018-12-30T12:11:13Z</time>
      </trkpt>
      <trkpt lat="39.8151710" lon="2.8265100">
        <ele>584.6</ele>
        <time>2018-12-30T12:11:14Z</time>
      </trkpt>
      <trkpt lat="39.8151470" lon="2.8264740">
        <ele>584.9</ele>
        <time>2018-12-30T12:11:15Z</time>
      </trkpt>
      <trkpt lat="39.8151230" lon="2.8264380">
        <ele>585.2</ele>
        <time>2018-12-30T12:11:16Z</time>
      </trkpt>
      <trkpt lat="39.8151000" lon="2.8264030">
        <ele>585.5</ele>
        <time>2018-12-30T12:11:17Z</time>
      </trkpt>
      <trkpt lat="39.8150790" lon="2.8263710">
        <ele>585.7</ele>
        <time>2018-12-30T12:11:18Z</time>
      </trkpt>
      <trkpt lat="39.8150590" lon="2.8263390">
        <ele>585.9</ele>
        <time>2018-12-30T12:11:19Z</time>
      </trkpt>
      <trkpt lat="39.8150420" lon="2.8263060">
        <ele>586.2</ele>
        <time>2018-12-30T12:11:20Z</time>
      </trkpt>
      <trkpt lat="39.8150260" lon="2.8262670">
        <ele>586.4</ele>
        <time>2018-12-30T12:11:21Z</time>
      </trkpt>
      <trkpt lat="39.8150170" lon="2.8262300">
        <ele>586.6</ele>
        <time>2018-12-30T12:11:22Z</time>
      </trkpt>
      <trkpt lat="39.8150090" lon="2.8261920">
        <ele>586.8</ele>
        <time>2018-12-30T12:11:23Z</time>
      </trkpt>
      <trkpt lat="39.8150040" lon="2.8261540">
        <ele>587.1</ele>
        <time>2018-12-30T12:11:24Z</time>
      </trkpt>
      <trkpt lat="39.8150020" lon="2.8261080">
        <ele>587.3</ele>
        <time>2018-12-30T12:11:25Z</time>
      </trkpt>
      <trkpt lat="39.8150020" lon="2.8260550">
        <ele>587.8</ele>
        <time>2018-12-30T12:11:26Z</time>
      </trkpt>
      <trkpt lat="39.8150070" lon="2.8260010">
        <ele>587.5</ele>
        <time>2018-12-30T12:11:27Z</time>
      </trkpt>
      <trkpt lat="39.8150140" lon="2.8259390">
        <ele>587.2</ele>
        <time>2018-12-30T12:11:28Z</time>
      </trkpt>
      <trkpt lat="39.8150290" lon="2.8258770">
        <ele>586.8</ele>
        <time>2018-12-30T12:11:29Z</time>
      </trkpt>
      <trkpt lat="39.8150500" lon="2.8258110">
        <ele>586.4</ele>
        <time>2018-12-30T12:11:30Z</time>
      </trkpt>
      <trkpt lat="39.8150760" lon="2.8257500">
        <ele>586.1</ele>
        <time>2018-12-30T12:11:31Z</time>
      </trkpt>
      <trkpt lat="39.8150980" lon="2.8256880">
        <ele>584.6</ele>
        <time>2018-12-30T12:11:32Z</time>
      </trkpt>
      <trkpt lat="39.8151230" lon="2.8256350">
        <ele>583.4</ele>
        <time>2018-12-30T12:11:33Z</time>
      </trkpt>
      <trkpt lat="39.8151530" lon="2.8255910">
        <ele>582.4</ele>
        <time>2018-12-30T12:11:34Z</time>
      </trkpt>
      <trkpt lat="39.8151860" lon="2.8255550">
        <ele>581.6</ele>
        <time>2018-12-30T12:11:35Z</time>
      </trkpt>
      <trkpt lat="39.8152190" lon="2.8255230">
        <ele>580.8</ele>
        <time>2018-12-30T12:11:36Z</time>
      </trkpt>
      <trkpt lat="39.8152500" lon="2.8254960">
        <ele>580.3</ele>
        <time>2018-12-30T12:11:37Z</time>
      </trkpt>
      <trkpt lat="39.8152830" lon="2.8254710">
        <ele>579.7</ele>
        <time>2018-12-30T12:11:38Z</time>
      </trkpt>
      <trkpt lat="39.8153180" lon="2.8254470">
        <ele>579.2</ele>
        <time>2018-12-30T12:11:39Z</time>
      </trkpt>
      <trkpt lat="39.8153520" lon="2.8254230">
        <ele>578.6</ele>
        <time>2018-12-30T12:11:40Z</time>
      </trkpt>
      <trkpt lat="39.8153850" lon="2.8253990">
        <ele>578.1</ele>
        <time>2018-12-30T12:11:41Z</time>
      </trkpt>
      <trkpt lat="39.8154160" lon="2.8253770">
        <ele>577.7</ele>
        <time>2018-12-30T12:11:42Z</time>
      </trkpt>
      <trkpt lat="39.8154450" lon="2.8253560">
        <ele>577.2</ele>
        <time>2018-12-30T12:11:43Z</time>
      </trkpt>
      <trkpt lat="39.8154750" lon="2.8253340">
        <ele>576.8</ele>
        <time>2018-12-30T12:11:44Z</time>
      </trkpt>
      <trkpt lat="39.8155040" lon="2.8253120">
        <ele>576.4</ele>
        <time>2018-12-30T12:11:45Z</time>
      </trkpt>
      <trkpt lat="39.8155330" lon="2.8252890">
        <ele>576.0</ele>
        <time>2018-12-30T12:11:46Z</time>
      </trkpt>
      <trkpt lat="39.8155630" lon="2.8252650">
        <ele>575.6</ele>
        <time>2018-12-30T12:11:47Z</time>
      </trkpt>
      <trkpt lat="39.8155920" lon="2.8252400">
        <ele>575.1</ele>
        <time>2018-12-30T12:11:48Z</time>
      </trkpt>
      <trkpt lat="39.8156200" lon="2.8252170">
        <ele>574.7</ele>
        <time>2018-12-30T12:11:49Z</time>
      </trkpt>
      <trkpt lat="39.8156480" lon="2.8251920">
        <ele>574.2</ele>
        <time>2018-12-30T12:11:50Z</time>
      </trkpt>
      <trkpt lat="39.8156760" lon="2.8251670">
        <ele>573.8</ele>
        <time>2018-12-30T12:11:51Z</time>
      </trkpt>
      <trkpt lat="39.8157040" lon="2.8251390">
        <ele>573.3</ele>
        <time>2018-12-30T12:11:52Z</time>
      </trkpt>
      <trkpt lat="39.8157320" lon="2.8251120">
        <ele>572.7</ele>
        <time>2018-12-30T12:11:53Z</time>
      </trkpt>
      <trkpt lat="39.8157580" lon="2.8250850">
        <ele>572.2</ele>
        <time>2018-12-30T12:11:54Z</time>
      </trkpt>
      <trkpt lat="39.8157840" lon="2.8250610">
        <ele>571.7</ele>
        <time>2018-12-30T12:11:55Z</time>
      </trkpt>
      <trkpt lat="39.8158090" lon="2.8250370">
        <ele>571.1</ele>
        <time>2018-12-30T12:11:56Z</time>
      </trkpt>
      <trkpt lat="39.8158330" lon="2.8250140">
        <ele>570.6</ele>
        <time>2018-12-30T12:11:57Z</time>
      </trkpt>
      <trkpt lat="39.8158570" lon="2.8249880">
        <ele>570.0</ele>
        <time>2018-12-30T12:11:58Z</time>
      </trkpt>
      <trkpt lat="39.8158810" lon="2.8249620">
        <ele>569.4</ele>
        <time>2018-12-30T12:11:59Z</time>
      </trkpt>
      <trkpt lat="39.8159040" lon="2.8249360">
        <ele>568.8</ele>
        <time>2018-12-30T12:12:00Z</time>
      </trkpt>
      <trkpt lat="39.8159280" lon="2.8249100">
        <ele>568.2</ele>
        <time>2018-12-30T12:12:01Z</time>
      </trkpt>
      <trkpt lat="39.8159530" lon="2.8248840">
        <ele>567.6</ele>
        <time>2018-12-30T12:12:02Z</time>
      </trkpt>
      <trkpt lat="39.8159790" lon="2.8248580">
        <ele>566.9</ele>
        <time>2018-12-30T12:12:03Z</time>
      </trkpt>
      <trkpt lat="39.8160020" lon="2.8248320">
        <ele>566.3</ele>
        <time>2018-12-30T12:12:04Z</time>
      </trkpt>
      <trkpt lat="39.8160250" lon="2.8248070">
        <ele>565.6</ele>
        <time>2018-12-30T12:12:05Z</time>
      </trkpt>
      <trkpt lat="39.8160470" lon="2.8247840">
        <ele>565.1</ele>
        <time>2018-12-30T12:12:06Z</time>
      </trkpt>
      <trkpt lat="39.8160690" lon="2.8247610">
        <ele>564.9</ele>
        <time>2018-12-30T12:12:07Z</time>
      </trkpt>
      <trkpt lat="39.8160900" lon="2.8247380">
        <ele>564.6</ele>
        <time>2018-12-30T12:12:08Z</time>
      </trkpt>
      <trkpt lat="39.8161120" lon="2.8247160">
        <ele>564.3</ele>
        <time>2018-12-30T12:12:09Z</time>
      </trkpt>
      <trkpt lat="39.8161350" lon="2.8246930">
        <ele>564.0</ele>
        <time>2018-12-30T12:12:10Z</time>
      </trkpt>
      <trkpt lat="39.8161550" lon="2.8246680">
        <ele>563.8</ele>
        <time>2018-12-30T12:12:11Z</time>
      </trkpt>
      <trkpt lat="39.8161730" lon="2.8246390">
        <ele>563.5</ele>
        <time>2018-12-30T12:12:12Z</time>
      </trkpt>
      <trkpt lat="39.8161860" lon="2.8246090">
        <ele>563.2</ele>
        <time>2018-12-30T12:12:13Z</time>
      </trkpt>
      <trkpt lat="39.8161990" lon="2.8245750">
        <ele>563.0</ele>
        <time>2018-12-30T12:12:14Z</time>
      </trkpt>
      <trkpt lat="39.8162090" lon="2.8245420">
        <ele>562.7</ele>
        <time>2018-12-30T12:12:15Z</time>
      </trkpt>
      <trkpt lat="39.8162190" lon="2.8245080">
        <ele>562.4</ele>
        <time>2018-12-30T12:12:16Z</time>
      </trkpt>
      <trkpt lat="39.8162300" lon="2.8244740">
        <ele>562.1</ele>
        <time>2018-12-30T12:12:17Z</time>
      </trkpt>
      <trkpt lat="39.8162390" lon="2.8244360">
        <ele>561.5</ele>
        <time>2018-12-30T12:12:18Z</time>
      </trkpt>
      <trkpt lat="39.8162480" lon="2.8243960">
        <ele>561.2</ele>
        <time>2018-12-30T12:12:19Z</time>
      </trkpt>
      <trkpt lat="39.8162550" lon="2.8243530">
        <ele>560.8</ele>
        <time>2018-12-30T12:12:20Z</time>
      </trkpt>
      <trkpt lat="39.8162620" lon="2.8243100">
        <ele>560.5</ele>
        <time>2018-12-30T12:12:21Z</time>
      </trkpt>
      <trkpt lat="39.8162660" lon="2.8242620">
        <ele>560.1</ele>
        <time>2018-12-30T12:12:22Z</time>
      </trkpt>
      <trkpt lat="39.8162690" lon="2.8242140">
        <ele>559.7</ele>
        <time>2018-12-30T12:12:23Z</time>
      </trkpt>
      <trkpt lat="39.8162690" lon="2.8241660">
        <ele>559.3</ele>
        <time>2018-12-30T12:12:24Z</time>
      </trkpt>
      <trkpt lat="39.8162660" lon="2.8241170">
        <ele>558.9</ele>
        <time>2018-12-30T12:12:25Z</time>
      </trkpt>
      <trkpt lat="39.8162620" lon="2.8240680">
        <ele>558.5</ele>
        <time>2018-12-30T12:12:26Z</time>
      </trkpt>
      <trkpt lat="39.8162540" lon="2.8240210">
        <ele>557.8</ele>
        <time>2018-12-30T12:12:27Z</time>
      </trkpt>
      <trkpt lat="39.8162420" lon="2.8239760">
        <ele>558.0</ele>
        <time>2018-12-30T12:12:28Z</time>
      </trkpt>
      <trkpt lat="39.8162250" lon="2.8239330">
        <ele>558.3</ele>
        <time>2018-12-30T12:12:29Z</time>
      </trkpt>
      <trkpt lat="39.8162040" lon="2.8238910">
        <ele>558.5</ele>
        <time>2018-12-30T12:12:30Z</time>
      </trkpt>
      <trkpt lat="39.8161820" lon="2.8238500">
        <ele>558.7</ele>
        <time>2018-12-30T12:12:31Z</time>
      </trkpt>
      <trkpt lat="39.8161580" lon="2.8238100">
        <ele>559.0</ele>
        <time>2018-12-30T12:12:32Z</time>
      </trkpt>
      <trkpt lat="39.8161320" lon="2.8237680">
        <ele>559.2</ele>
        <time>2018-12-30T12:12:33Z</time>
      </trkpt>
      <trkpt lat="39.8161040" lon="2.8237270">
        <ele>559.4</ele>
        <time>2018-12-30T12:12:34Z</time>
      </trkpt>
      <trkpt lat="39.8160730" lon="2.8236830">
        <ele>559.7</ele>
        <time>2018-12-30T12:12:35Z</time>
      </trkpt>
      <trkpt lat="39.8160400" lon="2.8236390">
        <ele>560.0</ele>
        <time>2018-12-30T12:12:36Z</time>
      </trkpt>
      <trkpt lat="39.8160050" lon="2.8235930">
        <ele>560.4</ele>
        <time>2018-12-30T12:12:37Z</time>
      </trkpt>
      <trkpt lat="39.8159690" lon="2.8235490">
        <ele>561.3</ele>
        <time>2018-12-30T12:12:38Z</time>
      </trkpt>
      <trkpt lat="39.8159320" lon="2.8235050">
        <ele>562.2</ele>
        <time>2018-12-30T12:12:39Z</time>
      </trkpt>
      <trkpt lat="39.8158940" lon="2.8234600">
        <ele>563.1</ele>
        <time>2018-12-30T12:12:40Z</time>
      </trkpt>
      <trkpt lat="39.8158550" lon="2.8234150">
        <ele>563.9</ele>
        <time>2018-12-30T12:12:41Z</time>
      </trkpt>
      <trkpt lat="39.8158160" lon="2.8233690">
        <ele>564.8</ele>
        <time>2018-12-30T12:12:42Z</time>
      </trkpt>
      <trkpt lat="39.8157770" lon="2.8233240">
        <ele>565.7</ele>
        <time>2018-12-30T12:12:43Z</time>
      </trkpt>
      <trkpt lat="39.8157370" lon="2.8232790">
        <ele>566.5</ele>
        <time>2018-12-30T12:12:44Z</time>
      </trkpt>
      <trkpt lat="39.8156970" lon="2.8232340">
        <ele>567.4</ele>
        <time>2018-12-30T12:12:45Z</time>
      </trkpt>
      <trkpt lat="39.8156570" lon="2.8231880">
        <ele>568.5</ele>
        <time>2018-12-30T12:12:46Z</time>
      </trkpt>
      <trkpt lat="39.8156180" lon="2.8231420">
        <ele>569.3</ele>
        <time>2018-12-30T12:12:47Z</time>
      </trkpt>
      <trkpt lat="39.8155770" lon="2.8230950">
        <ele>570.2</ele>
        <time>2018-12-30T12:12:48Z</time>
      </trkpt>
      <trkpt lat="39.8155360" lon="2.8230460">
        <ele>571.0</ele>
        <time>2018-12-30T12:12:49Z</time>
      </trkpt>
      <trkpt lat="39.8154930" lon="2.8229980">
        <ele>571.9</ele>
        <time>2018-12-30T12:12:50Z</time>
      </trkpt>
      <trkpt lat="39.8154490" lon="2.8229490">
        <ele>572.8</ele>
        <time>2018-12-30T12:12:51Z</time>
      </trkpt>
      <trkpt lat="39.8154040" lon="2.8228990">
        <ele>573.8</ele>
        <time>2018-12-30T12:12:52Z</time>
      </trkpt>
      <trkpt lat="39.8153570" lon="2.8228470">
        <ele>574.9</ele>
        <time>2018-12-30T12:12:53Z</time>
      </trkpt>
      <trkpt lat="39.8153120" lon="2.8227910">
        <ele>576.2</ele>
        <time>2018-12-30T12:12:54Z</time>
      </trkpt>
      <trkpt lat="39.8152700" lon="2.8227310">
        <ele>577.4</ele>
        <time>2018-12-30T12:12:55Z</time>
      </trkpt>
      <trkpt lat="39.8152360" lon="2.8226640">
        <ele>578.4</ele>
        <time>2018-12-30T12:12:56Z</time>
      </trkpt>
      <trkpt lat="39.8152100" lon="2.8225910">
        <ele>579.2</ele>
        <time>2018-12-30T12:12:57Z</time>
      </trkpt>
      <trkpt lat="39.8151970" lon="2.8225130">
        <ele>580.0</ele>
        <time>2018-12-30T12:12:58Z</time>
      </trkpt>
      <trkpt lat="39.8152000" lon="2.8224350">
        <ele>579.6</ele>
        <time>2018-12-30T12:12:59Z</time>
      </trkpt>
      <trkpt lat="39.8152150" lon="2.8223550">
        <ele>578.8</ele>
        <time>2018-12-30T12:13:00Z</time>
      </trkpt>
      <trkpt lat="39.8152400" lon="2.8222740">
        <ele>578.0</ele>
        <time>2018-12-30T12:13:01Z</time>
      </trkpt>
      <trkpt lat="39.8152700" lon="2.8221960">
        <ele>577.6</ele>
        <time>2018-12-30T12:13:02Z</time>
      </trkpt>
      <trkpt lat="39.8153050" lon="2.8221260">
        <ele>577.6</ele>
        <time>2018-12-30T12:13:03Z</time>
      </trkpt>
      <trkpt lat="39.8153520" lon="2.8220740">
        <ele>577.6</ele>
        <time>2018-12-30T12:13:04Z</time>
      </trkpt>
      <trkpt lat="39.8154030" lon="2.8220280">
        <ele>577.6</ele>
        <time>2018-12-30T12:13:05Z</time>
      </trkpt>
      <trkpt lat="39.8154600" lon="2.8219920">
        <ele>577.6</ele>
        <time>2018-12-30T12:13:06Z</time>
      </trkpt>
      <trkpt lat="39.8155260" lon="2.8219680">
        <ele>577.6</ele>
        <time>2018-12-30T12:13:07Z</time>
      </trkpt>
      <trkpt lat="39.8156000" lon="2.8219660">
        <ele>577.6</ele>
        <time>2018-12-30T12:13:08Z</time>
      </trkpt>
      <trkpt lat="39.8156860" lon="2.8219800">
        <ele>577.6</ele>
        <time>2018-12-30T12:13:09Z</time>
      </trkpt>
      <trkpt lat="39.8157660" lon="2.8220020">
        <ele>577.7</ele>
        <time>2018-12-30T12:13:10Z</time>
      </trkpt>
      <trkpt lat="39.8158350" lon="2.8220320">
        <ele>577.7</ele>
        <time>2018-12-30T12:13:11Z</time>
      </trkpt>
      <trkpt lat="39.8158920" lon="2.8220640">
        <ele>577.8</ele>
        <time>2018-12-30T12:13:12Z</time>
      </trkpt>
      <trkpt lat="39.8159420" lon="2.8220940">
        <ele>577.8</ele>
        <time>2018-12-30T12:13:13Z</time>
      </trkpt>
      <trkpt lat="39.8159950" lon="2.8221160">
        <ele>577.9</ele>
        <time>2018-12-30T12:13:14Z</time>
      </trkpt>
      <trkpt lat="39.8160480" lon="2.8221290">
        <ele>578.0</ele>
        <time>2018-12-30T12:13:15Z</time>
      </trkpt>
      <trkpt lat="39.8161020" lon="2.8221310">
        <ele>578.1</ele>
        <time>2018-12-30T12:13:16Z</time>
      </trkpt>
      <trkpt lat="39.8161580" lon="2.8221170">
        <ele>578.2</ele>
        <time>2018-12-30T12:13:17Z</time>
      </trkpt>
      <trkpt lat="39.8162210" lon="2.8220850">
        <ele>578.4</ele>
        <time>2018-12-30T12:13:18Z</time>
      </trkpt>
      <trkpt lat="39.8162800" lon="2.8220460">
        <ele>578.6</ele>
        <time>2018-12-30T12:13:19Z</time>
      </trkpt>
      <trkpt lat="39.8163370" lon="2.8220050">
        <ele>578.8</ele>
        <time>2018-12-30T12:13:20Z</time>
      </trkpt>
      <trkpt lat="39.8163880" lon="2.8219670">
        <ele>579.0</ele>
        <time>2018-12-30T12:13:21Z</time>
      </trkpt>
      <trkpt lat="39.8164420" lon="2.8219280">
        <ele>579.3</ele>
        <time>2018-12-30T12:13:22Z</time>
      </trkpt>
      <trkpt lat="39.8164960" lon="2.8218870">
        <ele>579.5</ele>
        <time>2018-12-30T12:13:23Z</time>
      </trkpt>
      <trkpt lat="39.8165510" lon="2.8218440">
        <ele>579.7</ele>
        <time>2018-12-30T12:13:24Z</time>
      </trkpt>
      <trkpt lat="39.8166070" lon="2.8217970">
        <ele>580.0</ele>
        <time>2018-12-30T12:13:25Z</time>
      </trkpt>
      <trkpt lat="39.8166620" lon="2.8217480">
        <ele>580.2</ele>
        <time>2018-12-30T12:13:26Z</time>
      </trkpt>
      <trkpt lat="39.8167170" lon="2.8216960">
        <ele>580.4</ele>
        <time>2018-12-30T12:13:27Z</time>
      </trkpt>
      <trkpt lat="39.8167710" lon="2.8216420">
        <ele>580.6</ele>
        <time>2018-12-30T12:13:28Z</time>
      </trkpt>
      <trkpt lat="39.8168250" lon="2.8215860">
        <ele>580.8</ele>
        <time>2018-12-30T12:13:29Z</time>
      </trkpt>
      <trkpt lat="39.8168750" lon="2.8215310">
        <ele>581.0</ele>
        <time>2018-12-30T12:13:30Z</time>
      </trkpt>
      <trkpt lat="39.8169250" lon="2.8214770">
        <ele>581.2</ele>
        <time>2018-12-30T12:13:31Z</time>
      </trkpt>
      <trkpt lat="39.8169730" lon="2.8214240">
        <ele>581.4</ele>
        <time>2018-12-30T12:13:32Z</time>
      </trkpt>
      <trkpt lat="39.8170210" lon="2.8213720">
        <ele>581.6</ele>
        <time>2018-12-30T12:13:33Z</time>
      </trkpt>
      <trkpt lat="39.8170660" lon="2.8213220">
        <ele>581.8</ele>
        <time>2018-12-30T12:13:34Z</time>
      </trkpt>
      <trkpt lat="39.8171100" lon="2.8212750">
        <ele>582.0</ele>
        <time>2018-12-30T12:13:35Z</time>
      </trkpt>
      <trkpt lat="39.8171510" lon="2.8212290">
        <ele>582.3</ele>
        <time>2018-12-30T12:13:36Z</time>
      </trkpt>
      <trkpt lat="39.8171930" lon="2.8211850">
        <ele>582.5</ele>
        <time>2018-12-30T12:13:37Z</time>
      </trkpt>
      <trkpt lat="39.8172350" lon="2.8211420">
        <ele>582.7</ele>
        <time>2018-12-30T12:13:38Z</time>
      </trkpt>
      <trkpt lat="39.8172750" lon="2.8211000">
        <ele>583.0</ele>
        <time>2018-12-30T12:13:39Z</time>
      </trkpt>
      <trkpt lat="39.8173120" lon="2.8210570">
        <ele>583.2</ele>
        <time>2018-12-30T12:13:40Z</time>
      </trkpt>
      <trkpt lat="39.8173460" lon="2.8210130">
        <ele>583.4</ele>
        <time>2018-12-30T12:13:41Z</time>
      </trkpt>
      <trkpt lat="39.8173790" lon="2.8209680">
        <ele>583.6</ele>
        <time>2018-12-30T12:13:42Z</time>
      </trkpt>
      <trkpt lat="39.8174080" lon="2.8209210">
        <ele>583.8</ele>
        <time>2018-12-30T12:13:43Z</time>
      </trkpt>
      <trkpt lat="39.8174340" lon="2.8208720">
        <ele>584.0</ele>
        <time>2018-12-30T12:13:44Z</time>
      </trkpt>
      <trkpt lat="39.8174560" lon="2.8208230">
        <ele>584.2</ele>
        <time>2018-12-30T12:13:45Z</time>
      </trkpt>
      <trkpt lat="39.8174780" lon="2.8207740">
        <ele>584.4</ele>
        <time>2018-12-30T12:13:46Z</time>
      </trkpt>
      <trkpt lat="39.8174940" lon="2.8207180">
        <ele>584.6</ele>
        <time>2018-12-30T12:13:47Z</time>
      </trkpt>
      <trkpt lat="39.8175050" lon="2.8206560">
        <ele>584.9</ele>
        <time>2018-12-30T12:13:48Z</time>
      </trkpt>
      <trkpt lat="39.8175120" lon="2.8205900">
        <ele>585.1</ele>
        <time>2018-12-30T12:13:49Z</time>
      </trkpt>
      <trkpt lat="39.8175210" lon="2.8205270">
        <ele>585.4</ele>
        <time>2018-12-30T12:13:50Z</time>
      </trkpt>
      <trkpt lat="39.8175310" lon="2.8204660">
        <ele>585.7</ele>
        <time>2018-12-30T12:13:51Z</time>
      </trkpt>
      <trkpt lat="39.8175420" lon="2.8204050">
        <ele>586.0</ele>
        <time>2018-12-30T12:13:52Z</time>
      </trkpt>
      <trkpt lat="39.8175520" lon="2.8203440">
        <ele>586.2</ele>
        <time>2018-12-30T12:13:53Z</time>
      </trkpt>
      <trkpt lat="39.8175600" lon="2.8202800">
        <ele>586.6</ele>
        <time>2018-12-30T12:13:54Z</time>
      </trkpt>
      <trkpt lat="39.8175700" lon="2.8202160">
        <ele>586.9</ele>
        <time>2018-12-30T12:13:55Z</time>
      </trkpt>
      <trkpt lat="39.8175790" lon="2.8201490">
        <ele>587.2</ele>
        <time>2018-12-30T12:13:56Z</time>
      </trkpt>
      <trkpt lat="39.8175890" lon="2.8200810">
        <ele>587.6</ele>
        <time>2018-12-30T12:13:57Z</time>
      </trkpt>
      <trkpt lat="39.8175970" lon="2.8200130">
        <ele>587.9</ele>
        <time>2018-12-30T12:13:58Z</time>
      </trkpt>
      <trkpt lat="39.8176040" lon="2.8199480">
        <ele>588.3</ele>
        <time>2018-12-30T12:13:59Z</time>
      </trkpt>
      <trkpt lat="39.8176120" lon="2.8198870">
        <ele>588.6</ele>
        <time>2018-12-30T12:14:00Z</time>
      </trkpt>
      <trkpt lat="39.8176200" lon="2.8198260">
        <ele>588.9</ele>
        <time>2018-12-30T12:14:01Z</time>
      </trkpt>
      <trkpt lat="39.8176280" lon="2.8197660">
        <ele>589.3</ele>
        <time>2018-12-30T12:14:02Z</time>
      </trkpt>
      <trkpt lat="39.8176370" lon="2.8197060">
        <ele>589.6</ele>
        <time>2018-12-30T12:14:03Z</time>
      </trkpt>
      <trkpt lat="39.8176440" lon="2.8196470">
        <ele>589.9</ele>
        <time>2018-12-30T12:14:04Z</time>
      </trkpt>
      <trkpt lat="39.8176530" lon="2.8195850">
        <ele>590.3</ele>
        <time>2018-12-30T12:14:05Z</time>
      </trkpt>
      <trkpt lat="39.8176630" lon="2.8195230">
        <ele>590.7</ele>
        <time>2018-12-30T12:14:06Z</time>
      </trkpt>
      <trkpt lat="39.8176750" lon="2.8194640">
        <ele>591.1</ele>
        <time>2018-12-30T12:14:07Z</time>
      </trkpt>
      <trkpt lat="39.8176910" lon="2.8194090">
        <ele>591.5</ele>
        <time>2018-12-30T12:14:08Z</time>
      </trkpt>
      <trkpt lat="39.8177090" lon="2.8193560">
        <ele>591.8</ele>
        <time>2018-12-30T12:14:09Z</time>
      </trkpt>
      <trkpt lat="39.8177270" lon="2.8193050">
        <ele>592.2</ele>
        <time>2018-12-30T12:14:10Z</time>
      </trkpt>
      <trkpt lat="39.8177470" lon="2.8192560">
        <ele>592.5</ele>
        <time>2018-12-30T12:14:11Z</time>
      </trkpt>
      <trkpt lat="39.8177670" lon="2.8192090">
        <ele>592.9</ele>
        <time>2018-12-30T12:14:12Z</time>
      </trkpt>
      <trkpt lat="39.8177890" lon="2.8191620">
        <ele>593.3</ele>
        <time>2018-12-30T12:14:13Z</time>
      </trkpt>
      <trkpt lat="39.8178110" lon="2.8191150">
        <ele>593.6</ele>
        <time>2018-12-30T12:14:14Z</time>
      </trkpt>
      <trkpt lat="39.8178330" lon="2.8190670">
        <ele>594.0</ele>
        <time>2018-12-30T12:14:15Z</time>
      </trkpt>
      <trkpt lat="39.8178540" lon="2.8190170">
        <ele>594.4</ele>
        <time>2018-12-30T12:14:16Z</time>
      </trkpt>
      <trkpt lat="39.8178750" lon="2.8189660">
        <ele>594.8</ele>
        <time>2018-12-30T12:14:17Z</time>
      </trkpt>
      <trkpt lat="39.8178970" lon="2.8189170">
        <ele>595.2</ele>
        <time>2018-12-30T12:14:18Z</time>
      </trkpt>
      <trkpt lat="39.8179180" lon="2.8188690">
        <ele>595.6</ele>
        <time>2018-12-30T12:14:19Z</time>
      </trkpt>
      <trkpt lat="39.8179380" lon="2.8188210">
        <ele>595.9</ele>
        <time>2018-12-30T12:14:20Z</time>
      </trkpt>
      <trkpt lat="39.8179560" lon="2.8187720">
        <ele>596.3</ele>
        <time>2018-12-30T12:14:21Z</time>
      </trkpt>
      <trkpt lat="39.8179730" lon="2.8187230">
        <ele>596.6</ele>
        <time>2018-12-30T12:14:22Z</time>
      </trkpt>
      <trkpt lat="39.8179910" lon="2.8186740">
        <ele>597.0</ele>
        <time>2018-12-30T12:14:23Z</time>
      </trkpt>
      <trkpt lat="39.8180100" lon="2.8186280">
        <ele>597.4</ele>
        <time>2018-12-30T12:14:24Z</time>
      </trkpt>
      <trkpt lat="39.8180290" lon="2.8185820">
        <ele>597.7</ele>
        <time>2018-12-30T12:14:25Z</time>
      </trkpt>
      <trkpt lat="39.8180490" lon="2.8185380">
        <ele>598.1</ele>
        <time>2018-12-30T12:14:26Z</time>
      </trkpt>
      <trkpt lat="39.8180700" lon="2.8184930">
        <ele>598.4</ele>
        <time>2018-12-30T12:14:27Z</time>
      </trkpt>
      <trkpt lat="39.8180930" lon="2.8184480">
        <ele>598.8</ele>
        <time>2018-12-30T12:14:28Z</time>
      </trkpt>
      <trkpt lat="39.8181150" lon="2.8184040">
        <ele>599.1</ele>
        <time>2018-12-30T12:14:29Z</time>
      </trkpt>
      <trkpt lat="39.8181370" lon="2.8183590">
        <ele>599.5</ele>
        <time>2018-12-30T12:14:30Z</time>
      </trkpt>
      <trkpt lat="39.8181600" lon="2.8183170">
        <ele>599.9</ele>
        <time>2018-12-30T12:14:31Z</time>
      </trkpt>
      <trkpt lat="39.8181820" lon="2.8182770">
        <ele>600.2</ele>
        <time>2018-12-30T12:14:32Z</time>
      </trkpt>
      <trkpt lat="39.8182050" lon="2.8182380">
        <ele>600.5</ele>
        <time>2018-12-30T12:14:33Z</time>
      </trkpt>
      <trkpt lat="39.8182260" lon="2.8181970">
        <ele>600.9</ele>
        <time>2018-12-30T12:14:34Z</time>
      </trkpt>
      <trkpt lat="39.8182460" lon="2.8181540">
        <ele>601.2</ele>
        <time>2018-12-30T12:14:35Z</time>
      </trkpt>
      <trkpt lat="39.8182660" lon="2.8181100">
        <ele>601.5</ele>
        <time>2018-12-30T12:14:36Z</time>
      </trkpt>
      <trkpt lat="39.8182840" lon="2.8180630">
        <ele>601.9</ele>
        <time>2018-12-30T12:14:37Z</time>
      </trkpt>
      <trkpt lat="39.8183020" lon="2.8180180">
        <ele>602.2</ele>
        <time>2018-12-30T12:14:38Z</time>
      </trkpt>
      <trkpt lat="39.8183200" lon="2.8179760">
        <ele>602.5</ele>
        <time>2018-12-30T12:14:39Z</time>
      </trkpt>
      <trkpt lat="39.8183400" lon="2.8179380">
        <ele>602.8</ele>
        <time>2018-12-30T12:14:40Z</time>
      </trkpt>
      <trkpt lat="39.8183590" lon="2.8179000">
        <ele>603.1</ele>
        <time>2018-12-30T12:14:41Z</time>
      </trkpt>
      <trkpt lat="39.8183800" lon="2.8178640">
        <ele>603.4</ele>
        <time>2018-12-30T12:14:42Z</time>
      </trkpt>
      <trkpt lat="39.8183990" lon="2.8178280">
        <ele>603.7</ele>
        <time>2018-12-30T12:14:43Z</time>
      </trkpt>
      <trkpt lat="39.8184190" lon="2.8177920">
        <ele>604.0</ele>
        <time>2018-12-30T12:14:44Z</time>
      </trkpt>
      <trkpt lat="39.8184400" lon="2.8177550">
        <ele>604.3</ele>
        <time>2018-12-30T12:14:45Z</time>
      </trkpt>
      <trkpt lat="39.8184600" lon="2.8177190">
        <ele>604.6</ele>
        <time>2018-12-30T12:14:46Z</time>
      </trkpt>
      <trkpt lat="39.8184770" lon="2.8176810">
        <ele>604.9</ele>
        <time>2018-12-30T12:14:47Z</time>
      </trkpt>
      <trkpt lat="39.8184910" lon="2.8176430">
        <ele>605.2</ele>
        <time>2018-12-30T12:14:48Z</time>
      </trkpt>
      <trkpt lat="39.8185010" lon="2.8176010">
        <ele>605.5</ele>
        <time>2018-12-30T12:14:49Z</time>
      </trkpt>
      <trkpt lat="39.8185110" lon="2.8175610">
        <ele>605.8</ele>
        <time>2018-12-30T12:14:50Z</time>
      </trkpt>
      <trkpt lat="39.8185200" lon="2.8175190">
        <ele>606.1</ele>
        <time>2018-12-30T12:14:51Z</time>
      </trkpt>
      <trkpt lat="39.8185290" lon="2.8174720">
        <ele>606.5</ele>
        <time>2018-12-30T12:14:52Z</time>
      </trkpt>
      <trkpt lat="39.8185370" lon="2.8174250">
        <ele>606.9</ele>
        <time>2018-12-30T12:14:53Z</time>
      </trkpt>
      <trkpt lat="39.8185420" lon="2.8173770">
        <ele>607.2</ele>
        <time>2018-12-30T12:14:54Z</time>
      </trkpt>
      <trkpt lat="39.8185450" lon="2.8173320">
        <ele>607.6</ele>
        <time>2018-12-30T12:14:55Z</time>
      </trkpt>
      <trkpt lat="39.8185490" lon="2.8172870">
        <ele>607.9</ele>
        <time>2018-12-30T12:14:56Z</time>
      </trkpt>
      <trkpt lat="39.8185550" lon="2.8172430">
        <ele>608.2</ele>
        <time>2018-12-30T12:14:57Z</time>
      </trkpt>
      <trkpt lat="39.8185660" lon="2.8172020">
        <ele>608.6</ele>
        <time>2018-12-30T12:14:58Z</time>
      </trkpt>
      <trkpt lat="39.8185750" lon="2.8171600">
        <ele>608.9</ele>
        <time>2018-12-30T12:14:59Z</time>
      </trkpt>
      <trkpt lat="39.8185810" lon="2.8171170">
        <ele>609.1</ele>
        <time>2018-12-30T12:15:00Z</time>
      </trkpt>
      <trkpt lat="39.8185840" lon="2.8170720">
        <ele>609.3</ele>
        <time>2018-12-30T12:15:01Z</time>
      </trkpt>
      <trkpt lat="39.8185860" lon="2.8170280">
        <ele>609.5</ele>
        <time>2018-12-30T12:15:02Z</time>
      </trkpt>
      <trkpt lat="39.8185900" lon="2.8169830">
        <ele>609.7</ele>
        <time>2018-12-30T12:15:03Z</time>
      </trkpt>
      <trkpt lat="39.8185940" lon="2.8169400">
        <ele>609.8</ele>
        <time>2018-12-30T12:15:04Z</time>
      </trkpt>
      <trkpt lat="39.8185980" lon="2.8168980">
        <ele>610.0</ele>
        <time>2018-12-30T12:15:05Z</time>
      </trkpt>
      <trkpt lat="39.8186050" lon="2.8168590">
        <ele>610.1</ele>
        <time>2018-12-30T12:15:06Z</time>
      </trkpt>
      <trkpt lat="39.8186140" lon="2.8168240">
        <ele>610.2</ele>
        <time>2018-12-30T12:15:07Z</time>
      </trkpt>
      <trkpt lat="39.8186240" lon="2.8167920">
        <ele>610.4</ele>
        <time>2018-12-30T12:15:08Z</time>
      </trkpt>
      <trkpt lat="39.8186340" lon="2.8167610">
        <ele>610.5</ele>
        <time>2018-12-30T12:15:09Z</time>
      </trkpt>
      <trkpt lat="39.8186430" lon="2.8167290">
        <ele>610.6</ele>
        <time>2018-12-30T12:15:10Z</time>
      </trkpt>
      <trkpt lat="39.8186510" lon="2.8166940">
        <ele>610.8</ele>
        <time>2018-12-30T12:15:11Z</time>
      </trkpt>
      <trkpt lat="39.8186570" lon="2.8166590">
        <ele>610.9</ele>
        <time>2018-12-30T12:15:12Z</time>
      </trkpt>
      <trkpt lat="39.8186620" lon="2.8166160">
        <ele>611.1</ele>
        <time>2018-12-30T12:15:13Z</time>
      </trkpt>
      <trkpt lat="39.8186690" lon="2.8165720">
        <ele>611.3</ele>
        <time>2018-12-30T12:15:14Z</time>
      </trkpt>
      <trkpt lat="39.8186770" lon="2.8165270">
        <ele>611.5</ele>
        <time>2018-12-30T12:15:15Z</time>
      </trkpt>
      <trkpt lat="39.8186860" lon="2.8164850">
        <ele>611.6</ele>
        <time>2018-12-30T12:15:16Z</time>
      </trkpt>
      <trkpt lat="39.8186920" lon="2.8164410">
        <ele>611.8</ele>
        <time>2018-12-30T12:15:17Z</time>
      </trkpt>
      <trkpt lat="39.8186930" lon="2.8164000">
        <ele>612.0</ele>
        <time>2018-12-30T12:15:18Z</time>
      </trkpt>
      <trkpt lat="39.8186920" lon="2.8163600">
        <ele>612.1</ele>
        <time>2018-12-30T12:15:19Z</time>
      </trkpt>
      <trkpt lat="39.8186930" lon="2.8163220">
        <ele>612.3</ele>
        <time>2018-12-30T12:15:20Z</time>
      </trkpt>
      <trkpt lat="39.8186960" lon="2.8162820">
        <ele>612.4</ele>
        <time>2018-12-30T12:15:21Z</time>
      </trkpt>
      <trkpt lat="39.8187000" lon="2.8162420">
        <ele>612.6</ele>
        <time>2018-12-30T12:15:22Z</time>
      </trkpt>
      <trkpt lat="39.8187030" lon="2.8162040">
        <ele>612.8</ele>
        <time>2018-12-30T12:15:23Z</time>
      </trkpt>
      <trkpt lat="39.8187040" lon="2.8161720">
        <ele>613.0</ele>
        <time>2018-12-30T12:15:24Z</time>
      </trkpt>
      <trkpt lat="39.8187050" lon="2.8161380">
        <ele>613.1</ele>
        <time>2018-12-30T12:15:25Z</time>
      </trkpt>
      <trkpt lat="39.8187070" lon="2.8161010">
        <ele>613.3</ele>
        <time>2018-12-30T12:15:26Z</time>
      </trkpt>
      <trkpt lat="39.8187150" lon="2.8160630">
        <ele>613.5</ele>
        <time>2018-12-30T12:15:27Z</time>
      </trkpt>
      <trkpt lat="39.8187210" lon="2.8160230">
        <ele>613.7</ele>
        <time>2018-12-30T12:15:28Z</time>
      </trkpt>
      <trkpt lat="39.8187270" lon="2.8159790">
        <ele>613.9</ele>
        <time>2018-12-30T12:15:29Z</time>
      </trkpt>
      <trkpt lat="39.8187300" lon="2.8159320">
        <ele>614.1</ele>
        <time>2018-12-30T12:15:30Z</time>
      </trkpt>
      <trkpt lat="39.8187360" lon="2.8158870">
        <ele>614.4</ele>
        <time>2018-12-30T12:15:31Z</time>
      </trkpt>
      <trkpt lat="39.8187400" lon="2.8158450">
        <ele>614.6</ele>
        <time>2018-12-30T12:15:32Z</time>
      </trkpt>
      <trkpt lat="39.8187440" lon="2.8158020">
        <ele>614.8</ele>
        <time>2018-12-30T12:15:33Z</time>
      </trkpt>
      <trkpt lat="39.8187460" lon="2.8157580">
        <ele>615.1</ele>
        <time>2018-12-30T12:15:34Z</time>
      </trkpt>
      <trkpt lat="39.8187470" lon="2.8157120">
        <ele>615.4</ele>
        <time>2018-12-30T12:15:35Z</time>
      </trkpt>
      <trkpt lat="39.8187470" lon="2.8156670">
        <ele>615.6</ele>
        <time>2018-12-30T12:15:36Z</time>
      </trkpt>
      <trkpt lat="39.8187500" lon="2.8156240">
        <ele>615.9</ele>
        <time>2018-12-30T12:15:37Z</time>
      </trkpt>
      <trkpt lat="39.8187540" lon="2.8155840">
        <ele>616.2</ele>
        <time>2018-12-30T12:15:38Z</time>
      </trkpt>
      <trkpt lat="39.8187570" lon="2.8155430">
        <ele>616.4</ele>
        <time>2018-12-30T12:15:39Z</time>
      </trkpt>
      <trkpt lat="39.8187600" lon="2.8155040">
        <ele>616.6</ele>
        <time>2018-12-30T12:15:40Z</time>
      </trkpt>
      <trkpt lat="39.8187640" lon="2.8154650">
        <ele>616.9</ele>
        <time>2018-12-30T12:15:41Z</time>
      </trkpt>
      <trkpt lat="39.8187710" lon="2.8154280">
        <ele>617.1</ele>
        <time>2018-12-30T12:15:42Z</time>
      </trkpt>
      <trkpt lat="39.8187820" lon="2.8153910">
        <ele>617.3</ele>
        <time>2018-12-30T12:15:43Z</time>
      </trkpt>
      <trkpt lat="39.8187960" lon="2.8153540">
        <ele>617.6</ele>
        <time>2018-12-30T12:15:44Z</time>
      </trkpt>
      <trkpt lat="39.8188160" lon="2.8153180">
        <ele>617.8</ele>
        <time>2018-12-30T12:15:45Z</time>
      </trkpt>
      <trkpt lat="39.8188380" lon="2.8152820">
        <ele>618.1</ele>
        <time>2018-12-30T12:15:46Z</time>
      </trkpt>
      <trkpt lat="39.8188640" lon="2.8152510">
        <ele>618.3</ele>
        <time>2018-12-30T12:15:47Z</time>
      </trkpt>
      <trkpt lat="39.8188900" lon="2.8152250">
        <ele>618.5</ele>
        <time>2018-12-30T12:15:48Z</time>
      </trkpt>
      <trkpt lat="39.8189160" lon="2.8152070">
        <ele>618.8</ele>
        <time>2018-12-30T12:15:49Z</time>
      </trkpt>
      <trkpt lat="39.8189450" lon="2.8151960">
        <ele>619.0</ele>
        <time>2018-12-30T12:15:50Z</time>
      </trkpt>
      <trkpt lat="39.8189770" lon="2.8151920">
        <ele>619.2</ele>
        <time>2018-12-30T12:15:51Z</time>
      </trkpt>
      <trkpt lat="39.8190100" lon="2.8151920">
        <ele>619.5</ele>
        <time>2018-12-30T12:15:52Z</time>
      </trkpt>
      <trkpt lat="39.8190430" lon="2.8151960">
        <ele>619.7</ele>
        <time>2018-12-30T12:15:53Z</time>
      </trkpt>
      <trkpt lat="39.8190760" lon="2.8151990">
        <ele>620.0</ele>
        <time>2018-12-30T12:15:54Z</time>
      </trkpt>
      <trkpt lat="39.8191100" lon="2.8152030">
        <ele>620.2</ele>
        <time>2018-12-30T12:15:55Z</time>
      </trkpt>
      <trkpt lat="39.8191440" lon="2.8152070">
        <ele>620.3</ele>
        <time>2018-12-30T12:15:56Z</time>
      </trkpt>
      <trkpt lat="39.8191770" lon="2.8152120">
        <ele>620.5</ele>
        <time>2018-12-30T12:15:57Z</time>
      </trkpt>
      <trkpt lat="39.8192090" lon="2.8152170">
        <ele>620.7</ele>
        <time>2018-12-30T12:15:58Z</time>
      </trkpt>
      <trkpt lat="39.8192400" lon="2.8152230">
        <ele>620.8</ele>
        <time>2018-12-30T12:15:59Z</time>
      </trkpt>
      <trkpt lat="39.8192700" lon="2.8152280">
        <ele>621.0</ele>
        <time>2018-12-30T12:16:00Z</time>
      </trkpt>
      <trkpt lat="39.8193000" lon="2.8152350">
        <ele>621.1</ele>
        <time>2018-12-30T12:16:01Z</time>
      </trkpt>
      <trkpt lat="39.8193290" lon="2.8152410">
        <ele>621.3</ele>
        <time>2018-12-30T12:16:02Z</time>
      </trkpt>
      <trkpt lat="39.8193560" lon="2.8152500">
        <ele>621.4</ele>
        <time>2018-12-30T12:16:03Z</time>
      </trkpt>
      <trkpt lat="39.8193830" lon="2.8152630">
        <ele>621.5</ele>
        <time>2018-12-30T12:16:04Z</time>
      </trkpt>
      <trkpt lat="39.8194120" lon="2.8152840">
        <ele>621.6</ele>
        <time>2018-12-30T12:16:05Z</time>
      </trkpt>
      <trkpt lat="39.8194450" lon="2.8153060">
        <ele>621.8</ele>
        <time>2018-12-30T12:16:06Z</time>
      </trkpt>
      <trkpt lat="39.8194770" lon="2.8153320">
        <ele>621.9</ele>
        <time>2018-12-30T12:16:07Z</time>
      </trkpt>
      <trkpt lat="39.8195090" lon="2.8153570">
        <ele>622.0</ele>
        <time>2018-12-30T12:16:08Z</time>
      </trkpt>
      <trkpt lat="39.8195380" lon="2.8153840">
        <ele>622.2</ele>
        <time>2018-12-30T12:16:09Z</time>
      </trkpt>
      <trkpt lat="39.8195660" lon="2.8154110">
        <ele>622.4</ele>
        <time>2018-12-30T12:16:10Z</time>
      </trkpt>
      <trkpt lat="39.8195930" lon="2.8154380">
        <ele>622.6</ele>
        <time>2018-12-30T12:16:11Z</time>
      </trkpt>
      <trkpt lat="39.8196190" lon="2.8154650">
        <ele>622.7</ele>
        <time>2018-12-30T12:16:12Z</time>
      </trkpt>
      <trkpt lat="39.8196430" lon="2.8154940">
        <ele>622.8</ele>
        <time>2018-12-30T12:16:13Z</time>
      </trkpt>
      <trkpt lat="39.8196660" lon="2.8155250">
        <ele>622.9</ele>
        <time>2018-12-30T12:16:14Z</time>
      </trkpt>
      <trkpt lat="39.8196880" lon="2.8155580">
        <ele>623.1</ele>
        <time>2018-12-30T12:16:15Z</time>
      </trkpt>
      <trkpt lat="39.8197080" lon="2.8155910">
        <ele>623.2</ele>
        <time>2018-12-30T12:16:16Z</time>
      </trkpt>
      <trkpt lat="39.8197290" lon="2.8156240">
        <ele>623.3</ele>
        <time>2018-12-30T12:16:17Z</time>
      </trkpt>
      <trkpt lat="39.8197500" lon="2.8156570">
        <ele>623.5</ele>
        <time>2018-12-30T12:16:18Z</time>
      </trkpt>
      <trkpt lat="39.8197710" lon="2.8156880">
        <ele>623.6</ele>
        <time>2018-12-30T12:16:19Z</time>
      </trkpt>
      <trkpt lat="39.8197910" lon="2.8157180">
        <ele>623.8</ele>
        <time>2018-12-30T12:16:20Z</time>
      </trkpt>
      <trkpt lat="39.8198100" lon="2.8157460">
        <ele>623.9</ele>
        <time>2018-12-30T12:16:21Z</time>
      </trkpt>
      <trkpt lat="39.8198290" lon="2.8157750">
        <ele>624.1</ele>
        <time>2018-12-30T12:16:22Z</time>
      </trkpt>
      <trkpt lat="39.8198460" lon="2.8158030">
        <ele>624.3</ele>
        <time>2018-12-30T12:16:23Z</time>
      </trkpt>
      <trkpt lat="39.8198640" lon="2.8158320">
        <ele>624.5</ele>
        <time>2018-12-30T12:16:24Z</time>
      </trkpt>
      <trkpt lat="39.8198810" lon="2.8158610">
        <ele>624.7</ele>
        <time>2018-12-30T12:16:25Z</time>
      </trkpt>
      <trkpt lat="39.8198990" lon="2.8158930">
        <ele>624.9</ele>
        <time>2018-12-30T12:16:26Z</time>
      </trkpt>
      <trkpt lat="39.8199180" lon="2.8159260">
        <ele>625.1</ele>
        <time>2018-12-30T12:16:27Z</time>
      </trkpt>
      <trkpt lat="39.8199390" lon="2.8159590">
        <ele>625.3</ele>
        <time>2018-12-30T12:16:28Z</time>
      </trkpt>
      <trkpt lat="39.8199630" lon="2.8159880">
        <ele>625.5</ele>
        <time>2018-12-30T12:16:29Z</time>
      </trkpt>
      <trkpt lat="39.8199880" lon="2.8160150">
        <ele>625.8</ele>
        <time>2018-12-30T12:16:30Z</time>
      </trkpt>
      <trkpt lat="39.8200160" lon="2.8160380">
        <ele>626.1</ele>
        <time>2018-12-30T12:16:31Z</time>
      </trkpt>
      <trkpt lat="39.8200460" lon="2.8160600">
        <ele>626.4</ele>
        <time>2018-12-30T12:16:32Z</time>
      </trkpt>
      <trkpt lat="39.8200770" lon="2.8160770">
        <ele>626.6</ele>
        <time>2018-12-30T12:16:33Z</time>
      </trkpt>
      <trkpt lat="39.8201070" lon="2.8160900">
        <ele>626.9</ele>
        <time>2018-12-30T12:16:34Z</time>
      </trkpt>
      <trkpt lat="39.8201370" lon="2.8160990">
        <ele>627.2</ele>
        <time>2018-12-30T12:16:35Z</time>
      </trkpt>
      <trkpt lat="39.8201680" lon="2.8160970">
        <ele>627.5</ele>
        <time>2018-12-30T12:16:36Z</time>
      </trkpt>
      <trkpt lat="39.8201990" lon="2.8160870">
        <ele>627.8</ele>
        <time>2018-12-30T12:16:37Z</time>
      </trkpt>
      <trkpt lat="39.8202290" lon="2.8160710">
        <ele>628.2</ele>
        <time>2018-12-30T12:16:38Z</time>
      </trkpt>
      <trkpt lat="39.8202560" lon="2.8160530">
        <ele>628.5</ele>
        <time>2018-12-30T12:16:39Z</time>
      </trkpt>
      <trkpt lat="39.8202820" lon="2.8160310">
        <ele>628.9</ele>
        <time>2018-12-30T12:16:40Z</time>
      </trkpt>
      <trkpt lat="39.8203070" lon="2.8160060">
        <ele>629.2</ele>
        <time>2018-12-30T12:16:41Z</time>
      </trkpt>
      <trkpt lat="39.8203320" lon="2.8159780">
        <ele>629.5</ele>
        <time>2018-12-30T12:16:42Z</time>
      </trkpt>
      <trkpt lat="39.8203560" lon="2.8159500">
        <ele>629.8</ele>
        <time>2018-12-30T12:16:43Z</time>
      </trkpt>
      <trkpt lat="39.8203810" lon="2.8159210">
        <ele>630.1</ele>
        <time>2018-12-30T12:16:44Z</time>
      </trkpt>
      <trkpt lat="39.8204070" lon="2.8158920">
        <ele>630.5</ele>
        <time>2018-12-30T12:16:45Z</time>
      </trkpt>
      <trkpt lat="39.8204320" lon="2.8158630">
        <ele>630.8</ele>
        <time>2018-12-30T12:16:46Z</time>
      </trkpt>
      <trkpt lat="39.8204560" lon="2.8158330">
        <ele>631.1</ele>
        <time>2018-12-30T12:16:47Z</time>
      </trkpt>
      <trkpt lat="39.8204780" lon="2.8158030">
        <ele>631.4</ele>
        <time>2018-12-30T12:16:48Z</time>
      </trkpt>
      <trkpt lat="39.8205010" lon="2.8157740">
        <ele>631.7</ele>
        <time>2018-12-30T12:16:49Z</time>
      </trkpt>
      <trkpt lat="39.8205250" lon="2.8157460">
        <ele>632.0</ele>
        <time>2018-12-30T12:16:50Z</time>
      </trkpt>
      <trkpt lat="39.8205490" lon="2.8157170">
        <ele>632.3</ele>
        <time>2018-12-30T12:16:51Z</time>
      </trkpt>
      <trkpt lat="39.8205730" lon="2.8156870">
        <ele>632.6</ele>
        <time>2018-12-30T12:16:52Z</time>
      </trkpt>
      <trkpt lat="39.8205960" lon="2.8156570">
        <ele>632.8</ele>
        <time>2018-12-30T12:16:53Z</time>
      </trkpt>
      <trkpt lat="39.8206190" lon="2.8156250">
        <ele>633.1</ele>
        <time>2018-12-30T12:16:54Z</time>
      </trkpt>
      <trkpt lat="39.8206410" lon="2.8155920">
        <ele>633.3</ele>
        <time>2018-12-30T12:16:55Z</time>
      </trkpt>
      <trkpt lat="39.8206630" lon="2.8155600">
        <ele>633.5</ele>
        <time>2018-12-30T12:16:56Z</time>
      </trkpt>
      <trkpt lat="39.8206840" lon="2.8155290">
        <ele>633.7</ele>
        <time>2018-12-30T12:16:57Z</time>
      </trkpt>
      <trkpt lat="39.8207060" lon="2.8155000">
        <ele>633.9</ele>
        <time>2018-12-30T12:16:58Z</time>
      </trkpt>
      <trkpt lat="39.8207300" lon="2.8154700">
        <ele>634.2</ele>
        <time>2018-12-30T12:16:59Z</time>
      </trkpt>
      <trkpt lat="39.8207540" lon="2.8154390">
        <ele>634.4</ele>
        <time>2018-12-30T12:17:00Z</time>
      </trkpt>
      <trkpt lat="39.8207770" lon="2.8154070">
        <ele>634.6</ele>
        <time>2018-12-30T12:17:01Z</time>
      </trkpt>
      <trkpt lat="39.8208020" lon="2.8153770">
        <ele>634.8</ele>
        <time>2018-12-30T12:17:02Z</time>
      </trkpt>
      <trkpt lat="39.8208290" lon="2.8153490">
        <ele>635.0</ele>
        <time>2018-12-30T12:17:03Z</time>
      </trkpt>
      <trkpt lat="39.8208560" lon="2.8153210">
        <ele>635.2</ele>
        <time>2018-12-30T12:17:04Z</time>
      </trkpt>
      <trkpt lat="39.8208810" lon="2.8152920">
        <ele>635.3</ele>
        <time>2018-12-30T12:17:05Z</time>
      </trkpt>
      <trkpt lat="39.8209060" lon="2.8152640">
        <ele>635.5</ele>
        <time>2018-12-30T12:17:06Z</time>
      </trkpt>
      <trkpt lat="39.8209330" lon="2.8152400">
        <ele>635.6</ele>
        <time>2018-12-30T12:17:07Z</time>
      </trkpt>
      <trkpt lat="39.8209600" lon="2.8152180">
        <ele>635.8</ele>
        <time>2018-12-30T12:17:08Z</time>
      </trkpt>
      <trkpt lat="39.8209880" lon="2.8151990">
        <ele>635.9</ele>
        <time>2018-12-30T12:17:09Z</time>
      </trkpt>
      <trkpt lat="39.8210170" lon="2.8151820">
        <ele>636.0</ele>
        <time>2018-12-30T12:17:10Z</time>
      </trkpt>
      <trkpt lat="39.8210460" lon="2.8151690">
        <ele>636.2</ele>
        <time>2018-12-30T12:17:11Z</time>
      </trkpt>
      <trkpt lat="39.8210770" lon="2.8151610">
        <ele>636.3</ele>
        <time>2018-12-30T12:17:12Z</time>
      </trkpt>
      <trkpt lat="39.8211090" lon="2.8151550">
        <ele>636.5</ele>
        <time>2018-12-30T12:17:13Z</time>
      </trkpt>
      <trkpt lat="39.8211420" lon="2.8151500">
        <ele>636.7</ele>
        <time>2018-12-30T12:17:14Z</time>
      </trkpt>
      <trkpt lat="39.8211710" lon="2.8151460">
        <ele>636.9</ele>
        <time>2018-12-30T12:17:15Z</time>
      </trkpt>
      <trkpt lat="39.8211940" lon="2.8151410">
        <ele>637.0</ele>
        <time>2018-12-30T12:17:16Z</time>
      </trkpt>
      <trkpt lat="39.8212130" lon="2.8151370">
        <ele>637.1</ele>
        <time>2018-12-30T12:17:17Z</time>
      </trkpt>
      <trkpt lat="39.8212320" lon="2.8151360">
        <ele>637.2</ele>
        <time>2018-12-30T12:17:18Z</time>
      </trkpt>
      <trkpt lat="39.8212540" lon="2.8151390">
        <ele>637.3</ele>
        <time>2018-12-30T12:17:19Z</time>
      </trkpt>
      <trkpt lat="39.8212790" lon="2.8151460">
        <ele>637.5</ele>
        <time>2018-12-30T12:17:20Z</time>
      </trkpt>
      <trkpt lat="39.8213060" lon="2.8151520">
        <ele>637.6</ele>
        <time>2018-12-30T12:17:21Z</time>
      </trkpt>
      <trkpt lat="39.8213350" lon="2.8151580">
        <ele>637.8</ele>
        <time>2018-12-30T12:17:22Z</time>
      </trkpt>
      <trkpt lat="39.8213620" lon="2.8151650">
        <ele>637.9</ele>
        <time>2018-12-30T12:17:23Z</time>
      </trkpt>
      <trkpt lat="39.8213900" lon="2.8151750">
        <ele>638.0</ele>
        <time>2018-12-30T12:17:24Z</time>
      </trkpt>
      <trkpt lat="39.8214180" lon="2.8151840">
        <ele>638.1</ele>
        <time>2018-12-30T12:17:25Z</time>
      </trkpt>
      <trkpt lat="39.8214490" lon="2.8151920">
        <ele>638.3</ele>
        <time>2018-12-30T12:17:26Z</time>
      </trkpt>
      <trkpt lat="39.8214810" lon="2.8152010">
        <ele>638.4</ele>
        <time>2018-12-30T12:17:27Z</time>
      </trkpt>
      <trkpt lat="39.8215120" lon="2.8152120">
        <ele>638.6</ele>
        <time>2018-12-30T12:17:28Z</time>
      </trkpt>
      <trkpt lat="39.8215430" lon="2.8152250">
        <ele>638.8</ele>
        <time>2018-12-30T12:17:29Z</time>
      </trkpt>
      <trkpt lat="39.8215720" lon="2.8152370">
        <ele>639.0</ele>
        <time>2018-12-30T12:17:30Z</time>
      </trkpt>
      <trkpt lat="39.8216000" lon="2.8152500">
        <ele>639.2</ele>
        <time>2018-12-30T12:17:31Z</time>
      </trkpt>
      <trkpt lat="39.8216280" lon="2.8152600">
        <ele>639.5</ele>
        <time>2018-12-30T12:17:32Z</time>
      </trkpt>
      <trkpt lat="39.8216550" lon="2.8152700">
        <ele>639.7</ele>
        <time>2018-12-30T12:17:33Z</time>
      </trkpt>
      <trkpt lat="39.8216810" lon="2.8152790">
        <ele>639.9</ele>
        <time>2018-12-30T12:17:34Z</time>
      </trkpt>
      <trkpt lat="39.8217070" lon="2.8152880">
        <ele>640.1</ele>
        <time>2018-12-30T12:17:35Z</time>
      </trkpt>
      <trkpt lat="39.8217330" lon="2.8152950">
        <ele>640.3</ele>
        <time>2018-12-30T12:17:36Z</time>
      </trkpt>
      <trkpt lat="39.8217590" lon="2.8152990">
        <ele>640.5</ele>
        <time>2018-12-30T12:17:37Z</time>
      </trkpt>
      <trkpt lat="39.8217840" lon="2.8153010">
        <ele>640.8</ele>
        <time>2018-12-30T12:17:38Z</time>
      </trkpt>
      <trkpt lat="39.8218090" lon="2.8153010">
        <ele>641.0</ele>
        <time>2018-12-30T12:17:39Z</time>
      </trkpt>
      <trkpt lat="39.8218330" lon="2.8152950">
        <ele>641.2</ele>
        <time>2018-12-30T12:17:40Z</time>
      </trkpt>
      <trkpt lat="39.8218540" lon="2.8152810">
        <ele>641.5</ele>
        <time>2018-12-30T12:17:41Z</time>
      </trkpt>
      <trkpt lat="39.8218720" lon="2.8152590">
        <ele>641.7</ele>
        <time>2018-12-30T12:17:42Z</time>
      </trkpt>
      <trkpt lat="39.8218860" lon="2.8152320">
        <ele>642.0</ele>
        <time>2018-12-30T12:17:43Z</time>
      </trkpt>
      <trkpt lat="39.8218950" lon="2.8152020">
        <ele>642.3</ele>
        <time>2018-12-30T12:17:44Z</time>
      </trkpt>
      <trkpt lat="39.8218980" lon="2.8151700">
        <ele>642.6</ele>
        <time>2018-12-30T12:17:45Z</time>
      </trkpt>
      <trkpt lat="39.8218930" lon="2.8151400">
        <ele>642.8</ele>
        <time>2018-12-30T12:17:46Z</time>
      </trkpt>
      <trkpt lat="39.8218800" lon="2.8151130">
        <ele>643.1</ele>
        <time>2018-12-30T12:17:47Z</time>
      </trkpt>
      <trkpt lat="39.8218590" lon="2.8150900">
        <ele>643.4</ele>
        <time>2018-12-30T12:17:48Z</time>
      </trkpt>
      <trkpt lat="39.8218340" lon="2.8150690">
        <ele>643.7</ele>
        <time>2018-12-30T12:17:49Z</time>
      </trkpt>
      <trkpt lat="39.8218080" lon="2.8150510">
        <ele>644.0</ele>
        <time>2018-12-30T12:17:50Z</time>
      </trkpt>
      <trkpt lat="39.8217810" lon="2.8150340">
        <ele>644.3</ele>
        <time>2018-12-30T12:17:51Z</time>
      </trkpt>
      <trkpt lat="39.8217540" lon="2.8150190">
        <ele>644.6</ele>
        <time>2018-12-30T12:17:52Z</time>
      </trkpt>
      <trkpt lat="39.8217250" lon="2.8150050">
        <ele>645.0</ele>
        <time>2018-12-30T12:17:53Z</time>
      </trkpt>
      <trkpt lat="39.8216950" lon="2.8149920">
        <ele>645.3</ele>
        <time>2018-12-30T12:17:54Z</time>
      </trkpt>
      <trkpt lat="39.8216650" lon="2.8149790">
        <ele>645.6</ele>
        <time>2018-12-30T12:17:55Z</time>
      </trkpt>
      <trkpt lat="39.8216350" lon="2.8149620">
        <ele>645.8</ele>
        <time>2018-12-30T12:17:56Z</time>
      </trkpt>
      <trkpt lat="39.8216060" lon="2.8149410">
        <ele>646.1</ele>
        <time>2018-12-30T12:17:57Z</time>
      </trkpt>
      <trkpt lat="39.8215790" lon="2.8149190">
        <ele>646.3</ele>
        <time>2018-12-30T12:17:58Z</time>
      </trkpt>
      <trkpt lat="39.8215520" lon="2.8148980">
        <ele>646.5</ele>
        <time>2018-12-30T12:17:59Z</time>
      </trkpt>
      <trkpt lat="39.8215260" lon="2.8148770">
        <ele>646.7</ele>
        <time>2018-12-30T12:18:00Z</time>
      </trkpt>
      <trkpt lat="39.8215010" lon="2.8148550">
        <ele>647.0</ele>
        <time>2018-12-30T12:18:01Z</time>
      </trkpt>
      <trkpt lat="39.8214780" lon="2.8148320">
        <ele>647.2</ele>
        <time>2018-12-30T12:18:02Z</time>
      </trkpt>
      <trkpt lat="39.8214530" lon="2.8148080">
        <ele>647.4</ele>
        <time>2018-12-30T12:18:03Z</time>
      </trkpt>
      <trkpt lat="39.8214290" lon="2.8147840">
        <ele>647.6</ele>
        <time>2018-12-30T12:18:04Z</time>
      </trkpt>
      <trkpt lat="39.8214030" lon="2.8147600">
        <ele>647.9</ele>
        <time>2018-12-30T12:18:05Z</time>
      </trkpt>
      <trkpt lat="39.8213770" lon="2.8147360">
        <ele>648.1</ele>
        <time>2018-12-30T12:18:06Z</time>
      </trkpt>
      <trkpt lat="39.8213510" lon="2.8147110">
        <ele>648.3</ele>
        <time>2018-12-30T12:18:07Z</time>
      </trkpt>
      <trkpt lat="39.8213260" lon="2.8146870">
        <ele>648.6</ele>
        <time>2018-12-30T12:18:08Z</time>
      </trkpt>
      <trkpt lat="39.8212990" lon="2.8146660">
        <ele>648.8</ele>
        <time>2018-12-30T12:18:09Z</time>
      </trkpt>
      <trkpt lat="39.8212710" lon="2.8146460">
        <ele>649.0</ele>
        <time>2018-12-30T12:18:10Z</time>
      </trkpt>
      <trkpt lat="39.8212430" lon="2.8146270">
        <ele>649.2</ele>
        <time>2018-12-30T12:18:11Z</time>
      </trkpt>
      <trkpt lat="39.8212130" lon="2.8146100">
        <ele>649.4</ele>
        <time>2018-12-30T12:18:12Z</time>
      </trkpt>
      <trkpt lat="39.8211830" lon="2.8145950">
        <ele>649.6</ele>
        <time>2018-12-30T12:18:13Z</time>
      </trkpt>
      <trkpt lat="39.8211520" lon="2.8145810">
        <ele>649.8</ele>
        <time>2018-12-30T12:18:14Z</time>
      </trkpt>
      <trkpt lat="39.8211210" lon="2.8145690">
        <ele>650.1</ele>
        <time>2018-12-30T12:18:15Z</time>
      </trkpt>
      <trkpt lat="39.8210890" lon="2.8145590">
        <ele>650.3</ele>
        <time>2018-12-30T12:18:16Z</time>
      </trkpt>
      <trkpt lat="39.8210560" lon="2.8145520">
        <ele>650.4</ele>
        <time>2018-12-30T12:18:17Z</time>
      </trkpt>
      <trkpt lat="39.8210240" lon="2.8145470">
        <ele>650.6</ele>
        <time>2018-12-30T12:18:18Z</time>
      </trkpt>
      <trkpt lat="39.8209920" lon="2.8145450">
        <ele>650.8</ele>
        <time>2018-12-30T12:18:19Z</time>
      </trkpt>
      <trkpt lat="39.8209600" lon="2.8145460">
        <ele>651.0</ele>
        <time>2018-12-30T12:18:20Z</time>
      </trkpt>
      <trkpt lat="39.8209280" lon="2.8145480">
        <ele>651.2</ele>
        <time>2018-12-30T12:18:21Z</time>
      </trkpt>
      <trkpt lat="39.8208950" lon="2.8145520">
        <ele>651.4</ele>
        <time>2018-12-30T12:18:22Z</time>
      </trkpt>
      <trkpt lat="39.8208620" lon="2.8145570">
        <ele>651.5</ele>
        <time>2018-12-30T12:18:23Z</time>
      </trkpt>
      <trkpt lat="39.8208290" lon="2.8145640">
        <ele>651.7</ele>
        <time>2018-12-30T12:18:24Z</time>
      </trkpt>
      <trkpt lat="39.8207960" lon="2.8145710">
        <ele>651.9</ele>
        <time>2018-12-30T12:18:25Z</time>
      </trkpt>
      <trkpt lat="39.8207630" lon="2.8145760">
        <ele>652.1</ele>
        <time>2018-12-30T12:18:26Z</time>
      </trkpt>
      <trkpt lat="39.8207310" lon="2.8145730">
        <ele>652.3</ele>
        <time>2018-12-30T12:18:27Z</time>
      </trkpt>
      <trkpt lat="39.8207010" lon="2.8145600">
        <ele>652.6</ele>
        <time>2018-12-30T12:18:28Z</time>
      </trkpt>
      <trkpt lat="39.8206740" lon="2.8145400">
        <ele>652.8</ele>
        <time>2018-12-30T12:18:29Z</time>
      </trkpt>
      <trkpt lat="39.8206490" lon="2.8145150">
        <ele>653.1</ele>
        <time>2018-12-30T12:18:30Z</time>
      </trkpt>
      <trkpt lat="39.8206290" lon="2.8144860">
        <ele>653.3</ele>
        <time>2018-12-30T12:18:31Z</time>
      </trkpt>
      <trkpt lat="39.8206150" lon="2.8144510">
        <ele>653.5</ele>
        <time>2018-12-30T12:18:32Z</time>
      </trkpt>
      <trkpt lat="39.8206080" lon="2.8144120">
        <ele>653.7</ele>
        <time>2018-12-30T12:18:33Z</time>
      </trkpt>
      <trkpt lat="39.8206090" lon="2.8143730">
        <ele>654.0</ele>
        <time>2018-12-30T12:18:34Z</time>
      </trkpt>
      <trkpt lat="39.8206190" lon="2.8143360">
        <ele>654.2</ele>
        <time>2018-12-30T12:18:35Z</time>
      </trkpt>
      <trkpt lat="39.8206380" lon="2.8143090">
        <ele>654.4</ele>
        <time>2018-12-30T12:18:36Z</time>
      </trkpt>
      <trkpt lat="39.8206640" lon="2.8142920">
        <ele>654.6</ele>
        <time>2018-12-30T12:18:37Z</time>
      </trkpt>
      <trkpt lat="39.8206920" lon="2.8142860">
        <ele>654.9</ele>
        <time>2018-12-30T12:18:38Z</time>
      </trkpt>
      <trkpt lat="39.8207200" lon="2.8142850">
        <ele>655.1</ele>
        <time>2018-12-30T12:18:39Z</time>
      </trkpt>
      <trkpt lat="39.8207480" lon="2.8142870">
        <ele>655.3</ele>
        <time>2018-12-30T12:18:40Z</time>
      </trkpt>
      <trkpt lat="39.8207770" lon="2.8142930">
        <ele>655.6</ele>
        <time>2018-12-30T12:18:41Z</time>
      </trkpt>
      <trkpt lat="39.8208070" lon="2.8143000">
        <ele>655.8</ele>
        <time>2018-12-30T12:18:42Z</time>
      </trkpt>
      <trkpt lat="39.8208380" lon="2.8143100">
        <ele>656.2</ele>
        <time>2018-12-30T12:18:43Z</time>
      </trkpt>
      <trkpt lat="39.8208700" lon="2.8143200">
        <ele>656.5</ele>
        <time>2018-12-30T12:18:44Z</time>
      </trkpt>
      <trkpt lat="39.8209000" lon="2.8143290">
        <ele>656.8</ele>
        <time>2018-12-30T12:18:45Z</time>
      </trkpt>
      <trkpt lat="39.8209300" lon="2.8143400">
        <ele>657.1</ele>
        <time>2018-12-30T12:18:46Z</time>
      </trkpt>
      <trkpt lat="39.8209600" lon="2.8143500">
        <ele>657.4</ele>
        <time>2018-12-30T12:18:47Z</time>
      </trkpt>
      <trkpt lat="39.8209910" lon="2.8143590">
        <ele>657.7</ele>
        <time>2018-12-30T12:18:48Z</time>
      </trkpt>
      <trkpt lat="39.8210200" lon="2.8143680">
        <ele>657.9</ele>
        <time>2018-12-30T12:18:49Z</time>
      </trkpt>
      <trkpt lat="39.8210500" lon="2.8143750">
        <ele>658.3</ele>
        <time>2018-12-30T12:18:50Z</time>
      </trkpt>
      <trkpt lat="39.8210810" lon="2.8143820">
        <ele>658.7</ele>
        <time>2018-12-30T12:18:51Z</time>
      </trkpt>
      <trkpt lat="39.8211130" lon="2.8143880">
        <ele>659.0</ele>
        <time>2018-12-30T12:18:52Z</time>
      </trkpt>
      <trkpt lat="39.8211440" lon="2.8143950">
        <ele>659.3</ele>
        <time>2018-12-30T12:18:53Z</time>
      </trkpt>
      <trkpt lat="39.8211750" lon="2.8144020">
        <ele>659.5</ele>
        <time>2018-12-30T12:18:54Z</time>
      </trkpt>
      <trkpt lat="39.8212050" lon="2.8144080">
        <ele>659.7</ele>
        <time>2018-12-30T12:18:55Z</time>
      </trkpt>
      <trkpt lat="39.8212350" lon="2.8144110">
        <ele>659.9</ele>
        <time>2018-12-30T12:18:56Z</time>
      </trkpt>
      <trkpt lat="39.8212650" lon="2.8144140">
        <ele>660.1</ele>
        <time>2018-12-30T12:18:57Z</time>
      </trkpt>
      <trkpt lat="39.8212940" lon="2.8144170">
        <ele>660.3</ele>
        <time>2018-12-30T12:18:58Z</time>
      </trkpt>
      <trkpt lat="39.8213230" lon="2.8144200">
        <ele>660.5</ele>
        <time>2018-12-30T12:18:59Z</time>
      </trkpt>
      <trkpt lat="39.8213520" lon="2.8144210">
        <ele>660.6</ele>
        <time>2018-12-30T12:19:00Z</time>
      </trkpt>
      <trkpt lat="39.8213810" lon="2.8144230">
        <ele>660.8</ele>
        <time>2018-12-30T12:19:01Z</time>
      </trkpt>
      <trkpt lat="39.8214090" lon="2.8144280">
        <ele>661.0</ele>
        <time>2018-12-30T12:19:02Z</time>
      </trkpt>
      <trkpt lat="39.8214380" lon="2.8144360">
        <ele>661.1</ele>
        <time>2018-12-30T12:19:03Z</time>
      </trkpt>
      <trkpt lat="39.8214670" lon="2.8144430">
        <ele>661.3</ele>
        <time>2018-12-30T12:19:04Z</time>
      </trkpt>
      <trkpt lat="39.8214960" lon="2.8144510">
        <ele>661.5</ele>
        <time>2018-12-30T12:19:05Z</time>
      </trkpt>
      <trkpt lat="39.8215240" lon="2.8144600">
        <ele>661.7</ele>
        <time>2018-12-30T12:19:06Z</time>
      </trkpt>
      <trkpt lat="39.8215530" lon="2.8144700">
        <ele>661.8</ele>
        <time>2018-12-30T12:19:07Z</time>
      </trkpt>
      <trkpt lat="39.8215810" lon="2.8144830">
        <ele>662.0</ele>
        <time>2018-12-30T12:19:08Z</time>
      </trkpt>
      <trkpt lat="39.8216080" lon="2.8144980">
        <ele>662.2</ele>
        <time>2018-12-30T12:19:09Z</time>
      </trkpt>
      <trkpt lat="39.8216340" lon="2.8145140">
        <ele>662.3</ele>
        <time>2018-12-30T12:19:10Z</time>
      </trkpt>
      <trkpt lat="39.8216600" lon="2.8145300">
        <ele>662.5</ele>
        <time>2018-12-30T12:19:11Z</time>
      </trkpt>
      <trkpt lat="39.8216860" lon="2.8145440">
        <ele>662.6</ele>
        <time>2018-12-30T12:19:12Z</time>
      </trkpt>
      <trkpt lat="39.8217140" lon="2.8145560">
        <ele>662.8</ele>
        <time>2018-12-30T12:19:13Z</time>
      </trkpt>
      <trkpt lat="39.8217430" lon="2.8145670">
        <ele>662.9</ele>
        <time>2018-12-30T12:19:14Z</time>
      </trkpt>
      <trkpt lat="39.8217740" lon="2.8145760">
        <ele>663.1</ele>
        <time>2018-12-30T12:19:15Z</time>
      </trkpt>
      <trkpt lat="39.8218050" lon="2.8145830">
        <ele>663.3</ele>
        <time>2018-12-30T12:19:16Z</time>
      </trkpt>
      <trkpt lat="39.8218370" lon="2.8145860">
        <ele>663.4</ele>
        <time>2018-12-30T12:19:17Z</time>
      </trkpt>
      <trkpt lat="39.8218680" lon="2.8145860">
        <ele>663.6</ele>
        <time>2018-12-30T12:19:18Z</time>
      </trkpt>
      <trkpt lat="39.8218990" lon="2.8145810">
        <ele>663.8</ele>
        <time>2018-12-30T12:19:19Z</time>
      </trkpt>
      <trkpt lat="39.8219300" lon="2.8145750">
        <ele>664.0</ele>
        <time>2018-12-30T12:19:20Z</time>
      </trkpt>
      <trkpt lat="39.8219620" lon="2.8145690">
        <ele>664.1</ele>
        <time>2018-12-30T12:19:21Z</time>
      </trkpt>
      <trkpt lat="39.8219920" lon="2.8145640">
        <ele>664.3</ele>
        <time>2018-12-30T12:19:22Z</time>
      </trkpt>
      <trkpt lat="39.8220230" lon="2.8145600">
        <ele>664.5</ele>
        <time>2018-12-30T12:19:23Z</time>
      </trkpt>
      <trkpt lat="39.8220530" lon="2.8145570">
        <ele>664.6</ele>
        <time>2018-12-30T12:19:24Z</time>
      </trkpt>
      <trkpt lat="39.8220850" lon="2.8145540">
        <ele>664.8</ele>
        <time>2018-12-30T12:19:25Z</time>
      </trkpt>
      <trkpt lat="39.8221170" lon="2.8145530">
        <ele>665.0</ele>
        <time>2018-12-30T12:19:26Z</time>
      </trkpt>
      <trkpt lat="39.8221490" lon="2.8145520">
        <ele>665.2</ele>
        <time>2018-12-30T12:19:27Z</time>
      </trkpt>
      <trkpt lat="39.8221810" lon="2.8145560">
        <ele>665.5</ele>
        <time>2018-12-30T12:19:28Z</time>
      </trkpt>
      <trkpt lat="39.8222110" lon="2.8145640">
        <ele>665.7</ele>
        <time>2018-12-30T12:19:29Z</time>
      </trkpt>
      <trkpt lat="39.8222400" lon="2.8145790">
        <ele>665.9</ele>
        <time>2018-12-30T12:19:30Z</time>
      </trkpt>
      <trkpt lat="39.8222670" lon="2.8146010">
        <ele>666.1</ele>
        <time>2018-12-30T12:19:31Z</time>
      </trkpt>
      <trkpt lat="39.8222910" lon="2.8146290">
        <ele>666.3</ele>
        <time>2018-12-30T12:19:32Z</time>
      </trkpt>
      <trkpt lat="39.8223120" lon="2.8146600">
        <ele>666.6</ele>
        <time>2018-12-30T12:19:33Z</time>
      </trkpt>
      <trkpt lat="39.8223290" lon="2.8146950">
        <ele>666.7</ele>
        <time>2018-12-30T12:19:34Z</time>
      </trkpt>
      <trkpt lat="39.8223400" lon="2.8147340">
        <ele>666.9</ele>
        <time>2018-12-30T12:19:35Z</time>
      </trkpt>
      <trkpt lat="39.8223490" lon="2.8147740">
        <ele>667.1</ele>
        <time>2018-12-30T12:19:36Z</time>
      </trkpt>
      <trkpt lat="39.8223560" lon="2.8148140">
        <ele>667.3</ele>
        <time>2018-12-30T12:19:37Z</time>
      </trkpt>
      <trkpt lat="39.8223620" lon="2.8148520">
        <ele>667.5</ele>
        <time>2018-12-30T12:19:38Z</time>
      </trkpt>
      <trkpt lat="39.8223670" lon="2.8148880">
        <ele>667.7</ele>
        <time>2018-12-30T12:19:39Z</time>
      </trkpt>
      <trkpt lat="39.8223730" lon="2.8149240">
        <ele>667.9</ele>
        <time>2018-12-30T12:19:40Z</time>
      </trkpt>
      <trkpt lat="39.8223820" lon="2.8149610">
        <ele>668.1</ele>
        <time>2018-12-30T12:19:41Z</time>
      </trkpt>
      <trkpt lat="39.8223920" lon="2.8149970">
        <ele>668.4</ele>
        <time>2018-12-30T12:19:42Z</time>
      </trkpt>
      <trkpt lat="39.8224050" lon="2.8150320">
        <ele>668.6</ele>
        <time>2018-12-30T12:19:43Z</time>
      </trkpt>
      <trkpt lat="39.8224210" lon="2.8150660">
        <ele>668.8</ele>
        <time>2018-12-30T12:19:44Z</time>
      </trkpt>
      <trkpt lat="39.8224410" lon="2.8151000">
        <ele>669.0</ele>
        <time>2018-12-30T12:19:45Z</time>
      </trkpt>
      <trkpt lat="39.8224630" lon="2.8151320">
        <ele>669.2</ele>
        <time>2018-12-30T12:19:46Z</time>
      </trkpt>
      <trkpt lat="39.8224860" lon="2.8151620">
        <ele>669.5</ele>
        <time>2018-12-30T12:19:47Z</time>
      </trkpt>
      <trkpt lat="39.8225090" lon="2.8151920">
        <ele>669.7</ele>
        <time>2018-12-30T12:19:48Z</time>
      </trkpt>
      <trkpt lat="39.8225320" lon="2.8152220">
        <ele>670.0</ele>
        <time>2018-12-30T12:19:49Z</time>
      </trkpt>
      <trkpt lat="39.8225560" lon="2.8152510">
        <ele>670.2</ele>
        <time>2018-12-30T12:19:50Z</time>
      </trkpt>
      <trkpt lat="39.8225800" lon="2.8152800">
        <ele>670.5</ele>
        <time>2018-12-30T12:19:51Z</time>
      </trkpt>
      <trkpt lat="39.8226040" lon="2.8153090">
        <ele>670.6</ele>
        <time>2018-12-30T12:19:52Z</time>
      </trkpt>
      <trkpt lat="39.8226290" lon="2.8153370">
        <ele>670.8</ele>
        <time>2018-12-30T12:19:53Z</time>
      </trkpt>
      <trkpt lat="39.8226540" lon="2.8153650">
        <ele>671.0</ele>
        <time>2018-12-30T12:19:54Z</time>
      </trkpt>
      <trkpt lat="39.8226770" lon="2.8153920">
        <ele>671.2</ele>
        <time>2018-12-30T12:19:55Z</time>
      </trkpt>
      <trkpt lat="39.8227010" lon="2.8154180">
        <ele>671.4</ele>
        <time>2018-12-30T12:19:56Z</time>
      </trkpt>
      <trkpt lat="39.8227240" lon="2.8154440">
        <ele>671.5</ele>
        <time>2018-12-30T12:19:57Z</time>
      </trkpt>
      <trkpt lat="39.8227480" lon="2.8154690">
        <ele>671.7</ele>
        <time>2018-12-30T12:19:58Z</time>
      </trkpt>
      <trkpt lat="39.8227720" lon="2.8154930">
        <ele>671.9</ele>
        <time>2018-12-30T12:19:59Z</time>
      </trkpt>
      <trkpt lat="39.8227980" lon="2.8155140">
        <ele>672.0</ele>
        <time>2018-12-30T12:20:00Z</time>
      </trkpt>
      <trkpt lat="39.8228240" lon="2.8155360">
        <ele>672.2</ele>
        <time>2018-12-30T12:20:01Z</time>
      </trkpt>
      <trkpt lat="39.8228500" lon="2.8155570">
        <ele>672.4</ele>
        <time>2018-12-30T12:20:02Z</time>
      </trkpt>
      <trkpt lat="39.8228760" lon="2.8155790">
        <ele>672.6</ele>
        <time>2018-12-30T12:20:03Z</time>
      </trkpt>
      <trkpt lat="39.8229020" lon="2.8156010">
        <ele>672.7</ele>
        <time>2018-12-30T12:20:04Z</time>
      </trkpt>
      <trkpt lat="39.8229270" lon="2.8156240">
        <ele>672.9</ele>
        <time>2018-12-30T12:20:05Z</time>
      </trkpt>
      <trkpt lat="39.8229510" lon="2.8156470">
        <ele>673.1</ele>
        <time>2018-12-30T12:20:06Z</time>
      </trkpt>
      <trkpt lat="39.8229760" lon="2.8156690">
        <ele>673.2</ele>
        <time>2018-12-30T12:20:07Z</time>
      </trkpt>
      <trkpt lat="39.8230020" lon="2.8156900">
        <ele>673.4</ele>
        <time>2018-12-30T12:20:08Z</time>
      </trkpt>
      <trkpt lat="39.8230280" lon="2.8157120">
        <ele>673.7</ele>
        <time>2018-12-30T12:20:09Z</time>
      </trkpt>
      <trkpt lat="39.8230530" lon="2.8157350">
        <ele>673.9</ele>
        <time>2018-12-30T12:20:10Z</time>
      </trkpt>
      <trkpt lat="39.8230770" lon="2.8157580">
        <ele>674.1</ele>
        <time>2018-12-30T12:20:11Z</time>
      </trkpt>
      <trkpt lat="39.8231010" lon="2.8157810">
        <ele>674.3</ele>
        <time>2018-12-30T12:20:12Z</time>
      </trkpt>
      <trkpt lat="39.8231280" lon="2.8158010">
        <ele>674.5</ele>
        <time>2018-12-30T12:20:13Z</time>
      </trkpt>
      <trkpt lat="39.8231550" lon="2.8158180">
        <ele>674.6</ele>
        <time>2018-12-30T12:20:14Z</time>
      </trkpt>
      <trkpt lat="39.8231830" lon="2.8158310">
        <ele>674.8</ele>
        <time>2018-12-30T12:20:15Z</time>
      </trkpt>
      <trkpt lat="39.8232110" lon="2.8158420">
        <ele>675.0</ele>
        <time>2018-12-30T12:20:16Z</time>
      </trkpt>
      <trkpt lat="39.8232390" lon="2.8158500">
        <ele>675.2</ele>
        <time>2018-12-30T12:20:17Z</time>
      </trkpt>
      <trkpt lat="39.8232680" lon="2.8158550">
        <ele>675.5</ele>
        <time>2018-12-30T12:20:18Z</time>
      </trkpt>
      <trkpt lat="39.8232980" lon="2.8158580">
        <ele>675.8</ele>
        <time>2018-12-30T12:20:19Z</time>
      </trkpt>
      <trkpt lat="39.8233290" lon="2.8158580">
        <ele>676.0</ele>
        <time>2018-12-30T12:20:20Z</time>
      </trkpt>
      <trkpt lat="39.8233600" lon="2.8158570">
        <ele>676.2</ele>
        <time>2018-12-30T12:20:21Z</time>
      </trkpt>
      <trkpt lat="39.8233910" lon="2.8158550">
        <ele>676.4</ele>
        <time>2018-12-30T12:20:22Z</time>
      </trkpt>
      <trkpt lat="39.8234230" lon="2.8158510">
        <ele>676.6</ele>
        <time>2018-12-30T12:20:23Z</time>
      </trkpt>
      <trkpt lat="39.8234530" lon="2.8158450">
        <ele>676.8</ele>
        <time>2018-12-30T12:20:24Z</time>
      </trkpt>
      <trkpt lat="39.8234820" lon="2.8158370">
        <ele>677.0</ele>
        <time>2018-12-30T12:20:25Z</time>
      </trkpt>
      <trkpt lat="39.8235100" lon="2.8158280">
        <ele>677.2</ele>
        <time>2018-12-30T12:20:26Z</time>
      </trkpt>
      <trkpt lat="39.8235390" lon="2.8158210">
        <ele>677.3</ele>
        <time>2018-12-30T12:20:27Z</time>
      </trkpt>
      <trkpt lat="39.8235680" lon="2.8158130">
        <ele>677.6</ele>
        <time>2018-12-30T12:20:28Z</time>
      </trkpt>
      <trkpt lat="39.8235980" lon="2.8158050">
        <ele>677.8</ele>
        <time>2018-12-30T12:20:29Z</time>
      </trkpt>
      <trkpt lat="39.8236270" lon="2.8157970">
        <ele>678.1</ele>
        <time>2018-12-30T12:20:30Z</time>
      </trkpt>
      <trkpt lat="39.8236550" lon="2.8157870">
        <ele>678.3</ele>
        <time>2018-12-30T12:20:31Z</time>
      </trkpt>
      <trkpt lat="39.8236810" lon="2.8157750">
        <ele>678.6</ele>
        <time>2018-12-30T12:20:32Z</time>
      </trkpt>
      <trkpt lat="39.8237060" lon="2.8157650">
        <ele>678.8</ele>
        <time>2018-12-30T12:20:33Z</time>
      </trkpt>
      <trkpt lat="39.8237280" lon="2.8157540">
        <ele>679.0</ele>
        <time>2018-12-30T12:20:34Z</time>
      </trkpt>
      <trkpt lat="39.8237510" lon="2.8157430">
        <ele>679.2</ele>
        <time>2018-12-30T12:20:35Z</time>
      </trkpt>
      <trkpt lat="39.8237740" lon="2.8157280">
        <ele>679.4</ele>
        <time>2018-12-30T12:20:36Z</time>
      </trkpt>
      <trkpt lat="39.8237990" lon="2.8157120">
        <ele>679.6</ele>
        <time>2018-12-30T12:20:37Z</time>
      </trkpt>
      <trkpt lat="39.8238240" lon="2.8156940">
        <ele>679.8</ele>
        <time>2018-12-30T12:20:38Z</time>
      </trkpt>
      <trkpt lat="39.8238490" lon="2.8156740">
        <ele>680.1</ele>
        <time>2018-12-30T12:20:39Z</time>
      </trkpt>
      <trkpt lat="39.8238740" lon="2.8156530">
        <ele>680.3</ele>
        <time>2018-12-30T12:20:40Z</time>
      </trkpt>
      <trkpt lat="39.8238980" lon="2.8156290">
        <ele>680.6</ele>
        <time>2018-12-30T12:20:41Z</time>
      </trkpt>
      <trkpt lat="39.8239220" lon="2.8156050">
        <ele>680.8</ele>
        <time>2018-12-30T12:20:42Z</time>
      </trkpt>
      <trkpt lat="39.8239470" lon="2.8155810">
        <ele>681.1</ele>
        <time>2018-12-30T12:20:43Z</time>
      </trkpt>
      <trkpt lat="39.8239710" lon="2.8155550">
        <ele>681.3</ele>
        <time>2018-12-30T12:20:44Z</time>
      </trkpt>
      <trkpt lat="39.8239940" lon="2.8155280">
        <ele>681.6</ele>
        <time>2018-12-30T12:20:45Z</time>
      </trkpt>
      <trkpt lat="39.8240170" lon="2.8155010">
        <ele>681.9</ele>
        <time>2018-12-30T12:20:46Z</time>
      </trkpt>
      <trkpt lat="39.8240400" lon="2.8154730">
        <ele>682.1</ele>
        <time>2018-12-30T12:20:47Z</time>
      </trkpt>
      <trkpt lat="39.8240630" lon="2.8154450">
        <ele>682.3</ele>
        <time>2018-12-30T12:20:48Z</time>
      </trkpt>
      <trkpt lat="39.8240860" lon="2.8154200">
        <ele>682.6</ele>
        <time>2018-12-30T12:20:49Z</time>
      </trkpt>
      <trkpt lat="39.8241090" lon="2.8153950">
        <ele>682.7</ele>
        <time>2018-12-30T12:20:50Z</time>
      </trkpt>
      <trkpt lat="39.8241330" lon="2.8153710">
        <ele>682.9</ele>
        <time>2018-12-30T12:20:51Z</time>
      </trkpt>
      <trkpt lat="39.8241570" lon="2.8153470">
        <ele>683.1</ele>
        <time>2018-12-30T12:20:52Z</time>
      </trkpt>
      <trkpt lat="39.8241810" lon="2.8153210">
        <ele>683.3</ele>
        <time>2018-12-30T12:20:53Z</time>
      </trkpt>
      <trkpt lat="39.8242040" lon="2.8152950">
        <ele>683.4</ele>
        <time>2018-12-30T12:20:54Z</time>
      </trkpt>
      <trkpt lat="39.8242280" lon="2.8152690">
        <ele>683.6</ele>
        <time>2018-12-30T12:20:55Z</time>
      </trkpt>
      <trkpt lat="39.8242520" lon="2.8152420">
        <ele>683.7</ele>
        <time>2018-12-30T12:20:56Z</time>
      </trkpt>
      <trkpt lat="39.8242760" lon="2.8152160">
        <ele>683.9</ele>
        <time>2018-12-30T12:20:57Z</time>
      </trkpt>
      <trkpt lat="39.8243000" lon="2.8151910">
        <ele>684.1</ele>
        <time>2018-12-30T12:20:58Z</time>
      </trkpt>
      <trkpt lat="39.8243250" lon="2.8151670">
        <ele>684.2</ele>
        <time>2018-12-30T12:20:59Z</time>
      </trkpt>
      <trkpt lat="39.8243500" lon="2.8151450">
        <ele>684.3</ele>
        <time>2018-12-30T12:21:00Z</time>
      </trkpt>
      <trkpt lat="39.8243760" lon="2.8151240">
        <ele>684.5</ele>
        <time>2018-12-30T12:21:01Z</time>
      </trkpt>
      <trkpt lat="39.8244020" lon="2.8151020">
        <ele>684.6</ele>
        <time>2018-12-30T12:21:02Z</time>
      </trkpt>
      <trkpt lat="39.8244260" lon="2.8150790">
        <ele>684.7</ele>
        <time>2018-12-30T12:21:03Z</time>
      </trkpt>
      <trkpt lat="39.8244500" lon="2.8150560">
        <ele>684.9</ele>
        <time>2018-12-30T12:21:04Z</time>
      </trkpt>
      <trkpt lat="39.8244740" lon="2.8150320">
        <ele>685.0</ele>
        <time>2018-12-30T12:21:05Z</time>
      </trkpt>
      <trkpt lat="39.8244980" lon="2.8150080">
        <ele>685.1</ele>
        <time>2018-12-30T12:21:06Z</time>
      </trkpt>
      <trkpt lat="39.8245220" lon="2.8149850">
        <ele>685.2</ele>
        <time>2018-12-30T12:21:07Z</time>
      </trkpt>
      <trkpt lat="39.8245460" lon="2.8149630">
        <ele>685.3</ele>
        <time>2018-12-30T12:21:08Z</time>
      </trkpt>
      <trkpt lat="39.8245710" lon="2.8149420">
        <ele>685.5</ele>
        <time>2018-12-30T12:21:09Z</time>
      </trkpt>
      <trkpt lat="39.8245960" lon="2.8149210">
        <ele>685.6</ele>
        <time>2018-12-30T12:21:10Z</time>
      </trkpt>
      <trkpt lat="39.8246210" lon="2.8149000">
        <ele>685.7</ele>
        <time>2018-12-30T12:21:11Z</time>
      </trkpt>
      <trkpt lat="39.8246450" lon="2.8148780">
        <ele>685.8</ele>
        <time>2018-12-30T12:21:12Z</time>
      </trkpt>
      <trkpt lat="39.8246700" lon="2.8148560">
        <ele>686.0</ele>
        <time>2018-12-30T12:21:13Z</time>
      </trkpt>
      <trkpt lat="39.8246950" lon="2.8148350">
        <ele>686.1</ele>
        <time>2018-12-30T12:21:14Z</time>
      </trkpt>
      <trkpt lat="39.8247190" lon="2.8148140">
        <ele>686.2</ele>
        <time>2018-12-30T12:21:15Z</time>
      </trkpt>
      <trkpt lat="39.8247430" lon="2.8147930">
        <ele>686.3</ele>
        <time>2018-12-30T12:21:16Z</time>
      </trkpt>
      <trkpt lat="39.8247670" lon="2.8147730">
        <ele>686.5</ele>
        <time>2018-12-30T12:21:17Z</time>
      </trkpt>
      <trkpt lat="39.8247920" lon="2.8147550">
        <ele>686.6</ele>
        <time>2018-12-30T12:21:18Z</time>
      </trkpt>
      <trkpt lat="39.8248180" lon="2.8147390">
        <ele>686.7</ele>
        <time>2018-12-30T12:21:19Z</time>
      </trkpt>
      <trkpt lat="39.8248460" lon="2.8147270">
        <ele>686.9</ele>
        <time>2018-12-30T12:21:20Z</time>
      </trkpt>
      <trkpt lat="39.8248740" lon="2.8147210">
        <ele>687.0</ele>
        <time>2018-12-30T12:21:21Z</time>
      </trkpt>
      <trkpt lat="39.8249040" lon="2.8147220">
        <ele>687.1</ele>
        <time>2018-12-30T12:21:22Z</time>
      </trkpt>
      <trkpt lat="39.8249340" lon="2.8147290">
        <ele>687.3</ele>
        <time>2018-12-30T12:21:23Z</time>
      </trkpt>
      <trkpt lat="39.8249650" lon="2.8147410">
        <ele>687.5</ele>
        <time>2018-12-30T12:21:24Z</time>
      </trkpt>
      <trkpt lat="39.8249940" lon="2.8147560">
        <ele>687.7</ele>
        <time>2018-12-30T12:21:25Z</time>
      </trkpt>
      <trkpt lat="39.8250210" lon="2.8147770">
        <ele>688.4</ele>
        <time>2018-12-30T12:21:26Z</time>
      </trkpt>
      <trkpt lat="39.8250400" lon="2.8148050">
        <ele>688.6</ele>
        <time>2018-12-30T12:21:27Z</time>
      </trkpt>
      <trkpt lat="39.8250510" lon="2.8148380">
        <ele>688.8</ele>
        <time>2018-12-30T12:21:28Z</time>
      </trkpt>
      <trkpt lat="39.8250530" lon="2.8148740">
        <ele>689.1</ele>
        <time>2018-12-30T12:21:29Z</time>
      </trkpt>
      <trkpt lat="39.8250520" lon="2.8149130">
        <ele>689.3</ele>
        <time>2018-12-30T12:21:30Z</time>
      </trkpt>
      <trkpt lat="39.8250480" lon="2.8149540">
        <ele>689.6</ele>
        <time>2018-12-30T12:21:31Z</time>
      </trkpt>
      <trkpt lat="39.8250430" lon="2.8149950">
        <ele>689.9</ele>
        <time>2018-12-30T12:21:32Z</time>
      </trkpt>
      <trkpt lat="39.8250380" lon="2.8150360">
        <ele>690.1</ele>
        <time>2018-12-30T12:21:33Z</time>
      </trkpt>
      <trkpt lat="39.8250320" lon="2.8150760">
        <ele>690.3</ele>
        <time>2018-12-30T12:21:34Z</time>
      </trkpt>
      <trkpt lat="39.8250260" lon="2.8151150">
        <ele>690.5</ele>
        <time>2018-12-30T12:21:35Z</time>
      </trkpt>
      <trkpt lat="39.8250190" lon="2.8151540">
        <ele>690.7</ele>
        <time>2018-12-30T12:21:36Z</time>
      </trkpt>
      <trkpt lat="39.8250110" lon="2.8151930">
        <ele>690.9</ele>
        <time>2018-12-30T12:21:37Z</time>
      </trkpt>
      <trkpt lat="39.8250050" lon="2.8152320">
        <ele>691.1</ele>
        <time>2018-12-30T12:21:38Z</time>
      </trkpt>
      <trkpt lat="39.8250000" lon="2.8152700">
        <ele>691.3</ele>
        <time>2018-12-30T12:21:39Z</time>
      </trkpt>
      <trkpt lat="39.8249970" lon="2.8153090">
        <ele>691.5</ele>
        <time>2018-12-30T12:21:40Z</time>
      </trkpt>
      <trkpt lat="39.8249960" lon="2.8153480">
        <ele>691.7</ele>
        <time>2018-12-30T12:21:41Z</time>
      </trkpt>
      <trkpt lat="39.8249980" lon="2.8153880">
        <ele>691.9</ele>
        <time>2018-12-30T12:21:42Z</time>
      </trkpt>
      <trkpt lat="39.8250030" lon="2.8154280">
        <ele>692.0</ele>
        <time>2018-12-30T12:21:43Z</time>
      </trkpt>
      <trkpt lat="39.8250110" lon="2.8154670">
        <ele>692.2</ele>
        <time>2018-12-30T12:21:44Z</time>
      </trkpt>
      <trkpt lat="39.8250230" lon="2.8155040">
        <ele>692.4</ele>
        <time>2018-12-30T12:21:45Z</time>
      </trkpt>
      <trkpt lat="39.8250380" lon="2.8155390">
        <ele>692.5</ele>
        <time>2018-12-30T12:21:46Z</time>
      </trkpt>
      <trkpt lat="39.8250570" lon="2.8155710">
        <ele>692.7</ele>
        <time>2018-12-30T12:21:47Z</time>
      </trkpt>
      <trkpt lat="39.8250780" lon="2.8156020">
        <ele>692.8</ele>
        <time>2018-12-30T12:21:48Z</time>
      </trkpt>
      <trkpt lat="39.8250980" lon="2.8156320">
        <ele>693.0</ele>
        <time>2018-12-30T12:21:49Z</time>
      </trkpt>
      <trkpt lat="39.8251190" lon="2.8156620">
        <ele>693.2</ele>
        <time>2018-12-30T12:21:50Z</time>
      </trkpt>
      <trkpt lat="39.8251390" lon="2.8156910">
        <ele>693.3</ele>
        <time>2018-12-30T12:21:51Z</time>
      </trkpt>
      <trkpt lat="39.8251560" lon="2.8157220">
        <ele>693.5</ele>
        <time>2018-12-30T12:21:52Z</time>
      </trkpt>
      <trkpt lat="39.8251720" lon="2.8157550">
        <ele>693.8</ele>
        <time>2018-12-30T12:21:53Z</time>
      </trkpt>
      <trkpt lat="39.8251850" lon="2.8157900">
        <ele>694.0</ele>
        <time>2018-12-30T12:21:54Z</time>
      </trkpt>
      <trkpt lat="39.8252000" lon="2.8158240">
        <ele>694.2</ele>
        <time>2018-12-30T12:21:55Z</time>
      </trkpt>
      <trkpt lat="39.8252120" lon="2.8158590">
        <ele>694.4</ele>
        <time>2018-12-30T12:21:56Z</time>
      </trkpt>
      <trkpt lat="39.8252220" lon="2.8158950">
        <ele>694.7</ele>
        <time>2018-12-30T12:21:57Z</time>
      </trkpt>
      <trkpt lat="39.8252290" lon="2.8159320">
        <ele>694.9</ele>
        <time>2018-12-30T12:21:58Z</time>
      </trkpt>
      <trkpt lat="39.8252340" lon="2.8159710">
        <ele>695.1</ele>
        <time>2018-12-30T12:21:59Z</time>
      </trkpt>
      <trkpt lat="39.8252370" lon="2.8160100">
        <ele>695.4</ele>
        <time>2018-12-30T12:22:00Z</time>
      </trkpt>
      <trkpt lat="39.8252410" lon="2.8160500">
        <ele>695.6</ele>
        <time>2018-12-30T12:22:01Z</time>
      </trkpt>
      <trkpt lat="39.8252430" lon="2.8160910">
        <ele>695.9</ele>
        <time>2018-12-30T12:22:02Z</time>
      </trkpt>
      <trkpt lat="39.8252430" lon="2.8161320">
        <ele>696.2</ele>
        <time>2018-12-30T12:22:03Z</time>
      </trkpt>
      <trkpt lat="39.8252410" lon="2.8161730">
        <ele>696.5</ele>
        <time>2018-12-30T12:22:04Z</time>
      </trkpt>
      <trkpt lat="39.8252380" lon="2.8162130">
        <ele>696.7</ele>
        <time>2018-12-30T12:22:05Z</time>
      </trkpt>
      <trkpt lat="39.8252350" lon="2.8162530">
        <ele>697.0</ele>
        <time>2018-12-30T12:22:06Z</time>
      </trkpt>
      <trkpt lat="39.8252330" lon="2.8162930">
        <ele>697.2</ele>
        <time>2018-12-30T12:22:07Z</time>
      </trkpt>
      <trkpt lat="39.8252350" lon="2.8163330">
        <ele>697.4</ele>
        <time>2018-12-30T12:22:08Z</time>
      </trkpt>
      <trkpt lat="39.8252410" lon="2.8163710">
        <ele>697.6</ele>
        <time>2018-12-30T12:22:09Z</time>
      </trkpt>
      <trkpt lat="39.8252500" lon="2.8164090">
        <ele>697.9</ele>
        <time>2018-12-30T12:22:10Z</time>
      </trkpt>
      <trkpt lat="39.8252630" lon="2.8164450">
        <ele>698.2</ele>
        <time>2018-12-30T12:22:11Z</time>
      </trkpt>
      <trkpt lat="39.8252770" lon="2.8164810">
        <ele>698.4</ele>
        <time>2018-12-30T12:22:12Z</time>
      </trkpt>
      <trkpt lat="39.8252940" lon="2.8165140">
        <ele>698.7</ele>
        <time>2018-12-30T12:22:13Z</time>
      </trkpt>
      <trkpt lat="39.8253110" lon="2.8165460">
        <ele>698.9</ele>
        <time>2018-12-30T12:22:14Z</time>
      </trkpt>
      <trkpt lat="39.8253300" lon="2.8165770">
        <ele>699.1</ele>
        <time>2018-12-30T12:22:15Z</time>
      </trkpt>
      <trkpt lat="39.8253500" lon="2.8166080">
        <ele>699.3</ele>
        <time>2018-12-30T12:22:16Z</time>
      </trkpt>
      <trkpt lat="39.8253690" lon="2.8166390">
        <ele>699.6</ele>
        <time>2018-12-30T12:22:17Z</time>
      </trkpt>
      <trkpt lat="39.8253880" lon="2.8166700">
        <ele>699.8</ele>
        <time>2018-12-30T12:22:18Z</time>
      </trkpt>
      <trkpt lat="39.8254080" lon="2.8167000">
        <ele>700.0</ele>
        <time>2018-12-30T12:22:19Z</time>
      </trkpt>
      <trkpt lat="39.8254290" lon="2.8167300">
        <ele>700.2</ele>
        <time>2018-12-30T12:22:20Z</time>
      </trkpt>
      <trkpt lat="39.8254500" lon="2.8167590">
        <ele>700.3</ele>
        <time>2018-12-30T12:22:21Z</time>
      </trkpt>
      <trkpt lat="39.8254710" lon="2.8167890">
        <ele>700.5</ele>
        <time>2018-12-30T12:22:22Z</time>
      </trkpt>
      <trkpt lat="39.8254920" lon="2.8168180">
        <ele>700.7</ele>
        <time>2018-12-30T12:22:23Z</time>
      </trkpt>
      <trkpt lat="39.8255130" lon="2.8168480">
        <ele>700.9</ele>
        <time>2018-12-30T12:22:24Z</time>
      </trkpt>
      <trkpt lat="39.8255360" lon="2.8168770">
        <ele>701.1</ele>
        <time>2018-12-30T12:22:25Z</time>
      </trkpt>
      <trkpt lat="39.8255590" lon="2.8169050">
        <ele>701.3</ele>
        <time>2018-12-30T12:22:26Z</time>
      </trkpt>
      <trkpt lat="39.8255830" lon="2.8169310">
        <ele>701.5</ele>
        <time>2018-12-30T12:22:27Z</time>
      </trkpt>
      <trkpt lat="39.8256070" lon="2.8169580">
        <ele>701.7</ele>
        <time>2018-12-30T12:22:28Z</time>
      </trkpt>
      <trkpt lat="39.8256310" lon="2.8169840">
        <ele>701.9</ele>
        <time>2018-12-30T12:22:29Z</time>
      </trkpt>
      <trkpt lat="39.8256550" lon="2.8170080">
        <ele>702.0</ele>
        <time>2018-12-30T12:22:30Z</time>
      </trkpt>
      <trkpt lat="39.8256800" lon="2.8170310">
        <ele>702.2</ele>
        <time>2018-12-30T12:22:31Z</time>
      </trkpt>
      <trkpt lat="39.8257070" lon="2.8170540">
        <ele>702.4</ele>
        <time>2018-12-30T12:22:32Z</time>
      </trkpt>
      <trkpt lat="39.8257330" lon="2.8170760">
        <ele>702.7</ele>
        <time>2018-12-30T12:22:33Z</time>
      </trkpt>
      <trkpt lat="39.8257590" lon="2.8170990">
        <ele>702.9</ele>
        <time>2018-12-30T12:22:34Z</time>
      </trkpt>
      <trkpt lat="39.8257850" lon="2.8171210">
        <ele>703.1</ele>
        <time>2018-12-30T12:22:35Z</time>
      </trkpt>
      <trkpt lat="39.8258110" lon="2.8171430">
        <ele>703.4</ele>
        <time>2018-12-30T12:22:36Z</time>
      </trkpt>
      <trkpt lat="39.8258370" lon="2.8171630">
        <ele>703.6</ele>
        <time>2018-12-30T12:22:37Z</time>
      </trkpt>
      <trkpt lat="39.8258630" lon="2.8171830">
        <ele>703.8</ele>
        <time>2018-12-30T12:22:38Z</time>
      </trkpt>
      <trkpt lat="39.8258900" lon="2.8172020">
        <ele>704.0</ele>
        <time>2018-12-30T12:22:39Z</time>
      </trkpt>
      <trkpt lat="39.8259170" lon="2.8172210">
        <ele>704.2</ele>
        <time>2018-12-30T12:22:40Z</time>
      </trkpt>
      <trkpt lat="39.8259440" lon="2.8172400">
        <ele>704.5</ele>
        <time>2018-12-30T12:22:41Z</time>
      </trkpt>
      <trkpt lat="39.8259720" lon="2.8172580">
        <ele>704.7</ele>
        <time>2018-12-30T12:22:42Z</time>
      </trkpt>
      <trkpt lat="39.8260000" lon="2.8172740">
        <ele>704.9</ele>
        <time>2018-12-30T12:22:43Z</time>
      </trkpt>
      <trkpt lat="39.8260290" lon="2.8172880">
        <ele>705.1</ele>
        <time>2018-12-30T12:22:44Z</time>
      </trkpt>
      <trkpt lat="39.8260580" lon="2.8173010">
        <ele>705.3</ele>
        <time>2018-12-30T12:22:45Z</time>
      </trkpt>
      <trkpt lat="39.8260880" lon="2.8173130">
        <ele>705.6</ele>
        <time>2018-12-30T12:22:46Z</time>
      </trkpt>
      <trkpt lat="39.8261180" lon="2.8173230">
        <ele>705.8</ele>
        <time>2018-12-30T12:22:47Z</time>
      </trkpt>
      <trkpt lat="39.8261480" lon="2.8173320">
        <ele>706.0</ele>
        <time>2018-12-30T12:22:48Z</time>
      </trkpt>
      <trkpt lat="39.8261780" lon="2.8173400">
        <ele>706.2</ele>
        <time>2018-12-30T12:22:49Z</time>
      </trkpt>
      <trkpt lat="39.8262070" lon="2.8173490">
        <ele>706.4</ele>
        <time>2018-12-30T12:22:50Z</time>
      </trkpt>
      <trkpt lat="39.8262360" lon="2.8173560">
        <ele>706.6</ele>
        <time>2018-12-30T12:22:51Z</time>
      </trkpt>
      <trkpt lat="39.8262640" lon="2.8173610">
        <ele>706.8</ele>
        <time>2018-12-30T12:22:52Z</time>
      </trkpt>
      <trkpt lat="39.8262920" lon="2.8173630">
        <ele>707.0</ele>
        <time>2018-12-30T12:22:53Z</time>
      </trkpt>
      <trkpt lat="39.8263200" lon="2.8173630">
        <ele>707.2</ele>
        <time>2018-12-30T12:22:54Z</time>
      </trkpt>
      <trkpt lat="39.8263490" lon="2.8173630">
        <ele>707.4</ele>
        <time>2018-12-30T12:22:55Z</time>
      </trkpt>
      <trkpt lat="39.8263790" lon="2.8173650">
        <ele>707.6</ele>
        <time>2018-12-30T12:22:56Z</time>
      </trkpt>
      <trkpt lat="39.8264090" lon="2.8173680">
        <ele>707.8</ele>
        <time>2018-12-30T12:22:57Z</time>
      </trkpt>
      <trkpt lat="39.8264380" lon="2.8173710">
        <ele>708.0</ele>
        <time>2018-12-30T12:22:58Z</time>
      </trkpt>
      <trkpt lat="39.8264680" lon="2.8173740">
        <ele>708.2</ele>
        <time>2018-12-30T12:22:59Z</time>
      </trkpt>
      <trkpt lat="39.8264980" lon="2.8173780">
        <ele>708.4</ele>
        <time>2018-12-30T12:23:00Z</time>
      </trkpt>
      <trkpt lat="39.8265280" lon="2.8173830">
        <ele>708.6</ele>
        <time>2018-12-30T12:23:01Z</time>
      </trkpt>
      <trkpt lat="39.8265580" lon="2.8173910">
        <ele>708.8</ele>
        <time>2018-12-30T12:23:02Z</time>
      </trkpt>
      <trkpt lat="39.8265870" lon="2.8174020">
        <ele>709.0</ele>
        <time>2018-12-30T12:23:03Z</time>
      </trkpt>
      <trkpt lat="39.8266160" lon="2.8174150">
        <ele>709.2</ele>
        <time>2018-12-30T12:23:04Z</time>
      </trkpt>
      <trkpt lat="39.8266440" lon="2.8174300">
        <ele>709.4</ele>
        <time>2018-12-30T12:23:05Z</time>
      </trkpt>
      <trkpt lat="39.8266710" lon="2.8174450">
        <ele>709.6</ele>
        <time>2018-12-30T12:23:06Z</time>
      </trkpt>
      <trkpt lat="39.8266990" lon="2.8174620">
        <ele>709.8</ele>
        <time>2018-12-30T12:23:07Z</time>
      </trkpt>
      <trkpt lat="39.8267250" lon="2.8174800">
        <ele>710.0</ele>
        <time>2018-12-30T12:23:08Z</time>
      </trkpt>
      <trkpt lat="39.8267500" lon="2.8175000">
        <ele>710.2</ele>
        <time>2018-12-30T12:23:09Z</time>
      </trkpt>
      <trkpt lat="39.8267730" lon="2.8175240">
        <ele>710.4</ele>
        <time>2018-12-30T12:23:10Z</time>
      </trkpt>
      <trkpt lat="39.8267940" lon="2.8175510">
        <ele>710.6</ele>
        <time>2018-12-30T12:23:11Z</time>
      </trkpt>
      <trkpt lat="39.8268140" lon="2.8175790">
        <ele>710.8</ele>
        <time>2018-12-30T12:23:12Z</time>
      </trkpt>
      <trkpt lat="39.8268350" lon="2.8176070">
        <ele>711.0</ele>
        <time>2018-12-30T12:23:13Z</time>
      </trkpt>
      <trkpt lat="39.8268540" lon="2.8176360">
        <ele>711.2</ele>
        <time>2018-12-30T12:23:14Z</time>
      </trkpt>
      <trkpt lat="39.8268730" lon="2.8176640">
        <ele>711.5</ele>
        <time>2018-12-30T12:23:15Z</time>
      </trkpt>
      <trkpt lat="39.8268900" lon="2.8176930">
        <ele>711.8</ele>
        <time>2018-12-30T12:23:16Z</time>
      </trkpt>
      <trkpt lat="39.8269080" lon="2.8177220">
        <ele>712.0</ele>
        <time>2018-12-30T12:23:17Z</time>
      </trkpt>
      <trkpt lat="39.8269270" lon="2.8177500">
        <ele>712.3</ele>
        <time>2018-12-30T12:23:18Z</time>
      </trkpt>
      <trkpt lat="39.8269460" lon="2.8177770">
        <ele>712.5</ele>
        <time>2018-12-30T12:23:19Z</time>
      </trkpt>
      <trkpt lat="39.8269670" lon="2.8178030">
        <ele>712.8</ele>
        <time>2018-12-30T12:23:20Z</time>
      </trkpt>
      <trkpt lat="39.8269880" lon="2.8178280">
        <ele>713.0</ele>
        <time>2018-12-30T12:23:21Z</time>
      </trkpt>
      <trkpt lat="39.8270110" lon="2.8178530">
        <ele>713.3</ele>
        <time>2018-12-30T12:23:22Z</time>
      </trkpt>
      <trkpt lat="39.8270350" lon="2.8178760">
        <ele>713.5</ele>
        <time>2018-12-30T12:23:23Z</time>
      </trkpt>
      <trkpt lat="39.8270610" lon="2.8178980">
        <ele>713.8</ele>
        <time>2018-12-30T12:23:24Z</time>
      </trkpt>
      <trkpt lat="39.8270870" lon="2.8179170">
        <ele>714.1</ele>
        <time>2018-12-30T12:23:25Z</time>
      </trkpt>
      <trkpt lat="39.8271140" lon="2.8179350">
        <ele>714.3</ele>
        <time>2018-12-30T12:23:26Z</time>
      </trkpt>
      <trkpt lat="39.8271410" lon="2.8179520">
        <ele>714.5</ele>
        <time>2018-12-30T12:23:27Z</time>
      </trkpt>
      <trkpt lat="39.8271690" lon="2.8179680">
        <ele>714.7</ele>
        <time>2018-12-30T12:23:28Z</time>
      </trkpt>
      <trkpt lat="39.8271980" lon="2.8179820">
        <ele>714.9</ele>
        <time>2018-12-30T12:23:29Z</time>
      </trkpt>
      <trkpt lat="39.8272270" lon="2.8179960">
        <ele>715.1</ele>
        <time>2018-12-30T12:23:30Z</time>
      </trkpt>
      <trkpt lat="39.8272570" lon="2.8180080">
        <ele>715.2</ele>
        <time>2018-12-30T12:23:31Z</time>
      </trkpt>
      <trkpt lat="39.8272860" lon="2.8180200">
        <ele>715.4</ele>
        <time>2018-12-30T12:23:32Z</time>
      </trkpt>
      <trkpt lat="39.8273150" lon="2.8180290">
        <ele>715.5</ele>
        <time>2018-12-30T12:23:33Z</time>
      </trkpt>
      <trkpt lat="39.8273450" lon="2.8180360">
        <ele>715.7</ele>
        <time>2018-12-30T12:23:34Z</time>
      </trkpt>
      <trkpt lat="39.8273750" lon="2.8180400">
        <ele>715.8</ele>
        <time>2018-12-30T12:23:35Z</time>
      </trkpt>
      <trkpt lat="39.8274050" lon="2.8180400">
        <ele>715.9</ele>
        <time>2018-12-30T12:23:36Z</time>
      </trkpt>
      <trkpt lat="39.8274360" lon="2.8180380">
        <ele>716.0</ele>
        <time>2018-12-30T12:23:37Z</time>
      </trkpt>
      <trkpt lat="39.8274660" lon="2.8180320">
        <ele>716.1</ele>
        <time>2018-12-30T12:23:38Z</time>
      </trkpt>
      <trkpt lat="39.8274970" lon="2.8180240">
        <ele>716.2</ele>
        <time>2018-12-30T12:23:39Z</time>
      </trkpt>
      <trkpt lat="39.8275280" lon="2.8180150">
        <ele>716.3</ele>
        <time>2018-12-30T12:23:40Z</time>
      </trkpt>
      <trkpt lat="39.8275580" lon="2.8180060">
        <ele>716.4</ele>
        <time>2018-12-30T12:23:41Z</time>
      </trkpt>
      <trkpt lat="39.8275890" lon="2.8179930">
        <ele>716.4</ele>
        <time>2018-12-30T12:23:42Z</time>
      </trkpt>
      <trkpt lat="39.8276200" lon="2.8179780">
        <ele>716.5</ele>
        <time>2018-12-30T12:23:43Z</time>
      </trkpt>
      <trkpt lat="39.8276540" lon="2.8179610">
        <ele>716.5</ele>
        <time>2018-12-30T12:23:44Z</time>
      </trkpt>
      <trkpt lat="39.8276890" lon="2.8179410">
        <ele>716.6</ele>
        <time>2018-12-30T12:23:45Z</time>
      </trkpt>
      <trkpt lat="39.8277280" lon="2.8179170">
        <ele>716.5</ele>
        <time>2018-12-30T12:23:46Z</time>
      </trkpt>
      <trkpt lat="39.8277690" lon="2.8178900">
        <ele>716.5</ele>
        <time>2018-12-30T12:23:47Z</time>
      </trkpt>
      <trkpt lat="39.8278130" lon="2.8178590">
        <ele>716.3</ele>
        <time>2018-12-30T12:23:48Z</time>
      </trkpt>
      <trkpt lat="39.8278640" lon="2.8178230">
        <ele>715.9</ele>
        <time>2018-12-30T12:23:49Z</time>
      </trkpt>
      <trkpt lat="39.8279220" lon="2.8177830">
        <ele>715.4</ele>
        <time>2018-12-30T12:23:50Z</time>
      </trkpt>
      <trkpt lat="39.8279880" lon="2.8177390">
        <ele>714.7</ele>
        <time>2018-12-30T12:23:51Z</time>
      </trkpt>
      <trkpt lat="39.8280570" lon="2.8176910">
        <ele>713.7</ele>
        <time>2018-12-30T12:23:52Z</time>
      </trkpt>
      <trkpt lat="39.8281290" lon="2.8176380">
        <ele>712.4</ele>
        <time>2018-12-30T12:23:53Z</time>
      </trkpt>
      <trkpt lat="39.8282020" lon="2.8175830">
        <ele>710.7</ele>
        <time>2018-12-30T12:23:54Z</time>
      </trkpt>
      <trkpt lat="39.8282750" lon="2.8175240">
        <ele>708.9</ele>
        <time>2018-12-30T12:23:55Z</time>
      </trkpt>
      <trkpt lat="39.8283480" lon="2.8174640">
        <ele>707.4</ele>
        <time>2018-12-30T12:23:56Z</time>
      </trkpt>
      <trkpt lat="39.8284210" lon="2.8174030">
        <ele>706.1</ele>
        <time>2018-12-30T12:23:57Z</time>
      </trkpt>
      <trkpt lat="39.8284940" lon="2.8173460">
        <ele>704.6</ele>
        <time>2018-12-30T12:23:58Z</time>
      </trkpt>
      <trkpt lat="39.8285670" lon="2.8172950">
        <ele>703.0</ele>
        <time>2018-12-30T12:23:59Z</time>
      </trkpt>
      <trkpt lat="39.8286420" lon="2.8172550">
        <ele>701.5</ele>
        <time>2018-12-30T12:24:00Z</time>
      </trkpt>
      <trkpt lat="39.8287190" lon="2.8172290">
        <ele>700.0</ele>
        <time>2018-12-30T12:24:01Z</time>
      </trkpt>
      <trkpt lat="39.8287980" lon="2.8172160">
        <ele>698.7</ele>
        <time>2018-12-30T12:24:02Z</time>
      </trkpt>
      <trkpt lat="39.8288780" lon="2.8172160">
        <ele>697.6</ele>
        <time>2018-12-30T12:24:03Z</time>
      </trkpt>
      <trkpt lat="39.8289630" lon="2.8172190">
        <ele>695.8</ele>
        <time>2018-12-30T12:24:04Z</time>
      </trkpt>
      <trkpt lat="39.8290510" lon="2.8172220">
        <ele>693.9</ele>
        <time>2018-12-30T12:24:05Z</time>
      </trkpt>
      <trkpt lat="39.8291420" lon="2.8172180">
        <ele>692.3</ele>
        <time>2018-12-30T12:24:06Z</time>
      </trkpt>
      <trkpt lat="39.8292370" lon="2.8172060">
        <ele>690.7</ele>
        <time>2018-12-30T12:24:07Z</time>
      </trkpt>
      <trkpt lat="39.8293350" lon="2.8171860">
        <ele>689.0</ele>
        <time>2018-12-30T12:24:08Z</time>
      </trkpt>
      <trkpt lat="39.8294360" lon="2.8171580">
        <ele>687.2</ele>
        <time>2018-12-30T12:24:09Z</time>
      </trkpt>
      <trkpt lat="39.8295390" lon="2.8171220">
        <ele>685.4</ele>
        <time>2018-12-30T12:24:10Z</time>
      </trkpt>
      <trkpt lat="39.8296400" lon="2.8170810">
        <ele>683.7</ele>
        <time>2018-12-30T12:24:11Z</time>
      </trkpt>
      <trkpt lat="39.8297370" lon="2.8170390">
        <ele>681.4</ele>
        <time>2018-12-30T12:24:12Z</time>
      </trkpt>
      <trkpt lat="39.8298300" lon="2.8169980">
        <ele>679.5</ele>
        <time>2018-12-30T12:24:13Z</time>
      </trkpt>
      <trkpt lat="39.8299230" lon="2.8169570">
        <ele>677.8</ele>
        <time>2018-12-30T12:24:14Z</time>
      </trkpt>
      <trkpt lat="39.8300180" lon="2.8169150">
        <ele>676.0</ele>
        <time>2018-12-30T12:24:15Z</time>
      </trkpt>
      <trkpt lat="39.8301090" lon="2.8168730">
        <ele>674.3</ele>
        <time>2018-12-30T12:24:16Z</time>
      </trkpt>
      <trkpt lat="39.8301960" lon="2.8168350">
        <ele>672.7</ele>
        <time>2018-12-30T12:24:17Z</time>
      </trkpt>
      <trkpt lat="39.8302800" lon="2.8168020">
        <ele>671.2</ele>
        <time>2018-12-30T12:24:18Z</time>
      </trkpt>
      <trkpt lat="39.8303630" lon="2.8167720">
        <ele>669.7</ele>
        <time>2018-12-30T12:24:19Z</time>
      </trkpt>
      <trkpt lat="39.8304470" lon="2.8167430">
        <ele>668.1</ele>
        <time>2018-12-30T12:24:20Z</time>
      </trkpt>
      <trkpt lat="39.8305330" lon="2.8167170">
        <ele>666.5</ele>
        <time>2018-12-30T12:24:21Z</time>
      </trkpt>
      <trkpt lat="39.8306220" lon="2.8166920">
        <ele>664.1</ele>
        <time>2018-12-30T12:24:22Z</time>
      </trkpt>
      <trkpt lat="39.8307150" lon="2.8166670">
        <ele>661.2</ele>
        <time>2018-12-30T12:24:23Z</time>
      </trkpt>
      <trkpt lat="39.8308110" lon="2.8166400">
        <ele>658.8</ele>
        <time>2018-12-30T12:24:24Z</time>
      </trkpt>
      <trkpt lat="39.8309090" lon="2.8166110">
        <ele>656.2</ele>
        <time>2018-12-30T12:24:25Z</time>
      </trkpt>
      <trkpt lat="39.8310080" lon="2.8165830">
        <ele>653.5</ele>
        <time>2018-12-30T12:24:26Z</time>
      </trkpt>
      <trkpt lat="39.8311090" lon="2.8165540">
        <ele>650.9</ele>
        <time>2018-12-30T12:24:27Z</time>
      </trkpt>
      <trkpt lat="39.8312120" lon="2.8165260">
        <ele>648.3</ele>
        <time>2018-12-30T12:24:28Z</time>
      </trkpt>
      <trkpt lat="39.8313170" lon="2.8164980">
        <ele>646.0</ele>
        <time>2018-12-30T12:24:29Z</time>
      </trkpt>
      <trkpt lat="39.8314200" lon="2.8164690">
        <ele>643.8</ele>
        <time>2018-12-30T12:24:30Z</time>
      </trkpt>
      <trkpt lat="39.8315180" lon="2.8164410">
        <ele>641.9</ele>
        <time>2018-12-30T12:24:31Z</time>
      </trkpt>
      <trkpt lat="39.8316080" lon="2.8164130">
        <ele>640.2</ele>
        <time>2018-12-30T12:24:32Z</time>
      </trkpt>
      <trkpt lat="39.8316900" lon="2.8163690">
        <ele>639.0</ele>
        <time>2018-12-30T12:24:33Z</time>
      </trkpt>
      <trkpt lat="39.8317670" lon="2.8163070">
        <ele>637.9</ele>
        <time>2018-12-30T12:24:34Z</time>
      </trkpt>
      <trkpt lat="39.8318400" lon="2.8162290">
        <ele>636.7</ele>
        <time>2018-12-30T12:24:35Z</time>
      </trkpt>
      <trkpt lat="39.8319120" lon="2.8161450">
        <ele>635.4</ele>
        <time>2018-12-30T12:24:36Z</time>
      </trkpt>
      <trkpt lat="39.8319820" lon="2.8160580">
        <ele>634.1</ele>
        <time>2018-12-30T12:24:37Z</time>
      </trkpt>
      <trkpt lat="39.8320460" lon="2.8159730">
        <ele>633.2</ele>
        <time>2018-12-30T12:24:38Z</time>
      </trkpt>
      <trkpt lat="39.8321040" lon="2.8158990">
        <ele>632.5</ele>
        <time>2018-12-30T12:24:39Z</time>
      </trkpt>
      <trkpt lat="39.8321530" lon="2.8158400">
        <ele>632.7</ele>
        <time>2018-12-30T12:24:40Z</time>
      </trkpt>
      <trkpt lat="39.8321960" lon="2.8157940">
        <ele>632.9</ele>
        <time>2018-12-30T12:24:41Z</time>
      </trkpt>
      <trkpt lat="39.8322330" lon="2.8157600">
        <ele>633.1</ele>
        <time>2018-12-30T12:24:42Z</time>
      </trkpt>
      <trkpt lat="39.8322700" lon="2.8157380">
        <ele>633.5</ele>
        <time>2018-12-30T12:24:43Z</time>
      </trkpt>
      <trkpt lat="39.8323060" lon="2.8157280">
        <ele>633.9</ele>
        <time>2018-12-30T12:24:44Z</time>
      </trkpt>
      <trkpt lat="39.8323480" lon="2.8157310">
        <ele>634.4</ele>
        <time>2018-12-30T12:24:45Z</time>
      </trkpt>
      <trkpt lat="39.8323930" lon="2.8157490">
        <ele>635.1</ele>
        <time>2018-12-30T12:24:46Z</time>
      </trkpt>
      <trkpt lat="39.8324380" lon="2.8157840">
        <ele>635.9</ele>
        <time>2018-12-30T12:24:47Z</time>
      </trkpt>
      <trkpt lat="39.8324760" lon="2.8158360">
        <ele>636.7</ele>
        <time>2018-12-30T12:24:48Z</time>
      </trkpt>
      <trkpt lat="39.8325010" lon="2.8158980">
        <ele>637.4</ele>
        <time>2018-12-30T12:24:49Z</time>
      </trkpt>
      <trkpt lat="39.8325060" lon="2.8159650">
        <ele>638.0</ele>
        <time>2018-12-30T12:24:50Z</time>
      </trkpt>
      <trkpt lat="39.8324880" lon="2.8160270">
        <ele>638.4</ele>
        <time>2018-12-30T12:24:51Z</time>
      </trkpt>
      <trkpt lat="39.8324530" lon="2.8160800">
        <ele>638.6</ele>
        <time>2018-12-30T12:24:52Z</time>
      </trkpt>
      <trkpt lat="39.8324080" lon="2.8161110">
        <ele>638.5</ele>
        <time>2018-12-30T12:24:53Z</time>
      </trkpt>
      <trkpt lat="39.8323550" lon="2.8161210">
        <ele>638.3</ele>
        <time>2018-12-30T12:24:54Z</time>
      </trkpt>
      <trkpt lat="39.8322970" lon="2.8161070">
        <ele>637.8</ele>
        <time>2018-12-30T12:24:55Z</time>
      </trkpt>
      <trkpt lat="39.8322370" lon="2.8160840">
        <ele>637.0</ele>
        <time>2018-12-30T12:24:56Z</time>
      </trkpt>
      <trkpt lat="39.8321800" lon="2.8160510">
        <ele>636.0</ele>
        <time>2018-12-30T12:24:57Z</time>
      </trkpt>
      <trkpt lat="39.8321330" lon="2.8160160">
        <ele>634.8</ele>
        <time>2018-12-30T12:24:58Z</time>
      </trkpt>
      <trkpt lat="39.8320910" lon="2.8159790">
        <ele>634.0</ele>
        <time>2018-12-30T12:24:59Z</time>
      </trkpt>
      <trkpt lat="39.8320550" lon="2.8159440">
        <ele>633.3</ele>
        <time>2018-12-30T12:25:00Z</time>
      </trkpt>
      <trkpt lat="39.8320240" lon="2.8159130">
        <ele>632.7</ele>
        <time>2018-12-30T12:25:01Z</time>
      </trkpt>
      <trkpt lat="39.8319980" lon="2.8158860">
        <ele>632.2</ele>
        <time>2018-12-30T12:25:02Z</time>
      </trkpt>
      <trkpt lat="39.8319800" lon="2.8158650">
        <ele>631.8</ele>
        <time>2018-12-30T12:25:03Z</time>
      </trkpt>
      <trkpt lat="39.8319600" lon="2.8158460">
        <ele>631.5</ele>
        <time>2018-12-30T12:25:04Z</time>
      </trkpt>
      <trkpt lat="39.8319420" lon="2.8158310">
        <ele>631.1</ele>
        <time>2018-12-30T12:25:05Z</time>
      </trkpt>
      <trkpt lat="39.8319220" lon="2.8158180">
        <ele>630.8</ele>
        <time>2018-12-30T12:25:06Z</time>
      </trkpt>
      <trkpt lat="39.8319000" lon="2.8158070">
        <ele>630.4</ele>
        <time>2018-12-30T12:25:07Z</time>
      </trkpt>
      <trkpt lat="39.8318770" lon="2.8157940">
        <ele>630.1</ele>
        <time>2018-12-30T12:25:08Z</time>
      </trkpt>
      <trkpt lat="39.8318530" lon="2.8157810">
        <ele>629.9</ele>
        <time>2018-12-30T12:25:09Z</time>
      </trkpt>
      <trkpt lat="39.8318300" lon="2.8157680">
        <ele>629.8</ele>
        <time>2018-12-30T12:25:10Z</time>
      </trkpt>
      <trkpt lat="39.8318090" lon="2.8157580">
        <ele>629.8</ele>
        <time>2018-12-30T12:25:11Z</time>
      </trkpt>
      <trkpt lat="39.8317940" lon="2.8157510">
        <ele>629.7</ele>
        <time>2018-12-30T12:25:12Z</time>
      </trkpt>
      <trkpt lat="39.8317850" lon="2.8157460">
        <ele>629.7</ele>
        <time>2018-12-30T12:25:13Z</time>
      </trkpt>
      <trkpt lat="39.8317810" lon="2.8157430">
        <ele>629.7</ele>
        <time>2018-12-30T12:25:14Z</time>
      </trkpt>
      <trkpt lat="39.8317800" lon="2.8157420">
        <ele>629.7</ele>
        <time>2018-12-30T12:25:15Z</time>
      </trkpt>
      <trkpt lat="39.8317820" lon="2.8157420">
        <ele>629.7</ele>
        <time>2018-12-30T12:25:16Z</time>
      </trkpt>
      <trkpt lat="39.8317820" lon="2.8157430">
        <ele>629.7</ele>
        <time>2018-12-30T12:25:17Z</time>
      </trkpt>
      <trkpt lat="39.8317840" lon="2.8157430">
        <ele>629.7</ele>
        <time>2018-12-30T12:25:18Z</time>
      </trkpt>
      <trkpt lat="39.8317840" lon="2.8157440">
        <ele>629.7</ele>
        <time>2018-12-30T12:25:19Z</time>
      </trkpt>
      <trkpt lat="39.8317840" lon="2.8157440">
        <ele>629.7</ele>
        <time>2018-12-30T12:25:20Z</time>
      </trkpt>
      <trkpt lat="39.8317850" lon="2.8157430">
        <ele>629.7</ele>
        <time>2018-12-30T12:25:21Z</time>
      </trkpt>
      <trkpt lat="39.8317850" lon="2.8157430">
        <ele>629.7</ele>
        <time>2018-12-30T12:25:22Z</time>
      </trkpt>
      <trkpt lat="39.8317860" lon="2.8157430">
        <ele>629.7</ele>
        <time>2018-12-30T12:25:23Z</time>
      </trkpt>
      <trkpt lat="39.8317850" lon="2.8157430">
        <ele>629.7</ele>
        <time>2018-12-30T12:25:24Z</time>
      </trkpt>
      <trkpt lat="39.8317840" lon="2.8157420">
        <ele>629.7</ele>
        <time>2018-12-30T12:25:25Z</time>
      </trkpt>
      <trkpt lat="39.8317830" lon="2.8157420">
        <ele>629.7</ele>
        <time>2018-12-30T12:25:26Z</time>
      </trkpt>
      <trkpt lat="39.8317820" lon="2.8157400">
        <ele>629.7</ele>
        <time>2018-12-30T12:25:27Z</time>
      </trkpt>
      <trkpt lat="39.8317790" lon="2.8157380">
        <ele>629.6</ele>
        <time>2018-12-30T12:25:28Z</time>
      </trkpt>
      <trkpt lat="39.8317760" lon="2.8157360">
        <ele>629.6</ele>
        <time>2018-12-30T12:25:29Z</time>
      </trkpt>
      <trkpt lat="39.8317740" lon="2.8157360">
        <ele>629.6</ele>
        <time>2018-12-30T12:25:30Z</time>
      </trkpt>
      <trkpt lat="39.8317730" lon="2.8157370">
        <ele>629.6</ele>
        <time>2018-12-30T12:25:31Z</time>
      </trkpt>
      <trkpt lat="39.8317740" lon="2.8157370">
        <ele>629.6</ele>
        <time>2018-12-30T12:25:32Z</time>
      </trkpt>
      <trkpt lat="39.8317740" lon="2.8157380">
        <ele>629.6</ele>
        <time>2018-12-30T12:25:33Z</time>
      </trkpt>
      <trkpt lat="39.8317750" lon="2.8157380">
        <ele>629.6</ele>
        <time>2018-12-30T12:25:34Z</time>
      </trkpt>
      <trkpt lat="39.8317740" lon="2.8157380">
        <ele>629.6</ele>
        <time>2018-12-30T12:25:35Z</time>
      </trkpt>
      <trkpt lat="39.8317730" lon="2.8157380">
        <ele>629.6</ele>
        <time>2018-12-30T12:25:36Z</time>
      </trkpt>
      <trkpt lat="39.8317720" lon="2.8157380">
        <ele>629.6</ele>
        <time>2018-12-30T12:25:37Z</time>
      </trkpt>
      <trkpt lat="39.8317710" lon="2.8157380">
        <ele>629.6</ele>
        <time>2018-12-30T12:25:38Z</time>
      </trkpt>
      <trkpt lat="39.8317700" lon="2.8157370">
        <ele>629.6</ele>
        <time>2018-12-30T12:25:39Z</time>
      </trkpt>
      <trkpt lat="39.8317700" lon="2.8157370">
        <ele>629.6</ele>
        <time>2018-12-30T12:25:40Z</time>
      </trkpt>
      <trkpt lat="39.8317700" lon="2.8157360">
        <ele>629.6</ele>
        <time>2018-12-30T12:25:41Z</time>
      </trkpt>
      <trkpt lat="39.8317710" lon="2.8157350">
        <ele>629.6</ele>
        <time>2018-12-30T12:25:42Z</time>
      </trkpt>
      <trkpt lat="39.8317720" lon="2.8157340">
        <ele>629.6</ele>
        <time>2018-12-30T12:25:43Z</time>
      </trkpt>
      <trkpt lat="39.8317720" lon="2.8157340">
        <ele>629.6</ele>
        <time>2018-12-30T12:25:44Z</time>
      </trkpt>
      <trkpt lat="39.8317720" lon="2.8157330">
        <ele>629.6</ele>
        <time>2018-12-30T12:25:45Z</time>
      </trkpt>
      <trkpt lat="39.8317730" lon="2.8157330">
        <ele>629.6</ele>
        <time>2018-12-30T12:25:46Z</time>
      </trkpt>
      <trkpt lat="39.8317730" lon="2.8157330">
        <ele>629.6</ele>
        <time>2018-12-30T12:25:47Z</time>
      </trkpt>
      <trkpt lat="39.8317740" lon="2.8157330">
        <ele>629.6</ele>
        <time>2018-12-30T12:25:48Z</time>
      </trkpt>
      <trkpt lat="39.8317750" lon="2.8157340">
        <ele>629.6</ele>
        <time>2018-12-30T12:25:49Z</time>
      </trkpt>
      <trkpt lat="39.8317760" lon="2.8157340">
        <ele>629.6</ele>
        <time>2018-12-30T12:25:50Z</time>
      </trkpt>
      <trkpt lat="39.8317770" lon="2.8157350">
        <ele>629.6</ele>
        <time>2018-12-30T12:25:51Z</time>
      </trkpt>
      <trkpt lat="39.8317780" lon="2.8157360">
        <ele>629.6</ele>
        <time>2018-12-30T12:25:52Z</time>
      </trkpt>
      <trkpt lat="39.8317790" lon="2.8157360">
        <ele>629.6</ele>
        <time>2018-12-30T12:25:53Z</time>
      </trkpt>
      <trkpt lat="39.8317810" lon="2.8157370">
        <ele>629.6</ele>
        <time>2018-12-30T12:25:54Z</time>
      </trkpt>
      <trkpt lat="39.8317820" lon="2.8157370">
        <ele>629.6</ele>
        <time>2018-12-30T12:25:55Z</time>
      </trkpt>
      <trkpt lat="39.8317840" lon="2.8157370">
        <ele>629.6</ele>
        <time>2018-12-30T12:25:56Z</time>
      </trkpt>
      <trkpt lat="39.8317860" lon="2.8157380">
        <ele>629.5</ele>
        <time>2018-12-30T12:25:57Z</time>
      </trkpt>
      <trkpt lat="39.8317870" lon="2.8157380">
        <ele>629.5</ele>
        <time>2018-12-30T12:25:58Z</time>
      </trkpt>
      <trkpt lat="39.8317890" lon="2.8157390">
        <ele>629.5</ele>
        <time>2018-12-30T12:25:59Z</time>
      </trkpt>
      <trkpt lat="39.8317900" lon="2.8157400">
        <ele>629.5</ele>
        <time>2018-12-30T12:26:00Z</time>
      </trkpt>
      <trkpt lat="39.8317900" lon="2.8157400">
        <ele>629.5</ele>
        <time>2018-12-30T12:26:01Z</time>
      </trkpt>
      <trkpt lat="39.8317910" lon="2.8157400">
        <ele>629.5</ele>
        <time>2018-12-30T12:26:02Z</time>
      </trkpt>
      <trkpt lat="39.8317910" lon="2.8157410">
        <ele>629.5</ele>
        <time>2018-12-30T12:26:03Z</time>
      </trkpt>
      <trkpt lat="39.8317920" lon="2.8157410">
        <ele>629.5</ele>
        <time>2018-12-30T12:26:04Z</time>
      </trkpt>
      <trkpt lat="39.8317920" lon="2.8157410">
        <ele>629.5</ele>
        <time>2018-12-30T12:26:05Z</time>
      </trkpt>
      <trkpt lat="39.8317930" lon="2.8157410">
        <ele>629.5</ele>
        <time>2018-12-30T12:26:06Z</time>
      </trkpt>
      <trkpt lat="39.8317930" lon="2.8157410">
        <ele>629.5</ele>
        <time>2018-12-30T12:26:07Z</time>
      </trkpt>
      <trkpt lat="39.8317930" lon="2.8157410">
        <ele>629.5</ele>
        <time>2018-12-30T12:26:08Z</time>
      </trkpt>
      <trkpt lat="39.8317930" lon="2.8157400">
        <ele>629.5</ele>
        <time>2018-12-30T12:26:09Z</time>
      </trkpt>
      <trkpt lat="39.8317930" lon="2.8157390">
        <ele>629.5</ele>
        <time>2018-12-30T12:26:10Z</time>
      </trkpt>
      <trkpt lat="39.8317930" lon="2.8157390">
        <ele>629.5</ele>
        <time>2018-12-30T12:26:11Z</time>
      </trkpt>
      <trkpt lat="39.8317930" lon="2.8157380">
        <ele>629.5</ele>
        <time>2018-12-30T12:26:12Z</time>
      </trkpt>
      <trkpt lat="39.8317930" lon="2.8157380">
        <ele>629.5</ele>
        <time>2018-12-30T12:26:13Z</time>
      </trkpt>
      <trkpt lat="39.8317920" lon="2.8157380">
        <ele>629.5</ele>
        <time>2018-12-30T12:26:14Z</time>
      </trkpt>
      <trkpt lat="39.8317910" lon="2.8157380">
        <ele>629.5</ele>
        <time>2018-12-30T12:26:15Z</time>
      </trkpt>
      <trkpt lat="39.8317900" lon="2.8157380">
        <ele>629.5</ele>
        <time>2018-12-30T12:26:16Z</time>
      </trkpt>
      <trkpt lat="39.8317890" lon="2.8157380">
        <ele>629.5</ele>
        <time>2018-12-30T12:26:17Z</time>
      </trkpt>
      <trkpt lat="39.8317880" lon="2.8157380">
        <ele>629.5</ele>
        <time>2018-12-30T12:26:18Z</time>
      </trkpt>
      <trkpt lat="39.8317860" lon="2.8157380">
        <ele>629.5</ele>
        <time>2018-12-30T12:26:19Z</time>
      </trkpt>
      <trkpt lat="39.8317850" lon="2.8157390">
        <ele>629.5</ele>
        <time>2018-12-30T12:26:20Z</time>
      </trkpt>
      <trkpt lat="39.8317850" lon="2.8157390">
        <ele>629.5</ele>
        <time>2018-12-30T12:26:21Z</time>
      </trkpt>
      <trkpt lat="39.8317850" lon="2.8157400">
        <ele>629.5</ele>
        <time>2018-12-30T12:26:22Z</time>
      </trkpt>
      <trkpt lat="39.8317850" lon="2.8157400">
        <ele>629.5</ele>
        <time>2018-12-30T12:26:23Z</time>
      </trkpt>
      <trkpt lat="39.8317850" lon="2.8157410">
        <ele>629.5</ele>
        <time>2018-12-30T12:26:24Z</time>
      </trkpt>
      <trkpt lat="39.8317850" lon="2.8157420">
        <ele>629.5</ele>
        <time>2018-12-30T12:26:25Z</time>
      </trkpt>
      <trkpt lat="39.8317850" lon="2.8157420">
        <ele>629.5</ele>
        <time>2018-12-30T12:26:26Z</time>
      </trkpt>
      <trkpt lat="39.8317850" lon="2.8157420">
        <ele>629.5</ele>
        <time>2018-12-30T12:26:27Z</time>
      </trkpt>
      <trkpt lat="39.8317850" lon="2.8157430">
        <ele>629.5</ele>
        <time>2018-12-30T12:26:28Z</time>
      </trkpt>
      <trkpt lat="39.8317850" lon="2.8157430">
        <ele>629.5</ele>
        <time>2018-12-30T12:26:29Z</time>
      </trkpt>
      <trkpt lat="39.8317860" lon="2.8157430">
        <ele>629.5</ele>
        <time>2018-12-30T12:26:30Z</time>
      </trkpt>
      <trkpt lat="39.8317860" lon="2.8157430">
        <ele>629.5</ele>
        <time>2018-12-30T12:26:31Z</time>
      </trkpt>
      <trkpt lat="39.8317870" lon="2.8157430">
        <ele>629.5</ele>
        <time>2018-12-30T12:26:32Z</time>
      </trkpt>
      <trkpt lat="39.8317870" lon="2.8157430">
        <ele>629.5</ele>
        <time>2018-12-30T12:26:33Z</time>
      </trkpt>
      <trkpt lat="39.8317880" lon="2.8157430">
        <ele>629.5</ele>
        <time>2018-12-30T12:26:34Z</time>
      </trkpt>
      <trkpt lat="39.8317880" lon="2.8157430">
        <ele>629.5</ele>
        <time>2018-12-30T12:26:35Z</time>
      </trkpt>
      <trkpt lat="39.8317890" lon="2.8157430">
        <ele>629.5</ele>
        <time>2018-12-30T12:26:36Z</time>
      </trkpt>
      <trkpt lat="39.8317890" lon="2.8157430">
        <ele>629.5</ele>
        <time>2018-12-30T12:26:37Z</time>
      </trkpt>
      <trkpt lat="39.8317890" lon="2.8157440">
        <ele>629.5</ele>
        <time>2018-12-30T12:26:38Z</time>
      </trkpt>
      <trkpt lat="39.8317890" lon="2.8157440">
        <ele>629.5</ele>
        <time>2018-12-30T12:26:39Z</time>
      </trkpt>
      <trkpt lat="39.8317890" lon="2.8157440">
        <ele>629.5</ele>
        <time>2018-12-30T12:26:40Z</time>
      </trkpt>
      <trkpt lat="39.8317890" lon="2.8157440">
        <ele>629.5</ele>
        <time>2018-12-30T12:26:41Z</time>
      </trkpt>
      <trkpt lat="39.8317890" lon="2.8157440">
        <ele>629.5</ele>
        <time>2018-12-30T12:26:42Z</time>
      </trkpt>
      <trkpt lat="39.8317890" lon="2.8157440">
        <ele>629.5</ele>
        <time>2018-12-30T12:26:43Z</time>
      </trkpt>
      <trkpt lat="39.8317880" lon="2.8157440">
        <ele>629.5</ele>
        <time>2018-12-30T12:26:44Z</time>
      </trkpt>
      <trkpt lat="39.8317880" lon="2.8157440">
        <ele>629.5</ele>
        <time>2018-12-30T12:26:45Z</time>
      </trkpt>
      <trkpt lat="39.8317880" lon="2.8157440">
        <ele>629.5</ele>
        <time>2018-12-30T12:26:46Z</time>
      </trkpt>
      <trkpt lat="39.8317880" lon="2.8157440">
        <ele>629.5</ele>
        <time>2018-12-30T12:26:47Z</time>
      </trkpt>
      <trkpt lat="39.8317880" lon="2.8157440">
        <ele>629.5</ele>
        <time>2018-12-30T12:26:48Z</time>
      </trkpt>
      <trkpt lat="39.8317890" lon="2.8157440">
        <ele>629.5</ele>
        <time>2018-12-30T12:26:49Z</time>
      </trkpt>
      <trkpt lat="39.8317890" lon="2.8157450">
        <ele>629.5</ele>
        <time>2018-12-30T12:26:50Z</time>
      </trkpt>
      <trkpt lat="39.8317890" lon="2.8157450">
        <ele>629.5</ele>
        <time>2018-12-30T12:26:51Z</time>
      </trkpt>
      <trkpt lat="39.8317890" lon="2.8157450">
        <ele>629.5</ele>
        <time>2018-12-30T12:26:52Z</time>
      </trkpt>
      <trkpt lat="39.8317890" lon="2.8157450">
        <ele>629.5</ele>
        <time>2018-12-30T12:26:53Z</time>
      </trkpt>
      <trkpt lat="39.8317890" lon="2.8157450">
        <ele>629.5</ele>
        <time>2018-12-30T12:26:54Z</time>
      </trkpt>
      <trkpt lat="39.8317890" lon="2.8157450">
        <ele>629.5</ele>
        <time>2018-12-30T12:26:55Z</time>
      </trkpt>
      <trkpt lat="39.8317890" lon="2.8157460">
        <ele>629.5</ele>
        <time>2018-12-30T12:26:56Z</time>
      </trkpt>
      <trkpt lat="39.8317900" lon="2.8157460">
        <ele>629.5</ele>
        <time>2018-12-30T12:26:57Z</time>
      </trkpt>
      <trkpt lat="39.8317900" lon="2.8157460">
        <ele>629.5</ele>
        <time>2018-12-30T12:26:58Z</time>
      </trkpt>
      <trkpt lat="39.8317910" lon="2.8157460">
        <ele>629.5</ele>
        <time>2018-12-30T12:26:59Z</time>
      </trkpt>
      <trkpt lat="39.8317920" lon="2.8157460">
        <ele>629.5</ele>
        <time>2018-12-30T12:27:00Z</time>
      </trkpt>
      <trkpt lat="39.8317920" lon="2.8157460">
        <ele>629.5</ele>
        <time>2018-12-30T12:27:01Z</time>
      </trkpt>
      <trkpt lat="39.8317930" lon="2.8157460">
        <ele>629.5</ele>
        <time>2018-12-30T12:27:02Z</time>
      </trkpt>
      <trkpt lat="39.8317940" lon="2.8157460">
        <ele>629.5</ele>
        <time>2018-12-30T12:27:03Z</time>
      </trkpt>
      <trkpt lat="39.8317950" lon="2.8157460">
        <ele>629.4</ele>
        <time>2018-12-30T12:27:04Z</time>
      </trkpt>
      <trkpt lat="39.8317960" lon="2.8157460">
        <ele>629.4</ele>
        <time>2018-12-30T12:27:05Z</time>
      </trkpt>
      <trkpt lat="39.8317960" lon="2.8157460">
        <ele>629.4</ele>
        <time>2018-12-30T12:27:06Z</time>
      </trkpt>
      <trkpt lat="39.8317970" lon="2.8157460">
        <ele>629.4</ele>
        <time>2018-12-30T12:27:07Z</time>
      </trkpt>
      <trkpt lat="39.8317980" lon="2.8157460">
        <ele>629.4</ele>
        <time>2018-12-30T12:27:08Z</time>
      </trkpt>
      <trkpt lat="39.8317990" lon="2.8157460">
        <ele>629.4</ele>
        <time>2018-12-30T12:27:09Z</time>
      </trkpt>
      <trkpt lat="39.8317990" lon="2.8157460">
        <ele>629.4</ele>
        <time>2018-12-30T12:27:10Z</time>
      </trkpt>
      <trkpt lat="39.8318000" lon="2.8157460">
        <ele>629.4</ele>
        <time>2018-12-30T12:27:11Z</time>
      </trkpt>
      <trkpt lat="39.8318000" lon="2.8157460">
        <ele>629.4</ele>
        <time>2018-12-30T12:27:12Z</time>
      </trkpt>
      <trkpt lat="39.8318010" lon="2.8157460">
        <ele>629.4</ele>
        <time>2018-12-30T12:27:13Z</time>
      </trkpt>
      <trkpt lat="39.8318010" lon="2.8157460">
        <ele>629.4</ele>
        <time>2018-12-30T12:27:14Z</time>
      </trkpt>
      <trkpt lat="39.8318020" lon="2.8157460">
        <ele>629.4</ele>
        <time>2018-12-30T12:27:15Z</time>
      </trkpt>
      <trkpt lat="39.8318030" lon="2.8157460">
        <ele>629.4</ele>
        <time>2018-12-30T12:27:16Z</time>
      </trkpt>
      <trkpt lat="39.8318030" lon="2.8157460">
        <ele>629.4</ele>
        <time>2018-12-30T12:27:17Z</time>
      </trkpt>
      <trkpt lat="39.8318040" lon="2.8157460">
        <ele>629.4</ele>
        <time>2018-12-30T12:27:18Z</time>
      </trkpt>
      <trkpt lat="39.8318050" lon="2.8157460">
        <ele>629.4</ele>
        <time>2018-12-30T12:27:19Z</time>
      </trkpt>
      <trkpt lat="39.8318050" lon="2.8157460">
        <ele>629.4</ele>
        <time>2018-12-30T12:27:20Z</time>
      </trkpt>
      <trkpt lat="39.8318050" lon="2.8157460">
        <ele>629.4</ele>
        <time>2018-12-30T12:27:21Z</time>
      </trkpt>
      <trkpt lat="39.8318050" lon="2.8157460">
        <ele>629.4</ele>
        <time>2018-12-30T12:27:22Z</time>
      </trkpt>
      <trkpt lat="39.8318050" lon="2.8157460">
        <ele>629.4</ele>
        <time>2018-12-30T12:27:23Z</time>
      </trkpt>
      <trkpt lat="39.8318050" lon="2.8157460">
        <ele>629.4</ele>
        <time>2018-12-30T12:27:24Z</time>
      </trkpt>
      <trkpt lat="39.8318050" lon="2.8157460">
        <ele>629.4</ele>
        <time>2018-12-30T12:27:25Z</time>
      </trkpt>
      <trkpt lat="39.8318050" lon="2.8157460">
        <ele>629.4</ele>
        <time>2018-12-30T12:27:26Z</time>
      </trkpt>
      <trkpt lat="39.8318050" lon="2.8157460">
        <ele>629.4</ele>
        <time>2018-12-30T12:27:27Z</time>
      </trkpt>
      <trkpt lat="39.8318050" lon="2.8157460">
        <ele>629.4</ele>
        <time>2018-12-30T12:27:28Z</time>
      </trkpt>
      <trkpt lat="39.8318050" lon="2.8157460">
        <ele>629.4</ele>
        <time>2018-12-30T12:27:29Z</time>
      </trkpt>
      <trkpt lat="39.8318050" lon="2.8157460">
        <ele>629.4</ele>
        <time>2018-12-30T12:27:30Z</time>
      </trkpt>
      <trkpt lat="39.8318060" lon="2.8157460">
        <ele>629.4</ele>
        <time>2018-12-30T12:27:31Z</time>
      </trkpt>
      <trkpt lat="39.8318060" lon="2.8157470">
        <ele>629.4</ele>
        <time>2018-12-30T12:27:32Z</time>
      </trkpt>
      <trkpt lat="39.8318060" lon="2.8157470">
        <ele>629.4</ele>
        <time>2018-12-30T12:27:33Z</time>
      </trkpt>
      <trkpt lat="39.8318060" lon="2.8157480">
        <ele>629.4</ele>
        <time>2018-12-30T12:27:34Z</time>
      </trkpt>
      <trkpt lat="39.8318060" lon="2.8157480">
        <ele>629.4</ele>
        <time>2018-12-30T12:27:35Z</time>
      </trkpt>
      <trkpt lat="39.8318050" lon="2.8157480">
        <ele>629.4</ele>
        <time>2018-12-30T12:27:36Z</time>
      </trkpt>
      <trkpt lat="39.8318040" lon="2.8157480">
        <ele>629.4</ele>
        <time>2018-12-30T12:27:37Z</time>
      </trkpt>
      <trkpt lat="39.8318030" lon="2.8157480">
        <ele>629.4</ele>
        <time>2018-12-30T12:27:38Z</time>
      </trkpt>
      <trkpt lat="39.8318020" lon="2.8157480">
        <ele>629.4</ele>
        <time>2018-12-30T12:27:39Z</time>
      </trkpt>
      <trkpt lat="39.8318020" lon="2.8157480">
        <ele>629.4</ele>
        <time>2018-12-30T12:27:40Z</time>
      </trkpt>
      <trkpt lat="39.8318010" lon="2.8157480">
        <ele>629.4</ele>
        <time>2018-12-30T12:27:41Z</time>
      </trkpt>
      <trkpt lat="39.8318010" lon="2.8157480">
        <ele>629.4</ele>
        <time>2018-12-30T12:27:42Z</time>
      </trkpt>
      <trkpt lat="39.8318000" lon="2.8157480">
        <ele>629.4</ele>
        <time>2018-12-30T12:27:43Z</time>
      </trkpt>
      <trkpt lat="39.8318000" lon="2.8157480">
        <ele>629.4</ele>
        <time>2018-12-30T12:27:44Z</time>
      </trkpt>
      <trkpt lat="39.8318000" lon="2.8157480">
        <ele>629.4</ele>
        <time>2018-12-30T12:27:45Z</time>
      </trkpt>
      <trkpt lat="39.8318000" lon="2.8157480">
        <ele>629.4</ele>
        <time>2018-12-30T12:27:46Z</time>
      </trkpt>
      <trkpt lat="39.8317990" lon="2.8157480">
        <ele>629.4</ele>
        <time>2018-12-30T12:27:47Z</time>
      </trkpt>
      <trkpt lat="39.8317990" lon="2.8157480">
        <ele>629.4</ele>
        <time>2018-12-30T12:27:48Z</time>
      </trkpt>
      <trkpt lat="39.8317980" lon="2.8157470">
        <ele>629.4</ele>
        <time>2018-12-30T12:27:49Z</time>
      </trkpt>
      <trkpt lat="39.8317980" lon="2.8157450">
        <ele>629.4</ele>
        <time>2018-12-30T12:27:50Z</time>
      </trkpt>
      <trkpt lat="39.8317970" lon="2.8157450">
        <ele>629.4</ele>
        <time>2018-12-30T12:27:51Z</time>
      </trkpt>
      <trkpt lat="39.8317970" lon="2.8157440">
        <ele>629.4</ele>
        <time>2018-12-30T12:27:52Z</time>
      </trkpt>
      <trkpt lat="39.8317970" lon="2.8157430">
        <ele>629.4</ele>
        <time>2018-12-30T12:27:53Z</time>
      </trkpt>
      <trkpt lat="39.8317970" lon="2.8157430">
        <ele>629.4</ele>
        <time>2018-12-30T12:27:54Z</time>
      </trkpt>
      <trkpt lat="39.8317970" lon="2.8157420">
        <ele>629.4</ele>
        <time>2018-12-30T12:27:55Z</time>
      </trkpt>
      <trkpt lat="39.8317970" lon="2.8157420">
        <ele>629.4</ele>
        <time>2018-12-30T12:27:56Z</time>
      </trkpt>
      <trkpt lat="39.8317960" lon="2.8157410">
        <ele>629.4</ele>
        <time>2018-12-30T12:27:57Z</time>
      </trkpt>
      <trkpt lat="39.8317960" lon="2.8157410">
        <ele>629.4</ele>
        <time>2018-12-30T12:27:58Z</time>
      </trkpt>
      <trkpt lat="39.8317950" lon="2.8157410">
        <ele>629.4</ele>
        <time>2018-12-30T12:27:59Z</time>
      </trkpt>
      <trkpt lat="39.8317950" lon="2.8157410">
        <ele>629.4</ele>
        <time>2018-12-30T12:28:00Z</time>
      </trkpt>
      <trkpt lat="39.8317950" lon="2.8157410">
        <ele>629.4</ele>
        <time>2018-12-30T12:28:01Z</time>
      </trkpt>
      <trkpt lat="39.8317940" lon="2.8157400">
        <ele>629.4</ele>
        <time>2018-12-30T12:28:02Z</time>
      </trkpt>
      <trkpt lat="39.8317940" lon="2.8157400">
        <ele>629.4</ele>
        <time>2018-12-30T12:28:03Z</time>
      </trkpt>
      <trkpt lat="39.8317930" lon="2.8157400">
        <ele>629.4</ele>
        <time>2018-12-30T12:28:04Z</time>
      </trkpt>
      <trkpt lat="39.8317920" lon="2.8157390">
        <ele>629.4</ele>
        <time>2018-12-30T12:28:05Z</time>
      </trkpt>
      <trkpt lat="39.8317920" lon="2.8157390">
        <ele>629.4</ele>
        <time>2018-12-30T12:28:06Z</time>
      </trkpt>
      <trkpt lat="39.8317910" lon="2.8157390">
        <ele>629.4</ele>
        <time>2018-12-30T12:28:07Z</time>
      </trkpt>
      <trkpt lat="39.8317910" lon="2.8157390">
        <ele>629.4</ele>
        <time>2018-12-30T12:28:08Z</time>
      </trkpt>
      <trkpt lat="39.8317900" lon="2.8157390">
        <ele>629.4</ele>
        <time>2018-12-30T12:28:09Z</time>
      </trkpt>
      <trkpt lat="39.8317900" lon="2.8157390">
        <ele>629.4</ele>
        <time>2018-12-30T12:28:10Z</time>
      </trkpt>
      <trkpt lat="39.8317890" lon="2.8157390">
        <ele>629.4</ele>
        <time>2018-12-30T12:28:11Z</time>
      </trkpt>
      <trkpt lat="39.8317890" lon="2.8157390">
        <ele>629.4</ele>
        <time>2018-12-30T12:28:12Z</time>
      </trkpt>
      <trkpt lat="39.8317890" lon="2.8157390">
        <ele>629.4</ele>
        <time>2018-12-30T12:28:13Z</time>
      </trkpt>
      <trkpt lat="39.8317880" lon="2.8157390">
        <ele>629.3</ele>
        <time>2018-12-30T12:28:14Z</time>
      </trkpt>
      <trkpt lat="39.8317880" lon="2.8157390">
        <ele>629.3</ele>
        <time>2018-12-30T12:28:15Z</time>
      </trkpt>
      <trkpt lat="39.8317880" lon="2.8157380">
        <ele>629.3</ele>
        <time>2018-12-30T12:28:16Z</time>
      </trkpt>
      <trkpt lat="39.8317870" lon="2.8157380">
        <ele>629.3</ele>
        <time>2018-12-30T12:28:17Z</time>
      </trkpt>
      <trkpt lat="39.8317870" lon="2.8157380">
        <ele>629.3</ele>
        <time>2018-12-30T12:28:18Z</time>
      </trkpt>
      <trkpt lat="39.8317860" lon="2.8157370">
        <ele>629.3</ele>
        <time>2018-12-30T12:28:19Z</time>
      </trkpt>
      <trkpt lat="39.8317860" lon="2.8157370">
        <ele>629.3</ele>
        <time>2018-12-30T12:28:20Z</time>
      </trkpt>
      <trkpt lat="39.8317860" lon="2.8157370">
        <ele>629.3</ele>
        <time>2018-12-30T12:28:21Z</time>
      </trkpt>
      <trkpt lat="39.8317860" lon="2.8157370">
        <ele>629.3</ele>
        <time>2018-12-30T12:28:22Z</time>
      </trkpt>
      <trkpt lat="39.8317860" lon="2.8157380">
        <ele>629.3</ele>
        <time>2018-12-30T12:28:23Z</time>
      </trkpt>
      <trkpt lat="39.8317860" lon="2.8157380">
        <ele>629.3</ele>
        <time>2018-12-30T12:28:24Z</time>
      </trkpt>
      <trkpt lat="39.8317860" lon="2.8157380">
        <ele>629.3</ele>
        <time>2018-12-30T12:28:25Z</time>
      </trkpt>
      <trkpt lat="39.8317860" lon="2.8157380">
        <ele>629.3</ele>
        <time>2018-12-30T12:28:26Z</time>
      </trkpt>
      <trkpt lat="39.8317860" lon="2.8157380">
        <ele>629.3</ele>
        <time>2018-12-30T12:28:27Z</time>
      </trkpt>
      <trkpt lat="39.8317870" lon="2.8157380">
        <ele>629.3</ele>
        <time>2018-12-30T12:28:28Z</time>
      </trkpt>
      <trkpt lat="39.8317870" lon="2.8157380">
        <ele>629.3</ele>
        <time>2018-12-30T12:28:29Z</time>
      </trkpt>
      <trkpt lat="39.8317870" lon="2.8157380">
        <ele>629.3</ele>
        <time>2018-12-30T12:28:30Z</time>
      </trkpt>
      <trkpt lat="39.8317870" lon="2.8157380">
        <ele>629.3</ele>
        <time>2018-12-30T12:28:31Z</time>
      </trkpt>
      <trkpt lat="39.8317870" lon="2.8157390">
        <ele>629.3</ele>
        <time>2018-12-30T12:28:32Z</time>
      </trkpt>
      <trkpt lat="39.8317870" lon="2.8157390">
        <ele>629.3</ele>
        <time>2018-12-30T12:28:33Z</time>
      </trkpt>
      <trkpt lat="39.8317870" lon="2.8157390">
        <ele>629.3</ele>
        <time>2018-12-30T12:28:34Z</time>
      </trkpt>
      <trkpt lat="39.8317870" lon="2.8157380">
        <ele>629.3</ele>
        <time>2018-12-30T12:28:35Z</time>
      </trkpt>
      <trkpt lat="39.8317880" lon="2.8157380">
        <ele>629.3</ele>
        <time>2018-12-30T12:28:36Z</time>
      </trkpt>
      <trkpt lat="39.8317890" lon="2.8157370">
        <ele>629.3</ele>
        <time>2018-12-30T12:28:37Z</time>
      </trkpt>
      <trkpt lat="39.8317890" lon="2.8157370">
        <ele>629.3</ele>
        <time>2018-12-30T12:28:38Z</time>
      </trkpt>
      <trkpt lat="39.8317890" lon="2.8157370">
        <ele>629.3</ele>
        <time>2018-12-30T12:28:39Z</time>
      </trkpt>
      <trkpt lat="39.8317880" lon="2.8157370">
        <ele>629.3</ele>
        <time>2018-12-30T12:28:40Z</time>
      </trkpt>
      <trkpt lat="39.8317840" lon="2.8157370">
        <ele>629.3</ele>
        <time>2018-12-30T12:28:41Z</time>
      </trkpt>
      <trkpt lat="39.8317730" lon="2.8157370">
        <ele>629.3</ele>
        <time>2018-12-30T12:28:42Z</time>
      </trkpt>
      <trkpt lat="39.8317550" lon="2.8157370">
        <ele>629.2</ele>
        <time>2018-12-30T12:28:43Z</time>
      </trkpt>
      <trkpt lat="39.8317310" lon="2.8157370">
        <ele>629.1</ele>
        <time>2018-12-30T12:28:44Z</time>
      </trkpt>
      <trkpt lat="39.8317020" lon="2.8157400">
        <ele>629.1</ele>
        <time>2018-12-30T12:28:45Z</time>
      </trkpt>
      <trkpt lat="39.8316700" lon="2.8157470">
        <ele>629.0</ele>
        <time>2018-12-30T12:28:46Z</time>
      </trkpt>
      <trkpt lat="39.8316320" lon="2.8157570">
        <ele>628.8</ele>
        <time>2018-12-30T12:28:47Z</time>
      </trkpt>
      <trkpt lat="39.8315900" lon="2.8157710">
        <ele>628.7</ele>
        <time>2018-12-30T12:28:48Z</time>
      </trkpt>
      <trkpt lat="39.8315430" lon="2.8157870">
        <ele>628.5</ele>
        <time>2018-12-30T12:28:49Z</time>
      </trkpt>
      <trkpt lat="39.8314920" lon="2.8158050">
        <ele>628.3</ele>
        <time>2018-12-30T12:28:50Z</time>
      </trkpt>
      <trkpt lat="39.8314370" lon="2.8158250">
        <ele>628.0</ele>
        <time>2018-12-30T12:28:51Z</time>
      </trkpt>
      <trkpt lat="39.8313800" lon="2.8158450">
        <ele>627.7</ele>
        <time>2018-12-30T12:28:52Z</time>
      </trkpt>
      <trkpt lat="39.8313200" lon="2.8158670">
        <ele>627.4</ele>
        <time>2018-12-30T12:28:53Z</time>
      </trkpt>
      <trkpt lat="39.8312580" lon="2.8158890">
        <ele>627.1</ele>
        <time>2018-12-30T12:28:54Z</time>
      </trkpt>
      <trkpt lat="39.8311930" lon="2.8159130">
        <ele>626.7</ele>
        <time>2018-12-30T12:28:55Z</time>
      </trkpt>
      <trkpt lat="39.8311260" lon="2.8159380">
        <ele>626.3</ele>
        <time>2018-12-30T12:28:56Z</time>
      </trkpt>
      <trkpt lat="39.8310560" lon="2.8159630">
        <ele>625.9</ele>
        <time>2018-12-30T12:28:57Z</time>
      </trkpt>
      <trkpt lat="39.8309830" lon="2.8159890">
        <ele>625.5</ele>
        <time>2018-12-30T12:28:58Z</time>
      </trkpt>
      <trkpt lat="39.8309080" lon="2.8160140">
        <ele>625.2</ele>
        <time>2018-12-30T12:28:59Z</time>
      </trkpt>
      <trkpt lat="39.8308310" lon="2.8160340">
        <ele>625.0</ele>
        <time>2018-12-30T12:29:00Z</time>
      </trkpt>
      <trkpt lat="39.8307500" lon="2.8160440">
        <ele>624.7</ele>
        <time>2018-12-30T12:29:01Z</time>
      </trkpt>
      <trkpt lat="39.8306650" lon="2.8160410">
        <ele>624.4</ele>
        <time>2018-12-30T12:29:02Z</time>
      </trkpt>
      <trkpt lat="39.8305810" lon="2.8160240">
        <ele>624.1</ele>
        <time>2018-12-30T12:29:03Z</time>
      </trkpt>
      <trkpt lat="39.8305020" lon="2.8159970">
        <ele>623.8</ele>
        <time>2018-12-30T12:29:04Z</time>
      </trkpt>
      <trkpt lat="39.8304310" lon="2.8159660">
        <ele>623.4</ele>
        <time>2018-12-30T12:29:05Z</time>
      </trkpt>
      <trkpt lat="39.8303800" lon="2.8159130">
        <ele>623.1</ele>
        <time>2018-12-30T12:29:06Z</time>
      </trkpt>
      <trkpt lat="39.8303530" lon="2.8158400">
        <ele>622.9</ele>
        <time>2018-12-30T12:29:07Z</time>
      </trkpt>
      <trkpt lat="39.8303490" lon="2.8157530">
        <ele>622.6</ele>
        <time>2018-12-30T12:29:08Z</time>
      </trkpt>
      <trkpt lat="39.8303620" lon="2.8156710">
        <ele>622.2</ele>
        <time>2018-12-30T12:29:09Z</time>
      </trkpt>
      <trkpt lat="39.8303870" lon="2.8155900">
        <ele>621.7</ele>
        <time>2018-12-30T12:29:10Z</time>
      </trkpt>
      <trkpt lat="39.8304170" lon="2.8155080">
        <ele>621.1</ele>
        <time>2018-12-30T12:29:11Z</time>
      </trkpt>
      <trkpt lat="39.8304380" lon="2.8154210">
        <ele>620.4</ele>
        <time>2018-12-30T12:29:12Z</time>
      </trkpt>
      <trkpt lat="39.8304450" lon="2.8153330">
        <ele>619.5</ele>
        <time>2018-12-30T12:29:13Z</time>
      </trkpt>
      <trkpt lat="39.8304390" lon="2.8152460">
        <ele>618.8</ele>
        <time>2018-12-30T12:29:14Z</time>
      </trkpt>
      <trkpt lat="39.8304220" lon="2.8151630">
        <ele>618.1</ele>
        <time>2018-12-30T12:29:15Z</time>
      </trkpt>
      <trkpt lat="39.8303880" lon="2.8150970">
        <ele>617.6</ele>
        <time>2018-12-30T12:29:16Z</time>
      </trkpt>
      <trkpt lat="39.8303450" lon="2.8150540">
        <ele>617.1</ele>
        <time>2018-12-30T12:29:17Z</time>
      </trkpt>
      <trkpt lat="39.8302940" lon="2.8150450">
        <ele>616.7</ele>
        <time>2018-12-30T12:29:18Z</time>
      </trkpt>
      <trkpt lat="39.8302480" lon="2.8150510">
        <ele>616.4</ele>
        <time>2018-12-30T12:29:19Z</time>
      </trkpt>
      <trkpt lat="39.8302000" lon="2.8150670">
        <ele>616.2</ele>
        <time>2018-12-30T12:29:20Z</time>
      </trkpt>
      <trkpt lat="39.8301520" lon="2.8150800">
        <ele>615.9</ele>
        <time>2018-12-30T12:29:21Z</time>
      </trkpt>
      <trkpt lat="39.8300980" lon="2.8150940">
        <ele>615.6</ele>
        <time>2018-12-30T12:29:22Z</time>
      </trkpt>
      <trkpt lat="39.8300380" lon="2.8151100">
        <ele>615.3</ele>
        <time>2018-12-30T12:29:23Z</time>
      </trkpt>
      <trkpt lat="39.8299720" lon="2.8151270">
        <ele>614.9</ele>
        <time>2018-12-30T12:29:24Z</time>
      </trkpt>
      <trkpt lat="39.8299020" lon="2.8151450">
        <ele>614.5</ele>
        <time>2018-12-30T12:29:25Z</time>
      </trkpt>
      <trkpt lat="39.8298310" lon="2.8151640">
        <ele>614.0</ele>
        <time>2018-12-30T12:29:26Z</time>
      </trkpt>
      <trkpt lat="39.8297630" lon="2.8151820">
        <ele>613.6</ele>
        <time>2018-12-30T12:29:27Z</time>
      </trkpt>
      <trkpt lat="39.8296980" lon="2.8151960">
        <ele>613.1</ele>
        <time>2018-12-30T12:29:28Z</time>
      </trkpt>
      <trkpt lat="39.8296290" lon="2.8152030">
        <ele>612.6</ele>
        <time>2018-12-30T12:29:29Z</time>
      </trkpt>
      <trkpt lat="39.8295590" lon="2.8151950">
        <ele>612.1</ele>
        <time>2018-12-30T12:29:30Z</time>
      </trkpt>
      <trkpt lat="39.8294990" lon="2.8151640">
        <ele>611.5</ele>
        <time>2018-12-30T12:29:31Z</time>
      </trkpt>
      <trkpt lat="39.8294600" lon="2.8151000">
        <ele>610.9</ele>
        <time>2018-12-30T12:29:32Z</time>
      </trkpt>
      <trkpt lat="39.8294340" lon="2.8150130">
        <ele>610.2</ele>
        <time>2018-12-30T12:29:33Z</time>
      </trkpt>
      <trkpt lat="39.8294100" lon="2.8149190">
        <ele>609.4</ele>
        <time>2018-12-30T12:29:34Z</time>
      </trkpt>
      <trkpt lat="39.8293800" lon="2.8148350">
        <ele>608.6</ele>
        <time>2018-12-30T12:29:35Z</time>
      </trkpt>
      <trkpt lat="39.8293460" lon="2.8147560">
        <ele>607.9</ele>
        <time>2018-12-30T12:29:36Z</time>
      </trkpt>
      <trkpt lat="39.8293110" lon="2.8146870">
        <ele>607.4</ele>
        <time>2018-12-30T12:29:37Z</time>
      </trkpt>
      <trkpt lat="39.8292790" lon="2.8146300">
        <ele>606.9</ele>
        <time>2018-12-30T12:29:38Z</time>
      </trkpt>
      <trkpt lat="39.8292530" lon="2.8145910">
        <ele>606.4</ele>
        <time>2018-12-30T12:29:39Z</time>
      </trkpt>
      <trkpt lat="39.8292850" lon="2.8144380">
        <ele>605.4</ele>
        <time>2018-12-30T12:31:47Z</time>
      </trkpt>
      <trkpt lat="39.8292870" lon="2.8144190">
        <ele>605.3</ele>
        <time>2018-12-30T12:31:48Z</time>
      </trkpt>
      <trkpt lat="39.8292910" lon="2.8143870">
        <ele>605.1</ele>
        <time>2018-12-30T12:31:49Z</time>
      </trkpt>
      <trkpt lat="39.8293040" lon="2.8143520">
        <ele>604.8</ele>
        <time>2018-12-30T12:31:50Z</time>
      </trkpt>
      <trkpt lat="39.8293360" lon="2.8143190">
        <ele>604.4</ele>
        <time>2018-12-30T12:31:51Z</time>
      </trkpt>
      <trkpt lat="39.8293850" lon="2.8142900">
        <ele>603.8</ele>
        <time>2018-12-30T12:31:52Z</time>
      </trkpt>
      <trkpt lat="39.8294420" lon="2.8142580">
        <ele>603.1</ele>
        <time>2018-12-30T12:31:53Z</time>
      </trkpt>
      <trkpt lat="39.8294960" lon="2.8142130">
        <ele>602.5</ele>
        <time>2018-12-30T12:31:54Z</time>
      </trkpt>
      <trkpt lat="39.8295440" lon="2.8141560">
        <ele>601.9</ele>
        <time>2018-12-30T12:31:55Z</time>
      </trkpt>
      <trkpt lat="39.8295890" lon="2.8140860">
        <ele>601.2</ele>
        <time>2018-12-30T12:31:56Z</time>
      </trkpt>
      <trkpt lat="39.8296310" lon="2.8140050">
        <ele>600.3</ele>
        <time>2018-12-30T12:31:57Z</time>
      </trkpt>
      <trkpt lat="39.8296730" lon="2.8139180">
        <ele>599.4</ele>
        <time>2018-12-30T12:31:58Z</time>
      </trkpt>
      <trkpt lat="39.8297140" lon="2.8138310">
        <ele>598.3</ele>
        <time>2018-12-30T12:31:59Z</time>
      </trkpt>
      <trkpt lat="39.8297540" lon="2.8137500">
        <ele>597.4</ele>
        <time>2018-12-30T12:32:00Z</time>
      </trkpt>
      <trkpt lat="39.8297930" lon="2.8136760">
        <ele>596.4</ele>
        <time>2018-12-30T12:32:01Z</time>
      </trkpt>
      <trkpt lat="39.8298260" lon="2.8136100">
        <ele>595.3</ele>
        <time>2018-12-30T12:32:02Z</time>
      </trkpt>
      <trkpt lat="39.8298600" lon="2.8135640">
        <ele>594.5</ele>
        <time>2018-12-30T12:32:03Z</time>
      </trkpt>
      <trkpt lat="39.8299000" lon="2.8135450">
        <ele>593.9</ele>
        <time>2018-12-30T12:32:04Z</time>
      </trkpt>
      <trkpt lat="39.8299370" lon="2.8135560">
        <ele>593.4</ele>
        <time>2018-12-30T12:32:05Z</time>
      </trkpt>
      <trkpt lat="39.8299630" lon="2.8136000">
        <ele>592.7</ele>
        <time>2018-12-30T12:32:06Z</time>
      </trkpt>
      <trkpt lat="39.8299660" lon="2.8136640">
        <ele>592.0</ele>
        <time>2018-12-30T12:32:07Z</time>
      </trkpt>
      <trkpt lat="39.8299490" lon="2.8137440">
        <ele>591.2</ele>
        <time>2018-12-30T12:32:08Z</time>
      </trkpt>
      <trkpt lat="39.8299170" lon="2.8138250">
        <ele>590.4</ele>
        <time>2018-12-30T12:32:09Z</time>
      </trkpt>
      <trkpt lat="39.8298770" lon="2.8139130">
        <ele>589.7</ele>
        <time>2018-12-30T12:32:10Z</time>
      </trkpt>
      <trkpt lat="39.8298380" lon="2.8140090">
        <ele>588.9</ele>
        <time>2018-12-30T12:32:11Z</time>
      </trkpt>
      <trkpt lat="39.8297970" lon="2.8141120">
        <ele>588.2</ele>
        <time>2018-12-30T12:32:12Z</time>
      </trkpt>
      <trkpt lat="39.8297580" lon="2.8142170">
        <ele>587.5</ele>
        <time>2018-12-30T12:32:13Z</time>
      </trkpt>
      <trkpt lat="39.8297190" lon="2.8143170">
        <ele>586.8</ele>
        <time>2018-12-30T12:32:14Z</time>
      </trkpt>
      <trkpt lat="39.8296860" lon="2.8144150">
        <ele>586.1</ele>
        <time>2018-12-30T12:32:15Z</time>
      </trkpt>
      <trkpt lat="39.8296720" lon="2.8145140">
        <ele>585.6</ele>
        <time>2018-12-30T12:32:16Z</time>
      </trkpt>
      <trkpt lat="39.8296910" lon="2.8145920">
        <ele>585.1</ele>
        <time>2018-12-30T12:32:17Z</time>
      </trkpt>
      <trkpt lat="39.8297360" lon="2.8146470">
        <ele>584.5</ele>
        <time>2018-12-30T12:32:18Z</time>
      </trkpt>
      <trkpt lat="39.8297920" lon="2.8146660">
        <ele>584.1</ele>
        <time>2018-12-30T12:32:19Z</time>
      </trkpt>
      <trkpt lat="39.8298420" lon="2.8146600">
        <ele>583.6</ele>
        <time>2018-12-30T12:32:20Z</time>
      </trkpt>
      <trkpt lat="39.8298850" lon="2.8146160">
        <ele>583.2</ele>
        <time>2018-12-30T12:32:21Z</time>
      </trkpt>
      <trkpt lat="39.8299230" lon="2.8145390">
        <ele>582.7</ele>
        <time>2018-12-30T12:32:22Z</time>
      </trkpt>
      <trkpt lat="39.8299600" lon="2.8144390">
        <ele>582.2</ele>
        <time>2018-12-30T12:32:23Z</time>
      </trkpt>
      <trkpt lat="39.8299970" lon="2.8143260">
        <ele>581.4</ele>
        <time>2018-12-30T12:32:24Z</time>
      </trkpt>
      <trkpt lat="39.8300370" lon="2.8142080">
        <ele>580.7</ele>
        <time>2018-12-30T12:32:25Z</time>
      </trkpt>
      <trkpt lat="39.8300760" lon="2.8140900">
        <ele>580.1</ele>
        <time>2018-12-30T12:32:26Z</time>
      </trkpt>
      <trkpt lat="39.8301200" lon="2.8139730">
        <ele>581.6</ele>
        <time>2018-12-30T12:32:27Z</time>
      </trkpt>
      <trkpt lat="39.8301720" lon="2.8138650">
        <ele>580.7</ele>
        <time>2018-12-30T12:32:28Z</time>
      </trkpt>
      <trkpt lat="39.8302280" lon="2.8137660">
        <ele>578.0</ele>
        <time>2018-12-30T12:32:29Z</time>
      </trkpt>
      <trkpt lat="39.8302720" lon="2.8137000">
        <ele>577.3</ele>
        <time>2018-12-30T12:32:30Z</time>
      </trkpt>
      <trkpt lat="39.8303130" lon="2.8136550">
        <ele>576.5</ele>
        <time>2018-12-30T12:32:31Z</time>
      </trkpt>
      <trkpt lat="39.8303640" lon="2.8136450">
        <ele>576.0</ele>
        <time>2018-12-30T12:32:32Z</time>
      </trkpt>
      <trkpt lat="39.8304250" lon="2.8136460">
        <ele>575.3</ele>
        <time>2018-12-30T12:32:33Z</time>
      </trkpt>
      <trkpt lat="39.8304660" lon="2.8136750">
        <ele>574.8</ele>
        <time>2018-12-30T12:32:34Z</time>
      </trkpt>
      <trkpt lat="39.8304620" lon="2.8137250">
        <ele>574.4</ele>
        <time>2018-12-30T12:32:35Z</time>
      </trkpt>
      <trkpt lat="39.8304290" lon="2.8137880">
        <ele>573.7</ele>
        <time>2018-12-30T12:32:36Z</time>
      </trkpt>
      <trkpt lat="39.8303790" lon="2.8138470">
        <ele>572.8</ele>
        <time>2018-12-30T12:32:37Z</time>
      </trkpt>
      <trkpt lat="39.8303260" lon="2.8138970">
        <ele>571.7</ele>
        <time>2018-12-30T12:32:38Z</time>
      </trkpt>
      <trkpt lat="39.8302820" lon="2.8139480">
        <ele>570.8</ele>
        <time>2018-12-30T12:32:39Z</time>
      </trkpt>
      <trkpt lat="39.8302520" lon="2.8140040">
        <ele>570.2</ele>
        <time>2018-12-30T12:32:40Z</time>
      </trkpt>
      <trkpt lat="39.8302590" lon="2.8140680">
        <ele>569.6</ele>
        <time>2018-12-30T12:32:41Z</time>
      </trkpt>
      <trkpt lat="39.8302890" lon="2.8141260">
        <ele>569.0</ele>
        <time>2018-12-30T12:32:42Z</time>
      </trkpt>
      <trkpt lat="39.8303340" lon="2.8141730">
        <ele>568.5</ele>
        <time>2018-12-30T12:32:43Z</time>
      </trkpt>
      <trkpt lat="39.8303810" lon="2.8141720">
        <ele>568.0</ele>
        <time>2018-12-30T12:32:44Z</time>
      </trkpt>
      <trkpt lat="39.8304430" lon="2.8141390">
        <ele>567.3</ele>
        <time>2018-12-30T12:32:45Z</time>
      </trkpt>
      <trkpt lat="39.8305310" lon="2.8140910">
        <ele>566.4</ele>
        <time>2018-12-30T12:32:46Z</time>
      </trkpt>
      <trkpt lat="39.8306230" lon="2.8140700">
        <ele>565.6</ele>
        <time>2018-12-30T12:32:47Z</time>
      </trkpt>
      <trkpt lat="39.8307130" lon="2.8140820">
        <ele>565.0</ele>
        <time>2018-12-30T12:32:48Z</time>
      </trkpt>
      <trkpt lat="39.8307970" lon="2.8141170">
        <ele>564.4</ele>
        <time>2018-12-30T12:32:49Z</time>
      </trkpt>
      <trkpt lat="39.8308850" lon="2.8141680">
        <ele>563.8</ele>
        <time>2018-12-30T12:32:50Z</time>
      </trkpt>
      <trkpt lat="39.8309750" lon="2.8142330">
        <ele>563.3</ele>
        <time>2018-12-30T12:32:51Z</time>
      </trkpt>
      <trkpt lat="39.8310630" lon="2.8143130">
        <ele>562.7</ele>
        <time>2018-12-30T12:32:52Z</time>
      </trkpt>
      <trkpt lat="39.8311470" lon="2.8144070">
        <ele>562.1</ele>
        <time>2018-12-30T12:32:53Z</time>
      </trkpt>
      <trkpt lat="39.8312220" lon="2.8145130">
        <ele>561.5</ele>
        <time>2018-12-30T12:32:54Z</time>
      </trkpt>
      <trkpt lat="39.8312910" lon="2.8146200">
        <ele>560.9</ele>
        <time>2018-12-30T12:32:55Z</time>
      </trkpt>
      <trkpt lat="39.8313520" lon="2.8147170">
        <ele>560.2</ele>
        <time>2018-12-30T12:32:56Z</time>
      </trkpt>
      <trkpt lat="39.8314140" lon="2.8147950">
        <ele>559.6</ele>
        <time>2018-12-30T12:32:57Z</time>
      </trkpt>
      <trkpt lat="39.8314800" lon="2.8148450">
        <ele>559.1</ele>
        <time>2018-12-30T12:32:58Z</time>
      </trkpt>
      <trkpt lat="39.8315510" lon="2.8148610">
        <ele>558.6</ele>
        <time>2018-12-30T12:32:59Z</time>
      </trkpt>
      <trkpt lat="39.8316220" lon="2.8148460">
        <ele>558.1</ele>
        <time>2018-12-30T12:33:00Z</time>
      </trkpt>
      <trkpt lat="39.8317040" lon="2.8148020">
        <ele>557.4</ele>
        <time>2018-12-30T12:33:01Z</time>
      </trkpt>
      <trkpt lat="39.8317950" lon="2.8147430">
        <ele>556.7</ele>
        <time>2018-12-30T12:33:02Z</time>
      </trkpt>
      <trkpt lat="39.8318970" lon="2.8146770">
        <ele>555.9</ele>
        <time>2018-12-30T12:33:03Z</time>
      </trkpt>
      <trkpt lat="39.8319950" lon="2.8146170">
        <ele>555.1</ele>
        <time>2018-12-30T12:33:04Z</time>
      </trkpt>
      <trkpt lat="39.8320970" lon="2.8145610">
        <ele>554.4</ele>
        <time>2018-12-30T12:33:05Z</time>
      </trkpt>
      <trkpt lat="39.8322020" lon="2.8145110">
        <ele>553.5</ele>
        <time>2018-12-30T12:33:06Z</time>
      </trkpt>
      <trkpt lat="39.8323130" lon="2.8144650">
        <ele>552.5</ele>
        <time>2018-12-30T12:33:07Z</time>
      </trkpt>
      <trkpt lat="39.8324240" lon="2.8144170">
        <ele>551.6</ele>
        <time>2018-12-30T12:33:08Z</time>
      </trkpt>
      <trkpt lat="39.8325330" lon="2.8143600">
        <ele>550.7</ele>
        <time>2018-12-30T12:33:09Z</time>
      </trkpt>
      <trkpt lat="39.8326370" lon="2.8142890">
        <ele>549.8</ele>
        <time>2018-12-30T12:33:10Z</time>
      </trkpt>
      <trkpt lat="39.8327360" lon="2.8142040">
        <ele>548.9</ele>
        <time>2018-12-30T12:33:11Z</time>
      </trkpt>
      <trkpt lat="39.8328290" lon="2.8141060">
        <ele>548.0</ele>
        <time>2018-12-30T12:33:12Z</time>
      </trkpt>
      <trkpt lat="39.8329110" lon="2.8139970">
        <ele>547.1</ele>
        <time>2018-12-30T12:33:13Z</time>
      </trkpt>
      <trkpt lat="39.8329800" lon="2.8138780">
        <ele>546.2</ele>
        <time>2018-12-30T12:33:14Z</time>
      </trkpt>
      <trkpt lat="39.8330390" lon="2.8137510">
        <ele>545.4</ele>
        <time>2018-12-30T12:33:15Z</time>
      </trkpt>
      <trkpt lat="39.8330910" lon="2.8136180">
        <ele>544.6</ele>
        <time>2018-12-30T12:33:16Z</time>
      </trkpt>
      <trkpt lat="39.8331410" lon="2.8134820">
        <ele>543.9</ele>
        <time>2018-12-30T12:33:17Z</time>
      </trkpt>
      <trkpt lat="39.8331860" lon="2.8133410">
        <ele>543.2</ele>
        <time>2018-12-30T12:33:18Z</time>
      </trkpt>
      <trkpt lat="39.8332290" lon="2.8131980">
        <ele>542.5</ele>
        <time>2018-12-30T12:33:19Z</time>
      </trkpt>
      <trkpt lat="39.8332720" lon="2.8130540">
        <ele>541.8</ele>
        <time>2018-12-30T12:33:20Z</time>
      </trkpt>
      <trkpt lat="39.8333150" lon="2.8129100">
        <ele>541.1</ele>
        <time>2018-12-30T12:33:21Z</time>
      </trkpt>
      <trkpt lat="39.8333600" lon="2.8127640">
        <ele>540.5</ele>
        <time>2018-12-30T12:33:22Z</time>
      </trkpt>
      <trkpt lat="39.8334030" lon="2.8126180">
        <ele>539.8</ele>
        <time>2018-12-30T12:33:23Z</time>
      </trkpt>
      <trkpt lat="39.8334450" lon="2.8124780">
        <ele>539.0</ele>
        <time>2018-12-30T12:33:24Z</time>
      </trkpt>
      <trkpt lat="39.8334870" lon="2.8123470">
        <ele>538.1</ele>
        <time>2018-12-30T12:33:25Z</time>
      </trkpt>
      <trkpt lat="39.8335250" lon="2.8122280">
        <ele>537.1</ele>
        <time>2018-12-30T12:33:26Z</time>
      </trkpt>
      <trkpt lat="39.8335570" lon="2.8121200">
        <ele>536.0</ele>
        <time>2018-12-30T12:33:27Z</time>
      </trkpt>
      <trkpt lat="39.8335720" lon="2.8120230">
        <ele>534.9</ele>
        <time>2018-12-30T12:33:28Z</time>
      </trkpt>
      <trkpt lat="39.8335610" lon="2.8119460">
        <ele>533.9</ele>
        <time>2018-12-30T12:33:29Z</time>
      </trkpt>
      <trkpt lat="39.8335250" lon="2.8118990">
        <ele>532.8</ele>
        <time>2018-12-30T12:33:30Z</time>
      </trkpt>
      <trkpt lat="39.8334740" lon="2.8118910">
        <ele>532.2</ele>
        <time>2018-12-30T12:33:31Z</time>
      </trkpt>
      <trkpt lat="39.8334290" lon="2.8119230">
        <ele>531.5</ele>
        <time>2018-12-30T12:33:32Z</time>
      </trkpt>
      <trkpt lat="39.8333920" lon="2.8119860">
        <ele>531.0</ele>
        <time>2018-12-30T12:33:33Z</time>
      </trkpt>
      <trkpt lat="39.8333630" lon="2.8120670">
        <ele>530.4</ele>
        <time>2018-12-30T12:33:34Z</time>
      </trkpt>
      <trkpt lat="39.8333320" lon="2.8121530">
        <ele>529.9</ele>
        <time>2018-12-30T12:33:35Z</time>
      </trkpt>
      <trkpt lat="39.8333010" lon="2.8122420">
        <ele>529.6</ele>
        <time>2018-12-30T12:33:36Z</time>
      </trkpt>
      <trkpt lat="39.8332690" lon="2.8123340">
        <ele>529.2</ele>
        <time>2018-12-30T12:33:37Z</time>
      </trkpt>
      <trkpt lat="39.8332390" lon="2.8124290">
        <ele>528.9</ele>
        <time>2018-12-30T12:33:38Z</time>
      </trkpt>
      <trkpt lat="39.8332090" lon="2.8125260">
        <ele>528.6</ele>
        <time>2018-12-30T12:33:39Z</time>
      </trkpt>
      <trkpt lat="39.8331780" lon="2.8126250">
        <ele>528.2</ele>
        <time>2018-12-30T12:33:40Z</time>
      </trkpt>
      <trkpt lat="39.8331460" lon="2.8127250">
        <ele>527.7</ele>
        <time>2018-12-30T12:33:41Z</time>
      </trkpt>
      <trkpt lat="39.8331140" lon="2.8128270">
        <ele>527.4</ele>
        <time>2018-12-30T12:33:42Z</time>
      </trkpt>
      <trkpt lat="39.8330800" lon="2.8129320">
        <ele>527.1</ele>
        <time>2018-12-30T12:33:43Z</time>
      </trkpt>
      <trkpt lat="39.8330430" lon="2.8130390">
        <ele>526.7</ele>
        <time>2018-12-30T12:33:44Z</time>
      </trkpt>
      <trkpt lat="39.8330040" lon="2.8131450">
        <ele>526.4</ele>
        <time>2018-12-30T12:33:45Z</time>
      </trkpt>
      <trkpt lat="39.8329580" lon="2.8132490">
        <ele>525.9</ele>
        <time>2018-12-30T12:33:46Z</time>
      </trkpt>
      <trkpt lat="39.8328990" lon="2.8133440">
        <ele>525.5</ele>
        <time>2018-12-30T12:33:47Z</time>
      </trkpt>
      <trkpt lat="39.8328270" lon="2.8134300">
        <ele>525.0</ele>
        <time>2018-12-30T12:33:48Z</time>
      </trkpt>
      <trkpt lat="39.8327470" lon="2.8135040">
        <ele>524.6</ele>
        <time>2018-12-30T12:33:49Z</time>
      </trkpt>
      <trkpt lat="39.8326640" lon="2.8135700">
        <ele>524.1</ele>
        <time>2018-12-30T12:33:50Z</time>
      </trkpt>
      <trkpt lat="39.8325740" lon="2.8136290">
        <ele>523.7</ele>
        <time>2018-12-30T12:33:51Z</time>
      </trkpt>
      <trkpt lat="39.8324800" lon="2.8136810">
        <ele>523.3</ele>
        <time>2018-12-30T12:33:52Z</time>
      </trkpt>
      <trkpt lat="39.8323810" lon="2.8137270">
        <ele>522.8</ele>
        <time>2018-12-30T12:33:53Z</time>
      </trkpt>
      <trkpt lat="39.8322800" lon="2.8137670">
        <ele>522.4</ele>
        <time>2018-12-30T12:33:54Z</time>
      </trkpt>
      <trkpt lat="39.8321800" lon="2.8138010">
        <ele>522.0</ele>
        <time>2018-12-30T12:33:55Z</time>
      </trkpt>
      <trkpt lat="39.8320850" lon="2.8138290">
        <ele>521.4</ele>
        <time>2018-12-30T12:33:56Z</time>
      </trkpt>
      <trkpt lat="39.8319950" lon="2.8138490">
        <ele>520.8</ele>
        <time>2018-12-30T12:33:57Z</time>
      </trkpt>
      <trkpt lat="39.8319100" lon="2.8138580">
        <ele>520.3</ele>
        <time>2018-12-30T12:33:58Z</time>
      </trkpt>
      <trkpt lat="39.8318350" lon="2.8138490">
        <ele>519.7</ele>
        <time>2018-12-30T12:33:59Z</time>
      </trkpt>
      <trkpt lat="39.8317730" lon="2.8138190">
        <ele>519.2</ele>
        <time>2018-12-30T12:34:00Z</time>
      </trkpt>
      <trkpt lat="39.8317270" lon="2.8137640">
        <ele>518.8</ele>
        <time>2018-12-30T12:34:01Z</time>
      </trkpt>
      <trkpt lat="39.8316930" lon="2.8136950">
        <ele>518.4</ele>
        <time>2018-12-30T12:34:02Z</time>
      </trkpt>
      <trkpt lat="39.8316830" lon="2.8136150">
        <ele>518.0</ele>
        <time>2018-12-30T12:34:03Z</time>
      </trkpt>
      <trkpt lat="39.8316970" lon="2.8135350">
        <ele>517.5</ele>
        <time>2018-12-30T12:34:04Z</time>
      </trkpt>
      <trkpt lat="39.8317360" lon="2.8134540">
        <ele>516.9</ele>
        <time>2018-12-30T12:34:05Z</time>
      </trkpt>
      <trkpt lat="39.8317780" lon="2.8133710">
        <ele>516.4</ele>
        <time>2018-12-30T12:34:06Z</time>
      </trkpt>
      <trkpt lat="39.8318170" lon="2.8132750">
        <ele>516.0</ele>
        <time>2018-12-30T12:34:07Z</time>
      </trkpt>
      <trkpt lat="39.8318480" lon="2.8131660">
        <ele>515.5</ele>
        <time>2018-12-30T12:34:08Z</time>
      </trkpt>
      <trkpt lat="39.8318740" lon="2.8130470">
        <ele>515.1</ele>
        <time>2018-12-30T12:34:09Z</time>
      </trkpt>
      <trkpt lat="39.8318930" lon="2.8129230">
        <ele>514.6</ele>
        <time>2018-12-30T12:34:10Z</time>
      </trkpt>
      <trkpt lat="39.8319050" lon="2.8127970">
        <ele>514.0</ele>
        <time>2018-12-30T12:34:11Z</time>
      </trkpt>
      <trkpt lat="39.8319140" lon="2.8126740">
        <ele>513.4</ele>
        <time>2018-12-30T12:34:12Z</time>
      </trkpt>
      <trkpt lat="39.8319200" lon="2.8125640">
        <ele>512.9</ele>
        <time>2018-12-30T12:34:13Z</time>
      </trkpt>
      <trkpt lat="39.8319310" lon="2.8124740">
        <ele>512.6</ele>
        <time>2018-12-30T12:34:14Z</time>
      </trkpt>
      <trkpt lat="39.8319560" lon="2.8124220">
        <ele>512.2</ele>
        <time>2018-12-30T12:34:15Z</time>
      </trkpt>
      <trkpt lat="39.8319900" lon="2.8124080">
        <ele>511.9</ele>
        <time>2018-12-30T12:34:16Z</time>
      </trkpt>
      <trkpt lat="39.8320320" lon="2.8124450">
        <ele>511.6</ele>
        <time>2018-12-30T12:34:17Z</time>
      </trkpt>
      <trkpt lat="39.8320600" lon="2.8125130">
        <ele>511.3</ele>
        <time>2018-12-30T12:34:18Z</time>
      </trkpt>
      <trkpt lat="39.8320750" lon="2.8126030">
        <ele>510.9</ele>
        <time>2018-12-30T12:34:19Z</time>
      </trkpt>
      <trkpt lat="39.8320760" lon="2.8126980">
        <ele>510.6</ele>
        <time>2018-12-30T12:34:20Z</time>
      </trkpt>
      <trkpt lat="39.8320840" lon="2.8127980">
        <ele>510.1</ele>
        <time>2018-12-30T12:34:21Z</time>
      </trkpt>
      <trkpt lat="39.8321130" lon="2.8128900">
        <ele>509.6</ele>
        <time>2018-12-30T12:34:22Z</time>
      </trkpt>
      <trkpt lat="39.8321660" lon="2.8129620">
        <ele>508.9</ele>
        <time>2018-12-30T12:34:23Z</time>
      </trkpt>
      <trkpt lat="39.8322400" lon="2.8130010">
        <ele>508.1</ele>
        <time>2018-12-30T12:34:24Z</time>
      </trkpt>
      <trkpt lat="39.8323220" lon="2.8130100">
        <ele>507.5</ele>
        <time>2018-12-30T12:34:25Z</time>
      </trkpt>
      <trkpt lat="39.8324080" lon="2.8129910">
        <ele>506.9</ele>
        <time>2018-12-30T12:34:26Z</time>
      </trkpt>
      <trkpt lat="39.8324890" lon="2.8129480">
        <ele>506.2</ele>
        <time>2018-12-30T12:34:27Z</time>
      </trkpt>
      <trkpt lat="39.8325630" lon="2.8128880">
        <ele>505.4</ele>
        <time>2018-12-30T12:34:28Z</time>
      </trkpt>
      <trkpt lat="39.8326160" lon="2.8128090">
        <ele>504.6</ele>
        <time>2018-12-30T12:34:29Z</time>
      </trkpt>
      <trkpt lat="39.8326430" lon="2.8127150">
        <ele>504.0</ele>
        <time>2018-12-30T12:34:30Z</time>
      </trkpt>
      <trkpt lat="39.8326360" lon="2.8126150">
        <ele>503.4</ele>
        <time>2018-12-30T12:34:31Z</time>
      </trkpt>
      <trkpt lat="39.8326020" lon="2.8125180">
        <ele>502.8</ele>
        <time>2018-12-30T12:34:32Z</time>
      </trkpt>
      <trkpt lat="39.8325440" lon="2.8124270">
        <ele>502.2</ele>
        <time>2018-12-30T12:34:33Z</time>
      </trkpt>
      <trkpt lat="39.8324760" lon="2.8123370">
        <ele>501.6</ele>
        <time>2018-12-30T12:34:34Z</time>
      </trkpt>
      <trkpt lat="39.8324050" lon="2.8122450">
        <ele>501.1</ele>
        <time>2018-12-30T12:34:35Z</time>
      </trkpt>
      <trkpt lat="39.8323400" lon="2.8121450">
        <ele>500.7</ele>
        <time>2018-12-30T12:34:36Z</time>
      </trkpt>
      <trkpt lat="39.8322840" lon="2.8120350">
        <ele>500.3</ele>
        <time>2018-12-30T12:34:37Z</time>
      </trkpt>
      <trkpt lat="39.8322440" lon="2.8119120">
        <ele>499.7</ele>
        <time>2018-12-30T12:34:38Z</time>
      </trkpt>
      <trkpt lat="39.8322140" lon="2.8117790">
        <ele>499.1</ele>
        <time>2018-12-30T12:34:39Z</time>
      </trkpt>
      <trkpt lat="39.8321920" lon="2.8116390">
        <ele>498.4</ele>
        <time>2018-12-30T12:34:40Z</time>
      </trkpt>
      <trkpt lat="39.8321730" lon="2.8114970">
        <ele>497.6</ele>
        <time>2018-12-30T12:34:41Z</time>
      </trkpt>
      <trkpt lat="39.8321570" lon="2.8113570">
        <ele>496.7</ele>
        <time>2018-12-30T12:34:42Z</time>
      </trkpt>
      <trkpt lat="39.8321440" lon="2.8112260">
        <ele>495.7</ele>
        <time>2018-12-30T12:34:43Z</time>
      </trkpt>
      <trkpt lat="39.8321280" lon="2.8111080">
        <ele>494.8</ele>
        <time>2018-12-30T12:34:44Z</time>
      </trkpt>
      <trkpt lat="39.8321060" lon="2.8110070">
        <ele>494.0</ele>
        <time>2018-12-30T12:34:45Z</time>
      </trkpt>
      <trkpt lat="39.8320660" lon="2.8109250">
        <ele>493.3</ele>
        <time>2018-12-30T12:34:46Z</time>
      </trkpt>
      <trkpt lat="39.8320060" lon="2.8108600">
        <ele>492.5</ele>
        <time>2018-12-30T12:34:47Z</time>
      </trkpt>
      <trkpt lat="39.8319290" lon="2.8108100">
        <ele>491.6</ele>
        <time>2018-12-30T12:34:48Z</time>
      </trkpt>
      <trkpt lat="39.8318420" lon="2.8107670">
        <ele>490.7</ele>
        <time>2018-12-30T12:34:49Z</time>
      </trkpt>
      <trkpt lat="39.8317490" lon="2.8107280">
        <ele>489.9</ele>
        <time>2018-12-30T12:34:50Z</time>
      </trkpt>
      <trkpt lat="39.8316530" lon="2.8106890">
        <ele>489.1</ele>
        <time>2018-12-30T12:34:51Z</time>
      </trkpt>
      <trkpt lat="39.8315530" lon="2.8106480">
        <ele>488.2</ele>
        <time>2018-12-30T12:34:52Z</time>
      </trkpt>
      <trkpt lat="39.8314490" lon="2.8106020">
        <ele>487.2</ele>
        <time>2018-12-30T12:34:53Z</time>
      </trkpt>
      <trkpt lat="39.8313440" lon="2.8105460">
        <ele>486.2</ele>
        <time>2018-12-30T12:34:54Z</time>
      </trkpt>
      <trkpt lat="39.8312420" lon="2.8104800">
        <ele>485.2</ele>
        <time>2018-12-30T12:34:55Z</time>
      </trkpt>
      <trkpt lat="39.8311470" lon="2.8104050">
        <ele>484.2</ele>
        <time>2018-12-30T12:34:56Z</time>
      </trkpt>
      <trkpt lat="39.8310550" lon="2.8103260">
        <ele>483.4</ele>
        <time>2018-12-30T12:34:57Z</time>
      </trkpt>
      <trkpt lat="39.8309680" lon="2.8102440">
        <ele>482.7</ele>
        <time>2018-12-30T12:34:58Z</time>
      </trkpt>
      <trkpt lat="39.8308790" lon="2.8101560">
        <ele>481.8</ele>
        <time>2018-12-30T12:34:59Z</time>
      </trkpt>
      <trkpt lat="39.8308110" lon="2.8100490">
        <ele>480.8</ele>
        <time>2018-12-30T12:35:00Z</time>
      </trkpt>
      <trkpt lat="39.8307640" lon="2.8099220">
        <ele>480.0</ele>
        <time>2018-12-30T12:35:01Z</time>
      </trkpt>
      <trkpt lat="39.8307360" lon="2.8097840">
        <ele>479.3</ele>
        <time>2018-12-30T12:35:02Z</time>
      </trkpt>
      <trkpt lat="39.8307080" lon="2.8096440">
        <ele>478.2</ele>
        <time>2018-12-30T12:35:03Z</time>
      </trkpt>
      <trkpt lat="39.8306820" lon="2.8095090">
        <ele>477.2</ele>
        <time>2018-12-30T12:35:04Z</time>
      </trkpt>
      <trkpt lat="39.8306670" lon="2.8093720">
        <ele>476.1</ele>
        <time>2018-12-30T12:35:05Z</time>
      </trkpt>
      <trkpt lat="39.8306570" lon="2.8092370">
        <ele>475.1</ele>
        <time>2018-12-30T12:35:06Z</time>
      </trkpt>
      <trkpt lat="39.8306560" lon="2.8091000">
        <ele>474.2</ele>
        <time>2018-12-30T12:35:07Z</time>
      </trkpt>
      <trkpt lat="39.8306570" lon="2.8089620">
        <ele>473.4</ele>
        <time>2018-12-30T12:35:08Z</time>
      </trkpt>
      <trkpt lat="39.8306620" lon="2.8088220">
        <ele>472.7</ele>
        <time>2018-12-30T12:35:09Z</time>
      </trkpt>
      <trkpt lat="39.8306670" lon="2.8086820">
        <ele>472.0</ele>
        <time>2018-12-30T12:35:10Z</time>
      </trkpt>
      <trkpt lat="39.8306640" lon="2.8085430">
        <ele>471.3</ele>
        <time>2018-12-30T12:35:11Z</time>
      </trkpt>
      <trkpt lat="39.8306490" lon="2.8084060">
        <ele>470.5</ele>
        <time>2018-12-30T12:35:12Z</time>
      </trkpt>
      <trkpt lat="39.8306170" lon="2.8082740">
        <ele>469.8</ele>
        <time>2018-12-30T12:35:13Z</time>
      </trkpt>
      <trkpt lat="39.8305790" lon="2.8081480">
        <ele>469.1</ele>
        <time>2018-12-30T12:35:14Z</time>
      </trkpt>
      <trkpt lat="39.8305390" lon="2.8080320">
        <ele>468.4</ele>
        <time>2018-12-30T12:35:15Z</time>
      </trkpt>
      <trkpt lat="39.8304990" lon="2.8079260">
        <ele>467.8</ele>
        <time>2018-12-30T12:35:16Z</time>
      </trkpt>
      <trkpt lat="39.8304610" lon="2.8078280">
        <ele>467.1</ele>
        <time>2018-12-30T12:35:17Z</time>
      </trkpt>
      <trkpt lat="39.8304290" lon="2.8077340">
        <ele>466.5</ele>
        <time>2018-12-30T12:35:18Z</time>
      </trkpt>
      <trkpt lat="39.8303980" lon="2.8076410">
        <ele>465.9</ele>
        <time>2018-12-30T12:35:19Z</time>
      </trkpt>
      <trkpt lat="39.8303740" lon="2.8075510">
        <ele>465.1</ele>
        <time>2018-12-30T12:35:20Z</time>
      </trkpt>
      <trkpt lat="39.8303560" lon="2.8074700">
        <ele>464.4</ele>
        <time>2018-12-30T12:35:21Z</time>
      </trkpt>
      <trkpt lat="39.8303430" lon="2.8073960">
        <ele>463.6</ele>
        <time>2018-12-30T12:35:22Z</time>
      </trkpt>
      <trkpt lat="39.8303440" lon="2.8073360">
        <ele>462.9</ele>
        <time>2018-12-30T12:35:23Z</time>
      </trkpt>
      <trkpt lat="39.8303820" lon="2.8073120">
        <ele>462.2</ele>
        <time>2018-12-30T12:35:24Z</time>
      </trkpt>
      <trkpt lat="39.8304570" lon="2.8073210">
        <ele>461.0</ele>
        <time>2018-12-30T12:35:25Z</time>
      </trkpt>
      <trkpt lat="39.8305380" lon="2.8073680">
        <ele>459.6</ele>
        <time>2018-12-30T12:35:26Z</time>
      </trkpt>
      <trkpt lat="39.8305890" lon="2.8074220">
        <ele>458.5</ele>
        <time>2018-12-30T12:35:27Z</time>
      </trkpt>
      <trkpt lat="39.8306130" lon="2.8074910">
        <ele>457.7</ele>
        <time>2018-12-30T12:35:28Z</time>
      </trkpt>
      <trkpt lat="39.8306280" lon="2.8075640">
        <ele>457.0</ele>
        <time>2018-12-30T12:35:29Z</time>
      </trkpt>
      <trkpt lat="39.8306530" lon="2.8077010">
        <ele>455.9</ele>
        <time>2018-12-30T12:35:30Z</time>
      </trkpt>
      <trkpt lat="39.8306640" lon="2.8077590">
        <ele>455.5</ele>
        <time>2018-12-30T12:35:31Z</time>
      </trkpt>
      <trkpt lat="39.8306740" lon="2.8078160">
        <ele>455.1</ele>
        <time>2018-12-30T12:35:32Z</time>
      </trkpt>
      <trkpt lat="39.8306910" lon="2.8079020">
        <ele>454.6</ele>
        <time>2018-12-30T12:35:33Z</time>
      </trkpt>
      <trkpt lat="39.8307090" lon="2.8079860">
        <ele>454.1</ele>
        <time>2018-12-30T12:35:34Z</time>
      </trkpt>
      <trkpt lat="39.8307290" lon="2.8080660">
        <ele>453.6</ele>
        <time>2018-12-30T12:35:35Z</time>
      </trkpt>
      <trkpt lat="39.8307500" lon="2.8081430">
        <ele>453.2</ele>
        <time>2018-12-30T12:35:36Z</time>
      </trkpt>
      <trkpt lat="39.8307710" lon="2.8082160">
        <ele>452.7</ele>
        <time>2018-12-30T12:35:37Z</time>
      </trkpt>
      <trkpt lat="39.8307880" lon="2.8082820">
        <ele>452.4</ele>
        <time>2018-12-30T12:35:38Z</time>
      </trkpt>
      <trkpt lat="39.8308070" lon="2.8083300">
        <ele>452.0</ele>
        <time>2018-12-30T12:35:39Z</time>
      </trkpt>
      <trkpt lat="39.8308360" lon="2.8083420">
        <ele>451.9</ele>
        <time>2018-12-30T12:35:40Z</time>
      </trkpt>
      <trkpt lat="39.8308730" lon="2.8083190">
        <ele>451.6</ele>
        <time>2018-12-30T12:35:41Z</time>
      </trkpt>
      <trkpt lat="39.8309030" lon="2.8082670">
        <ele>451.3</ele>
        <time>2018-12-30T12:35:42Z</time>
      </trkpt>
      <trkpt lat="39.8309070" lon="2.8082040">
        <ele>450.8</ele>
        <time>2018-12-30T12:35:43Z</time>
      </trkpt>
      <trkpt lat="39.8308940" lon="2.8081330">
        <ele>450.2</ele>
        <time>2018-12-30T12:35:44Z</time>
      </trkpt>
      <trkpt lat="39.8308720" lon="2.8080510">
        <ele>449.9</ele>
        <time>2018-12-30T12:35:45Z</time>
      </trkpt>
      <trkpt lat="39.8308510" lon="2.8079550">
        <ele>449.4</ele>
        <time>2018-12-30T12:35:46Z</time>
      </trkpt>
      <trkpt lat="39.8308280" lon="2.8078490">
        <ele>449.0</ele>
        <time>2018-12-30T12:35:47Z</time>
      </trkpt>
      <trkpt lat="39.8308070" lon="2.8077370">
        <ele>448.6</ele>
        <time>2018-12-30T12:35:48Z</time>
      </trkpt>
      <trkpt lat="39.8307890" lon="2.8076220">
        <ele>448.1</ele>
        <time>2018-12-30T12:35:49Z</time>
      </trkpt>
      <trkpt lat="39.8307770" lon="2.8075040">
        <ele>447.6</ele>
        <time>2018-12-30T12:35:50Z</time>
      </trkpt>
      <trkpt lat="39.8307680" lon="2.8073820">
        <ele>447.1</ele>
        <time>2018-12-30T12:35:51Z</time>
      </trkpt>
      <trkpt lat="39.8307620" lon="2.8072590">
        <ele>446.7</ele>
        <time>2018-12-30T12:35:52Z</time>
      </trkpt>
      <trkpt lat="39.8307510" lon="2.8071380">
        <ele>446.3</ele>
        <time>2018-12-30T12:35:53Z</time>
      </trkpt>
      <trkpt lat="39.8307340" lon="2.8070180">
        <ele>445.7</ele>
        <time>2018-12-30T12:35:54Z</time>
      </trkpt>
      <trkpt lat="39.8307100" lon="2.8068990">
        <ele>445.0</ele>
        <time>2018-12-30T12:35:55Z</time>
      </trkpt>
      <trkpt lat="39.8306820" lon="2.8067850">
        <ele>444.5</ele>
        <time>2018-12-30T12:35:56Z</time>
      </trkpt>
      <trkpt lat="39.8306540" lon="2.8066770">
        <ele>443.9</ele>
        <time>2018-12-30T12:35:57Z</time>
      </trkpt>
      <trkpt lat="39.8306250" lon="2.8065800">
        <ele>443.4</ele>
        <time>2018-12-30T12:35:58Z</time>
      </trkpt>
      <trkpt lat="39.8305910" lon="2.8064980">
        <ele>442.9</ele>
        <time>2018-12-30T12:35:59Z</time>
      </trkpt>
      <trkpt lat="39.8305560" lon="2.8064310">
        <ele>442.4</ele>
        <time>2018-12-30T12:36:00Z</time>
      </trkpt>
      <trkpt lat="39.8305270" lon="2.8063710">
        <ele>441.9</ele>
        <time>2018-12-30T12:36:01Z</time>
      </trkpt>
      <trkpt lat="39.8305110" lon="2.8063130">
        <ele>441.5</ele>
        <time>2018-12-30T12:36:02Z</time>
      </trkpt>
      <trkpt lat="39.8305130" lon="2.8062610">
        <ele>441.2</ele>
        <time>2018-12-30T12:36:03Z</time>
      </trkpt>
      <trkpt lat="39.8305410" lon="2.8062480">
        <ele>441.1</ele>
        <time>2018-12-30T12:36:04Z</time>
      </trkpt>
      <trkpt lat="39.8305770" lon="2.8062670">
        <ele>440.8</ele>
        <time>2018-12-30T12:36:05Z</time>
      </trkpt>
      <trkpt lat="39.8306160" lon="2.8063150">
        <ele>440.5</ele>
        <time>2018-12-30T12:36:06Z</time>
      </trkpt>
      <trkpt lat="39.8306450" lon="2.8063660">
        <ele>440.2</ele>
        <time>2018-12-30T12:36:07Z</time>
      </trkpt>
      <trkpt lat="39.8306730" lon="2.8064260">
        <ele>439.9</ele>
        <time>2018-12-30T12:36:08Z</time>
      </trkpt>
      <trkpt lat="39.8306980" lon="2.8064940">
        <ele>439.3</ele>
        <time>2018-12-30T12:36:09Z</time>
      </trkpt>
      <trkpt lat="39.8307230" lon="2.8065670">
        <ele>438.3</ele>
        <time>2018-12-30T12:36:10Z</time>
      </trkpt>
      <trkpt lat="39.8307490" lon="2.8066420">
        <ele>437.4</ele>
        <time>2018-12-30T12:36:11Z</time>
      </trkpt>
      <trkpt lat="39.8307790" lon="2.8067180">
        <ele>436.4</ele>
        <time>2018-12-30T12:36:12Z</time>
      </trkpt>
      <trkpt lat="39.8308190" lon="2.8067850">
        <ele>435.4</ele>
        <time>2018-12-30T12:36:13Z</time>
      </trkpt>
      <trkpt lat="39.8308700" lon="2.8068250">
        <ele>434.7</ele>
        <time>2018-12-30T12:36:14Z</time>
      </trkpt>
      <trkpt lat="39.8309280" lon="2.8068240">
        <ele>434.1</ele>
        <time>2018-12-30T12:36:15Z</time>
      </trkpt>
      <trkpt lat="39.8309750" lon="2.8067850">
        <ele>433.5</ele>
        <time>2018-12-30T12:36:16Z</time>
      </trkpt>
      <trkpt lat="39.8310020" lon="2.8067240">
        <ele>433.1</ele>
        <time>2018-12-30T12:36:17Z</time>
      </trkpt>
      <trkpt lat="39.8310090" lon="2.8066490">
        <ele>432.8</ele>
        <time>2018-12-30T12:36:18Z</time>
      </trkpt>
      <trkpt lat="39.8310020" lon="2.8065630">
        <ele>432.4</ele>
        <time>2018-12-30T12:36:19Z</time>
      </trkpt>
      <trkpt lat="39.8309890" lon="2.8064690">
        <ele>432.0</ele>
        <time>2018-12-30T12:36:20Z</time>
      </trkpt>
      <trkpt lat="39.8309690" lon="2.8063750">
        <ele>431.6</ele>
        <time>2018-12-30T12:36:21Z</time>
      </trkpt>
      <trkpt lat="39.8309420" lon="2.8062840">
        <ele>431.3</ele>
        <time>2018-12-30T12:36:22Z</time>
      </trkpt>
      <trkpt lat="39.8309020" lon="2.8062050">
        <ele>431.0</ele>
        <time>2018-12-30T12:36:23Z</time>
      </trkpt>
      <trkpt lat="39.8308550" lon="2.8061400">
        <ele>430.7</ele>
        <time>2018-12-30T12:36:24Z</time>
      </trkpt>
      <trkpt lat="39.8308030" lon="2.8060910">
        <ele>430.4</ele>
        <time>2018-12-30T12:36:25Z</time>
      </trkpt>
      <trkpt lat="39.8307490" lon="2.8060500">
        <ele>430.2</ele>
        <time>2018-12-30T12:36:26Z</time>
      </trkpt>
      <trkpt lat="39.8306840" lon="2.8060080">
        <ele>429.8</ele>
        <time>2018-12-30T12:36:27Z</time>
      </trkpt>
      <trkpt lat="39.8306110" lon="2.8059560">
        <ele>429.4</ele>
        <time>2018-12-30T12:36:28Z</time>
      </trkpt>
      <trkpt lat="39.8305370" lon="2.8058940">
        <ele>428.9</ele>
        <time>2018-12-30T12:36:29Z</time>
      </trkpt>
      <trkpt lat="39.8304680" lon="2.8058220">
        <ele>428.4</ele>
        <time>2018-12-30T12:36:30Z</time>
      </trkpt>
      <trkpt lat="39.8304020" lon="2.8057410">
        <ele>428.1</ele>
        <time>2018-12-30T12:36:31Z</time>
      </trkpt>
      <trkpt lat="39.8303360" lon="2.8056560">
        <ele>427.7</ele>
        <time>2018-12-30T12:36:32Z</time>
      </trkpt>
      <trkpt lat="39.8302690" lon="2.8055670">
        <ele>427.4</ele>
        <time>2018-12-30T12:36:33Z</time>
      </trkpt>
      <trkpt lat="39.8302020" lon="2.8054760">
        <ele>427.0</ele>
        <time>2018-12-30T12:36:34Z</time>
      </trkpt>
      <trkpt lat="39.8301340" lon="2.8053810">
        <ele>426.6</ele>
        <time>2018-12-30T12:36:35Z</time>
      </trkpt>
      <trkpt lat="39.8300700" lon="2.8052820">
        <ele>426.1</ele>
        <time>2018-12-30T12:36:36Z</time>
      </trkpt>
      <trkpt lat="39.8300110" lon="2.8051780">
        <ele>425.8</ele>
        <time>2018-12-30T12:36:37Z</time>
      </trkpt>
      <trkpt lat="39.8299610" lon="2.8050680">
        <ele>425.6</ele>
        <time>2018-12-30T12:36:38Z</time>
      </trkpt>
      <trkpt lat="39.8299150" lon="2.8049540">
        <ele>425.2</ele>
        <time>2018-12-30T12:36:39Z</time>
      </trkpt>
      <trkpt lat="39.8298710" lon="2.8048380">
        <ele>424.9</ele>
        <time>2018-12-30T12:36:40Z</time>
      </trkpt>
      <trkpt lat="39.8298280" lon="2.8047200">
        <ele>424.5</ele>
        <time>2018-12-30T12:36:41Z</time>
      </trkpt>
      <trkpt lat="39.8297850" lon="2.8046000">
        <ele>424.0</ele>
        <time>2018-12-30T12:36:42Z</time>
      </trkpt>
      <trkpt lat="39.8297420" lon="2.8044790">
        <ele>423.6</ele>
        <time>2018-12-30T12:36:43Z</time>
      </trkpt>
      <trkpt lat="39.8296990" lon="2.8043580">
        <ele>423.2</ele>
        <time>2018-12-30T12:36:44Z</time>
      </trkpt>
      <trkpt lat="39.8296550" lon="2.8042370">
        <ele>422.7</ele>
        <time>2018-12-30T12:36:45Z</time>
      </trkpt>
      <trkpt lat="39.8296120" lon="2.8041170">
        <ele>422.2</ele>
        <time>2018-12-30T12:36:46Z</time>
      </trkpt>
      <trkpt lat="39.8295710" lon="2.8040020">
        <ele>421.8</ele>
        <time>2018-12-30T12:36:47Z</time>
      </trkpt>
      <trkpt lat="39.8295350" lon="2.8038970">
        <ele>421.4</ele>
        <time>2018-12-30T12:36:48Z</time>
      </trkpt>
      <trkpt lat="39.8295020" lon="2.8038010">
        <ele>421.0</ele>
        <time>2018-12-30T12:36:49Z</time>
      </trkpt>
      <trkpt lat="39.8294700" lon="2.8037080">
        <ele>420.6</ele>
        <time>2018-12-30T12:36:50Z</time>
      </trkpt>
      <trkpt lat="39.8294380" lon="2.8036140">
        <ele>420.3</ele>
        <time>2018-12-30T12:36:51Z</time>
      </trkpt>
      <trkpt lat="39.8294070" lon="2.8035200">
        <ele>419.9</ele>
        <time>2018-12-30T12:36:52Z</time>
      </trkpt>
      <trkpt lat="39.8293750" lon="2.8034280">
        <ele>419.5</ele>
        <time>2018-12-30T12:36:53Z</time>
      </trkpt>
      <trkpt lat="39.8293410" lon="2.8033400">
        <ele>419.1</ele>
        <time>2018-12-30T12:36:54Z</time>
      </trkpt>
      <trkpt lat="39.8293090" lon="2.8032600">
        <ele>418.7</ele>
        <time>2018-12-30T12:36:55Z</time>
      </trkpt>
      <trkpt lat="39.8292810" lon="2.8031920">
        <ele>418.3</ele>
        <time>2018-12-30T12:36:56Z</time>
      </trkpt>
      <trkpt lat="39.8292560" lon="2.8031300">
        <ele>417.9</ele>
        <time>2018-12-30T12:36:57Z</time>
      </trkpt>
      <trkpt lat="39.8292380" lon="2.8030740">
        <ele>417.5</ele>
        <time>2018-12-30T12:36:58Z</time>
      </trkpt>
      <trkpt lat="39.8292560" lon="2.8030450">
        <ele>417.2</ele>
        <time>2018-12-30T12:36:59Z</time>
      </trkpt>
      <trkpt lat="39.8293050" lon="2.8030420">
        <ele>416.8</ele>
        <time>2018-12-30T12:37:00Z</time>
      </trkpt>
      <trkpt lat="39.8293730" lon="2.8030710">
        <ele>416.0</ele>
        <time>2018-12-30T12:37:01Z</time>
      </trkpt>
      <trkpt lat="39.8294140" lon="2.8031090">
        <ele>415.5</ele>
        <time>2018-12-30T12:37:02Z</time>
      </trkpt>
      <trkpt lat="39.8294330" lon="2.8031620">
        <ele>415.1</ele>
        <time>2018-12-30T12:37:03Z</time>
      </trkpt>
      <trkpt lat="39.8294390" lon="2.8032240">
        <ele>414.8</ele>
        <time>2018-12-30T12:37:04Z</time>
      </trkpt>
      <trkpt lat="39.8294680" lon="2.8033570">
        <ele>414.3</ele>
        <time>2018-12-30T12:37:05Z</time>
      </trkpt>
      <trkpt lat="39.8294870" lon="2.8034180">
        <ele>414.0</ele>
        <time>2018-12-30T12:37:06Z</time>
      </trkpt>
      <trkpt lat="39.8295050" lon="2.8034800">
        <ele>413.7</ele>
        <time>2018-12-30T12:37:07Z</time>
      </trkpt>
      <trkpt lat="39.8295230" lon="2.8035420">
        <ele>413.4</ele>
        <time>2018-12-30T12:37:08Z</time>
      </trkpt>
      <trkpt lat="39.8295560" lon="2.8036330">
        <ele>413.0</ele>
        <time>2018-12-30T12:37:09Z</time>
      </trkpt>
      <trkpt lat="39.8295930" lon="2.8037270">
        <ele>412.7</ele>
        <time>2018-12-30T12:37:10Z</time>
      </trkpt>
      <trkpt lat="39.8296310" lon="2.8038230">
        <ele>412.4</ele>
        <time>2018-12-30T12:37:11Z</time>
      </trkpt>
      <trkpt lat="39.8296720" lon="2.8039190">
        <ele>412.0</ele>
        <time>2018-12-30T12:37:12Z</time>
      </trkpt>
      <trkpt lat="39.8297140" lon="2.8040160">
        <ele>411.5</ele>
        <time>2018-12-30T12:37:13Z</time>
      </trkpt>
      <trkpt lat="39.8297550" lon="2.8041140">
        <ele>411.2</ele>
        <time>2018-12-30T12:37:14Z</time>
      </trkpt>
      <trkpt lat="39.8297960" lon="2.8042120">
        <ele>410.8</ele>
        <time>2018-12-30T12:37:15Z</time>
      </trkpt>
      <trkpt lat="39.8298380" lon="2.8043110">
        <ele>410.5</ele>
        <time>2018-12-30T12:37:16Z</time>
      </trkpt>
      <trkpt lat="39.8298800" lon="2.8044090">
        <ele>410.2</ele>
        <time>2018-12-30T12:37:17Z</time>
      </trkpt>
      <trkpt lat="39.8299250" lon="2.8045070">
        <ele>409.9</ele>
        <time>2018-12-30T12:37:18Z</time>
      </trkpt>
      <trkpt lat="39.8299750" lon="2.8046030">
        <ele>409.5</ele>
        <time>2018-12-30T12:37:19Z</time>
      </trkpt>
      <trkpt lat="39.8300410" lon="2.8046860">
        <ele>409.2</ele>
        <time>2018-12-30T12:37:20Z</time>
      </trkpt>
      <trkpt lat="39.8301170" lon="2.8047600">
        <ele>408.8</ele>
        <time>2018-12-30T12:37:21Z</time>
      </trkpt>
      <trkpt lat="39.8302030" lon="2.8048260">
        <ele>408.5</ele>
        <time>2018-12-30T12:37:22Z</time>
      </trkpt>
      <trkpt lat="39.8302860" lon="2.8048970">
        <ele>408.2</ele>
        <time>2018-12-30T12:37:23Z</time>
      </trkpt>
      <trkpt lat="39.8303700" lon="2.8049700">
        <ele>407.9</ele>
        <time>2018-12-30T12:37:24Z</time>
      </trkpt>
      <trkpt lat="39.8304540" lon="2.8050420">
        <ele>407.6</ele>
        <time>2018-12-30T12:37:25Z</time>
      </trkpt>
      <trkpt lat="39.8305350" lon="2.8051100">
        <ele>407.2</ele>
        <time>2018-12-30T12:37:26Z</time>
      </trkpt>
      <trkpt lat="39.8306130" lon="2.8051720">
        <ele>406.8</ele>
        <time>2018-12-30T12:37:27Z</time>
      </trkpt>
      <trkpt lat="39.8306890" lon="2.8052210">
        <ele>406.5</ele>
        <time>2018-12-30T12:37:28Z</time>
      </trkpt>
      <trkpt lat="39.8307640" lon="2.8052440">
        <ele>406.2</ele>
        <time>2018-12-30T12:37:29Z</time>
      </trkpt>
      <trkpt lat="39.8308390" lon="2.8052340">
        <ele>405.8</ele>
        <time>2018-12-30T12:37:30Z</time>
      </trkpt>
      <trkpt lat="39.8309100" lon="2.8051880">
        <ele>405.4</ele>
        <time>2018-12-30T12:37:31Z</time>
      </trkpt>
      <trkpt lat="39.8309710" lon="2.8051120">
        <ele>405.0</ele>
        <time>2018-12-30T12:37:32Z</time>
      </trkpt>
      <trkpt lat="39.8310160" lon="2.8050170">
        <ele>404.6</ele>
        <time>2018-12-30T12:37:33Z</time>
      </trkpt>
      <trkpt lat="39.8310510" lon="2.8049150">
        <ele>404.2</ele>
        <time>2018-12-30T12:37:34Z</time>
      </trkpt>
      <trkpt lat="39.8310690" lon="2.8048100">
        <ele>403.7</ele>
        <time>2018-12-30T12:37:35Z</time>
      </trkpt>
      <trkpt lat="39.8310800" lon="2.8047060">
        <ele>403.1</ele>
        <time>2018-12-30T12:37:36Z</time>
      </trkpt>
      <trkpt lat="39.8310870" lon="2.8046040">
        <ele>402.5</ele>
        <time>2018-12-30T12:37:37Z</time>
      </trkpt>
      <trkpt lat="39.8311130" lon="2.8045090">
        <ele>401.9</ele>
        <time>2018-12-30T12:37:38Z</time>
      </trkpt>
      <trkpt lat="39.8311520" lon="2.8044260">
        <ele>401.2</ele>
        <time>2018-12-30T12:37:39Z</time>
      </trkpt>
      <trkpt lat="39.8312080" lon="2.8043620">
        <ele>400.6</ele>
        <time>2018-12-30T12:37:40Z</time>
      </trkpt>
      <trkpt lat="39.8312780" lon="2.8043180">
        <ele>400.0</ele>
        <time>2018-12-30T12:37:41Z</time>
      </trkpt>
      <trkpt lat="39.8313600" lon="2.8042820">
        <ele>399.5</ele>
        <time>2018-12-30T12:37:42Z</time>
      </trkpt>
      <trkpt lat="39.8314500" lon="2.8042440">
        <ele>398.9</ele>
        <time>2018-12-30T12:37:43Z</time>
      </trkpt>
      <trkpt lat="39.8315380" lon="2.8042040">
        <ele>398.4</ele>
        <time>2018-12-30T12:37:44Z</time>
      </trkpt>
      <trkpt lat="39.8316250" lon="2.8041660">
        <ele>398.0</ele>
        <time>2018-12-30T12:37:45Z</time>
      </trkpt>
      <trkpt lat="39.8317150" lon="2.8041350">
        <ele>397.6</ele>
        <time>2018-12-30T12:37:46Z</time>
      </trkpt>
      <trkpt lat="39.8318080" lon="2.8041080">
        <ele>397.2</ele>
        <time>2018-12-30T12:37:47Z</time>
      </trkpt>
      <trkpt lat="39.8319050" lon="2.8040820">
        <ele>396.8</ele>
        <time>2018-12-30T12:37:48Z</time>
      </trkpt>
      <trkpt lat="39.8320040" lon="2.8040570">
        <ele>396.5</ele>
        <time>2018-12-30T12:37:49Z</time>
      </trkpt>
      <trkpt lat="39.8321040" lon="2.8040320">
        <ele>396.1</ele>
        <time>2018-12-30T12:37:50Z</time>
      </trkpt>
      <trkpt lat="39.8322070" lon="2.8040060">
        <ele>395.5</ele>
        <time>2018-12-30T12:37:51Z</time>
      </trkpt>
      <trkpt lat="39.8323120" lon="2.8039800">
        <ele>394.8</ele>
        <time>2018-12-30T12:37:52Z</time>
      </trkpt>
      <trkpt lat="39.8324200" lon="2.8039550">
        <ele>394.3</ele>
        <time>2018-12-30T12:37:53Z</time>
      </trkpt>
      <trkpt lat="39.8325270" lon="2.8039290">
        <ele>393.7</ele>
        <time>2018-12-30T12:37:54Z</time>
      </trkpt>
      <trkpt lat="39.8326320" lon="2.8039040">
        <ele>393.1</ele>
        <time>2018-12-30T12:37:55Z</time>
      </trkpt>
      <trkpt lat="39.8327330" lon="2.8038790">
        <ele>392.6</ele>
        <time>2018-12-30T12:37:56Z</time>
      </trkpt>
      <trkpt lat="39.8328330" lon="2.8038610">
        <ele>392.0</ele>
        <time>2018-12-30T12:37:57Z</time>
      </trkpt>
      <trkpt lat="39.8329340" lon="2.8038510">
        <ele>391.4</ele>
        <time>2018-12-30T12:37:58Z</time>
      </trkpt>
      <trkpt lat="39.8330320" lon="2.8038550">
        <ele>390.8</ele>
        <time>2018-12-30T12:37:59Z</time>
      </trkpt>
      <trkpt lat="39.8331270" lon="2.8038750">
        <ele>390.2</ele>
        <time>2018-12-30T12:38:00Z</time>
      </trkpt>
      <trkpt lat="39.8332180" lon="2.8039140">
        <ele>389.3</ele>
        <time>2018-12-30T12:38:01Z</time>
      </trkpt>
      <trkpt lat="39.8333060" lon="2.8039690">
        <ele>388.4</ele>
        <time>2018-12-30T12:38:02Z</time>
      </trkpt>
      <trkpt lat="39.8333890" lon="2.8040310">
        <ele>387.6</ele>
        <time>2018-12-30T12:38:03Z</time>
      </trkpt>
      <trkpt lat="39.8334700" lon="2.8040920">
        <ele>386.9</ele>
        <time>2018-12-30T12:38:04Z</time>
      </trkpt>
      <trkpt lat="39.8335480" lon="2.8041510">
        <ele>386.2</ele>
        <time>2018-12-30T12:38:05Z</time>
      </trkpt>
      <trkpt lat="39.8336290" lon="2.8041960">
        <ele>385.5</ele>
        <time>2018-12-30T12:38:06Z</time>
      </trkpt>
      <trkpt lat="39.8337150" lon="2.8042190">
        <ele>384.9</ele>
        <time>2018-12-30T12:38:07Z</time>
      </trkpt>
      <trkpt lat="39.8338050" lon="2.8042160">
        <ele>384.1</ele>
        <time>2018-12-30T12:38:08Z</time>
      </trkpt>
      <trkpt lat="39.8338980" lon="2.8041920">
        <ele>383.1</ele>
        <time>2018-12-30T12:38:09Z</time>
      </trkpt>
      <trkpt lat="39.8339900" lon="2.8041510">
        <ele>382.1</ele>
        <time>2018-12-30T12:38:10Z</time>
      </trkpt>
      <trkpt lat="39.8340740" lon="2.8040840">
        <ele>381.3</ele>
        <time>2018-12-30T12:38:11Z</time>
      </trkpt>
      <trkpt lat="39.8341470" lon="2.8039920">
        <ele>380.6</ele>
        <time>2018-12-30T12:38:12Z</time>
      </trkpt>
      <trkpt lat="39.8342050" lon="2.8038790">
        <ele>379.8</ele>
        <time>2018-12-30T12:38:13Z</time>
      </trkpt>
      <trkpt lat="39.8342510" lon="2.8037520">
        <ele>379.0</ele>
        <time>2018-12-30T12:38:14Z</time>
      </trkpt>
      <trkpt lat="39.8342870" lon="2.8036170">
        <ele>378.1</ele>
        <time>2018-12-30T12:38:15Z</time>
      </trkpt>
      <trkpt lat="39.8343150" lon="2.8034770">
        <ele>377.4</ele>
        <time>2018-12-30T12:38:16Z</time>
      </trkpt>
      <trkpt lat="39.8343380" lon="2.8033370">
        <ele>376.5</ele>
        <time>2018-12-30T12:38:17Z</time>
      </trkpt>
      <trkpt lat="39.8343580" lon="2.8032040">
        <ele>375.5</ele>
        <time>2018-12-30T12:38:18Z</time>
      </trkpt>
      <trkpt lat="39.8343780" lon="2.8030830">
        <ele>374.7</ele>
        <time>2018-12-30T12:38:19Z</time>
      </trkpt>
      <trkpt lat="39.8344080" lon="2.8029790">
        <ele>374.1</ele>
        <time>2018-12-30T12:38:20Z</time>
      </trkpt>
      <trkpt lat="39.8344530" lon="2.8028960">
        <ele>373.5</ele>
        <time>2018-12-30T12:38:21Z</time>
      </trkpt>
      <trkpt lat="39.8345200" lon="2.8028350">
        <ele>372.9</ele>
        <time>2018-12-30T12:38:22Z</time>
      </trkpt>
      <trkpt lat="39.8346010" lon="2.8027880">
        <ele>372.2</ele>
        <time>2018-12-30T12:38:23Z</time>
      </trkpt>
      <trkpt lat="39.8346910" lon="2.8027480">
        <ele>371.2</ele>
        <time>2018-12-30T12:38:24Z</time>
      </trkpt>
      <trkpt lat="39.8347850" lon="2.8027070">
        <ele>370.3</ele>
        <time>2018-12-30T12:38:25Z</time>
      </trkpt>
      <trkpt lat="39.8348830" lon="2.8026660">
        <ele>369.4</ele>
        <time>2018-12-30T12:38:26Z</time>
      </trkpt>
      <trkpt lat="39.8349820" lon="2.8026250">
        <ele>368.5</ele>
        <time>2018-12-30T12:38:27Z</time>
      </trkpt>
      <trkpt lat="39.8350790" lon="2.8025940">
        <ele>367.6</ele>
        <time>2018-12-30T12:38:28Z</time>
      </trkpt>
      <trkpt lat="39.8351700" lon="2.8025770">
        <ele>366.9</ele>
        <time>2018-12-30T12:38:29Z</time>
      </trkpt>
      <trkpt lat="39.8352550" lon="2.8025720">
        <ele>366.2</ele>
        <time>2018-12-30T12:38:30Z</time>
      </trkpt>
      <trkpt lat="39.8353360" lon="2.8025750">
        <ele>365.5</ele>
        <time>2018-12-30T12:38:31Z</time>
      </trkpt>
      <trkpt lat="39.8354120" lon="2.8025850">
        <ele>364.9</ele>
        <time>2018-12-30T12:38:32Z</time>
      </trkpt>
      <trkpt lat="39.8354820" lon="2.8026080">
        <ele>364.3</ele>
        <time>2018-12-30T12:38:33Z</time>
      </trkpt>
      <trkpt lat="39.8355460" lon="2.8026440">
        <ele>363.8</ele>
        <time>2018-12-30T12:38:34Z</time>
      </trkpt>
      <trkpt lat="39.8356000" lon="2.8026940">
        <ele>363.2</ele>
        <time>2018-12-30T12:38:35Z</time>
      </trkpt>
      <trkpt lat="39.8356450" lon="2.8027560">
        <ele>362.6</ele>
        <time>2018-12-30T12:38:36Z</time>
      </trkpt>
      <trkpt lat="39.8356800" lon="2.8028310">
        <ele>361.9</ele>
        <time>2018-12-30T12:38:37Z</time>
      </trkpt>
      <trkpt lat="39.8357080" lon="2.8029140">
        <ele>361.1</ele>
        <time>2018-12-30T12:38:38Z</time>
      </trkpt>
      <trkpt lat="39.8357300" lon="2.8030000">
        <ele>360.4</ele>
        <time>2018-12-30T12:38:39Z</time>
      </trkpt>
      <trkpt lat="39.8357500" lon="2.8030870">
        <ele>359.7</ele>
        <time>2018-12-30T12:38:40Z</time>
      </trkpt>
      <trkpt lat="39.8357640" lon="2.8031780">
        <ele>359.0</ele>
        <time>2018-12-30T12:38:41Z</time>
      </trkpt>
      <trkpt lat="39.8357740" lon="2.8032700">
        <ele>358.3</ele>
        <time>2018-12-30T12:38:42Z</time>
      </trkpt>
      <trkpt lat="39.8357670" lon="2.8033650">
        <ele>357.7</ele>
        <time>2018-12-30T12:38:43Z</time>
      </trkpt>
      <trkpt lat="39.8357240" lon="2.8034690">
        <ele>356.9</ele>
        <time>2018-12-30T12:38:44Z</time>
      </trkpt>
      <trkpt lat="39.8356610" lon="2.8035670">
        <ele>356.1</ele>
        <time>2018-12-30T12:38:45Z</time>
      </trkpt>
      <trkpt lat="39.8355890" lon="2.8036530">
        <ele>355.5</ele>
        <time>2018-12-30T12:38:46Z</time>
      </trkpt>
      <trkpt lat="39.8355300" lon="2.8037220">
        <ele>355.2</ele>
        <time>2018-12-30T12:38:47Z</time>
      </trkpt>
      <trkpt lat="39.8354650" lon="2.8037900">
        <ele>354.7</ele>
        <time>2018-12-30T12:38:48Z</time>
      </trkpt>
      <trkpt lat="39.8353970" lon="2.8038580">
        <ele>354.3</ele>
        <time>2018-12-30T12:38:49Z</time>
      </trkpt>
      <trkpt lat="39.8353240" lon="2.8039310">
        <ele>354.0</ele>
        <time>2018-12-30T12:38:50Z</time>
      </trkpt>
      <trkpt lat="39.8352490" lon="2.8040060">
        <ele>353.6</ele>
        <time>2018-12-30T12:38:51Z</time>
      </trkpt>
      <trkpt lat="39.8351690" lon="2.8040780">
        <ele>353.3</ele>
        <time>2018-12-30T12:38:52Z</time>
      </trkpt>
      <trkpt lat="39.8350850" lon="2.8041440">
        <ele>352.9</ele>
        <time>2018-12-30T12:38:53Z</time>
      </trkpt>
      <trkpt lat="39.8349980" lon="2.8042030">
        <ele>352.4</ele>
        <time>2018-12-30T12:38:54Z</time>
      </trkpt>
      <trkpt lat="39.8349100" lon="2.8042570">
        <ele>351.9</ele>
        <time>2018-12-30T12:38:55Z</time>
      </trkpt>
      <trkpt lat="39.8348210" lon="2.8043100">
        <ele>351.5</ele>
        <time>2018-12-30T12:38:56Z</time>
      </trkpt>
      <trkpt lat="39.8347380" lon="2.8043640">
        <ele>351.2</ele>
        <time>2018-12-30T12:38:57Z</time>
      </trkpt>
      <trkpt lat="39.8346580" lon="2.8044230">
        <ele>350.8</ele>
        <time>2018-12-30T12:38:58Z</time>
      </trkpt>
      <trkpt lat="39.8345920" lon="2.8044950">
        <ele>350.5</ele>
        <time>2018-12-30T12:38:59Z</time>
      </trkpt>
      <trkpt lat="39.8345370" lon="2.8045850">
        <ele>350.1</ele>
        <time>2018-12-30T12:39:00Z</time>
      </trkpt>
      <trkpt lat="39.8344920" lon="2.8046930">
        <ele>349.5</ele>
        <time>2018-12-30T12:39:01Z</time>
      </trkpt>
      <trkpt lat="39.8344430" lon="2.8048190">
        <ele>348.8</ele>
        <time>2018-12-30T12:39:02Z</time>
      </trkpt>
      <trkpt lat="39.8343930" lon="2.8049470">
        <ele>348.2</ele>
        <time>2018-12-30T12:39:03Z</time>
      </trkpt>
      <trkpt lat="39.8343400" lon="2.8050770">
        <ele>347.5</ele>
        <time>2018-12-30T12:39:04Z</time>
      </trkpt>
      <trkpt lat="39.8342880" lon="2.8051960">
        <ele>346.9</ele>
        <time>2018-12-30T12:39:05Z</time>
      </trkpt>
      <trkpt lat="39.8342360" lon="2.8053170">
        <ele>346.2</ele>
        <time>2018-12-30T12:39:06Z</time>
      </trkpt>
      <trkpt lat="39.8341840" lon="2.8054470">
        <ele>345.5</ele>
        <time>2018-12-30T12:39:07Z</time>
      </trkpt>
      <trkpt lat="39.8341300" lon="2.8055790">
        <ele>344.8</ele>
        <time>2018-12-30T12:39:08Z</time>
      </trkpt>
      <trkpt lat="39.8340750" lon="2.8057110">
        <ele>344.1</ele>
        <time>2018-12-30T12:39:09Z</time>
      </trkpt>
      <trkpt lat="39.8340220" lon="2.8058320">
        <ele>343.4</ele>
        <time>2018-12-30T12:39:10Z</time>
      </trkpt>
      <trkpt lat="39.8339690" lon="2.8059450">
        <ele>342.7</ele>
        <time>2018-12-30T12:39:11Z</time>
      </trkpt>
      <trkpt lat="39.8339230" lon="2.8060480">
        <ele>342.1</ele>
        <time>2018-12-30T12:39:12Z</time>
      </trkpt>
      <trkpt lat="39.8338840" lon="2.8061510">
        <ele>341.5</ele>
        <time>2018-12-30T12:39:13Z</time>
      </trkpt>
      <trkpt lat="39.8338670" lon="2.8062540">
        <ele>340.9</ele>
        <time>2018-12-30T12:39:14Z</time>
      </trkpt>
      <trkpt lat="39.8339000" lon="2.8063460">
        <ele>340.3</ele>
        <time>2018-12-30T12:39:15Z</time>
      </trkpt>
      <trkpt lat="39.8339460" lon="2.8064220">
        <ele>339.8</ele>
        <time>2018-12-30T12:39:16Z</time>
      </trkpt>
      <trkpt lat="39.8339940" lon="2.8064820">
        <ele>339.3</ele>
        <time>2018-12-30T12:39:17Z</time>
      </trkpt>
      <trkpt lat="39.8340210" lon="2.8065330">
        <ele>338.9</ele>
        <time>2018-12-30T12:39:18Z</time>
      </trkpt>
      <trkpt lat="39.8340950" lon="2.8065620">
        <ele>338.2</ele>
        <time>2018-12-30T12:39:19Z</time>
      </trkpt>
      <trkpt lat="39.8342010" lon="2.8065910">
        <ele>337.4</ele>
        <time>2018-12-30T12:39:20Z</time>
      </trkpt>
      <trkpt lat="39.8343120" lon="2.8066230">
        <ele>336.6</ele>
        <time>2018-12-30T12:39:21Z</time>
      </trkpt>
      <trkpt lat="39.8344200" lon="2.8066660">
        <ele>336.0</ele>
        <time>2018-12-30T12:39:22Z</time>
      </trkpt>
      <trkpt lat="39.8345330" lon="2.8067070">
        <ele>335.5</ele>
        <time>2018-12-30T12:39:23Z</time>
      </trkpt>
      <trkpt lat="39.8346590" lon="2.8067390">
        <ele>335.0</ele>
        <time>2018-12-30T12:39:24Z</time>
      </trkpt>
      <trkpt lat="39.8347770" lon="2.8067560">
        <ele>334.4</ele>
        <time>2018-12-30T12:39:25Z</time>
      </trkpt>
      <trkpt lat="39.8348880" lon="2.8067560">
        <ele>333.8</ele>
        <time>2018-12-30T12:39:26Z</time>
      </trkpt>
      <trkpt lat="39.8350060" lon="2.8067480">
        <ele>333.3</ele>
        <time>2018-12-30T12:39:27Z</time>
      </trkpt>
      <trkpt lat="39.8351310" lon="2.8067320">
        <ele>332.5</ele>
        <time>2018-12-30T12:39:28Z</time>
      </trkpt>
      <trkpt lat="39.8352660" lon="2.8067160">
        <ele>331.5</ele>
        <time>2018-12-30T12:39:29Z</time>
      </trkpt>
      <trkpt lat="39.8354050" lon="2.8066960">
        <ele>330.7</ele>
        <time>2018-12-30T12:39:30Z</time>
      </trkpt>
      <trkpt lat="39.8355440" lon="2.8066770">
        <ele>329.8</ele>
        <time>2018-12-30T12:39:31Z</time>
      </trkpt>
      <trkpt lat="39.8356850" lon="2.8066560">
        <ele>328.9</ele>
        <time>2018-12-30T12:39:32Z</time>
      </trkpt>
      <trkpt lat="39.8358260" lon="2.8066360">
        <ele>328.0</ele>
        <time>2018-12-30T12:39:33Z</time>
      </trkpt>
      <trkpt lat="39.8359660" lon="2.8066160">
        <ele>327.1</ele>
        <time>2018-12-30T12:39:34Z</time>
      </trkpt>
      <trkpt lat="39.8361010" lon="2.8065940">
        <ele>325.9</ele>
        <time>2018-12-30T12:39:35Z</time>
      </trkpt>
      <trkpt lat="39.8362340" lon="2.8065720">
        <ele>324.8</ele>
        <time>2018-12-30T12:39:36Z</time>
      </trkpt>
      <trkpt lat="39.8363650" lon="2.8065510">
        <ele>323.8</ele>
        <time>2018-12-30T12:39:37Z</time>
      </trkpt>
      <trkpt lat="39.8364950" lon="2.8065430">
        <ele>322.9</ele>
        <time>2018-12-30T12:39:38Z</time>
      </trkpt>
      <trkpt lat="39.8366250" lon="2.8065480">
        <ele>321.7</ele>
        <time>2018-12-30T12:39:39Z</time>
      </trkpt>
      <trkpt lat="39.8367540" lon="2.8065650">
        <ele>320.4</ele>
        <time>2018-12-30T12:39:40Z</time>
      </trkpt>
      <trkpt lat="39.8368820" lon="2.8065830">
        <ele>319.0</ele>
        <time>2018-12-30T12:39:41Z</time>
      </trkpt>
      <trkpt lat="39.8370080" lon="2.8065980">
        <ele>317.8</ele>
        <time>2018-12-30T12:39:42Z</time>
      </trkpt>
      <trkpt lat="39.8371320" lon="2.8066000">
        <ele>316.6</ele>
        <time>2018-12-30T12:39:43Z</time>
      </trkpt>
      <trkpt lat="39.8372420" lon="2.8065650">
        <ele>315.6</ele>
        <time>2018-12-30T12:39:44Z</time>
      </trkpt>
      <trkpt lat="39.8373500" lon="2.8065070">
        <ele>314.6</ele>
        <time>2018-12-30T12:39:45Z</time>
      </trkpt>
      <trkpt lat="39.8374550" lon="2.8064340">
        <ele>313.6</ele>
        <time>2018-12-30T12:39:46Z</time>
      </trkpt>
      <trkpt lat="39.8375700" lon="2.8063690">
        <ele>312.6</ele>
        <time>2018-12-30T12:39:47Z</time>
      </trkpt>
      <trkpt lat="39.8376790" lon="2.8063040">
        <ele>311.7</ele>
        <time>2018-12-30T12:39:48Z</time>
      </trkpt>
      <trkpt lat="39.8377880" lon="2.8062400">
        <ele>310.8</ele>
        <time>2018-12-30T12:39:49Z</time>
      </trkpt>
      <trkpt lat="39.8379060" lon="2.8061830">
        <ele>309.9</ele>
        <time>2018-12-30T12:39:50Z</time>
      </trkpt>
      <trkpt lat="39.8380290" lon="2.8061270">
        <ele>308.9</ele>
        <time>2018-12-30T12:39:51Z</time>
      </trkpt>
      <trkpt lat="39.8381560" lon="2.8060760">
        <ele>307.9</ele>
        <time>2018-12-30T12:39:52Z</time>
      </trkpt>
      <trkpt lat="39.8382820" lon="2.8060270">
        <ele>307.0</ele>
        <time>2018-12-30T12:39:53Z</time>
      </trkpt>
      <trkpt lat="39.8384070" lon="2.8059800">
        <ele>306.1</ele>
        <time>2018-12-30T12:39:54Z</time>
      </trkpt>
      <trkpt lat="39.8385340" lon="2.8059290">
        <ele>305.2</ele>
        <time>2018-12-30T12:39:55Z</time>
      </trkpt>
      <trkpt lat="39.8386550" lon="2.8058600">
        <ele>304.3</ele>
        <time>2018-12-30T12:39:56Z</time>
      </trkpt>
      <trkpt lat="39.8387740" lon="2.8057850">
        <ele>303.4</ele>
        <time>2018-12-30T12:39:57Z</time>
      </trkpt>
      <trkpt lat="39.8388910" lon="2.8057060">
        <ele>302.5</ele>
        <time>2018-12-30T12:39:58Z</time>
      </trkpt>
      <trkpt lat="39.8390090" lon="2.8056360">
        <ele>301.8</ele>
        <time>2018-12-30T12:39:59Z</time>
      </trkpt>
      <trkpt lat="39.8391300" lon="2.8055750">
        <ele>300.8</ele>
        <time>2018-12-30T12:40:00Z</time>
      </trkpt>
      <trkpt lat="39.8392530" lon="2.8055240">
        <ele>299.9</ele>
        <time>2018-12-30T12:40:01Z</time>
      </trkpt>
      <trkpt lat="39.8393810" lon="2.8054820">
        <ele>298.8</ele>
        <time>2018-12-30T12:40:02Z</time>
      </trkpt>
      <trkpt lat="39.8395100" lon="2.8054450">
        <ele>297.7</ele>
        <time>2018-12-30T12:40:03Z</time>
      </trkpt>
      <trkpt lat="39.8396410" lon="2.8054180">
        <ele>296.6</ele>
        <time>2018-12-30T12:40:04Z</time>
      </trkpt>
      <trkpt lat="39.8397700" lon="2.8053940">
        <ele>295.7</ele>
        <time>2018-12-30T12:40:05Z</time>
      </trkpt>
      <trkpt lat="39.8398970" lon="2.8053750">
        <ele>294.7</ele>
        <time>2018-12-30T12:40:06Z</time>
      </trkpt>
      <trkpt lat="39.8400190" lon="2.8053510">
        <ele>293.6</ele>
        <time>2018-12-30T12:40:07Z</time>
      </trkpt>
      <trkpt lat="39.8401380" lon="2.8053290">
        <ele>292.7</ele>
        <time>2018-12-30T12:40:08Z</time>
      </trkpt>
      <trkpt lat="39.8402480" lon="2.8053070">
        <ele>291.8</ele>
        <time>2018-12-30T12:40:09Z</time>
      </trkpt>
      <trkpt lat="39.8403540" lon="2.8052860">
        <ele>291.0</ele>
        <time>2018-12-30T12:40:10Z</time>
      </trkpt>
      <trkpt lat="39.8404530" lon="2.8052720">
        <ele>290.2</ele>
        <time>2018-12-30T12:40:11Z</time>
      </trkpt>
      <trkpt lat="39.8405530" lon="2.8052710">
        <ele>289.4</ele>
        <time>2018-12-30T12:40:12Z</time>
      </trkpt>
      <trkpt lat="39.8406500" lon="2.8052880">
        <ele>288.6</ele>
        <time>2018-12-30T12:40:13Z</time>
      </trkpt>
      <trkpt lat="39.8407550" lon="2.8053150">
        <ele>287.8</ele>
        <time>2018-12-30T12:40:14Z</time>
      </trkpt>
      <trkpt lat="39.8408630" lon="2.8053370">
        <ele>286.9</ele>
        <time>2018-12-30T12:40:15Z</time>
      </trkpt>
      <trkpt lat="39.8409740" lon="2.8053510">
        <ele>286.0</ele>
        <time>2018-12-30T12:40:16Z</time>
      </trkpt>
      <trkpt lat="39.8410810" lon="2.8053550">
        <ele>285.1</ele>
        <time>2018-12-30T12:40:17Z</time>
      </trkpt>
      <trkpt lat="39.8411800" lon="2.8053370">
        <ele>284.3</ele>
        <time>2018-12-30T12:40:18Z</time>
      </trkpt>
      <trkpt lat="39.8412770" lon="2.8053080">
        <ele>283.5</ele>
        <time>2018-12-30T12:40:19Z</time>
      </trkpt>
      <trkpt lat="39.8413690" lon="2.8052670">
        <ele>282.7</ele>
        <time>2018-12-30T12:40:20Z</time>
      </trkpt>
      <trkpt lat="39.8414600" lon="2.8052320">
        <ele>281.9</ele>
        <time>2018-12-30T12:40:21Z</time>
      </trkpt>
      <trkpt lat="39.8415500" lon="2.8051930">
        <ele>281.2</ele>
        <time>2018-12-30T12:40:22Z</time>
      </trkpt>
      <trkpt lat="39.8416400" lon="2.8051530">
        <ele>280.4</ele>
        <time>2018-12-30T12:40:23Z</time>
      </trkpt>
      <trkpt lat="39.8417310" lon="2.8051110">
        <ele>279.7</ele>
        <time>2018-12-30T12:40:24Z</time>
      </trkpt>
      <trkpt lat="39.8418230" lon="2.8050660">
        <ele>278.9</ele>
        <time>2018-12-30T12:40:25Z</time>
      </trkpt>
      <trkpt lat="39.8419130" lon="2.8050180">
        <ele>278.1</ele>
        <time>2018-12-30T12:40:26Z</time>
      </trkpt>
      <trkpt lat="39.8420020" lon="2.8049620">
        <ele>277.3</ele>
        <time>2018-12-30T12:40:27Z</time>
      </trkpt>
      <trkpt lat="39.8420890" lon="2.8048970">
        <ele>276.5</ele>
        <time>2018-12-30T12:40:28Z</time>
      </trkpt>
      <trkpt lat="39.8421760" lon="2.8048200">
        <ele>275.6</ele>
        <time>2018-12-30T12:40:29Z</time>
      </trkpt>
      <trkpt lat="39.8422620" lon="2.8047360">
        <ele>274.7</ele>
        <time>2018-12-30T12:40:30Z</time>
      </trkpt>
      <trkpt lat="39.8423480" lon="2.8046480">
        <ele>273.9</ele>
        <time>2018-12-30T12:40:31Z</time>
      </trkpt>
      <trkpt lat="39.8424310" lon="2.8045580">
        <ele>273.1</ele>
        <time>2018-12-30T12:40:32Z</time>
      </trkpt>
      <trkpt lat="39.8425110" lon="2.8044650">
        <ele>272.1</ele>
        <time>2018-12-30T12:40:33Z</time>
      </trkpt>
      <trkpt lat="39.8425910" lon="2.8043700">
        <ele>271.3</ele>
        <time>2018-12-30T12:40:34Z</time>
      </trkpt>
      <trkpt lat="39.8426690" lon="2.8042710">
        <ele>270.4</ele>
        <time>2018-12-30T12:40:35Z</time>
      </trkpt>
      <trkpt lat="39.8427490" lon="2.8041710">
        <ele>269.5</ele>
        <time>2018-12-30T12:40:36Z</time>
      </trkpt>
      <trkpt lat="39.8428320" lon="2.8040720">
        <ele>268.7</ele>
        <time>2018-12-30T12:40:37Z</time>
      </trkpt>
      <trkpt lat="39.8429270" lon="2.8039910">
        <ele>267.9</ele>
        <time>2018-12-30T12:40:38Z</time>
      </trkpt>
      <trkpt lat="39.8430300" lon="2.8039200">
        <ele>267.0</ele>
        <time>2018-12-30T12:40:39Z</time>
      </trkpt>
      <trkpt lat="39.8431360" lon="2.8038580">
        <ele>266.0</ele>
        <time>2018-12-30T12:40:40Z</time>
      </trkpt>
      <trkpt lat="39.8432370" lon="2.8037930">
        <ele>265.1</ele>
        <time>2018-12-30T12:40:41Z</time>
      </trkpt>
      <trkpt lat="39.8433350" lon="2.8037340">
        <ele>264.2</ele>
        <time>2018-12-30T12:40:42Z</time>
      </trkpt>
      <trkpt lat="39.8434180" lon="2.8037030">
        <ele>263.5</ele>
        <time>2018-12-30T12:40:43Z</time>
      </trkpt>
      <trkpt lat="39.8434840" lon="2.8037130">
        <ele>263.0</ele>
        <time>2018-12-30T12:40:44Z</time>
      </trkpt>
      <trkpt lat="39.8435440" lon="2.8037670">
        <ele>262.5</ele>
        <time>2018-12-30T12:40:45Z</time>
      </trkpt>
      <trkpt lat="39.8436050" lon="2.8038350">
        <ele>261.8</ele>
        <time>2018-12-30T12:40:46Z</time>
      </trkpt>
      <trkpt lat="39.8436640" lon="2.8038990">
        <ele>261.1</ele>
        <time>2018-12-30T12:40:47Z</time>
      </trkpt>
      <trkpt lat="39.8437110" lon="2.8039570">
        <ele>260.6</ele>
        <time>2018-12-30T12:40:48Z</time>
      </trkpt>
      <trkpt lat="39.8437520" lon="2.8040320">
        <ele>260.1</ele>
        <time>2018-12-30T12:40:49Z</time>
      </trkpt>
      <trkpt lat="39.8437930" lon="2.8041180">
        <ele>259.4</ele>
        <time>2018-12-30T12:40:50Z</time>
      </trkpt>
      <trkpt lat="39.8438410" lon="2.8042060">
        <ele>258.7</ele>
        <time>2018-12-30T12:40:51Z</time>
      </trkpt>
      <trkpt lat="39.8439020" lon="2.8042800">
        <ele>258.0</ele>
        <time>2018-12-30T12:40:52Z</time>
      </trkpt>
      <trkpt lat="39.8439680" lon="2.8043470">
        <ele>257.3</ele>
        <time>2018-12-30T12:40:53Z</time>
      </trkpt>
      <trkpt lat="39.8440370" lon="2.8044000">
        <ele>256.7</ele>
        <time>2018-12-30T12:40:54Z</time>
      </trkpt>
      <trkpt lat="39.8441120" lon="2.8044300">
        <ele>256.0</ele>
        <time>2018-12-30T12:40:55Z</time>
      </trkpt>
      <trkpt lat="39.8441860" lon="2.8044530">
        <ele>255.3</ele>
        <time>2018-12-30T12:40:56Z</time>
      </trkpt>
      <trkpt lat="39.8442600" lon="2.8044730">
        <ele>254.6</ele>
        <time>2018-12-30T12:40:57Z</time>
      </trkpt>
      <trkpt lat="39.8443380" lon="2.8045020">
        <ele>253.9</ele>
        <time>2018-12-30T12:40:58Z</time>
      </trkpt>
      <trkpt lat="39.8444240" lon="2.8045230">
        <ele>253.1</ele>
        <time>2018-12-30T12:40:59Z</time>
      </trkpt>
      <trkpt lat="39.8445130" lon="2.8045380">
        <ele>252.5</ele>
        <time>2018-12-30T12:41:00Z</time>
      </trkpt>
      <trkpt lat="39.8445960" lon="2.8045510">
        <ele>251.8</ele>
        <time>2018-12-30T12:41:01Z</time>
      </trkpt>
      <trkpt lat="39.8446790" lon="2.8045640">
        <ele>251.0</ele>
        <time>2018-12-30T12:41:02Z</time>
      </trkpt>
      <trkpt lat="39.8447630" lon="2.8045750">
        <ele>250.2</ele>
        <time>2018-12-30T12:41:03Z</time>
      </trkpt>
      <trkpt lat="39.8448390" lon="2.8045800">
        <ele>249.6</ele>
        <time>2018-12-30T12:41:04Z</time>
      </trkpt>
      <trkpt lat="39.8449010" lon="2.8045630">
        <ele>249.0</ele>
        <time>2018-12-30T12:41:05Z</time>
      </trkpt>
      <trkpt lat="39.8449580" lon="2.8045050">
        <ele>248.3</ele>
        <time>2018-12-30T12:41:06Z</time>
      </trkpt>
      <trkpt lat="39.8450240" lon="2.8044300">
        <ele>247.6</ele>
        <time>2018-12-30T12:41:07Z</time>
      </trkpt>
      <trkpt lat="39.8450960" lon="2.8043540">
        <ele>246.8</ele>
        <time>2018-12-30T12:41:08Z</time>
      </trkpt>
      <trkpt lat="39.8450960" lon="2.8043540">
        <ele>246.8</ele>
        <time>2018-12-30T12:41:09Z</time>
      </trkpt>
      <trkpt lat="39.8451450" lon="2.8042430">
        <ele>245.9</ele>
        <time>2018-12-30T12:41:10Z</time>
      </trkpt>
      <trkpt lat="39.8451930" lon="2.8041310">
        <ele>245.0</ele>
        <time>2018-12-30T12:41:11Z</time>
      </trkpt>
      <trkpt lat="39.8452420" lon="2.8040200">
        <ele>244.1</ele>
        <time>2018-12-30T12:41:12Z</time>
      </trkpt>
      <trkpt lat="39.8452900" lon="2.8039080">
        <ele>243.2</ele>
        <time>2018-12-30T12:41:13Z</time>
      </trkpt>
      <trkpt lat="39.8453390" lon="2.8037970">
        <ele>242.4</ele>
        <time>2018-12-30T12:41:14Z</time>
      </trkpt>
      <trkpt lat="39.8453870" lon="2.8036850">
        <ele>241.5</ele>
        <time>2018-12-30T12:41:15Z</time>
      </trkpt>
      <trkpt lat="39.8453780" lon="2.8035270">
        <ele>240.4</ele>
        <time>2018-12-30T12:41:16Z</time>
      </trkpt>
      <trkpt lat="39.8453640" lon="2.8033650">
        <ele>239.4</ele>
        <time>2018-12-30T12:41:17Z</time>
      </trkpt>
      <trkpt lat="39.8453470" lon="2.8032120">
        <ele>238.3</ele>
        <time>2018-12-30T12:41:18Z</time>
      </trkpt>
      <trkpt lat="39.8453650" lon="2.8030790">
        <ele>237.5</ele>
        <time>2018-12-30T12:41:19Z</time>
      </trkpt>
      <trkpt lat="39.8454000" lon="2.8029410">
        <ele>236.5</ele>
        <time>2018-12-30T12:41:20Z</time>
      </trkpt>
      <trkpt lat="39.8454440" lon="2.8028090">
        <ele>235.6</ele>
        <time>2018-12-30T12:41:21Z</time>
      </trkpt>
      <trkpt lat="39.8455050" lon="2.8026920">
        <ele>234.8</ele>
        <time>2018-12-30T12:41:22Z</time>
      </trkpt>
      <trkpt lat="39.8455600" lon="2.8025850">
        <ele>233.9</ele>
        <time>2018-12-30T12:41:23Z</time>
      </trkpt>
      <trkpt lat="39.8456180" lon="2.8024740">
        <ele>233.1</ele>
        <time>2018-12-30T12:41:24Z</time>
      </trkpt>
      <trkpt lat="39.8456510" lon="2.8023460">
        <ele>232.2</ele>
        <time>2018-12-30T12:41:25Z</time>
      </trkpt>
      <trkpt lat="39.8456730" lon="2.8022090">
        <ele>231.3</ele>
        <time>2018-12-30T12:41:26Z</time>
      </trkpt>
      <trkpt lat="39.8456850" lon="2.8020700">
        <ele>230.3</ele>
        <time>2018-12-30T12:41:27Z</time>
      </trkpt>
      <trkpt lat="39.8457010" lon="2.8019310">
        <ele>229.3</ele>
        <time>2018-12-30T12:41:28Z</time>
      </trkpt>
      <trkpt lat="39.8457140" lon="2.8017970">
        <ele>228.4</ele>
        <time>2018-12-30T12:41:29Z</time>
      </trkpt>
      <trkpt lat="39.8457240" lon="2.8016610">
        <ele>227.5</ele>
        <time>2018-12-30T12:41:30Z</time>
      </trkpt>
      <trkpt lat="39.8457170" lon="2.8015250">
        <ele>226.5</ele>
        <time>2018-12-30T12:41:31Z</time>
      </trkpt>
      <trkpt lat="39.8456890" lon="2.8013880">
        <ele>225.6</ele>
        <time>2018-12-30T12:41:32Z</time>
      </trkpt>
      <trkpt lat="39.8456360" lon="2.8012570">
        <ele>224.6</ele>
        <time>2018-12-30T12:41:33Z</time>
      </trkpt>
      <trkpt lat="39.8455690" lon="2.8011270">
        <ele>223.5</ele>
        <time>2018-12-30T12:41:34Z</time>
      </trkpt>
      <trkpt lat="39.8455030" lon="2.8009950">
        <ele>222.5</ele>
        <time>2018-12-30T12:41:35Z</time>
      </trkpt>
      <trkpt lat="39.8454420" lon="2.8008650">
        <ele>221.6</ele>
        <time>2018-12-30T12:41:36Z</time>
      </trkpt>
      <trkpt lat="39.8453840" lon="2.8007390">
        <ele>220.8</ele>
        <time>2018-12-30T12:41:37Z</time>
      </trkpt>
      <trkpt lat="39.8453270" lon="2.8006290">
        <ele>220.1</ele>
        <time>2018-12-30T12:41:38Z</time>
      </trkpt>
      <trkpt lat="39.8452700" lon="2.8005260">
        <ele>219.6</ele>
        <time>2018-12-30T12:41:39Z</time>
      </trkpt>
      <trkpt lat="39.8452060" lon="2.8004390">
        <ele>219.1</ele>
        <time>2018-12-30T12:41:40Z</time>
      </trkpt>
      <trkpt lat="39.8451400" lon="2.8003560">
        <ele>218.6</ele>
        <time>2018-12-30T12:41:41Z</time>
      </trkpt>
      <trkpt lat="39.8450810" lon="2.8002770">
        <ele>218.2</ele>
        <time>2018-12-30T12:41:42Z</time>
      </trkpt>
      <trkpt lat="39.8450340" lon="2.8001990">
        <ele>217.8</ele>
        <time>2018-12-30T12:41:43Z</time>
      </trkpt>
      <trkpt lat="39.8450010" lon="2.8001250">
        <ele>217.1</ele>
        <time>2018-12-30T12:41:44Z</time>
      </trkpt>
      <trkpt lat="39.8449680" lon="2.8000760">
        <ele>217.8</ele>
        <time>2018-12-30T12:41:45Z</time>
      </trkpt>
      <trkpt lat="39.8449470" lon="2.8000760">
        <ele>220.0</ele>
        <time>2018-12-30T12:41:46Z</time>
      </trkpt>
      <trkpt lat="39.8449920" lon="2.8001490">
        <ele>218.0</ele>
        <time>2018-12-30T12:41:47Z</time>
      </trkpt>
      <trkpt lat="39.8450580" lon="2.8002320">
        <ele>216.0</ele>
        <time>2018-12-30T12:41:48Z</time>
      </trkpt>
      <trkpt lat="39.8451400" lon="2.8002940">
        <ele>213.7</ele>
        <time>2018-12-30T12:41:49Z</time>
      </trkpt>
      <trkpt lat="39.8451860" lon="2.8003050">
        <ele>210.8</ele>
        <time>2018-12-30T12:41:50Z</time>
      </trkpt>
      <trkpt lat="39.8452560" lon="2.8002980">
        <ele>208.5</ele>
        <time>2018-12-30T12:41:51Z</time>
      </trkpt>
      <trkpt lat="39.8453370" lon="2.8002550">
        <ele>203.1</ele>
        <time>2018-12-30T12:41:52Z</time>
      </trkpt>
      <trkpt lat="39.8453490" lon="2.8002260">
        <ele>200.0</ele>
        <time>2018-12-30T12:41:53Z</time>
      </trkpt>
      <trkpt lat="39.8453610" lon="2.8001960">
        <ele>198.1</ele>
        <time>2018-12-30T12:41:54Z</time>
      </trkpt>
      <trkpt lat="39.8453730" lon="2.8001660">
        <ele>194.9</ele>
        <time>2018-12-30T12:41:55Z</time>
      </trkpt>
      <trkpt lat="39.8453370" lon="2.8001140">
        <ele>193.8</ele>
        <time>2018-12-30T12:41:56Z</time>
      </trkpt>
      <trkpt lat="39.8452930" lon="2.8000750">
        <ele>193.1</ele>
        <time>2018-12-30T12:41:57Z</time>
      </trkpt>
      <trkpt lat="39.8452630" lon="2.8000340">
        <ele>192.8</ele>
        <time>2018-12-30T12:41:58Z</time>
      </trkpt>
      <trkpt lat="39.8452270" lon="2.7999960">
        <ele>192.6</ele>
        <time>2018-12-30T12:41:59Z</time>
      </trkpt>
      <trkpt lat="39.8451300" lon="2.7999440">
        <ele>197.0</ele>
        <time>2018-12-30T12:42:00Z</time>
      </trkpt>
      <trkpt lat="39.8450810" lon="2.7999250">
        <ele>199.7</ele>
        <time>2018-12-30T12:42:01Z</time>
      </trkpt>
      <trkpt lat="39.8450320" lon="2.7999070">
        <ele>201.9</ele>
        <time>2018-12-30T12:42:02Z</time>
      </trkpt>
      <trkpt lat="39.8449830" lon="2.7998890">
        <ele>206.4</ele>
        <time>2018-12-30T12:42:03Z</time>
      </trkpt>
      <trkpt lat="39.8449170" lon="2.7998720">
        <ele>208.7</ele>
        <time>2018-12-30T12:42:04Z</time>
      </trkpt>
      <trkpt lat="39.8448510" lon="2.7998520">
        <ele>212.6</ele>
        <time>2018-12-30T12:42:05Z</time>
      </trkpt>
      <trkpt lat="39.8447840" lon="2.7998270">
        <ele>214.4</ele>
        <time>2018-12-30T12:42:06Z</time>
      </trkpt>
      <trkpt lat="39.8447190" lon="2.7998050">
        <ele>218.2</ele>
        <time>2018-12-30T12:42:07Z</time>
      </trkpt>
      <trkpt lat="39.8446550" lon="2.7997810">
        <ele>219.8</ele>
        <time>2018-12-30T12:42:08Z</time>
      </trkpt>
      <trkpt lat="39.8445940" lon="2.7997500">
        <ele>219.4</ele>
        <time>2018-12-30T12:42:09Z</time>
      </trkpt>
      <trkpt lat="39.8445320" lon="2.7997100">
        <ele>220.7</ele>
        <time>2018-12-30T12:42:10Z</time>
      </trkpt>
      <trkpt lat="39.8444590" lon="2.7996500">
        <ele>223.5</ele>
        <time>2018-12-30T12:42:11Z</time>
      </trkpt>
      <trkpt lat="39.8443790" lon="2.7995680">
        <ele>222.5</ele>
        <time>2018-12-30T12:42:12Z</time>
      </trkpt>
      <trkpt lat="39.8442910" lon="2.7994710">
        <ele>222.6</ele>
        <time>2018-12-30T12:42:13Z</time>
      </trkpt>
      <trkpt lat="39.8442010" lon="2.7993790">
        <ele>221.0</ele>
        <time>2018-12-30T12:42:14Z</time>
      </trkpt>
      <trkpt lat="39.8441040" lon="2.7993050">
        <ele>220.9</ele>
        <time>2018-12-30T12:42:15Z</time>
      </trkpt>
      <trkpt lat="39.8439950" lon="2.7992440">
        <ele>222.8</ele>
        <time>2018-12-30T12:42:16Z</time>
      </trkpt>
      <trkpt lat="39.8438810" lon="2.7991970">
        <ele>222.9</ele>
        <time>2018-12-30T12:42:17Z</time>
      </trkpt>
      <trkpt lat="39.8437650" lon="2.7991640">
        <ele>222.9</ele>
        <time>2018-12-30T12:42:18Z</time>
      </trkpt>
      <trkpt lat="39.8436500" lon="2.7991450">
        <ele>221.7</ele>
        <time>2018-12-30T12:42:19Z</time>
      </trkpt>
      <trkpt lat="39.8435320" lon="2.7991390">
        <ele>223.0</ele>
        <time>2018-12-30T12:42:20Z</time>
      </trkpt>
      <trkpt lat="39.8434130" lon="2.7991420">
        <ele>223.4</ele>
        <time>2018-12-30T12:42:21Z</time>
      </trkpt>
      <trkpt lat="39.8432970" lon="2.7991520">
        <ele>224.5</ele>
        <time>2018-12-30T12:42:22Z</time>
      </trkpt>
      <trkpt lat="39.8431860" lon="2.7991730">
        <ele>227.4</ele>
        <time>2018-12-30T12:42:23Z</time>
      </trkpt>
      <trkpt lat="39.8430790" lon="2.7991910">
        <ele>228.7</ele>
        <time>2018-12-30T12:42:24Z</time>
      </trkpt>
      <trkpt lat="39.8429710" lon="2.7992020">
        <ele>232.9</ele>
        <time>2018-12-30T12:42:25Z</time>
      </trkpt>
      <trkpt lat="39.8428590" lon="2.7991810">
        <ele>232.2</ele>
        <time>2018-12-30T12:42:26Z</time>
      </trkpt>
      <trkpt lat="39.8427450" lon="2.7991600">
        <ele>233.6</ele>
        <time>2018-12-30T12:42:27Z</time>
      </trkpt>
      <trkpt lat="39.8426280" lon="2.7991460">
        <ele>231.5</ele>
        <time>2018-12-30T12:42:28Z</time>
      </trkpt>
      <trkpt lat="39.8425140" lon="2.7991580">
        <ele>234.9</ele>
        <time>2018-12-30T12:42:29Z</time>
      </trkpt>
      <trkpt lat="39.8423970" lon="2.7991800">
        <ele>235.1</ele>
        <time>2018-12-30T12:42:30Z</time>
      </trkpt>
      <trkpt lat="39.8422780" lon="2.7992020">
        <ele>238.9</ele>
        <time>2018-12-30T12:42:31Z</time>
      </trkpt>
      <trkpt lat="39.8421540" lon="2.7992120">
        <ele>239.4</ele>
        <time>2018-12-30T12:42:32Z</time>
      </trkpt>
      <trkpt lat="39.8420310" lon="2.7992100">
        <ele>239.7</ele>
        <time>2018-12-30T12:42:33Z</time>
      </trkpt>
      <trkpt lat="39.8419080" lon="2.7992000">
        <ele>239.9</ele>
        <time>2018-12-30T12:42:34Z</time>
      </trkpt>
      <trkpt lat="39.8417890" lon="2.7991960">
        <ele>236.1</ele>
        <time>2018-12-30T12:42:35Z</time>
      </trkpt>
      <trkpt lat="39.8416740" lon="2.7991960">
        <ele>236.3</ele>
        <time>2018-12-30T12:42:36Z</time>
      </trkpt>
      <trkpt lat="39.8415580" lon="2.7992100">
        <ele>240.2</ele>
        <time>2018-12-30T12:42:37Z</time>
      </trkpt>
      <trkpt lat="39.8414410" lon="2.7992370">
        <ele>239.7</ele>
        <time>2018-12-30T12:42:38Z</time>
      </trkpt>
      <trkpt lat="39.8413230" lon="2.7992780">
        <ele>242.6</ele>
        <time>2018-12-30T12:42:39Z</time>
      </trkpt>
      <trkpt lat="39.8412080" lon="2.7993190">
        <ele>245.5</ele>
        <time>2018-12-30T12:42:40Z</time>
      </trkpt>
      <trkpt lat="39.8410960" lon="2.7993520">
        <ele>248.5</ele>
        <time>2018-12-30T12:42:41Z</time>
      </trkpt>
      <trkpt lat="39.8409870" lon="2.7993770">
        <ele>252.0</ele>
        <time>2018-12-30T12:42:42Z</time>
      </trkpt>
      <trkpt lat="39.8408790" lon="2.7993960">
        <ele>251.9</ele>
        <time>2018-12-30T12:42:43Z</time>
      </trkpt>
      <trkpt lat="39.8407720" lon="2.7994190">
        <ele>255.0</ele>
        <time>2018-12-30T12:42:44Z</time>
      </trkpt>
      <trkpt lat="39.8406710" lon="2.7994440">
        <ele>254.3</ele>
        <time>2018-12-30T12:42:45Z</time>
      </trkpt>
      <trkpt lat="39.8405820" lon="2.7994740">
        <ele>256.8</ele>
        <time>2018-12-30T12:42:46Z</time>
      </trkpt>
      <trkpt lat="39.8405010" lon="2.7995020">
        <ele>258.5</ele>
        <time>2018-12-30T12:42:47Z</time>
      </trkpt>
      <trkpt lat="39.8404270" lon="2.7995300">
        <ele>257.3</ele>
        <time>2018-12-30T12:42:48Z</time>
      </trkpt>
      <trkpt lat="39.8403610" lon="2.7995590">
        <ele>259.0</ele>
        <time>2018-12-30T12:42:49Z</time>
      </trkpt>
      <trkpt lat="39.8403030" lon="2.7995900">
        <ele>260.3</ele>
        <time>2018-12-30T12:42:50Z</time>
      </trkpt>
      <trkpt lat="39.8402510" lon="2.7996210">
        <ele>259.6</ele>
        <time>2018-12-30T12:42:51Z</time>
      </trkpt>
      <trkpt lat="39.8402000" lon="2.7996520">
        <ele>261.1</ele>
        <time>2018-12-30T12:42:52Z</time>
      </trkpt>
      <trkpt lat="39.8401520" lon="2.7996800">
        <ele>263.0</ele>
        <time>2018-12-30T12:42:53Z</time>
      </trkpt>
      <trkpt lat="39.8401150" lon="2.7997090">
        <ele>262.5</ele>
        <time>2018-12-30T12:42:54Z</time>
      </trkpt>
      <trkpt lat="39.8400900" lon="2.7997360">
        <ele>264.5</ele>
        <time>2018-12-30T12:42:55Z</time>
      </trkpt>
      <trkpt lat="39.8400710" lon="2.7997610">
        <ele>266.4</ele>
        <time>2018-12-30T12:42:56Z</time>
      </trkpt>
      <trkpt lat="39.8400480" lon="2.7997810">
        <ele>266.2</ele>
        <time>2018-12-30T12:42:57Z</time>
      </trkpt>
      <trkpt lat="39.8400190" lon="2.7997950">
        <ele>265.8</ele>
        <time>2018-12-30T12:42:58Z</time>
      </trkpt>
      <trkpt lat="39.8399950" lon="2.7998020">
        <ele>267.8</ele>
        <time>2018-12-30T12:42:59Z</time>
      </trkpt>
      <trkpt lat="39.8399840" lon="2.7998050">
        <ele>267.6</ele>
        <time>2018-12-30T12:43:00Z</time>
      </trkpt>
      <trkpt lat="39.8399800" lon="2.7998020">
        <ele>267.3</ele>
        <time>2018-12-30T12:43:01Z</time>
      </trkpt>
      <trkpt lat="39.8398740" lon="2.7996480">
        <ele>256.0</ele>
        <time>2018-12-30T12:43:02Z</time>
      </trkpt>
      <trkpt lat="39.8397370" lon="2.7994730">
        <ele>241.9</ele>
        <time>2018-12-30T12:43:03Z</time>
      </trkpt>
      <trkpt lat="39.8395800" lon="2.7992830">
        <ele>226.4</ele>
        <time>2018-12-30T12:43:04Z</time>
      </trkpt>
      <trkpt lat="39.8395120" lon="2.7992290">
        <ele>219.2</ele>
        <time>2018-12-30T12:43:05Z</time>
      </trkpt>
      <trkpt lat="39.8394280" lon="2.7991670">
        <ele>215.0</ele>
        <time>2018-12-30T12:43:06Z</time>
      </trkpt>
      <trkpt lat="39.8392890" lon="2.7990660">
        <ele>203.2</ele>
        <time>2018-12-30T12:43:07Z</time>
      </trkpt>
      <trkpt lat="39.8391460" lon="2.7989380">
        <ele>190.4</ele>
        <time>2018-12-30T12:43:08Z</time>
      </trkpt>
      <trkpt lat="39.8390320" lon="2.7987950">
        <ele>185.9</ele>
        <time>2018-12-30T12:43:09Z</time>
      </trkpt>
      <trkpt lat="39.8389950" lon="2.7986710">
        <ele>181.2</ele>
        <time>2018-12-30T12:43:10Z</time>
      </trkpt>
      <trkpt lat="39.8389650" lon="2.7985500">
        <ele>174.0</ele>
        <time>2018-12-30T12:43:11Z</time>
      </trkpt>
      <trkpt lat="39.8389430" lon="2.7984390">
        <ele>170.1</ele>
        <time>2018-12-30T12:43:12Z</time>
      </trkpt>
      <trkpt lat="39.8389180" lon="2.7983320">
        <ele>165.4</ele>
        <time>2018-12-30T12:43:13Z</time>
      </trkpt>
      <trkpt lat="39.8389080" lon="2.7982320">
        <ele>162.0</ele>
        <time>2018-12-30T12:43:14Z</time>
      </trkpt>
      <trkpt lat="39.8389040" lon="2.7981340">
        <ele>158.9</ele>
        <time>2018-12-30T12:43:15Z</time>
      </trkpt>
      <trkpt lat="39.8389140" lon="2.7980410">
        <ele>156.2</ele>
        <time>2018-12-30T12:43:16Z</time>
      </trkpt>
      <trkpt lat="39.8389630" lon="2.7979570">
        <ele>151.8</ele>
        <time>2018-12-30T12:43:17Z</time>
      </trkpt>
      <trkpt lat="39.8390120" lon="2.7978760">
        <ele>149.3</ele>
        <time>2018-12-30T12:43:18Z</time>
      </trkpt>
      <trkpt lat="39.8390590" lon="2.7977870">
        <ele>146.3</ele>
        <time>2018-12-30T12:43:19Z</time>
      </trkpt>
      <trkpt lat="39.8390760" lon="2.7976870">
        <ele>145.9</ele>
        <time>2018-12-30T12:43:20Z</time>
      </trkpt>
      <trkpt lat="39.8391030" lon="2.7975840">
        <ele>145.0</ele>
        <time>2018-12-30T12:43:21Z</time>
      </trkpt>
      <trkpt lat="39.8391370" lon="2.7974800">
        <ele>144.4</ele>
        <time>2018-12-30T12:43:22Z</time>
      </trkpt>
      <trkpt lat="39.8391550" lon="2.7973770">
        <ele>146.3</ele>
        <time>2018-12-30T12:43:23Z</time>
      </trkpt>
      <trkpt lat="39.8391510" lon="2.7972800">
        <ele>147.9</ele>
        <time>2018-12-30T12:43:24Z</time>
      </trkpt>
      <trkpt lat="39.8391480" lon="2.7971930">
        <ele>149.8</ele>
        <time>2018-12-30T12:43:25Z</time>
      </trkpt>
      <trkpt lat="39.8391590" lon="2.7971220">
        <ele>150.6</ele>
        <time>2018-12-30T12:43:26Z</time>
      </trkpt>
      <trkpt lat="39.8391900" lon="2.7970540">
        <ele>150.2</ele>
        <time>2018-12-30T12:43:27Z</time>
      </trkpt>
      <trkpt lat="39.8392230" lon="2.7969860">
        <ele>151.1</ele>
        <time>2018-12-30T12:43:28Z</time>
      </trkpt>
      <trkpt lat="39.8392740" lon="2.7969150">
        <ele>151.9</ele>
        <time>2018-12-30T12:43:29Z</time>
      </trkpt>
      <trkpt lat="39.8393390" lon="2.7968450">
        <ele>150.8</ele>
        <time>2018-12-30T12:43:30Z</time>
      </trkpt>
      <trkpt lat="39.8394170" lon="2.7967760">
        <ele>149.5</ele>
        <time>2018-12-30T12:43:31Z</time>
      </trkpt>
      <trkpt lat="39.8394940" lon="2.7967040">
        <ele>148.2</ele>
        <time>2018-12-30T12:43:32Z</time>
      </trkpt>
      <trkpt lat="39.8395700" lon="2.7966280">
        <ele>146.9</ele>
        <time>2018-12-30T12:43:33Z</time>
      </trkpt>
      <trkpt lat="39.8396440" lon="2.7965510">
        <ele>145.6</ele>
        <time>2018-12-30T12:43:34Z</time>
      </trkpt>
      <trkpt lat="39.8397070" lon="2.7964750">
        <ele>144.2</ele>
        <time>2018-12-30T12:43:35Z</time>
      </trkpt>
      <trkpt lat="39.8397770" lon="2.7963950">
        <ele>142.9</ele>
        <time>2018-12-30T12:43:36Z</time>
      </trkpt>
      <trkpt lat="39.8398510" lon="2.7963020">
        <ele>141.1</ele>
        <time>2018-12-30T12:43:37Z</time>
      </trkpt>
      <trkpt lat="39.8399270" lon="2.7961980">
        <ele>139.4</ele>
        <time>2018-12-30T12:43:38Z</time>
      </trkpt>
      <trkpt lat="39.8399940" lon="2.7960850">
        <ele>137.2</ele>
        <time>2018-12-30T12:43:39Z</time>
      </trkpt>
      <trkpt lat="39.8400550" lon="2.7959720">
        <ele>135.3</ele>
        <time>2018-12-30T12:43:40Z</time>
      </trkpt>
      <trkpt lat="39.8401250" lon="2.7958650">
        <ele>133.1</ele>
        <time>2018-12-30T12:43:41Z</time>
      </trkpt>
      <trkpt lat="39.8401960" lon="2.7957730">
        <ele>131.4</ele>
        <time>2018-12-30T12:43:42Z</time>
      </trkpt>
      <trkpt lat="39.8402740" lon="2.7956930">
        <ele>129.8</ele>
        <time>2018-12-30T12:43:43Z</time>
      </trkpt>
      <trkpt lat="39.8403500" lon="2.7956220">
        <ele>128.3</ele>
        <time>2018-12-30T12:43:44Z</time>
      </trkpt>
      <trkpt lat="39.8404270" lon="2.7955630">
        <ele>126.8</ele>
        <time>2018-12-30T12:43:45Z</time>
      </trkpt>
      <trkpt lat="39.8405010" lon="2.7955230">
        <ele>125.5</ele>
        <time>2018-12-30T12:43:46Z</time>
      </trkpt>
      <trkpt lat="39.8405730" lon="2.7954940">
        <ele>124.4</ele>
        <time>2018-12-30T12:43:47Z</time>
      </trkpt>
      <trkpt lat="39.8406390" lon="2.7954730">
        <ele>123.5</ele>
        <time>2018-12-30T12:43:48Z</time>
      </trkpt>
      <trkpt lat="39.8407260" lon="2.7954710">
        <ele>122.3</ele>
        <time>2018-12-30T12:43:49Z</time>
      </trkpt>
      <trkpt lat="39.8408180" lon="2.7954820">
        <ele>121.0</ele>
        <time>2018-12-30T12:43:50Z</time>
      </trkpt>
      <trkpt lat="39.8409270" lon="2.7954920">
        <ele>119.6</ele>
        <time>2018-12-30T12:43:51Z</time>
      </trkpt>
      <trkpt lat="39.8410220" lon="2.7954880">
        <ele>118.2</ele>
        <time>2018-12-30T12:43:52Z</time>
      </trkpt>
      <trkpt lat="39.8411210" lon="2.7954680">
        <ele>116.8</ele>
        <time>2018-12-30T12:43:53Z</time>
      </trkpt>
      <trkpt lat="39.8412180" lon="2.7954430">
        <ele>115.3</ele>
        <time>2018-12-30T12:43:54Z</time>
      </trkpt>
      <trkpt lat="39.8413190" lon="2.7954060">
        <ele>114.6</ele>
        <time>2018-12-30T12:43:55Z</time>
      </trkpt>
      <trkpt lat="39.8414190" lon="2.7953690">
        <ele>113.9</ele>
        <time>2018-12-30T12:43:56Z</time>
      </trkpt>
      <trkpt lat="39.8415150" lon="2.7953370">
        <ele>113.1</ele>
        <time>2018-12-30T12:43:57Z</time>
      </trkpt>
      <trkpt lat="39.8416080" lon="2.7953170">
        <ele>112.6</ele>
        <time>2018-12-30T12:43:58Z</time>
      </trkpt>
      <trkpt lat="39.8417010" lon="2.7953040">
        <ele>112.1</ele>
        <time>2018-12-30T12:43:59Z</time>
      </trkpt>
      <trkpt lat="39.8417970" lon="2.7952990">
        <ele>111.6</ele>
        <time>2018-12-30T12:44:00Z</time>
      </trkpt>
      <trkpt lat="39.8419020" lon="2.7953030">
        <ele>111.1</ele>
        <time>2018-12-30T12:44:01Z</time>
      </trkpt>
      <trkpt lat="39.8420040" lon="2.7953150">
        <ele>110.6</ele>
        <time>2018-12-30T12:44:02Z</time>
      </trkpt>
      <trkpt lat="39.8421030" lon="2.7953340">
        <ele>110.1</ele>
        <time>2018-12-30T12:44:03Z</time>
      </trkpt>
      <trkpt lat="39.8421930" lon="2.7953600">
        <ele>109.5</ele>
        <time>2018-12-30T12:44:04Z</time>
      </trkpt>
      <trkpt lat="39.8422770" lon="2.7954140">
        <ele>109.0</ele>
        <time>2018-12-30T12:44:05Z</time>
      </trkpt>
      <trkpt lat="39.8423470" lon="2.7955040">
        <ele>108.4</ele>
        <time>2018-12-30T12:44:06Z</time>
      </trkpt>
      <trkpt lat="39.8424100" lon="2.7956110">
        <ele>107.8</ele>
        <time>2018-12-30T12:44:07Z</time>
      </trkpt>
      <trkpt lat="39.8424750" lon="2.7957130">
        <ele>106.9</ele>
        <time>2018-12-30T12:44:08Z</time>
      </trkpt>
      <trkpt lat="39.8425440" lon="2.7957890">
        <ele>106.0</ele>
        <time>2018-12-30T12:44:09Z</time>
      </trkpt>
      <trkpt lat="39.8426150" lon="2.7958460">
        <ele>105.0</ele>
        <time>2018-12-30T12:44:10Z</time>
      </trkpt>
      <trkpt lat="39.8426820" lon="2.7958750">
        <ele>104.1</ele>
        <time>2018-12-30T12:44:11Z</time>
      </trkpt>
      <trkpt lat="39.8427470" lon="2.7958760">
        <ele>103.2</ele>
        <time>2018-12-30T12:44:12Z</time>
      </trkpt>
      <trkpt lat="39.8427990" lon="2.7958480">
        <ele>102.6</ele>
        <time>2018-12-30T12:44:13Z</time>
      </trkpt>
      <trkpt lat="39.8428380" lon="2.7957910">
        <ele>102.0</ele>
        <time>2018-12-30T12:44:14Z</time>
      </trkpt>
      <trkpt lat="39.8428740" lon="2.7957210">
        <ele>101.3</ele>
        <time>2018-12-30T12:44:15Z</time>
      </trkpt>
      <trkpt lat="39.8429130" lon="2.7956410">
        <ele>100.5</ele>
        <time>2018-12-30T12:44:16Z</time>
      </trkpt>
      <trkpt lat="39.8429610" lon="2.7955620">
        <ele>100.0</ele>
        <time>2018-12-30T12:44:17Z</time>
      </trkpt>
      <trkpt lat="39.8430120" lon="2.7954880">
        <ele>99.6</ele>
        <time>2018-12-30T12:44:18Z</time>
      </trkpt>
      <trkpt lat="39.8430670" lon="2.7954300">
        <ele>99.2</ele>
        <time>2018-12-30T12:44:19Z</time>
      </trkpt>
      <trkpt lat="39.8431290" lon="2.7953910">
        <ele>98.8</ele>
        <time>2018-12-30T12:44:20Z</time>
      </trkpt>
      <trkpt lat="39.8431940" lon="2.7953660">
        <ele>98.5</ele>
        <time>2018-12-30T12:44:21Z</time>
      </trkpt>
      <trkpt lat="39.8432580" lon="2.7953500">
        <ele>98.2</ele>
        <time>2018-12-30T12:44:22Z</time>
      </trkpt>
      <trkpt lat="39.8433200" lon="2.7953430">
        <ele>97.9</ele>
        <time>2018-12-30T12:44:23Z</time>
      </trkpt>
      <trkpt lat="39.8433890" lon="2.7953460">
        <ele>97.6</ele>
        <time>2018-12-30T12:44:24Z</time>
      </trkpt>
      <trkpt lat="39.8434700" lon="2.7953540">
        <ele>97.2</ele>
        <time>2018-12-30T12:44:25Z</time>
      </trkpt>
      <trkpt lat="39.8435740" lon="2.7953680">
        <ele>96.6</ele>
        <time>2018-12-30T12:44:26Z</time>
      </trkpt>
      <trkpt lat="39.8436840" lon="2.7953790">
        <ele>95.9</ele>
        <time>2018-12-30T12:44:27Z</time>
      </trkpt>
      <trkpt lat="39.8437990" lon="2.7953850">
        <ele>95.2</ele>
        <time>2018-12-30T12:44:28Z</time>
      </trkpt>
      <trkpt lat="39.8439000" lon="2.7953680">
        <ele>94.8</ele>
        <time>2018-12-30T12:44:29Z</time>
      </trkpt>
      <trkpt lat="39.8439980" lon="2.7953170">
        <ele>94.3</ele>
        <time>2018-12-30T12:44:30Z</time>
      </trkpt>
      <trkpt lat="39.8440840" lon="2.7952420">
        <ele>93.7</ele>
        <time>2018-12-30T12:44:31Z</time>
      </trkpt>
      <trkpt lat="39.8441580" lon="2.7951510">
        <ele>93.1</ele>
        <time>2018-12-30T12:44:32Z</time>
      </trkpt>
      <trkpt lat="39.8442120" lon="2.7950590">
        <ele>92.3</ele>
        <time>2018-12-30T12:44:33Z</time>
      </trkpt>
      <trkpt lat="39.8442480" lon="2.7949540">
        <ele>91.7</ele>
        <time>2018-12-30T12:44:34Z</time>
      </trkpt>
      <trkpt lat="39.8442720" lon="2.7948400">
        <ele>91.1</ele>
        <time>2018-12-30T12:44:35Z</time>
      </trkpt>
      <trkpt lat="39.8442950" lon="2.7947260">
        <ele>90.2</ele>
        <time>2018-12-30T12:44:36Z</time>
      </trkpt>
      <trkpt lat="39.8443220" lon="2.7946100">
        <ele>89.5</ele>
        <time>2018-12-30T12:44:37Z</time>
      </trkpt>
      <trkpt lat="39.8443550" lon="2.7944980">
        <ele>89.2</ele>
        <time>2018-12-30T12:44:38Z</time>
      </trkpt>
      <trkpt lat="39.8443890" lon="2.7943890">
        <ele>88.9</ele>
        <time>2018-12-30T12:44:39Z</time>
      </trkpt>
      <trkpt lat="39.8444270" lon="2.7942940">
        <ele>88.6</ele>
        <time>2018-12-30T12:44:40Z</time>
      </trkpt>
      <trkpt lat="39.8444640" lon="2.7942130">
        <ele>88.4</ele>
        <time>2018-12-30T12:44:41Z</time>
      </trkpt>
      <trkpt lat="39.8445010" lon="2.7941610">
        <ele>88.3</ele>
        <time>2018-12-30T12:44:42Z</time>
      </trkpt>
      <trkpt lat="39.8445630" lon="2.7941450">
        <ele>88.1</ele>
        <time>2018-12-30T12:44:43Z</time>
      </trkpt>
      <trkpt lat="39.8446210" lon="2.7941720">
        <ele>87.8</ele>
        <time>2018-12-30T12:44:44Z</time>
      </trkpt>
      <trkpt lat="39.8446750" lon="2.7942250">
        <ele>87.5</ele>
        <time>2018-12-30T12:44:45Z</time>
      </trkpt>
      <trkpt lat="39.8446990" lon="2.7942950">
        <ele>87.1</ele>
        <time>2018-12-30T12:44:46Z</time>
      </trkpt>
      <trkpt lat="39.8447230" lon="2.7943700">
        <ele>86.7</ele>
        <time>2018-12-30T12:44:47Z</time>
      </trkpt>
      <trkpt lat="39.8447480" lon="2.7944480">
        <ele>86.2</ele>
        <time>2018-12-30T12:44:48Z</time>
      </trkpt>
      <trkpt lat="39.8447740" lon="2.7945270">
        <ele>85.7</ele>
        <time>2018-12-30T12:44:49Z</time>
      </trkpt>
      <trkpt lat="39.8448040" lon="2.7946100">
        <ele>85.2</ele>
        <time>2018-12-30T12:44:50Z</time>
      </trkpt>
      <trkpt lat="39.8448370" lon="2.7946930">
        <ele>84.6</ele>
        <time>2018-12-30T12:44:51Z</time>
      </trkpt>
      <trkpt lat="39.8448750" lon="2.7947810">
        <ele>84.1</ele>
        <time>2018-12-30T12:44:52Z</time>
      </trkpt>
      <trkpt lat="39.8449140" lon="2.7948730">
        <ele>83.5</ele>
        <time>2018-12-30T12:44:53Z</time>
      </trkpt>
      <trkpt lat="39.8449560" lon="2.7949720">
        <ele>82.9</ele>
        <time>2018-12-30T12:44:54Z</time>
      </trkpt>
      <trkpt lat="39.8449970" lon="2.7950740">
        <ele>82.4</ele>
        <time>2018-12-30T12:44:55Z</time>
      </trkpt>
      <trkpt lat="39.8450370" lon="2.7951790">
        <ele>81.9</ele>
        <time>2018-12-30T12:44:56Z</time>
      </trkpt>
      <trkpt lat="39.8450730" lon="2.7952870">
        <ele>81.4</ele>
        <time>2018-12-30T12:44:57Z</time>
      </trkpt>
      <trkpt lat="39.8451060" lon="2.7953940">
        <ele>81.0</ele>
        <time>2018-12-30T12:44:58Z</time>
      </trkpt>
      <trkpt lat="39.8451320" lon="2.7955000">
        <ele>80.5</ele>
        <time>2018-12-30T12:44:59Z</time>
      </trkpt>
      <trkpt lat="39.8451530" lon="2.7956060">
        <ele>80.0</ele>
        <time>2018-12-30T12:45:00Z</time>
      </trkpt>
      <trkpt lat="39.8451680" lon="2.7957180">
        <ele>79.5</ele>
        <time>2018-12-30T12:45:01Z</time>
      </trkpt>
      <trkpt lat="39.8451790" lon="2.7958310">
        <ele>78.9</ele>
        <time>2018-12-30T12:45:02Z</time>
      </trkpt>
      <trkpt lat="39.8451890" lon="2.7959420">
        <ele>78.4</ele>
        <time>2018-12-30T12:45:03Z</time>
      </trkpt>
      <trkpt lat="39.8452000" lon="2.7960470">
        <ele>77.9</ele>
        <time>2018-12-30T12:45:04Z</time>
      </trkpt>
      <trkpt lat="39.8452140" lon="2.7961500">
        <ele>77.3</ele>
        <time>2018-12-30T12:45:05Z</time>
      </trkpt>
      <trkpt lat="39.8452350" lon="2.7962500">
        <ele>76.8</ele>
        <time>2018-12-30T12:45:06Z</time>
      </trkpt>
      <trkpt lat="39.8452680" lon="2.7963500">
        <ele>76.2</ele>
        <time>2018-12-30T12:45:07Z</time>
      </trkpt>
      <trkpt lat="39.8453130" lon="2.7964470">
        <ele>75.8</ele>
        <time>2018-12-30T12:45:08Z</time>
      </trkpt>
      <trkpt lat="39.8453660" lon="2.7965390">
        <ele>75.2</ele>
        <time>2018-12-30T12:45:09Z</time>
      </trkpt>
      <trkpt lat="39.8454270" lon="2.7966240">
        <ele>74.5</ele>
        <time>2018-12-30T12:45:10Z</time>
      </trkpt>
      <trkpt lat="39.8454930" lon="2.7967020">
        <ele>73.8</ele>
        <time>2018-12-30T12:45:11Z</time>
      </trkpt>
      <trkpt lat="39.8455650" lon="2.7967710">
        <ele>73.2</ele>
        <time>2018-12-30T12:45:12Z</time>
      </trkpt>
      <trkpt lat="39.8456400" lon="2.7968300">
        <ele>72.5</ele>
        <time>2018-12-30T12:45:13Z</time>
      </trkpt>
      <trkpt lat="39.8457190" lon="2.7968820">
        <ele>72.0</ele>
        <time>2018-12-30T12:45:14Z</time>
      </trkpt>
      <trkpt lat="39.8458010" lon="2.7969280">
        <ele>71.5</ele>
        <time>2018-12-30T12:45:15Z</time>
      </trkpt>
      <trkpt lat="39.8458840" lon="2.7969650">
        <ele>71.1</ele>
        <time>2018-12-30T12:45:16Z</time>
      </trkpt>
      <trkpt lat="39.8459690" lon="2.7969940">
        <ele>70.7</ele>
        <time>2018-12-30T12:45:17Z</time>
      </trkpt>
      <trkpt lat="39.8460550" lon="2.7970150">
        <ele>70.3</ele>
        <time>2018-12-30T12:45:18Z</time>
      </trkpt>
      <trkpt lat="39.8461400" lon="2.7970340">
        <ele>70.0</ele>
        <time>2018-12-30T12:45:19Z</time>
      </trkpt>
      <trkpt lat="39.8462280" lon="2.7970480">
        <ele>69.6</ele>
        <time>2018-12-30T12:45:20Z</time>
      </trkpt>
      <trkpt lat="39.8463180" lon="2.7970600">
        <ele>69.2</ele>
        <time>2018-12-30T12:45:21Z</time>
      </trkpt>
      <trkpt lat="39.8464090" lon="2.7970690">
        <ele>68.7</ele>
        <time>2018-12-30T12:45:22Z</time>
      </trkpt>
      <trkpt lat="39.8464950" lon="2.7970860">
        <ele>68.2</ele>
        <time>2018-12-30T12:45:23Z</time>
      </trkpt>
      <trkpt lat="39.8465780" lon="2.7971060">
        <ele>67.7</ele>
        <time>2018-12-30T12:45:24Z</time>
      </trkpt>
      <trkpt lat="39.8466590" lon="2.7971330">
        <ele>67.1</ele>
        <time>2018-12-30T12:45:25Z</time>
      </trkpt>
      <trkpt lat="39.8467390" lon="2.7971620">
        <ele>66.5</ele>
        <time>2018-12-30T12:45:26Z</time>
      </trkpt>
      <trkpt lat="39.8468130" lon="2.7971960">
        <ele>65.7</ele>
        <time>2018-12-30T12:45:27Z</time>
      </trkpt>
      <trkpt lat="39.8468820" lon="2.7972340">
        <ele>65.0</ele>
        <time>2018-12-30T12:45:28Z</time>
      </trkpt>
      <trkpt lat="39.8469410" lon="2.7972870">
        <ele>64.2</ele>
        <time>2018-12-30T12:45:29Z</time>
      </trkpt>
      <trkpt lat="39.8469940" lon="2.7973420">
        <ele>63.5</ele>
        <time>2018-12-30T12:45:30Z</time>
      </trkpt>
      <trkpt lat="39.8470440" lon="2.7973970">
        <ele>62.8</ele>
        <time>2018-12-30T12:45:31Z</time>
      </trkpt>
      <trkpt lat="39.8470960" lon="2.7974410">
        <ele>62.2</ele>
        <time>2018-12-30T12:45:32Z</time>
      </trkpt>
      <trkpt lat="39.8471450" lon="2.7974840">
        <ele>61.7</ele>
        <time>2018-12-30T12:45:33Z</time>
      </trkpt>
      <trkpt lat="39.8471870" lon="2.7975260">
        <ele>61.2</ele>
        <time>2018-12-30T12:45:34Z</time>
      </trkpt>
      <trkpt lat="39.8472280" lon="2.7975680">
        <ele>60.8</ele>
        <time>2018-12-30T12:45:35Z</time>
      </trkpt>
      <trkpt lat="39.8472660" lon="2.7976090">
        <ele>60.5</ele>
        <time>2018-12-30T12:45:36Z</time>
      </trkpt>
      <trkpt lat="39.8473060" lon="2.7976500">
        <ele>60.2</ele>
        <time>2018-12-30T12:45:37Z</time>
      </trkpt>
      <trkpt lat="39.8473430" lon="2.7976900">
        <ele>60.2</ele>
        <time>2018-12-30T12:45:38Z</time>
      </trkpt>
      <trkpt lat="39.8473820" lon="2.7977290">
        <ele>60.2</ele>
        <time>2018-12-30T12:45:39Z</time>
      </trkpt>
      <trkpt lat="39.8474190" lon="2.7977700">
        <ele>60.4</ele>
        <time>2018-12-30T12:45:40Z</time>
      </trkpt>
      <trkpt lat="39.8474590" lon="2.7978110">
        <ele>60.4</ele>
        <time>2018-12-30T12:45:41Z</time>
      </trkpt>
      <trkpt lat="39.8475000" lon="2.7978510">
        <ele>53.4</ele>
        <time>2018-12-30T12:45:42Z</time>
      </trkpt>
      <trkpt lat="39.8475410" lon="2.7978890">
        <ele>53.4</ele>
        <time>2018-12-30T12:45:43Z</time>
      </trkpt>
      <trkpt lat="39.8495850" lon="2.7995150">
        <ele>32.4</ele>
        <time>2018-12-30T13:01:49Z</time>
      </trkpt>
      <trkpt lat="39.8495560" lon="2.7995080">
        <ele>32.7</ele>
        <time>2018-12-30T13:01:50Z</time>
      </trkpt>
      <trkpt lat="39.8495220" lon="2.7994970">
        <ele>33.2</ele>
        <time>2018-12-30T13:01:51Z</time>
      </trkpt>
      <trkpt lat="39.8494930" lon="2.7994850">
        <ele>33.6</ele>
        <time>2018-12-30T13:01:52Z</time>
      </trkpt>
      <trkpt lat="39.8494700" lon="2.7994740">
        <ele>33.9</ele>
        <time>2018-12-30T13:01:53Z</time>
      </trkpt>
      <trkpt lat="39.8494510" lon="2.7994670">
        <ele>34.1</ele>
        <time>2018-12-30T13:01:54Z</time>
      </trkpt>
      <trkpt lat="39.8494330" lon="2.7994620">
        <ele>34.4</ele>
        <time>2018-12-30T13:01:55Z</time>
      </trkpt>
      <trkpt lat="39.8494150" lon="2.7994580">
        <ele>34.7</ele>
        <time>2018-12-30T13:01:56Z</time>
      </trkpt>
      <trkpt lat="39.8493960" lon="2.7994520">
        <ele>34.9</ele>
        <time>2018-12-30T13:01:57Z</time>
      </trkpt>
      <trkpt lat="39.8493650" lon="2.7994450">
        <ele>35.3</ele>
        <time>2018-12-30T13:01:58Z</time>
      </trkpt>
      <trkpt lat="39.8493310" lon="2.7994390">
        <ele>35.7</ele>
        <time>2018-12-30T13:01:59Z</time>
      </trkpt>
      <trkpt lat="39.8492940" lon="2.7994270">
        <ele>36.2</ele>
        <time>2018-12-30T13:02:00Z</time>
      </trkpt>
      <trkpt lat="39.8492670" lon="2.7994070">
        <ele>36.6</ele>
        <time>2018-12-30T13:02:01Z</time>
      </trkpt>
      <trkpt lat="39.8492400" lon="2.7993860">
        <ele>37.0</ele>
        <time>2018-12-30T13:02:02Z</time>
      </trkpt>
      <trkpt lat="39.8492030" lon="2.7993660">
        <ele>37.4</ele>
        <time>2018-12-30T13:02:03Z</time>
      </trkpt>
      <trkpt lat="39.8491640" lon="2.7993460">
        <ele>37.9</ele>
        <time>2018-12-30T13:02:04Z</time>
      </trkpt>
      <trkpt lat="39.8491260" lon="2.7993220">
        <ele>38.3</ele>
        <time>2018-12-30T13:02:05Z</time>
      </trkpt>
      <trkpt lat="39.8490970" lon="2.7992960">
        <ele>38.7</ele>
        <time>2018-12-30T13:02:06Z</time>
      </trkpt>
      <trkpt lat="39.8490700" lon="2.7992720">
        <ele>39.1</ele>
        <time>2018-12-30T13:02:07Z</time>
      </trkpt>
      <trkpt lat="39.8490400" lon="2.7992480">
        <ele>39.4</ele>
        <time>2018-12-30T13:02:08Z</time>
      </trkpt>
      <trkpt lat="39.8490110" lon="2.7992260">
        <ele>39.8</ele>
        <time>2018-12-30T13:02:09Z</time>
      </trkpt>
      <trkpt lat="39.8489800" lon="2.7992060">
        <ele>40.2</ele>
        <time>2018-12-30T13:02:10Z</time>
      </trkpt>
      <trkpt lat="39.8489500" lon="2.7991870">
        <ele>40.6</ele>
        <time>2018-12-30T13:02:11Z</time>
      </trkpt>
      <trkpt lat="39.8489220" lon="2.7991660">
        <ele>41.0</ele>
        <time>2018-12-30T13:02:12Z</time>
      </trkpt>
      <trkpt lat="39.8488990" lon="2.7991400">
        <ele>41.3</ele>
        <time>2018-12-30T13:02:13Z</time>
      </trkpt>
      <trkpt lat="39.8488790" lon="2.7991140">
        <ele>41.7</ele>
        <time>2018-12-30T13:02:14Z</time>
      </trkpt>
      <trkpt lat="39.8488610" lon="2.7990920">
        <ele>41.9</ele>
        <time>2018-12-30T13:02:15Z</time>
      </trkpt>
      <trkpt lat="39.8488410" lon="2.7990740">
        <ele>42.2</ele>
        <time>2018-12-30T13:02:16Z</time>
      </trkpt>
      <trkpt lat="39.8488220" lon="2.7990580">
        <ele>42.4</ele>
        <time>2018-12-30T13:02:17Z</time>
      </trkpt>
      <trkpt lat="39.8488020" lon="2.7990430">
        <ele>42.7</ele>
        <time>2018-12-30T13:02:18Z</time>
      </trkpt>
      <trkpt lat="39.8487830" lon="2.7990260">
        <ele>43.0</ele>
        <time>2018-12-30T13:02:19Z</time>
      </trkpt>
      <trkpt lat="39.8487640" lon="2.7990080">
        <ele>43.2</ele>
        <time>2018-12-30T13:02:20Z</time>
      </trkpt>
      <trkpt lat="39.8487460" lon="2.7989890">
        <ele>43.5</ele>
        <time>2018-12-30T13:02:21Z</time>
      </trkpt>
      <trkpt lat="39.8487280" lon="2.7989690">
        <ele>43.7</ele>
        <time>2018-12-30T13:02:22Z</time>
      </trkpt>
      <trkpt lat="39.8487130" lon="2.7989500">
        <ele>44.0</ele>
        <time>2018-12-30T13:02:23Z</time>
      </trkpt>
      <trkpt lat="39.8487000" lon="2.7989330">
        <ele>44.1</ele>
        <time>2018-12-30T13:02:24Z</time>
      </trkpt>
      <trkpt lat="39.8486880" lon="2.7989170">
        <ele>44.3</ele>
        <time>2018-12-30T13:02:25Z</time>
      </trkpt>
      <trkpt lat="39.8486740" lon="2.7989030">
        <ele>44.5</ele>
        <time>2018-12-30T13:02:26Z</time>
      </trkpt>
      <trkpt lat="39.8486600" lon="2.7988930">
        <ele>44.6</ele>
        <time>2018-12-30T13:02:27Z</time>
      </trkpt>
      <trkpt lat="39.8486430" lon="2.7988850">
        <ele>44.8</ele>
        <time>2018-12-30T13:02:28Z</time>
      </trkpt>
      <trkpt lat="39.8486200" lon="2.7988770">
        <ele>45.0</ele>
        <time>2018-12-30T13:02:29Z</time>
      </trkpt>
      <trkpt lat="39.8485900" lon="2.7988660">
        <ele>45.3</ele>
        <time>2018-12-30T13:02:30Z</time>
      </trkpt>
      <trkpt lat="39.8485590" lon="2.7988530">
        <ele>45.6</ele>
        <time>2018-12-30T13:02:31Z</time>
      </trkpt>
      <trkpt lat="39.8485290" lon="2.7988410">
        <ele>45.9</ele>
        <time>2018-12-30T13:02:32Z</time>
      </trkpt>
      <trkpt lat="39.8484960" lon="2.7988320">
        <ele>46.2</ele>
        <time>2018-12-30T13:02:33Z</time>
      </trkpt>
      <trkpt lat="39.8484640" lon="2.7988220">
        <ele>46.5</ele>
        <time>2018-12-30T13:02:34Z</time>
      </trkpt>
      <trkpt lat="39.8484320" lon="2.7988130">
        <ele>46.8</ele>
        <time>2018-12-30T13:02:35Z</time>
      </trkpt>
      <trkpt lat="39.8484060" lon="2.7987980">
        <ele>47.1</ele>
        <time>2018-12-30T13:02:36Z</time>
      </trkpt>
      <trkpt lat="39.8483780" lon="2.7987840">
        <ele>47.3</ele>
        <time>2018-12-30T13:02:37Z</time>
      </trkpt>
      <trkpt lat="39.8483480" lon="2.7987700">
        <ele>47.6</ele>
        <time>2018-12-30T13:02:38Z</time>
      </trkpt>
      <trkpt lat="39.8483160" lon="2.7987570">
        <ele>47.9</ele>
        <time>2018-12-30T13:02:39Z</time>
      </trkpt>
      <trkpt lat="39.8482860" lon="2.7987420">
        <ele>48.1</ele>
        <time>2018-12-30T13:02:40Z</time>
      </trkpt>
      <trkpt lat="39.8482570" lon="2.7987230">
        <ele>48.4</ele>
        <time>2018-12-30T13:02:41Z</time>
      </trkpt>
      <trkpt lat="39.8482290" lon="2.7987030">
        <ele>48.7</ele>
        <time>2018-12-30T13:02:42Z</time>
      </trkpt>
      <trkpt lat="39.8482010" lon="2.7986810">
        <ele>48.9</ele>
        <time>2018-12-30T13:02:43Z</time>
      </trkpt>
      <trkpt lat="39.8481720" lon="2.7986570">
        <ele>49.2</ele>
        <time>2018-12-30T13:02:44Z</time>
      </trkpt>
      <trkpt lat="39.8481430" lon="2.7986320">
        <ele>49.5</ele>
        <time>2018-12-30T13:02:45Z</time>
      </trkpt>
      <trkpt lat="39.8481140" lon="2.7986050">
        <ele>49.8</ele>
        <time>2018-12-30T13:02:46Z</time>
      </trkpt>
      <trkpt lat="39.8480870" lon="2.7985780">
        <ele>50.0</ele>
        <time>2018-12-30T13:02:47Z</time>
      </trkpt>
      <trkpt lat="39.8480600" lon="2.7985490">
        <ele>50.3</ele>
        <time>2018-12-30T13:02:48Z</time>
      </trkpt>
      <trkpt lat="39.8480340" lon="2.7985200">
        <ele>50.6</ele>
        <time>2018-12-30T13:02:49Z</time>
      </trkpt>
      <trkpt lat="39.8480090" lon="2.7984910">
        <ele>51.6</ele>
        <time>2018-12-30T13:02:50Z</time>
      </trkpt>
      <trkpt lat="39.8479850" lon="2.7984620">
        <ele>52.0</ele>
        <time>2018-12-30T13:02:51Z</time>
      </trkpt>
      <trkpt lat="39.8479630" lon="2.7984310">
        <ele>52.4</ele>
        <time>2018-12-30T13:02:52Z</time>
      </trkpt>
      <trkpt lat="39.8479430" lon="2.7984000">
        <ele>53.6</ele>
        <time>2018-12-30T13:02:53Z</time>
      </trkpt>
      <trkpt lat="39.8479220" lon="2.7983670">
        <ele>54.2</ele>
        <time>2018-12-30T13:02:54Z</time>
      </trkpt>
      <trkpt lat="39.8479000" lon="2.7983330">
        <ele>54.7</ele>
        <time>2018-12-30T13:02:55Z</time>
      </trkpt>
      <trkpt lat="39.8478780" lon="2.7982990">
        <ele>55.2</ele>
        <time>2018-12-30T13:02:56Z</time>
      </trkpt>
      <trkpt lat="39.8478550" lon="2.7982660">
        <ele>55.7</ele>
        <time>2018-12-30T13:02:57Z</time>
      </trkpt>
      <trkpt lat="39.8478330" lon="2.7982330">
        <ele>56.2</ele>
        <time>2018-12-30T13:02:58Z</time>
      </trkpt>
      <trkpt lat="39.8478120" lon="2.7981990">
        <ele>56.7</ele>
        <time>2018-12-30T13:02:59Z</time>
      </trkpt>
      <trkpt lat="39.8477920" lon="2.7981650">
        <ele>57.2</ele>
        <time>2018-12-30T13:03:00Z</time>
      </trkpt>
      <trkpt lat="39.8477730" lon="2.7981310">
        <ele>57.6</ele>
        <time>2018-12-30T13:03:01Z</time>
      </trkpt>
      <trkpt lat="39.8477540" lon="2.7980980">
        <ele>58.1</ele>
        <time>2018-12-30T13:03:02Z</time>
      </trkpt>
      <trkpt lat="39.8477340" lon="2.7980660">
        <ele>58.5</ele>
        <time>2018-12-30T13:03:03Z</time>
      </trkpt>
      <trkpt lat="39.8477120" lon="2.7980350">
        <ele>58.9</ele>
        <time>2018-12-30T13:03:04Z</time>
      </trkpt>
      <trkpt lat="39.8476900" lon="2.7980060">
        <ele>59.3</ele>
        <time>2018-12-30T13:03:05Z</time>
      </trkpt>
      <trkpt lat="39.8476680" lon="2.7979780">
        <ele>59.7</ele>
        <time>2018-12-30T13:03:06Z</time>
      </trkpt>
      <trkpt lat="39.8476440" lon="2.7979510">
        <ele>60.2</ele>
        <time>2018-12-30T13:03:07Z</time>
      </trkpt>
      <trkpt lat="39.8476200" lon="2.7979250">
        <ele>60.4</ele>
        <time>2018-12-30T13:03:08Z</time>
      </trkpt>
      <trkpt lat="39.8475960" lon="2.7978990">
        <ele>60.4</ele>
        <time>2018-12-30T13:03:09Z</time>
      </trkpt>
      <trkpt lat="39.8475710" lon="2.7978750">
        <ele>60.4</ele>
        <time>2018-12-30T13:03:10Z</time>
      </trkpt>
      <trkpt lat="39.8475460" lon="2.7978520">
        <ele>60.4</ele>
        <time>2018-12-30T13:03:11Z</time>
      </trkpt>
      <trkpt lat="39.8475190" lon="2.7978300">
        <ele>60.4</ele>
        <time>2018-12-30T13:03:12Z</time>
      </trkpt>
      <trkpt lat="39.8474910" lon="2.7978090">
        <ele>60.3</ele>
        <time>2018-12-30T13:03:13Z</time>
      </trkpt>
      <trkpt lat="39.8474630" lon="2.7977880">
        <ele>60.3</ele>
        <time>2018-12-30T13:03:14Z</time>
      </trkpt>
      <trkpt lat="39.8474350" lon="2.7977670">
        <ele>60.3</ele>
        <time>2018-12-30T13:03:15Z</time>
      </trkpt>
      <trkpt lat="39.8474100" lon="2.7977430">
        <ele>60.3</ele>
        <time>2018-12-30T13:03:16Z</time>
      </trkpt>
      <trkpt lat="39.8473900" lon="2.7977160">
        <ele>60.2</ele>
        <time>2018-12-30T13:03:17Z</time>
      </trkpt>
      <trkpt lat="39.8473740" lon="2.7976880">
        <ele>60.2</ele>
        <time>2018-12-30T13:03:18Z</time>
      </trkpt>
      <trkpt lat="39.8473570" lon="2.7976600">
        <ele>60.2</ele>
        <time>2018-12-30T13:03:19Z</time>
      </trkpt>
      <trkpt lat="39.8473380" lon="2.7976350">
        <ele>60.2</ele>
        <time>2018-12-30T13:03:20Z</time>
      </trkpt>
      <trkpt lat="39.8473170" lon="2.7976120">
        <ele>60.2</ele>
        <time>2018-12-30T13:03:21Z</time>
      </trkpt>
      <trkpt lat="39.8472950" lon="2.7975880">
        <ele>60.5</ele>
        <time>2018-12-30T13:03:22Z</time>
      </trkpt>
      <trkpt lat="39.8472740" lon="2.7975610">
        <ele>60.6</ele>
        <time>2018-12-30T13:03:23Z</time>
      </trkpt>
      <trkpt lat="39.8472520" lon="2.7975360">
        <ele>60.8</ele>
        <time>2018-12-30T13:03:24Z</time>
      </trkpt>
      <trkpt lat="39.8472300" lon="2.7975090">
        <ele>61.0</ele>
        <time>2018-12-30T13:03:25Z</time>
      </trkpt>
      <trkpt lat="39.8472080" lon="2.7974830">
        <ele>61.2</ele>
        <time>2018-12-30T13:03:26Z</time>
      </trkpt>
      <trkpt lat="39.8471850" lon="2.7974560">
        <ele>61.5</ele>
        <time>2018-12-30T13:03:27Z</time>
      </trkpt>
      <trkpt lat="39.8471620" lon="2.7974290">
        <ele>61.8</ele>
        <time>2018-12-30T13:03:28Z</time>
      </trkpt>
      <trkpt lat="39.8471400" lon="2.7974020">
        <ele>62.1</ele>
        <time>2018-12-30T13:03:29Z</time>
      </trkpt>
      <trkpt lat="39.8471170" lon="2.7973760">
        <ele>62.4</ele>
        <time>2018-12-30T13:03:30Z</time>
      </trkpt>
      <trkpt lat="39.8470930" lon="2.7973520">
        <ele>62.7</ele>
        <time>2018-12-30T13:03:31Z</time>
      </trkpt>
      <trkpt lat="39.8470700" lon="2.7973290">
        <ele>63.0</ele>
        <time>2018-12-30T13:03:32Z</time>
      </trkpt>
      <trkpt lat="39.8470460" lon="2.7973070">
        <ele>63.3</ele>
        <time>2018-12-30T13:03:33Z</time>
      </trkpt>
      <trkpt lat="39.8470230" lon="2.7972850">
        <ele>63.6</ele>
        <time>2018-12-30T13:03:34Z</time>
      </trkpt>
      <trkpt lat="39.8469990" lon="2.7972610">
        <ele>63.9</ele>
        <time>2018-12-30T13:03:35Z</time>
      </trkpt>
      <trkpt lat="39.8469740" lon="2.7972370">
        <ele>64.3</ele>
        <time>2018-12-30T13:03:36Z</time>
      </trkpt>
      <trkpt lat="39.8469480" lon="2.7972120">
        <ele>64.6</ele>
        <time>2018-12-30T13:03:37Z</time>
      </trkpt>
      <trkpt lat="39.8469210" lon="2.7971900">
        <ele>65.0</ele>
        <time>2018-12-30T13:03:38Z</time>
      </trkpt>
      <trkpt lat="39.8468930" lon="2.7971710">
        <ele>65.3</ele>
        <time>2018-12-30T13:03:39Z</time>
      </trkpt>
      <trkpt lat="39.8468670" lon="2.7971540">
        <ele>65.6</ele>
        <time>2018-12-30T13:03:40Z</time>
      </trkpt>
      <trkpt lat="39.8468390" lon="2.7971370">
        <ele>65.9</ele>
        <time>2018-12-30T13:03:41Z</time>
      </trkpt>
      <trkpt lat="39.8468080" lon="2.7971230">
        <ele>66.2</ele>
        <time>2018-12-30T13:03:42Z</time>
      </trkpt>
      <trkpt lat="39.8467730" lon="2.7971080">
        <ele>66.5</ele>
        <time>2018-12-30T13:03:43Z</time>
      </trkpt>
      <trkpt lat="39.8467370" lon="2.7970910">
        <ele>66.8</ele>
        <time>2018-12-30T13:03:44Z</time>
      </trkpt>
      <trkpt lat="39.8467040" lon="2.7970730">
        <ele>67.1</ele>
        <time>2018-12-30T13:03:45Z</time>
      </trkpt>
      <trkpt lat="39.8466680" lon="2.7970580">
        <ele>67.4</ele>
        <time>2018-12-30T13:03:46Z</time>
      </trkpt>
      <trkpt lat="39.8466310" lon="2.7970440">
        <ele>67.6</ele>
        <time>2018-12-30T13:03:47Z</time>
      </trkpt>
      <trkpt lat="39.8465950" lon="2.7970340">
        <ele>67.9</ele>
        <time>2018-12-30T13:03:48Z</time>
      </trkpt>
      <trkpt lat="39.8465600" lon="2.7970220">
        <ele>68.1</ele>
        <time>2018-12-30T13:03:49Z</time>
      </trkpt>
      <trkpt lat="39.8465170" lon="2.7970140">
        <ele>68.4</ele>
        <time>2018-12-30T13:03:50Z</time>
      </trkpt>
      <trkpt lat="39.8464710" lon="2.7970080">
        <ele>68.6</ele>
        <time>2018-12-30T13:03:51Z</time>
      </trkpt>
      <trkpt lat="39.8464230" lon="2.7970030">
        <ele>68.9</ele>
        <time>2018-12-30T13:03:52Z</time>
      </trkpt>
      <trkpt lat="39.8463800" lon="2.7969990">
        <ele>69.1</ele>
        <time>2018-12-30T13:03:53Z</time>
      </trkpt>
      <trkpt lat="39.8463370" lon="2.7969970">
        <ele>69.3</ele>
        <time>2018-12-30T13:03:54Z</time>
      </trkpt>
      <trkpt lat="39.8462940" lon="2.7969970">
        <ele>69.5</ele>
        <time>2018-12-30T13:03:55Z</time>
      </trkpt>
      <trkpt lat="39.8462510" lon="2.7969960">
        <ele>69.7</ele>
        <time>2018-12-30T13:03:56Z</time>
      </trkpt>
      <trkpt lat="39.8462090" lon="2.7969910">
        <ele>69.9</ele>
        <time>2018-12-30T13:03:57Z</time>
      </trkpt>
      <trkpt lat="39.8461700" lon="2.7969860">
        <ele>70.0</ele>
        <time>2018-12-30T13:03:58Z</time>
      </trkpt>
      <trkpt lat="39.8461300" lon="2.7969800">
        <ele>70.2</ele>
        <time>2018-12-30T13:03:59Z</time>
      </trkpt>
      <trkpt lat="39.8460880" lon="2.7969750">
        <ele>70.4</ele>
        <time>2018-12-30T13:04:00Z</time>
      </trkpt>
      <trkpt lat="39.8460450" lon="2.7969700">
        <ele>70.6</ele>
        <time>2018-12-30T13:04:01Z</time>
      </trkpt>
      <trkpt lat="39.8460020" lon="2.7969650">
        <ele>70.8</ele>
        <time>2018-12-30T13:04:02Z</time>
      </trkpt>
      <trkpt lat="39.8459600" lon="2.7969590">
        <ele>71.0</ele>
        <time>2018-12-30T13:04:03Z</time>
      </trkpt>
      <trkpt lat="39.8459190" lon="2.7969500">
        <ele>71.2</ele>
        <time>2018-12-30T13:04:04Z</time>
      </trkpt>
      <trkpt lat="39.8458780" lon="2.7969380">
        <ele>71.4</ele>
        <time>2018-12-30T13:04:05Z</time>
      </trkpt>
      <trkpt lat="39.8458390" lon="2.7969240">
        <ele>71.6</ele>
        <time>2018-12-30T13:04:06Z</time>
      </trkpt>
      <trkpt lat="39.8458020" lon="2.7969080">
        <ele>71.7</ele>
        <time>2018-12-30T13:04:07Z</time>
      </trkpt>
      <trkpt lat="39.8457660" lon="2.7968890">
        <ele>72.0</ele>
        <time>2018-12-30T13:04:08Z</time>
      </trkpt>
      <trkpt lat="39.8457300" lon="2.7968690">
        <ele>72.2</ele>
        <time>2018-12-30T13:04:09Z</time>
      </trkpt>
      <trkpt lat="39.8456940" lon="2.7968480">
        <ele>72.5</ele>
        <time>2018-12-30T13:04:10Z</time>
      </trkpt>
      <trkpt lat="39.8456580" lon="2.7968280">
        <ele>72.7</ele>
        <time>2018-12-30T13:04:11Z</time>
      </trkpt>
      <trkpt lat="39.8456230" lon="2.7968080">
        <ele>73.0</ele>
        <time>2018-12-30T13:04:12Z</time>
      </trkpt>
      <trkpt lat="39.8455890" lon="2.7967870">
        <ele>73.3</ele>
        <time>2018-12-30T13:04:13Z</time>
      </trkpt>
      <trkpt lat="39.8455540" lon="2.7967630">
        <ele>73.6</ele>
        <time>2018-12-30T13:04:14Z</time>
      </trkpt>
      <trkpt lat="39.8455200" lon="2.7967350">
        <ele>73.8</ele>
        <time>2018-12-30T13:04:15Z</time>
      </trkpt>
      <trkpt lat="39.8454870" lon="2.7967060">
        <ele>74.1</ele>
        <time>2018-12-30T13:04:16Z</time>
      </trkpt>
      <trkpt lat="39.8454540" lon="2.7966760">
        <ele>74.5</ele>
        <time>2018-12-30T13:04:17Z</time>
      </trkpt>
      <trkpt lat="39.8454230" lon="2.7966460">
        <ele>74.8</ele>
        <time>2018-12-30T13:04:18Z</time>
      </trkpt>
      <trkpt lat="39.8453960" lon="2.7966110">
        <ele>75.1</ele>
        <time>2018-12-30T13:04:19Z</time>
      </trkpt>
      <trkpt lat="39.8453740" lon="2.7965750">
        <ele>75.4</ele>
        <time>2018-12-30T13:04:20Z</time>
      </trkpt>
      <trkpt lat="39.8453540" lon="2.7965360">
        <ele>75.6</ele>
        <time>2018-12-30T13:04:21Z</time>
      </trkpt>
      <trkpt lat="39.8453340" lon="2.7964970">
        <ele>75.8</ele>
        <time>2018-12-30T13:04:22Z</time>
      </trkpt>
      <trkpt lat="39.8453140" lon="2.7964560">
        <ele>76.0</ele>
        <time>2018-12-30T13:04:23Z</time>
      </trkpt>
      <trkpt lat="39.8452950" lon="2.7964110">
        <ele>76.2</ele>
        <time>2018-12-30T13:04:24Z</time>
      </trkpt>
      <trkpt lat="39.8452790" lon="2.7963630">
        <ele>76.5</ele>
        <time>2018-12-30T13:04:25Z</time>
      </trkpt>
      <trkpt lat="39.8452640" lon="2.7963130">
        <ele>76.8</ele>
        <time>2018-12-30T13:04:26Z</time>
      </trkpt>
      <trkpt lat="39.8452510" lon="2.7962660">
        <ele>77.1</ele>
        <time>2018-12-30T13:04:27Z</time>
      </trkpt>
      <trkpt lat="39.8452400" lon="2.7962180">
        <ele>77.3</ele>
        <time>2018-12-30T13:04:28Z</time>
      </trkpt>
      <trkpt lat="39.8452300" lon="2.7961700">
        <ele>77.5</ele>
        <time>2018-12-30T13:04:29Z</time>
      </trkpt>
      <trkpt lat="39.8452220" lon="2.7961200">
        <ele>77.8</ele>
        <time>2018-12-30T13:04:30Z</time>
      </trkpt>
      <trkpt lat="39.8452150" lon="2.7960710">
        <ele>78.1</ele>
        <time>2018-12-30T13:04:31Z</time>
      </trkpt>
      <trkpt lat="39.8452090" lon="2.7960210">
        <ele>78.3</ele>
        <time>2018-12-30T13:04:32Z</time>
      </trkpt>
      <trkpt lat="39.8452020" lon="2.7959720">
        <ele>78.5</ele>
        <time>2018-12-30T13:04:33Z</time>
      </trkpt>
      <trkpt lat="39.8451970" lon="2.7959230">
        <ele>78.8</ele>
        <time>2018-12-30T13:04:34Z</time>
      </trkpt>
      <trkpt lat="39.8451930" lon="2.7958740">
        <ele>79.1</ele>
        <time>2018-12-30T13:04:35Z</time>
      </trkpt>
      <trkpt lat="39.8451880" lon="2.7958250">
        <ele>79.3</ele>
        <time>2018-12-30T13:04:36Z</time>
      </trkpt>
      <trkpt lat="39.8451830" lon="2.7957760">
        <ele>79.6</ele>
        <time>2018-12-30T13:04:37Z</time>
      </trkpt>
      <trkpt lat="39.8451780" lon="2.7957260">
        <ele>79.8</ele>
        <time>2018-12-30T13:04:38Z</time>
      </trkpt>
      <trkpt lat="39.8451720" lon="2.7956760">
        <ele>80.0</ele>
        <time>2018-12-30T13:04:39Z</time>
      </trkpt>
      <trkpt lat="39.8451640" lon="2.7956270">
        <ele>80.2</ele>
        <time>2018-12-30T13:04:40Z</time>
      </trkpt>
      <trkpt lat="39.8451560" lon="2.7955790">
        <ele>80.5</ele>
        <time>2018-12-30T13:04:41Z</time>
      </trkpt>
      <trkpt lat="39.8451470" lon="2.7955300">
        <ele>80.7</ele>
        <time>2018-12-30T13:04:42Z</time>
      </trkpt>
      <trkpt lat="39.8451390" lon="2.7954830">
        <ele>80.9</ele>
        <time>2018-12-30T13:04:43Z</time>
      </trkpt>
      <trkpt lat="39.8451290" lon="2.7954360">
        <ele>81.1</ele>
        <time>2018-12-30T13:04:44Z</time>
      </trkpt>
      <trkpt lat="39.8451180" lon="2.7953890">
        <ele>81.3</ele>
        <time>2018-12-30T13:04:45Z</time>
      </trkpt>
      <trkpt lat="39.8451050" lon="2.7953420">
        <ele>81.5</ele>
        <time>2018-12-30T13:04:46Z</time>
      </trkpt>
      <trkpt lat="39.8450920" lon="2.7952950">
        <ele>81.7</ele>
        <time>2018-12-30T13:04:47Z</time>
      </trkpt>
      <trkpt lat="39.8450790" lon="2.7952490">
        <ele>81.9</ele>
        <time>2018-12-30T13:04:48Z</time>
      </trkpt>
      <trkpt lat="39.8450640" lon="2.7952020">
        <ele>82.1</ele>
        <time>2018-12-30T13:04:49Z</time>
      </trkpt>
      <trkpt lat="39.8450490" lon="2.7951550">
        <ele>82.3</ele>
        <time>2018-12-30T13:04:50Z</time>
      </trkpt>
      <trkpt lat="39.8450340" lon="2.7951090">
        <ele>82.5</ele>
        <time>2018-12-30T13:04:51Z</time>
      </trkpt>
      <trkpt lat="39.8450190" lon="2.7950630">
        <ele>82.8</ele>
        <time>2018-12-30T13:04:52Z</time>
      </trkpt>
      <trkpt lat="39.8450040" lon="2.7950170">
        <ele>83.0</ele>
        <time>2018-12-30T13:04:53Z</time>
      </trkpt>
      <trkpt lat="39.8449900" lon="2.7949710">
        <ele>83.3</ele>
        <time>2018-12-30T13:04:54Z</time>
      </trkpt>
      <trkpt lat="39.8449760" lon="2.7949250">
        <ele>83.5</ele>
        <time>2018-12-30T13:04:55Z</time>
      </trkpt>
      <trkpt lat="39.8449590" lon="2.7948810">
        <ele>83.8</ele>
        <time>2018-12-30T13:04:56Z</time>
      </trkpt>
      <trkpt lat="39.8449430" lon="2.7948370">
        <ele>84.1</ele>
        <time>2018-12-30T13:04:57Z</time>
      </trkpt>
      <trkpt lat="39.8449270" lon="2.7947950">
        <ele>84.3</ele>
        <time>2018-12-30T13:04:58Z</time>
      </trkpt>
      <trkpt lat="39.8449120" lon="2.7947530">
        <ele>84.6</ele>
        <time>2018-12-30T13:04:59Z</time>
      </trkpt>
      <trkpt lat="39.8448980" lon="2.7947100">
        <ele>84.9</ele>
        <time>2018-12-30T13:05:00Z</time>
      </trkpt>
      <trkpt lat="39.8448830" lon="2.7946660">
        <ele>85.1</ele>
        <time>2018-12-30T13:05:01Z</time>
      </trkpt>
      <trkpt lat="39.8448690" lon="2.7946220">
        <ele>85.4</ele>
        <time>2018-12-30T13:05:02Z</time>
      </trkpt>
      <trkpt lat="39.8448550" lon="2.7945790">
        <ele>85.7</ele>
        <time>2018-12-30T13:05:03Z</time>
      </trkpt>
      <trkpt lat="39.8448420" lon="2.7945340">
        <ele>85.9</ele>
        <time>2018-12-30T13:05:04Z</time>
      </trkpt>
      <trkpt lat="39.8448300" lon="2.7944900">
        <ele>86.2</ele>
        <time>2018-12-30T13:05:05Z</time>
      </trkpt>
      <trkpt lat="39.8448200" lon="2.7944420">
        <ele>86.5</ele>
        <time>2018-12-30T13:05:06Z</time>
      </trkpt>
      <trkpt lat="39.8448110" lon="2.7943950">
        <ele>86.8</ele>
        <time>2018-12-30T13:05:07Z</time>
      </trkpt>
      <trkpt lat="39.8448030" lon="2.7943460">
        <ele>87.1</ele>
        <time>2018-12-30T13:05:08Z</time>
      </trkpt>
      <trkpt lat="39.8447930" lon="2.7942980">
        <ele>87.2</ele>
        <time>2018-12-30T13:05:09Z</time>
      </trkpt>
      <trkpt lat="39.8447800" lon="2.7942500">
        <ele>87.4</ele>
        <time>2018-12-30T13:05:10Z</time>
      </trkpt>
      <trkpt lat="39.8447630" lon="2.7942030">
        <ele>87.5</ele>
        <time>2018-12-30T13:05:11Z</time>
      </trkpt>
      <trkpt lat="39.8447440" lon="2.7941570">
        <ele>87.6</ele>
        <time>2018-12-30T13:05:12Z</time>
      </trkpt>
      <trkpt lat="39.8447250" lon="2.7941140">
        <ele>87.7</ele>
        <time>2018-12-30T13:05:13Z</time>
      </trkpt>
      <trkpt lat="39.8447050" lon="2.7940730">
        <ele>87.8</ele>
        <time>2018-12-30T13:05:14Z</time>
      </trkpt>
      <trkpt lat="39.8446870" lon="2.7940410">
        <ele>87.9</ele>
        <time>2018-12-30T13:05:15Z</time>
      </trkpt>
      <trkpt lat="39.8446490" lon="2.7940250">
        <ele>88.0</ele>
        <time>2018-12-30T13:05:16Z</time>
      </trkpt>
      <trkpt lat="39.8446010" lon="2.7940200">
        <ele>88.2</ele>
        <time>2018-12-30T13:05:17Z</time>
      </trkpt>
      <trkpt lat="39.8445460" lon="2.7940240">
        <ele>88.3</ele>
        <time>2018-12-30T13:05:18Z</time>
      </trkpt>
      <trkpt lat="39.8445070" lon="2.7940440">
        <ele>88.4</ele>
        <time>2018-12-30T13:05:19Z</time>
      </trkpt>
      <trkpt lat="39.8444750" lon="2.7940800">
        <ele>88.5</ele>
        <time>2018-12-30T13:05:20Z</time>
      </trkpt>
      <trkpt lat="39.8444480" lon="2.7941290">
        <ele>88.6</ele>
        <time>2018-12-30T13:05:21Z</time>
      </trkpt>
      <trkpt lat="39.8444270" lon="2.7941780">
        <ele>88.7</ele>
        <time>2018-12-30T13:05:22Z</time>
      </trkpt>
      <trkpt lat="39.8444080" lon="2.7942310">
        <ele>88.8</ele>
        <time>2018-12-30T13:05:23Z</time>
      </trkpt>
      <trkpt lat="39.8443950" lon="2.7942880">
        <ele>88.9</ele>
        <time>2018-12-30T13:05:24Z</time>
      </trkpt>
      <trkpt lat="39.8443880" lon="2.7943440">
        <ele>89.0</ele>
        <time>2018-12-30T13:05:25Z</time>
      </trkpt>
      <trkpt lat="39.8443830" lon="2.7943990">
        <ele>89.1</ele>
        <time>2018-12-30T13:05:26Z</time>
      </trkpt>
      <trkpt lat="39.8443770" lon="2.7944530">
        <ele>89.2</ele>
        <time>2018-12-30T13:05:27Z</time>
      </trkpt>
      <trkpt lat="39.8443670" lon="2.7945070">
        <ele>89.3</ele>
        <time>2018-12-30T13:05:28Z</time>
      </trkpt>
      <trkpt lat="39.8443550" lon="2.7945590">
        <ele>89.4</ele>
        <time>2018-12-30T13:05:29Z</time>
      </trkpt>
      <trkpt lat="39.8443430" lon="2.7946090">
        <ele>89.5</ele>
        <time>2018-12-30T13:05:30Z</time>
      </trkpt>
      <trkpt lat="39.8443300" lon="2.7946580">
        <ele>89.6</ele>
        <time>2018-12-30T13:05:31Z</time>
      </trkpt>
      <trkpt lat="39.8443190" lon="2.7947060">
        <ele>89.9</ele>
        <time>2018-12-30T13:05:32Z</time>
      </trkpt>
      <trkpt lat="39.8443080" lon="2.7947550">
        <ele>90.3</ele>
        <time>2018-12-30T13:05:33Z</time>
      </trkpt>
      <trkpt lat="39.8442950" lon="2.7948020">
        <ele>90.7</ele>
        <time>2018-12-30T13:05:34Z</time>
      </trkpt>
      <trkpt lat="39.8442770" lon="2.7948500">
        <ele>91.0</ele>
        <time>2018-12-30T13:05:35Z</time>
      </trkpt>
      <trkpt lat="39.8442550" lon="2.7948980">
        <ele>91.3</ele>
        <time>2018-12-30T13:05:36Z</time>
      </trkpt>
      <trkpt lat="39.8442320" lon="2.7949440">
        <ele>91.6</ele>
        <time>2018-12-30T13:05:37Z</time>
      </trkpt>
      <trkpt lat="39.8442100" lon="2.7949920">
        <ele>91.9</ele>
        <time>2018-12-30T13:05:38Z</time>
      </trkpt>
      <trkpt lat="39.8441870" lon="2.7950400">
        <ele>92.3</ele>
        <time>2018-12-30T13:05:39Z</time>
      </trkpt>
      <trkpt lat="39.8441590" lon="2.7950890">
        <ele>92.6</ele>
        <time>2018-12-30T13:05:40Z</time>
      </trkpt>
      <trkpt lat="39.8441250" lon="2.7951330">
        <ele>93.0</ele>
        <time>2018-12-30T13:05:41Z</time>
      </trkpt>
      <trkpt lat="39.8440880" lon="2.7951720">
        <ele>93.4</ele>
        <time>2018-12-30T13:05:42Z</time>
      </trkpt>
      <trkpt lat="39.8440470" lon="2.7951980">
        <ele>93.7</ele>
        <time>2018-12-30T13:05:43Z</time>
      </trkpt>
      <trkpt lat="39.8440030" lon="2.7952150">
        <ele>93.9</ele>
        <time>2018-12-30T13:05:44Z</time>
      </trkpt>
      <trkpt lat="39.8439610" lon="2.7952270">
        <ele>94.1</ele>
        <time>2018-12-30T13:05:45Z</time>
      </trkpt>
      <trkpt lat="39.8439220" lon="2.7952400">
        <ele>94.3</ele>
        <time>2018-12-30T13:05:46Z</time>
      </trkpt>
      <trkpt lat="39.8438790" lon="2.7952460">
        <ele>94.6</ele>
        <time>2018-12-30T13:05:47Z</time>
      </trkpt>
      <trkpt lat="39.8438360" lon="2.7952470">
        <ele>94.8</ele>
        <time>2018-12-30T13:05:48Z</time>
      </trkpt>
      <trkpt lat="39.8437910" lon="2.7952420">
        <ele>95.0</ele>
        <time>2018-12-30T13:05:49Z</time>
      </trkpt>
      <trkpt lat="39.8437480" lon="2.7952400">
        <ele>95.2</ele>
        <time>2018-12-30T13:05:50Z</time>
      </trkpt>
      <trkpt lat="39.8437040" lon="2.7952360">
        <ele>95.4</ele>
        <time>2018-12-30T13:05:51Z</time>
      </trkpt>
      <trkpt lat="39.8436630" lon="2.7952340">
        <ele>95.6</ele>
        <time>2018-12-30T13:05:52Z</time>
      </trkpt>
      <trkpt lat="39.8436220" lon="2.7952320">
        <ele>95.8</ele>
        <time>2018-12-30T13:05:53Z</time>
      </trkpt>
      <trkpt lat="39.8435800" lon="2.7952320">
        <ele>96.1</ele>
        <time>2018-12-30T13:05:54Z</time>
      </trkpt>
      <trkpt lat="39.8435380" lon="2.7952310">
        <ele>96.4</ele>
        <time>2018-12-30T13:05:55Z</time>
      </trkpt>
      <trkpt lat="39.8434970" lon="2.7952290">
        <ele>96.7</ele>
        <time>2018-12-30T13:05:56Z</time>
      </trkpt>
      <trkpt lat="39.8434600" lon="2.7952250">
        <ele>96.9</ele>
        <time>2018-12-30T13:05:57Z</time>
      </trkpt>
      <trkpt lat="39.8434230" lon="2.7952250">
        <ele>97.1</ele>
        <time>2018-12-30T13:05:58Z</time>
      </trkpt>
      <trkpt lat="39.8433860" lon="2.7952240">
        <ele>97.3</ele>
        <time>2018-12-30T13:05:59Z</time>
      </trkpt>
      <trkpt lat="39.8433480" lon="2.7952270">
        <ele>97.5</ele>
        <time>2018-12-30T13:06:00Z</time>
      </trkpt>
      <trkpt lat="39.8433120" lon="2.7952290">
        <ele>97.6</ele>
        <time>2018-12-30T13:06:01Z</time>
      </trkpt>
      <trkpt lat="39.8432710" lon="2.7952370">
        <ele>97.8</ele>
        <time>2018-12-30T13:06:02Z</time>
      </trkpt>
      <trkpt lat="39.8432310" lon="2.7952490">
        <ele>98.0</ele>
        <time>2018-12-30T13:06:03Z</time>
      </trkpt>
      <trkpt lat="39.8431940" lon="2.7952620">
        <ele>98.2</ele>
        <time>2018-12-30T13:06:04Z</time>
      </trkpt>
      <trkpt lat="39.8431540" lon="2.7952790">
        <ele>98.4</ele>
        <time>2018-12-30T13:06:05Z</time>
      </trkpt>
      <trkpt lat="39.8431110" lon="2.7953000">
        <ele>98.6</ele>
        <time>2018-12-30T13:06:06Z</time>
      </trkpt>
      <trkpt lat="39.8430660" lon="2.7953280">
        <ele>98.9</ele>
        <time>2018-12-30T13:06:07Z</time>
      </trkpt>
      <trkpt lat="39.8430290" lon="2.7953620">
        <ele>99.1</ele>
        <time>2018-12-30T13:06:08Z</time>
      </trkpt>
      <trkpt lat="39.8429980" lon="2.7954020">
        <ele>99.4</ele>
        <time>2018-12-30T13:06:09Z</time>
      </trkpt>
      <trkpt lat="39.8429720" lon="2.7954450">
        <ele>99.6</ele>
        <time>2018-12-30T13:06:10Z</time>
      </trkpt>
      <trkpt lat="39.8429550" lon="2.7954900">
        <ele>99.8</ele>
        <time>2018-12-30T13:06:11Z</time>
      </trkpt>
      <trkpt lat="39.8429410" lon="2.7955360">
        <ele>100.0</ele>
        <time>2018-12-30T13:06:12Z</time>
      </trkpt>
      <trkpt lat="39.8429290" lon="2.7955850">
        <ele>100.3</ele>
        <time>2018-12-30T13:06:13Z</time>
      </trkpt>
      <trkpt lat="39.8429080" lon="2.7956350">
        <ele>100.6</ele>
        <time>2018-12-30T13:06:14Z</time>
      </trkpt>
      <trkpt lat="39.8428840" lon="2.7956830">
        <ele>101.1</ele>
        <time>2018-12-30T13:06:15Z</time>
      </trkpt>
      <trkpt lat="39.8428560" lon="2.7957280">
        <ele>101.6</ele>
        <time>2018-12-30T13:06:16Z</time>
      </trkpt>
      <trkpt lat="39.8428200" lon="2.7957500">
        <ele>102.0</ele>
        <time>2018-12-30T13:06:17Z</time>
      </trkpt>
      <trkpt lat="39.8427780" lon="2.7957520">
        <ele>102.5</ele>
        <time>2018-12-30T13:06:18Z</time>
      </trkpt>
      <trkpt lat="39.8427350" lon="2.7957390">
        <ele>102.9</ele>
        <time>2018-12-30T13:06:19Z</time>
      </trkpt>
      <trkpt lat="39.8426990" lon="2.7957300">
        <ele>103.3</ele>
        <time>2018-12-30T13:06:20Z</time>
      </trkpt>
      <trkpt lat="39.8426670" lon="2.7957200">
        <ele>103.8</ele>
        <time>2018-12-30T13:06:21Z</time>
      </trkpt>
      <trkpt lat="39.8426330" lon="2.7957040">
        <ele>104.3</ele>
        <time>2018-12-30T13:06:22Z</time>
      </trkpt>
      <trkpt lat="39.8426010" lon="2.7956820">
        <ele>104.8</ele>
        <time>2018-12-30T13:06:23Z</time>
      </trkpt>
      <trkpt lat="39.8425750" lon="2.7956550">
        <ele>105.2</ele>
        <time>2018-12-30T13:06:24Z</time>
      </trkpt>
      <trkpt lat="39.8425600" lon="2.7956250">
        <ele>105.5</ele>
        <time>2018-12-30T13:06:25Z</time>
      </trkpt>
      <trkpt lat="39.8425460" lon="2.7955920">
        <ele>105.9</ele>
        <time>2018-12-30T13:06:26Z</time>
      </trkpt>
      <trkpt lat="39.8425300" lon="2.7955590">
        <ele>106.2</ele>
        <time>2018-12-30T13:06:27Z</time>
      </trkpt>
      <trkpt lat="39.8425110" lon="2.7955250">
        <ele>106.5</ele>
        <time>2018-12-30T13:06:28Z</time>
      </trkpt>
      <trkpt lat="39.8424880" lon="2.7954910">
        <ele>106.9</ele>
        <time>2018-12-30T13:06:29Z</time>
      </trkpt>
      <trkpt lat="39.8424640" lon="2.7954570">
        <ele>107.2</ele>
        <time>2018-12-30T13:06:30Z</time>
      </trkpt>
      <trkpt lat="39.8424380" lon="2.7954260">
        <ele>107.5</ele>
        <time>2018-12-30T13:06:31Z</time>
      </trkpt>
      <trkpt lat="39.8424120" lon="2.7953990">
        <ele>107.8</ele>
        <time>2018-12-30T13:06:32Z</time>
      </trkpt>
      <trkpt lat="39.8423840" lon="2.7953760">
        <ele>108.1</ele>
        <time>2018-12-30T13:06:33Z</time>
      </trkpt>
      <trkpt lat="39.8423560" lon="2.7953570">
        <ele>108.2</ele>
        <time>2018-12-30T13:06:34Z</time>
      </trkpt>
      <trkpt lat="39.8423280" lon="2.7953400">
        <ele>108.4</ele>
        <time>2018-12-30T13:06:35Z</time>
      </trkpt>
      <trkpt lat="39.8423000" lon="2.7953220">
        <ele>108.6</ele>
        <time>2018-12-30T13:06:36Z</time>
      </trkpt>
      <trkpt lat="39.8422720" lon="2.7953050">
        <ele>108.7</ele>
        <time>2018-12-30T13:06:37Z</time>
      </trkpt>
      <trkpt lat="39.8422450" lon="2.7952910">
        <ele>108.9</ele>
        <time>2018-12-30T13:06:38Z</time>
      </trkpt>
      <trkpt lat="39.8422170" lon="2.7952790">
        <ele>109.1</ele>
        <time>2018-12-30T13:06:39Z</time>
      </trkpt>
      <trkpt lat="39.8421850" lon="2.7952710">
        <ele>109.2</ele>
        <time>2018-12-30T13:06:40Z</time>
      </trkpt>
      <trkpt lat="39.8421520" lon="2.7952650">
        <ele>109.4</ele>
        <time>2018-12-30T13:06:41Z</time>
      </trkpt>
      <trkpt lat="39.8421210" lon="2.7952600">
        <ele>109.6</ele>
        <time>2018-12-30T13:06:42Z</time>
      </trkpt>
      <trkpt lat="39.8420920" lon="2.7952530">
        <ele>109.8</ele>
        <time>2018-12-30T13:06:43Z</time>
      </trkpt>
      <trkpt lat="39.8420610" lon="2.7952470">
        <ele>110.0</ele>
        <time>2018-12-30T13:06:44Z</time>
      </trkpt>
      <trkpt lat="39.8420250" lon="2.7952460">
        <ele>110.3</ele>
        <time>2018-12-30T13:06:45Z</time>
      </trkpt>
      <trkpt lat="39.8419900" lon="2.7952480">
        <ele>110.5</ele>
        <time>2018-12-30T13:06:46Z</time>
      </trkpt>
      <trkpt lat="39.8419570" lon="2.7952490">
        <ele>110.6</ele>
        <time>2018-12-30T13:06:47Z</time>
      </trkpt>
      <trkpt lat="39.8419240" lon="2.7952460">
        <ele>110.8</ele>
        <time>2018-12-30T13:06:48Z</time>
      </trkpt>
      <trkpt lat="39.8418930" lon="2.7952420">
        <ele>110.9</ele>
        <time>2018-12-30T13:06:49Z</time>
      </trkpt>
      <trkpt lat="39.8418610" lon="2.7952380">
        <ele>111.1</ele>
        <time>2018-12-30T13:06:50Z</time>
      </trkpt>
      <trkpt lat="39.8418290" lon="2.7952370">
        <ele>111.2</ele>
        <time>2018-12-30T13:06:51Z</time>
      </trkpt>
      <trkpt lat="39.8417970" lon="2.7952350">
        <ele>111.4</ele>
        <time>2018-12-30T13:06:52Z</time>
      </trkpt>
      <trkpt lat="39.8417690" lon="2.7952350">
        <ele>111.5</ele>
        <time>2018-12-30T13:06:53Z</time>
      </trkpt>
      <trkpt lat="39.8417440" lon="2.7952330">
        <ele>111.7</ele>
        <time>2018-12-30T13:06:54Z</time>
      </trkpt>
      <trkpt lat="39.8417170" lon="2.7952330">
        <ele>111.8</ele>
        <time>2018-12-30T13:06:55Z</time>
      </trkpt>
      <trkpt lat="39.8416880" lon="2.7952340">
        <ele>112.0</ele>
        <time>2018-12-30T13:06:56Z</time>
      </trkpt>
      <trkpt lat="39.8416580" lon="2.7952340">
        <ele>112.1</ele>
        <time>2018-12-30T13:06:57Z</time>
      </trkpt>
      <trkpt lat="39.8416280" lon="2.7952360">
        <ele>112.3</ele>
        <time>2018-12-30T13:06:58Z</time>
      </trkpt>
      <trkpt lat="39.8415920" lon="2.7952370">
        <ele>112.5</ele>
        <time>2018-12-30T13:06:59Z</time>
      </trkpt>
      <trkpt lat="39.8415520" lon="2.7952380">
        <ele>112.7</ele>
        <time>2018-12-30T13:07:00Z</time>
      </trkpt>
      <trkpt lat="39.8415130" lon="2.7952410">
        <ele>112.9</ele>
        <time>2018-12-30T13:07:01Z</time>
      </trkpt>
      <trkpt lat="39.8414750" lon="2.7952460">
        <ele>113.1</ele>
        <time>2018-12-30T13:07:02Z</time>
      </trkpt>
      <trkpt lat="39.8414360" lon="2.7952550">
        <ele>113.4</ele>
        <time>2018-12-30T13:07:03Z</time>
      </trkpt>
      <trkpt lat="39.8413950" lon="2.7952640">
        <ele>113.7</ele>
        <time>2018-12-30T13:07:04Z</time>
      </trkpt>
      <trkpt lat="39.8413570" lon="2.7952720">
        <ele>114.0</ele>
        <time>2018-12-30T13:07:05Z</time>
      </trkpt>
      <trkpt lat="39.8413190" lon="2.7952800">
        <ele>114.3</ele>
        <time>2018-12-30T13:07:06Z</time>
      </trkpt>
      <trkpt lat="39.8412810" lon="2.7952900">
        <ele>114.6</ele>
        <time>2018-12-30T13:07:07Z</time>
      </trkpt>
      <trkpt lat="39.8412450" lon="2.7952990">
        <ele>114.8</ele>
        <time>2018-12-30T13:07:08Z</time>
      </trkpt>
      <trkpt lat="39.8412090" lon="2.7953080">
        <ele>115.1</ele>
        <time>2018-12-30T13:07:09Z</time>
      </trkpt>
      <trkpt lat="39.8411740" lon="2.7953150">
        <ele>115.9</ele>
        <time>2018-12-30T13:07:10Z</time>
      </trkpt>
      <trkpt lat="39.8411390" lon="2.7953230">
        <ele>116.4</ele>
        <time>2018-12-30T13:07:11Z</time>
      </trkpt>
      <trkpt lat="39.8411030" lon="2.7953290">
        <ele>116.9</ele>
        <time>2018-12-30T13:07:12Z</time>
      </trkpt>
      <trkpt lat="39.8410650" lon="2.7953360">
        <ele>117.5</ele>
        <time>2018-12-30T13:07:13Z</time>
      </trkpt>
      <trkpt lat="39.8410250" lon="2.7953420">
        <ele>118.0</ele>
        <time>2018-12-30T13:07:14Z</time>
      </trkpt>
      <trkpt lat="39.8409820" lon="2.7953470">
        <ele>118.6</ele>
        <time>2018-12-30T13:07:15Z</time>
      </trkpt>
      <trkpt lat="39.8409410" lon="2.7953510">
        <ele>119.3</ele>
        <time>2018-12-30T13:07:16Z</time>
      </trkpt>
      <trkpt lat="39.8409020" lon="2.7953550">
        <ele>119.8</ele>
        <time>2018-12-30T13:07:17Z</time>
      </trkpt>
      <trkpt lat="39.8408620" lon="2.7953590">
        <ele>120.3</ele>
        <time>2018-12-30T13:07:18Z</time>
      </trkpt>
      <trkpt lat="39.8408190" lon="2.7953630">
        <ele>120.8</ele>
        <time>2018-12-30T13:07:19Z</time>
      </trkpt>
      <trkpt lat="39.8407740" lon="2.7953660">
        <ele>121.4</ele>
        <time>2018-12-30T13:07:20Z</time>
      </trkpt>
      <trkpt lat="39.8407330" lon="2.7953650">
        <ele>122.0</ele>
        <time>2018-12-30T13:07:21Z</time>
      </trkpt>
      <trkpt lat="39.8406920" lon="2.7953600">
        <ele>122.5</ele>
        <time>2018-12-30T13:07:22Z</time>
      </trkpt>
      <trkpt lat="39.8406520" lon="2.7953540">
        <ele>123.1</ele>
        <time>2018-12-30T13:07:23Z</time>
      </trkpt>
      <trkpt lat="39.8406140" lon="2.7953490">
        <ele>123.6</ele>
        <time>2018-12-30T13:07:24Z</time>
      </trkpt>
      <trkpt lat="39.8405750" lon="2.7953480">
        <ele>124.2</ele>
        <time>2018-12-30T13:07:25Z</time>
      </trkpt>
      <trkpt lat="39.8405360" lon="2.7953530">
        <ele>124.7</ele>
        <time>2018-12-30T13:07:26Z</time>
      </trkpt>
      <trkpt lat="39.8404950" lon="2.7953640">
        <ele>125.3</ele>
        <time>2018-12-30T13:07:27Z</time>
      </trkpt>
      <trkpt lat="39.8404530" lon="2.7953790">
        <ele>126.0</ele>
        <time>2018-12-30T13:07:28Z</time>
      </trkpt>
      <trkpt lat="39.8404120" lon="2.7953950">
        <ele>126.7</ele>
        <time>2018-12-30T13:07:29Z</time>
      </trkpt>
      <trkpt lat="39.8403740" lon="2.7954120">
        <ele>127.4</ele>
        <time>2018-12-30T13:07:30Z</time>
      </trkpt>
      <trkpt lat="39.8403380" lon="2.7954260">
        <ele>127.9</ele>
        <time>2018-12-30T13:07:31Z</time>
      </trkpt>
      <trkpt lat="39.8403010" lon="2.7954380">
        <ele>128.5</ele>
        <time>2018-12-30T13:07:32Z</time>
      </trkpt>
      <trkpt lat="39.8402640" lon="2.7954550">
        <ele>129.2</ele>
        <time>2018-12-30T13:07:33Z</time>
      </trkpt>
      <trkpt lat="39.8402270" lon="2.7954780">
        <ele>129.8</ele>
        <time>2018-12-30T13:07:34Z</time>
      </trkpt>
      <trkpt lat="39.8401880" lon="2.7955050">
        <ele>130.6</ele>
        <time>2018-12-30T13:07:35Z</time>
      </trkpt>
      <trkpt lat="39.8401490" lon="2.7955300">
        <ele>131.3</ele>
        <time>2018-12-30T13:07:36Z</time>
      </trkpt>
      <trkpt lat="39.8401110" lon="2.7955610">
        <ele>132.0</ele>
        <time>2018-12-30T13:07:37Z</time>
      </trkpt>
      <trkpt lat="39.8400740" lon="2.7955920">
        <ele>132.7</ele>
        <time>2018-12-30T13:07:38Z</time>
      </trkpt>
      <trkpt lat="39.8400390" lon="2.7956240">
        <ele>133.5</ele>
        <time>2018-12-30T13:07:39Z</time>
      </trkpt>
      <trkpt lat="39.8400040" lon="2.7956530">
        <ele>134.3</ele>
        <time>2018-12-30T13:07:40Z</time>
      </trkpt>
      <trkpt lat="39.8399700" lon="2.7956900">
        <ele>135.3</ele>
        <time>2018-12-30T13:07:41Z</time>
      </trkpt>
      <trkpt lat="39.8399390" lon="2.7957360">
        <ele>136.2</ele>
        <time>2018-12-30T13:07:42Z</time>
      </trkpt>
      <trkpt lat="39.8399100" lon="2.7957850">
        <ele>137.0</ele>
        <time>2018-12-30T13:07:43Z</time>
      </trkpt>
      <trkpt lat="39.8398820" lon="2.7958320">
        <ele>137.7</ele>
        <time>2018-12-30T13:07:44Z</time>
      </trkpt>
      <trkpt lat="39.8398540" lon="2.7958750">
        <ele>138.6</ele>
        <time>2018-12-30T13:07:45Z</time>
      </trkpt>
      <trkpt lat="39.8398270" lon="2.7959180">
        <ele>139.5</ele>
        <time>2018-12-30T13:07:46Z</time>
      </trkpt>
      <trkpt lat="39.8398000" lon="2.7959640">
        <ele>140.2</ele>
        <time>2018-12-30T13:07:47Z</time>
      </trkpt>
      <trkpt lat="39.8397770" lon="2.7960080">
        <ele>140.8</ele>
        <time>2018-12-30T13:07:48Z</time>
      </trkpt>
      <trkpt lat="39.8397550" lon="2.7960510">
        <ele>141.4</ele>
        <time>2018-12-30T13:07:49Z</time>
      </trkpt>
      <trkpt lat="39.8397300" lon="2.7960900">
        <ele>142.0</ele>
        <time>2018-12-30T13:07:50Z</time>
      </trkpt>
      <trkpt lat="39.8397000" lon="2.7961270">
        <ele>142.7</ele>
        <time>2018-12-30T13:07:51Z</time>
      </trkpt>
      <trkpt lat="39.8396670" lon="2.7961620">
        <ele>143.4</ele>
        <time>2018-12-30T13:07:52Z</time>
      </trkpt>
      <trkpt lat="39.8396360" lon="2.7961920">
        <ele>143.9</ele>
        <time>2018-12-30T13:07:53Z</time>
      </trkpt>
      <trkpt lat="39.8396080" lon="2.7962210">
        <ele>144.4</ele>
        <time>2018-12-30T13:07:54Z</time>
      </trkpt>
      <trkpt lat="39.8395810" lon="2.7962460">
        <ele>145.0</ele>
        <time>2018-12-30T13:07:55Z</time>
      </trkpt>
      <trkpt lat="39.8395540" lon="2.7962710">
        <ele>145.5</ele>
        <time>2018-12-30T13:07:56Z</time>
      </trkpt>
      <trkpt lat="39.8395280" lon="2.7962940">
        <ele>145.9</ele>
        <time>2018-12-30T13:07:57Z</time>
      </trkpt>
      <trkpt lat="39.8395030" lon="2.7963140">
        <ele>146.3</ele>
        <time>2018-12-30T13:07:58Z</time>
      </trkpt>
      <trkpt lat="39.8394780" lon="2.7963370">
        <ele>146.7</ele>
        <time>2018-12-30T13:07:59Z</time>
      </trkpt>
      <trkpt lat="39.8394530" lon="2.7963600">
        <ele>147.2</ele>
        <time>2018-12-30T13:08:00Z</time>
      </trkpt>
      <trkpt lat="39.8394270" lon="2.7963850">
        <ele>147.6</ele>
        <time>2018-12-30T13:08:01Z</time>
      </trkpt>
      <trkpt lat="39.8394030" lon="2.7964040">
        <ele>148.0</ele>
        <time>2018-12-30T13:08:02Z</time>
      </trkpt>
      <trkpt lat="39.8393760" lon="2.7964250">
        <ele>148.4</ele>
        <time>2018-12-30T13:08:03Z</time>
      </trkpt>
      <trkpt lat="39.8393490" lon="2.7964480">
        <ele>148.8</ele>
        <time>2018-12-30T13:08:04Z</time>
      </trkpt>
      <trkpt lat="39.8393200" lon="2.7964720">
        <ele>149.3</ele>
        <time>2018-12-30T13:08:05Z</time>
      </trkpt>
      <trkpt lat="39.8392900" lon="2.7964970">
        <ele>149.8</ele>
        <time>2018-12-30T13:08:06Z</time>
      </trkpt>
      <trkpt lat="39.8392580" lon="2.7965190">
        <ele>150.3</ele>
        <time>2018-12-30T13:08:07Z</time>
      </trkpt>
      <trkpt lat="39.8392280" lon="2.7965390">
        <ele>150.7</ele>
        <time>2018-12-30T13:08:08Z</time>
      </trkpt>
      <trkpt lat="39.8392000" lon="2.7965600">
        <ele>151.2</ele>
        <time>2018-12-30T13:08:09Z</time>
      </trkpt>
      <trkpt lat="39.8391730" lon="2.7965800">
        <ele>151.6</ele>
        <time>2018-12-30T13:08:10Z</time>
      </trkpt>
      <trkpt lat="39.8391450" lon="2.7966030">
        <ele>152.0</ele>
        <time>2018-12-30T13:08:11Z</time>
      </trkpt>
      <trkpt lat="39.8391160" lon="2.7966230">
        <ele>152.4</ele>
        <time>2018-12-30T13:08:12Z</time>
      </trkpt>
      <trkpt lat="39.8390870" lon="2.7966410">
        <ele>152.9</ele>
        <time>2018-12-30T13:08:13Z</time>
      </trkpt>
      <trkpt lat="39.8390590" lon="2.7966610">
        <ele>153.3</ele>
        <time>2018-12-30T13:08:14Z</time>
      </trkpt>
      <trkpt lat="39.8390310" lon="2.7966810">
        <ele>153.7</ele>
        <time>2018-12-30T13:08:15Z</time>
      </trkpt>
      <trkpt lat="39.8390030" lon="2.7967020">
        <ele>154.1</ele>
        <time>2018-12-30T13:08:16Z</time>
      </trkpt>
      <trkpt lat="39.8389760" lon="2.7967220">
        <ele>154.5</ele>
        <time>2018-12-30T13:08:17Z</time>
      </trkpt>
      <trkpt lat="39.8389500" lon="2.7967480">
        <ele>154.9</ele>
        <time>2018-12-30T13:08:18Z</time>
      </trkpt>
      <trkpt lat="39.8389250" lon="2.7967770">
        <ele>155.4</ele>
        <time>2018-12-30T13:08:19Z</time>
      </trkpt>
      <trkpt lat="39.8389010" lon="2.7968070">
        <ele>155.8</ele>
        <time>2018-12-30T13:08:20Z</time>
      </trkpt>
      <trkpt lat="39.8388760" lon="2.7968340">
        <ele>156.2</ele>
        <time>2018-12-30T13:08:21Z</time>
      </trkpt>
      <trkpt lat="39.8388500" lon="2.7968660">
        <ele>156.7</ele>
        <time>2018-12-30T13:08:22Z</time>
      </trkpt>
      <trkpt lat="39.8388200" lon="2.7968960">
        <ele>157.2</ele>
        <time>2018-12-30T13:08:23Z</time>
      </trkpt>
      <trkpt lat="39.8387900" lon="2.7969260">
        <ele>157.7</ele>
        <time>2018-12-30T13:08:24Z</time>
      </trkpt>
      <trkpt lat="39.8387610" lon="2.7969530">
        <ele>158.2</ele>
        <time>2018-12-30T13:08:25Z</time>
      </trkpt>
      <trkpt lat="39.8387340" lon="2.7969770">
        <ele>158.6</ele>
        <time>2018-12-30T13:08:26Z</time>
      </trkpt>
      <trkpt lat="39.8387070" lon="2.7969990">
        <ele>159.0</ele>
        <time>2018-12-30T13:08:27Z</time>
      </trkpt>
      <trkpt lat="39.8386820" lon="2.7970210">
        <ele>159.4</ele>
        <time>2018-12-30T13:08:28Z</time>
      </trkpt>
      <trkpt lat="39.8386570" lon="2.7970460">
        <ele>159.7</ele>
        <time>2018-12-30T13:08:29Z</time>
      </trkpt>
      <trkpt lat="39.8386310" lon="2.7970760">
        <ele>160.2</ele>
        <time>2018-12-30T13:08:30Z</time>
      </trkpt>
      <trkpt lat="39.8386030" lon="2.7971080">
        <ele>160.7</ele>
        <time>2018-12-30T13:08:31Z</time>
      </trkpt>
      <trkpt lat="39.8385760" lon="2.7971390">
        <ele>161.1</ele>
        <time>2018-12-30T13:08:32Z</time>
      </trkpt>
      <trkpt lat="39.8385480" lon="2.7971670">
        <ele>161.6</ele>
        <time>2018-12-30T13:08:33Z</time>
      </trkpt>
      <trkpt lat="39.8385220" lon="2.7971940">
        <ele>162.0</ele>
        <time>2018-12-30T13:08:34Z</time>
      </trkpt>
      <trkpt lat="39.8384970" lon="2.7972230">
        <ele>162.4</ele>
        <time>2018-12-30T13:08:35Z</time>
      </trkpt>
      <trkpt lat="39.8384750" lon="2.7972570">
        <ele>162.8</ele>
        <time>2018-12-30T13:08:36Z</time>
      </trkpt>
      <trkpt lat="39.8384540" lon="2.7972990">
        <ele>163.4</ele>
        <time>2018-12-30T13:08:37Z</time>
      </trkpt>
      <trkpt lat="39.8384330" lon="2.7973430">
        <ele>163.9</ele>
        <time>2018-12-30T13:08:38Z</time>
      </trkpt>
      <trkpt lat="39.8384150" lon="2.7973850">
        <ele>164.4</ele>
        <time>2018-12-30T13:08:39Z</time>
      </trkpt>
      <trkpt lat="39.8383980" lon="2.7974220">
        <ele>164.8</ele>
        <time>2018-12-30T13:08:40Z</time>
      </trkpt>
      <trkpt lat="39.8383840" lon="2.7974640">
        <ele>165.2</ele>
        <time>2018-12-30T13:08:41Z</time>
      </trkpt>
      <trkpt lat="39.8383690" lon="2.7975090">
        <ele>165.7</ele>
        <time>2018-12-30T13:08:42Z</time>
      </trkpt>
      <trkpt lat="39.8383550" lon="2.7975580">
        <ele>166.2</ele>
        <time>2018-12-30T13:08:43Z</time>
      </trkpt>
      <trkpt lat="39.8383390" lon="2.7976050">
        <ele>166.7</ele>
        <time>2018-12-30T13:08:44Z</time>
      </trkpt>
      <trkpt lat="39.8383230" lon="2.7976540">
        <ele>167.2</ele>
        <time>2018-12-30T13:08:45Z</time>
      </trkpt>
      <trkpt lat="39.8383050" lon="2.7977030">
        <ele>167.7</ele>
        <time>2018-12-30T13:08:46Z</time>
      </trkpt>
      <trkpt lat="39.8382880" lon="2.7977500">
        <ele>168.2</ele>
        <time>2018-12-30T13:08:47Z</time>
      </trkpt>
      <trkpt lat="39.8382640" lon="2.7977950">
        <ele>168.7</ele>
        <time>2018-12-30T13:08:48Z</time>
      </trkpt>
      <trkpt lat="39.8382380" lon="2.7978370">
        <ele>169.2</ele>
        <time>2018-12-30T13:08:49Z</time>
      </trkpt>
      <trkpt lat="39.8382080" lon="2.7978730">
        <ele>169.6</ele>
        <time>2018-12-30T13:08:50Z</time>
      </trkpt>
      <trkpt lat="39.8381800" lon="2.7979080">
        <ele>170.0</ele>
        <time>2018-12-30T13:08:51Z</time>
      </trkpt>
      <trkpt lat="39.8381510" lon="2.7979430">
        <ele>170.4</ele>
        <time>2018-12-30T13:08:52Z</time>
      </trkpt>
      <trkpt lat="39.8381220" lon="2.7979800">
        <ele>170.9</ele>
        <time>2018-12-30T13:08:53Z</time>
      </trkpt>
      <trkpt lat="39.8380940" lon="2.7980180">
        <ele>171.4</ele>
        <time>2018-12-30T13:08:54Z</time>
      </trkpt>
      <trkpt lat="39.8380670" lon="2.7980570">
        <ele>171.9</ele>
        <time>2018-12-30T13:08:55Z</time>
      </trkpt>
      <trkpt lat="39.8380440" lon="2.7981040">
        <ele>172.4</ele>
        <time>2018-12-30T13:08:56Z</time>
      </trkpt>
      <trkpt lat="39.8380250" lon="2.7981560">
        <ele>173.0</ele>
        <time>2018-12-30T13:08:57Z</time>
      </trkpt>
      <trkpt lat="39.8380100" lon="2.7982130">
        <ele>173.6</ele>
        <time>2018-12-30T13:08:58Z</time>
      </trkpt>
      <trkpt lat="39.8379970" lon="2.7982700">
        <ele>174.2</ele>
        <time>2018-12-30T13:08:59Z</time>
      </trkpt>
      <trkpt lat="39.8379860" lon="2.7983290">
        <ele>174.9</ele>
        <time>2018-12-30T13:09:00Z</time>
      </trkpt>
      <trkpt lat="39.8379760" lon="2.7983900">
        <ele>175.5</ele>
        <time>2018-12-30T13:09:01Z</time>
      </trkpt>
      <trkpt lat="39.8379670" lon="2.7984510">
        <ele>176.1</ele>
        <time>2018-12-30T13:09:02Z</time>
      </trkpt>
      <trkpt lat="39.8379610" lon="2.7985110">
        <ele>176.6</ele>
        <time>2018-12-30T13:09:03Z</time>
      </trkpt>
      <trkpt lat="39.8379600" lon="2.7985710">
        <ele>177.1</ele>
        <time>2018-12-30T13:09:04Z</time>
      </trkpt>
      <trkpt lat="39.8379630" lon="2.7986300">
        <ele>177.5</ele>
        <time>2018-12-30T13:09:05Z</time>
      </trkpt>
      <trkpt lat="39.8379680" lon="2.7986890">
        <ele>178.0</ele>
        <time>2018-12-30T13:09:06Z</time>
      </trkpt>
      <trkpt lat="39.8379760" lon="2.7987490">
        <ele>178.4</ele>
        <time>2018-12-30T13:09:07Z</time>
      </trkpt>
      <trkpt lat="39.8379900" lon="2.7988050">
        <ele>178.9</ele>
        <time>2018-12-30T13:09:08Z</time>
      </trkpt>
      <trkpt lat="39.8380140" lon="2.7988560">
        <ele>179.4</ele>
        <time>2018-12-30T13:09:09Z</time>
      </trkpt>
      <trkpt lat="39.8380470" lon="2.7988990">
        <ele>179.9</ele>
        <time>2018-12-30T13:09:10Z</time>
      </trkpt>
      <trkpt lat="39.8380830" lon="2.7989360">
        <ele>180.5</ele>
        <time>2018-12-30T13:09:11Z</time>
      </trkpt>
      <trkpt lat="39.8381220" lon="2.7989690">
        <ele>181.0</ele>
        <time>2018-12-30T13:09:12Z</time>
      </trkpt>
      <trkpt lat="39.8381600" lon="2.7989960">
        <ele>181.6</ele>
        <time>2018-12-30T13:09:13Z</time>
      </trkpt>
      <trkpt lat="39.8381980" lon="2.7990180">
        <ele>181.8</ele>
        <time>2018-12-30T13:09:14Z</time>
      </trkpt>
      <trkpt lat="39.8382390" lon="2.7990350">
        <ele>181.9</ele>
        <time>2018-12-30T13:09:15Z</time>
      </trkpt>
      <trkpt lat="39.8382790" lon="2.7990530">
        <ele>182.1</ele>
        <time>2018-12-30T13:09:16Z</time>
      </trkpt>
      <trkpt lat="39.8383190" lon="2.7990690">
        <ele>182.3</ele>
        <time>2018-12-30T13:09:17Z</time>
      </trkpt>
      <trkpt lat="39.8383570" lon="2.7990850">
        <ele>182.5</ele>
        <time>2018-12-30T13:09:18Z</time>
      </trkpt>
      <trkpt lat="39.8383930" lon="2.7990960">
        <ele>182.6</ele>
        <time>2018-12-30T13:09:19Z</time>
      </trkpt>
      <trkpt lat="39.8384280" lon="2.7991080">
        <ele>182.8</ele>
        <time>2018-12-30T13:09:20Z</time>
      </trkpt>
      <trkpt lat="39.8384690" lon="2.7991190">
        <ele>182.9</ele>
        <time>2018-12-30T13:09:21Z</time>
      </trkpt>
      <trkpt lat="39.8385150" lon="2.7991330">
        <ele>183.1</ele>
        <time>2018-12-30T13:09:22Z</time>
      </trkpt>
      <trkpt lat="39.8385630" lon="2.7991470">
        <ele>183.2</ele>
        <time>2018-12-30T13:09:23Z</time>
      </trkpt>
      <trkpt lat="39.8386070" lon="2.7991620">
        <ele>183.4</ele>
        <time>2018-12-30T13:09:24Z</time>
      </trkpt>
      <trkpt lat="39.8386500" lon="2.7991760">
        <ele>183.6</ele>
        <time>2018-12-30T13:09:25Z</time>
      </trkpt>
      <trkpt lat="39.8386950" lon="2.7991870">
        <ele>183.7</ele>
        <time>2018-12-30T13:09:26Z</time>
      </trkpt>
      <trkpt lat="39.8387440" lon="2.7991950">
        <ele>183.9</ele>
        <time>2018-12-30T13:09:27Z</time>
      </trkpt>
      <trkpt lat="39.8387920" lon="2.7992020">
        <ele>184.0</ele>
        <time>2018-12-30T13:09:28Z</time>
      </trkpt>
      <trkpt lat="39.8388420" lon="2.7992060">
        <ele>184.2</ele>
        <time>2018-12-30T13:09:29Z</time>
      </trkpt>
      <trkpt lat="39.8388920" lon="2.7992070">
        <ele>184.4</ele>
        <time>2018-12-30T13:09:30Z</time>
      </trkpt>
      <trkpt lat="39.8389450" lon="2.7992050">
        <ele>184.6</ele>
        <time>2018-12-30T13:09:31Z</time>
      </trkpt>
      <trkpt lat="39.8389970" lon="2.7992010">
        <ele>184.7</ele>
        <time>2018-12-30T13:09:32Z</time>
      </trkpt>
      <trkpt lat="39.8390490" lon="2.7991970">
        <ele>185.0</ele>
        <time>2018-12-30T13:09:33Z</time>
      </trkpt>
      <trkpt lat="39.8391000" lon="2.7991940">
        <ele>185.1</ele>
        <time>2018-12-30T13:09:34Z</time>
      </trkpt>
      <trkpt lat="39.8391510" lon="2.7991910">
        <ele>185.3</ele>
        <time>2018-12-30T13:09:35Z</time>
      </trkpt>
      <trkpt lat="39.8392010" lon="2.7991870">
        <ele>185.5</ele>
        <time>2018-12-30T13:09:36Z</time>
      </trkpt>
      <trkpt lat="39.8392520" lon="2.7991830">
        <ele>185.7</ele>
        <time>2018-12-30T13:09:37Z</time>
      </trkpt>
      <trkpt lat="39.8393020" lon="2.7991780">
        <ele>185.9</ele>
        <time>2018-12-30T13:09:38Z</time>
      </trkpt>
      <trkpt lat="39.8393510" lon="2.7991730">
        <ele>186.0</ele>
        <time>2018-12-30T13:09:39Z</time>
      </trkpt>
      <trkpt lat="39.8394000" lon="2.7991690">
        <ele>186.2</ele>
        <time>2018-12-30T13:09:40Z</time>
      </trkpt>
      <trkpt lat="39.8394480" lon="2.7991660">
        <ele>186.4</ele>
        <time>2018-12-30T13:09:41Z</time>
      </trkpt>
      <trkpt lat="39.8394960" lon="2.7991610">
        <ele>186.5</ele>
        <time>2018-12-30T13:09:42Z</time>
      </trkpt>
      <trkpt lat="39.8395420" lon="2.7991560">
        <ele>186.7</ele>
        <time>2018-12-30T13:09:43Z</time>
      </trkpt>
      <trkpt lat="39.8395900" lon="2.7991500">
        <ele>186.9</ele>
        <time>2018-12-30T13:09:44Z</time>
      </trkpt>
      <trkpt lat="39.8396380" lon="2.7991480">
        <ele>187.1</ele>
        <time>2018-12-30T13:09:45Z</time>
      </trkpt>
      <trkpt lat="39.8396880" lon="2.7991470">
        <ele>187.2</ele>
        <time>2018-12-30T13:09:46Z</time>
      </trkpt>
      <trkpt lat="39.8397400" lon="2.7991430">
        <ele>187.4</ele>
        <time>2018-12-30T13:09:47Z</time>
      </trkpt>
      <trkpt lat="39.8397920" lon="2.7991360">
        <ele>187.6</ele>
        <time>2018-12-30T13:09:48Z</time>
      </trkpt>
      <trkpt lat="39.8398440" lon="2.7991250">
        <ele>187.8</ele>
        <time>2018-12-30T13:09:49Z</time>
      </trkpt>
      <trkpt lat="39.8398990" lon="2.7991130">
        <ele>188.0</ele>
        <time>2018-12-30T13:09:50Z</time>
      </trkpt>
      <trkpt lat="39.8399540" lon="2.7991010">
        <ele>188.2</ele>
        <time>2018-12-30T13:09:51Z</time>
      </trkpt>
      <trkpt lat="39.8400090" lon="2.7990900">
        <ele>188.4</ele>
        <time>2018-12-30T13:09:52Z</time>
      </trkpt>
      <trkpt lat="39.8400610" lon="2.7990800">
        <ele>188.5</ele>
        <time>2018-12-30T13:09:53Z</time>
      </trkpt>
      <trkpt lat="39.8401120" lon="2.7990690">
        <ele>188.7</ele>
        <time>2018-12-30T13:09:54Z</time>
      </trkpt>
      <trkpt lat="39.8401610" lon="2.7990590">
        <ele>188.9</ele>
        <time>2018-12-30T13:09:55Z</time>
      </trkpt>
      <trkpt lat="39.8402090" lon="2.7990480">
        <ele>189.0</ele>
        <time>2018-12-30T13:09:56Z</time>
      </trkpt>
      <trkpt lat="39.8402540" lon="2.7990400">
        <ele>189.2</ele>
        <time>2018-12-30T13:09:57Z</time>
      </trkpt>
      <trkpt lat="39.8402990" lon="2.7990350">
        <ele>189.4</ele>
        <time>2018-12-30T13:09:58Z</time>
      </trkpt>
      <trkpt lat="39.8403420" lon="2.7990310">
        <ele>189.5</ele>
        <time>2018-12-30T13:09:59Z</time>
      </trkpt>
      <trkpt lat="39.8403870" lon="2.7990270">
        <ele>189.7</ele>
        <time>2018-12-30T13:10:00Z</time>
      </trkpt>
      <trkpt lat="39.8404320" lon="2.7990210">
        <ele>189.8</ele>
        <time>2018-12-30T13:10:01Z</time>
      </trkpt>
      <trkpt lat="39.8404760" lon="2.7990170">
        <ele>190.0</ele>
        <time>2018-12-30T13:10:02Z</time>
      </trkpt>
      <trkpt lat="39.8405200" lon="2.7990140">
        <ele>190.1</ele>
        <time>2018-12-30T13:10:03Z</time>
      </trkpt>
      <trkpt lat="39.8405640" lon="2.7990120">
        <ele>190.3</ele>
        <time>2018-12-30T13:10:04Z</time>
      </trkpt>
      <trkpt lat="39.8406060" lon="2.7990080">
        <ele>190.5</ele>
        <time>2018-12-30T13:10:05Z</time>
      </trkpt>
      <trkpt lat="39.8406480" lon="2.7989990">
        <ele>190.6</ele>
        <time>2018-12-30T13:10:06Z</time>
      </trkpt>
      <trkpt lat="39.8406880" lon="2.7989880">
        <ele>190.8</ele>
        <time>2018-12-30T13:10:07Z</time>
      </trkpt>
      <trkpt lat="39.8407280" lon="2.7989750">
        <ele>190.9</ele>
        <time>2018-12-30T13:10:08Z</time>
      </trkpt>
      <trkpt lat="39.8407680" lon="2.7989600">
        <ele>191.1</ele>
        <time>2018-12-30T13:10:09Z</time>
      </trkpt>
      <trkpt lat="39.8408090" lon="2.7989430">
        <ele>191.2</ele>
        <time>2018-12-30T13:10:10Z</time>
      </trkpt>
      <trkpt lat="39.8408510" lon="2.7989240">
        <ele>191.4</ele>
        <time>2018-12-30T13:10:11Z</time>
      </trkpt>
      <trkpt lat="39.8408930" lon="2.7989050">
        <ele>191.5</ele>
        <time>2018-12-30T13:10:12Z</time>
      </trkpt>
      <trkpt lat="39.8409340" lon="2.7988900">
        <ele>191.7</ele>
        <time>2018-12-30T13:10:13Z</time>
      </trkpt>
      <trkpt lat="39.8409750" lon="2.7988760">
        <ele>191.8</ele>
        <time>2018-12-30T13:10:14Z</time>
      </trkpt>
      <trkpt lat="39.8410160" lon="2.7988650">
        <ele>191.9</ele>
        <time>2018-12-30T13:10:15Z</time>
      </trkpt>
      <trkpt lat="39.8410570" lon="2.7988560">
        <ele>192.1</ele>
        <time>2018-12-30T13:10:16Z</time>
      </trkpt>
      <trkpt lat="39.8410970" lon="2.7988510">
        <ele>192.2</ele>
        <time>2018-12-30T13:10:17Z</time>
      </trkpt>
      <trkpt lat="39.8411370" lon="2.7988480">
        <ele>192.4</ele>
        <time>2018-12-30T13:10:18Z</time>
      </trkpt>
      <trkpt lat="39.8411750" lon="2.7988460">
        <ele>192.5</ele>
        <time>2018-12-30T13:10:19Z</time>
      </trkpt>
      <trkpt lat="39.8412120" lon="2.7988440">
        <ele>192.6</ele>
        <time>2018-12-30T13:10:20Z</time>
      </trkpt>
      <trkpt lat="39.8412500" lon="2.7988440">
        <ele>192.7</ele>
        <time>2018-12-30T13:10:21Z</time>
      </trkpt>
      <trkpt lat="39.8412880" lon="2.7988450">
        <ele>192.8</ele>
        <time>2018-12-30T13:10:22Z</time>
      </trkpt>
      <trkpt lat="39.8413280" lon="2.7988490">
        <ele>193.0</ele>
        <time>2018-12-30T13:10:23Z</time>
      </trkpt>
      <trkpt lat="39.8413700" lon="2.7988520">
        <ele>193.1</ele>
        <time>2018-12-30T13:10:24Z</time>
      </trkpt>
      <trkpt lat="39.8414130" lon="2.7988550">
        <ele>193.3</ele>
        <time>2018-12-30T13:10:25Z</time>
      </trkpt>
      <trkpt lat="39.8414540" lon="2.7988550">
        <ele>193.4</ele>
        <time>2018-12-30T13:10:26Z</time>
      </trkpt>
      <trkpt lat="39.8414930" lon="2.7988560">
        <ele>193.6</ele>
        <time>2018-12-30T13:10:27Z</time>
      </trkpt>
      <trkpt lat="39.8415310" lon="2.7988570">
        <ele>193.7</ele>
        <time>2018-12-30T13:10:28Z</time>
      </trkpt>
      <trkpt lat="39.8415690" lon="2.7988570">
        <ele>193.9</ele>
        <time>2018-12-30T13:10:29Z</time>
      </trkpt>
      <trkpt lat="39.8416080" lon="2.7988580">
        <ele>194.0</ele>
        <time>2018-12-30T13:10:30Z</time>
      </trkpt>
      <trkpt lat="39.8416450" lon="2.7988580">
        <ele>194.1</ele>
        <time>2018-12-30T13:10:31Z</time>
      </trkpt>
      <trkpt lat="39.8416820" lon="2.7988600">
        <ele>194.3</ele>
        <time>2018-12-30T13:10:32Z</time>
      </trkpt>
      <trkpt lat="39.8417180" lon="2.7988620">
        <ele>194.4</ele>
        <time>2018-12-30T13:10:33Z</time>
      </trkpt>
      <trkpt lat="39.8417520" lon="2.7988640">
        <ele>194.5</ele>
        <time>2018-12-30T13:10:34Z</time>
      </trkpt>
      <trkpt lat="39.8417880" lon="2.7988660">
        <ele>194.6</ele>
        <time>2018-12-30T13:10:35Z</time>
      </trkpt>
      <trkpt lat="39.8418200" lon="2.7988690">
        <ele>194.7</ele>
        <time>2018-12-30T13:10:36Z</time>
      </trkpt>
      <trkpt lat="39.8418550" lon="2.7988680">
        <ele>194.9</ele>
        <time>2018-12-30T13:10:37Z</time>
      </trkpt>
      <trkpt lat="39.8418890" lon="2.7988650">
        <ele>195.0</ele>
        <time>2018-12-30T13:10:38Z</time>
      </trkpt>
      <trkpt lat="39.8419250" lon="2.7988590">
        <ele>195.1</ele>
        <time>2018-12-30T13:10:39Z</time>
      </trkpt>
      <trkpt lat="39.8419600" lon="2.7988510">
        <ele>195.2</ele>
        <time>2018-12-30T13:10:40Z</time>
      </trkpt>
      <trkpt lat="39.8419960" lon="2.7988400">
        <ele>195.4</ele>
        <time>2018-12-30T13:10:41Z</time>
      </trkpt>
      <trkpt lat="39.8420310" lon="2.7988280">
        <ele>195.5</ele>
        <time>2018-12-30T13:10:42Z</time>
      </trkpt>
      <trkpt lat="39.8420660" lon="2.7988190">
        <ele>195.6</ele>
        <time>2018-12-30T13:10:43Z</time>
      </trkpt>
      <trkpt lat="39.8421010" lon="2.7988130">
        <ele>195.7</ele>
        <time>2018-12-30T13:10:44Z</time>
      </trkpt>
      <trkpt lat="39.8421380" lon="2.7988060">
        <ele>195.9</ele>
        <time>2018-12-30T13:10:45Z</time>
      </trkpt>
      <trkpt lat="39.8421730" lon="2.7988010">
        <ele>196.0</ele>
        <time>2018-12-30T13:10:46Z</time>
      </trkpt>
      <trkpt lat="39.8422090" lon="2.7988000">
        <ele>196.1</ele>
        <time>2018-12-30T13:10:47Z</time>
      </trkpt>
      <trkpt lat="39.8422440" lon="2.7988020">
        <ele>196.2</ele>
        <time>2018-12-30T13:10:48Z</time>
      </trkpt>
      <trkpt lat="39.8422780" lon="2.7988050">
        <ele>196.4</ele>
        <time>2018-12-30T13:10:49Z</time>
      </trkpt>
      <trkpt lat="39.8423100" lon="2.7988090">
        <ele>196.5</ele>
        <time>2018-12-30T13:10:50Z</time>
      </trkpt>
      <trkpt lat="39.8423430" lon="2.7988140">
        <ele>196.6</ele>
        <time>2018-12-30T13:10:51Z</time>
      </trkpt>
      <trkpt lat="39.8423740" lon="2.7988210">
        <ele>196.6</ele>
        <time>2018-12-30T13:10:52Z</time>
      </trkpt>
      <trkpt lat="39.8424070" lon="2.7988280">
        <ele>196.8</ele>
        <time>2018-12-30T13:10:53Z</time>
      </trkpt>
      <trkpt lat="39.8424360" lon="2.7988340">
        <ele>196.9</ele>
        <time>2018-12-30T13:10:54Z</time>
      </trkpt>
      <trkpt lat="39.8424690" lon="2.7988420">
        <ele>197.0</ele>
        <time>2018-12-30T13:10:55Z</time>
      </trkpt>
      <trkpt lat="39.8425020" lon="2.7988530">
        <ele>197.1</ele>
        <time>2018-12-30T13:10:56Z</time>
      </trkpt>
      <trkpt lat="39.8425370" lon="2.7988640">
        <ele>197.3</ele>
        <time>2018-12-30T13:10:57Z</time>
      </trkpt>
      <trkpt lat="39.8425610" lon="2.7988760">
        <ele>197.4</ele>
        <time>2018-12-30T13:10:58Z</time>
      </trkpt>
      <trkpt lat="39.8425870" lon="2.7988810">
        <ele>197.5</ele>
        <time>2018-12-30T13:10:59Z</time>
      </trkpt>
      <trkpt lat="39.8426100" lon="2.7988830">
        <ele>197.6</ele>
        <time>2018-12-30T13:11:00Z</time>
      </trkpt>
      <trkpt lat="39.8426450" lon="2.7988790">
        <ele>197.8</ele>
        <time>2018-12-30T13:11:01Z</time>
      </trkpt>
      <trkpt lat="39.8426750" lon="2.7988790">
        <ele>197.9</ele>
        <time>2018-12-30T13:11:02Z</time>
      </trkpt>
      <trkpt lat="39.8427090" lon="2.7988770">
        <ele>198.1</ele>
        <time>2018-12-30T13:11:03Z</time>
      </trkpt>
      <trkpt lat="39.8427430" lon="2.7988730">
        <ele>198.3</ele>
        <time>2018-12-30T13:11:04Z</time>
      </trkpt>
      <trkpt lat="39.8427800" lon="2.7988680">
        <ele>198.4</ele>
        <time>2018-12-30T13:11:05Z</time>
      </trkpt>
      <trkpt lat="39.8428120" lon="2.7988640">
        <ele>198.6</ele>
        <time>2018-12-30T13:11:06Z</time>
      </trkpt>
      <trkpt lat="39.8428370" lon="2.7988630">
        <ele>198.7</ele>
        <time>2018-12-30T13:11:07Z</time>
      </trkpt>
      <trkpt lat="39.8428600" lon="2.7988630">
        <ele>198.8</ele>
        <time>2018-12-30T13:11:08Z</time>
      </trkpt>
      <trkpt lat="39.8428850" lon="2.7988630">
        <ele>198.9</ele>
        <time>2018-12-30T13:11:09Z</time>
      </trkpt>
      <trkpt lat="39.8429170" lon="2.7988590">
        <ele>199.1</ele>
        <time>2018-12-30T13:11:10Z</time>
      </trkpt>
      <trkpt lat="39.8429490" lon="2.7988540">
        <ele>199.3</ele>
        <time>2018-12-30T13:11:11Z</time>
      </trkpt>
      <trkpt lat="39.8429820" lon="2.7988490">
        <ele>199.5</ele>
        <time>2018-12-30T13:11:12Z</time>
      </trkpt>
      <trkpt lat="39.8430150" lon="2.7988500">
        <ele>199.7</ele>
        <time>2018-12-30T13:11:13Z</time>
      </trkpt>
      <trkpt lat="39.8430520" lon="2.7988550">
        <ele>199.9</ele>
        <time>2018-12-30T13:11:14Z</time>
      </trkpt>
      <trkpt lat="39.8430880" lon="2.7988590">
        <ele>200.1</ele>
        <time>2018-12-30T13:11:15Z</time>
      </trkpt>
      <trkpt lat="39.8431210" lon="2.7988590">
        <ele>200.2</ele>
        <time>2018-12-30T13:11:16Z</time>
      </trkpt>
      <trkpt lat="39.8431490" lon="2.7988580">
        <ele>200.4</ele>
        <time>2018-12-30T13:11:17Z</time>
      </trkpt>
      <trkpt lat="39.8431730" lon="2.7988550">
        <ele>200.5</ele>
        <time>2018-12-30T13:11:18Z</time>
      </trkpt>
      <trkpt lat="39.8432000" lon="2.7988580">
        <ele>200.7</ele>
        <time>2018-12-30T13:11:19Z</time>
      </trkpt>
      <trkpt lat="39.8432250" lon="2.7988580">
        <ele>200.8</ele>
        <time>2018-12-30T13:11:20Z</time>
      </trkpt>
      <trkpt lat="39.8432540" lon="2.7988630">
        <ele>201.0</ele>
        <time>2018-12-30T13:11:21Z</time>
      </trkpt>
      <trkpt lat="39.8432800" lon="2.7988650">
        <ele>201.1</ele>
        <time>2018-12-30T13:11:22Z</time>
      </trkpt>
      <trkpt lat="39.8433090" lon="2.7988720">
        <ele>201.2</ele>
        <time>2018-12-30T13:11:23Z</time>
      </trkpt>
      <trkpt lat="39.8433370" lon="2.7988790">
        <ele>201.4</ele>
        <time>2018-12-30T13:11:24Z</time>
      </trkpt>
      <trkpt lat="39.8433640" lon="2.7988850">
        <ele>201.5</ele>
        <time>2018-12-30T13:11:25Z</time>
      </trkpt>
      <trkpt lat="39.8433910" lon="2.7988940">
        <ele>201.7</ele>
        <time>2018-12-30T13:11:26Z</time>
      </trkpt>
      <trkpt lat="39.8434170" lon="2.7989050">
        <ele>201.8</ele>
        <time>2018-12-30T13:11:27Z</time>
      </trkpt>
      <trkpt lat="39.8434430" lon="2.7989170">
        <ele>202.0</ele>
        <time>2018-12-30T13:11:28Z</time>
      </trkpt>
      <trkpt lat="39.8434690" lon="2.7989270">
        <ele>202.1</ele>
        <time>2018-12-30T13:11:29Z</time>
      </trkpt>
      <trkpt lat="39.8434880" lon="2.7989400">
        <ele>202.3</ele>
        <time>2018-12-30T13:11:30Z</time>
      </trkpt>
      <trkpt lat="39.8435060" lon="2.7989510">
        <ele>202.4</ele>
        <time>2018-12-30T13:11:31Z</time>
      </trkpt>
      <trkpt lat="39.8435260" lon="2.7989610">
        <ele>202.5</ele>
        <time>2018-12-30T13:11:32Z</time>
      </trkpt>
      <trkpt lat="39.8435490" lon="2.7989670">
        <ele>202.6</ele>
        <time>2018-12-30T13:11:33Z</time>
      </trkpt>
      <trkpt lat="39.8435720" lon="2.7989740">
        <ele>202.8</ele>
        <time>2018-12-30T13:11:34Z</time>
      </trkpt>
      <trkpt lat="39.8435900" lon="2.7989810">
        <ele>202.9</ele>
        <time>2018-12-30T13:11:35Z</time>
      </trkpt>
      <trkpt lat="39.8436080" lon="2.7989890">
        <ele>203.0</ele>
        <time>2018-12-30T13:11:36Z</time>
      </trkpt>
      <trkpt lat="39.8436240" lon="2.7989960">
        <ele>203.1</ele>
        <time>2018-12-30T13:11:37Z</time>
      </trkpt>
      <trkpt lat="39.8436460" lon="2.7990110">
        <ele>203.2</ele>
        <time>2018-12-30T13:11:38Z</time>
      </trkpt>
      <trkpt lat="39.8436710" lon="2.7990280">
        <ele>203.3</ele>
        <time>2018-12-30T13:11:39Z</time>
      </trkpt>
      <trkpt lat="39.8436970" lon="2.7990500">
        <ele>203.5</ele>
        <time>2018-12-30T13:11:40Z</time>
      </trkpt>
      <trkpt lat="39.8437190" lon="2.7990710">
        <ele>203.6</ele>
        <time>2018-12-30T13:11:41Z</time>
      </trkpt>
      <trkpt lat="39.8437430" lon="2.7990920">
        <ele>203.8</ele>
        <time>2018-12-30T13:11:42Z</time>
      </trkpt>
      <trkpt lat="39.8437650" lon="2.7991130">
        <ele>203.9</ele>
        <time>2018-12-30T13:11:43Z</time>
      </trkpt>
      <trkpt lat="39.8437870" lon="2.7991350">
        <ele>204.1</ele>
        <time>2018-12-30T13:11:44Z</time>
      </trkpt>
      <trkpt lat="39.8438050" lon="2.7991560">
        <ele>204.2</ele>
        <time>2018-12-30T13:11:45Z</time>
      </trkpt>
      <trkpt lat="39.8438220" lon="2.7991780">
        <ele>204.3</ele>
        <time>2018-12-30T13:11:46Z</time>
      </trkpt>
      <trkpt lat="39.8438380" lon="2.7991990">
        <ele>204.5</ele>
        <time>2018-12-30T13:11:47Z</time>
      </trkpt>
      <trkpt lat="39.8438540" lon="2.7992200">
        <ele>204.6</ele>
        <time>2018-12-30T13:11:48Z</time>
      </trkpt>
      <trkpt lat="39.8438700" lon="2.7992410">
        <ele>204.7</ele>
        <time>2018-12-30T13:11:49Z</time>
      </trkpt>
      <trkpt lat="39.8438850" lon="2.7992640">
        <ele>204.9</ele>
        <time>2018-12-30T13:11:50Z</time>
      </trkpt>
      <trkpt lat="39.8438920" lon="2.7992860">
        <ele>205.0</ele>
        <time>2018-12-30T13:11:51Z</time>
      </trkpt>
      <trkpt lat="39.8438950" lon="2.7993070">
        <ele>205.1</ele>
        <time>2018-12-30T13:11:52Z</time>
      </trkpt>
      <trkpt lat="39.8439020" lon="2.7993280">
        <ele>205.2</ele>
        <time>2018-12-30T13:11:53Z</time>
      </trkpt>
      <trkpt lat="39.8439160" lon="2.7993500">
        <ele>205.3</ele>
        <time>2018-12-30T13:11:54Z</time>
      </trkpt>
      <trkpt lat="39.8439330" lon="2.7993730">
        <ele>205.5</ele>
        <time>2018-12-30T13:11:55Z</time>
      </trkpt>
      <trkpt lat="39.8439470" lon="2.7993960">
        <ele>205.6</ele>
        <time>2018-12-30T13:11:56Z</time>
      </trkpt>
      <trkpt lat="39.8439600" lon="2.7994180">
        <ele>205.7</ele>
        <time>2018-12-30T13:11:57Z</time>
      </trkpt>
      <trkpt lat="39.8439750" lon="2.7994390">
        <ele>205.8</ele>
        <time>2018-12-30T13:11:58Z</time>
      </trkpt>
      <trkpt lat="39.8439830" lon="2.7994630">
        <ele>205.9</ele>
        <time>2018-12-30T13:11:59Z</time>
      </trkpt>
      <trkpt lat="39.8439900" lon="2.7994850">
        <ele>206.0</ele>
        <time>2018-12-30T13:12:00Z</time>
      </trkpt>
      <trkpt lat="39.8439890" lon="2.7995020">
        <ele>206.1</ele>
        <time>2018-12-30T13:12:01Z</time>
      </trkpt>
      <trkpt lat="39.8439970" lon="2.7995130">
        <ele>206.1</ele>
        <time>2018-12-30T13:12:02Z</time>
      </trkpt>
      <trkpt lat="39.8440040" lon="2.7995170">
        <ele>206.2</ele>
        <time>2018-12-30T13:12:03Z</time>
      </trkpt>
      <trkpt lat="39.8440140" lon="2.7995240">
        <ele>206.2</ele>
        <time>2018-12-30T13:12:04Z</time>
      </trkpt>
      <trkpt lat="39.8440230" lon="2.7995350">
        <ele>206.3</ele>
        <time>2018-12-30T13:12:05Z</time>
      </trkpt>
      <trkpt lat="39.8440300" lon="2.7995550">
        <ele>206.4</ele>
        <time>2018-12-30T13:12:06Z</time>
      </trkpt>
      <trkpt lat="39.8440350" lon="2.7995740">
        <ele>206.5</ele>
        <time>2018-12-30T13:12:07Z</time>
      </trkpt>
      <trkpt lat="39.8440490" lon="2.7995840">
        <ele>206.6</ele>
        <time>2018-12-30T13:12:08Z</time>
      </trkpt>
      <trkpt lat="39.8440820" lon="2.7995790">
        <ele>206.8</ele>
        <time>2018-12-30T13:12:09Z</time>
      </trkpt>
      <trkpt lat="39.8441400" lon="2.7995630">
        <ele>207.1</ele>
        <time>2018-12-30T13:12:10Z</time>
      </trkpt>
      <trkpt lat="39.8442000" lon="2.7995450">
        <ele>207.4</ele>
        <time>2018-12-30T13:12:11Z</time>
      </trkpt>
      <trkpt lat="39.8442540" lon="2.7995320">
        <ele>207.7</ele>
        <time>2018-12-30T13:12:12Z</time>
      </trkpt>
      <trkpt lat="39.8442950" lon="2.7995260">
        <ele>207.9</ele>
        <time>2018-12-30T13:12:13Z</time>
      </trkpt>
      <trkpt lat="39.8443450" lon="2.7995250">
        <ele>208.2</ele>
        <time>2018-12-30T13:12:14Z</time>
      </trkpt>
      <trkpt lat="39.8444000" lon="2.7995210">
        <ele>208.5</ele>
        <time>2018-12-30T13:12:15Z</time>
      </trkpt>
      <trkpt lat="39.8444510" lon="2.7995180">
        <ele>208.8</ele>
        <time>2018-12-30T13:12:16Z</time>
      </trkpt>
      <trkpt lat="39.8444920" lon="2.7995140">
        <ele>209.0</ele>
        <time>2018-12-30T13:12:17Z</time>
      </trkpt>
      <trkpt lat="39.8445290" lon="2.7995160">
        <ele>209.2</ele>
        <time>2018-12-30T13:12:18Z</time>
      </trkpt>
      <trkpt lat="39.8445710" lon="2.7995190">
        <ele>209.4</ele>
        <time>2018-12-30T13:12:19Z</time>
      </trkpt>
      <trkpt lat="39.8446140" lon="2.7995230">
        <ele>209.7</ele>
        <time>2018-12-30T13:12:20Z</time>
      </trkpt>
      <trkpt lat="39.8446540" lon="2.7995250">
        <ele>209.9</ele>
        <time>2018-12-30T13:12:21Z</time>
      </trkpt>
      <trkpt lat="39.8446920" lon="2.7995270">
        <ele>210.1</ele>
        <time>2018-12-30T13:12:22Z</time>
      </trkpt>
      <trkpt lat="39.8447280" lon="2.7995310">
        <ele>210.3</ele>
        <time>2018-12-30T13:12:23Z</time>
      </trkpt>
      <trkpt lat="39.8447630" lon="2.7995360">
        <ele>210.5</ele>
        <time>2018-12-30T13:12:24Z</time>
      </trkpt>
      <trkpt lat="39.8448010" lon="2.7995420">
        <ele>210.7</ele>
        <time>2018-12-30T13:12:25Z</time>
      </trkpt>
      <trkpt lat="39.8448410" lon="2.7995460">
        <ele>210.9</ele>
        <time>2018-12-30T13:12:26Z</time>
      </trkpt>
      <trkpt lat="39.8448870" lon="2.7995550">
        <ele>211.1</ele>
        <time>2018-12-30T13:12:27Z</time>
      </trkpt>
      <trkpt lat="39.8449310" lon="2.7995670">
        <ele>211.4</ele>
        <time>2018-12-30T13:12:28Z</time>
      </trkpt>
      <trkpt lat="39.8449750" lon="2.7995830">
        <ele>211.6</ele>
        <time>2018-12-30T13:12:29Z</time>
      </trkpt>
      <trkpt lat="39.8450140" lon="2.7995970">
        <ele>211.8</ele>
        <time>2018-12-30T13:12:30Z</time>
      </trkpt>
      <trkpt lat="39.8450500" lon="2.7996140">
        <ele>212.0</ele>
        <time>2018-12-30T13:12:31Z</time>
      </trkpt>
      <trkpt lat="39.8450830" lon="2.7996330">
        <ele>212.2</ele>
        <time>2018-12-30T13:12:32Z</time>
      </trkpt>
      <trkpt lat="39.8451140" lon="2.7996550">
        <ele>212.3</ele>
        <time>2018-12-30T13:12:33Z</time>
      </trkpt>
      <trkpt lat="39.8451460" lon="2.7996790">
        <ele>212.5</ele>
        <time>2018-12-30T13:12:34Z</time>
      </trkpt>
      <trkpt lat="39.8451770" lon="2.7997040">
        <ele>212.7</ele>
        <time>2018-12-30T13:12:35Z</time>
      </trkpt>
      <trkpt lat="39.8452080" lon="2.7997290">
        <ele>212.9</ele>
        <time>2018-12-30T13:12:36Z</time>
      </trkpt>
      <trkpt lat="39.8452380" lon="2.7997580">
        <ele>213.1</ele>
        <time>2018-12-30T13:12:37Z</time>
      </trkpt>
      <trkpt lat="39.8452680" lon="2.7997900">
        <ele>213.3</ele>
        <time>2018-12-30T13:12:38Z</time>
      </trkpt>
      <trkpt lat="39.8452980" lon="2.7998260">
        <ele>213.5</ele>
        <time>2018-12-30T13:12:39Z</time>
      </trkpt>
      <trkpt lat="39.8453260" lon="2.7998630">
        <ele>213.7</ele>
        <time>2018-12-30T13:12:40Z</time>
      </trkpt>
      <trkpt lat="39.8453520" lon="2.7999020">
        <ele>213.9</ele>
        <time>2018-12-30T13:12:41Z</time>
      </trkpt>
      <trkpt lat="39.8453720" lon="2.7999450">
        <ele>214.1</ele>
        <time>2018-12-30T13:12:42Z</time>
      </trkpt>
      <trkpt lat="39.8453860" lon="2.7999910">
        <ele>214.3</ele>
        <time>2018-12-30T13:12:43Z</time>
      </trkpt>
      <trkpt lat="39.8453910" lon="2.8000370">
        <ele>214.5</ele>
        <time>2018-12-30T13:12:44Z</time>
      </trkpt>
      <trkpt lat="39.8453890" lon="2.8000770">
        <ele>214.7</ele>
        <time>2018-12-30T13:12:45Z</time>
      </trkpt>
      <trkpt lat="39.8453760" lon="2.8001070">
        <ele>214.8</ele>
        <time>2018-12-30T13:12:46Z</time>
      </trkpt>
      <trkpt lat="39.8453540" lon="2.8001240">
        <ele>215.0</ele>
        <time>2018-12-30T13:12:47Z</time>
      </trkpt>
      <trkpt lat="39.8453280" lon="2.8001300">
        <ele>215.1</ele>
        <time>2018-12-30T13:12:48Z</time>
      </trkpt>
      <trkpt lat="39.8453020" lon="2.8001240">
        <ele>215.3</ele>
        <time>2018-12-30T13:12:49Z</time>
      </trkpt>
      <trkpt lat="39.8452780" lon="2.8001110">
        <ele>215.4</ele>
        <time>2018-12-30T13:12:50Z</time>
      </trkpt>
      <trkpt lat="39.8452540" lon="2.8000930">
        <ele>215.6</ele>
        <time>2018-12-30T13:12:51Z</time>
      </trkpt>
      <trkpt lat="39.8452290" lon="2.8000750">
        <ele>215.7</ele>
        <time>2018-12-30T13:12:52Z</time>
      </trkpt>
      <trkpt lat="39.8452030" lon="2.8000570">
        <ele>215.9</ele>
        <time>2018-12-30T13:12:53Z</time>
      </trkpt>
      <trkpt lat="39.8451750" lon="2.8000430">
        <ele>216.1</ele>
        <time>2018-12-30T13:12:54Z</time>
      </trkpt>
      <trkpt lat="39.8451480" lon="2.8000350">
        <ele>216.3</ele>
        <time>2018-12-30T13:12:55Z</time>
      </trkpt>
      <trkpt lat="39.8451190" lon="2.8000340">
        <ele>216.4</ele>
        <time>2018-12-30T13:12:56Z</time>
      </trkpt>
      <trkpt lat="39.8450910" lon="2.8000360">
        <ele>216.5</ele>
        <time>2018-12-30T13:12:57Z</time>
      </trkpt>
      <trkpt lat="39.8450620" lon="2.8000440">
        <ele>216.7</ele>
        <time>2018-12-30T13:12:58Z</time>
      </trkpt>
      <trkpt lat="39.8450340" lon="2.8000580">
        <ele>216.8</ele>
        <time>2018-12-30T13:12:59Z</time>
      </trkpt>
      <trkpt lat="39.8450080" lon="2.8000790">
        <ele>216.9</ele>
        <time>2018-12-30T13:13:00Z</time>
      </trkpt>
      <trkpt lat="39.8449850" lon="2.8001040">
        <ele>217.1</ele>
        <time>2018-12-30T13:13:01Z</time>
      </trkpt>
      <trkpt lat="39.8449730" lon="2.8001350">
        <ele>217.2</ele>
        <time>2018-12-30T13:13:02Z</time>
      </trkpt>
      <trkpt lat="39.8449710" lon="2.8001710">
        <ele>217.3</ele>
        <time>2018-12-30T13:13:03Z</time>
      </trkpt>
      <trkpt lat="39.8449800" lon="2.8002110">
        <ele>217.4</ele>
        <time>2018-12-30T13:13:04Z</time>
      </trkpt>
      <trkpt lat="39.8449930" lon="2.8002490">
        <ele>217.5</ele>
        <time>2018-12-30T13:13:05Z</time>
      </trkpt>
      <trkpt lat="39.8450110" lon="2.8002850">
        <ele>217.6</ele>
        <time>2018-12-30T13:13:06Z</time>
      </trkpt>
      <trkpt lat="39.8450300" lon="2.8003170">
        <ele>217.8</ele>
        <time>2018-12-30T13:13:07Z</time>
      </trkpt>
      <trkpt lat="39.8450500" lon="2.8003490">
        <ele>217.9</ele>
        <time>2018-12-30T13:13:08Z</time>
      </trkpt>
      <trkpt lat="39.8450720" lon="2.8003810">
        <ele>218.1</ele>
        <time>2018-12-30T13:13:09Z</time>
      </trkpt>
      <trkpt lat="39.8450960" lon="2.8004150">
        <ele>218.3</ele>
        <time>2018-12-30T13:13:10Z</time>
      </trkpt>
      <trkpt lat="39.8451200" lon="2.8004530">
        <ele>218.5</ele>
        <time>2018-12-30T13:13:11Z</time>
      </trkpt>
      <trkpt lat="39.8451400" lon="2.8004930">
        <ele>218.7</ele>
        <time>2018-12-30T13:13:12Z</time>
      </trkpt>
      <trkpt lat="39.8451600" lon="2.8005330">
        <ele>218.9</ele>
        <time>2018-12-30T13:13:13Z</time>
      </trkpt>
      <trkpt lat="39.8451760" lon="2.8005740">
        <ele>219.0</ele>
        <time>2018-12-30T13:13:14Z</time>
      </trkpt>
      <trkpt lat="39.8451920" lon="2.8006160">
        <ele>219.2</ele>
        <time>2018-12-30T13:13:15Z</time>
      </trkpt>
      <trkpt lat="39.8452070" lon="2.8006590">
        <ele>219.4</ele>
        <time>2018-12-30T13:13:16Z</time>
      </trkpt>
      <trkpt lat="39.8452230" lon="2.8007030">
        <ele>219.6</ele>
        <time>2018-12-30T13:13:17Z</time>
      </trkpt>
      <trkpt lat="39.8452400" lon="2.8007470">
        <ele>219.8</ele>
        <time>2018-12-30T13:13:18Z</time>
      </trkpt>
      <trkpt lat="39.8452570" lon="2.8007890">
        <ele>220.0</ele>
        <time>2018-12-30T13:13:19Z</time>
      </trkpt>
      <trkpt lat="39.8452730" lon="2.8008320">
        <ele>220.3</ele>
        <time>2018-12-30T13:13:20Z</time>
      </trkpt>
      <trkpt lat="39.8452890" lon="2.8008730">
        <ele>220.5</ele>
        <time>2018-12-30T13:13:21Z</time>
      </trkpt>
      <trkpt lat="39.8453060" lon="2.8009140">
        <ele>220.7</ele>
        <time>2018-12-30T13:13:22Z</time>
      </trkpt>
      <trkpt lat="39.8453230" lon="2.8009540">
        <ele>221.0</ele>
        <time>2018-12-30T13:13:23Z</time>
      </trkpt>
      <trkpt lat="39.8453410" lon="2.8009950">
        <ele>221.2</ele>
        <time>2018-12-30T13:13:24Z</time>
      </trkpt>
      <trkpt lat="39.8453580" lon="2.8010350">
        <ele>221.5</ele>
        <time>2018-12-30T13:13:25Z</time>
      </trkpt>
      <trkpt lat="39.8453750" lon="2.8010760">
        <ele>221.8</ele>
        <time>2018-12-30T13:13:26Z</time>
      </trkpt>
      <trkpt lat="39.8453930" lon="2.8011160">
        <ele>222.0</ele>
        <time>2018-12-30T13:13:27Z</time>
      </trkpt>
      <trkpt lat="39.8454110" lon="2.8011570">
        <ele>222.3</ele>
        <time>2018-12-30T13:13:28Z</time>
      </trkpt>
      <trkpt lat="39.8454300" lon="2.8011970">
        <ele>222.6</ele>
        <time>2018-12-30T13:13:29Z</time>
      </trkpt>
      <trkpt lat="39.8454480" lon="2.8012390">
        <ele>222.9</ele>
        <time>2018-12-30T13:13:30Z</time>
      </trkpt>
      <trkpt lat="39.8454660" lon="2.8012820">
        <ele>223.2</ele>
        <time>2018-12-30T13:13:31Z</time>
      </trkpt>
      <trkpt lat="39.8454860" lon="2.8013240">
        <ele>223.5</ele>
        <time>2018-12-30T13:13:32Z</time>
      </trkpt>
      <trkpt lat="39.8455060" lon="2.8013660">
        <ele>223.9</ele>
        <time>2018-12-30T13:13:33Z</time>
      </trkpt>
      <trkpt lat="39.8455240" lon="2.8014090">
        <ele>224.2</ele>
        <time>2018-12-30T13:13:34Z</time>
      </trkpt>
      <trkpt lat="39.8455400" lon="2.8014540">
        <ele>224.5</ele>
        <time>2018-12-30T13:13:35Z</time>
      </trkpt>
      <trkpt lat="39.8455550" lon="2.8014990">
        <ele>224.9</ele>
        <time>2018-12-30T13:13:36Z</time>
      </trkpt>
      <trkpt lat="39.8455710" lon="2.8015440">
        <ele>225.2</ele>
        <time>2018-12-30T13:13:37Z</time>
      </trkpt>
      <trkpt lat="39.8455860" lon="2.8015870">
        <ele>225.5</ele>
        <time>2018-12-30T13:13:38Z</time>
      </trkpt>
      <trkpt lat="39.8456020" lon="2.8016290">
        <ele>225.8</ele>
        <time>2018-12-30T13:13:39Z</time>
      </trkpt>
      <trkpt lat="39.8456170" lon="2.8016690">
        <ele>226.1</ele>
        <time>2018-12-30T13:13:40Z</time>
      </trkpt>
      <trkpt lat="39.8456280" lon="2.8017100">
        <ele>226.4</ele>
        <time>2018-12-30T13:13:41Z</time>
      </trkpt>
      <trkpt lat="39.8456330" lon="2.8017530">
        <ele>226.7</ele>
        <time>2018-12-30T13:13:42Z</time>
      </trkpt>
      <trkpt lat="39.8456330" lon="2.8017960">
        <ele>227.0</ele>
        <time>2018-12-30T13:13:43Z</time>
      </trkpt>
      <trkpt lat="39.8456320" lon="2.8018400">
        <ele>227.3</ele>
        <time>2018-12-30T13:13:44Z</time>
      </trkpt>
      <trkpt lat="39.8456360" lon="2.8018810">
        <ele>227.6</ele>
        <time>2018-12-30T13:13:45Z</time>
      </trkpt>
      <trkpt lat="39.8456430" lon="2.8019220">
        <ele>227.9</ele>
        <time>2018-12-30T13:13:46Z</time>
      </trkpt>
      <trkpt lat="39.8456470" lon="2.8019630">
        <ele>228.1</ele>
        <time>2018-12-30T13:13:47Z</time>
      </trkpt>
      <trkpt lat="39.8456500" lon="2.8020060">
        <ele>228.4</ele>
        <time>2018-12-30T13:13:48Z</time>
      </trkpt>
      <trkpt lat="39.8456530" lon="2.8020500">
        <ele>228.7</ele>
        <time>2018-12-30T13:13:49Z</time>
      </trkpt>
      <trkpt lat="39.8456570" lon="2.8020960">
        <ele>229.0</ele>
        <time>2018-12-30T13:13:50Z</time>
      </trkpt>
      <trkpt lat="39.8456600" lon="2.8021410">
        <ele>229.3</ele>
        <time>2018-12-30T13:13:51Z</time>
      </trkpt>
      <trkpt lat="39.8456600" lon="2.8021810">
        <ele>229.6</ele>
        <time>2018-12-30T13:13:52Z</time>
      </trkpt>
      <trkpt lat="39.8456580" lon="2.8022190">
        <ele>229.9</ele>
        <time>2018-12-30T13:13:53Z</time>
      </trkpt>
      <trkpt lat="39.8456490" lon="2.8022570">
        <ele>230.1</ele>
        <time>2018-12-30T13:13:54Z</time>
      </trkpt>
      <trkpt lat="39.8456290" lon="2.8022980">
        <ele>230.5</ele>
        <time>2018-12-30T13:13:55Z</time>
      </trkpt>
      <trkpt lat="39.8456040" lon="2.8023360">
        <ele>230.8</ele>
        <time>2018-12-30T13:13:56Z</time>
      </trkpt>
      <trkpt lat="39.8455800" lon="2.8023720">
        <ele>231.2</ele>
        <time>2018-12-30T13:13:57Z</time>
      </trkpt>
      <trkpt lat="39.8455590" lon="2.8024040">
        <ele>231.5</ele>
        <time>2018-12-30T13:13:58Z</time>
      </trkpt>
      <trkpt lat="39.8455380" lon="2.8024340">
        <ele>231.8</ele>
        <time>2018-12-30T13:13:59Z</time>
      </trkpt>
      <trkpt lat="39.8455150" lon="2.8024620">
        <ele>232.1</ele>
        <time>2018-12-30T13:14:00Z</time>
      </trkpt>
      <trkpt lat="39.8454940" lon="2.8024880">
        <ele>232.3</ele>
        <time>2018-12-30T13:14:01Z</time>
      </trkpt>
      <trkpt lat="39.8454730" lon="2.8025140">
        <ele>232.5</ele>
        <time>2018-12-30T13:14:02Z</time>
      </trkpt>
      <trkpt lat="39.8454530" lon="2.8025410">
        <ele>232.8</ele>
        <time>2018-12-30T13:14:03Z</time>
      </trkpt>
      <trkpt lat="39.8454330" lon="2.8025710">
        <ele>233.0</ele>
        <time>2018-12-30T13:14:04Z</time>
      </trkpt>
      <trkpt lat="39.8454140" lon="2.8026030">
        <ele>233.3</ele>
        <time>2018-12-30T13:14:05Z</time>
      </trkpt>
      <trkpt lat="39.8453960" lon="2.8026330">
        <ele>233.5</ele>
        <time>2018-12-30T13:14:06Z</time>
      </trkpt>
      <trkpt lat="39.8453820" lon="2.8026630">
        <ele>233.8</ele>
        <time>2018-12-30T13:14:07Z</time>
      </trkpt>
      <trkpt lat="39.8453700" lon="2.8026910">
        <ele>234.0</ele>
        <time>2018-12-30T13:14:08Z</time>
      </trkpt>
      <trkpt lat="39.8453590" lon="2.8027200">
        <ele>234.2</ele>
        <time>2018-12-30T13:14:09Z</time>
      </trkpt>
      <trkpt lat="39.8453480" lon="2.8027530">
        <ele>234.4</ele>
        <time>2018-12-30T13:14:10Z</time>
      </trkpt>
      <trkpt lat="39.8453370" lon="2.8027900">
        <ele>234.7</ele>
        <time>2018-12-30T13:14:11Z</time>
      </trkpt>
      <trkpt lat="39.8453300" lon="2.8028330">
        <ele>235.0</ele>
        <time>2018-12-30T13:14:12Z</time>
      </trkpt>
      <trkpt lat="39.8453270" lon="2.8028830">
        <ele>235.3</ele>
        <time>2018-12-30T13:14:13Z</time>
      </trkpt>
      <trkpt lat="39.8453280" lon="2.8029340">
        <ele>235.6</ele>
        <time>2018-12-30T13:14:14Z</time>
      </trkpt>
      <trkpt lat="39.8453280" lon="2.8029860">
        <ele>235.8</ele>
        <time>2018-12-30T13:14:15Z</time>
      </trkpt>
      <trkpt lat="39.8453280" lon="2.8030370">
        <ele>236.1</ele>
        <time>2018-12-30T13:14:16Z</time>
      </trkpt>
      <trkpt lat="39.8453280" lon="2.8030870">
        <ele>236.5</ele>
        <time>2018-12-30T13:14:17Z</time>
      </trkpt>
      <trkpt lat="39.8453270" lon="2.8031340">
        <ele>236.8</ele>
        <time>2018-12-30T13:14:18Z</time>
      </trkpt>
      <trkpt lat="39.8453270" lon="2.8031780">
        <ele>237.1</ele>
        <time>2018-12-30T13:14:19Z</time>
      </trkpt>
      <trkpt lat="39.8453250" lon="2.8032230">
        <ele>237.4</ele>
        <time>2018-12-30T13:14:20Z</time>
      </trkpt>
      <trkpt lat="39.8453250" lon="2.8032700">
        <ele>237.7</ele>
        <time>2018-12-30T13:14:21Z</time>
      </trkpt>
      <trkpt lat="39.8453240" lon="2.8033190">
        <ele>238.0</ele>
        <time>2018-12-30T13:14:22Z</time>
      </trkpt>
      <trkpt lat="39.8453240" lon="2.8033680">
        <ele>238.3</ele>
        <time>2018-12-30T13:14:23Z</time>
      </trkpt>
      <trkpt lat="39.8453230" lon="2.8034160">
        <ele>238.6</ele>
        <time>2018-12-30T13:14:24Z</time>
      </trkpt>
      <trkpt lat="39.8453220" lon="2.8034640">
        <ele>238.9</ele>
        <time>2018-12-30T13:14:25Z</time>
      </trkpt>
      <trkpt lat="39.8453220" lon="2.8035100">
        <ele>239.2</ele>
        <time>2018-12-30T13:14:26Z</time>
      </trkpt>
      <trkpt lat="39.8453220" lon="2.8035540">
        <ele>239.5</ele>
        <time>2018-12-30T13:14:27Z</time>
      </trkpt>
      <trkpt lat="39.8453220" lon="2.8035980">
        <ele>239.8</ele>
        <time>2018-12-30T13:14:28Z</time>
      </trkpt>
      <trkpt lat="39.8453230" lon="2.8036410">
        <ele>240.1</ele>
        <time>2018-12-30T13:14:29Z</time>
      </trkpt>
      <trkpt lat="39.8453250" lon="2.8036850">
        <ele>240.4</ele>
        <time>2018-12-30T13:14:30Z</time>
      </trkpt>
      <trkpt lat="39.8453260" lon="2.8037290">
        <ele>240.7</ele>
        <time>2018-12-30T13:14:31Z</time>
      </trkpt>
      <trkpt lat="39.8453270" lon="2.8037710">
        <ele>241.0</ele>
        <time>2018-12-30T13:14:32Z</time>
      </trkpt>
      <trkpt lat="39.8453300" lon="2.8038110">
        <ele>241.2</ele>
        <time>2018-12-30T13:14:33Z</time>
      </trkpt>
      <trkpt lat="39.8453340" lon="2.8038500">
        <ele>241.5</ele>
        <time>2018-12-30T13:14:34Z</time>
      </trkpt>
      <trkpt lat="39.8453370" lon="2.8038880">
        <ele>241.7</ele>
        <time>2018-12-30T13:14:35Z</time>
      </trkpt>
      <trkpt lat="39.8453420" lon="2.8039240">
        <ele>242.0</ele>
        <time>2018-12-30T13:14:36Z</time>
      </trkpt>
      <trkpt lat="39.8453480" lon="2.8039600">
        <ele>242.2</ele>
        <time>2018-12-30T13:14:37Z</time>
      </trkpt>
      <trkpt lat="39.8453540" lon="2.8039970">
        <ele>242.5</ele>
        <time>2018-12-30T13:14:38Z</time>
      </trkpt>
      <trkpt lat="39.8453480" lon="2.8040420">
        <ele>242.8</ele>
        <time>2018-12-30T13:14:39Z</time>
      </trkpt>
      <trkpt lat="39.8453350" lon="2.8040890">
        <ele>243.2</ele>
        <time>2018-12-30T13:14:40Z</time>
      </trkpt>
      <trkpt lat="39.8453170" lon="2.8041360">
        <ele>243.5</ele>
        <time>2018-12-30T13:14:41Z</time>
      </trkpt>
      <trkpt lat="39.8453040" lon="2.8041790">
        <ele>243.8</ele>
        <time>2018-12-30T13:14:42Z</time>
      </trkpt>
      <trkpt lat="39.8452920" lon="2.8042230">
        <ele>244.2</ele>
        <time>2018-12-30T13:14:43Z</time>
      </trkpt>
      <trkpt lat="39.8452750" lon="2.8042650">
        <ele>244.5</ele>
        <time>2018-12-30T13:14:44Z</time>
      </trkpt>
      <trkpt lat="39.8452520" lon="2.8043000">
        <ele>244.8</ele>
        <time>2018-12-30T13:14:45Z</time>
      </trkpt>
      <trkpt lat="39.8452230" lon="2.8043300">
        <ele>245.2</ele>
        <time>2018-12-30T13:14:46Z</time>
      </trkpt>
      <trkpt lat="39.8451920" lon="2.8043570">
        <ele>245.5</ele>
        <time>2018-12-30T13:14:47Z</time>
      </trkpt>
      <trkpt lat="39.8451620" lon="2.8043820">
        <ele>245.9</ele>
        <time>2018-12-30T13:14:48Z</time>
      </trkpt>
      <trkpt lat="39.8451330" lon="2.8044040">
        <ele>246.1</ele>
        <time>2018-12-30T13:14:49Z</time>
      </trkpt>
      <trkpt lat="39.8451030" lon="2.8044190">
        <ele>246.4</ele>
        <time>2018-12-30T13:14:50Z</time>
      </trkpt>
      <trkpt lat="39.8450680" lon="2.8044240">
        <ele>246.7</ele>
        <time>2018-12-30T13:14:51Z</time>
      </trkpt>
      <trkpt lat="39.8450330" lon="2.8044250">
        <ele>247.0</ele>
        <time>2018-12-30T13:14:52Z</time>
      </trkpt>
      <trkpt lat="39.8449950" lon="2.8044200">
        <ele>247.4</ele>
        <time>2018-12-30T13:14:53Z</time>
      </trkpt>
      <trkpt lat="39.8449570" lon="2.8044160">
        <ele>247.7</ele>
        <time>2018-12-30T13:14:54Z</time>
      </trkpt>
      <trkpt lat="39.8449160" lon="2.8044110">
        <ele>248.0</ele>
        <time>2018-12-30T13:14:55Z</time>
      </trkpt>
      <trkpt lat="39.8448770" lon="2.8044100">
        <ele>248.3</ele>
        <time>2018-12-30T13:14:56Z</time>
      </trkpt>
      <trkpt lat="39.8448400" lon="2.8044140">
        <ele>248.7</ele>
        <time>2018-12-30T13:14:57Z</time>
      </trkpt>
      <trkpt lat="39.8448000" lon="2.8044200">
        <ele>249.0</ele>
        <time>2018-12-30T13:14:58Z</time>
      </trkpt>
      <trkpt lat="39.8447580" lon="2.8044250">
        <ele>249.4</ele>
        <time>2018-12-30T13:14:59Z</time>
      </trkpt>
      <trkpt lat="39.8447120" lon="2.8044310">
        <ele>249.9</ele>
        <time>2018-12-30T13:15:00Z</time>
      </trkpt>
      <trkpt lat="39.8446690" lon="2.8044360">
        <ele>250.2</ele>
        <time>2018-12-30T13:15:01Z</time>
      </trkpt>
      <trkpt lat="39.8446270" lon="2.8044420">
        <ele>250.6</ele>
        <time>2018-12-30T13:15:02Z</time>
      </trkpt>
      <trkpt lat="39.8445810" lon="2.8044450">
        <ele>251.0</ele>
        <time>2018-12-30T13:15:03Z</time>
      </trkpt>
      <trkpt lat="39.8445310" lon="2.8044460">
        <ele>251.5</ele>
        <time>2018-12-30T13:15:04Z</time>
      </trkpt>
      <trkpt lat="39.8444810" lon="2.8044460">
        <ele>251.9</ele>
        <time>2018-12-30T13:15:05Z</time>
      </trkpt>
      <trkpt lat="39.8444350" lon="2.8044430">
        <ele>252.4</ele>
        <time>2018-12-30T13:15:06Z</time>
      </trkpt>
      <trkpt lat="39.8443870" lon="2.8044360">
        <ele>252.7</ele>
        <time>2018-12-30T13:15:07Z</time>
      </trkpt>
      <trkpt lat="39.8443330" lon="2.8044250">
        <ele>253.1</ele>
        <time>2018-12-30T13:15:08Z</time>
      </trkpt>
      <trkpt lat="39.8442800" lon="2.8044130">
        <ele>253.6</ele>
        <time>2018-12-30T13:15:09Z</time>
      </trkpt>
      <trkpt lat="39.8442320" lon="2.8044060">
        <ele>254.0</ele>
        <time>2018-12-30T13:15:10Z</time>
      </trkpt>
      <trkpt lat="39.8441890" lon="2.8044020">
        <ele>254.4</ele>
        <time>2018-12-30T13:15:11Z</time>
      </trkpt>
      <trkpt lat="39.8441490" lon="2.8043980">
        <ele>254.7</ele>
        <time>2018-12-30T13:15:12Z</time>
      </trkpt>
      <trkpt lat="39.8441120" lon="2.8043920">
        <ele>255.1</ele>
        <time>2018-12-30T13:15:13Z</time>
      </trkpt>
      <trkpt lat="39.8440730" lon="2.8043810">
        <ele>255.4</ele>
        <time>2018-12-30T13:15:14Z</time>
      </trkpt>
      <trkpt lat="39.8440350" lon="2.8043690">
        <ele>255.8</ele>
        <time>2018-12-30T13:15:15Z</time>
      </trkpt>
      <trkpt lat="39.8439960" lon="2.8043580">
        <ele>256.1</ele>
        <time>2018-12-30T13:15:16Z</time>
      </trkpt>
      <trkpt lat="39.8439580" lon="2.8043480">
        <ele>256.5</ele>
        <time>2018-12-30T13:15:17Z</time>
      </trkpt>
      <trkpt lat="39.8439230" lon="2.8043360">
        <ele>256.8</ele>
        <time>2018-12-30T13:15:18Z</time>
      </trkpt>
      <trkpt lat="39.8438920" lon="2.8043110">
        <ele>257.0</ele>
        <time>2018-12-30T13:15:19Z</time>
      </trkpt>
      <trkpt lat="39.8438500" lon="2.8042650">
        <ele>257.5</ele>
        <time>2018-12-30T13:15:20Z</time>
      </trkpt>
      <trkpt lat="39.8438020" lon="2.8042020">
        <ele>258.1</ele>
        <time>2018-12-30T13:15:21Z</time>
      </trkpt>
      <trkpt lat="39.8437500" lon="2.8041360">
        <ele>258.7</ele>
        <time>2018-12-30T13:15:22Z</time>
      </trkpt>
      <trkpt lat="39.8437120" lon="2.8040790">
        <ele>259.2</ele>
        <time>2018-12-30T13:15:23Z</time>
      </trkpt>
      <trkpt lat="39.8436870" lon="2.8040240">
        <ele>259.6</ele>
        <time>2018-12-30T13:15:24Z</time>
      </trkpt>
      <trkpt lat="39.8436740" lon="2.8039710">
        <ele>260.0</ele>
        <time>2018-12-30T13:15:25Z</time>
      </trkpt>
      <trkpt lat="39.8436670" lon="2.8039170">
        <ele>260.3</ele>
        <time>2018-12-30T13:15:26Z</time>
      </trkpt>
      <trkpt lat="39.8436600" lon="2.8038650">
        <ele>260.6</ele>
        <time>2018-12-30T13:15:27Z</time>
      </trkpt>
      <trkpt lat="39.8436490" lon="2.8038150">
        <ele>260.9</ele>
        <time>2018-12-30T13:15:28Z</time>
      </trkpt>
      <trkpt lat="39.8436370" lon="2.8037660">
        <ele>261.2</ele>
        <time>2018-12-30T13:15:29Z</time>
      </trkpt>
      <trkpt lat="39.8436120" lon="2.8037230">
        <ele>261.6</ele>
        <time>2018-12-30T13:15:30Z</time>
      </trkpt>
      <trkpt lat="39.8435790" lon="2.8036870">
        <ele>262.0</ele>
        <time>2018-12-30T13:15:31Z</time>
      </trkpt>
      <trkpt lat="39.8435400" lon="2.8036620">
        <ele>262.4</ele>
        <time>2018-12-30T13:15:32Z</time>
      </trkpt>
      <trkpt lat="39.8435020" lon="2.8036490">
        <ele>262.6</ele>
        <time>2018-12-30T13:15:33Z</time>
      </trkpt>
      <trkpt lat="39.8434630" lon="2.8036460">
        <ele>262.9</ele>
        <time>2018-12-30T13:15:34Z</time>
      </trkpt>
      <trkpt lat="39.8434250" lon="2.8036490">
        <ele>263.2</ele>
        <time>2018-12-30T13:15:35Z</time>
      </trkpt>
      <trkpt lat="39.8433910" lon="2.8036530">
        <ele>263.5</ele>
        <time>2018-12-30T13:15:36Z</time>
      </trkpt>
      <trkpt lat="39.8433620" lon="2.8036580">
        <ele>263.7</ele>
        <time>2018-12-30T13:15:37Z</time>
      </trkpt>
      <trkpt lat="39.8433310" lon="2.8036660">
        <ele>263.9</ele>
        <time>2018-12-30T13:15:38Z</time>
      </trkpt>
      <trkpt lat="39.8433000" lon="2.8036760">
        <ele>264.2</ele>
        <time>2018-12-30T13:15:39Z</time>
      </trkpt>
      <trkpt lat="39.8432690" lon="2.8036860">
        <ele>264.5</ele>
        <time>2018-12-30T13:15:40Z</time>
      </trkpt>
      <trkpt lat="39.8432400" lon="2.8036990">
        <ele>264.7</ele>
        <time>2018-12-30T13:15:41Z</time>
      </trkpt>
      <trkpt lat="39.8432130" lon="2.8037140">
        <ele>265.0</ele>
        <time>2018-12-30T13:15:42Z</time>
      </trkpt>
      <trkpt lat="39.8431840" lon="2.8037320">
        <ele>265.2</ele>
        <time>2018-12-30T13:15:43Z</time>
      </trkpt>
      <trkpt lat="39.8431540" lon="2.8037540">
        <ele>265.5</ele>
        <time>2018-12-30T13:15:44Z</time>
      </trkpt>
      <trkpt lat="39.8431220" lon="2.8037760">
        <ele>265.8</ele>
        <time>2018-12-30T13:15:45Z</time>
      </trkpt>
      <trkpt lat="39.8430880" lon="2.8037970">
        <ele>266.1</ele>
        <time>2018-12-30T13:15:46Z</time>
      </trkpt>
      <trkpt lat="39.8430550" lon="2.8038140">
        <ele>266.4</ele>
        <time>2018-12-30T13:15:47Z</time>
      </trkpt>
      <trkpt lat="39.8430240" lon="2.8038300">
        <ele>266.7</ele>
        <time>2018-12-30T13:15:48Z</time>
      </trkpt>
      <trkpt lat="39.8429950" lon="2.8038480">
        <ele>266.9</ele>
        <time>2018-12-30T13:15:49Z</time>
      </trkpt>
      <trkpt lat="39.8429670" lon="2.8038650">
        <ele>267.2</ele>
        <time>2018-12-30T13:15:50Z</time>
      </trkpt>
      <trkpt lat="39.8429410" lon="2.8038830">
        <ele>267.4</ele>
        <time>2018-12-30T13:15:51Z</time>
      </trkpt>
      <trkpt lat="39.8429160" lon="2.8038990">
        <ele>267.6</ele>
        <time>2018-12-30T13:15:52Z</time>
      </trkpt>
      <trkpt lat="39.8428910" lon="2.8039180">
        <ele>267.8</ele>
        <time>2018-12-30T13:15:53Z</time>
      </trkpt>
      <trkpt lat="39.8428640" lon="2.8039410">
        <ele>268.1</ele>
        <time>2018-12-30T13:15:54Z</time>
      </trkpt>
      <trkpt lat="39.8428390" lon="2.8039670">
        <ele>268.4</ele>
        <time>2018-12-30T13:15:55Z</time>
      </trkpt>
      <trkpt lat="39.8428150" lon="2.8039970">
        <ele>268.6</ele>
        <time>2018-12-30T13:15:56Z</time>
      </trkpt>
      <trkpt lat="39.8427910" lon="2.8040280">
        <ele>268.8</ele>
        <time>2018-12-30T13:15:57Z</time>
      </trkpt>
      <trkpt lat="39.8427660" lon="2.8040590">
        <ele>269.0</ele>
        <time>2018-12-30T13:15:58Z</time>
      </trkpt>
      <trkpt lat="39.8427390" lon="2.8040900">
        <ele>269.3</ele>
        <time>2018-12-30T13:15:59Z</time>
      </trkpt>
      <trkpt lat="39.8427160" lon="2.8041210">
        <ele>269.6</ele>
        <time>2018-12-30T13:16:00Z</time>
      </trkpt>
      <trkpt lat="39.8426920" lon="2.8041510">
        <ele>269.8</ele>
        <time>2018-12-30T13:16:01Z</time>
      </trkpt>
      <trkpt lat="39.8426690" lon="2.8041820">
        <ele>270.1</ele>
        <time>2018-12-30T13:16:02Z</time>
      </trkpt>
      <trkpt lat="39.8426440" lon="2.8042130">
        <ele>270.4</ele>
        <time>2018-12-30T13:16:03Z</time>
      </trkpt>
      <trkpt lat="39.8426210" lon="2.8042430">
        <ele>270.7</ele>
        <time>2018-12-30T13:16:04Z</time>
      </trkpt>
      <trkpt lat="39.8425960" lon="2.8042750">
        <ele>271.0</ele>
        <time>2018-12-30T13:16:05Z</time>
      </trkpt>
      <trkpt lat="39.8425730" lon="2.8043070">
        <ele>271.2</ele>
        <time>2018-12-30T13:16:06Z</time>
      </trkpt>
      <trkpt lat="39.8425500" lon="2.8043370">
        <ele>271.5</ele>
        <time>2018-12-30T13:16:07Z</time>
      </trkpt>
      <trkpt lat="39.8425300" lon="2.8043680">
        <ele>271.7</ele>
        <time>2018-12-30T13:16:08Z</time>
      </trkpt>
      <trkpt lat="39.8425100" lon="2.8043980">
        <ele>271.9</ele>
        <time>2018-12-30T13:16:09Z</time>
      </trkpt>
      <trkpt lat="39.8424880" lon="2.8044280">
        <ele>272.1</ele>
        <time>2018-12-30T13:16:10Z</time>
      </trkpt>
      <trkpt lat="39.8424650" lon="2.8044570">
        <ele>272.4</ele>
        <time>2018-12-30T13:16:11Z</time>
      </trkpt>
      <trkpt lat="39.8424410" lon="2.8044850">
        <ele>272.7</ele>
        <time>2018-12-30T13:16:12Z</time>
      </trkpt>
      <trkpt lat="39.8424180" lon="2.8045130">
        <ele>273.0</ele>
        <time>2018-12-30T13:16:13Z</time>
      </trkpt>
      <trkpt lat="39.8423950" lon="2.8045420">
        <ele>273.3</ele>
        <time>2018-12-30T13:16:14Z</time>
      </trkpt>
      <trkpt lat="39.8423710" lon="2.8045700">
        <ele>273.5</ele>
        <time>2018-12-30T13:16:15Z</time>
      </trkpt>
      <trkpt lat="39.8423470" lon="2.8045970">
        <ele>273.8</ele>
        <time>2018-12-30T13:16:16Z</time>
      </trkpt>
      <trkpt lat="39.8423220" lon="2.8046240">
        <ele>274.0</ele>
        <time>2018-12-30T13:16:17Z</time>
      </trkpt>
      <trkpt lat="39.8422970" lon="2.8046500">
        <ele>274.3</ele>
        <time>2018-12-30T13:16:18Z</time>
      </trkpt>
      <trkpt lat="39.8422730" lon="2.8046760">
        <ele>274.5</ele>
        <time>2018-12-30T13:16:19Z</time>
      </trkpt>
      <trkpt lat="39.8422510" lon="2.8047020">
        <ele>274.7</ele>
        <time>2018-12-30T13:16:20Z</time>
      </trkpt>
      <trkpt lat="39.8422290" lon="2.8047290">
        <ele>275.0</ele>
        <time>2018-12-30T13:16:21Z</time>
      </trkpt>
      <trkpt lat="39.8422060" lon="2.8047550">
        <ele>275.2</ele>
        <time>2018-12-30T13:16:22Z</time>
      </trkpt>
      <trkpt lat="39.8421810" lon="2.8047790">
        <ele>275.5</ele>
        <time>2018-12-30T13:16:23Z</time>
      </trkpt>
      <trkpt lat="39.8421570" lon="2.8048040">
        <ele>275.7</ele>
        <time>2018-12-30T13:16:24Z</time>
      </trkpt>
      <trkpt lat="39.8421330" lon="2.8048280">
        <ele>276.0</ele>
        <time>2018-12-30T13:16:25Z</time>
      </trkpt>
      <trkpt lat="39.8421090" lon="2.8048520">
        <ele>276.2</ele>
        <time>2018-12-30T13:16:26Z</time>
      </trkpt>
      <trkpt lat="39.8420850" lon="2.8048740">
        <ele>276.4</ele>
        <time>2018-12-30T13:16:27Z</time>
      </trkpt>
      <trkpt lat="39.8420600" lon="2.8048960">
        <ele>276.7</ele>
        <time>2018-12-30T13:16:28Z</time>
      </trkpt>
      <trkpt lat="39.8420350" lon="2.8049170">
        <ele>276.9</ele>
        <time>2018-12-30T13:16:29Z</time>
      </trkpt>
      <trkpt lat="39.8420100" lon="2.8049350">
        <ele>277.1</ele>
        <time>2018-12-30T13:16:30Z</time>
      </trkpt>
      <trkpt lat="39.8419850" lon="2.8049530">
        <ele>277.4</ele>
        <time>2018-12-30T13:16:31Z</time>
      </trkpt>
      <trkpt lat="39.8419600" lon="2.8049700">
        <ele>277.6</ele>
        <time>2018-12-30T13:16:32Z</time>
      </trkpt>
      <trkpt lat="39.8419350" lon="2.8049860">
        <ele>277.9</ele>
        <time>2018-12-30T13:16:33Z</time>
      </trkpt>
      <trkpt lat="39.8419110" lon="2.8050010">
        <ele>278.1</ele>
        <time>2018-12-30T13:16:34Z</time>
      </trkpt>
      <trkpt lat="39.8418850" lon="2.8050150">
        <ele>278.3</ele>
        <time>2018-12-30T13:16:35Z</time>
      </trkpt>
      <trkpt lat="39.8418590" lon="2.8050290">
        <ele>278.6</ele>
        <time>2018-12-30T13:16:36Z</time>
      </trkpt>
      <trkpt lat="39.8418330" lon="2.8050410">
        <ele>278.8</ele>
        <time>2018-12-30T13:16:37Z</time>
      </trkpt>
      <trkpt lat="39.8418080" lon="2.8050530">
        <ele>279.0</ele>
        <time>2018-12-30T13:16:38Z</time>
      </trkpt>
      <trkpt lat="39.8417830" lon="2.8050650">
        <ele>279.2</ele>
        <time>2018-12-30T13:16:39Z</time>
      </trkpt>
      <trkpt lat="39.8417580" lon="2.8050800">
        <ele>279.4</ele>
        <time>2018-12-30T13:16:40Z</time>
      </trkpt>
      <trkpt lat="39.8417330" lon="2.8050960">
        <ele>279.7</ele>
        <time>2018-12-30T13:16:41Z</time>
      </trkpt>
      <trkpt lat="39.8417070" lon="2.8051110">
        <ele>279.9</ele>
        <time>2018-12-30T13:16:42Z</time>
      </trkpt>
      <trkpt lat="39.8416810" lon="2.8051230">
        <ele>280.1</ele>
        <time>2018-12-30T13:16:43Z</time>
      </trkpt>
      <trkpt lat="39.8416540" lon="2.8051350">
        <ele>280.3</ele>
        <time>2018-12-30T13:16:44Z</time>
      </trkpt>
      <trkpt lat="39.8416280" lon="2.8051490">
        <ele>280.5</ele>
        <time>2018-12-30T13:16:45Z</time>
      </trkpt>
      <trkpt lat="39.8416010" lon="2.8051630">
        <ele>280.7</ele>
        <time>2018-12-30T13:16:46Z</time>
      </trkpt>
      <trkpt lat="39.8415750" lon="2.8051770">
        <ele>281.0</ele>
        <time>2018-12-30T13:16:47Z</time>
      </trkpt>
      <trkpt lat="39.8415490" lon="2.8051900">
        <ele>281.2</ele>
        <time>2018-12-30T13:16:48Z</time>
      </trkpt>
      <trkpt lat="39.8415230" lon="2.8052020">
        <ele>281.4</ele>
        <time>2018-12-30T13:16:49Z</time>
      </trkpt>
      <trkpt lat="39.8414970" lon="2.8052150">
        <ele>281.6</ele>
        <time>2018-12-30T13:16:50Z</time>
      </trkpt>
      <trkpt lat="39.8414710" lon="2.8052300">
        <ele>281.9</ele>
        <time>2018-12-30T13:16:51Z</time>
      </trkpt>
      <trkpt lat="39.8414430" lon="2.8052430">
        <ele>282.1</ele>
        <time>2018-12-30T13:16:52Z</time>
      </trkpt>
      <trkpt lat="39.8414160" lon="2.8052570">
        <ele>282.3</ele>
        <time>2018-12-30T13:16:53Z</time>
      </trkpt>
      <trkpt lat="39.8413920" lon="2.8052700">
        <ele>282.5</ele>
        <time>2018-12-30T13:16:54Z</time>
      </trkpt>
      <trkpt lat="39.8413670" lon="2.8052840">
        <ele>282.7</ele>
        <time>2018-12-30T13:16:55Z</time>
      </trkpt>
      <trkpt lat="39.8413420" lon="2.8052980">
        <ele>283.0</ele>
        <time>2018-12-30T13:16:56Z</time>
      </trkpt>
      <trkpt lat="39.8413160" lon="2.8053130">
        <ele>283.2</ele>
        <time>2018-12-30T13:16:57Z</time>
      </trkpt>
      <trkpt lat="39.8412900" lon="2.8053270">
        <ele>283.4</ele>
        <time>2018-12-30T13:16:58Z</time>
      </trkpt>
      <trkpt lat="39.8412640" lon="2.8053400">
        <ele>283.7</ele>
        <time>2018-12-30T13:16:59Z</time>
      </trkpt>
      <trkpt lat="39.8412380" lon="2.8053510">
        <ele>283.9</ele>
        <time>2018-12-30T13:17:00Z</time>
      </trkpt>
      <trkpt lat="39.8412120" lon="2.8053580">
        <ele>284.1</ele>
        <time>2018-12-30T13:17:01Z</time>
      </trkpt>
      <trkpt lat="39.8411830" lon="2.8053650">
        <ele>284.4</ele>
        <time>2018-12-30T13:17:02Z</time>
      </trkpt>
      <trkpt lat="39.8411520" lon="2.8053710">
        <ele>284.6</ele>
        <time>2018-12-30T13:17:03Z</time>
      </trkpt>
      <trkpt lat="39.8411200" lon="2.8053780">
        <ele>284.9</ele>
        <time>2018-12-30T13:17:04Z</time>
      </trkpt>
      <trkpt lat="39.8410900" lon="2.8053860">
        <ele>285.1</ele>
        <time>2018-12-30T13:17:05Z</time>
      </trkpt>
      <trkpt lat="39.8410610" lon="2.8053910">
        <ele>285.4</ele>
        <time>2018-12-30T13:17:06Z</time>
      </trkpt>
      <trkpt lat="39.8410330" lon="2.8053960">
        <ele>285.6</ele>
        <time>2018-12-30T13:17:07Z</time>
      </trkpt>
      <trkpt lat="39.8410040" lon="2.8054020">
        <ele>285.8</ele>
        <time>2018-12-30T13:17:08Z</time>
      </trkpt>
      <trkpt lat="39.8409760" lon="2.8054090">
        <ele>286.1</ele>
        <time>2018-12-30T13:17:09Z</time>
      </trkpt>
      <trkpt lat="39.8409470" lon="2.8054130">
        <ele>286.3</ele>
        <time>2018-12-30T13:17:10Z</time>
      </trkpt>
      <trkpt lat="39.8409170" lon="2.8054150">
        <ele>286.5</ele>
        <time>2018-12-30T13:17:11Z</time>
      </trkpt>
      <trkpt lat="39.8408860" lon="2.8054130">
        <ele>286.8</ele>
        <time>2018-12-30T13:17:12Z</time>
      </trkpt>
      <trkpt lat="39.8408520" lon="2.8054060">
        <ele>287.1</ele>
        <time>2018-12-30T13:17:13Z</time>
      </trkpt>
      <trkpt lat="39.8408200" lon="2.8053960">
        <ele>287.3</ele>
        <time>2018-12-30T13:17:14Z</time>
      </trkpt>
      <trkpt lat="39.8407890" lon="2.8053870">
        <ele>287.6</ele>
        <time>2018-12-30T13:17:15Z</time>
      </trkpt>
      <trkpt lat="39.8407600" lon="2.8053820">
        <ele>287.8</ele>
        <time>2018-12-30T13:17:16Z</time>
      </trkpt>
      <trkpt lat="39.8407320" lon="2.8053790">
        <ele>288.1</ele>
        <time>2018-12-30T13:17:17Z</time>
      </trkpt>
      <trkpt lat="39.8407050" lon="2.8053760">
        <ele>288.3</ele>
        <time>2018-12-30T13:17:18Z</time>
      </trkpt>
      <trkpt lat="39.8406750" lon="2.8053670">
        <ele>288.6</ele>
        <time>2018-12-30T13:17:19Z</time>
      </trkpt>
      <trkpt lat="39.8406430" lon="2.8053570">
        <ele>288.8</ele>
        <time>2018-12-30T13:17:20Z</time>
      </trkpt>
      <trkpt lat="39.8406100" lon="2.8053450">
        <ele>289.1</ele>
        <time>2018-12-30T13:17:21Z</time>
      </trkpt>
      <trkpt lat="39.8405810" lon="2.8053380">
        <ele>289.3</ele>
        <time>2018-12-30T13:17:22Z</time>
      </trkpt>
      <trkpt lat="39.8405520" lon="2.8053320">
        <ele>289.6</ele>
        <time>2018-12-30T13:17:23Z</time>
      </trkpt>
      <trkpt lat="39.8405240" lon="2.8053270">
        <ele>289.8</ele>
        <time>2018-12-30T13:17:24Z</time>
      </trkpt>
      <trkpt lat="39.8404970" lon="2.8053240">
        <ele>290.0</ele>
        <time>2018-12-30T13:17:25Z</time>
      </trkpt>
      <trkpt lat="39.8404690" lon="2.8053250">
        <ele>290.2</ele>
        <time>2018-12-30T13:17:26Z</time>
      </trkpt>
      <trkpt lat="39.8404380" lon="2.8053270">
        <ele>290.5</ele>
        <time>2018-12-30T13:17:27Z</time>
      </trkpt>
      <trkpt lat="39.8404060" lon="2.8053310">
        <ele>290.8</ele>
        <time>2018-12-30T13:17:28Z</time>
      </trkpt>
      <trkpt lat="39.8403740" lon="2.8053360">
        <ele>291.0</ele>
        <time>2018-12-30T13:17:29Z</time>
      </trkpt>
      <trkpt lat="39.8403440" lon="2.8053430">
        <ele>291.2</ele>
        <time>2018-12-30T13:17:30Z</time>
      </trkpt>
      <trkpt lat="39.8403140" lon="2.8053490">
        <ele>291.4</ele>
        <time>2018-12-30T13:17:31Z</time>
      </trkpt>
      <trkpt lat="39.8402840" lon="2.8053530">
        <ele>291.7</ele>
        <time>2018-12-30T13:17:32Z</time>
      </trkpt>
      <trkpt lat="39.8402540" lon="2.8053590">
        <ele>291.9</ele>
        <time>2018-12-30T13:17:33Z</time>
      </trkpt>
      <trkpt lat="39.8402220" lon="2.8053640">
        <ele>292.2</ele>
        <time>2018-12-30T13:17:34Z</time>
      </trkpt>
      <trkpt lat="39.8401890" lon="2.8053720">
        <ele>292.4</ele>
        <time>2018-12-30T13:17:35Z</time>
      </trkpt>
      <trkpt lat="39.8401570" lon="2.8053790">
        <ele>292.7</ele>
        <time>2018-12-30T13:17:36Z</time>
      </trkpt>
      <trkpt lat="39.8401240" lon="2.8053860">
        <ele>292.9</ele>
        <time>2018-12-30T13:17:37Z</time>
      </trkpt>
      <trkpt lat="39.8400940" lon="2.8053910">
        <ele>293.2</ele>
        <time>2018-12-30T13:17:38Z</time>
      </trkpt>
      <trkpt lat="39.8400640" lon="2.8053960">
        <ele>293.4</ele>
        <time>2018-12-30T13:17:39Z</time>
      </trkpt>
      <trkpt lat="39.8400350" lon="2.8054020">
        <ele>293.6</ele>
        <time>2018-12-30T13:17:40Z</time>
      </trkpt>
      <trkpt lat="39.8400050" lon="2.8054090">
        <ele>293.9</ele>
        <time>2018-12-30T13:17:41Z</time>
      </trkpt>
      <trkpt lat="39.8399750" lon="2.8054160">
        <ele>294.1</ele>
        <time>2018-12-30T13:17:42Z</time>
      </trkpt>
      <trkpt lat="39.8399440" lon="2.8054210">
        <ele>294.4</ele>
        <time>2018-12-30T13:17:43Z</time>
      </trkpt>
      <trkpt lat="39.8399140" lon="2.8054260">
        <ele>294.6</ele>
        <time>2018-12-30T13:17:44Z</time>
      </trkpt>
      <trkpt lat="39.8398840" lon="2.8054310">
        <ele>294.9</ele>
        <time>2018-12-30T13:17:45Z</time>
      </trkpt>
      <trkpt lat="39.8398560" lon="2.8054390">
        <ele>295.1</ele>
        <time>2018-12-30T13:17:46Z</time>
      </trkpt>
      <trkpt lat="39.8398290" lon="2.8054490">
        <ele>295.3</ele>
        <time>2018-12-30T13:17:47Z</time>
      </trkpt>
      <trkpt lat="39.8398040" lon="2.8054560">
        <ele>295.5</ele>
        <time>2018-12-30T13:17:48Z</time>
      </trkpt>
      <trkpt lat="39.8397750" lon="2.8054620">
        <ele>295.8</ele>
        <time>2018-12-30T13:17:49Z</time>
      </trkpt>
      <trkpt lat="39.8397450" lon="2.8054660">
        <ele>296.0</ele>
        <time>2018-12-30T13:17:50Z</time>
      </trkpt>
      <trkpt lat="39.8397110" lon="2.8054710">
        <ele>296.2</ele>
        <time>2018-12-30T13:17:51Z</time>
      </trkpt>
      <trkpt lat="39.8396730" lon="2.8054790">
        <ele>296.5</ele>
        <time>2018-12-30T13:17:52Z</time>
      </trkpt>
      <trkpt lat="39.8396330" lon="2.8054870">
        <ele>296.8</ele>
        <time>2018-12-30T13:17:53Z</time>
      </trkpt>
      <trkpt lat="39.8395940" lon="2.8054940">
        <ele>297.1</ele>
        <time>2018-12-30T13:17:54Z</time>
      </trkpt>
      <trkpt lat="39.8395580" lon="2.8054970">
        <ele>297.4</ele>
        <time>2018-12-30T13:17:55Z</time>
      </trkpt>
      <trkpt lat="39.8395240" lon="2.8055000">
        <ele>297.7</ele>
        <time>2018-12-30T13:17:56Z</time>
      </trkpt>
      <trkpt lat="39.8394910" lon="2.8055040">
        <ele>298.0</ele>
        <time>2018-12-30T13:17:57Z</time>
      </trkpt>
      <trkpt lat="39.8394600" lon="2.8055090">
        <ele>298.2</ele>
        <time>2018-12-30T13:17:58Z</time>
      </trkpt>
      <trkpt lat="39.8394290" lon="2.8055150">
        <ele>298.5</ele>
        <time>2018-12-30T13:17:59Z</time>
      </trkpt>
      <trkpt lat="39.8393960" lon="2.8055240">
        <ele>298.7</ele>
        <time>2018-12-30T13:18:00Z</time>
      </trkpt>
      <trkpt lat="39.8393620" lon="2.8055340">
        <ele>299.0</ele>
        <time>2018-12-30T13:18:01Z</time>
      </trkpt>
      <trkpt lat="39.8393290" lon="2.8055430">
        <ele>299.3</ele>
        <time>2018-12-30T13:18:02Z</time>
      </trkpt>
      <trkpt lat="39.8392980" lon="2.8055510">
        <ele>299.6</ele>
        <time>2018-12-30T13:18:03Z</time>
      </trkpt>
      <trkpt lat="39.8392670" lon="2.8055600">
        <ele>299.8</ele>
        <time>2018-12-30T13:18:04Z</time>
      </trkpt>
      <trkpt lat="39.8392350" lon="2.8055700">
        <ele>300.0</ele>
        <time>2018-12-30T13:18:05Z</time>
      </trkpt>
      <trkpt lat="39.8392020" lon="2.8055820">
        <ele>300.3</ele>
        <time>2018-12-30T13:18:06Z</time>
      </trkpt>
      <trkpt lat="39.8391690" lon="2.8055920">
        <ele>300.5</ele>
        <time>2018-12-30T13:18:07Z</time>
      </trkpt>
      <trkpt lat="39.8391390" lon="2.8056030">
        <ele>300.7</ele>
        <time>2018-12-30T13:18:08Z</time>
      </trkpt>
      <trkpt lat="39.8391100" lon="2.8056160">
        <ele>301.0</ele>
        <time>2018-12-30T13:18:09Z</time>
      </trkpt>
      <trkpt lat="39.8390840" lon="2.8056310">
        <ele>301.2</ele>
        <time>2018-12-30T13:18:10Z</time>
      </trkpt>
      <trkpt lat="39.8390600" lon="2.8056460">
        <ele>301.4</ele>
        <time>2018-12-30T13:18:11Z</time>
      </trkpt>
      <trkpt lat="39.8390340" lon="2.8056610">
        <ele>301.7</ele>
        <time>2018-12-30T13:18:12Z</time>
      </trkpt>
      <trkpt lat="39.8390090" lon="2.8056770">
        <ele>301.9</ele>
        <time>2018-12-30T13:18:13Z</time>
      </trkpt>
      <trkpt lat="39.8389830" lon="2.8056940">
        <ele>302.1</ele>
        <time>2018-12-30T13:18:14Z</time>
      </trkpt>
      <trkpt lat="39.8389560" lon="2.8057120">
        <ele>302.4</ele>
        <time>2018-12-30T13:18:15Z</time>
      </trkpt>
      <trkpt lat="39.8389280" lon="2.8057320">
        <ele>302.6</ele>
        <time>2018-12-30T13:18:16Z</time>
      </trkpt>
      <trkpt lat="39.8388990" lon="2.8057510">
        <ele>302.8</ele>
        <time>2018-12-30T13:18:17Z</time>
      </trkpt>
      <trkpt lat="39.8388700" lon="2.8057690">
        <ele>303.0</ele>
        <time>2018-12-30T13:18:18Z</time>
      </trkpt>
      <trkpt lat="39.8388420" lon="2.8057850">
        <ele>303.2</ele>
        <time>2018-12-30T13:18:19Z</time>
      </trkpt>
      <trkpt lat="39.8388160" lon="2.8057990">
        <ele>303.4</ele>
        <time>2018-12-30T13:18:20Z</time>
      </trkpt>
      <trkpt lat="39.8387890" lon="2.8058150">
        <ele>303.6</ele>
        <time>2018-12-30T13:18:21Z</time>
      </trkpt>
      <trkpt lat="39.8387620" lon="2.8058330">
        <ele>303.8</ele>
        <time>2018-12-30T13:18:22Z</time>
      </trkpt>
      <trkpt lat="39.8387340" lon="2.8058530">
        <ele>304.0</ele>
        <time>2018-12-30T13:18:23Z</time>
      </trkpt>
      <trkpt lat="39.8387060" lon="2.8058710">
        <ele>304.3</ele>
        <time>2018-12-30T13:18:24Z</time>
      </trkpt>
      <trkpt lat="39.8386790" lon="2.8058880">
        <ele>304.5</ele>
        <time>2018-12-30T13:18:25Z</time>
      </trkpt>
      <trkpt lat="39.8386520" lon="2.8059040">
        <ele>304.7</ele>
        <time>2018-12-30T13:18:26Z</time>
      </trkpt>
      <trkpt lat="39.8386250" lon="2.8059220">
        <ele>304.9</ele>
        <time>2018-12-30T13:18:27Z</time>
      </trkpt>
      <trkpt lat="39.8385950" lon="2.8059380">
        <ele>305.1</ele>
        <time>2018-12-30T13:18:28Z</time>
      </trkpt>
      <trkpt lat="39.8385640" lon="2.8059540">
        <ele>305.3</ele>
        <time>2018-12-30T13:18:29Z</time>
      </trkpt>
      <trkpt lat="39.8385340" lon="2.8059670">
        <ele>305.5</ele>
        <time>2018-12-30T13:18:30Z</time>
      </trkpt>
      <trkpt lat="39.8385050" lon="2.8059800">
        <ele>305.7</ele>
        <time>2018-12-30T13:18:31Z</time>
      </trkpt>
      <trkpt lat="39.8384760" lon="2.8059940">
        <ele>305.9</ele>
        <time>2018-12-30T13:18:32Z</time>
      </trkpt>
      <trkpt lat="39.8384470" lon="2.8060080">
        <ele>306.1</ele>
        <time>2018-12-30T13:18:33Z</time>
      </trkpt>
      <trkpt lat="39.8384200" lon="2.8060200">
        <ele>306.3</ele>
        <time>2018-12-30T13:18:34Z</time>
      </trkpt>
      <trkpt lat="39.8383930" lon="2.8060320">
        <ele>306.5</ele>
        <time>2018-12-30T13:18:35Z</time>
      </trkpt>
      <trkpt lat="39.8383640" lon="2.8060440">
        <ele>306.7</ele>
        <time>2018-12-30T13:18:36Z</time>
      </trkpt>
      <trkpt lat="39.8383350" lon="2.8060570">
        <ele>306.9</ele>
        <time>2018-12-30T13:18:37Z</time>
      </trkpt>
      <trkpt lat="39.8383050" lon="2.8060700">
        <ele>307.2</ele>
        <time>2018-12-30T13:18:38Z</time>
      </trkpt>
      <trkpt lat="39.8382760" lon="2.8060830">
        <ele>307.4</ele>
        <time>2018-12-30T13:18:39Z</time>
      </trkpt>
      <trkpt lat="39.8382460" lon="2.8060960">
        <ele>307.6</ele>
        <time>2018-12-30T13:18:40Z</time>
      </trkpt>
      <trkpt lat="39.8382180" lon="2.8061090">
        <ele>307.8</ele>
        <time>2018-12-30T13:18:41Z</time>
      </trkpt>
      <trkpt lat="39.8381900" lon="2.8061210">
        <ele>308.0</ele>
        <time>2018-12-30T13:18:42Z</time>
      </trkpt>
      <trkpt lat="39.8381620" lon="2.8061340">
        <ele>308.2</ele>
        <time>2018-12-30T13:18:43Z</time>
      </trkpt>
      <trkpt lat="39.8381330" lon="2.8061470">
        <ele>308.4</ele>
        <time>2018-12-30T13:18:44Z</time>
      </trkpt>
      <trkpt lat="39.8381040" lon="2.8061590">
        <ele>308.7</ele>
        <time>2018-12-30T13:18:45Z</time>
      </trkpt>
      <trkpt lat="39.8380740" lon="2.8061700">
        <ele>308.9</ele>
        <time>2018-12-30T13:18:46Z</time>
      </trkpt>
      <trkpt lat="39.8380460" lon="2.8061810">
        <ele>309.1</ele>
        <time>2018-12-30T13:18:47Z</time>
      </trkpt>
      <trkpt lat="39.8380180" lon="2.8061910">
        <ele>309.3</ele>
        <time>2018-12-30T13:18:48Z</time>
      </trkpt>
      <trkpt lat="39.8379910" lon="2.8062030">
        <ele>309.6</ele>
        <time>2018-12-30T13:18:49Z</time>
      </trkpt>
      <trkpt lat="39.8379620" lon="2.8062150">
        <ele>309.8</ele>
        <time>2018-12-30T13:18:50Z</time>
      </trkpt>
      <trkpt lat="39.8379350" lon="2.8062280">
        <ele>310.0</ele>
        <time>2018-12-30T13:18:51Z</time>
      </trkpt>
      <trkpt lat="39.8379080" lon="2.8062410">
        <ele>310.2</ele>
        <time>2018-12-30T13:18:52Z</time>
      </trkpt>
      <trkpt lat="39.8378810" lon="2.8062540">
        <ele>310.5</ele>
        <time>2018-12-30T13:18:53Z</time>
      </trkpt>
      <trkpt lat="39.8378540" lon="2.8062650">
        <ele>310.7</ele>
        <time>2018-12-30T13:18:54Z</time>
      </trkpt>
      <trkpt lat="39.8378270" lon="2.8062760">
        <ele>310.9</ele>
        <time>2018-12-30T13:18:55Z</time>
      </trkpt>
      <trkpt lat="39.8378000" lon="2.8062890">
        <ele>311.1</ele>
        <time>2018-12-30T13:18:56Z</time>
      </trkpt>
      <trkpt lat="39.8377740" lon="2.8063050">
        <ele>311.3</ele>
        <time>2018-12-30T13:18:57Z</time>
      </trkpt>
      <trkpt lat="39.8377450" lon="2.8063190">
        <ele>311.5</ele>
        <time>2018-12-30T13:18:58Z</time>
      </trkpt>
      <trkpt lat="39.8377160" lon="2.8063340">
        <ele>311.8</ele>
        <time>2018-12-30T13:18:59Z</time>
      </trkpt>
      <trkpt lat="39.8376860" lon="2.8063490">
        <ele>312.0</ele>
        <time>2018-12-30T13:19:00Z</time>
      </trkpt>
      <trkpt lat="39.8376560" lon="2.8063690">
        <ele>312.3</ele>
        <time>2018-12-30T13:19:01Z</time>
      </trkpt>
      <trkpt lat="39.8376270" lon="2.8063900">
        <ele>312.5</ele>
        <time>2018-12-30T13:19:02Z</time>
      </trkpt>
      <trkpt lat="39.8375970" lon="2.8064140">
        <ele>312.8</ele>
        <time>2018-12-30T13:19:03Z</time>
      </trkpt>
      <trkpt lat="39.8375660" lon="2.8064380">
        <ele>313.1</ele>
        <time>2018-12-30T13:19:04Z</time>
      </trkpt>
      <trkpt lat="39.8375330" lon="2.8064620">
        <ele>313.4</ele>
        <time>2018-12-30T13:19:05Z</time>
      </trkpt>
      <trkpt lat="39.8374990" lon="2.8064820">
        <ele>313.7</ele>
        <time>2018-12-30T13:19:06Z</time>
      </trkpt>
      <trkpt lat="39.8374650" lon="2.8065010">
        <ele>314.0</ele>
        <time>2018-12-30T13:19:07Z</time>
      </trkpt>
      <trkpt lat="39.8374300" lon="2.8065200">
        <ele>314.3</ele>
        <time>2018-12-30T13:19:08Z</time>
      </trkpt>
      <trkpt lat="39.8373950" lon="2.8065400">
        <ele>314.6</ele>
        <time>2018-12-30T13:19:09Z</time>
      </trkpt>
      <trkpt lat="39.8373600" lon="2.8065590">
        <ele>315.0</ele>
        <time>2018-12-30T13:19:10Z</time>
      </trkpt>
      <trkpt lat="39.8373230" lon="2.8065790">
        <ele>315.3</ele>
        <time>2018-12-30T13:19:11Z</time>
      </trkpt>
      <trkpt lat="39.8372840" lon="2.8065970">
        <ele>315.7</ele>
        <time>2018-12-30T13:19:12Z</time>
      </trkpt>
      <trkpt lat="39.8372460" lon="2.8066130">
        <ele>316.1</ele>
        <time>2018-12-30T13:19:13Z</time>
      </trkpt>
      <trkpt lat="39.8372090" lon="2.8066230">
        <ele>316.4</ele>
        <time>2018-12-30T13:19:14Z</time>
      </trkpt>
      <trkpt lat="39.8371750" lon="2.8066300">
        <ele>316.7</ele>
        <time>2018-12-30T13:19:15Z</time>
      </trkpt>
      <trkpt lat="39.8371420" lon="2.8066340">
        <ele>317.0</ele>
        <time>2018-12-30T13:19:16Z</time>
      </trkpt>
      <trkpt lat="39.8371110" lon="2.8066370">
        <ele>317.3</ele>
        <time>2018-12-30T13:19:17Z</time>
      </trkpt>
      <trkpt lat="39.8370800" lon="2.8066400">
        <ele>317.6</ele>
        <time>2018-12-30T13:19:18Z</time>
      </trkpt>
      <trkpt lat="39.8370500" lon="2.8066390">
        <ele>317.9</ele>
        <time>2018-12-30T13:19:19Z</time>
      </trkpt>
      <trkpt lat="39.8370220" lon="2.8066360">
        <ele>318.1</ele>
        <time>2018-12-30T13:19:20Z</time>
      </trkpt>
      <trkpt lat="39.8369970" lon="2.8066310">
        <ele>318.4</ele>
        <time>2018-12-30T13:19:21Z</time>
      </trkpt>
      <trkpt lat="39.8369700" lon="2.8066270">
        <ele>318.7</ele>
        <time>2018-12-30T13:19:22Z</time>
      </trkpt>
      <trkpt lat="39.8369430" lon="2.8066240">
        <ele>318.9</ele>
        <time>2018-12-30T13:19:23Z</time>
      </trkpt>
      <trkpt lat="39.8369120" lon="2.8066220">
        <ele>319.2</ele>
        <time>2018-12-30T13:19:24Z</time>
      </trkpt>
      <trkpt lat="39.8368790" lon="2.8066170">
        <ele>319.6</ele>
        <time>2018-12-30T13:19:25Z</time>
      </trkpt>
      <trkpt lat="39.8368460" lon="2.8066100">
        <ele>319.9</ele>
        <time>2018-12-30T13:19:26Z</time>
      </trkpt>
      <trkpt lat="39.8368140" lon="2.8066010">
        <ele>320.3</ele>
        <time>2018-12-30T13:19:27Z</time>
      </trkpt>
      <trkpt lat="39.8367870" lon="2.8065940">
        <ele>320.6</ele>
        <time>2018-12-30T13:19:28Z</time>
      </trkpt>
      <trkpt lat="39.8367600" lon="2.8065880">
        <ele>320.9</ele>
        <time>2018-12-30T13:19:29Z</time>
      </trkpt>
      <trkpt lat="39.8367320" lon="2.8065840">
        <ele>321.1</ele>
        <time>2018-12-30T13:19:30Z</time>
      </trkpt>
      <trkpt lat="39.8367030" lon="2.8065800">
        <ele>321.5</ele>
        <time>2018-12-30T13:19:31Z</time>
      </trkpt>
      <trkpt lat="39.8366750" lon="2.8065750">
        <ele>321.8</ele>
        <time>2018-12-30T13:19:32Z</time>
      </trkpt>
      <trkpt lat="39.8366450" lon="2.8065690">
        <ele>322.1</ele>
        <time>2018-12-30T13:19:33Z</time>
      </trkpt>
      <trkpt lat="39.8366160" lon="2.8065640">
        <ele>322.4</ele>
        <time>2018-12-30T13:19:34Z</time>
      </trkpt>
      <trkpt lat="39.8365840" lon="2.8065570">
        <ele>322.6</ele>
        <time>2018-12-30T13:19:35Z</time>
      </trkpt>
      <trkpt lat="39.8365530" lon="2.8065530">
        <ele>322.9</ele>
        <time>2018-12-30T13:19:36Z</time>
      </trkpt>
      <trkpt lat="39.8365200" lon="2.8065510">
        <ele>323.1</ele>
        <time>2018-12-30T13:19:37Z</time>
      </trkpt>
      <trkpt lat="39.8364870" lon="2.8065520">
        <ele>323.4</ele>
        <time>2018-12-30T13:19:38Z</time>
      </trkpt>
      <trkpt lat="39.8364560" lon="2.8065520">
        <ele>323.6</ele>
        <time>2018-12-30T13:19:39Z</time>
      </trkpt>
      <trkpt lat="39.8364250" lon="2.8065500">
        <ele>323.8</ele>
        <time>2018-12-30T13:19:40Z</time>
      </trkpt>
      <trkpt lat="39.8363940" lon="2.8065490">
        <ele>324.0</ele>
        <time>2018-12-30T13:19:41Z</time>
      </trkpt>
      <trkpt lat="39.8363620" lon="2.8065510">
        <ele>324.3</ele>
        <time>2018-12-30T13:19:42Z</time>
      </trkpt>
      <trkpt lat="39.8363320" lon="2.8065560">
        <ele>324.5</ele>
        <time>2018-12-30T13:19:43Z</time>
      </trkpt>
      <trkpt lat="39.8363010" lon="2.8065610">
        <ele>324.7</ele>
        <time>2018-12-30T13:19:44Z</time>
      </trkpt>
      <trkpt lat="39.8362700" lon="2.8065670">
        <ele>324.9</ele>
        <time>2018-12-30T13:19:45Z</time>
      </trkpt>
      <trkpt lat="39.8362390" lon="2.8065720">
        <ele>325.1</ele>
        <time>2018-12-30T13:19:46Z</time>
      </trkpt>
      <trkpt lat="39.8362090" lon="2.8065790">
        <ele>325.4</ele>
        <time>2018-12-30T13:19:47Z</time>
      </trkpt>
      <trkpt lat="39.8361770" lon="2.8065840">
        <ele>325.7</ele>
        <time>2018-12-30T13:19:48Z</time>
      </trkpt>
      <trkpt lat="39.8361460" lon="2.8065870">
        <ele>326.0</ele>
        <time>2018-12-30T13:19:49Z</time>
      </trkpt>
      <trkpt lat="39.8361160" lon="2.8065900">
        <ele>326.2</ele>
        <time>2018-12-30T13:19:50Z</time>
      </trkpt>
      <trkpt lat="39.8360840" lon="2.8065930">
        <ele>326.5</ele>
        <time>2018-12-30T13:19:51Z</time>
      </trkpt>
      <trkpt lat="39.8360510" lon="2.8065970">
        <ele>326.8</ele>
        <time>2018-12-30T13:19:52Z</time>
      </trkpt>
      <trkpt lat="39.8360180" lon="2.8066010">
        <ele>327.1</ele>
        <time>2018-12-30T13:19:53Z</time>
      </trkpt>
      <trkpt lat="39.8359860" lon="2.8066060">
        <ele>327.3</ele>
        <time>2018-12-30T13:19:54Z</time>
      </trkpt>
      <trkpt lat="39.8359560" lon="2.8066120">
        <ele>327.5</ele>
        <time>2018-12-30T13:19:55Z</time>
      </trkpt>
      <trkpt lat="39.8359260" lon="2.8066170">
        <ele>327.7</ele>
        <time>2018-12-30T13:19:56Z</time>
      </trkpt>
      <trkpt lat="39.8358940" lon="2.8066230">
        <ele>327.9</ele>
        <time>2018-12-30T13:19:57Z</time>
      </trkpt>
      <trkpt lat="39.8358600" lon="2.8066300">
        <ele>328.1</ele>
        <time>2018-12-30T13:19:58Z</time>
      </trkpt>
      <trkpt lat="39.8358270" lon="2.8066360">
        <ele>328.4</ele>
        <time>2018-12-30T13:19:59Z</time>
      </trkpt>
      <trkpt lat="39.8357970" lon="2.8066440">
        <ele>328.6</ele>
        <time>2018-12-30T13:20:00Z</time>
      </trkpt>
      <trkpt lat="39.8357680" lon="2.8066480">
        <ele>328.7</ele>
        <time>2018-12-30T13:20:01Z</time>
      </trkpt>
      <trkpt lat="39.8357380" lon="2.8066530">
        <ele>328.9</ele>
        <time>2018-12-30T13:20:02Z</time>
      </trkpt>
      <trkpt lat="39.8357080" lon="2.8066570">
        <ele>329.1</ele>
        <time>2018-12-30T13:20:03Z</time>
      </trkpt>
      <trkpt lat="39.8356780" lon="2.8066620">
        <ele>329.3</ele>
        <time>2018-12-30T13:20:04Z</time>
      </trkpt>
      <trkpt lat="39.8356470" lon="2.8066670">
        <ele>329.5</ele>
        <time>2018-12-30T13:20:05Z</time>
      </trkpt>
      <trkpt lat="39.8356160" lon="2.8066720">
        <ele>329.7</ele>
        <time>2018-12-30T13:20:06Z</time>
      </trkpt>
      <trkpt lat="39.8355850" lon="2.8066760">
        <ele>329.9</ele>
        <time>2018-12-30T13:20:07Z</time>
      </trkpt>
      <trkpt lat="39.8355550" lon="2.8066800">
        <ele>330.1</ele>
        <time>2018-12-30T13:20:08Z</time>
      </trkpt>
      <trkpt lat="39.8355260" lon="2.8066830">
        <ele>330.3</ele>
        <time>2018-12-30T13:20:09Z</time>
      </trkpt>
      <trkpt lat="39.8354970" lon="2.8066860">
        <ele>330.5</ele>
        <time>2018-12-30T13:20:10Z</time>
      </trkpt>
      <trkpt lat="39.8354680" lon="2.8066910">
        <ele>330.7</ele>
        <time>2018-12-30T13:20:11Z</time>
      </trkpt>
      <trkpt lat="39.8354370" lon="2.8066980">
        <ele>330.9</ele>
        <time>2018-12-30T13:20:12Z</time>
      </trkpt>
      <trkpt lat="39.8354060" lon="2.8067050">
        <ele>331.0</ele>
        <time>2018-12-30T13:20:13Z</time>
      </trkpt>
      <trkpt lat="39.8353760" lon="2.8067130">
        <ele>331.2</ele>
        <time>2018-12-30T13:20:14Z</time>
      </trkpt>
      <trkpt lat="39.8353480" lon="2.8067190">
        <ele>331.4</ele>
        <time>2018-12-30T13:20:15Z</time>
      </trkpt>
      <trkpt lat="39.8353200" lon="2.8067240">
        <ele>331.6</ele>
        <time>2018-12-30T13:20:16Z</time>
      </trkpt>
      <trkpt lat="39.8352920" lon="2.8067290">
        <ele>331.7</ele>
        <time>2018-12-30T13:20:17Z</time>
      </trkpt>
      <trkpt lat="39.8352650" lon="2.8067330">
        <ele>331.9</ele>
        <time>2018-12-30T13:20:18Z</time>
      </trkpt>
      <trkpt lat="39.8352380" lon="2.8067370">
        <ele>332.1</ele>
        <time>2018-12-30T13:20:19Z</time>
      </trkpt>
      <trkpt lat="39.8352110" lon="2.8067410">
        <ele>332.3</ele>
        <time>2018-12-30T13:20:20Z</time>
      </trkpt>
      <trkpt lat="39.8351850" lon="2.8067470">
        <ele>332.5</ele>
        <time>2018-12-30T13:20:21Z</time>
      </trkpt>
      <trkpt lat="39.8351610" lon="2.8067530">
        <ele>332.7</ele>
        <time>2018-12-30T13:20:22Z</time>
      </trkpt>
      <trkpt lat="39.8351360" lon="2.8067580">
        <ele>332.9</ele>
        <time>2018-12-30T13:20:23Z</time>
      </trkpt>
      <trkpt lat="39.8351130" lon="2.8067640">
        <ele>333.1</ele>
        <time>2018-12-30T13:20:24Z</time>
      </trkpt>
      <trkpt lat="39.8350860" lon="2.8067670">
        <ele>333.3</ele>
        <time>2018-12-30T13:20:25Z</time>
      </trkpt>
      <trkpt lat="39.8350570" lon="2.8067690">
        <ele>333.4</ele>
        <time>2018-12-30T13:20:26Z</time>
      </trkpt>
      <trkpt lat="39.8350290" lon="2.8067700">
        <ele>333.5</ele>
        <time>2018-12-30T13:20:27Z</time>
      </trkpt>
      <trkpt lat="39.8350010" lon="2.8067730">
        <ele>333.6</ele>
        <time>2018-12-30T13:20:28Z</time>
      </trkpt>
      <trkpt lat="39.8349750" lon="2.8067780">
        <ele>333.7</ele>
        <time>2018-12-30T13:20:29Z</time>
      </trkpt>
      <trkpt lat="39.8349500" lon="2.8067840">
        <ele>333.9</ele>
        <time>2018-12-30T13:20:30Z</time>
      </trkpt>
      <trkpt lat="39.8349260" lon="2.8067890">
        <ele>334.0</ele>
        <time>2018-12-30T13:20:31Z</time>
      </trkpt>
      <trkpt lat="39.8349010" lon="2.8067940">
        <ele>334.1</ele>
        <time>2018-12-30T13:20:32Z</time>
      </trkpt>
      <trkpt lat="39.8348740" lon="2.8067970">
        <ele>334.2</ele>
        <time>2018-12-30T13:20:33Z</time>
      </trkpt>
      <trkpt lat="39.8348450" lon="2.8068000">
        <ele>334.4</ele>
        <time>2018-12-30T13:20:34Z</time>
      </trkpt>
      <trkpt lat="39.8348170" lon="2.8068040">
        <ele>334.6</ele>
        <time>2018-12-30T13:20:35Z</time>
      </trkpt>
      <trkpt lat="39.8347880" lon="2.8068050">
        <ele>334.7</ele>
        <time>2018-12-30T13:20:36Z</time>
      </trkpt>
      <trkpt lat="39.8347600" lon="2.8068040">
        <ele>334.9</ele>
        <time>2018-12-30T13:20:37Z</time>
      </trkpt>
      <trkpt lat="39.8347330" lon="2.8068020">
        <ele>335.0</ele>
        <time>2018-12-30T13:20:38Z</time>
      </trkpt>
      <trkpt lat="39.8347050" lon="2.8067990">
        <ele>335.1</ele>
        <time>2018-12-30T13:20:39Z</time>
      </trkpt>
      <trkpt lat="39.8346790" lon="2.8067950">
        <ele>335.2</ele>
        <time>2018-12-30T13:20:40Z</time>
      </trkpt>
      <trkpt lat="39.8346520" lon="2.8067890">
        <ele>335.3</ele>
        <time>2018-12-30T13:20:41Z</time>
      </trkpt>
      <trkpt lat="39.8346250" lon="2.8067820">
        <ele>335.4</ele>
        <time>2018-12-30T13:20:42Z</time>
      </trkpt>
      <trkpt lat="39.8345970" lon="2.8067750">
        <ele>335.5</ele>
        <time>2018-12-30T13:20:43Z</time>
      </trkpt>
      <trkpt lat="39.8345700" lon="2.8067670">
        <ele>335.6</ele>
        <time>2018-12-30T13:20:44Z</time>
      </trkpt>
      <trkpt lat="39.8345450" lon="2.8067580">
        <ele>335.7</ele>
        <time>2018-12-30T13:20:45Z</time>
      </trkpt>
      <trkpt lat="39.8345200" lon="2.8067480">
        <ele>335.8</ele>
        <time>2018-12-30T13:20:46Z</time>
      </trkpt>
      <trkpt lat="39.8344970" lon="2.8067390">
        <ele>335.9</ele>
        <time>2018-12-30T13:20:47Z</time>
      </trkpt>
      <trkpt lat="39.8344720" lon="2.8067280">
        <ele>336.1</ele>
        <time>2018-12-30T13:20:48Z</time>
      </trkpt>
      <trkpt lat="39.8344460" lon="2.8067170">
        <ele>336.2</ele>
        <time>2018-12-30T13:20:49Z</time>
      </trkpt>
      <trkpt lat="39.8344210" lon="2.8067050">
        <ele>336.3</ele>
        <time>2018-12-30T13:20:50Z</time>
      </trkpt>
      <trkpt lat="39.8343950" lon="2.8066930">
        <ele>336.4</ele>
        <time>2018-12-30T13:20:51Z</time>
      </trkpt>
      <trkpt lat="39.8343700" lon="2.8066790">
        <ele>336.6</ele>
        <time>2018-12-30T13:20:52Z</time>
      </trkpt>
      <trkpt lat="39.8343460" lon="2.8066650">
        <ele>336.8</ele>
        <time>2018-12-30T13:20:53Z</time>
      </trkpt>
      <trkpt lat="39.8343230" lon="2.8066510">
        <ele>337.0</ele>
        <time>2018-12-30T13:20:54Z</time>
      </trkpt>
      <trkpt lat="39.8342980" lon="2.8066370">
        <ele>337.2</ele>
        <time>2018-12-30T13:20:55Z</time>
      </trkpt>
      <trkpt lat="39.8342700" lon="2.8066240">
        <ele>337.4</ele>
        <time>2018-12-30T13:20:56Z</time>
      </trkpt>
      <trkpt lat="39.8342430" lon="2.8066120">
        <ele>337.6</ele>
        <time>2018-12-30T13:20:57Z</time>
      </trkpt>
      <trkpt lat="39.8342170" lon="2.8066030">
        <ele>337.9</ele>
        <time>2018-12-30T13:20:58Z</time>
      </trkpt>
      <trkpt lat="39.8341910" lon="2.8065930">
        <ele>338.1</ele>
        <time>2018-12-30T13:20:59Z</time>
      </trkpt>
      <trkpt lat="39.8341650" lon="2.8065820">
        <ele>338.3</ele>
        <time>2018-12-30T13:21:00Z</time>
      </trkpt>
      <trkpt lat="39.8341400" lon="2.8065660">
        <ele>338.5</ele>
        <time>2018-12-30T13:21:01Z</time>
      </trkpt>
      <trkpt lat="39.8341180" lon="2.8065510">
        <ele>338.7</ele>
        <time>2018-12-30T13:21:02Z</time>
      </trkpt>
      <trkpt lat="39.8340960" lon="2.8065370">
        <ele>338.9</ele>
        <time>2018-12-30T13:21:03Z</time>
      </trkpt>
      <trkpt lat="39.8340720" lon="2.8065240">
        <ele>339.1</ele>
        <time>2018-12-30T13:21:04Z</time>
      </trkpt>
      <trkpt lat="39.8340430" lon="2.8065020">
        <ele>339.4</ele>
        <time>2018-12-30T13:21:05Z</time>
      </trkpt>
      <trkpt lat="39.8340110" lon="2.8064730">
        <ele>339.7</ele>
        <time>2018-12-30T13:21:06Z</time>
      </trkpt>
      <trkpt lat="39.8339810" lon="2.8064370">
        <ele>340.0</ele>
        <time>2018-12-30T13:21:07Z</time>
      </trkpt>
      <trkpt lat="39.8339560" lon="2.8063990">
        <ele>340.3</ele>
        <time>2018-12-30T13:21:08Z</time>
      </trkpt>
      <trkpt lat="39.8339330" lon="2.8063550">
        <ele>340.6</ele>
        <time>2018-12-30T13:21:09Z</time>
      </trkpt>
      <trkpt lat="39.8339100" lon="2.8063030">
        <ele>340.9</ele>
        <time>2018-12-30T13:21:10Z</time>
      </trkpt>
      <trkpt lat="39.8338970" lon="2.8062530">
        <ele>341.2</ele>
        <time>2018-12-30T13:21:11Z</time>
      </trkpt>
      <trkpt lat="39.8338920" lon="2.8062070">
        <ele>341.5</ele>
        <time>2018-12-30T13:21:12Z</time>
      </trkpt>
      <trkpt lat="39.8338950" lon="2.8061650">
        <ele>341.7</ele>
        <time>2018-12-30T13:21:13Z</time>
      </trkpt>
      <trkpt lat="39.8339030" lon="2.8061250">
        <ele>342.0</ele>
        <time>2018-12-30T13:21:14Z</time>
      </trkpt>
      <trkpt lat="39.8339110" lon="2.8060850">
        <ele>342.2</ele>
        <time>2018-12-30T13:21:15Z</time>
      </trkpt>
      <trkpt lat="39.8339210" lon="2.8060440">
        <ele>342.4</ele>
        <time>2018-12-30T13:21:16Z</time>
      </trkpt>
      <trkpt lat="39.8339330" lon="2.8060030">
        <ele>342.6</ele>
        <time>2018-12-30T13:21:17Z</time>
      </trkpt>
      <trkpt lat="39.8339480" lon="2.8059600">
        <ele>342.9</ele>
        <time>2018-12-30T13:21:18Z</time>
      </trkpt>
      <trkpt lat="39.8339640" lon="2.8059160">
        <ele>343.1</ele>
        <time>2018-12-30T13:21:19Z</time>
      </trkpt>
      <trkpt lat="39.8339800" lon="2.8058700">
        <ele>343.4</ele>
        <time>2018-12-30T13:21:20Z</time>
      </trkpt>
      <trkpt lat="39.8339980" lon="2.8058220">
        <ele>343.6</ele>
        <time>2018-12-30T13:21:21Z</time>
      </trkpt>
      <trkpt lat="39.8340190" lon="2.8057720">
        <ele>343.9</ele>
        <time>2018-12-30T13:21:22Z</time>
      </trkpt>
      <trkpt lat="39.8340410" lon="2.8057200">
        <ele>344.2</ele>
        <time>2018-12-30T13:21:23Z</time>
      </trkpt>
      <trkpt lat="39.8340620" lon="2.8056710">
        <ele>344.5</ele>
        <time>2018-12-30T13:21:24Z</time>
      </trkpt>
      <trkpt lat="39.8340830" lon="2.8056210">
        <ele>344.8</ele>
        <time>2018-12-30T13:21:25Z</time>
      </trkpt>
      <trkpt lat="39.8341040" lon="2.8055700">
        <ele>345.1</ele>
        <time>2018-12-30T13:21:26Z</time>
      </trkpt>
      <trkpt lat="39.8341250" lon="2.8055200">
        <ele>345.3</ele>
        <time>2018-12-30T13:21:27Z</time>
      </trkpt>
      <trkpt lat="39.8341450" lon="2.8054700">
        <ele>345.6</ele>
        <time>2018-12-30T13:21:28Z</time>
      </trkpt>
      <trkpt lat="39.8341660" lon="2.8054200">
        <ele>345.9</ele>
        <time>2018-12-30T13:21:29Z</time>
      </trkpt>
      <trkpt lat="39.8341880" lon="2.8053700">
        <ele>346.1</ele>
        <time>2018-12-30T13:21:30Z</time>
      </trkpt>
      <trkpt lat="39.8342070" lon="2.8053210">
        <ele>346.4</ele>
        <time>2018-12-30T13:21:31Z</time>
      </trkpt>
      <trkpt lat="39.8342270" lon="2.8052750">
        <ele>346.7</ele>
        <time>2018-12-30T13:21:32Z</time>
      </trkpt>
      <trkpt lat="39.8342450" lon="2.8052290">
        <ele>346.9</ele>
        <time>2018-12-30T13:21:33Z</time>
      </trkpt>
      <trkpt lat="39.8342660" lon="2.8051840">
        <ele>347.1</ele>
        <time>2018-12-30T13:21:34Z</time>
      </trkpt>
      <trkpt lat="39.8342850" lon="2.8051410">
        <ele>347.4</ele>
        <time>2018-12-30T13:21:35Z</time>
      </trkpt>
      <trkpt lat="39.8343050" lon="2.8050990">
        <ele>347.6</ele>
        <time>2018-12-30T13:21:36Z</time>
      </trkpt>
      <trkpt lat="39.8343230" lon="2.8050580">
        <ele>347.8</ele>
        <time>2018-12-30T13:21:37Z</time>
      </trkpt>
      <trkpt lat="39.8343400" lon="2.8050180">
        <ele>348.0</ele>
        <time>2018-12-30T13:21:38Z</time>
      </trkpt>
      <trkpt lat="39.8343560" lon="2.8049790">
        <ele>348.2</ele>
        <time>2018-12-30T13:21:39Z</time>
      </trkpt>
      <trkpt lat="39.8343720" lon="2.8049400">
        <ele>348.4</ele>
        <time>2018-12-30T13:21:40Z</time>
      </trkpt>
      <trkpt lat="39.8343880" lon="2.8049010">
        <ele>348.6</ele>
        <time>2018-12-30T13:21:41Z</time>
      </trkpt>
      <trkpt lat="39.8344040" lon="2.8048620">
        <ele>348.8</ele>
        <time>2018-12-30T13:21:42Z</time>
      </trkpt>
      <trkpt lat="39.8344210" lon="2.8048230">
        <ele>349.1</ele>
        <time>2018-12-30T13:21:43Z</time>
      </trkpt>
      <trkpt lat="39.8344360" lon="2.8047830">
        <ele>349.3</ele>
        <time>2018-12-30T13:21:44Z</time>
      </trkpt>
      <trkpt lat="39.8344530" lon="2.8047430">
        <ele>349.5</ele>
        <time>2018-12-30T13:21:45Z</time>
      </trkpt>
      <trkpt lat="39.8344700" lon="2.8047030">
        <ele>349.7</ele>
        <time>2018-12-30T13:21:46Z</time>
      </trkpt>
      <trkpt lat="39.8344870" lon="2.8046620">
        <ele>349.9</ele>
        <time>2018-12-30T13:21:47Z</time>
      </trkpt>
      <trkpt lat="39.8345030" lon="2.8046200">
        <ele>350.1</ele>
        <time>2018-12-30T13:21:48Z</time>
      </trkpt>
      <trkpt lat="39.8345150" lon="2.8045790">
        <ele>350.3</ele>
        <time>2018-12-30T13:21:49Z</time>
      </trkpt>
      <trkpt lat="39.8345290" lon="2.8045390">
        <ele>350.5</ele>
        <time>2018-12-30T13:21:50Z</time>
      </trkpt>
      <trkpt lat="39.8345460" lon="2.8044990">
        <ele>350.6</ele>
        <time>2018-12-30T13:21:51Z</time>
      </trkpt>
      <trkpt lat="39.8345640" lon="2.8044610">
        <ele>350.7</ele>
        <time>2018-12-30T13:21:52Z</time>
      </trkpt>
      <trkpt lat="39.8345870" lon="2.8044300">
        <ele>350.9</ele>
        <time>2018-12-30T13:21:53Z</time>
      </trkpt>
      <trkpt lat="39.8346130" lon="2.8044030">
        <ele>351.0</ele>
        <time>2018-12-30T13:21:54Z</time>
      </trkpt>
      <trkpt lat="39.8346470" lon="2.8043800">
        <ele>351.1</ele>
        <time>2018-12-30T13:21:55Z</time>
      </trkpt>
      <trkpt lat="39.8346850" lon="2.8043590">
        <ele>351.3</ele>
        <time>2018-12-30T13:21:56Z</time>
      </trkpt>
      <trkpt lat="39.8347280" lon="2.8043370">
        <ele>351.5</ele>
        <time>2018-12-30T13:21:57Z</time>
      </trkpt>
      <trkpt lat="39.8347720" lon="2.8043170">
        <ele>351.6</ele>
        <time>2018-12-30T13:21:58Z</time>
      </trkpt>
      <trkpt lat="39.8348120" lon="2.8042960">
        <ele>351.8</ele>
        <time>2018-12-30T13:21:59Z</time>
      </trkpt>
      <trkpt lat="39.8348480" lon="2.8042770">
        <ele>351.9</ele>
        <time>2018-12-30T13:22:00Z</time>
      </trkpt>
      <trkpt lat="39.8348810" lon="2.8042580">
        <ele>352.1</ele>
        <time>2018-12-30T13:22:01Z</time>
      </trkpt>
      <trkpt lat="39.8349130" lon="2.8042390">
        <ele>352.3</ele>
        <time>2018-12-30T13:22:02Z</time>
      </trkpt>
      <trkpt lat="39.8349460" lon="2.8042190">
        <ele>352.5</ele>
        <time>2018-12-30T13:22:03Z</time>
      </trkpt>
      <trkpt lat="39.8349780" lon="2.8041990">
        <ele>352.7</ele>
        <time>2018-12-30T13:22:04Z</time>
      </trkpt>
      <trkpt lat="39.8350100" lon="2.8041780">
        <ele>352.8</ele>
        <time>2018-12-30T13:22:05Z</time>
      </trkpt>
      <trkpt lat="39.8350420" lon="2.8041570">
        <ele>353.0</ele>
        <time>2018-12-30T13:22:06Z</time>
      </trkpt>
      <trkpt lat="39.8350740" lon="2.8041350">
        <ele>353.1</ele>
        <time>2018-12-30T13:22:07Z</time>
      </trkpt>
      <trkpt lat="39.8351050" lon="2.8041120">
        <ele>353.3</ele>
        <time>2018-12-30T13:22:08Z</time>
      </trkpt>
      <trkpt lat="39.8351340" lon="2.8040880">
        <ele>353.4</ele>
        <time>2018-12-30T13:22:09Z</time>
      </trkpt>
      <trkpt lat="39.8351630" lon="2.8040630">
        <ele>353.5</ele>
        <time>2018-12-30T13:22:10Z</time>
      </trkpt>
      <trkpt lat="39.8351900" lon="2.8040380">
        <ele>353.7</ele>
        <time>2018-12-30T13:22:11Z</time>
      </trkpt>
      <trkpt lat="39.8352180" lon="2.8040110">
        <ele>353.8</ele>
        <time>2018-12-30T13:22:12Z</time>
      </trkpt>
      <trkpt lat="39.8352470" lon="2.8039830">
        <ele>353.9</ele>
        <time>2018-12-30T13:22:13Z</time>
      </trkpt>
      <trkpt lat="39.8352780" lon="2.8039550">
        <ele>354.1</ele>
        <time>2018-12-30T13:22:14Z</time>
      </trkpt>
      <trkpt lat="39.8353080" lon="2.8039260">
        <ele>354.2</ele>
        <time>2018-12-30T13:22:15Z</time>
      </trkpt>
      <trkpt lat="39.8353360" lon="2.8038980">
        <ele>354.3</ele>
        <time>2018-12-30T13:22:16Z</time>
      </trkpt>
      <trkpt lat="39.8353640" lon="2.8038710">
        <ele>354.5</ele>
        <time>2018-12-30T13:22:17Z</time>
      </trkpt>
      <trkpt lat="39.8353920" lon="2.8038440">
        <ele>354.7</ele>
        <time>2018-12-30T13:22:18Z</time>
      </trkpt>
      <trkpt lat="39.8354190" lon="2.8038170">
        <ele>354.9</ele>
        <time>2018-12-30T13:22:19Z</time>
      </trkpt>
      <trkpt lat="39.8354470" lon="2.8037900">
        <ele>355.0</ele>
        <time>2018-12-30T13:22:20Z</time>
      </trkpt>
      <trkpt lat="39.8354730" lon="2.8037630">
        <ele>355.2</ele>
        <time>2018-12-30T13:22:21Z</time>
      </trkpt>
      <trkpt lat="39.8354980" lon="2.8037370">
        <ele>355.4</ele>
        <time>2018-12-30T13:22:22Z</time>
      </trkpt>
      <trkpt lat="39.8355230" lon="2.8037110">
        <ele>355.5</ele>
        <time>2018-12-30T13:22:23Z</time>
      </trkpt>
      <trkpt lat="39.8355490" lon="2.8036850">
        <ele>355.7</ele>
        <time>2018-12-30T13:22:24Z</time>
      </trkpt>
      <trkpt lat="39.8355740" lon="2.8036590">
        <ele>355.8</ele>
        <time>2018-12-30T13:22:25Z</time>
      </trkpt>
      <trkpt lat="39.8355980" lon="2.8036320">
        <ele>356.0</ele>
        <time>2018-12-30T13:22:26Z</time>
      </trkpt>
      <trkpt lat="39.8356240" lon="2.8036060">
        <ele>356.2</ele>
        <time>2018-12-30T13:22:27Z</time>
      </trkpt>
      <trkpt lat="39.8356500" lon="2.8035810">
        <ele>356.5</ele>
        <time>2018-12-30T13:22:28Z</time>
      </trkpt>
      <trkpt lat="39.8356770" lon="2.8035550">
        <ele>356.8</ele>
        <time>2018-12-30T13:22:29Z</time>
      </trkpt>
      <trkpt lat="39.8357010" lon="2.8035270">
        <ele>357.1</ele>
        <time>2018-12-30T13:22:30Z</time>
      </trkpt>
      <trkpt lat="39.8357240" lon="2.8034950">
        <ele>357.4</ele>
        <time>2018-12-30T13:22:31Z</time>
      </trkpt>
      <trkpt lat="39.8357430" lon="2.8034600">
        <ele>357.7</ele>
        <time>2018-12-30T13:22:32Z</time>
      </trkpt>
      <trkpt lat="39.8357590" lon="2.8034200">
        <ele>358.0</ele>
        <time>2018-12-30T13:22:33Z</time>
      </trkpt>
      <trkpt lat="39.8357690" lon="2.8033770">
        <ele>358.3</ele>
        <time>2018-12-30T13:22:34Z</time>
      </trkpt>
      <trkpt lat="39.8357760" lon="2.8033330">
        <ele>358.6</ele>
        <time>2018-12-30T13:22:35Z</time>
      </trkpt>
      <trkpt lat="39.8357820" lon="2.8032910">
        <ele>358.9</ele>
        <time>2018-12-30T13:22:36Z</time>
      </trkpt>
      <trkpt lat="39.8357860" lon="2.8032490">
        <ele>359.2</ele>
        <time>2018-12-30T13:22:37Z</time>
      </trkpt>
      <trkpt lat="39.8357870" lon="2.8032060">
        <ele>359.6</ele>
        <time>2018-12-30T13:22:38Z</time>
      </trkpt>
      <trkpt lat="39.8357860" lon="2.8031610">
        <ele>359.9</ele>
        <time>2018-12-30T13:22:39Z</time>
      </trkpt>
      <trkpt lat="39.8357840" lon="2.8031150">
        <ele>360.3</ele>
        <time>2018-12-30T13:22:40Z</time>
      </trkpt>
      <trkpt lat="39.8357830" lon="2.8030690">
        <ele>360.7</ele>
        <time>2018-12-30T13:22:41Z</time>
      </trkpt>
      <trkpt lat="39.8357810" lon="2.8030230">
        <ele>361.0</ele>
        <time>2018-12-30T13:22:42Z</time>
      </trkpt>
      <trkpt lat="39.8357760" lon="2.8029770">
        <ele>361.4</ele>
        <time>2018-12-30T13:22:43Z</time>
      </trkpt>
      <trkpt lat="39.8357640" lon="2.8029280">
        <ele>361.8</ele>
        <time>2018-12-30T13:22:44Z</time>
      </trkpt>
      <trkpt lat="39.8357450" lon="2.8028780">
        <ele>362.3</ele>
        <time>2018-12-30T13:22:45Z</time>
      </trkpt>
      <trkpt lat="39.8357250" lon="2.8028290">
        <ele>362.7</ele>
        <time>2018-12-30T13:22:46Z</time>
      </trkpt>
      <trkpt lat="39.8357020" lon="2.8027830">
        <ele>363.1</ele>
        <time>2018-12-30T13:22:47Z</time>
      </trkpt>
      <trkpt lat="39.8356800" lon="2.8027420">
        <ele>363.4</ele>
        <time>2018-12-30T13:22:48Z</time>
      </trkpt>
      <trkpt lat="39.8356560" lon="2.8027020">
        <ele>363.8</ele>
        <time>2018-12-30T13:22:49Z</time>
      </trkpt>
      <trkpt lat="39.8356290" lon="2.8026680">
        <ele>364.1</ele>
        <time>2018-12-30T13:22:50Z</time>
      </trkpt>
      <trkpt lat="39.8355980" lon="2.8026370">
        <ele>364.4</ele>
        <time>2018-12-30T13:22:51Z</time>
      </trkpt>
      <trkpt lat="39.8355640" lon="2.8026100">
        <ele>364.7</ele>
        <time>2018-12-30T13:22:52Z</time>
      </trkpt>
      <trkpt lat="39.8355270" lon="2.8025880">
        <ele>365.0</ele>
        <time>2018-12-30T13:22:53Z</time>
      </trkpt>
      <trkpt lat="39.8354920" lon="2.8025730">
        <ele>365.3</ele>
        <time>2018-12-30T13:22:54Z</time>
      </trkpt>
      <trkpt lat="39.8354560" lon="2.8025600">
        <ele>365.6</ele>
        <time>2018-12-30T13:22:55Z</time>
      </trkpt>
      <trkpt lat="39.8354190" lon="2.8025510">
        <ele>365.9</ele>
        <time>2018-12-30T13:22:56Z</time>
      </trkpt>
      <trkpt lat="39.8353810" lon="2.8025450">
        <ele>366.2</ele>
        <time>2018-12-30T13:22:57Z</time>
      </trkpt>
      <trkpt lat="39.8353410" lon="2.8025410">
        <ele>366.6</ele>
        <time>2018-12-30T13:22:58Z</time>
      </trkpt>
      <trkpt lat="39.8353020" lon="2.8025380">
        <ele>366.9</ele>
        <time>2018-12-30T13:22:59Z</time>
      </trkpt>
      <trkpt lat="39.8352630" lon="2.8025370">
        <ele>367.2</ele>
        <time>2018-12-30T13:23:00Z</time>
      </trkpt>
      <trkpt lat="39.8352230" lon="2.8025380">
        <ele>367.6</ele>
        <time>2018-12-30T13:23:01Z</time>
      </trkpt>
      <trkpt lat="39.8351850" lon="2.8025400">
        <ele>367.9</ele>
        <time>2018-12-30T13:23:02Z</time>
      </trkpt>
      <trkpt lat="39.8351470" lon="2.8025430">
        <ele>368.2</ele>
        <time>2018-12-30T13:23:03Z</time>
      </trkpt>
      <trkpt lat="39.8351110" lon="2.8025470">
        <ele>368.5</ele>
        <time>2018-12-30T13:23:04Z</time>
      </trkpt>
      <trkpt lat="39.8350750" lon="2.8025540">
        <ele>368.9</ele>
        <time>2018-12-30T13:23:05Z</time>
      </trkpt>
      <trkpt lat="39.8350410" lon="2.8025640">
        <ele>369.2</ele>
        <time>2018-12-30T13:23:06Z</time>
      </trkpt>
      <trkpt lat="39.8350080" lon="2.8025760">
        <ele>369.5</ele>
        <time>2018-12-30T13:23:07Z</time>
      </trkpt>
      <trkpt lat="39.8349750" lon="2.8025880">
        <ele>369.8</ele>
        <time>2018-12-30T13:23:08Z</time>
      </trkpt>
      <trkpt lat="39.8349420" lon="2.8026010">
        <ele>370.1</ele>
        <time>2018-12-30T13:23:09Z</time>
      </trkpt>
      <trkpt lat="39.8349100" lon="2.8026130">
        <ele>370.4</ele>
        <time>2018-12-30T13:23:10Z</time>
      </trkpt>
      <trkpt lat="39.8348790" lon="2.8026260">
        <ele>370.7</ele>
        <time>2018-12-30T13:23:11Z</time>
      </trkpt>
      <trkpt lat="39.8348470" lon="2.8026390">
        <ele>371.0</ele>
        <time>2018-12-30T13:23:12Z</time>
      </trkpt>
      <trkpt lat="39.8348160" lon="2.8026530">
        <ele>371.3</ele>
        <time>2018-12-30T13:23:13Z</time>
      </trkpt>
      <trkpt lat="39.8347850" lon="2.8026650">
        <ele>371.7</ele>
        <time>2018-12-30T13:23:14Z</time>
      </trkpt>
      <trkpt lat="39.8347550" lon="2.8026760">
        <ele>371.9</ele>
        <time>2018-12-30T13:23:15Z</time>
      </trkpt>
      <trkpt lat="39.8347250" lon="2.8026860">
        <ele>372.2</ele>
        <time>2018-12-30T13:23:16Z</time>
      </trkpt>
      <trkpt lat="39.8346960" lon="2.8026960">
        <ele>372.5</ele>
        <time>2018-12-30T13:23:17Z</time>
      </trkpt>
      <trkpt lat="39.8346670" lon="2.8027060">
        <ele>372.7</ele>
        <time>2018-12-30T13:23:18Z</time>
      </trkpt>
      <trkpt lat="39.8346370" lon="2.8027180">
        <ele>373.0</ele>
        <time>2018-12-30T13:23:19Z</time>
      </trkpt>
      <trkpt lat="39.8346070" lon="2.8027300">
        <ele>373.2</ele>
        <time>2018-12-30T13:23:20Z</time>
      </trkpt>
      <trkpt lat="39.8345770" lon="2.8027410">
        <ele>373.5</ele>
        <time>2018-12-30T13:23:21Z</time>
      </trkpt>
      <trkpt lat="39.8345470" lon="2.8027520">
        <ele>373.7</ele>
        <time>2018-12-30T13:23:22Z</time>
      </trkpt>
      <trkpt lat="39.8345170" lon="2.8027620">
        <ele>373.9</ele>
        <time>2018-12-30T13:23:23Z</time>
      </trkpt>
      <trkpt lat="39.8344880" lon="2.8027730">
        <ele>374.2</ele>
        <time>2018-12-30T13:23:24Z</time>
      </trkpt>
      <trkpt lat="39.8344590" lon="2.8027860">
        <ele>374.4</ele>
        <time>2018-12-30T13:23:25Z</time>
      </trkpt>
      <trkpt lat="39.8344310" lon="2.8028030">
        <ele>374.6</ele>
        <time>2018-12-30T13:23:26Z</time>
      </trkpt>
      <trkpt lat="39.8344110" lon="2.8028300">
        <ele>374.8</ele>
        <time>2018-12-30T13:23:27Z</time>
      </trkpt>
      <trkpt lat="39.8343980" lon="2.8028650">
        <ele>375.0</ele>
        <time>2018-12-30T13:23:28Z</time>
      </trkpt>
      <trkpt lat="39.8343920" lon="2.8029040">
        <ele>375.3</ele>
        <time>2018-12-30T13:23:29Z</time>
      </trkpt>
      <trkpt lat="39.8343850" lon="2.8029380">
        <ele>375.5</ele>
        <time>2018-12-30T13:23:30Z</time>
      </trkpt>
      <trkpt lat="39.8343790" lon="2.8029730">
        <ele>375.8</ele>
        <time>2018-12-30T13:23:31Z</time>
      </trkpt>
      <trkpt lat="39.8343710" lon="2.8030080">
        <ele>376.0</ele>
        <time>2018-12-30T13:23:32Z</time>
      </trkpt>
      <trkpt lat="39.8343610" lon="2.8030430">
        <ele>376.3</ele>
        <time>2018-12-30T13:23:33Z</time>
      </trkpt>
      <trkpt lat="39.8343510" lon="2.8030790">
        <ele>376.6</ele>
        <time>2018-12-30T13:23:34Z</time>
      </trkpt>
      <trkpt lat="39.8343420" lon="2.8031160">
        <ele>376.9</ele>
        <time>2018-12-30T13:23:35Z</time>
      </trkpt>
      <trkpt lat="39.8343340" lon="2.8031550">
        <ele>377.1</ele>
        <time>2018-12-30T13:23:36Z</time>
      </trkpt>
      <trkpt lat="39.8343260" lon="2.8031950">
        <ele>377.3</ele>
        <time>2018-12-30T13:23:37Z</time>
      </trkpt>
      <trkpt lat="39.8343170" lon="2.8032360">
        <ele>377.6</ele>
        <time>2018-12-30T13:23:38Z</time>
      </trkpt>
      <trkpt lat="39.8343090" lon="2.8032780">
        <ele>377.8</ele>
        <time>2018-12-30T13:23:39Z</time>
      </trkpt>
      <trkpt lat="39.8343030" lon="2.8033220">
        <ele>378.0</ele>
        <time>2018-12-30T13:23:40Z</time>
      </trkpt>
      <trkpt lat="39.8342960" lon="2.8033650">
        <ele>378.3</ele>
        <time>2018-12-30T13:23:41Z</time>
      </trkpt>
      <trkpt lat="39.8342880" lon="2.8034060">
        <ele>378.5</ele>
        <time>2018-12-30T13:23:42Z</time>
      </trkpt>
      <trkpt lat="39.8342800" lon="2.8034480">
        <ele>378.8</ele>
        <time>2018-12-30T13:23:43Z</time>
      </trkpt>
      <trkpt lat="39.8342730" lon="2.8034900">
        <ele>379.0</ele>
        <time>2018-12-30T13:23:44Z</time>
      </trkpt>
      <trkpt lat="39.8342650" lon="2.8035330">
        <ele>379.3</ele>
        <time>2018-12-30T13:23:45Z</time>
      </trkpt>
      <trkpt lat="39.8342580" lon="2.8035750">
        <ele>379.5</ele>
        <time>2018-12-30T13:23:46Z</time>
      </trkpt>
      <trkpt lat="39.8342490" lon="2.8036160">
        <ele>379.8</ele>
        <time>2018-12-30T13:23:47Z</time>
      </trkpt>
      <trkpt lat="39.8342390" lon="2.8036560">
        <ele>380.0</ele>
        <time>2018-12-30T13:23:48Z</time>
      </trkpt>
      <trkpt lat="39.8342290" lon="2.8036960">
        <ele>380.3</ele>
        <time>2018-12-30T13:23:49Z</time>
      </trkpt>
      <trkpt lat="39.8342170" lon="2.8037340">
        <ele>380.5</ele>
        <time>2018-12-30T13:23:50Z</time>
      </trkpt>
      <trkpt lat="39.8342040" lon="2.8037710">
        <ele>380.7</ele>
        <time>2018-12-30T13:23:51Z</time>
      </trkpt>
      <trkpt lat="39.8341900" lon="2.8038070">
        <ele>381.0</ele>
        <time>2018-12-30T13:23:52Z</time>
      </trkpt>
      <trkpt lat="39.8341760" lon="2.8038440">
        <ele>381.2</ele>
        <time>2018-12-30T13:23:53Z</time>
      </trkpt>
      <trkpt lat="39.8341590" lon="2.8038800">
        <ele>381.5</ele>
        <time>2018-12-30T13:23:54Z</time>
      </trkpt>
      <trkpt lat="39.8341400" lon="2.8039150">
        <ele>381.7</ele>
        <time>2018-12-30T13:23:55Z</time>
      </trkpt>
      <trkpt lat="39.8341190" lon="2.8039480">
        <ele>382.0</ele>
        <time>2018-12-30T13:23:56Z</time>
      </trkpt>
      <trkpt lat="39.8340960" lon="2.8039780">
        <ele>382.3</ele>
        <time>2018-12-30T13:23:57Z</time>
      </trkpt>
      <trkpt lat="39.8340690" lon="2.8040050">
        <ele>382.5</ele>
        <time>2018-12-30T13:23:58Z</time>
      </trkpt>
      <trkpt lat="39.8340410" lon="2.8040270">
        <ele>382.9</ele>
        <time>2018-12-30T13:23:59Z</time>
      </trkpt>
      <trkpt lat="39.8340110" lon="2.8040480">
        <ele>383.3</ele>
        <time>2018-12-30T13:24:00Z</time>
      </trkpt>
      <trkpt lat="39.8339820" lon="2.8040670">
        <ele>383.7</ele>
        <time>2018-12-30T13:24:01Z</time>
      </trkpt>
      <trkpt lat="39.8339530" lon="2.8040850">
        <ele>384.0</ele>
        <time>2018-12-30T13:24:02Z</time>
      </trkpt>
      <trkpt lat="39.8339240" lon="2.8041010">
        <ele>384.4</ele>
        <time>2018-12-30T13:24:03Z</time>
      </trkpt>
      <trkpt lat="39.8338940" lon="2.8041150">
        <ele>384.6</ele>
        <time>2018-12-30T13:24:04Z</time>
      </trkpt>
      <trkpt lat="39.8338650" lon="2.8041300">
        <ele>384.8</ele>
        <time>2018-12-30T13:24:05Z</time>
      </trkpt>
      <trkpt lat="39.8338360" lon="2.8041450">
        <ele>385.1</ele>
        <time>2018-12-30T13:24:06Z</time>
      </trkpt>
      <trkpt lat="39.8338080" lon="2.8041570">
        <ele>385.3</ele>
        <time>2018-12-30T13:24:07Z</time>
      </trkpt>
      <trkpt lat="39.8337800" lon="2.8041650">
        <ele>385.5</ele>
        <time>2018-12-30T13:24:08Z</time>
      </trkpt>
      <trkpt lat="39.8337510" lon="2.8041720">
        <ele>385.7</ele>
        <time>2018-12-30T13:24:09Z</time>
      </trkpt>
      <trkpt lat="39.8337210" lon="2.8041770">
        <ele>385.9</ele>
        <time>2018-12-30T13:24:10Z</time>
      </trkpt>
      <trkpt lat="39.8336910" lon="2.8041790">
        <ele>386.2</ele>
        <time>2018-12-30T13:24:11Z</time>
      </trkpt>
      <trkpt lat="39.8336620" lon="2.8041760">
        <ele>386.4</ele>
        <time>2018-12-30T13:24:12Z</time>
      </trkpt>
      <trkpt lat="39.8336340" lon="2.8041690">
        <ele>386.6</ele>
        <time>2018-12-30T13:24:13Z</time>
      </trkpt>
      <trkpt lat="39.8336080" lon="2.8041570">
        <ele>386.8</ele>
        <time>2018-12-30T13:24:14Z</time>
      </trkpt>
      <trkpt lat="39.8335830" lon="2.8041420">
        <ele>387.0</ele>
        <time>2018-12-30T13:24:15Z</time>
      </trkpt>
      <trkpt lat="39.8335580" lon="2.8041240">
        <ele>387.3</ele>
        <time>2018-12-30T13:24:16Z</time>
      </trkpt>
      <trkpt lat="39.8335330" lon="2.8041040">
        <ele>387.5</ele>
        <time>2018-12-30T13:24:17Z</time>
      </trkpt>
      <trkpt lat="39.8335090" lon="2.8040840">
        <ele>387.7</ele>
        <time>2018-12-30T13:24:18Z</time>
      </trkpt>
      <trkpt lat="39.8334830" lon="2.8040640">
        <ele>388.0</ele>
        <time>2018-12-30T13:24:19Z</time>
      </trkpt>
      <trkpt lat="39.8334590" lon="2.8040450">
        <ele>388.2</ele>
        <time>2018-12-30T13:24:20Z</time>
      </trkpt>
      <trkpt lat="39.8334350" lon="2.8040270">
        <ele>388.4</ele>
        <time>2018-12-30T13:24:21Z</time>
      </trkpt>
      <trkpt lat="39.8334110" lon="2.8040090">
        <ele>388.7</ele>
        <time>2018-12-30T13:24:22Z</time>
      </trkpt>
      <trkpt lat="39.8333860" lon="2.8039910">
        <ele>389.0</ele>
        <time>2018-12-30T13:24:23Z</time>
      </trkpt>
      <trkpt lat="39.8333630" lon="2.8039730">
        <ele>389.2</ele>
        <time>2018-12-30T13:24:24Z</time>
      </trkpt>
      <trkpt lat="39.8333390" lon="2.8039530">
        <ele>389.5</ele>
        <time>2018-12-30T13:24:25Z</time>
      </trkpt>
      <trkpt lat="39.8333150" lon="2.8039340">
        <ele>389.8</ele>
        <time>2018-12-30T13:24:26Z</time>
      </trkpt>
      <trkpt lat="39.8332900" lon="2.8039140">
        <ele>390.0</ele>
        <time>2018-12-30T13:24:27Z</time>
      </trkpt>
      <trkpt lat="39.8332670" lon="2.8038970">
        <ele>390.3</ele>
        <time>2018-12-30T13:24:28Z</time>
      </trkpt>
      <trkpt lat="39.8332450" lon="2.8038800">
        <ele>390.5</ele>
        <time>2018-12-30T13:24:29Z</time>
      </trkpt>
      <trkpt lat="39.8332220" lon="2.8038630">
        <ele>390.6</ele>
        <time>2018-12-30T13:24:30Z</time>
      </trkpt>
      <trkpt lat="39.8331980" lon="2.8038490">
        <ele>390.8</ele>
        <time>2018-12-30T13:24:31Z</time>
      </trkpt>
      <trkpt lat="39.8331720" lon="2.8038360">
        <ele>390.9</ele>
        <time>2018-12-30T13:24:32Z</time>
      </trkpt>
      <trkpt lat="39.8331450" lon="2.8038260">
        <ele>391.1</ele>
        <time>2018-12-30T13:24:33Z</time>
      </trkpt>
      <trkpt lat="39.8331170" lon="2.8038170">
        <ele>391.3</ele>
        <time>2018-12-30T13:24:34Z</time>
      </trkpt>
      <trkpt lat="39.8330880" lon="2.8038110">
        <ele>391.5</ele>
        <time>2018-12-30T13:24:35Z</time>
      </trkpt>
      <trkpt lat="39.8330600" lon="2.8038060">
        <ele>391.6</ele>
        <time>2018-12-30T13:24:36Z</time>
      </trkpt>
      <trkpt lat="39.8330300" lon="2.8038010">
        <ele>391.8</ele>
        <time>2018-12-30T13:24:37Z</time>
      </trkpt>
      <trkpt lat="39.8330020" lon="2.8037960">
        <ele>392.0</ele>
        <time>2018-12-30T13:24:38Z</time>
      </trkpt>
      <trkpt lat="39.8329730" lon="2.8037920">
        <ele>392.1</ele>
        <time>2018-12-30T13:24:39Z</time>
      </trkpt>
      <trkpt lat="39.8329450" lon="2.8037900">
        <ele>392.3</ele>
        <time>2018-12-30T13:24:40Z</time>
      </trkpt>
      <trkpt lat="39.8329170" lon="2.8037910">
        <ele>392.5</ele>
        <time>2018-12-30T13:24:41Z</time>
      </trkpt>
      <trkpt lat="39.8328870" lon="2.8037960">
        <ele>392.6</ele>
        <time>2018-12-30T13:24:42Z</time>
      </trkpt>
      <trkpt lat="39.8328580" lon="2.8038010">
        <ele>392.8</ele>
        <time>2018-12-30T13:24:43Z</time>
      </trkpt>
      <trkpt lat="39.8328280" lon="2.8038070">
        <ele>393.0</ele>
        <time>2018-12-30T13:24:44Z</time>
      </trkpt>
      <trkpt lat="39.8327990" lon="2.8038120">
        <ele>393.1</ele>
        <time>2018-12-30T13:24:45Z</time>
      </trkpt>
      <trkpt lat="39.8327700" lon="2.8038190">
        <ele>393.3</ele>
        <time>2018-12-30T13:24:46Z</time>
      </trkpt>
      <trkpt lat="39.8327400" lon="2.8038270">
        <ele>393.5</ele>
        <time>2018-12-30T13:24:47Z</time>
      </trkpt>
      <trkpt lat="39.8327080" lon="2.8038350">
        <ele>393.6</ele>
        <time>2018-12-30T13:24:48Z</time>
      </trkpt>
      <trkpt lat="39.8326760" lon="2.8038430">
        <ele>393.8</ele>
        <time>2018-12-30T13:24:49Z</time>
      </trkpt>
      <trkpt lat="39.8326430" lon="2.8038500">
        <ele>394.0</ele>
        <time>2018-12-30T13:24:50Z</time>
      </trkpt>
      <trkpt lat="39.8326110" lon="2.8038560">
        <ele>394.1</ele>
        <time>2018-12-30T13:24:51Z</time>
      </trkpt>
      <trkpt lat="39.8325790" lon="2.8038620">
        <ele>394.3</ele>
        <time>2018-12-30T13:24:52Z</time>
      </trkpt>
      <trkpt lat="39.8325480" lon="2.8038680">
        <ele>394.4</ele>
        <time>2018-12-30T13:24:53Z</time>
      </trkpt>
      <trkpt lat="39.8325180" lon="2.8038740">
        <ele>394.6</ele>
        <time>2018-12-30T13:24:54Z</time>
      </trkpt>
      <trkpt lat="39.8324880" lon="2.8038810">
        <ele>394.7</ele>
        <time>2018-12-30T13:24:55Z</time>
      </trkpt>
      <trkpt lat="39.8324590" lon="2.8038870">
        <ele>394.9</ele>
        <time>2018-12-30T13:24:56Z</time>
      </trkpt>
      <trkpt lat="39.8324300" lon="2.8038930">
        <ele>395.1</ele>
        <time>2018-12-30T13:24:57Z</time>
      </trkpt>
      <trkpt lat="39.8324020" lon="2.8038980">
        <ele>395.3</ele>
        <time>2018-12-30T13:24:58Z</time>
      </trkpt>
      <trkpt lat="39.8323740" lon="2.8039040">
        <ele>395.5</ele>
        <time>2018-12-30T13:24:59Z</time>
      </trkpt>
      <trkpt lat="39.8323450" lon="2.8039090">
        <ele>395.6</ele>
        <time>2018-12-30T13:25:00Z</time>
      </trkpt>
      <trkpt lat="39.8323160" lon="2.8039150">
        <ele>395.8</ele>
        <time>2018-12-30T13:25:01Z</time>
      </trkpt>
      <trkpt lat="39.8322870" lon="2.8039210">
        <ele>396.0</ele>
        <time>2018-12-30T13:25:02Z</time>
      </trkpt>
      <trkpt lat="39.8322570" lon="2.8039270">
        <ele>396.1</ele>
        <time>2018-12-30T13:25:03Z</time>
      </trkpt>
      <trkpt lat="39.8322280" lon="2.8039350">
        <ele>396.2</ele>
        <time>2018-12-30T13:25:04Z</time>
      </trkpt>
      <trkpt lat="39.8322000" lon="2.8039420">
        <ele>396.3</ele>
        <time>2018-12-30T13:25:05Z</time>
      </trkpt>
      <trkpt lat="39.8321710" lon="2.8039500">
        <ele>396.4</ele>
        <time>2018-12-30T13:25:06Z</time>
      </trkpt>
      <trkpt lat="39.8321420" lon="2.8039570">
        <ele>396.6</ele>
        <time>2018-12-30T13:25:07Z</time>
      </trkpt>
      <trkpt lat="39.8321130" lon="2.8039650">
        <ele>396.7</ele>
        <time>2018-12-30T13:25:08Z</time>
      </trkpt>
      <trkpt lat="39.8320850" lon="2.8039740">
        <ele>396.8</ele>
        <time>2018-12-30T13:25:09Z</time>
      </trkpt>
      <trkpt lat="39.8320560" lon="2.8039840">
        <ele>396.9</ele>
        <time>2018-12-30T13:25:10Z</time>
      </trkpt>
      <trkpt lat="39.8320280" lon="2.8039930">
        <ele>397.0</ele>
        <time>2018-12-30T13:25:11Z</time>
      </trkpt>
      <trkpt lat="39.8319980" lon="2.8039990">
        <ele>397.1</ele>
        <time>2018-12-30T13:25:12Z</time>
      </trkpt>
      <trkpt lat="39.8319680" lon="2.8040030">
        <ele>397.2</ele>
        <time>2018-12-30T13:25:13Z</time>
      </trkpt>
      <trkpt lat="39.8319370" lon="2.8040080">
        <ele>397.4</ele>
        <time>2018-12-30T13:25:14Z</time>
      </trkpt>
      <trkpt lat="39.8319060" lon="2.8040150">
        <ele>397.5</ele>
        <time>2018-12-30T13:25:15Z</time>
      </trkpt>
      <trkpt lat="39.8318750" lon="2.8040210">
        <ele>397.6</ele>
        <time>2018-12-30T13:25:16Z</time>
      </trkpt>
      <trkpt lat="39.8318440" lon="2.8040290">
        <ele>397.7</ele>
        <time>2018-12-30T13:25:17Z</time>
      </trkpt>
      <trkpt lat="39.8318130" lon="2.8040380">
        <ele>397.9</ele>
        <time>2018-12-30T13:25:18Z</time>
      </trkpt>
      <trkpt lat="39.8317820" lon="2.8040480">
        <ele>398.0</ele>
        <time>2018-12-30T13:25:19Z</time>
      </trkpt>
      <trkpt lat="39.8317510" lon="2.8040580">
        <ele>398.1</ele>
        <time>2018-12-30T13:25:20Z</time>
      </trkpt>
      <trkpt lat="39.8317210" lon="2.8040670">
        <ele>398.3</ele>
        <time>2018-12-30T13:25:21Z</time>
      </trkpt>
      <trkpt lat="39.8316900" lon="2.8040750">
        <ele>398.4</ele>
        <time>2018-12-30T13:25:22Z</time>
      </trkpt>
      <trkpt lat="39.8316600" lon="2.8040830">
        <ele>398.5</ele>
        <time>2018-12-30T13:25:23Z</time>
      </trkpt>
      <trkpt lat="39.8316300" lon="2.8040910">
        <ele>398.7</ele>
        <time>2018-12-30T13:25:24Z</time>
      </trkpt>
      <trkpt lat="39.8316010" lon="2.8040990">
        <ele>398.9</ele>
        <time>2018-12-30T13:25:25Z</time>
      </trkpt>
      <trkpt lat="39.8315710" lon="2.8041080">
        <ele>399.1</ele>
        <time>2018-12-30T13:25:26Z</time>
      </trkpt>
      <trkpt lat="39.8315400" lon="2.8041200">
        <ele>399.3</ele>
        <time>2018-12-30T13:25:27Z</time>
      </trkpt>
      <trkpt lat="39.8315100" lon="2.8041350">
        <ele>399.5</ele>
        <time>2018-12-30T13:25:28Z</time>
      </trkpt>
      <trkpt lat="39.8314800" lon="2.8041500">
        <ele>399.7</ele>
        <time>2018-12-30T13:25:29Z</time>
      </trkpt>
      <trkpt lat="39.8314490" lon="2.8041650">
        <ele>399.9</ele>
        <time>2018-12-30T13:25:30Z</time>
      </trkpt>
      <trkpt lat="39.8314180" lon="2.8041810">
        <ele>400.1</ele>
        <time>2018-12-30T13:25:31Z</time>
      </trkpt>
      <trkpt lat="39.8313870" lon="2.8041950">
        <ele>400.3</ele>
        <time>2018-12-30T13:25:32Z</time>
      </trkpt>
      <trkpt lat="39.8313570" lon="2.8042090">
        <ele>400.6</ele>
        <time>2018-12-30T13:25:33Z</time>
      </trkpt>
      <trkpt lat="39.8313270" lon="2.8042210">
        <ele>400.9</ele>
        <time>2018-12-30T13:25:34Z</time>
      </trkpt>
      <trkpt lat="39.8312970" lon="2.8042340">
        <ele>401.2</ele>
        <time>2018-12-30T13:25:35Z</time>
      </trkpt>
      <trkpt lat="39.8312670" lon="2.8042480">
        <ele>401.5</ele>
        <time>2018-12-30T13:25:36Z</time>
      </trkpt>
      <trkpt lat="39.8312360" lon="2.8042610">
        <ele>401.8</ele>
        <time>2018-12-30T13:25:37Z</time>
      </trkpt>
      <trkpt lat="39.8312060" lon="2.8042760">
        <ele>402.0</ele>
        <time>2018-12-30T13:25:38Z</time>
      </trkpt>
      <trkpt lat="39.8311770" lon="2.8042910">
        <ele>402.3</ele>
        <time>2018-12-30T13:25:39Z</time>
      </trkpt>
      <trkpt lat="39.8311490" lon="2.8043080">
        <ele>402.5</ele>
        <time>2018-12-30T13:25:40Z</time>
      </trkpt>
      <trkpt lat="39.8311240" lon="2.8043290">
        <ele>402.8</ele>
        <time>2018-12-30T13:25:41Z</time>
      </trkpt>
      <trkpt lat="39.8311030" lon="2.8043550">
        <ele>403.0</ele>
        <time>2018-12-30T13:25:42Z</time>
      </trkpt>
      <trkpt lat="39.8310850" lon="2.8043850">
        <ele>403.2</ele>
        <time>2018-12-30T13:25:43Z</time>
      </trkpt>
      <trkpt lat="39.8310710" lon="2.8044180">
        <ele>403.4</ele>
        <time>2018-12-30T13:25:44Z</time>
      </trkpt>
      <trkpt lat="39.8310620" lon="2.8044540">
        <ele>403.6</ele>
        <time>2018-12-30T13:25:45Z</time>
      </trkpt>
      <trkpt lat="39.8310560" lon="2.8044910">
        <ele>403.8</ele>
        <time>2018-12-30T13:25:46Z</time>
      </trkpt>
      <trkpt lat="39.8310540" lon="2.8045300">
        <ele>404.0</ele>
        <time>2018-12-30T13:25:47Z</time>
      </trkpt>
      <trkpt lat="39.8310510" lon="2.8045740">
        <ele>404.2</ele>
        <time>2018-12-30T13:25:48Z</time>
      </trkpt>
      <trkpt lat="39.8310470" lon="2.8046230">
        <ele>404.5</ele>
        <time>2018-12-30T13:25:49Z</time>
      </trkpt>
      <trkpt lat="39.8310440" lon="2.8046760">
        <ele>404.6</ele>
        <time>2018-12-30T13:25:50Z</time>
      </trkpt>
      <trkpt lat="39.8310390" lon="2.8047280">
        <ele>404.8</ele>
        <time>2018-12-30T13:25:51Z</time>
      </trkpt>
      <trkpt lat="39.8310340" lon="2.8047800">
        <ele>404.9</ele>
        <time>2018-12-30T13:25:52Z</time>
      </trkpt>
      <trkpt lat="39.8310280" lon="2.8048330">
        <ele>405.1</ele>
        <time>2018-12-30T13:25:53Z</time>
      </trkpt>
      <trkpt lat="39.8310190" lon="2.8048860">
        <ele>405.3</ele>
        <time>2018-12-30T13:25:54Z</time>
      </trkpt>
      <trkpt lat="39.8310060" lon="2.8049360">
        <ele>405.6</ele>
        <time>2018-12-30T13:25:55Z</time>
      </trkpt>
      <trkpt lat="39.8309890" lon="2.8049830">
        <ele>405.7</ele>
        <time>2018-12-30T13:25:56Z</time>
      </trkpt>
      <trkpt lat="39.8309690" lon="2.8050260">
        <ele>405.9</ele>
        <time>2018-12-30T13:25:57Z</time>
      </trkpt>
      <trkpt lat="39.8309470" lon="2.8050670">
        <ele>406.1</ele>
        <time>2018-12-30T13:25:58Z</time>
      </trkpt>
      <trkpt lat="39.8309200" lon="2.8051050">
        <ele>406.3</ele>
        <time>2018-12-30T13:25:59Z</time>
      </trkpt>
      <trkpt lat="39.8308920" lon="2.8051390">
        <ele>406.5</ele>
        <time>2018-12-30T13:26:00Z</time>
      </trkpt>
      <trkpt lat="39.8308590" lon="2.8051650">
        <ele>406.6</ele>
        <time>2018-12-30T13:26:01Z</time>
      </trkpt>
      <trkpt lat="39.8308250" lon="2.8051820">
        <ele>406.8</ele>
        <time>2018-12-30T13:26:02Z</time>
      </trkpt>
      <trkpt lat="39.8307880" lon="2.8051880">
        <ele>406.9</ele>
        <time>2018-12-30T13:26:03Z</time>
      </trkpt>
      <trkpt lat="39.8307500" lon="2.8051870">
        <ele>407.1</ele>
        <time>2018-12-30T13:26:04Z</time>
      </trkpt>
      <trkpt lat="39.8307120" lon="2.8051810">
        <ele>407.2</ele>
        <time>2018-12-30T13:26:05Z</time>
      </trkpt>
      <trkpt lat="39.8306750" lon="2.8051670">
        <ele>407.4</ele>
        <time>2018-12-30T13:26:06Z</time>
      </trkpt>
      <trkpt lat="39.8306400" lon="2.8051460">
        <ele>407.5</ele>
        <time>2018-12-30T13:26:07Z</time>
      </trkpt>
      <trkpt lat="39.8306070" lon="2.8051210">
        <ele>407.7</ele>
        <time>2018-12-30T13:26:08Z</time>
      </trkpt>
      <trkpt lat="39.8305730" lon="2.8050930">
        <ele>407.8</ele>
        <time>2018-12-30T13:26:09Z</time>
      </trkpt>
      <trkpt lat="39.8305410" lon="2.8050640">
        <ele>407.9</ele>
        <time>2018-12-30T13:26:10Z</time>
      </trkpt>
      <trkpt lat="39.8305080" lon="2.8050350">
        <ele>408.0</ele>
        <time>2018-12-30T13:26:11Z</time>
      </trkpt>
      <trkpt lat="39.8304750" lon="2.8050050">
        <ele>408.1</ele>
        <time>2018-12-30T13:26:12Z</time>
      </trkpt>
      <trkpt lat="39.8304410" lon="2.8049750">
        <ele>408.2</ele>
        <time>2018-12-30T13:26:13Z</time>
      </trkpt>
      <trkpt lat="39.8304070" lon="2.8049450">
        <ele>408.4</ele>
        <time>2018-12-30T13:26:14Z</time>
      </trkpt>
      <trkpt lat="39.8303720" lon="2.8049170">
        <ele>408.5</ele>
        <time>2018-12-30T13:26:15Z</time>
      </trkpt>
      <trkpt lat="39.8303380" lon="2.8048880">
        <ele>408.6</ele>
        <time>2018-12-30T13:26:16Z</time>
      </trkpt>
      <trkpt lat="39.8303030" lon="2.8048600">
        <ele>408.8</ele>
        <time>2018-12-30T13:26:17Z</time>
      </trkpt>
      <trkpt lat="39.8302680" lon="2.8048320">
        <ele>408.9</ele>
        <time>2018-12-30T13:26:18Z</time>
      </trkpt>
      <trkpt lat="39.8302350" lon="2.8048040">
        <ele>409.1</ele>
        <time>2018-12-30T13:26:19Z</time>
      </trkpt>
      <trkpt lat="39.8302020" lon="2.8047760">
        <ele>409.2</ele>
        <time>2018-12-30T13:26:20Z</time>
      </trkpt>
      <trkpt lat="39.8301700" lon="2.8047490">
        <ele>409.4</ele>
        <time>2018-12-30T13:26:21Z</time>
      </trkpt>
      <trkpt lat="39.8301370" lon="2.8047210">
        <ele>409.5</ele>
        <time>2018-12-30T13:26:22Z</time>
      </trkpt>
      <trkpt lat="39.8301040" lon="2.8046920">
        <ele>409.7</ele>
        <time>2018-12-30T13:26:23Z</time>
      </trkpt>
      <trkpt lat="39.8300720" lon="2.8046610">
        <ele>409.8</ele>
        <time>2018-12-30T13:26:24Z</time>
      </trkpt>
      <trkpt lat="39.8300410" lon="2.8046290">
        <ele>410.0</ele>
        <time>2018-12-30T13:26:25Z</time>
      </trkpt>
      <trkpt lat="39.8300120" lon="2.8045940">
        <ele>410.1</ele>
        <time>2018-12-30T13:26:26Z</time>
      </trkpt>
      <trkpt lat="39.8299850" lon="2.8045560">
        <ele>410.3</ele>
        <time>2018-12-30T13:26:27Z</time>
      </trkpt>
      <trkpt lat="39.8299600" lon="2.8045150">
        <ele>410.4</ele>
        <time>2018-12-30T13:26:28Z</time>
      </trkpt>
      <trkpt lat="39.8299370" lon="2.8044730">
        <ele>410.6</ele>
        <time>2018-12-30T13:26:29Z</time>
      </trkpt>
      <trkpt lat="39.8299150" lon="2.8044290">
        <ele>410.7</ele>
        <time>2018-12-30T13:26:30Z</time>
      </trkpt>
      <trkpt lat="39.8298940" lon="2.8043850">
        <ele>410.9</ele>
        <time>2018-12-30T13:26:31Z</time>
      </trkpt>
      <trkpt lat="39.8298740" lon="2.8043410">
        <ele>411.0</ele>
        <time>2018-12-30T13:26:32Z</time>
      </trkpt>
      <trkpt lat="39.8298540" lon="2.8042960">
        <ele>411.2</ele>
        <time>2018-12-30T13:26:33Z</time>
      </trkpt>
      <trkpt lat="39.8298350" lon="2.8042510">
        <ele>411.3</ele>
        <time>2018-12-30T13:26:34Z</time>
      </trkpt>
      <trkpt lat="39.8298160" lon="2.8042060">
        <ele>411.5</ele>
        <time>2018-12-30T13:26:35Z</time>
      </trkpt>
      <trkpt lat="39.8297970" lon="2.8041590">
        <ele>411.7</ele>
        <time>2018-12-30T13:26:36Z</time>
      </trkpt>
      <trkpt lat="39.8297800" lon="2.8041130">
        <ele>411.9</ele>
        <time>2018-12-30T13:26:37Z</time>
      </trkpt>
      <trkpt lat="39.8297620" lon="2.8040680">
        <ele>412.1</ele>
        <time>2018-12-30T13:26:38Z</time>
      </trkpt>
      <trkpt lat="39.8297430" lon="2.8040220">
        <ele>412.3</ele>
        <time>2018-12-30T13:26:39Z</time>
      </trkpt>
      <trkpt lat="39.8297230" lon="2.8039740">
        <ele>412.5</ele>
        <time>2018-12-30T13:26:40Z</time>
      </trkpt>
      <trkpt lat="39.8297020" lon="2.8039270">
        <ele>412.6</ele>
        <time>2018-12-30T13:26:41Z</time>
      </trkpt>
      <trkpt lat="39.8296820" lon="2.8038800">
        <ele>412.8</ele>
        <time>2018-12-30T13:26:42Z</time>
      </trkpt>
      <trkpt lat="39.8296610" lon="2.8038330">
        <ele>413.0</ele>
        <time>2018-12-30T13:26:43Z</time>
      </trkpt>
      <trkpt lat="39.8296410" lon="2.8037830">
        <ele>413.2</ele>
        <time>2018-12-30T13:26:44Z</time>
      </trkpt>
      <trkpt lat="39.8296190" lon="2.8037320">
        <ele>413.4</ele>
        <time>2018-12-30T13:26:45Z</time>
      </trkpt>
      <trkpt lat="39.8295990" lon="2.8036820">
        <ele>413.6</ele>
        <time>2018-12-30T13:26:46Z</time>
      </trkpt>
      <trkpt lat="39.8295790" lon="2.8036320">
        <ele>413.9</ele>
        <time>2018-12-30T13:26:47Z</time>
      </trkpt>
      <trkpt lat="39.8295600" lon="2.8035830">
        <ele>414.2</ele>
        <time>2018-12-30T13:26:48Z</time>
      </trkpt>
      <trkpt lat="39.8295400" lon="2.8035350">
        <ele>414.4</ele>
        <time>2018-12-30T13:26:49Z</time>
      </trkpt>
      <trkpt lat="39.8295220" lon="2.8034860">
        <ele>414.6</ele>
        <time>2018-12-30T13:26:50Z</time>
      </trkpt>
      <trkpt lat="39.8295030" lon="2.8034360">
        <ele>414.8</ele>
        <time>2018-12-30T13:26:51Z</time>
      </trkpt>
      <trkpt lat="39.8294860" lon="2.8033840">
        <ele>415.1</ele>
        <time>2018-12-30T13:26:52Z</time>
      </trkpt>
      <trkpt lat="39.8294670" lon="2.8033320">
        <ele>415.4</ele>
        <time>2018-12-30T13:26:53Z</time>
      </trkpt>
      <trkpt lat="39.8294500" lon="2.8032810">
        <ele>415.9</ele>
        <time>2018-12-30T13:26:54Z</time>
      </trkpt>
      <trkpt lat="39.8294340" lon="2.8032300">
        <ele>416.4</ele>
        <time>2018-12-30T13:26:55Z</time>
      </trkpt>
      <trkpt lat="39.8294210" lon="2.8031780">
        <ele>416.8</ele>
        <time>2018-12-30T13:26:56Z</time>
      </trkpt>
      <trkpt lat="39.8294090" lon="2.8031250">
        <ele>417.2</ele>
        <time>2018-12-30T13:26:57Z</time>
      </trkpt>
      <trkpt lat="39.8293970" lon="2.8030740">
        <ele>417.5</ele>
        <time>2018-12-30T13:26:58Z</time>
      </trkpt>
      <trkpt lat="39.8293810" lon="2.8030260">
        <ele>417.9</ele>
        <time>2018-12-30T13:26:59Z</time>
      </trkpt>
      <trkpt lat="39.8293630" lon="2.8029870">
        <ele>418.1</ele>
        <time>2018-12-30T13:27:00Z</time>
      </trkpt>
      <trkpt lat="39.8293410" lon="2.8029680">
        <ele>418.3</ele>
        <time>2018-12-30T13:27:01Z</time>
      </trkpt>
      <trkpt lat="39.8293170" lon="2.8029660">
        <ele>418.5</ele>
        <time>2018-12-30T13:27:02Z</time>
      </trkpt>
      <trkpt lat="39.8292890" lon="2.8029770">
        <ele>418.7</ele>
        <time>2018-12-30T13:27:03Z</time>
      </trkpt>
      <trkpt lat="39.8292660" lon="2.8029910">
        <ele>418.8</ele>
        <time>2018-12-30T13:27:04Z</time>
      </trkpt>
      <trkpt lat="39.8292640" lon="2.8030190">
        <ele>419.0</ele>
        <time>2018-12-30T13:27:05Z</time>
      </trkpt>
      <trkpt lat="39.8292730" lon="2.8030670">
        <ele>419.2</ele>
        <time>2018-12-30T13:27:06Z</time>
      </trkpt>
      <trkpt lat="39.8292910" lon="2.8031270">
        <ele>419.4</ele>
        <time>2018-12-30T13:27:07Z</time>
      </trkpt>
      <trkpt lat="39.8293030" lon="2.8031900">
        <ele>419.7</ele>
        <time>2018-12-30T13:27:08Z</time>
      </trkpt>
      <trkpt lat="39.8293190" lon="2.8032470">
        <ele>419.9</ele>
        <time>2018-12-30T13:27:09Z</time>
      </trkpt>
      <trkpt lat="39.8293360" lon="2.8033030">
        <ele>420.2</ele>
        <time>2018-12-30T13:27:10Z</time>
      </trkpt>
      <trkpt lat="39.8293530" lon="2.8033580">
        <ele>420.4</ele>
        <time>2018-12-30T13:27:11Z</time>
      </trkpt>
      <trkpt lat="39.8293680" lon="2.8034150">
        <ele>420.6</ele>
        <time>2018-12-30T13:27:12Z</time>
      </trkpt>
      <trkpt lat="39.8293840" lon="2.8034720">
        <ele>420.8</ele>
        <time>2018-12-30T13:27:13Z</time>
      </trkpt>
      <trkpt lat="39.8294000" lon="2.8035290">
        <ele>421.0</ele>
        <time>2018-12-30T13:27:14Z</time>
      </trkpt>
      <trkpt lat="39.8294170" lon="2.8035860">
        <ele>421.2</ele>
        <time>2018-12-30T13:27:15Z</time>
      </trkpt>
      <trkpt lat="39.8294340" lon="2.8036420">
        <ele>421.5</ele>
        <time>2018-12-30T13:27:16Z</time>
      </trkpt>
      <trkpt lat="39.8294520" lon="2.8036980">
        <ele>421.7</ele>
        <time>2018-12-30T13:27:17Z</time>
      </trkpt>
      <trkpt lat="39.8294700" lon="2.8037530">
        <ele>421.9</ele>
        <time>2018-12-30T13:27:18Z</time>
      </trkpt>
      <trkpt lat="39.8294880" lon="2.8038090">
        <ele>422.1</ele>
        <time>2018-12-30T13:27:19Z</time>
      </trkpt>
      <trkpt lat="39.8295060" lon="2.8038640">
        <ele>422.3</ele>
        <time>2018-12-30T13:27:20Z</time>
      </trkpt>
      <trkpt lat="39.8295240" lon="2.8039190">
        <ele>422.5</ele>
        <time>2018-12-30T13:27:21Z</time>
      </trkpt>
      <trkpt lat="39.8295440" lon="2.8039740">
        <ele>422.7</ele>
        <time>2018-12-30T13:27:22Z</time>
      </trkpt>
      <trkpt lat="39.8295620" lon="2.8040290">
        <ele>423.0</ele>
        <time>2018-12-30T13:27:23Z</time>
      </trkpt>
      <trkpt lat="39.8295810" lon="2.8040840">
        <ele>423.2</ele>
        <time>2018-12-30T13:27:24Z</time>
      </trkpt>
      <trkpt lat="39.8295990" lon="2.8041380">
        <ele>423.4</ele>
        <time>2018-12-30T13:27:25Z</time>
      </trkpt>
      <trkpt lat="39.8296160" lon="2.8041920">
        <ele>423.6</ele>
        <time>2018-12-30T13:27:26Z</time>
      </trkpt>
      <trkpt lat="39.8296340" lon="2.8042450">
        <ele>423.7</ele>
        <time>2018-12-30T13:27:27Z</time>
      </trkpt>
      <trkpt lat="39.8296520" lon="2.8042980">
        <ele>423.9</ele>
        <time>2018-12-30T13:27:28Z</time>
      </trkpt>
      <trkpt lat="39.8296710" lon="2.8043520">
        <ele>424.1</ele>
        <time>2018-12-30T13:27:29Z</time>
      </trkpt>
      <trkpt lat="39.8296900" lon="2.8044060">
        <ele>424.3</ele>
        <time>2018-12-30T13:27:30Z</time>
      </trkpt>
      <trkpt lat="39.8297090" lon="2.8044610">
        <ele>424.5</ele>
        <time>2018-12-30T13:27:31Z</time>
      </trkpt>
      <trkpt lat="39.8297270" lon="2.8045160">
        <ele>424.7</ele>
        <time>2018-12-30T13:27:32Z</time>
      </trkpt>
      <trkpt lat="39.8297450" lon="2.8045700">
        <ele>424.9</ele>
        <time>2018-12-30T13:27:33Z</time>
      </trkpt>
      <trkpt lat="39.8297620" lon="2.8046230">
        <ele>425.0</ele>
        <time>2018-12-30T13:27:34Z</time>
      </trkpt>
      <trkpt lat="39.8297790" lon="2.8046750">
        <ele>425.2</ele>
        <time>2018-12-30T13:27:35Z</time>
      </trkpt>
      <trkpt lat="39.8297950" lon="2.8047250">
        <ele>425.4</ele>
        <time>2018-12-30T13:27:36Z</time>
      </trkpt>
      <trkpt lat="39.8298100" lon="2.8047760">
        <ele>425.5</ele>
        <time>2018-12-30T13:27:37Z</time>
      </trkpt>
      <trkpt lat="39.8298250" lon="2.8048280">
        <ele>425.6</ele>
        <time>2018-12-30T13:27:38Z</time>
      </trkpt>
      <trkpt lat="39.8298410" lon="2.8048790">
        <ele>425.7</ele>
        <time>2018-12-30T13:27:39Z</time>
      </trkpt>
      <trkpt lat="39.8298570" lon="2.8049300">
        <ele>425.9</ele>
        <time>2018-12-30T13:27:40Z</time>
      </trkpt>
      <trkpt lat="39.8298730" lon="2.8049820">
        <ele>426.0</ele>
        <time>2018-12-30T13:27:41Z</time>
      </trkpt>
      <trkpt lat="39.8298900" lon="2.8050320">
        <ele>426.1</ele>
        <time>2018-12-30T13:27:42Z</time>
      </trkpt>
      <trkpt lat="39.8299090" lon="2.8050820">
        <ele>426.3</ele>
        <time>2018-12-30T13:27:43Z</time>
      </trkpt>
      <trkpt lat="39.8299300" lon="2.8051300">
        <ele>426.5</ele>
        <time>2018-12-30T13:27:44Z</time>
      </trkpt>
      <trkpt lat="39.8299540" lon="2.8051760">
        <ele>426.7</ele>
        <time>2018-12-30T13:27:45Z</time>
      </trkpt>
      <trkpt lat="39.8299780" lon="2.8052210">
        <ele>426.9</ele>
        <time>2018-12-30T13:27:46Z</time>
      </trkpt>
      <trkpt lat="39.8300050" lon="2.8052650">
        <ele>427.0</ele>
        <time>2018-12-30T13:27:47Z</time>
      </trkpt>
      <trkpt lat="39.8300320" lon="2.8053080">
        <ele>427.2</ele>
        <time>2018-12-30T13:27:48Z</time>
      </trkpt>
      <trkpt lat="39.8300600" lon="2.8053500">
        <ele>427.4</ele>
        <time>2018-12-30T13:27:49Z</time>
      </trkpt>
      <trkpt lat="39.8300890" lon="2.8053920">
        <ele>427.5</ele>
        <time>2018-12-30T13:27:50Z</time>
      </trkpt>
      <trkpt lat="39.8301180" lon="2.8054330">
        <ele>427.7</ele>
        <time>2018-12-30T13:27:51Z</time>
      </trkpt>
      <trkpt lat="39.8301460" lon="2.8054730">
        <ele>427.8</ele>
        <time>2018-12-30T13:27:52Z</time>
      </trkpt>
      <trkpt lat="39.8301740" lon="2.8055130">
        <ele>428.0</ele>
        <time>2018-12-30T13:27:53Z</time>
      </trkpt>
      <trkpt lat="39.8302010" lon="2.8055520">
        <ele>428.1</ele>
        <time>2018-12-30T13:27:54Z</time>
      </trkpt>
      <trkpt lat="39.8302280" lon="2.8055910">
        <ele>428.3</ele>
        <time>2018-12-30T13:27:55Z</time>
      </trkpt>
      <trkpt lat="39.8302540" lon="2.8056280">
        <ele>428.4</ele>
        <time>2018-12-30T13:27:56Z</time>
      </trkpt>
      <trkpt lat="39.8302800" lon="2.8056640">
        <ele>428.6</ele>
        <time>2018-12-30T13:27:57Z</time>
      </trkpt>
      <trkpt lat="39.8303070" lon="2.8057000">
        <ele>428.9</ele>
        <time>2018-12-30T13:27:58Z</time>
      </trkpt>
      <trkpt lat="39.8303360" lon="2.8057340">
        <ele>429.1</ele>
        <time>2018-12-30T13:27:59Z</time>
      </trkpt>
      <trkpt lat="39.8303640" lon="2.8057680">
        <ele>429.3</ele>
        <time>2018-12-30T13:28:00Z</time>
      </trkpt>
      <trkpt lat="39.8303910" lon="2.8058010">
        <ele>429.5</ele>
        <time>2018-12-30T13:28:01Z</time>
      </trkpt>
      <trkpt lat="39.8304190" lon="2.8058340">
        <ele>429.7</ele>
        <time>2018-12-30T13:28:02Z</time>
      </trkpt>
      <trkpt lat="39.8304480" lon="2.8058670">
        <ele>429.9</ele>
        <time>2018-12-30T13:28:03Z</time>
      </trkpt>
      <trkpt lat="39.8304780" lon="2.8058990">
        <ele>430.1</ele>
        <time>2018-12-30T13:28:04Z</time>
      </trkpt>
      <trkpt lat="39.8305090" lon="2.8059310">
        <ele>430.3</ele>
        <time>2018-12-30T13:28:05Z</time>
      </trkpt>
      <trkpt lat="39.8305400" lon="2.8059610">
        <ele>430.4</ele>
        <time>2018-12-30T13:28:06Z</time>
      </trkpt>
      <trkpt lat="39.8305720" lon="2.8059880">
        <ele>430.6</ele>
        <time>2018-12-30T13:28:07Z</time>
      </trkpt>
      <trkpt lat="39.8306050" lon="2.8060120">
        <ele>430.7</ele>
        <time>2018-12-30T13:28:08Z</time>
      </trkpt>
      <trkpt lat="39.8306390" lon="2.8060330">
        <ele>430.9</ele>
        <time>2018-12-30T13:28:09Z</time>
      </trkpt>
      <trkpt lat="39.8306750" lon="2.8060530">
        <ele>431.0</ele>
        <time>2018-12-30T13:28:10Z</time>
      </trkpt>
      <trkpt lat="39.8307120" lon="2.8060730">
        <ele>431.2</ele>
        <time>2018-12-30T13:28:11Z</time>
      </trkpt>
      <trkpt lat="39.8307480" lon="2.8060940">
        <ele>431.4</ele>
        <time>2018-12-30T13:28:12Z</time>
      </trkpt>
      <trkpt lat="39.8307830" lon="2.8061190">
        <ele>431.5</ele>
        <time>2018-12-30T13:28:13Z</time>
      </trkpt>
      <trkpt lat="39.8308170" lon="2.8061470">
        <ele>431.7</ele>
        <time>2018-12-30T13:28:14Z</time>
      </trkpt>
      <trkpt lat="39.8308490" lon="2.8061800">
        <ele>431.9</ele>
        <time>2018-12-30T13:28:15Z</time>
      </trkpt>
      <trkpt lat="39.8308770" lon="2.8062190">
        <ele>432.2</ele>
        <time>2018-12-30T13:28:16Z</time>
      </trkpt>
      <trkpt lat="39.8308990" lon="2.8062620">
        <ele>432.4</ele>
        <time>2018-12-30T13:28:17Z</time>
      </trkpt>
      <trkpt lat="39.8309170" lon="2.8063070">
        <ele>432.6</ele>
        <time>2018-12-30T13:28:18Z</time>
      </trkpt>
      <trkpt lat="39.8309330" lon="2.8063520">
        <ele>432.9</ele>
        <time>2018-12-30T13:28:19Z</time>
      </trkpt>
      <trkpt lat="39.8309460" lon="2.8063970">
        <ele>433.1</ele>
        <time>2018-12-30T13:28:20Z</time>
      </trkpt>
      <trkpt lat="39.8309580" lon="2.8064430">
        <ele>433.4</ele>
        <time>2018-12-30T13:28:21Z</time>
      </trkpt>
      <trkpt lat="39.8309700" lon="2.8064900">
        <ele>433.7</ele>
        <time>2018-12-30T13:28:22Z</time>
      </trkpt>
      <trkpt lat="39.8309820" lon="2.8065360">
        <ele>434.0</ele>
        <time>2018-12-30T13:28:23Z</time>
      </trkpt>
      <trkpt lat="39.8309920" lon="2.8065820">
        <ele>434.4</ele>
        <time>2018-12-30T13:28:24Z</time>
      </trkpt>
      <trkpt lat="39.8309990" lon="2.8066270">
        <ele>434.9</ele>
        <time>2018-12-30T13:28:25Z</time>
      </trkpt>
      <trkpt lat="39.8310000" lon="2.8066730">
        <ele>435.3</ele>
        <time>2018-12-30T13:28:26Z</time>
      </trkpt>
      <trkpt lat="39.8309950" lon="2.8067170">
        <ele>435.7</ele>
        <time>2018-12-30T13:28:27Z</time>
      </trkpt>
      <trkpt lat="39.8309810" lon="2.8067570">
        <ele>436.2</ele>
        <time>2018-12-30T13:28:28Z</time>
      </trkpt>
      <trkpt lat="39.8309630" lon="2.8067840">
        <ele>436.6</ele>
        <time>2018-12-30T13:28:29Z</time>
      </trkpt>
      <trkpt lat="39.8309370" lon="2.8067880">
        <ele>437.0</ele>
        <time>2018-12-30T13:28:30Z</time>
      </trkpt>
      <trkpt lat="39.8309140" lon="2.8067750">
        <ele>437.4</ele>
        <time>2018-12-30T13:28:31Z</time>
      </trkpt>
      <trkpt lat="39.8308920" lon="2.8067520">
        <ele>437.8</ele>
        <time>2018-12-30T13:28:32Z</time>
      </trkpt>
      <trkpt lat="39.8308780" lon="2.8067270">
        <ele>438.2</ele>
        <time>2018-12-30T13:28:33Z</time>
      </trkpt>
      <trkpt lat="39.8308650" lon="2.8066960">
        <ele>438.6</ele>
        <time>2018-12-30T13:28:34Z</time>
      </trkpt>
      <trkpt lat="39.8308550" lon="2.8066600">
        <ele>439.1</ele>
        <time>2018-12-30T13:28:35Z</time>
      </trkpt>
      <trkpt lat="39.8308440" lon="2.8066250">
        <ele>439.5</ele>
        <time>2018-12-30T13:28:36Z</time>
      </trkpt>
      <trkpt lat="39.8308320" lon="2.8065900">
        <ele>439.9</ele>
        <time>2018-12-30T13:28:37Z</time>
      </trkpt>
      <trkpt lat="39.8308170" lon="2.8065540">
        <ele>440.0</ele>
        <time>2018-12-30T13:28:38Z</time>
      </trkpt>
      <trkpt lat="39.8307990" lon="2.8065150">
        <ele>440.2</ele>
        <time>2018-12-30T13:28:39Z</time>
      </trkpt>
      <trkpt lat="39.8307790" lon="2.8064740">
        <ele>440.5</ele>
        <time>2018-12-30T13:28:40Z</time>
      </trkpt>
      <trkpt lat="39.8307580" lon="2.8064320">
        <ele>440.7</ele>
        <time>2018-12-30T13:28:41Z</time>
      </trkpt>
      <trkpt lat="39.8307370" lon="2.8063910">
        <ele>440.9</ele>
        <time>2018-12-30T13:28:42Z</time>
      </trkpt>
      <trkpt lat="39.8307190" lon="2.8063510">
        <ele>441.1</ele>
        <time>2018-12-30T13:28:43Z</time>
      </trkpt>
      <trkpt lat="39.8307000" lon="2.8063120">
        <ele>441.3</ele>
        <time>2018-12-30T13:28:44Z</time>
      </trkpt>
      <trkpt lat="39.8306790" lon="2.8062770">
        <ele>441.5</ele>
        <time>2018-12-30T13:28:45Z</time>
      </trkpt>
      <trkpt lat="39.8306550" lon="2.8062470">
        <ele>441.8</ele>
        <time>2018-12-30T13:28:46Z</time>
      </trkpt>
      <trkpt lat="39.8306290" lon="2.8062270">
        <ele>442.1</ele>
        <time>2018-12-30T13:28:47Z</time>
      </trkpt>
      <trkpt lat="39.8306040" lon="2.8062170">
        <ele>442.4</ele>
        <time>2018-12-30T13:28:48Z</time>
      </trkpt>
      <trkpt lat="39.8305830" lon="2.8062210">
        <ele>442.6</ele>
        <time>2018-12-30T13:28:49Z</time>
      </trkpt>
      <trkpt lat="39.8305680" lon="2.8062380">
        <ele>442.7</ele>
        <time>2018-12-30T13:28:50Z</time>
      </trkpt>
      <trkpt lat="39.8305630" lon="2.8062710">
        <ele>442.9</ele>
        <time>2018-12-30T13:28:51Z</time>
      </trkpt>
      <trkpt lat="39.8305660" lon="2.8063110">
        <ele>443.1</ele>
        <time>2018-12-30T13:28:52Z</time>
      </trkpt>
      <trkpt lat="39.8305720" lon="2.8063540">
        <ele>443.4</ele>
        <time>2018-12-30T13:28:53Z</time>
      </trkpt>
      <trkpt lat="39.8305800" lon="2.8063940">
        <ele>443.6</ele>
        <time>2018-12-30T13:28:54Z</time>
      </trkpt>
      <trkpt lat="39.8305880" lon="2.8064330">
        <ele>443.8</ele>
        <time>2018-12-30T13:28:55Z</time>
      </trkpt>
      <trkpt lat="39.8305970" lon="2.8064730">
        <ele>444.0</ele>
        <time>2018-12-30T13:28:56Z</time>
      </trkpt>
      <trkpt lat="39.8306060" lon="2.8065130">
        <ele>444.2</ele>
        <time>2018-12-30T13:28:57Z</time>
      </trkpt>
      <trkpt lat="39.8306160" lon="2.8065540">
        <ele>444.4</ele>
        <time>2018-12-30T13:28:58Z</time>
      </trkpt>
      <trkpt lat="39.8306270" lon="2.8065950">
        <ele>444.6</ele>
        <time>2018-12-30T13:28:59Z</time>
      </trkpt>
      <trkpt lat="39.8306370" lon="2.8066360">
        <ele>444.8</ele>
        <time>2018-12-30T13:29:00Z</time>
      </trkpt>
      <trkpt lat="39.8306470" lon="2.8066770">
        <ele>445.0</ele>
        <time>2018-12-30T13:29:01Z</time>
      </trkpt>
      <trkpt lat="39.8306570" lon="2.8067170">
        <ele>445.2</ele>
        <time>2018-12-30T13:29:02Z</time>
      </trkpt>
      <trkpt lat="39.8306660" lon="2.8067580">
        <ele>445.4</ele>
        <time>2018-12-30T13:29:03Z</time>
      </trkpt>
      <trkpt lat="39.8306740" lon="2.8067980">
        <ele>445.7</ele>
        <time>2018-12-30T13:29:04Z</time>
      </trkpt>
      <trkpt lat="39.8306820" lon="2.8068370">
        <ele>445.9</ele>
        <time>2018-12-30T13:29:05Z</time>
      </trkpt>
      <trkpt lat="39.8306900" lon="2.8068760">
        <ele>446.1</ele>
        <time>2018-12-30T13:29:06Z</time>
      </trkpt>
      <trkpt lat="39.8306980" lon="2.8069150">
        <ele>446.3</ele>
        <time>2018-12-30T13:29:07Z</time>
      </trkpt>
      <trkpt lat="39.8307060" lon="2.8069540">
        <ele>446.4</ele>
        <time>2018-12-30T13:29:08Z</time>
      </trkpt>
      <trkpt lat="39.8307140" lon="2.8069930">
        <ele>446.6</ele>
        <time>2018-12-30T13:29:09Z</time>
      </trkpt>
      <trkpt lat="39.8307220" lon="2.8070310">
        <ele>446.7</ele>
        <time>2018-12-30T13:29:10Z</time>
      </trkpt>
      <trkpt lat="39.8307290" lon="2.8070700">
        <ele>446.9</ele>
        <time>2018-12-30T13:29:11Z</time>
      </trkpt>
      <trkpt lat="39.8307340" lon="2.8071090">
        <ele>447.0</ele>
        <time>2018-12-30T13:29:12Z</time>
      </trkpt>
      <trkpt lat="39.8307370" lon="2.8071480">
        <ele>447.1</ele>
        <time>2018-12-30T13:29:13Z</time>
      </trkpt>
      <trkpt lat="39.8307400" lon="2.8071860">
        <ele>447.2</ele>
        <time>2018-12-30T13:29:14Z</time>
      </trkpt>
      <trkpt lat="39.8307430" lon="2.8072240">
        <ele>447.4</ele>
        <time>2018-12-30T13:29:15Z</time>
      </trkpt>
      <trkpt lat="39.8307460" lon="2.8072620">
        <ele>447.6</ele>
        <time>2018-12-30T13:29:16Z</time>
      </trkpt>
      <trkpt lat="39.8307490" lon="2.8073000">
        <ele>447.7</ele>
        <time>2018-12-30T13:29:17Z</time>
      </trkpt>
      <trkpt lat="39.8307520" lon="2.8073390">
        <ele>447.9</ele>
        <time>2018-12-30T13:29:18Z</time>
      </trkpt>
      <trkpt lat="39.8307540" lon="2.8073770">
        <ele>448.1</ele>
        <time>2018-12-30T13:29:19Z</time>
      </trkpt>
      <trkpt lat="39.8307570" lon="2.8074170">
        <ele>448.2</ele>
        <time>2018-12-30T13:29:20Z</time>
      </trkpt>
      <trkpt lat="39.8307590" lon="2.8074560">
        <ele>448.4</ele>
        <time>2018-12-30T13:29:21Z</time>
      </trkpt>
      <trkpt lat="39.8307620" lon="2.8074960">
        <ele>448.6</ele>
        <time>2018-12-30T13:29:22Z</time>
      </trkpt>
      <trkpt lat="39.8307660" lon="2.8075350">
        <ele>448.7</ele>
        <time>2018-12-30T13:29:23Z</time>
      </trkpt>
      <trkpt lat="39.8307700" lon="2.8075750">
        <ele>448.8</ele>
        <time>2018-12-30T13:29:24Z</time>
      </trkpt>
      <trkpt lat="39.8307740" lon="2.8076140">
        <ele>449.0</ele>
        <time>2018-12-30T13:29:25Z</time>
      </trkpt>
      <trkpt lat="39.8307760" lon="2.8076550">
        <ele>449.1</ele>
        <time>2018-12-30T13:29:26Z</time>
      </trkpt>
      <trkpt lat="39.8307800" lon="2.8076950">
        <ele>449.3</ele>
        <time>2018-12-30T13:29:27Z</time>
      </trkpt>
      <trkpt lat="39.8307850" lon="2.8077370">
        <ele>449.4</ele>
        <time>2018-12-30T13:29:28Z</time>
      </trkpt>
      <trkpt lat="39.8307910" lon="2.8077780">
        <ele>449.6</ele>
        <time>2018-12-30T13:29:29Z</time>
      </trkpt>
      <trkpt lat="39.8307980" lon="2.8078200">
        <ele>449.8</ele>
        <time>2018-12-30T13:29:30Z</time>
      </trkpt>
      <trkpt lat="39.8308060" lon="2.8078620">
        <ele>450.0</ele>
        <time>2018-12-30T13:29:31Z</time>
      </trkpt>
      <trkpt lat="39.8308140" lon="2.8079030">
        <ele>450.2</ele>
        <time>2018-12-30T13:29:32Z</time>
      </trkpt>
      <trkpt lat="39.8308220" lon="2.8079450">
        <ele>450.5</ele>
        <time>2018-12-30T13:29:33Z</time>
      </trkpt>
      <trkpt lat="39.8308320" lon="2.8079840">
        <ele>450.8</ele>
        <time>2018-12-30T13:29:34Z</time>
      </trkpt>
      <trkpt lat="39.8308430" lon="2.8080230">
        <ele>451.1</ele>
        <time>2018-12-30T13:29:35Z</time>
      </trkpt>
      <trkpt lat="39.8308540" lon="2.8080600">
        <ele>451.4</ele>
        <time>2018-12-30T13:29:36Z</time>
      </trkpt>
      <trkpt lat="39.8308660" lon="2.8080960">
        <ele>451.6</ele>
        <time>2018-12-30T13:29:37Z</time>
      </trkpt>
      <trkpt lat="39.8308780" lon="2.8081310">
        <ele>451.8</ele>
        <time>2018-12-30T13:29:38Z</time>
      </trkpt>
      <trkpt lat="39.8308920" lon="2.8081650">
        <ele>451.9</ele>
        <time>2018-12-30T13:29:39Z</time>
      </trkpt>
      <trkpt lat="39.8309040" lon="2.8081970">
        <ele>452.1</ele>
        <time>2018-12-30T13:29:40Z</time>
      </trkpt>
      <trkpt lat="39.8309100" lon="2.8082300">
        <ele>452.3</ele>
        <time>2018-12-30T13:29:41Z</time>
      </trkpt>
      <trkpt lat="39.8309050" lon="2.8082600">
        <ele>452.5</ele>
        <time>2018-12-30T13:29:42Z</time>
      </trkpt>
      <trkpt lat="39.8308890" lon="2.8082810">
        <ele>452.7</ele>
        <time>2018-12-30T13:29:43Z</time>
      </trkpt>
      <trkpt lat="39.8308680" lon="2.8082820">
        <ele>452.8</ele>
        <time>2018-12-30T13:29:44Z</time>
      </trkpt>
      <trkpt lat="39.8308500" lon="2.8082700">
        <ele>452.9</ele>
        <time>2018-12-30T13:29:45Z</time>
      </trkpt>
      <trkpt lat="39.8308350" lon="2.8082470">
        <ele>453.1</ele>
        <time>2018-12-30T13:29:46Z</time>
      </trkpt>
      <trkpt lat="39.8308220" lon="2.8082220">
        <ele>453.3</ele>
        <time>2018-12-30T13:29:47Z</time>
      </trkpt>
      <trkpt lat="39.8308080" lon="2.8081950">
        <ele>453.4</ele>
        <time>2018-12-30T13:29:48Z</time>
      </trkpt>
      <trkpt lat="39.8307940" lon="2.8081630">
        <ele>453.6</ele>
        <time>2018-12-30T13:29:49Z</time>
      </trkpt>
      <trkpt lat="39.8307800" lon="2.8081280">
        <ele>453.9</ele>
        <time>2018-12-30T13:29:50Z</time>
      </trkpt>
      <trkpt lat="39.8307660" lon="2.8080890">
        <ele>454.1</ele>
        <time>2018-12-30T13:29:51Z</time>
      </trkpt>
      <trkpt lat="39.8307520" lon="2.8080490">
        <ele>454.4</ele>
        <time>2018-12-30T13:29:52Z</time>
      </trkpt>
      <trkpt lat="39.8307390" lon="2.8080090">
        <ele>454.6</ele>
        <time>2018-12-30T13:29:53Z</time>
      </trkpt>
      <trkpt lat="39.8307270" lon="2.8079690">
        <ele>454.9</ele>
        <time>2018-12-30T13:29:54Z</time>
      </trkpt>
      <trkpt lat="39.8307160" lon="2.8079300">
        <ele>455.1</ele>
        <time>2018-12-30T13:29:55Z</time>
      </trkpt>
      <trkpt lat="39.8307040" lon="2.8078890">
        <ele>455.4</ele>
        <time>2018-12-30T13:29:56Z</time>
      </trkpt>
      <trkpt lat="39.8306930" lon="2.8078480">
        <ele>455.7</ele>
        <time>2018-12-30T13:29:57Z</time>
      </trkpt>
      <trkpt lat="39.8306820" lon="2.8078060">
        <ele>456.0</ele>
        <time>2018-12-30T13:29:58Z</time>
      </trkpt>
      <trkpt lat="39.8306740" lon="2.8077630">
        <ele>456.4</ele>
        <time>2018-12-30T13:29:59Z</time>
      </trkpt>
      <trkpt lat="39.8306640" lon="2.8077200">
        <ele>456.7</ele>
        <time>2018-12-30T13:30:00Z</time>
      </trkpt>
      <trkpt lat="39.8306550" lon="2.8076770">
        <ele>457.1</ele>
        <time>2018-12-30T13:30:01Z</time>
      </trkpt>
      <trkpt lat="39.8306470" lon="2.8076350">
        <ele>457.5</ele>
        <time>2018-12-30T13:30:02Z</time>
      </trkpt>
      <trkpt lat="39.8306410" lon="2.8075940">
        <ele>457.9</ele>
        <time>2018-12-30T13:30:03Z</time>
      </trkpt>
      <trkpt lat="39.8306360" lon="2.8075530">
        <ele>458.4</ele>
        <time>2018-12-30T13:30:04Z</time>
      </trkpt>
      <trkpt lat="39.8306290" lon="2.8075110">
        <ele>458.9</ele>
        <time>2018-12-30T13:30:05Z</time>
      </trkpt>
      <trkpt lat="39.8306210" lon="2.8074690">
        <ele>459.4</ele>
        <time>2018-12-30T13:30:06Z</time>
      </trkpt>
      <trkpt lat="39.8306130" lon="2.8074280">
        <ele>459.9</ele>
        <time>2018-12-30T13:30:07Z</time>
      </trkpt>
      <trkpt lat="39.8306040" lon="2.8073880">
        <ele>460.4</ele>
        <time>2018-12-30T13:30:08Z</time>
      </trkpt>
      <trkpt lat="39.8305960" lon="2.8073490">
        <ele>460.9</ele>
        <time>2018-12-30T13:30:09Z</time>
      </trkpt>
      <trkpt lat="39.8305860" lon="2.8073110">
        <ele>461.4</ele>
        <time>2018-12-30T13:30:10Z</time>
      </trkpt>
      <trkpt lat="39.8305730" lon="2.8072780">
        <ele>461.9</ele>
        <time>2018-12-30T13:30:11Z</time>
      </trkpt>
      <trkpt lat="39.8305560" lon="2.8072500">
        <ele>462.3</ele>
        <time>2018-12-30T13:30:12Z</time>
      </trkpt>
      <trkpt lat="39.8305330" lon="2.8072300">
        <ele>462.8</ele>
        <time>2018-12-30T13:30:13Z</time>
      </trkpt>
      <trkpt lat="39.8305090" lon="2.8072230">
        <ele>463.2</ele>
        <time>2018-12-30T13:30:14Z</time>
      </trkpt>
      <trkpt lat="39.8304880" lon="2.8072280">
        <ele>463.5</ele>
        <time>2018-12-30T13:30:15Z</time>
      </trkpt>
      <trkpt lat="39.8304780" lon="2.8072480">
        <ele>463.8</ele>
        <time>2018-12-30T13:30:16Z</time>
      </trkpt>
      <trkpt lat="39.8304750" lon="2.8072760">
        <ele>464.1</ele>
        <time>2018-12-30T13:30:17Z</time>
      </trkpt>
      <trkpt lat="39.8304760" lon="2.8073120">
        <ele>464.4</ele>
        <time>2018-12-30T13:30:18Z</time>
      </trkpt>
      <trkpt lat="39.8304770" lon="2.8073510">
        <ele>464.8</ele>
        <time>2018-12-30T13:30:19Z</time>
      </trkpt>
      <trkpt lat="39.8304780" lon="2.8073930">
        <ele>465.2</ele>
        <time>2018-12-30T13:30:20Z</time>
      </trkpt>
      <trkpt lat="39.8304810" lon="2.8074390">
        <ele>465.5</ele>
        <time>2018-12-30T13:30:21Z</time>
      </trkpt>
      <trkpt lat="39.8304860" lon="2.8074850">
        <ele>465.9</ele>
        <time>2018-12-30T13:30:22Z</time>
      </trkpt>
      <trkpt lat="39.8304910" lon="2.8075340">
        <ele>466.2</ele>
        <time>2018-12-30T13:30:23Z</time>
      </trkpt>
      <trkpt lat="39.8304960" lon="2.8075830">
        <ele>466.5</ele>
        <time>2018-12-30T13:30:24Z</time>
      </trkpt>
      <trkpt lat="39.8305020" lon="2.8076320">
        <ele>466.8</ele>
        <time>2018-12-30T13:30:25Z</time>
      </trkpt>
      <trkpt lat="39.8305080" lon="2.8076810">
        <ele>467.1</ele>
        <time>2018-12-30T13:30:26Z</time>
      </trkpt>
      <trkpt lat="39.8305170" lon="2.8077300">
        <ele>467.4</ele>
        <time>2018-12-30T13:30:27Z</time>
      </trkpt>
      <trkpt lat="39.8305270" lon="2.8077780">
        <ele>467.7</ele>
        <time>2018-12-30T13:30:28Z</time>
      </trkpt>
      <trkpt lat="39.8305390" lon="2.8078240">
        <ele>467.9</ele>
        <time>2018-12-30T13:30:29Z</time>
      </trkpt>
      <trkpt lat="39.8305530" lon="2.8078690">
        <ele>468.2</ele>
        <time>2018-12-30T13:30:30Z</time>
      </trkpt>
      <trkpt lat="39.8305680" lon="2.8079130">
        <ele>468.5</ele>
        <time>2018-12-30T13:30:31Z</time>
      </trkpt>
      <trkpt lat="39.8305830" lon="2.8079570">
        <ele>468.7</ele>
        <time>2018-12-30T13:30:32Z</time>
      </trkpt>
      <trkpt lat="39.8305980" lon="2.8080000">
        <ele>469.0</ele>
        <time>2018-12-30T13:30:33Z</time>
      </trkpt>
      <trkpt lat="39.8306130" lon="2.8080420">
        <ele>469.2</ele>
        <time>2018-12-30T13:30:34Z</time>
      </trkpt>
      <trkpt lat="39.8306280" lon="2.8080840">
        <ele>469.5</ele>
        <time>2018-12-30T13:30:35Z</time>
      </trkpt>
      <trkpt lat="39.8306430" lon="2.8081250">
        <ele>469.7</ele>
        <time>2018-12-30T13:30:36Z</time>
      </trkpt>
      <trkpt lat="39.8306570" lon="2.8081660">
        <ele>470.0</ele>
        <time>2018-12-30T13:30:37Z</time>
      </trkpt>
      <trkpt lat="39.8306720" lon="2.8082050">
        <ele>470.2</ele>
        <time>2018-12-30T13:30:38Z</time>
      </trkpt>
      <trkpt lat="39.8306870" lon="2.8082440">
        <ele>470.4</ele>
        <time>2018-12-30T13:30:39Z</time>
      </trkpt>
      <trkpt lat="39.8307010" lon="2.8082840">
        <ele>470.7</ele>
        <time>2018-12-30T13:30:40Z</time>
      </trkpt>
      <trkpt lat="39.8307130" lon="2.8083240">
        <ele>470.9</ele>
        <time>2018-12-30T13:30:41Z</time>
      </trkpt>
      <trkpt lat="39.8307240" lon="2.8083650">
        <ele>471.1</ele>
        <time>2018-12-30T13:30:42Z</time>
      </trkpt>
      <trkpt lat="39.8307350" lon="2.8084070">
        <ele>471.3</ele>
        <time>2018-12-30T13:30:43Z</time>
      </trkpt>
      <trkpt lat="39.8307430" lon="2.8084480">
        <ele>471.5</ele>
        <time>2018-12-30T13:30:44Z</time>
      </trkpt>
      <trkpt lat="39.8307510" lon="2.8084890">
        <ele>471.8</ele>
        <time>2018-12-30T13:30:45Z</time>
      </trkpt>
      <trkpt lat="39.8307600" lon="2.8085310">
        <ele>472.0</ele>
        <time>2018-12-30T13:30:46Z</time>
      </trkpt>
      <trkpt lat="39.8307680" lon="2.8085710">
        <ele>472.2</ele>
        <time>2018-12-30T13:30:47Z</time>
      </trkpt>
      <trkpt lat="39.8307750" lon="2.8086110">
        <ele>472.4</ele>
        <time>2018-12-30T13:30:48Z</time>
      </trkpt>
      <trkpt lat="39.8307810" lon="2.8086510">
        <ele>472.6</ele>
        <time>2018-12-30T13:30:49Z</time>
      </trkpt>
      <trkpt lat="39.8307870" lon="2.8086910">
        <ele>472.8</ele>
        <time>2018-12-30T13:30:50Z</time>
      </trkpt>
      <trkpt lat="39.8307940" lon="2.8087320">
        <ele>473.0</ele>
        <time>2018-12-30T13:30:51Z</time>
      </trkpt>
      <trkpt lat="39.8308010" lon="2.8087720">
        <ele>473.2</ele>
        <time>2018-12-30T13:30:52Z</time>
      </trkpt>
      <trkpt lat="39.8308060" lon="2.8088120">
        <ele>473.5</ele>
        <time>2018-12-30T13:30:53Z</time>
      </trkpt>
      <trkpt lat="39.8308100" lon="2.8088520">
        <ele>473.7</ele>
        <time>2018-12-30T13:30:54Z</time>
      </trkpt>
      <trkpt lat="39.8308150" lon="2.8088920">
        <ele>474.0</ele>
        <time>2018-12-30T13:30:55Z</time>
      </trkpt>
      <trkpt lat="39.8308210" lon="2.8089320">
        <ele>474.2</ele>
        <time>2018-12-30T13:30:56Z</time>
      </trkpt>
      <trkpt lat="39.8308280" lon="2.8089720">
        <ele>474.5</ele>
        <time>2018-12-30T13:30:57Z</time>
      </trkpt>
      <trkpt lat="39.8308350" lon="2.8090120">
        <ele>474.7</ele>
        <time>2018-12-30T13:30:58Z</time>
      </trkpt>
      <trkpt lat="39.8308430" lon="2.8090530">
        <ele>475.0</ele>
        <time>2018-12-30T13:30:59Z</time>
      </trkpt>
      <trkpt lat="39.8308500" lon="2.8090950">
        <ele>475.3</ele>
        <time>2018-12-30T13:31:00Z</time>
      </trkpt>
      <trkpt lat="39.8308560" lon="2.8091380">
        <ele>475.6</ele>
        <time>2018-12-30T13:31:01Z</time>
      </trkpt>
      <trkpt lat="39.8308620" lon="2.8091820">
        <ele>476.0</ele>
        <time>2018-12-30T13:31:02Z</time>
      </trkpt>
      <trkpt lat="39.8308680" lon="2.8092270">
        <ele>476.3</ele>
        <time>2018-12-30T13:31:03Z</time>
      </trkpt>
      <trkpt lat="39.8308740" lon="2.8092720">
        <ele>476.7</ele>
        <time>2018-12-30T13:31:04Z</time>
      </trkpt>
      <trkpt lat="39.8308820" lon="2.8093160">
        <ele>477.0</ele>
        <time>2018-12-30T13:31:05Z</time>
      </trkpt>
      <trkpt lat="39.8308900" lon="2.8093600">
        <ele>477.3</ele>
        <time>2018-12-30T13:31:06Z</time>
      </trkpt>
      <trkpt lat="39.8308960" lon="2.8094040">
        <ele>477.7</ele>
        <time>2018-12-30T13:31:07Z</time>
      </trkpt>
      <trkpt lat="39.8309010" lon="2.8094480">
        <ele>478.0</ele>
        <time>2018-12-30T13:31:08Z</time>
      </trkpt>
      <trkpt lat="39.8309050" lon="2.8094910">
        <ele>478.4</ele>
        <time>2018-12-30T13:31:09Z</time>
      </trkpt>
      <trkpt lat="39.8309080" lon="2.8095340">
        <ele>478.7</ele>
        <time>2018-12-30T13:31:10Z</time>
      </trkpt>
      <trkpt lat="39.8309110" lon="2.8095780">
        <ele>479.1</ele>
        <time>2018-12-30T13:31:11Z</time>
      </trkpt>
      <trkpt lat="39.8309130" lon="2.8096220">
        <ele>479.3</ele>
        <time>2018-12-30T13:31:12Z</time>
      </trkpt>
      <trkpt lat="39.8309130" lon="2.8096650">
        <ele>479.5</ele>
        <time>2018-12-30T13:31:13Z</time>
      </trkpt>
      <trkpt lat="39.8309090" lon="2.8097050">
        <ele>479.7</ele>
        <time>2018-12-30T13:31:14Z</time>
      </trkpt>
      <trkpt lat="39.8309050" lon="2.8097430">
        <ele>479.9</ele>
        <time>2018-12-30T13:31:15Z</time>
      </trkpt>
      <trkpt lat="39.8308990" lon="2.8097820">
        <ele>480.1</ele>
        <time>2018-12-30T13:31:16Z</time>
      </trkpt>
      <trkpt lat="39.8308960" lon="2.8098260">
        <ele>480.4</ele>
        <time>2018-12-30T13:31:17Z</time>
      </trkpt>
      <trkpt lat="39.8308930" lon="2.8098690">
        <ele>480.6</ele>
        <time>2018-12-30T13:31:18Z</time>
      </trkpt>
      <trkpt lat="39.8308930" lon="2.8099110">
        <ele>480.9</ele>
        <time>2018-12-30T13:31:19Z</time>
      </trkpt>
      <trkpt lat="39.8308940" lon="2.8099520">
        <ele>481.2</ele>
        <time>2018-12-30T13:31:20Z</time>
      </trkpt>
      <trkpt lat="39.8308980" lon="2.8099920">
        <ele>481.5</ele>
        <time>2018-12-30T13:31:21Z</time>
      </trkpt>
      <trkpt lat="39.8309060" lon="2.8100330">
        <ele>481.8</ele>
        <time>2018-12-30T13:31:22Z</time>
      </trkpt>
      <trkpt lat="39.8309180" lon="2.8100770">
        <ele>482.1</ele>
        <time>2018-12-30T13:31:23Z</time>
      </trkpt>
      <trkpt lat="39.8309340" lon="2.8101200">
        <ele>482.4</ele>
        <time>2018-12-30T13:31:24Z</time>
      </trkpt>
      <trkpt lat="39.8309510" lon="2.8101600">
        <ele>482.7</ele>
        <time>2018-12-30T13:31:25Z</time>
      </trkpt>
      <trkpt lat="39.8309720" lon="2.8101960">
        <ele>482.9</ele>
        <time>2018-12-30T13:31:26Z</time>
      </trkpt>
      <trkpt lat="39.8309930" lon="2.8102300">
        <ele>483.1</ele>
        <time>2018-12-30T13:31:27Z</time>
      </trkpt>
      <trkpt lat="39.8310160" lon="2.8102620">
        <ele>483.3</ele>
        <time>2018-12-30T13:31:28Z</time>
      </trkpt>
      <trkpt lat="39.8310400" lon="2.8102920">
        <ele>483.5</ele>
        <time>2018-12-30T13:31:29Z</time>
      </trkpt>
      <trkpt lat="39.8310660" lon="2.8103210">
        <ele>483.7</ele>
        <time>2018-12-30T13:31:30Z</time>
      </trkpt>
      <trkpt lat="39.8310930" lon="2.8103480">
        <ele>484.1</ele>
        <time>2018-12-30T13:31:31Z</time>
      </trkpt>
      <trkpt lat="39.8311220" lon="2.8103750">
        <ele>484.4</ele>
        <time>2018-12-30T13:31:32Z</time>
      </trkpt>
      <trkpt lat="39.8311500" lon="2.8104020">
        <ele>484.7</ele>
        <time>2018-12-30T13:31:33Z</time>
      </trkpt>
      <trkpt lat="39.8311790" lon="2.8104270">
        <ele>485.0</ele>
        <time>2018-12-30T13:31:34Z</time>
      </trkpt>
      <trkpt lat="39.8312090" lon="2.8104520">
        <ele>485.3</ele>
        <time>2018-12-30T13:31:35Z</time>
      </trkpt>
      <trkpt lat="39.8312390" lon="2.8104750">
        <ele>485.6</ele>
        <time>2018-12-30T13:31:36Z</time>
      </trkpt>
      <trkpt lat="39.8312690" lon="2.8104960">
        <ele>485.9</ele>
        <time>2018-12-30T13:31:37Z</time>
      </trkpt>
      <trkpt lat="39.8312990" lon="2.8105170">
        <ele>486.2</ele>
        <time>2018-12-30T13:31:38Z</time>
      </trkpt>
      <trkpt lat="39.8313290" lon="2.8105370">
        <ele>486.5</ele>
        <time>2018-12-30T13:31:39Z</time>
      </trkpt>
      <trkpt lat="39.8313590" lon="2.8105550">
        <ele>486.8</ele>
        <time>2018-12-30T13:31:40Z</time>
      </trkpt>
      <trkpt lat="39.8313880" lon="2.8105700">
        <ele>487.1</ele>
        <time>2018-12-30T13:31:41Z</time>
      </trkpt>
      <trkpt lat="39.8314150" lon="2.8105830">
        <ele>487.4</ele>
        <time>2018-12-30T13:31:42Z</time>
      </trkpt>
      <trkpt lat="39.8314430" lon="2.8105970">
        <ele>487.6</ele>
        <time>2018-12-30T13:31:43Z</time>
      </trkpt>
      <trkpt lat="39.8314720" lon="2.8106100">
        <ele>487.9</ele>
        <time>2018-12-30T13:31:44Z</time>
      </trkpt>
      <trkpt lat="39.8315030" lon="2.8106230">
        <ele>488.2</ele>
        <time>2018-12-30T13:31:45Z</time>
      </trkpt>
      <trkpt lat="39.8315340" lon="2.8106350">
        <ele>488.5</ele>
        <time>2018-12-30T13:31:46Z</time>
      </trkpt>
      <trkpt lat="39.8315640" lon="2.8106460">
        <ele>488.7</ele>
        <time>2018-12-30T13:31:47Z</time>
      </trkpt>
      <trkpt lat="39.8315940" lon="2.8106570">
        <ele>489.0</ele>
        <time>2018-12-30T13:31:48Z</time>
      </trkpt>
      <trkpt lat="39.8316240" lon="2.8106670">
        <ele>489.2</ele>
        <time>2018-12-30T13:31:49Z</time>
      </trkpt>
      <trkpt lat="39.8316530" lon="2.8106790">
        <ele>489.5</ele>
        <time>2018-12-30T13:31:50Z</time>
      </trkpt>
      <trkpt lat="39.8316830" lon="2.8106910">
        <ele>489.7</ele>
        <time>2018-12-30T13:31:51Z</time>
      </trkpt>
      <trkpt lat="39.8317130" lon="2.8107040">
        <ele>490.0</ele>
        <time>2018-12-30T13:31:52Z</time>
      </trkpt>
      <trkpt lat="39.8317440" lon="2.8107170">
        <ele>490.3</ele>
        <time>2018-12-30T13:31:53Z</time>
      </trkpt>
      <trkpt lat="39.8317750" lon="2.8107300">
        <ele>490.6</ele>
        <time>2018-12-30T13:31:54Z</time>
      </trkpt>
      <trkpt lat="39.8318050" lon="2.8107430">
        <ele>490.8</ele>
        <time>2018-12-30T13:31:55Z</time>
      </trkpt>
      <trkpt lat="39.8318340" lon="2.8107550">
        <ele>491.1</ele>
        <time>2018-12-30T13:31:56Z</time>
      </trkpt>
      <trkpt lat="39.8318620" lon="2.8107680">
        <ele>491.4</ele>
        <time>2018-12-30T13:31:57Z</time>
      </trkpt>
      <trkpt lat="39.8318920" lon="2.8107810">
        <ele>491.7</ele>
        <time>2018-12-30T13:31:58Z</time>
      </trkpt>
      <trkpt lat="39.8319210" lon="2.8107970">
        <ele>492.0</ele>
        <time>2018-12-30T13:31:59Z</time>
      </trkpt>
      <trkpt lat="39.8319500" lon="2.8108140">
        <ele>492.3</ele>
        <time>2018-12-30T13:32:00Z</time>
      </trkpt>
      <trkpt lat="39.8319770" lon="2.8108310">
        <ele>492.6</ele>
        <time>2018-12-30T13:32:01Z</time>
      </trkpt>
      <trkpt lat="39.8320040" lon="2.8108490">
        <ele>493.0</ele>
        <time>2018-12-30T13:32:02Z</time>
      </trkpt>
      <trkpt lat="39.8320300" lon="2.8108700">
        <ele>493.3</ele>
        <time>2018-12-30T13:32:03Z</time>
      </trkpt>
      <trkpt lat="39.8320530" lon="2.8108920">
        <ele>493.6</ele>
        <time>2018-12-30T13:32:04Z</time>
      </trkpt>
      <trkpt lat="39.8320720" lon="2.8109180">
        <ele>493.9</ele>
        <time>2018-12-30T13:32:05Z</time>
      </trkpt>
      <trkpt lat="39.8320880" lon="2.8109450">
        <ele>494.1</ele>
        <time>2018-12-30T13:32:06Z</time>
      </trkpt>
      <trkpt lat="39.8321010" lon="2.8109760">
        <ele>494.4</ele>
        <time>2018-12-30T13:32:07Z</time>
      </trkpt>
      <trkpt lat="39.8321110" lon="2.8110090">
        <ele>494.7</ele>
        <time>2018-12-30T13:32:08Z</time>
      </trkpt>
      <trkpt lat="39.8321200" lon="2.8110430">
        <ele>494.9</ele>
        <time>2018-12-30T13:32:09Z</time>
      </trkpt>
      <trkpt lat="39.8321260" lon="2.8110770">
        <ele>495.2</ele>
        <time>2018-12-30T13:32:10Z</time>
      </trkpt>
      <trkpt lat="39.8321320" lon="2.8111120">
        <ele>495.5</ele>
        <time>2018-12-30T13:32:11Z</time>
      </trkpt>
      <trkpt lat="39.8321370" lon="2.8111480">
        <ele>495.8</ele>
        <time>2018-12-30T13:32:12Z</time>
      </trkpt>
      <trkpt lat="39.8321420" lon="2.8111850">
        <ele>496.0</ele>
        <time>2018-12-30T13:32:13Z</time>
      </trkpt>
      <trkpt lat="39.8321450" lon="2.8112210">
        <ele>496.3</ele>
        <time>2018-12-30T13:32:14Z</time>
      </trkpt>
      <trkpt lat="39.8321480" lon="2.8112580">
        <ele>496.6</ele>
        <time>2018-12-30T13:32:15Z</time>
      </trkpt>
      <trkpt lat="39.8321530" lon="2.8112960">
        <ele>496.8</ele>
        <time>2018-12-30T13:32:16Z</time>
      </trkpt>
      <trkpt lat="39.8321580" lon="2.8113330">
        <ele>497.1</ele>
        <time>2018-12-30T13:32:17Z</time>
      </trkpt>
      <trkpt lat="39.8321640" lon="2.8113690">
        <ele>497.3</ele>
        <time>2018-12-30T13:32:18Z</time>
      </trkpt>
      <trkpt lat="39.8321710" lon="2.8114060">
        <ele>497.6</ele>
        <time>2018-12-30T13:32:19Z</time>
      </trkpt>
      <trkpt lat="39.8321770" lon="2.8114420">
        <ele>497.8</ele>
        <time>2018-12-30T13:32:20Z</time>
      </trkpt>
      <trkpt lat="39.8321820" lon="2.8114790">
        <ele>498.0</ele>
        <time>2018-12-30T13:32:21Z</time>
      </trkpt>
      <trkpt lat="39.8321860" lon="2.8115160">
        <ele>498.2</ele>
        <time>2018-12-30T13:32:22Z</time>
      </trkpt>
      <trkpt lat="39.8321890" lon="2.8115530">
        <ele>498.4</ele>
        <time>2018-12-30T13:32:23Z</time>
      </trkpt>
      <trkpt lat="39.8321930" lon="2.8115890">
        <ele>498.6</ele>
        <time>2018-12-30T13:32:24Z</time>
      </trkpt>
      <trkpt lat="39.8321980" lon="2.8116250">
        <ele>498.8</ele>
        <time>2018-12-30T13:32:25Z</time>
      </trkpt>
      <trkpt lat="39.8322030" lon="2.8116610">
        <ele>499.0</ele>
        <time>2018-12-30T13:32:26Z</time>
      </trkpt>
      <trkpt lat="39.8322090" lon="2.8116960">
        <ele>499.1</ele>
        <time>2018-12-30T13:32:27Z</time>
      </trkpt>
      <trkpt lat="39.8322160" lon="2.8117310">
        <ele>499.3</ele>
        <time>2018-12-30T13:32:28Z</time>
      </trkpt>
      <trkpt lat="39.8322240" lon="2.8117660">
        <ele>499.5</ele>
        <time>2018-12-30T13:32:29Z</time>
      </trkpt>
      <trkpt lat="39.8322330" lon="2.8118010">
        <ele>499.6</ele>
        <time>2018-12-30T13:32:30Z</time>
      </trkpt>
      <trkpt lat="39.8322410" lon="2.8118360">
        <ele>499.7</ele>
        <time>2018-12-30T13:32:31Z</time>
      </trkpt>
      <trkpt lat="39.8322490" lon="2.8118710">
        <ele>499.9</ele>
        <time>2018-12-30T13:32:32Z</time>
      </trkpt>
      <trkpt lat="39.8322580" lon="2.8119060">
        <ele>500.0</ele>
        <time>2018-12-30T13:32:33Z</time>
      </trkpt>
      <trkpt lat="39.8322660" lon="2.8119410">
        <ele>500.2</ele>
        <time>2018-12-30T13:32:34Z</time>
      </trkpt>
      <trkpt lat="39.8322760" lon="2.8119760">
        <ele>500.4</ele>
        <time>2018-12-30T13:32:35Z</time>
      </trkpt>
      <trkpt lat="39.8322860" lon="2.8120090">
        <ele>500.5</ele>
        <time>2018-12-30T13:32:36Z</time>
      </trkpt>
      <trkpt lat="39.8322990" lon="2.8120410">
        <ele>500.6</ele>
        <time>2018-12-30T13:32:37Z</time>
      </trkpt>
      <trkpt lat="39.8323120" lon="2.8120730">
        <ele>500.7</ele>
        <time>2018-12-30T13:32:38Z</time>
      </trkpt>
      <trkpt lat="39.8323280" lon="2.8121030">
        <ele>500.9</ele>
        <time>2018-12-30T13:32:39Z</time>
      </trkpt>
      <trkpt lat="39.8323440" lon="2.8121320">
        <ele>501.0</ele>
        <time>2018-12-30T13:32:40Z</time>
      </trkpt>
      <trkpt lat="39.8323620" lon="2.8121590">
        <ele>501.1</ele>
        <time>2018-12-30T13:32:41Z</time>
      </trkpt>
      <trkpt lat="39.8323800" lon="2.8121850">
        <ele>501.2</ele>
        <time>2018-12-30T13:32:42Z</time>
      </trkpt>
      <trkpt lat="39.8323980" lon="2.8122130">
        <ele>501.3</ele>
        <time>2018-12-30T13:32:43Z</time>
      </trkpt>
      <trkpt lat="39.8324160" lon="2.8122430">
        <ele>501.4</ele>
        <time>2018-12-30T13:32:44Z</time>
      </trkpt>
      <trkpt lat="39.8324360" lon="2.8122720">
        <ele>501.5</ele>
        <time>2018-12-30T13:32:45Z</time>
      </trkpt>
      <trkpt lat="39.8324570" lon="2.8122990">
        <ele>501.7</ele>
        <time>2018-12-30T13:32:46Z</time>
      </trkpt>
      <trkpt lat="39.8324800" lon="2.8123250">
        <ele>501.9</ele>
        <time>2018-12-30T13:32:47Z</time>
      </trkpt>
      <trkpt lat="39.8325020" lon="2.8123490">
        <ele>502.1</ele>
        <time>2018-12-30T13:32:48Z</time>
      </trkpt>
      <trkpt lat="39.8325260" lon="2.8123720">
        <ele>502.3</ele>
        <time>2018-12-30T13:32:49Z</time>
      </trkpt>
      <trkpt lat="39.8325480" lon="2.8123980">
        <ele>502.5</ele>
        <time>2018-12-30T13:32:50Z</time>
      </trkpt>
      <trkpt lat="39.8325660" lon="2.8124250">
        <ele>502.7</ele>
        <time>2018-12-30T13:32:51Z</time>
      </trkpt>
      <trkpt lat="39.8325830" lon="2.8124540">
        <ele>502.9</ele>
        <time>2018-12-30T13:32:52Z</time>
      </trkpt>
      <trkpt lat="39.8325980" lon="2.8124830">
        <ele>503.1</ele>
        <time>2018-12-30T13:32:53Z</time>
      </trkpt>
      <trkpt lat="39.8326120" lon="2.8125130">
        <ele>503.3</ele>
        <time>2018-12-30T13:32:54Z</time>
      </trkpt>
      <trkpt lat="39.8326250" lon="2.8125440">
        <ele>503.5</ele>
        <time>2018-12-30T13:32:55Z</time>
      </trkpt>
      <trkpt lat="39.8326370" lon="2.8125740">
        <ele>503.7</ele>
        <time>2018-12-30T13:32:56Z</time>
      </trkpt>
      <trkpt lat="39.8326470" lon="2.8126050">
        <ele>503.9</ele>
        <time>2018-12-30T13:32:57Z</time>
      </trkpt>
      <trkpt lat="39.8326530" lon="2.8126370">
        <ele>504.1</ele>
        <time>2018-12-30T13:32:58Z</time>
      </trkpt>
      <trkpt lat="39.8326550" lon="2.8126710">
        <ele>504.3</ele>
        <time>2018-12-30T13:32:59Z</time>
      </trkpt>
      <trkpt lat="39.8326480" lon="2.8127040">
        <ele>504.5</ele>
        <time>2018-12-30T13:33:00Z</time>
      </trkpt>
      <trkpt lat="39.8326370" lon="2.8127360">
        <ele>504.8</ele>
        <time>2018-12-30T13:33:01Z</time>
      </trkpt>
      <trkpt lat="39.8326220" lon="2.8127660">
        <ele>505.0</ele>
        <time>2018-12-30T13:33:02Z</time>
      </trkpt>
      <trkpt lat="39.8326050" lon="2.8127950">
        <ele>505.3</ele>
        <time>2018-12-30T13:33:03Z</time>
      </trkpt>
      <trkpt lat="39.8325870" lon="2.8128230">
        <ele>505.6</ele>
        <time>2018-12-30T13:33:04Z</time>
      </trkpt>
      <trkpt lat="39.8325670" lon="2.8128500">
        <ele>505.9</ele>
        <time>2018-12-30T13:33:05Z</time>
      </trkpt>
      <trkpt lat="39.8325450" lon="2.8128760">
        <ele>506.2</ele>
        <time>2018-12-30T13:33:06Z</time>
      </trkpt>
      <trkpt lat="39.8325200" lon="2.8128980">
        <ele>506.4</ele>
        <time>2018-12-30T13:33:07Z</time>
      </trkpt>
      <trkpt lat="39.8324910" lon="2.8129180">
        <ele>506.6</ele>
        <time>2018-12-30T13:33:08Z</time>
      </trkpt>
      <trkpt lat="39.8324590" lon="2.8129360">
        <ele>506.9</ele>
        <time>2018-12-30T13:33:09Z</time>
      </trkpt>
      <trkpt lat="39.8324250" lon="2.8129520">
        <ele>507.1</ele>
        <time>2018-12-30T13:33:10Z</time>
      </trkpt>
      <trkpt lat="39.8323880" lon="2.8129640">
        <ele>507.4</ele>
        <time>2018-12-30T13:33:11Z</time>
      </trkpt>
      <trkpt lat="39.8323500" lon="2.8129710">
        <ele>507.7</ele>
        <time>2018-12-30T13:33:12Z</time>
      </trkpt>
      <trkpt lat="39.8323110" lon="2.8129720">
        <ele>508.0</ele>
        <time>2018-12-30T13:33:13Z</time>
      </trkpt>
      <trkpt lat="39.8322740" lon="2.8129630">
        <ele>508.3</ele>
        <time>2018-12-30T13:33:14Z</time>
      </trkpt>
      <trkpt lat="39.8322380" lon="2.8129450">
        <ele>508.7</ele>
        <time>2018-12-30T13:33:15Z</time>
      </trkpt>
      <trkpt lat="39.8322080" lon="2.8129160">
        <ele>509.1</ele>
        <time>2018-12-30T13:33:16Z</time>
      </trkpt>
      <trkpt lat="39.8321840" lon="2.8128810">
        <ele>509.4</ele>
        <time>2018-12-30T13:33:17Z</time>
      </trkpt>
      <trkpt lat="39.8321680" lon="2.8128410">
        <ele>509.7</ele>
        <time>2018-12-30T13:33:18Z</time>
      </trkpt>
      <trkpt lat="39.8321590" lon="2.8127970">
        <ele>509.9</ele>
        <time>2018-12-30T13:33:19Z</time>
      </trkpt>
      <trkpt lat="39.8321580" lon="2.8127530">
        <ele>510.1</ele>
        <time>2018-12-30T13:33:20Z</time>
      </trkpt>
      <trkpt lat="39.8321580" lon="2.8127060">
        <ele>510.4</ele>
        <time>2018-12-30T13:33:21Z</time>
      </trkpt>
      <trkpt lat="39.8321600" lon="2.8126580">
        <ele>510.6</ele>
        <time>2018-12-30T13:33:22Z</time>
      </trkpt>
      <trkpt lat="39.8321630" lon="2.8126110">
        <ele>510.7</ele>
        <time>2018-12-30T13:33:23Z</time>
      </trkpt>
      <trkpt lat="39.8321660" lon="2.8125650">
        <ele>510.9</ele>
        <time>2018-12-30T13:33:24Z</time>
      </trkpt>
      <trkpt lat="39.8321680" lon="2.8125200">
        <ele>511.1</ele>
        <time>2018-12-30T13:33:25Z</time>
      </trkpt>
      <trkpt lat="39.8321670" lon="2.8124790">
        <ele>511.3</ele>
        <time>2018-12-30T13:33:26Z</time>
      </trkpt>
      <trkpt lat="39.8321600" lon="2.8124440">
        <ele>511.4</ele>
        <time>2018-12-30T13:33:27Z</time>
      </trkpt>
      <trkpt lat="39.8321460" lon="2.8124140">
        <ele>511.6</ele>
        <time>2018-12-30T13:33:28Z</time>
      </trkpt>
      <trkpt lat="39.8321310" lon="2.8123890">
        <ele>511.7</ele>
        <time>2018-12-30T13:33:29Z</time>
      </trkpt>
      <trkpt lat="39.8321170" lon="2.8123690">
        <ele>511.9</ele>
        <time>2018-12-30T13:33:30Z</time>
      </trkpt>
      <trkpt lat="39.8321040" lon="2.8123570">
        <ele>512.0</ele>
        <time>2018-12-30T13:33:31Z</time>
      </trkpt>
      <trkpt lat="39.8320920" lon="2.8123550">
        <ele>512.0</ele>
        <time>2018-12-30T13:33:32Z</time>
      </trkpt>
      <trkpt lat="39.8320770" lon="2.8123600">
        <ele>512.2</ele>
        <time>2018-12-30T13:33:33Z</time>
      </trkpt>
      <trkpt lat="39.8320550" lon="2.8123720">
        <ele>512.4</ele>
        <time>2018-12-30T13:33:34Z</time>
      </trkpt>
      <trkpt lat="39.8320310" lon="2.8123890">
        <ele>512.5</ele>
        <time>2018-12-30T13:33:35Z</time>
      </trkpt>
      <trkpt lat="39.8320110" lon="2.8124150">
        <ele>512.7</ele>
        <time>2018-12-30T13:33:36Z</time>
      </trkpt>
      <trkpt lat="39.8320000" lon="2.8124480">
        <ele>512.8</ele>
        <time>2018-12-30T13:33:37Z</time>
      </trkpt>
      <trkpt lat="39.8319910" lon="2.8124870">
        <ele>513.0</ele>
        <time>2018-12-30T13:33:38Z</time>
      </trkpt>
      <trkpt lat="39.8319830" lon="2.8125280">
        <ele>513.1</ele>
        <time>2018-12-30T13:33:39Z</time>
      </trkpt>
      <trkpt lat="39.8319760" lon="2.8125710">
        <ele>513.3</ele>
        <time>2018-12-30T13:33:40Z</time>
      </trkpt>
      <trkpt lat="39.8319710" lon="2.8126140">
        <ele>513.6</ele>
        <time>2018-12-30T13:33:41Z</time>
      </trkpt>
      <trkpt lat="39.8319660" lon="2.8126580">
        <ele>513.8</ele>
        <time>2018-12-30T13:33:42Z</time>
      </trkpt>
      <trkpt lat="39.8319600" lon="2.8127000">
        <ele>514.0</ele>
        <time>2018-12-30T13:33:43Z</time>
      </trkpt>
      <trkpt lat="39.8319530" lon="2.8127440">
        <ele>514.3</ele>
        <time>2018-12-30T13:33:44Z</time>
      </trkpt>
      <trkpt lat="39.8319460" lon="2.8127870">
        <ele>514.5</ele>
        <time>2018-12-30T13:33:45Z</time>
      </trkpt>
      <trkpt lat="39.8319400" lon="2.8128310">
        <ele>514.7</ele>
        <time>2018-12-30T13:33:46Z</time>
      </trkpt>
      <trkpt lat="39.8319350" lon="2.8128750">
        <ele>514.8</ele>
        <time>2018-12-30T13:33:47Z</time>
      </trkpt>
      <trkpt lat="39.8319330" lon="2.8129180">
        <ele>515.0</ele>
        <time>2018-12-30T13:33:48Z</time>
      </trkpt>
      <trkpt lat="39.8319310" lon="2.8129590">
        <ele>515.1</ele>
        <time>2018-12-30T13:33:49Z</time>
      </trkpt>
      <trkpt lat="39.8319290" lon="2.8130000">
        <ele>515.3</ele>
        <time>2018-12-30T13:33:50Z</time>
      </trkpt>
      <trkpt lat="39.8319250" lon="2.8130420">
        <ele>515.4</ele>
        <time>2018-12-30T13:33:51Z</time>
      </trkpt>
      <trkpt lat="39.8319150" lon="2.8130830">
        <ele>515.6</ele>
        <time>2018-12-30T13:33:52Z</time>
      </trkpt>
      <trkpt lat="39.8319020" lon="2.8131220">
        <ele>515.8</ele>
        <time>2018-12-30T13:33:53Z</time>
      </trkpt>
      <trkpt lat="39.8318850" lon="2.8131610">
        <ele>515.9</ele>
        <time>2018-12-30T13:33:54Z</time>
      </trkpt>
      <trkpt lat="39.8318700" lon="2.8131990">
        <ele>516.1</ele>
        <time>2018-12-30T13:33:55Z</time>
      </trkpt>
      <trkpt lat="39.8318550" lon="2.8132380">
        <ele>516.2</ele>
        <time>2018-12-30T13:33:56Z</time>
      </trkpt>
      <trkpt lat="39.8318400" lon="2.8132750">
        <ele>516.4</ele>
        <time>2018-12-30T13:33:57Z</time>
      </trkpt>
      <trkpt lat="39.8318250" lon="2.8133130">
        <ele>516.7</ele>
        <time>2018-12-30T13:33:58Z</time>
      </trkpt>
      <trkpt lat="39.8318090" lon="2.8133500">
        <ele>516.9</ele>
        <time>2018-12-30T13:33:59Z</time>
      </trkpt>
      <trkpt lat="39.8317940" lon="2.8133860">
        <ele>517.1</ele>
        <time>2018-12-30T13:34:00Z</time>
      </trkpt>
      <trkpt lat="39.8317710" lon="2.8134180">
        <ele>517.4</ele>
        <time>2018-12-30T13:34:01Z</time>
      </trkpt>
      <trkpt lat="39.8317460" lon="2.8134500">
        <ele>517.7</ele>
        <time>2018-12-30T13:34:02Z</time>
      </trkpt>
      <trkpt lat="39.8317190" lon="2.8134810">
        <ele>517.9</ele>
        <time>2018-12-30T13:34:03Z</time>
      </trkpt>
      <trkpt lat="39.8317000" lon="2.8135160">
        <ele>518.2</ele>
        <time>2018-12-30T13:34:04Z</time>
      </trkpt>
      <trkpt lat="39.8316860" lon="2.8135540">
        <ele>518.4</ele>
        <time>2018-12-30T13:34:05Z</time>
      </trkpt>
      <trkpt lat="39.8316770" lon="2.8135930">
        <ele>518.6</ele>
        <time>2018-12-30T13:34:06Z</time>
      </trkpt>
      <trkpt lat="39.8316720" lon="2.8136350">
        <ele>518.8</ele>
        <time>2018-12-30T13:34:07Z</time>
      </trkpt>
      <trkpt lat="39.8316700" lon="2.8136790">
        <ele>519.0</ele>
        <time>2018-12-30T13:34:08Z</time>
      </trkpt>
      <trkpt lat="39.8316740" lon="2.8137270">
        <ele>519.3</ele>
        <time>2018-12-30T13:34:09Z</time>
      </trkpt>
      <trkpt lat="39.8316860" lon="2.8137720">
        <ele>519.6</ele>
        <time>2018-12-30T13:34:10Z</time>
      </trkpt>
      <trkpt lat="39.8317080" lon="2.8138080">
        <ele>519.8</ele>
        <time>2018-12-30T13:34:11Z</time>
      </trkpt>
      <trkpt lat="39.8317360" lon="2.8138340">
        <ele>520.1</ele>
        <time>2018-12-30T13:34:12Z</time>
      </trkpt>
      <trkpt lat="39.8317670" lon="2.8138530">
        <ele>520.3</ele>
        <time>2018-12-30T13:34:13Z</time>
      </trkpt>
      <trkpt lat="39.8318020" lon="2.8138660">
        <ele>520.6</ele>
        <time>2018-12-30T13:34:14Z</time>
      </trkpt>
      <trkpt lat="39.8318370" lon="2.8138740">
        <ele>520.8</ele>
        <time>2018-12-30T13:34:15Z</time>
      </trkpt>
      <trkpt lat="39.8318720" lon="2.8138760">
        <ele>521.0</ele>
        <time>2018-12-30T13:34:16Z</time>
      </trkpt>
      <trkpt lat="39.8319070" lon="2.8138750">
        <ele>521.3</ele>
        <time>2018-12-30T13:34:17Z</time>
      </trkpt>
      <trkpt lat="39.8319430" lon="2.8138720">
        <ele>521.5</ele>
        <time>2018-12-30T13:34:18Z</time>
      </trkpt>
      <trkpt lat="39.8319790" lon="2.8138660">
        <ele>521.7</ele>
        <time>2018-12-30T13:34:19Z</time>
      </trkpt>
      <trkpt lat="39.8320160" lon="2.8138570">
        <ele>521.9</ele>
        <time>2018-12-30T13:34:20Z</time>
      </trkpt>
      <trkpt lat="39.8320550" lon="2.8138460">
        <ele>522.1</ele>
        <time>2018-12-30T13:34:21Z</time>
      </trkpt>
      <trkpt lat="39.8320940" lon="2.8138340">
        <ele>522.3</ele>
        <time>2018-12-30T13:34:22Z</time>
      </trkpt>
      <trkpt lat="39.8321340" lon="2.8138220">
        <ele>522.4</ele>
        <time>2018-12-30T13:34:23Z</time>
      </trkpt>
      <trkpt lat="39.8321740" lon="2.8138110">
        <ele>522.6</ele>
        <time>2018-12-30T13:34:24Z</time>
      </trkpt>
      <trkpt lat="39.8322130" lon="2.8138010">
        <ele>522.8</ele>
        <time>2018-12-30T13:34:25Z</time>
      </trkpt>
      <trkpt lat="39.8322530" lon="2.8137890">
        <ele>522.9</ele>
        <time>2018-12-30T13:34:26Z</time>
      </trkpt>
      <trkpt lat="39.8322940" lon="2.8137740">
        <ele>523.1</ele>
        <time>2018-12-30T13:34:27Z</time>
      </trkpt>
      <trkpt lat="39.8323350" lon="2.8137590">
        <ele>523.3</ele>
        <time>2018-12-30T13:34:28Z</time>
      </trkpt>
      <trkpt lat="39.8323750" lon="2.8137430">
        <ele>523.5</ele>
        <time>2018-12-30T13:34:29Z</time>
      </trkpt>
      <trkpt lat="39.8324150" lon="2.8137270">
        <ele>523.7</ele>
        <time>2018-12-30T13:34:30Z</time>
      </trkpt>
      <trkpt lat="39.8324530" lon="2.8137100">
        <ele>523.8</ele>
        <time>2018-12-30T13:34:31Z</time>
      </trkpt>
      <trkpt lat="39.8324900" lon="2.8136910">
        <ele>524.0</ele>
        <time>2018-12-30T13:34:32Z</time>
      </trkpt>
      <trkpt lat="39.8325260" lon="2.8136720">
        <ele>524.2</ele>
        <time>2018-12-30T13:34:33Z</time>
      </trkpt>
      <trkpt lat="39.8325620" lon="2.8136520">
        <ele>524.3</ele>
        <time>2018-12-30T13:34:34Z</time>
      </trkpt>
      <trkpt lat="39.8325960" lon="2.8136310">
        <ele>524.5</ele>
        <time>2018-12-30T13:34:35Z</time>
      </trkpt>
      <trkpt lat="39.8326290" lon="2.8136090">
        <ele>524.6</ele>
        <time>2018-12-30T13:34:36Z</time>
      </trkpt>
      <trkpt lat="39.8326610" lon="2.8135850">
        <ele>524.8</ele>
        <time>2018-12-30T13:34:37Z</time>
      </trkpt>
      <trkpt lat="39.8326930" lon="2.8135610">
        <ele>525.0</ele>
        <time>2018-12-30T13:34:38Z</time>
      </trkpt>
      <trkpt lat="39.8327240" lon="2.8135360">
        <ele>525.2</ele>
        <time>2018-12-30T13:34:39Z</time>
      </trkpt>
      <trkpt lat="39.8327550" lon="2.8135100">
        <ele>525.4</ele>
        <time>2018-12-30T13:34:40Z</time>
      </trkpt>
      <trkpt lat="39.8327850" lon="2.8134820">
        <ele>525.6</ele>
        <time>2018-12-30T13:34:41Z</time>
      </trkpt>
      <trkpt lat="39.8328130" lon="2.8134510">
        <ele>525.7</ele>
        <time>2018-12-30T13:34:42Z</time>
      </trkpt>
      <trkpt lat="39.8328410" lon="2.8134180">
        <ele>525.9</ele>
        <time>2018-12-30T13:34:43Z</time>
      </trkpt>
      <trkpt lat="39.8328680" lon="2.8133830">
        <ele>526.1</ele>
        <time>2018-12-30T13:34:44Z</time>
      </trkpt>
      <trkpt lat="39.8328930" lon="2.8133470">
        <ele>526.3</ele>
        <time>2018-12-30T13:34:45Z</time>
      </trkpt>
      <trkpt lat="39.8329160" lon="2.8133090">
        <ele>526.4</ele>
        <time>2018-12-30T13:34:46Z</time>
      </trkpt>
      <trkpt lat="39.8329380" lon="2.8132700">
        <ele>526.6</ele>
        <time>2018-12-30T13:34:47Z</time>
      </trkpt>
      <trkpt lat="39.8329590" lon="2.8132280">
        <ele>526.7</ele>
        <time>2018-12-30T13:34:48Z</time>
      </trkpt>
      <trkpt lat="39.8329770" lon="2.8131840">
        <ele>526.9</ele>
        <time>2018-12-30T13:34:49Z</time>
      </trkpt>
      <trkpt lat="39.8329930" lon="2.8131380">
        <ele>527.0</ele>
        <time>2018-12-30T13:34:50Z</time>
      </trkpt>
      <trkpt lat="39.8330080" lon="2.8130940">
        <ele>527.1</ele>
        <time>2018-12-30T13:34:51Z</time>
      </trkpt>
      <trkpt lat="39.8330240" lon="2.8130490">
        <ele>527.3</ele>
        <time>2018-12-30T13:34:52Z</time>
      </trkpt>
      <trkpt lat="39.8330390" lon="2.8130030">
        <ele>527.4</ele>
        <time>2018-12-30T13:34:53Z</time>
      </trkpt>
      <trkpt lat="39.8330550" lon="2.8129570">
        <ele>527.6</ele>
        <time>2018-12-30T13:34:54Z</time>
      </trkpt>
      <trkpt lat="39.8330710" lon="2.8129120">
        <ele>527.7</ele>
        <time>2018-12-30T13:34:55Z</time>
      </trkpt>
      <trkpt lat="39.8330880" lon="2.8128670">
        <ele>527.9</ele>
        <time>2018-12-30T13:34:56Z</time>
      </trkpt>
      <trkpt lat="39.8331040" lon="2.8128210">
        <ele>528.1</ele>
        <time>2018-12-30T13:34:57Z</time>
      </trkpt>
      <trkpt lat="39.8331200" lon="2.8127760">
        <ele>528.3</ele>
        <time>2018-12-30T13:34:58Z</time>
      </trkpt>
      <trkpt lat="39.8331360" lon="2.8127310">
        <ele>528.5</ele>
        <time>2018-12-30T13:34:59Z</time>
      </trkpt>
      <trkpt lat="39.8331520" lon="2.8126870">
        <ele>528.7</ele>
        <time>2018-12-30T13:35:00Z</time>
      </trkpt>
      <trkpt lat="39.8331680" lon="2.8126410">
        <ele>528.9</ele>
        <time>2018-12-30T13:35:01Z</time>
      </trkpt>
      <trkpt lat="39.8331850" lon="2.8125950">
        <ele>529.0</ele>
        <time>2018-12-30T13:35:02Z</time>
      </trkpt>
      <trkpt lat="39.8332030" lon="2.8125510">
        <ele>529.2</ele>
        <time>2018-12-30T13:35:03Z</time>
      </trkpt>
      <trkpt lat="39.8332220" lon="2.8125070">
        <ele>529.3</ele>
        <time>2018-12-30T13:35:04Z</time>
      </trkpt>
      <trkpt lat="39.8332400" lon="2.8124600">
        <ele>529.5</ele>
        <time>2018-12-30T13:35:05Z</time>
      </trkpt>
      <trkpt lat="39.8332580" lon="2.8124110">
        <ele>529.7</ele>
        <time>2018-12-30T13:35:06Z</time>
      </trkpt>
      <trkpt lat="39.8332750" lon="2.8123600">
        <ele>529.9</ele>
        <time>2018-12-30T13:35:07Z</time>
      </trkpt>
      <trkpt lat="39.8332920" lon="2.8123110">
        <ele>530.1</ele>
        <time>2018-12-30T13:35:08Z</time>
      </trkpt>
      <trkpt lat="39.8333100" lon="2.8122630">
        <ele>530.4</ele>
        <time>2018-12-30T13:35:09Z</time>
      </trkpt>
      <trkpt lat="39.8333270" lon="2.8122160">
        <ele>530.8</ele>
        <time>2018-12-30T13:35:10Z</time>
      </trkpt>
      <trkpt lat="39.8333440" lon="2.8121700">
        <ele>531.1</ele>
        <time>2018-12-30T13:35:11Z</time>
      </trkpt>
      <trkpt lat="39.8333600" lon="2.8121240">
        <ele>531.5</ele>
        <time>2018-12-30T13:35:12Z</time>
      </trkpt>
      <trkpt lat="39.8333750" lon="2.8120800">
        <ele>531.9</ele>
        <time>2018-12-30T13:35:13Z</time>
      </trkpt>
      <trkpt lat="39.8333900" lon="2.8120370">
        <ele>532.4</ele>
        <time>2018-12-30T13:35:14Z</time>
      </trkpt>
      <trkpt lat="39.8334050" lon="2.8119960">
        <ele>532.8</ele>
        <time>2018-12-30T13:35:15Z</time>
      </trkpt>
      <trkpt lat="39.8334210" lon="2.8119620">
        <ele>533.4</ele>
        <time>2018-12-30T13:35:16Z</time>
      </trkpt>
      <trkpt lat="39.8334420" lon="2.8119360">
        <ele>534.0</ele>
        <time>2018-12-30T13:35:17Z</time>
      </trkpt>
      <trkpt lat="39.8334700" lon="2.8119190">
        <ele>534.6</ele>
        <time>2018-12-30T13:35:18Z</time>
      </trkpt>
      <trkpt lat="39.8334970" lon="2.8119210">
        <ele>535.1</ele>
        <time>2018-12-30T13:35:19Z</time>
      </trkpt>
      <trkpt lat="39.8335090" lon="2.8119460">
        <ele>535.4</ele>
        <time>2018-12-30T13:35:20Z</time>
      </trkpt>
      <trkpt lat="39.8335090" lon="2.8119850">
        <ele>535.8</ele>
        <time>2018-12-30T13:35:21Z</time>
      </trkpt>
      <trkpt lat="39.8335040" lon="2.8120230">
        <ele>536.2</ele>
        <time>2018-12-30T13:35:22Z</time>
      </trkpt>
      <trkpt lat="39.8335010" lon="2.8120520">
        <ele>536.5</ele>
        <time>2018-12-30T13:35:23Z</time>
      </trkpt>
      <trkpt lat="39.8334980" lon="2.8120830">
        <ele>536.8</ele>
        <time>2018-12-30T13:35:24Z</time>
      </trkpt>
      <trkpt lat="39.8334940" lon="2.8121170">
        <ele>537.1</ele>
        <time>2018-12-30T13:35:25Z</time>
      </trkpt>
      <trkpt lat="39.8334890" lon="2.8121560">
        <ele>537.4</ele>
        <time>2018-12-30T13:35:26Z</time>
      </trkpt>
      <trkpt lat="39.8334810" lon="2.8121930">
        <ele>537.7</ele>
        <time>2018-12-30T13:35:27Z</time>
      </trkpt>
      <trkpt lat="39.8334710" lon="2.8122310">
        <ele>538.0</ele>
        <time>2018-12-30T13:35:28Z</time>
      </trkpt>
      <trkpt lat="39.8334620" lon="2.8122690">
        <ele>538.3</ele>
        <time>2018-12-30T13:35:29Z</time>
      </trkpt>
      <trkpt lat="39.8334550" lon="2.8123100">
        <ele>538.6</ele>
        <time>2018-12-30T13:35:30Z</time>
      </trkpt>
      <trkpt lat="39.8334470" lon="2.8123520">
        <ele>538.9</ele>
        <time>2018-12-30T13:35:31Z</time>
      </trkpt>
      <trkpt lat="39.8334370" lon="2.8123950">
        <ele>539.1</ele>
        <time>2018-12-30T13:35:32Z</time>
      </trkpt>
      <trkpt lat="39.8334240" lon="2.8124410">
        <ele>539.4</ele>
        <time>2018-12-30T13:35:33Z</time>
      </trkpt>
      <trkpt lat="39.8334090" lon="2.8124890">
        <ele>539.6</ele>
        <time>2018-12-30T13:35:34Z</time>
      </trkpt>
      <trkpt lat="39.8333940" lon="2.8125360">
        <ele>539.9</ele>
        <time>2018-12-30T13:35:35Z</time>
      </trkpt>
      <trkpt lat="39.8333780" lon="2.8125820">
        <ele>540.1</ele>
        <time>2018-12-30T13:35:36Z</time>
      </trkpt>
      <trkpt lat="39.8333630" lon="2.8126270">
        <ele>540.3</ele>
        <time>2018-12-30T13:35:37Z</time>
      </trkpt>
      <trkpt lat="39.8333500" lon="2.8126720">
        <ele>540.5</ele>
        <time>2018-12-30T13:35:38Z</time>
      </trkpt>
      <trkpt lat="39.8333400" lon="2.8127180">
        <ele>540.7</ele>
        <time>2018-12-30T13:35:39Z</time>
      </trkpt>
      <trkpt lat="39.8333310" lon="2.8127640">
        <ele>540.9</ele>
        <time>2018-12-30T13:35:40Z</time>
      </trkpt>
      <trkpt lat="39.8333210" lon="2.8128110">
        <ele>541.0</ele>
        <time>2018-12-30T13:35:41Z</time>
      </trkpt>
      <trkpt lat="39.8333090" lon="2.8128570">
        <ele>541.3</ele>
        <time>2018-12-30T13:35:42Z</time>
      </trkpt>
      <trkpt lat="39.8332980" lon="2.8129040">
        <ele>541.5</ele>
        <time>2018-12-30T13:35:43Z</time>
      </trkpt>
      <trkpt lat="39.8332870" lon="2.8129510">
        <ele>541.7</ele>
        <time>2018-12-30T13:35:44Z</time>
      </trkpt>
      <trkpt lat="39.8332750" lon="2.8129960">
        <ele>541.9</ele>
        <time>2018-12-30T13:35:45Z</time>
      </trkpt>
      <trkpt lat="39.8332600" lon="2.8130370">
        <ele>542.1</ele>
        <time>2018-12-30T13:35:46Z</time>
      </trkpt>
      <trkpt lat="39.8332450" lon="2.8130770">
        <ele>542.3</ele>
        <time>2018-12-30T13:35:47Z</time>
      </trkpt>
      <trkpt lat="39.8332300" lon="2.8131170">
        <ele>542.6</ele>
        <time>2018-12-30T13:35:48Z</time>
      </trkpt>
      <trkpt lat="39.8332150" lon="2.8131620">
        <ele>542.8</ele>
        <time>2018-12-30T13:35:49Z</time>
      </trkpt>
      <trkpt lat="39.8331980" lon="2.8132070">
        <ele>543.0</ele>
        <time>2018-12-30T13:35:50Z</time>
      </trkpt>
      <trkpt lat="39.8331830" lon="2.8132520">
        <ele>543.2</ele>
        <time>2018-12-30T13:35:51Z</time>
      </trkpt>
      <trkpt lat="39.8331690" lon="2.8132970">
        <ele>543.5</ele>
        <time>2018-12-30T13:35:52Z</time>
      </trkpt>
      <trkpt lat="39.8331550" lon="2.8133420">
        <ele>543.7</ele>
        <time>2018-12-30T13:35:53Z</time>
      </trkpt>
      <trkpt lat="39.8331410" lon="2.8133880">
        <ele>543.9</ele>
        <time>2018-12-30T13:35:54Z</time>
      </trkpt>
      <trkpt lat="39.8331260" lon="2.8134340">
        <ele>544.1</ele>
        <time>2018-12-30T13:35:55Z</time>
      </trkpt>
      <trkpt lat="39.8331110" lon="2.8134820">
        <ele>544.4</ele>
        <time>2018-12-30T13:35:56Z</time>
      </trkpt>
      <trkpt lat="39.8330940" lon="2.8135310">
        <ele>544.7</ele>
        <time>2018-12-30T13:35:57Z</time>
      </trkpt>
      <trkpt lat="39.8330780" lon="2.8135800">
        <ele>544.9</ele>
        <time>2018-12-30T13:35:58Z</time>
      </trkpt>
      <trkpt lat="39.8330610" lon="2.8136280">
        <ele>545.2</ele>
        <time>2018-12-30T13:35:59Z</time>
      </trkpt>
      <trkpt lat="39.8330440" lon="2.8136720">
        <ele>545.5</ele>
        <time>2018-12-30T13:36:00Z</time>
      </trkpt>
      <trkpt lat="39.8330250" lon="2.8137150">
        <ele>545.7</ele>
        <time>2018-12-30T13:36:01Z</time>
      </trkpt>
      <trkpt lat="39.8330040" lon="2.8137560">
        <ele>546.0</ele>
        <time>2018-12-30T13:36:02Z</time>
      </trkpt>
      <trkpt lat="39.8329830" lon="2.8137960">
        <ele>546.3</ele>
        <time>2018-12-30T13:36:03Z</time>
      </trkpt>
      <trkpt lat="39.8329600" lon="2.8138370">
        <ele>546.6</ele>
        <time>2018-12-30T13:36:04Z</time>
      </trkpt>
      <trkpt lat="39.8329380" lon="2.8138780">
        <ele>546.9</ele>
        <time>2018-12-30T13:36:05Z</time>
      </trkpt>
      <trkpt lat="39.8329150" lon="2.8139200">
        <ele>547.2</ele>
        <time>2018-12-30T13:36:06Z</time>
      </trkpt>
      <trkpt lat="39.8328930" lon="2.8139610">
        <ele>547.5</ele>
        <time>2018-12-30T13:36:07Z</time>
      </trkpt>
      <trkpt lat="39.8328680" lon="2.8140020">
        <ele>547.9</ele>
        <time>2018-12-30T13:36:08Z</time>
      </trkpt>
      <trkpt lat="39.8328430" lon="2.8140420">
        <ele>548.2</ele>
        <time>2018-12-30T13:36:09Z</time>
      </trkpt>
      <trkpt lat="39.8328180" lon="2.8140820">
        <ele>548.5</ele>
        <time>2018-12-30T13:36:10Z</time>
      </trkpt>
      <trkpt lat="39.8327910" lon="2.8141190">
        <ele>548.8</ele>
        <time>2018-12-30T13:36:11Z</time>
      </trkpt>
      <trkpt lat="39.8327630" lon="2.8141550">
        <ele>549.1</ele>
        <time>2018-12-30T13:36:12Z</time>
      </trkpt>
      <trkpt lat="39.8327340" lon="2.8141880">
        <ele>549.3</ele>
        <time>2018-12-30T13:36:13Z</time>
      </trkpt>
      <trkpt lat="39.8327050" lon="2.8142210">
        <ele>549.6</ele>
        <time>2018-12-30T13:36:14Z</time>
      </trkpt>
      <trkpt lat="39.8326730" lon="2.8142520">
        <ele>549.9</ele>
        <time>2018-12-30T13:36:15Z</time>
      </trkpt>
      <trkpt lat="39.8326410" lon="2.8142820">
        <ele>550.2</ele>
        <time>2018-12-30T13:36:16Z</time>
      </trkpt>
      <trkpt lat="39.8326080" lon="2.8143110">
        <ele>550.5</ele>
        <time>2018-12-30T13:36:17Z</time>
      </trkpt>
      <trkpt lat="39.8325770" lon="2.8143400">
        <ele>550.8</ele>
        <time>2018-12-30T13:36:18Z</time>
      </trkpt>
      <trkpt lat="39.8325460" lon="2.8143680">
        <ele>551.1</ele>
        <time>2018-12-30T13:36:19Z</time>
      </trkpt>
      <trkpt lat="39.8325150" lon="2.8143960">
        <ele>551.4</ele>
        <time>2018-12-30T13:36:20Z</time>
      </trkpt>
      <trkpt lat="39.8324840" lon="2.8144230">
        <ele>551.7</ele>
        <time>2018-12-30T13:36:21Z</time>
      </trkpt>
      <trkpt lat="39.8324520" lon="2.8144500">
        <ele>552.0</ele>
        <time>2018-12-30T13:36:22Z</time>
      </trkpt>
      <trkpt lat="39.8324200" lon="2.8144750">
        <ele>552.3</ele>
        <time>2018-12-30T13:36:23Z</time>
      </trkpt>
      <trkpt lat="39.8323880" lon="2.8144990">
        <ele>552.6</ele>
        <time>2018-12-30T13:36:24Z</time>
      </trkpt>
      <trkpt lat="39.8323600" lon="2.8145200">
        <ele>552.9</ele>
        <time>2018-12-30T13:36:25Z</time>
      </trkpt>
      <trkpt lat="39.8323320" lon="2.8145400">
        <ele>553.1</ele>
        <time>2018-12-30T13:36:26Z</time>
      </trkpt>
      <trkpt lat="39.8323040" lon="2.8145610">
        <ele>553.4</ele>
        <time>2018-12-30T13:36:27Z</time>
      </trkpt>
      <trkpt lat="39.8322760" lon="2.8145820">
        <ele>553.7</ele>
        <time>2018-12-30T13:36:28Z</time>
      </trkpt>
      <trkpt lat="39.8322520" lon="2.8146080">
        <ele>553.9</ele>
        <time>2018-12-30T13:36:29Z</time>
      </trkpt>
      <trkpt lat="39.8322290" lon="2.8146310">
        <ele>554.1</ele>
        <time>2018-12-30T13:36:30Z</time>
      </trkpt>
      <trkpt lat="39.8322050" lon="2.8146530">
        <ele>554.3</ele>
        <time>2018-12-30T13:36:31Z</time>
      </trkpt>
      <trkpt lat="39.8321810" lon="2.8146720">
        <ele>554.5</ele>
        <time>2018-12-30T13:36:32Z</time>
      </trkpt>
      <trkpt lat="39.8321530" lon="2.8146900">
        <ele>554.8</ele>
        <time>2018-12-30T13:36:33Z</time>
      </trkpt>
      <trkpt lat="39.8321240" lon="2.8147050">
        <ele>555.0</ele>
        <time>2018-12-30T13:36:34Z</time>
      </trkpt>
      <trkpt lat="39.8320910" lon="2.8147110">
        <ele>555.2</ele>
        <time>2018-12-30T13:36:35Z</time>
      </trkpt>
      <trkpt lat="39.8320630" lon="2.8147150">
        <ele>555.4</ele>
        <time>2018-12-30T13:36:36Z</time>
      </trkpt>
      <trkpt lat="39.8320360" lon="2.8147240">
        <ele>555.6</ele>
        <time>2018-12-30T13:36:37Z</time>
      </trkpt>
      <trkpt lat="39.8320100" lon="2.8147400">
        <ele>555.8</ele>
        <time>2018-12-30T13:36:38Z</time>
      </trkpt>
      <trkpt lat="39.8319820" lon="2.8147600">
        <ele>556.0</ele>
        <time>2018-12-30T13:36:39Z</time>
      </trkpt>
      <trkpt lat="39.8319590" lon="2.8147790">
        <ele>556.2</ele>
        <time>2018-12-30T13:36:40Z</time>
      </trkpt>
      <trkpt lat="39.8319330" lon="2.8147980">
        <ele>556.4</ele>
        <time>2018-12-30T13:36:41Z</time>
      </trkpt>
      <trkpt lat="39.8319040" lon="2.8148150">
        <ele>556.7</ele>
        <time>2018-12-30T13:36:42Z</time>
      </trkpt>
      <trkpt lat="39.8318690" lon="2.8148280">
        <ele>556.9</ele>
        <time>2018-12-30T13:36:43Z</time>
      </trkpt>
      <trkpt lat="39.8318360" lon="2.8148430">
        <ele>557.2</ele>
        <time>2018-12-30T13:36:44Z</time>
      </trkpt>
      <trkpt lat="39.8318020" lon="2.8148550">
        <ele>557.5</ele>
        <time>2018-12-30T13:36:45Z</time>
      </trkpt>
      <trkpt lat="39.8317620" lon="2.8148640">
        <ele>557.8</ele>
        <time>2018-12-30T13:36:46Z</time>
      </trkpt>
      <trkpt lat="39.8317210" lon="2.8148680">
        <ele>558.1</ele>
        <time>2018-12-30T13:36:47Z</time>
      </trkpt>
      <trkpt lat="39.8316800" lon="2.8148740">
        <ele>558.4</ele>
        <time>2018-12-30T13:36:48Z</time>
      </trkpt>
      <trkpt lat="39.8316430" lon="2.8148810">
        <ele>558.6</ele>
        <time>2018-12-30T13:36:49Z</time>
      </trkpt>
      <trkpt lat="39.8316060" lon="2.8148850">
        <ele>558.9</ele>
        <time>2018-12-30T13:36:50Z</time>
      </trkpt>
      <trkpt lat="39.8315680" lon="2.8148820">
        <ele>559.1</ele>
        <time>2018-12-30T13:36:51Z</time>
      </trkpt>
      <trkpt lat="39.8315320" lon="2.8148720">
        <ele>559.4</ele>
        <time>2018-12-30T13:36:52Z</time>
      </trkpt>
      <trkpt lat="39.8314990" lon="2.8148550">
        <ele>559.6</ele>
        <time>2018-12-30T13:36:53Z</time>
      </trkpt>
      <trkpt lat="39.8314730" lon="2.8148310">
        <ele>559.8</ele>
        <time>2018-12-30T13:36:54Z</time>
      </trkpt>
      <trkpt lat="39.8314490" lon="2.8148040">
        <ele>560.1</ele>
        <time>2018-12-30T13:36:55Z</time>
      </trkpt>
      <trkpt lat="39.8314250" lon="2.8147730">
        <ele>560.3</ele>
        <time>2018-12-30T13:36:56Z</time>
      </trkpt>
      <trkpt lat="39.8314000" lon="2.8147410">
        <ele>560.4</ele>
        <time>2018-12-30T13:36:57Z</time>
      </trkpt>
      <trkpt lat="39.8313770" lon="2.8147070">
        <ele>560.7</ele>
        <time>2018-12-30T13:36:58Z</time>
      </trkpt>
      <trkpt lat="39.8313520" lon="2.8146710">
        <ele>560.9</ele>
        <time>2018-12-30T13:36:59Z</time>
      </trkpt>
      <trkpt lat="39.8313260" lon="2.8146350">
        <ele>561.2</ele>
        <time>2018-12-30T13:37:00Z</time>
      </trkpt>
      <trkpt lat="39.8313000" lon="2.8145980">
        <ele>561.4</ele>
        <time>2018-12-30T13:37:01Z</time>
      </trkpt>
      <trkpt lat="39.8312750" lon="2.8145630">
        <ele>561.6</ele>
        <time>2018-12-30T13:37:02Z</time>
      </trkpt>
      <trkpt lat="39.8312500" lon="2.8145280">
        <ele>561.8</ele>
        <time>2018-12-30T13:37:03Z</time>
      </trkpt>
      <trkpt lat="39.8312260" lon="2.8144930">
        <ele>562.0</ele>
        <time>2018-12-30T13:37:04Z</time>
      </trkpt>
      <trkpt lat="39.8312030" lon="2.8144600">
        <ele>562.2</ele>
        <time>2018-12-30T13:37:05Z</time>
      </trkpt>
      <trkpt lat="39.8311800" lon="2.8144290">
        <ele>562.3</ele>
        <time>2018-12-30T13:37:06Z</time>
      </trkpt>
      <trkpt lat="39.8311580" lon="2.8144000">
        <ele>562.5</ele>
        <time>2018-12-30T13:37:07Z</time>
      </trkpt>
      <trkpt lat="39.8311340" lon="2.8143720">
        <ele>562.7</ele>
        <time>2018-12-30T13:37:08Z</time>
      </trkpt>
      <trkpt lat="39.8311070" lon="2.8143450">
        <ele>562.9</ele>
        <time>2018-12-30T13:37:09Z</time>
      </trkpt>
      <trkpt lat="39.8310790" lon="2.8143200">
        <ele>563.0</ele>
        <time>2018-12-30T13:37:10Z</time>
      </trkpt>
      <trkpt lat="39.8310510" lon="2.8142960">
        <ele>563.2</ele>
        <time>2018-12-30T13:37:11Z</time>
      </trkpt>
      <trkpt lat="39.8310230" lon="2.8142730">
        <ele>563.4</ele>
        <time>2018-12-30T13:37:12Z</time>
      </trkpt>
      <trkpt lat="39.8309960" lon="2.8142510">
        <ele>563.6</ele>
        <time>2018-12-30T13:37:13Z</time>
      </trkpt>
      <trkpt lat="39.8309690" lon="2.8142310">
        <ele>563.7</ele>
        <time>2018-12-30T13:37:14Z</time>
      </trkpt>
      <trkpt lat="39.8309420" lon="2.8142120">
        <ele>563.9</ele>
        <time>2018-12-30T13:37:15Z</time>
      </trkpt>
      <trkpt lat="39.8309150" lon="2.8141930">
        <ele>564.1</ele>
        <time>2018-12-30T13:37:16Z</time>
      </trkpt>
      <trkpt lat="39.8308890" lon="2.8141750">
        <ele>564.3</ele>
        <time>2018-12-30T13:37:17Z</time>
      </trkpt>
      <trkpt lat="39.8308630" lon="2.8141580">
        <ele>564.5</ele>
        <time>2018-12-30T13:37:18Z</time>
      </trkpt>
      <trkpt lat="39.8308370" lon="2.8141410">
        <ele>564.6</ele>
        <time>2018-12-30T13:37:19Z</time>
      </trkpt>
      <trkpt lat="39.8308120" lon="2.8141250">
        <ele>564.8</ele>
        <time>2018-12-30T13:37:20Z</time>
      </trkpt>
      <trkpt lat="39.8307850" lon="2.8141100">
        <ele>565.0</ele>
        <time>2018-12-30T13:37:21Z</time>
      </trkpt>
      <trkpt lat="39.8307570" lon="2.8140980">
        <ele>565.2</ele>
        <time>2018-12-30T13:37:22Z</time>
      </trkpt>
      <trkpt lat="39.8307300" lon="2.8140880">
        <ele>565.5</ele>
        <time>2018-12-30T13:37:23Z</time>
      </trkpt>
      <trkpt lat="39.8307030" lon="2.8140800">
        <ele>565.7</ele>
        <time>2018-12-30T13:37:24Z</time>
      </trkpt>
      <trkpt lat="39.8306750" lon="2.8140740">
        <ele>565.9</ele>
        <time>2018-12-30T13:37:25Z</time>
      </trkpt>
      <trkpt lat="39.8306490" lon="2.8140720">
        <ele>566.1</ele>
        <time>2018-12-30T13:37:26Z</time>
      </trkpt>
      <trkpt lat="39.8306220" lon="2.8140720">
        <ele>566.4</ele>
        <time>2018-12-30T13:37:27Z</time>
      </trkpt>
      <trkpt lat="39.8305960" lon="2.8140770">
        <ele>566.6</ele>
        <time>2018-12-30T13:37:28Z</time>
      </trkpt>
      <trkpt lat="39.8305690" lon="2.8140870">
        <ele>566.9</ele>
        <time>2018-12-30T13:37:29Z</time>
      </trkpt>
      <trkpt lat="39.8305410" lon="2.8141010">
        <ele>567.2</ele>
        <time>2018-12-30T13:37:30Z</time>
      </trkpt>
      <trkpt lat="39.8305150" lon="2.8141190">
        <ele>567.4</ele>
        <time>2018-12-30T13:37:31Z</time>
      </trkpt>
      <trkpt lat="39.8304890" lon="2.8141350">
        <ele>567.7</ele>
        <time>2018-12-30T13:37:32Z</time>
      </trkpt>
      <trkpt lat="39.8304620" lon="2.8141510">
        <ele>568.0</ele>
        <time>2018-12-30T13:37:33Z</time>
      </trkpt>
      <trkpt lat="39.8304350" lon="2.8141650">
        <ele>568.3</ele>
        <time>2018-12-30T13:37:34Z</time>
      </trkpt>
      <trkpt lat="39.8304070" lon="2.8141770">
        <ele>568.6</ele>
        <time>2018-12-30T13:37:35Z</time>
      </trkpt>
      <trkpt lat="39.8303780" lon="2.8141880">
        <ele>568.9</ele>
        <time>2018-12-30T13:37:36Z</time>
      </trkpt>
      <trkpt lat="39.8303470" lon="2.8141920">
        <ele>569.2</ele>
        <time>2018-12-30T13:37:37Z</time>
      </trkpt>
      <trkpt lat="39.8303170" lon="2.8141870">
        <ele>569.5</ele>
        <time>2018-12-30T13:37:38Z</time>
      </trkpt>
      <trkpt lat="39.8302890" lon="2.8141720">
        <ele>569.9</ele>
        <time>2018-12-30T13:37:39Z</time>
      </trkpt>
      <trkpt lat="39.8302660" lon="2.8141500">
        <ele>570.2</ele>
        <time>2018-12-30T13:37:40Z</time>
      </trkpt>
      <trkpt lat="39.8302510" lon="2.8141240">
        <ele>570.5</ele>
        <time>2018-12-30T13:37:41Z</time>
      </trkpt>
      <trkpt lat="39.8302440" lon="2.8140960">
        <ele>570.8</ele>
        <time>2018-12-30T13:37:42Z</time>
      </trkpt>
      <trkpt lat="39.8302420" lon="2.8140670">
        <ele>571.0</ele>
        <time>2018-12-30T13:37:43Z</time>
      </trkpt>
      <trkpt lat="39.8302420" lon="2.8140360">
        <ele>571.4</ele>
        <time>2018-12-30T13:37:44Z</time>
      </trkpt>
      <trkpt lat="39.8302500" lon="2.8140040">
        <ele>571.9</ele>
        <time>2018-12-30T13:37:45Z</time>
      </trkpt>
      <trkpt lat="39.8302630" lon="2.8139740">
        <ele>572.3</ele>
        <time>2018-12-30T13:37:46Z</time>
      </trkpt>
      <trkpt lat="39.8302820" lon="2.8139490">
        <ele>572.8</ele>
        <time>2018-12-30T13:37:47Z</time>
      </trkpt>
      <trkpt lat="39.8303020" lon="2.8139250">
        <ele>573.2</ele>
        <time>2018-12-30T13:37:48Z</time>
      </trkpt>
      <trkpt lat="39.8303220" lon="2.8139030">
        <ele>573.6</ele>
        <time>2018-12-30T13:37:49Z</time>
      </trkpt>
      <trkpt lat="39.8303420" lon="2.8138800">
        <ele>573.9</ele>
        <time>2018-12-30T13:37:50Z</time>
      </trkpt>
      <trkpt lat="39.8303620" lon="2.8138570">
        <ele>574.2</ele>
        <time>2018-12-30T13:37:51Z</time>
      </trkpt>
      <trkpt lat="39.8303820" lon="2.8138350">
        <ele>574.5</ele>
        <time>2018-12-30T13:37:52Z</time>
      </trkpt>
      <trkpt lat="39.8304010" lon="2.8138150">
        <ele>574.8</ele>
        <time>2018-12-30T13:37:53Z</time>
      </trkpt>
      <trkpt lat="39.8304190" lon="2.8137930">
        <ele>575.0</ele>
        <time>2018-12-30T13:37:54Z</time>
      </trkpt>
      <trkpt lat="39.8304330" lon="2.8137690">
        <ele>575.3</ele>
        <time>2018-12-30T13:37:55Z</time>
      </trkpt>
      <trkpt lat="39.8304410" lon="2.8137410">
        <ele>575.5</ele>
        <time>2018-12-30T13:37:56Z</time>
      </trkpt>
      <trkpt lat="39.8304420" lon="2.8137140">
        <ele>575.7</ele>
        <time>2018-12-30T13:37:57Z</time>
      </trkpt>
      <trkpt lat="39.8304360" lon="2.8136910">
        <ele>575.9</ele>
        <time>2018-12-30T13:37:58Z</time>
      </trkpt>
      <trkpt lat="39.8304270" lon="2.8136770">
        <ele>576.0</ele>
        <time>2018-12-30T13:37:59Z</time>
      </trkpt>
      <trkpt lat="39.8304100" lon="2.8136680">
        <ele>576.2</ele>
        <time>2018-12-30T13:38:00Z</time>
      </trkpt>
      <trkpt lat="39.8303870" lon="2.8136620">
        <ele>576.5</ele>
        <time>2018-12-30T13:38:01Z</time>
      </trkpt>
      <trkpt lat="39.8303610" lon="2.8136610">
        <ele>576.9</ele>
        <time>2018-12-30T13:38:02Z</time>
      </trkpt>
      <trkpt lat="39.8303340" lon="2.8136660">
        <ele>577.3</ele>
        <time>2018-12-30T13:38:03Z</time>
      </trkpt>
      <trkpt lat="39.8303110" lon="2.8136810">
        <ele>577.5</ele>
        <time>2018-12-30T13:38:04Z</time>
      </trkpt>
      <trkpt lat="39.8302870" lon="2.8136990">
        <ele>577.8</ele>
        <time>2018-12-30T13:38:05Z</time>
      </trkpt>
      <trkpt lat="39.8302650" lon="2.8137190">
        <ele>578.1</ele>
        <time>2018-12-30T13:38:06Z</time>
      </trkpt>
      <trkpt lat="39.8302430" lon="2.8137400">
        <ele>578.4</ele>
        <time>2018-12-30T13:38:07Z</time>
      </trkpt>
      <trkpt lat="39.8302220" lon="2.8137620">
        <ele>578.7</ele>
        <time>2018-12-30T13:38:08Z</time>
      </trkpt>
      <trkpt lat="39.8302030" lon="2.8137830">
        <ele>578.9</ele>
        <time>2018-12-30T13:38:09Z</time>
      </trkpt>
      <trkpt lat="39.8301850" lon="2.8138030">
        <ele>579.1</ele>
        <time>2018-12-30T13:38:10Z</time>
      </trkpt>
      <trkpt lat="39.8301690" lon="2.8138250">
        <ele>579.3</ele>
        <time>2018-12-30T13:38:11Z</time>
      </trkpt>
      <trkpt lat="39.8301510" lon="2.8138510">
        <ele>579.5</ele>
        <time>2018-12-30T13:38:12Z</time>
      </trkpt>
      <trkpt lat="39.8301320" lon="2.8138810">
        <ele>579.6</ele>
        <time>2018-12-30T13:38:13Z</time>
      </trkpt>
      <trkpt lat="39.8301140" lon="2.8139130">
        <ele>579.8</ele>
        <time>2018-12-30T13:38:14Z</time>
      </trkpt>
      <trkpt lat="39.8300970" lon="2.8139460">
        <ele>579.9</ele>
        <time>2018-12-30T13:38:15Z</time>
      </trkpt>
      <trkpt lat="39.8300810" lon="2.8139770">
        <ele>580.1</ele>
        <time>2018-12-30T13:38:16Z</time>
      </trkpt>
      <trkpt lat="39.8300650" lon="2.8140080">
        <ele>580.2</ele>
        <time>2018-12-30T13:38:17Z</time>
      </trkpt>
      <trkpt lat="39.8300510" lon="2.8140390">
        <ele>580.3</ele>
        <time>2018-12-30T13:38:18Z</time>
      </trkpt>
      <trkpt lat="39.8300390" lon="2.8140680">
        <ele>580.5</ele>
        <time>2018-12-30T13:38:19Z</time>
      </trkpt>
      <trkpt lat="39.8300270" lon="2.8140990">
        <ele>580.6</ele>
        <time>2018-12-30T13:38:20Z</time>
      </trkpt>
      <trkpt lat="39.8300150" lon="2.8141300">
        <ele>580.8</ele>
        <time>2018-12-30T13:38:21Z</time>
      </trkpt>
      <trkpt lat="39.8300050" lon="2.8141640">
        <ele>581.0</ele>
        <time>2018-12-30T13:38:22Z</time>
      </trkpt>
      <trkpt lat="39.8299960" lon="2.8142000">
        <ele>581.2</ele>
        <time>2018-12-30T13:38:23Z</time>
      </trkpt>
      <trkpt lat="39.8299880" lon="2.8142370">
        <ele>581.5</ele>
        <time>2018-12-30T13:38:24Z</time>
      </trkpt>
      <trkpt lat="39.8299810" lon="2.8142750">
        <ele>581.7</ele>
        <time>2018-12-30T13:38:25Z</time>
      </trkpt>
      <trkpt lat="39.8299730" lon="2.8143130">
        <ele>582.0</ele>
        <time>2018-12-30T13:38:26Z</time>
      </trkpt>
      <trkpt lat="39.8299670" lon="2.8143510">
        <ele>582.2</ele>
        <time>2018-12-30T13:38:27Z</time>
      </trkpt>
      <trkpt lat="39.8299600" lon="2.8143870">
        <ele>582.4</ele>
        <time>2018-12-30T13:38:28Z</time>
      </trkpt>
      <trkpt lat="39.8299530" lon="2.8144200">
        <ele>582.6</ele>
        <time>2018-12-30T13:38:29Z</time>
      </trkpt>
      <trkpt lat="39.8299430" lon="2.8144530">
        <ele>582.8</ele>
        <time>2018-12-30T13:38:30Z</time>
      </trkpt>
      <trkpt lat="39.8299320" lon="2.8144860">
        <ele>583.0</ele>
        <time>2018-12-30T13:38:31Z</time>
      </trkpt>
      <trkpt lat="39.8299210" lon="2.8145190">
        <ele>583.2</ele>
        <time>2018-12-30T13:38:32Z</time>
      </trkpt>
      <trkpt lat="39.8299090" lon="2.8145510">
        <ele>583.3</ele>
        <time>2018-12-30T13:38:33Z</time>
      </trkpt>
      <trkpt lat="39.8298950" lon="2.8145800">
        <ele>583.6</ele>
        <time>2018-12-30T13:38:34Z</time>
      </trkpt>
      <trkpt lat="39.8298780" lon="2.8146070">
        <ele>583.8</ele>
        <time>2018-12-30T13:38:35Z</time>
      </trkpt>
      <trkpt lat="39.8298580" lon="2.8146300">
        <ele>584.0</ele>
        <time>2018-12-30T13:38:36Z</time>
      </trkpt>
      <trkpt lat="39.8298350" lon="2.8146450">
        <ele>584.2</ele>
        <time>2018-12-30T13:38:37Z</time>
      </trkpt>
      <trkpt lat="39.8298090" lon="2.8146540">
        <ele>584.5</ele>
        <time>2018-12-30T13:38:38Z</time>
      </trkpt>
      <trkpt lat="39.8297820" lon="2.8146550">
        <ele>584.7</ele>
        <time>2018-12-30T13:38:39Z</time>
      </trkpt>
      <trkpt lat="39.8297570" lon="2.8146480">
        <ele>584.9</ele>
        <time>2018-12-30T13:38:40Z</time>
      </trkpt>
      <trkpt lat="39.8297320" lon="2.8146320">
        <ele>585.1</ele>
        <time>2018-12-30T13:38:41Z</time>
      </trkpt>
      <trkpt lat="39.8297110" lon="2.8146090">
        <ele>585.4</ele>
        <time>2018-12-30T13:38:42Z</time>
      </trkpt>
      <trkpt lat="39.8296930" lon="2.8145790">
        <ele>585.6</ele>
        <time>2018-12-30T13:38:43Z</time>
      </trkpt>
      <trkpt lat="39.8296830" lon="2.8145460">
        <ele>585.8</ele>
        <time>2018-12-30T13:38:44Z</time>
      </trkpt>
      <trkpt lat="39.8296780" lon="2.8145140">
        <ele>586.0</ele>
        <time>2018-12-30T13:38:45Z</time>
      </trkpt>
      <trkpt lat="39.8296810" lon="2.8144820">
        <ele>586.2</ele>
        <time>2018-12-30T13:38:46Z</time>
      </trkpt>
      <trkpt lat="39.8296900" lon="2.8144510">
        <ele>586.3</ele>
        <time>2018-12-30T13:38:47Z</time>
      </trkpt>
      <trkpt lat="39.8297020" lon="2.8144170">
        <ele>586.6</ele>
        <time>2018-12-30T13:38:48Z</time>
      </trkpt>
      <trkpt lat="39.8297120" lon="2.8143840">
        <ele>586.8</ele>
        <time>2018-12-30T13:38:49Z</time>
      </trkpt>
      <trkpt lat="39.8297210" lon="2.8143510">
        <ele>587.1</ele>
        <time>2018-12-30T13:38:50Z</time>
      </trkpt>
      <trkpt lat="39.8297340" lon="2.8143180">
        <ele>587.3</ele>
        <time>2018-12-30T13:38:51Z</time>
      </trkpt>
      <trkpt lat="39.8297500" lon="2.8142850">
        <ele>587.5</ele>
        <time>2018-12-30T13:38:52Z</time>
      </trkpt>
      <trkpt lat="39.8297680" lon="2.8142500">
        <ele>587.8</ele>
        <time>2018-12-30T13:38:53Z</time>
      </trkpt>
      <trkpt lat="39.8297860" lon="2.8142150">
        <ele>588.1</ele>
        <time>2018-12-30T13:38:54Z</time>
      </trkpt>
      <trkpt lat="39.8298020" lon="2.8141800">
        <ele>588.3</ele>
        <time>2018-12-30T13:38:55Z</time>
      </trkpt>
      <trkpt lat="39.8298180" lon="2.8141440">
        <ele>588.6</ele>
        <time>2018-12-30T13:38:56Z</time>
      </trkpt>
      <trkpt lat="39.8298350" lon="2.8141080">
        <ele>588.9</ele>
        <time>2018-12-30T13:38:57Z</time>
      </trkpt>
      <trkpt lat="39.8298520" lon="2.8140740">
        <ele>589.1</ele>
        <time>2018-12-30T13:38:58Z</time>
      </trkpt>
      <trkpt lat="39.8298690" lon="2.8140410">
        <ele>589.4</ele>
        <time>2018-12-30T13:38:59Z</time>
      </trkpt>
      <trkpt lat="39.8298850" lon="2.8140100">
        <ele>589.7</ele>
        <time>2018-12-30T13:39:00Z</time>
      </trkpt>
      <trkpt lat="39.8299010" lon="2.8139770">
        <ele>589.9</ele>
        <time>2018-12-30T13:39:01Z</time>
      </trkpt>
      <trkpt lat="39.8299150" lon="2.8139470">
        <ele>590.2</ele>
        <time>2018-12-30T13:39:02Z</time>
      </trkpt>
      <trkpt lat="39.8299300" lon="2.8139180">
        <ele>590.5</ele>
        <time>2018-12-30T13:39:03Z</time>
      </trkpt>
      <trkpt lat="39.8299460" lon="2.8138900">
        <ele>590.8</ele>
        <time>2018-12-30T13:39:04Z</time>
      </trkpt>
      <trkpt lat="39.8299630" lon="2.8138610">
        <ele>590.3</ele>
        <time>2018-12-30T13:39:05Z</time>
      </trkpt>
      <trkpt lat="39.8299790" lon="2.8138320">
        <ele>590.1</ele>
        <time>2018-12-30T13:39:06Z</time>
      </trkpt>
      <trkpt lat="39.8299940" lon="2.8138000">
        <ele>591.1</ele>
        <time>2018-12-30T13:39:07Z</time>
      </trkpt>
      <trkpt lat="39.8300080" lon="2.8137680">
        <ele>590.3</ele>
        <time>2018-12-30T13:39:08Z</time>
      </trkpt>
      <trkpt lat="39.8300190" lon="2.8137360">
        <ele>591.2</ele>
        <time>2018-12-30T13:39:09Z</time>
      </trkpt>
      <trkpt lat="39.8300250" lon="2.8137050">
        <ele>591.1</ele>
        <time>2018-12-30T13:39:10Z</time>
      </trkpt>
      <trkpt lat="39.8300260" lon="2.8136730">
        <ele>592.0</ele>
        <time>2018-12-30T13:39:11Z</time>
      </trkpt>
      <trkpt lat="39.8300210" lon="2.8136420">
        <ele>592.9</ele>
        <time>2018-12-30T13:39:12Z</time>
      </trkpt>
      <trkpt lat="39.8300120" lon="2.8136190">
        <ele>592.8</ele>
        <time>2018-12-30T13:39:13Z</time>
      </trkpt>
      <trkpt lat="39.8299960" lon="2.8136020">
        <ele>593.6</ele>
        <time>2018-12-30T13:39:14Z</time>
      </trkpt>
      <trkpt lat="39.8299740" lon="2.8135960">
        <ele>595.4</ele>
        <time>2018-12-30T13:39:15Z</time>
      </trkpt>
      <trkpt lat="39.8299480" lon="2.8135980">
        <ele>597.0</ele>
        <time>2018-12-30T13:39:16Z</time>
      </trkpt>
      <trkpt lat="39.8299220" lon="2.8136100">
        <ele>598.6</ele>
        <time>2018-12-30T13:39:17Z</time>
      </trkpt>
      <trkpt lat="39.8298990" lon="2.8136300">
        <ele>597.5</ele>
        <time>2018-12-30T13:39:18Z</time>
      </trkpt>
      <trkpt lat="39.8298760" lon="2.8136520">
        <ele>599.1</ele>
        <time>2018-12-30T13:39:19Z</time>
      </trkpt>
      <trkpt lat="39.8298550" lon="2.8136770">
        <ele>599.6</ele>
        <time>2018-12-30T13:39:20Z</time>
      </trkpt>
      <trkpt lat="39.8298350" lon="2.8137030">
        <ele>598.3</ele>
        <time>2018-12-30T13:39:21Z</time>
      </trkpt>
      <trkpt lat="39.8298170" lon="2.8137300">
        <ele>598.7</ele>
        <time>2018-12-30T13:39:22Z</time>
      </trkpt>
      <trkpt lat="39.8297990" lon="2.8137590">
        <ele>599.1</ele>
        <time>2018-12-30T13:39:23Z</time>
      </trkpt>
      <trkpt lat="39.8297810" lon="2.8137880">
        <ele>599.5</ele>
        <time>2018-12-30T13:39:24Z</time>
      </trkpt>
      <trkpt lat="39.8297650" lon="2.8138170">
        <ele>599.8</ele>
        <time>2018-12-30T13:39:25Z</time>
      </trkpt>
      <trkpt lat="39.8297490" lon="2.8138460">
        <ele>600.1</ele>
        <time>2018-12-30T13:39:26Z</time>
      </trkpt>
      <trkpt lat="39.8297340" lon="2.8138760">
        <ele>600.4</ele>
        <time>2018-12-30T13:39:27Z</time>
      </trkpt>
      <trkpt lat="39.8297180" lon="2.8139060">
        <ele>600.8</ele>
        <time>2018-12-30T13:39:28Z</time>
      </trkpt>
      <trkpt lat="39.8297040" lon="2.8139340">
        <ele>601.0</ele>
        <time>2018-12-30T13:39:29Z</time>
      </trkpt>
      <trkpt lat="39.8296900" lon="2.8139630">
        <ele>601.3</ele>
        <time>2018-12-30T13:39:30Z</time>
      </trkpt>
      <trkpt lat="39.8296750" lon="2.8139910">
        <ele>601.6</ele>
        <time>2018-12-30T13:39:31Z</time>
      </trkpt>
      <trkpt lat="39.8296580" lon="2.8140190">
        <ele>601.8</ele>
        <time>2018-12-30T13:39:32Z</time>
      </trkpt>
      <trkpt lat="39.8296410" lon="2.8140460">
        <ele>602.1</ele>
        <time>2018-12-30T13:39:33Z</time>
      </trkpt>
      <trkpt lat="39.8296240" lon="2.8140700">
        <ele>602.3</ele>
        <time>2018-12-30T13:39:34Z</time>
      </trkpt>
      <trkpt lat="39.8296090" lon="2.8140920">
        <ele>602.5</ele>
        <time>2018-12-30T13:39:35Z</time>
      </trkpt>
      <trkpt lat="39.8295940" lon="2.8141120">
        <ele>602.7</ele>
        <time>2018-12-30T13:39:36Z</time>
      </trkpt>
      <trkpt lat="39.8295780" lon="2.8141300">
        <ele>602.9</ele>
        <time>2018-12-30T13:39:37Z</time>
      </trkpt>
      <trkpt lat="39.8295600" lon="2.8141490">
        <ele>603.2</ele>
        <time>2018-12-30T13:39:38Z</time>
      </trkpt>
      <trkpt lat="39.8295400" lon="2.8141720">
        <ele>603.5</ele>
        <time>2018-12-30T13:39:39Z</time>
      </trkpt>
      <trkpt lat="39.8295190" lon="2.8141950">
        <ele>603.8</ele>
        <time>2018-12-30T13:39:40Z</time>
      </trkpt>
      <trkpt lat="39.8294970" lon="2.8142180">
        <ele>604.2</ele>
        <time>2018-12-30T13:39:41Z</time>
      </trkpt>
      <trkpt lat="39.8294740" lon="2.8142370">
        <ele>604.5</ele>
        <time>2018-12-30T13:39:42Z</time>
      </trkpt>
      <trkpt lat="39.8294500" lon="2.8142540">
        <ele>604.7</ele>
        <time>2018-12-30T13:39:43Z</time>
      </trkpt>
      <trkpt lat="39.8294270" lon="2.8142710">
        <ele>605.0</ele>
        <time>2018-12-30T13:39:44Z</time>
      </trkpt>
      <trkpt lat="39.8294040" lon="2.8142870">
        <ele>605.2</ele>
        <time>2018-12-30T13:39:45Z</time>
      </trkpt>
      <trkpt lat="39.8293820" lon="2.8143030">
        <ele>605.4</ele>
        <time>2018-12-30T13:39:46Z</time>
      </trkpt>
      <trkpt lat="39.8293600" lon="2.8143180">
        <ele>605.6</ele>
        <time>2018-12-30T13:39:47Z</time>
      </trkpt>
      <trkpt lat="39.8293400" lon="2.8143320">
        <ele>605.8</ele>
        <time>2018-12-30T13:39:48Z</time>
      </trkpt>
      <trkpt lat="39.8293230" lon="2.8143510">
        <ele>605.9</ele>
        <time>2018-12-30T13:39:49Z</time>
      </trkpt>
      <trkpt lat="39.8293060" lon="2.8143730">
        <ele>606.1</ele>
        <time>2018-12-30T13:39:50Z</time>
      </trkpt>
      <trkpt lat="39.8292880" lon="2.8143990">
        <ele>606.5</ele>
        <time>2018-12-30T13:39:51Z</time>
      </trkpt>
      <trkpt lat="39.8292710" lon="2.8144250">
        <ele>606.8</ele>
        <time>2018-12-30T13:39:52Z</time>
      </trkpt>
      <trkpt lat="39.8292580" lon="2.8144520">
        <ele>607.0</ele>
        <time>2018-12-30T13:39:53Z</time>
      </trkpt>
      <trkpt lat="39.8292500" lon="2.8144830">
        <ele>607.3</ele>
        <time>2018-12-30T13:39:54Z</time>
      </trkpt>
      <trkpt lat="39.8292470" lon="2.8145140">
        <ele>607.5</ele>
        <time>2018-12-30T13:39:55Z</time>
      </trkpt>
      <trkpt lat="39.8292480" lon="2.8145460">
        <ele>607.7</ele>
        <time>2018-12-30T13:39:56Z</time>
      </trkpt>
      <trkpt lat="39.8292530" lon="2.8145760">
        <ele>607.9</ele>
        <time>2018-12-30T13:39:57Z</time>
      </trkpt>
      <trkpt lat="39.8292610" lon="2.8146070">
        <ele>608.1</ele>
        <time>2018-12-30T13:39:58Z</time>
      </trkpt>
      <trkpt lat="39.8292700" lon="2.8146390">
        <ele>608.3</ele>
        <time>2018-12-30T13:39:59Z</time>
      </trkpt>
      <trkpt lat="39.8292790" lon="2.8146720">
        <ele>608.6</ele>
        <time>2018-12-30T13:40:00Z</time>
      </trkpt>
      <trkpt lat="39.8292890" lon="2.8147050">
        <ele>608.9</ele>
        <time>2018-12-30T13:40:01Z</time>
      </trkpt>
      <trkpt lat="39.8292990" lon="2.8147360">
        <ele>609.2</ele>
        <time>2018-12-30T13:40:02Z</time>
      </trkpt>
      <trkpt lat="39.8293090" lon="2.8147670">
        <ele>609.5</ele>
        <time>2018-12-30T13:40:03Z</time>
      </trkpt>
      <trkpt lat="39.8293190" lon="2.8147980">
        <ele>609.7</ele>
        <time>2018-12-30T13:40:04Z</time>
      </trkpt>
      <trkpt lat="39.8293290" lon="2.8148290">
        <ele>610.0</ele>
        <time>2018-12-30T13:40:05Z</time>
      </trkpt>
      <trkpt lat="39.8293400" lon="2.8148600">
        <ele>610.3</ele>
        <time>2018-12-30T13:40:06Z</time>
      </trkpt>
      <trkpt lat="39.8293500" lon="2.8148910">
        <ele>610.6</ele>
        <time>2018-12-30T13:40:07Z</time>
      </trkpt>
      <trkpt lat="39.8293580" lon="2.8149240">
        <ele>610.9</ele>
        <time>2018-12-30T13:40:08Z</time>
      </trkpt>
      <trkpt lat="39.8293650" lon="2.8149570">
        <ele>611.1</ele>
        <time>2018-12-30T13:40:09Z</time>
      </trkpt>
      <trkpt lat="39.8293730" lon="2.8149900">
        <ele>611.4</ele>
        <time>2018-12-30T13:40:10Z</time>
      </trkpt>
      <trkpt lat="39.8293830" lon="2.8150230">
        <ele>611.6</ele>
        <time>2018-12-30T13:40:11Z</time>
      </trkpt>
      <trkpt lat="39.8293930" lon="2.8150560">
        <ele>611.9</ele>
        <time>2018-12-30T13:40:12Z</time>
      </trkpt>
      <trkpt lat="39.8294020" lon="2.8150890">
        <ele>612.1</ele>
        <time>2018-12-30T13:40:13Z</time>
      </trkpt>
      <trkpt lat="39.8294140" lon="2.8151200">
        <ele>612.3</ele>
        <time>2018-12-30T13:40:14Z</time>
      </trkpt>
      <trkpt lat="39.8294290" lon="2.8151490">
        <ele>612.5</ele>
        <time>2018-12-30T13:40:15Z</time>
      </trkpt>
      <trkpt lat="39.8294470" lon="2.8151760">
        <ele>612.7</ele>
        <time>2018-12-30T13:40:16Z</time>
      </trkpt>
      <trkpt lat="39.8294660" lon="2.8152010">
        <ele>612.9</ele>
        <time>2018-12-30T13:40:17Z</time>
      </trkpt>
      <trkpt lat="39.8294870" lon="2.8152230">
        <ele>613.1</ele>
        <time>2018-12-30T13:40:18Z</time>
      </trkpt>
      <trkpt lat="39.8295100" lon="2.8152390">
        <ele>613.3</ele>
        <time>2018-12-30T13:40:19Z</time>
      </trkpt>
      <trkpt lat="39.8295350" lon="2.8152510">
        <ele>613.5</ele>
        <time>2018-12-30T13:40:20Z</time>
      </trkpt>
      <trkpt lat="39.8295600" lon="2.8152580">
        <ele>613.6</ele>
        <time>2018-12-30T13:40:21Z</time>
      </trkpt>
      <trkpt lat="39.8295860" lon="2.8152630">
        <ele>613.8</ele>
        <time>2018-12-30T13:40:22Z</time>
      </trkpt>
      <trkpt lat="39.8296120" lon="2.8152630">
        <ele>614.0</ele>
        <time>2018-12-30T13:40:23Z</time>
      </trkpt>
      <trkpt lat="39.8296400" lon="2.8152610">
        <ele>614.1</ele>
        <time>2018-12-30T13:40:24Z</time>
      </trkpt>
      <trkpt lat="39.8296670" lon="2.8152550">
        <ele>614.3</ele>
        <time>2018-12-30T13:40:25Z</time>
      </trkpt>
      <trkpt lat="39.8296940" lon="2.8152490">
        <ele>614.5</ele>
        <time>2018-12-30T13:40:26Z</time>
      </trkpt>
      <trkpt lat="39.8297210" lon="2.8152420">
        <ele>614.7</ele>
        <time>2018-12-30T13:40:27Z</time>
      </trkpt>
      <trkpt lat="39.8297490" lon="2.8152370">
        <ele>614.9</ele>
        <time>2018-12-30T13:40:28Z</time>
      </trkpt>
      <trkpt lat="39.8297770" lon="2.8152330">
        <ele>615.1</ele>
        <time>2018-12-30T13:40:29Z</time>
      </trkpt>
      <trkpt lat="39.8298060" lon="2.8152310">
        <ele>615.2</ele>
        <time>2018-12-30T13:40:30Z</time>
      </trkpt>
      <trkpt lat="39.8298350" lon="2.8152290">
        <ele>615.3</ele>
        <time>2018-12-30T13:40:31Z</time>
      </trkpt>
      <trkpt lat="39.8298640" lon="2.8152250">
        <ele>615.5</ele>
        <time>2018-12-30T13:40:32Z</time>
      </trkpt>
      <trkpt lat="39.8298940" lon="2.8152200">
        <ele>615.6</ele>
        <time>2018-12-30T13:40:33Z</time>
      </trkpt>
      <trkpt lat="39.8299230" lon="2.8152140">
        <ele>615.8</ele>
        <time>2018-12-30T13:40:34Z</time>
      </trkpt>
      <trkpt lat="39.8299520" lon="2.8152080">
        <ele>616.0</ele>
        <time>2018-12-30T13:40:35Z</time>
      </trkpt>
      <trkpt lat="39.8299820" lon="2.8152020">
        <ele>616.1</ele>
        <time>2018-12-30T13:40:36Z</time>
      </trkpt>
      <trkpt lat="39.8300120" lon="2.8151960">
        <ele>616.3</ele>
        <time>2018-12-30T13:40:37Z</time>
      </trkpt>
      <trkpt lat="39.8300420" lon="2.8151880">
        <ele>616.5</ele>
        <time>2018-12-30T13:40:38Z</time>
      </trkpt>
      <trkpt lat="39.8300720" lon="2.8151810">
        <ele>616.6</ele>
        <time>2018-12-30T13:40:39Z</time>
      </trkpt>
      <trkpt lat="39.8301010" lon="2.8151740">
        <ele>616.9</ele>
        <time>2018-12-30T13:40:40Z</time>
      </trkpt>
      <trkpt lat="39.8301300" lon="2.8151690">
        <ele>617.1</ele>
        <time>2018-12-30T13:40:41Z</time>
      </trkpt>
      <trkpt lat="39.8301590" lon="2.8151630">
        <ele>617.4</ele>
        <time>2018-12-30T13:40:42Z</time>
      </trkpt>
      <trkpt lat="39.8301870" lon="2.8151560">
        <ele>617.6</ele>
        <time>2018-12-30T13:40:43Z</time>
      </trkpt>
      <trkpt lat="39.8302150" lon="2.8151490">
        <ele>617.8</ele>
        <time>2018-12-30T13:40:44Z</time>
      </trkpt>
      <trkpt lat="39.8302420" lon="2.8151430">
        <ele>618.1</ele>
        <time>2018-12-30T13:40:45Z</time>
      </trkpt>
      <trkpt lat="39.8302690" lon="2.8151440">
        <ele>618.3</ele>
        <time>2018-12-30T13:40:46Z</time>
      </trkpt>
      <trkpt lat="39.8302950" lon="2.8151510">
        <ele>618.6</ele>
        <time>2018-12-30T13:40:47Z</time>
      </trkpt>
      <trkpt lat="39.8303210" lon="2.8151640">
        <ele>618.9</ele>
        <time>2018-12-30T13:40:48Z</time>
      </trkpt>
      <trkpt lat="39.8303460" lon="2.8151780">
        <ele>619.2</ele>
        <time>2018-12-30T13:40:49Z</time>
      </trkpt>
      <trkpt lat="39.8303680" lon="2.8151980">
        <ele>619.5</ele>
        <time>2018-12-30T13:40:50Z</time>
      </trkpt>
      <trkpt lat="39.8303860" lon="2.8152220">
        <ele>619.8</ele>
        <time>2018-12-30T13:40:51Z</time>
      </trkpt>
      <trkpt lat="39.8304000" lon="2.8152510">
        <ele>620.2</ele>
        <time>2018-12-30T13:40:52Z</time>
      </trkpt>
      <trkpt lat="39.8304100" lon="2.8152830">
        <ele>620.5</ele>
        <time>2018-12-30T13:40:53Z</time>
      </trkpt>
      <trkpt lat="39.8304160" lon="2.8153200">
        <ele>620.8</ele>
        <time>2018-12-30T13:40:54Z</time>
      </trkpt>
      <trkpt lat="39.8304180" lon="2.8153590">
        <ele>621.1</ele>
        <time>2018-12-30T13:40:55Z</time>
      </trkpt>
      <trkpt lat="39.8304160" lon="2.8154000">
        <ele>621.4</ele>
        <time>2018-12-30T13:40:56Z</time>
      </trkpt>
      <trkpt lat="39.8304100" lon="2.8154430">
        <ele>621.6</ele>
        <time>2018-12-30T13:40:57Z</time>
      </trkpt>
      <trkpt lat="39.8304000" lon="2.8154840">
        <ele>621.9</ele>
        <time>2018-12-30T13:40:58Z</time>
      </trkpt>
      <trkpt lat="39.8303880" lon="2.8155230">
        <ele>622.1</ele>
        <time>2018-12-30T13:40:59Z</time>
      </trkpt>
      <trkpt lat="39.8303730" lon="2.8155600">
        <ele>622.3</ele>
        <time>2018-12-30T13:41:00Z</time>
      </trkpt>
      <trkpt lat="39.8303590" lon="2.8155970">
        <ele>622.5</ele>
        <time>2018-12-30T13:41:01Z</time>
      </trkpt>
      <trkpt lat="39.8303490" lon="2.8156340">
        <ele>622.7</ele>
        <time>2018-12-30T13:41:02Z</time>
      </trkpt>
      <trkpt lat="39.8303400" lon="2.8156700">
        <ele>622.8</ele>
        <time>2018-12-30T13:41:03Z</time>
      </trkpt>
      <trkpt lat="39.8303310" lon="2.8157070">
        <ele>622.9</ele>
        <time>2018-12-30T13:41:04Z</time>
      </trkpt>
      <trkpt lat="39.8303220" lon="2.8157450">
        <ele>623.0</ele>
        <time>2018-12-30T13:41:05Z</time>
      </trkpt>
      <trkpt lat="39.8303170" lon="2.8157840">
        <ele>623.2</ele>
        <time>2018-12-30T13:41:06Z</time>
      </trkpt>
      <trkpt lat="39.8303200" lon="2.8158210">
        <ele>623.3</ele>
        <time>2018-12-30T13:41:07Z</time>
      </trkpt>
      <trkpt lat="39.8303300" lon="2.8158570">
        <ele>623.4</ele>
        <time>2018-12-30T13:41:08Z</time>
      </trkpt>
      <trkpt lat="39.8303470" lon="2.8158890">
        <ele>623.6</ele>
        <time>2018-12-30T13:41:09Z</time>
      </trkpt>
      <trkpt lat="39.8303680" lon="2.8159160">
        <ele>623.7</ele>
        <time>2018-12-30T13:41:10Z</time>
      </trkpt>
      <trkpt lat="39.8303900" lon="2.8159390">
        <ele>623.9</ele>
        <time>2018-12-30T13:41:11Z</time>
      </trkpt>
      <trkpt lat="39.8304140" lon="2.8159590">
        <ele>624.0</ele>
        <time>2018-12-30T13:41:12Z</time>
      </trkpt>
      <trkpt lat="39.8304380" lon="2.8159760">
        <ele>624.1</ele>
        <time>2018-12-30T13:41:13Z</time>
      </trkpt>
      <trkpt lat="39.8304640" lon="2.8159930">
        <ele>624.2</ele>
        <time>2018-12-30T13:41:14Z</time>
      </trkpt>
      <trkpt lat="39.8304900" lon="2.8160080">
        <ele>624.3</ele>
        <time>2018-12-30T13:41:15Z</time>
      </trkpt>
      <trkpt lat="39.8305170" lon="2.8160210">
        <ele>624.4</ele>
        <time>2018-12-30T13:41:16Z</time>
      </trkpt>
      <trkpt lat="39.8305450" lon="2.8160320">
        <ele>624.5</ele>
        <time>2018-12-30T13:41:17Z</time>
      </trkpt>
      <trkpt lat="39.8305730" lon="2.8160410">
        <ele>624.6</ele>
        <time>2018-12-30T13:41:18Z</time>
      </trkpt>
      <trkpt lat="39.8306020" lon="2.8160470">
        <ele>624.7</ele>
        <time>2018-12-30T13:41:19Z</time>
      </trkpt>
      <trkpt lat="39.8306310" lon="2.8160510">
        <ele>624.8</ele>
        <time>2018-12-30T13:41:20Z</time>
      </trkpt>
      <trkpt lat="39.8306620" lon="2.8160540">
        <ele>624.9</ele>
        <time>2018-12-30T13:41:21Z</time>
      </trkpt>
      <trkpt lat="39.8306920" lon="2.8160570">
        <ele>625.0</ele>
        <time>2018-12-30T13:41:22Z</time>
      </trkpt>
      <trkpt lat="39.8307230" lon="2.8160590">
        <ele>625.1</ele>
        <time>2018-12-30T13:41:23Z</time>
      </trkpt>
      <trkpt lat="39.8307540" lon="2.8160590">
        <ele>625.2</ele>
        <time>2018-12-30T13:41:24Z</time>
      </trkpt>
      <trkpt lat="39.8307870" lon="2.8160580">
        <ele>625.3</ele>
        <time>2018-12-30T13:41:25Z</time>
      </trkpt>
      <trkpt lat="39.8308210" lon="2.8160550">
        <ele>625.5</ele>
        <time>2018-12-30T13:41:26Z</time>
      </trkpt>
      <trkpt lat="39.8308550" lon="2.8160500">
        <ele>625.6</ele>
        <time>2018-12-30T13:41:27Z</time>
      </trkpt>
      <trkpt lat="39.8308890" lon="2.8160420">
        <ele>625.8</ele>
        <time>2018-12-30T13:41:28Z</time>
      </trkpt>
      <trkpt lat="39.8309230" lon="2.8160300">
        <ele>625.9</ele>
        <time>2018-12-30T13:41:29Z</time>
      </trkpt>
      <trkpt lat="39.8309580" lon="2.8160170">
        <ele>626.1</ele>
        <time>2018-12-30T13:41:30Z</time>
      </trkpt>
      <trkpt lat="39.8309920" lon="2.8160030">
        <ele>626.3</ele>
        <time>2018-12-30T13:41:31Z</time>
      </trkpt>
      <trkpt lat="39.8310270" lon="2.8159910">
        <ele>626.6</ele>
        <time>2018-12-30T13:41:32Z</time>
      </trkpt>
      <trkpt lat="39.8310630" lon="2.8159800">
        <ele>626.8</ele>
        <time>2018-12-30T13:41:33Z</time>
      </trkpt>
      <trkpt lat="39.8310990" lon="2.8159680">
        <ele>627.0</ele>
        <time>2018-12-30T13:41:34Z</time>
      </trkpt>
      <trkpt lat="39.8311350" lon="2.8159570">
        <ele>627.3</ele>
        <time>2018-12-30T13:41:35Z</time>
      </trkpt>
      <trkpt lat="39.8311710" lon="2.8159450">
        <ele>627.4</ele>
        <time>2018-12-30T13:41:36Z</time>
      </trkpt>
      <trkpt lat="39.8312060" lon="2.8159330">
        <ele>627.6</ele>
        <time>2018-12-30T13:41:37Z</time>
      </trkpt>
      <trkpt lat="39.8312410" lon="2.8159200">
        <ele>627.8</ele>
        <time>2018-12-30T13:41:38Z</time>
      </trkpt>
      <trkpt lat="39.8312760" lon="2.8159070">
        <ele>628.0</ele>
        <time>2018-12-30T13:41:39Z</time>
      </trkpt>
      <trkpt lat="39.8313120" lon="2.8158930">
        <ele>628.1</ele>
        <time>2018-12-30T13:41:40Z</time>
      </trkpt>
      <trkpt lat="39.8313490" lon="2.8158790">
        <ele>628.3</ele>
        <time>2018-12-30T13:41:41Z</time>
      </trkpt>
      <trkpt lat="39.8313860" lon="2.8158660">
        <ele>628.5</ele>
        <time>2018-12-30T13:41:42Z</time>
      </trkpt>
      <trkpt lat="39.8314220" lon="2.8158540">
        <ele>628.6</ele>
        <time>2018-12-30T13:41:43Z</time>
      </trkpt>
      <trkpt lat="39.8314580" lon="2.8158410">
        <ele>628.7</ele>
        <time>2018-12-30T13:41:44Z</time>
      </trkpt>
      <trkpt lat="39.8314940" lon="2.8158280">
        <ele>628.9</ele>
        <time>2018-12-30T13:41:45Z</time>
      </trkpt>
      <trkpt lat="39.8315290" lon="2.8158150">
        <ele>629.0</ele>
        <time>2018-12-30T13:41:46Z</time>
      </trkpt>
      <trkpt lat="39.8315650" lon="2.8158010">
        <ele>629.1</ele>
        <time>2018-12-30T13:41:47Z</time>
      </trkpt>
      <trkpt lat="39.8316010" lon="2.8157880">
        <ele>629.2</ele>
        <time>2018-12-30T13:41:48Z</time>
      </trkpt>
      <trkpt lat="39.8316360" lon="2.8157770">
        <ele>629.3</ele>
        <time>2018-12-30T13:41:49Z</time>
      </trkpt>
      <trkpt lat="39.8316730" lon="2.8157720">
        <ele>629.4</ele>
        <time>2018-12-30T13:41:50Z</time>
      </trkpt>
      <trkpt lat="39.8317110" lon="2.8157720">
        <ele>629.5</ele>
        <time>2018-12-30T13:41:51Z</time>
      </trkpt>
      <trkpt lat="39.8317490" lon="2.8157770">
        <ele>629.7</ele>
        <time>2018-12-30T13:41:52Z</time>
      </trkpt>
      <trkpt lat="39.8317860" lon="2.8157830">
        <ele>629.8</ele>
        <time>2018-12-30T13:41:53Z</time>
      </trkpt>
      <trkpt lat="39.8318200" lon="2.8157910">
        <ele>629.9</ele>
        <time>2018-12-30T13:41:54Z</time>
      </trkpt>
      <trkpt lat="39.8318510" lon="2.8158020">
        <ele>629.9</ele>
        <time>2018-12-30T13:41:55Z</time>
      </trkpt>
      <trkpt lat="39.8318810" lon="2.8158190">
        <ele>630.0</ele>
        <time>2018-12-30T13:41:56Z</time>
      </trkpt>
      <trkpt lat="39.8319080" lon="2.8158410">
        <ele>630.4</ele>
        <time>2018-12-30T13:41:57Z</time>
      </trkpt>
      <trkpt lat="39.8319340" lon="2.8158640">
        <ele>630.9</ele>
        <time>2018-12-30T13:41:58Z</time>
      </trkpt>
      <trkpt lat="39.8319580" lon="2.8158900">
        <ele>631.4</ele>
        <time>2018-12-30T13:41:59Z</time>
      </trkpt>
      <trkpt lat="39.8319830" lon="2.8159160">
        <ele>632.0</ele>
        <time>2018-12-30T13:42:00Z</time>
      </trkpt>
      <trkpt lat="39.8320100" lon="2.8159460">
        <ele>632.6</ele>
        <time>2018-12-30T13:42:01Z</time>
      </trkpt>
      <trkpt lat="39.8320390" lon="2.8159760">
        <ele>633.2</ele>
        <time>2018-12-30T13:42:02Z</time>
      </trkpt>
      <trkpt lat="39.8320710" lon="2.8160100">
        <ele>633.9</ele>
        <time>2018-12-30T13:42:03Z</time>
      </trkpt>
      <trkpt lat="39.8321070" lon="2.8160430">
        <ele>634.6</ele>
        <time>2018-12-30T13:42:04Z</time>
      </trkpt>
      <trkpt lat="39.8321470" lon="2.8160770">
        <ele>635.4</ele>
        <time>2018-12-30T13:42:05Z</time>
      </trkpt>
      <trkpt lat="39.8321900" lon="2.8161050">
        <ele>636.2</ele>
        <time>2018-12-30T13:42:06Z</time>
      </trkpt>
      <trkpt lat="39.8322350" lon="2.8161310">
        <ele>636.9</ele>
        <time>2018-12-30T13:42:07Z</time>
      </trkpt>
      <trkpt lat="39.8322820" lon="2.8161510">
        <ele>637.6</ele>
        <time>2018-12-30T13:42:08Z</time>
      </trkpt>
      <trkpt lat="39.8323330" lon="2.8161630">
        <ele>638.0</ele>
        <time>2018-12-30T13:42:09Z</time>
      </trkpt>
      <trkpt lat="39.8323840" lon="2.8161640">
        <ele>638.4</ele>
        <time>2018-12-30T13:42:10Z</time>
      </trkpt>
      <trkpt lat="39.8324310" lon="2.8161470">
        <ele>638.6</ele>
        <time>2018-12-30T13:42:11Z</time>
      </trkpt>
      <trkpt lat="39.8324730" lon="2.8161100">
        <ele>638.6</ele>
        <time>2018-12-30T13:42:12Z</time>
      </trkpt>
      <trkpt lat="39.8325060" lon="2.8160600">
        <ele>638.4</ele>
        <time>2018-12-30T13:42:13Z</time>
      </trkpt>
      <trkpt lat="39.8325270" lon="2.8160040">
        <ele>638.2</ele>
        <time>2018-12-30T13:42:14Z</time>
      </trkpt>
      <trkpt lat="39.8325340" lon="2.8159510">
        <ele>637.8</ele>
        <time>2018-12-30T13:42:15Z</time>
      </trkpt>
      <trkpt lat="39.8325300" lon="2.8159010">
        <ele>637.4</ele>
        <time>2018-12-30T13:42:16Z</time>
      </trkpt>
      <trkpt lat="39.8325190" lon="2.8158590">
        <ele>637.0</ele>
        <time>2018-12-30T13:42:17Z</time>
      </trkpt>
      <trkpt lat="39.8325020" lon="2.8158220">
        <ele>636.6</ele>
        <time>2018-12-30T13:42:18Z</time>
      </trkpt>
      <trkpt lat="39.8324790" lon="2.8157900">
        <ele>636.2</ele>
        <time>2018-12-30T13:42:19Z</time>
      </trkpt>
      <trkpt lat="39.8324520" lon="2.8157630">
        <ele>635.7</ele>
        <time>2018-12-30T13:42:20Z</time>
      </trkpt>
      <trkpt lat="39.8324230" lon="2.8157430">
        <ele>635.2</ele>
        <time>2018-12-30T13:42:21Z</time>
      </trkpt>
      <trkpt lat="39.8323920" lon="2.8157280">
        <ele>634.8</ele>
        <time>2018-12-30T13:42:22Z</time>
      </trkpt>
      <trkpt lat="39.8323580" lon="2.8157200">
        <ele>634.4</ele>
        <time>2018-12-30T13:42:23Z</time>
      </trkpt>
      <trkpt lat="39.8323210" lon="2.8157200">
        <ele>634.0</ele>
        <time>2018-12-30T13:42:24Z</time>
      </trkpt>
      <trkpt lat="39.8322820" lon="2.8157270">
        <ele>633.6</ele>
        <time>2018-12-30T13:42:25Z</time>
      </trkpt>
      <trkpt lat="39.8322450" lon="2.8157390">
        <ele>633.3</ele>
        <time>2018-12-30T13:42:26Z</time>
      </trkpt>
      <trkpt lat="39.8322110" lon="2.8157570">
        <ele>633.0</ele>
        <time>2018-12-30T13:42:27Z</time>
      </trkpt>
      <trkpt lat="39.8321790" lon="2.8157800">
        <ele>632.9</ele>
        <time>2018-12-30T13:42:28Z</time>
      </trkpt>
      <trkpt lat="39.8321490" lon="2.8158060">
        <ele>632.7</ele>
        <time>2018-12-30T13:42:29Z</time>
      </trkpt>
      <trkpt lat="39.8321200" lon="2.8158350">
        <ele>632.6</ele>
        <time>2018-12-30T13:42:30Z</time>
      </trkpt>
      <trkpt lat="39.8320930" lon="2.8158660">
        <ele>632.5</ele>
        <time>2018-12-30T13:42:31Z</time>
      </trkpt>
      <trkpt lat="39.8320660" lon="2.8158990">
        <ele>632.8</ele>
        <time>2018-12-30T13:42:32Z</time>
      </trkpt>
      <trkpt lat="39.8320390" lon="2.8159330">
        <ele>633.1</ele>
        <time>2018-12-30T13:42:33Z</time>
      </trkpt>
      <trkpt lat="39.8320120" lon="2.8159690">
        <ele>633.3</ele>
        <time>2018-12-30T13:42:34Z</time>
      </trkpt>
      <trkpt lat="39.8319860" lon="2.8160060">
        <ele>633.6</ele>
        <time>2018-12-30T13:42:35Z</time>
      </trkpt>
      <trkpt lat="39.8319590" lon="2.8160440">
        <ele>633.9</ele>
        <time>2018-12-30T13:42:36Z</time>
      </trkpt>
      <trkpt lat="39.8319300" lon="2.8160820">
        <ele>634.8</ele>
        <time>2018-12-30T13:42:37Z</time>
      </trkpt>
      <trkpt lat="39.8319020" lon="2.8161180">
        <ele>635.3</ele>
        <time>2018-12-30T13:42:38Z</time>
      </trkpt>
      <trkpt lat="39.8318730" lon="2.8161520">
        <ele>635.8</ele>
        <time>2018-12-30T13:42:39Z</time>
      </trkpt>
      <trkpt lat="39.8318450" lon="2.8161850">
        <ele>636.3</ele>
        <time>2018-12-30T13:42:40Z</time>
      </trkpt>
      <trkpt lat="39.8318170" lon="2.8162140">
        <ele>636.8</ele>
        <time>2018-12-30T13:42:41Z</time>
      </trkpt>
      <trkpt lat="39.8317890" lon="2.8162400">
        <ele>637.2</ele>
        <time>2018-12-30T13:42:42Z</time>
      </trkpt>
      <trkpt lat="39.8317610" lon="2.8162640">
        <ele>637.7</ele>
        <time>2018-12-30T13:42:43Z</time>
      </trkpt>
      <trkpt lat="39.8317350" lon="2.8162850">
        <ele>638.1</ele>
        <time>2018-12-30T13:42:44Z</time>
      </trkpt>
      <trkpt lat="39.8317100" lon="2.8163030">
        <ele>638.4</ele>
        <time>2018-12-30T13:42:45Z</time>
      </trkpt>
      <trkpt lat="39.8316840" lon="2.8163170">
        <ele>638.8</ele>
        <time>2018-12-30T13:42:46Z</time>
      </trkpt>
      <trkpt lat="39.8316570" lon="2.8163290">
        <ele>639.2</ele>
        <time>2018-12-30T13:42:47Z</time>
      </trkpt>
      <trkpt lat="39.8316270" lon="2.8163380">
        <ele>639.6</ele>
        <time>2018-12-30T13:42:48Z</time>
      </trkpt>
      <trkpt lat="39.8315970" lon="2.8163500">
        <ele>640.0</ele>
        <time>2018-12-30T13:42:49Z</time>
      </trkpt>
      <trkpt lat="39.8315660" lon="2.8163620">
        <ele>640.4</ele>
        <time>2018-12-30T13:42:50Z</time>
      </trkpt>
      <trkpt lat="39.8315340" lon="2.8163750">
        <ele>641.0</ele>
        <time>2018-12-30T13:42:51Z</time>
      </trkpt>
      <trkpt lat="39.8315010" lon="2.8163880">
        <ele>641.7</ele>
        <time>2018-12-30T13:42:52Z</time>
      </trkpt>
      <trkpt lat="39.8314690" lon="2.8163990">
        <ele>642.3</ele>
        <time>2018-12-30T13:42:53Z</time>
      </trkpt>
      <trkpt lat="39.8314380" lon="2.8164080">
        <ele>642.9</ele>
        <time>2018-12-30T13:42:54Z</time>
      </trkpt>
      <trkpt lat="39.8314060" lon="2.8164160">
        <ele>643.5</ele>
        <time>2018-12-30T13:42:55Z</time>
      </trkpt>
      <trkpt lat="39.8313740" lon="2.8164230">
        <ele>644.2</ele>
        <time>2018-12-30T13:42:56Z</time>
      </trkpt>
      <trkpt lat="39.8313420" lon="2.8164310">
        <ele>644.9</ele>
        <time>2018-12-30T13:42:57Z</time>
      </trkpt>
      <trkpt lat="39.8313090" lon="2.8164400">
        <ele>645.6</ele>
        <time>2018-12-30T13:42:58Z</time>
      </trkpt>
      <trkpt lat="39.8312770" lon="2.8164500">
        <ele>646.3</ele>
        <time>2018-12-30T13:42:59Z</time>
      </trkpt>
      <trkpt lat="39.8312460" lon="2.8164590">
        <ele>647.0</ele>
        <time>2018-12-30T13:43:00Z</time>
      </trkpt>
      <trkpt lat="39.8312160" lon="2.8164670">
        <ele>647.7</ele>
        <time>2018-12-30T13:43:01Z</time>
      </trkpt>
      <trkpt lat="39.8311860" lon="2.8164750">
        <ele>648.3</ele>
        <time>2018-12-30T13:43:02Z</time>
      </trkpt>
      <trkpt lat="39.8311570" lon="2.8164830">
        <ele>649.1</ele>
        <time>2018-12-30T13:43:03Z</time>
      </trkpt>
      <trkpt lat="39.8311270" lon="2.8164920">
        <ele>649.8</ele>
        <time>2018-12-30T13:43:04Z</time>
      </trkpt>
      <trkpt lat="39.8310980" lon="2.8165010">
        <ele>650.6</ele>
        <time>2018-12-30T13:43:05Z</time>
      </trkpt>
      <trkpt lat="39.8310690" lon="2.8165110">
        <ele>651.3</ele>
        <time>2018-12-30T13:43:06Z</time>
      </trkpt>
      <trkpt lat="39.8310400" lon="2.8165200">
        <ele>652.0</ele>
        <time>2018-12-30T13:43:07Z</time>
      </trkpt>
      <trkpt lat="39.8310120" lon="2.8165300">
        <ele>652.8</ele>
        <time>2018-12-30T13:43:08Z</time>
      </trkpt>
      <trkpt lat="39.8309830" lon="2.8165400">
        <ele>653.5</ele>
        <time>2018-12-30T13:43:09Z</time>
      </trkpt>
      <trkpt lat="39.8309530" lon="2.8165510">
        <ele>654.3</ele>
        <time>2018-12-30T13:43:10Z</time>
      </trkpt>
      <trkpt lat="39.8309220" lon="2.8165620">
        <ele>655.2</ele>
        <time>2018-12-30T13:43:11Z</time>
      </trkpt>
      <trkpt lat="39.8308910" lon="2.8165720">
        <ele>656.0</ele>
        <time>2018-12-30T13:43:12Z</time>
      </trkpt>
      <trkpt lat="39.8308610" lon="2.8165800">
        <ele>656.8</ele>
        <time>2018-12-30T13:43:13Z</time>
      </trkpt>
      <trkpt lat="39.8308330" lon="2.8165890">
        <ele>657.6</ele>
        <time>2018-12-30T13:43:14Z</time>
      </trkpt>
      <trkpt lat="39.8308040" lon="2.8165970">
        <ele>658.3</ele>
        <time>2018-12-30T13:43:15Z</time>
      </trkpt>
      <trkpt lat="39.8307750" lon="2.8166060">
        <ele>659.1</ele>
        <time>2018-12-30T13:43:16Z</time>
      </trkpt>
      <trkpt lat="39.8307450" lon="2.8166180">
        <ele>659.9</ele>
        <time>2018-12-30T13:43:17Z</time>
      </trkpt>
      <trkpt lat="39.8307150" lon="2.8166290">
        <ele>660.6</ele>
        <time>2018-12-30T13:43:18Z</time>
      </trkpt>
      <trkpt lat="39.8306850" lon="2.8166400">
        <ele>661.5</ele>
        <time>2018-12-30T13:43:19Z</time>
      </trkpt>
      <trkpt lat="39.8306550" lon="2.8166490">
        <ele>662.4</ele>
        <time>2018-12-30T13:43:20Z</time>
      </trkpt>
      <trkpt lat="39.8306250" lon="2.8166580">
        <ele>663.4</ele>
        <time>2018-12-30T13:43:21Z</time>
      </trkpt>
      <trkpt lat="39.8305960" lon="2.8166650">
        <ele>664.2</ele>
        <time>2018-12-30T13:43:22Z</time>
      </trkpt>
      <trkpt lat="39.8305660" lon="2.8166710">
        <ele>665.1</ele>
        <time>2018-12-30T13:43:23Z</time>
      </trkpt>
      <trkpt lat="39.8305360" lon="2.8166760">
        <ele>665.9</ele>
        <time>2018-12-30T13:43:24Z</time>
      </trkpt>
      <trkpt lat="39.8305070" lon="2.8166830">
        <ele>666.5</ele>
        <time>2018-12-30T13:43:25Z</time>
      </trkpt>
      <trkpt lat="39.8304780" lon="2.8166890">
        <ele>667.1</ele>
        <time>2018-12-30T13:43:26Z</time>
      </trkpt>
      <trkpt lat="39.8304500" lon="2.8166950">
        <ele>667.6</ele>
        <time>2018-12-30T13:43:27Z</time>
      </trkpt>
      <trkpt lat="39.8304240" lon="2.8167000">
        <ele>668.1</ele>
        <time>2018-12-30T13:43:28Z</time>
      </trkpt>
      <trkpt lat="39.8304010" lon="2.8167010">
        <ele>668.5</ele>
        <time>2018-12-30T13:43:29Z</time>
      </trkpt>
      <trkpt lat="39.8303780" lon="2.8167050">
        <ele>668.9</ele>
        <time>2018-12-30T13:43:30Z</time>
      </trkpt>
      <trkpt lat="39.8303550" lon="2.8167100">
        <ele>669.3</ele>
        <time>2018-12-30T13:43:31Z</time>
      </trkpt>
      <trkpt lat="39.8303300" lon="2.8167190">
        <ele>669.8</ele>
        <time>2018-12-30T13:43:32Z</time>
      </trkpt>
      <trkpt lat="39.8303070" lon="2.8167290">
        <ele>670.2</ele>
        <time>2018-12-30T13:43:33Z</time>
      </trkpt>
      <trkpt lat="39.8302840" lon="2.8167410">
        <ele>670.6</ele>
        <time>2018-12-30T13:43:34Z</time>
      </trkpt>
      <trkpt lat="39.8302640" lon="2.8167520">
        <ele>671.0</ele>
        <time>2018-12-30T13:43:35Z</time>
      </trkpt>
      <trkpt lat="39.8302430" lon="2.8167630">
        <ele>671.4</ele>
        <time>2018-12-30T13:43:36Z</time>
      </trkpt>
      <trkpt lat="39.8302230" lon="2.8167760">
        <ele>671.8</ele>
        <time>2018-12-30T13:43:37Z</time>
      </trkpt>
      <trkpt lat="39.8301960" lon="2.8167870">
        <ele>672.3</ele>
        <time>2018-12-30T13:43:38Z</time>
      </trkpt>
      <trkpt lat="39.8301670" lon="2.8167980">
        <ele>672.8</ele>
        <time>2018-12-30T13:43:39Z</time>
      </trkpt>
      <trkpt lat="39.8301370" lon="2.8168090">
        <ele>673.4</ele>
        <time>2018-12-30T13:43:40Z</time>
      </trkpt>
      <trkpt lat="39.8301100" lon="2.8168220">
        <ele>673.9</ele>
        <time>2018-12-30T13:43:41Z</time>
      </trkpt>
      <trkpt lat="39.8300840" lon="2.8168360">
        <ele>674.4</ele>
        <time>2018-12-30T13:43:42Z</time>
      </trkpt>
      <trkpt lat="39.8300580" lon="2.8168500">
        <ele>674.9</ele>
        <time>2018-12-30T13:43:43Z</time>
      </trkpt>
      <trkpt lat="39.8300320" lon="2.8168640">
        <ele>675.4</ele>
        <time>2018-12-30T13:43:44Z</time>
      </trkpt>
      <trkpt lat="39.8300050" lon="2.8168750">
        <ele>675.9</ele>
        <time>2018-12-30T13:43:45Z</time>
      </trkpt>
      <trkpt lat="39.8299790" lon="2.8168860">
        <ele>676.3</ele>
        <time>2018-12-30T13:43:46Z</time>
      </trkpt>
      <trkpt lat="39.8299540" lon="2.8168970">
        <ele>676.8</ele>
        <time>2018-12-30T13:43:47Z</time>
      </trkpt>
      <trkpt lat="39.8299300" lon="2.8169080">
        <ele>677.3</ele>
        <time>2018-12-30T13:43:48Z</time>
      </trkpt>
      <trkpt lat="39.8299060" lon="2.8169200">
        <ele>677.7</ele>
        <time>2018-12-30T13:43:49Z</time>
      </trkpt>
      <trkpt lat="39.8298820" lon="2.8169310">
        <ele>678.2</ele>
        <time>2018-12-30T13:43:50Z</time>
      </trkpt>
      <trkpt lat="39.8298570" lon="2.8169410">
        <ele>678.6</ele>
        <time>2018-12-30T13:43:51Z</time>
      </trkpt>
      <trkpt lat="39.8298310" lon="2.8169510">
        <ele>679.1</ele>
        <time>2018-12-30T13:43:52Z</time>
      </trkpt>
      <trkpt lat="39.8298050" lon="2.8169610">
        <ele>679.5</ele>
        <time>2018-12-30T13:43:53Z</time>
      </trkpt>
      <trkpt lat="39.8297790" lon="2.8169720">
        <ele>680.0</ele>
        <time>2018-12-30T13:43:54Z</time>
      </trkpt>
      <trkpt lat="39.8297530" lon="2.8169830">
        <ele>680.4</ele>
        <time>2018-12-30T13:43:55Z</time>
      </trkpt>
      <trkpt lat="39.8297270" lon="2.8169940">
        <ele>681.1</ele>
        <time>2018-12-30T13:43:56Z</time>
      </trkpt>
      <trkpt lat="39.8297020" lon="2.8170060">
        <ele>681.7</ele>
        <time>2018-12-30T13:43:57Z</time>
      </trkpt>
      <trkpt lat="39.8296770" lon="2.8170190">
        <ele>682.3</ele>
        <time>2018-12-30T13:43:58Z</time>
      </trkpt>
      <trkpt lat="39.8296520" lon="2.8170320">
        <ele>682.9</ele>
        <time>2018-12-30T13:43:59Z</time>
      </trkpt>
      <trkpt lat="39.8296260" lon="2.8170450">
        <ele>683.6</ele>
        <time>2018-12-30T13:44:00Z</time>
      </trkpt>
      <trkpt lat="39.8296000" lon="2.8170570">
        <ele>684.0</ele>
        <time>2018-12-30T13:44:01Z</time>
      </trkpt>
      <trkpt lat="39.8295740" lon="2.8170680">
        <ele>684.5</ele>
        <time>2018-12-30T13:44:02Z</time>
      </trkpt>
      <trkpt lat="39.8295470" lon="2.8170790">
        <ele>684.9</ele>
        <time>2018-12-30T13:44:03Z</time>
      </trkpt>
      <trkpt lat="39.8295210" lon="2.8170890">
        <ele>685.4</ele>
        <time>2018-12-30T13:44:04Z</time>
      </trkpt>
      <trkpt lat="39.8294940" lon="2.8171000">
        <ele>685.8</ele>
        <time>2018-12-30T13:44:05Z</time>
      </trkpt>
      <trkpt lat="39.8294680" lon="2.8171120">
        <ele>686.3</ele>
        <time>2018-12-30T13:44:06Z</time>
      </trkpt>
      <trkpt lat="39.8294420" lon="2.8171240">
        <ele>686.8</ele>
        <time>2018-12-30T13:44:07Z</time>
      </trkpt>
      <trkpt lat="39.8294170" lon="2.8171330">
        <ele>687.2</ele>
        <time>2018-12-30T13:44:08Z</time>
      </trkpt>
      <trkpt lat="39.8293910" lon="2.8171420">
        <ele>687.7</ele>
        <time>2018-12-30T13:44:09Z</time>
      </trkpt>
      <trkpt lat="39.8293660" lon="2.8171490">
        <ele>688.1</ele>
        <time>2018-12-30T13:44:10Z</time>
      </trkpt>
      <trkpt lat="39.8293390" lon="2.8171580">
        <ele>688.6</ele>
        <time>2018-12-30T13:44:11Z</time>
      </trkpt>
      <trkpt lat="39.8293120" lon="2.8171650">
        <ele>689.1</ele>
        <time>2018-12-30T13:44:12Z</time>
      </trkpt>
      <trkpt lat="39.8292850" lon="2.8171710">
        <ele>689.5</ele>
        <time>2018-12-30T13:44:13Z</time>
      </trkpt>
      <trkpt lat="39.8292580" lon="2.8171760">
        <ele>690.0</ele>
        <time>2018-12-30T13:44:14Z</time>
      </trkpt>
      <trkpt lat="39.8292310" lon="2.8171810">
        <ele>690.5</ele>
        <time>2018-12-30T13:44:15Z</time>
      </trkpt>
      <trkpt lat="39.8292040" lon="2.8171840">
        <ele>690.9</ele>
        <time>2018-12-30T13:44:16Z</time>
      </trkpt>
      <trkpt lat="39.8291780" lon="2.8171870">
        <ele>691.4</ele>
        <time>2018-12-30T13:44:17Z</time>
      </trkpt>
      <trkpt lat="39.8291520" lon="2.8171890">
        <ele>691.8</ele>
        <time>2018-12-30T13:44:18Z</time>
      </trkpt>
      <trkpt lat="39.8291260" lon="2.8171900">
        <ele>692.3</ele>
        <time>2018-12-30T13:44:19Z</time>
      </trkpt>
      <trkpt lat="39.8291010" lon="2.8171900">
        <ele>692.7</ele>
        <time>2018-12-30T13:44:20Z</time>
      </trkpt>
      <trkpt lat="39.8290760" lon="2.8171890">
        <ele>693.2</ele>
        <time>2018-12-30T13:44:21Z</time>
      </trkpt>
      <trkpt lat="39.8290500" lon="2.8171880">
        <ele>693.6</ele>
        <time>2018-12-30T13:44:22Z</time>
      </trkpt>
      <trkpt lat="39.8290220" lon="2.8171880">
        <ele>694.1</ele>
        <time>2018-12-30T13:44:23Z</time>
      </trkpt>
      <trkpt lat="39.8289950" lon="2.8171880">
        <ele>694.6</ele>
        <time>2018-12-30T13:44:24Z</time>
      </trkpt>
      <trkpt lat="39.8289680" lon="2.8171870">
        <ele>695.2</ele>
        <time>2018-12-30T13:44:25Z</time>
      </trkpt>
      <trkpt lat="39.8289410" lon="2.8171850">
        <ele>695.9</ele>
        <time>2018-12-30T13:44:26Z</time>
      </trkpt>
      <trkpt lat="39.8289140" lon="2.8171840">
        <ele>696.5</ele>
        <time>2018-12-30T13:44:27Z</time>
      </trkpt>
      <trkpt lat="39.8288860" lon="2.8171820">
        <ele>697.1</ele>
        <time>2018-12-30T13:44:28Z</time>
      </trkpt>
      <trkpt lat="39.8288570" lon="2.8171790">
        <ele>697.6</ele>
        <time>2018-12-30T13:44:29Z</time>
      </trkpt>
      <trkpt lat="39.8288280" lon="2.8171790">
        <ele>698.1</ele>
        <time>2018-12-30T13:44:30Z</time>
      </trkpt>
      <trkpt lat="39.8287990" lon="2.8171790">
        <ele>698.5</ele>
        <time>2018-12-30T13:44:31Z</time>
      </trkpt>
      <trkpt lat="39.8287720" lon="2.8171810">
        <ele>698.9</ele>
        <time>2018-12-30T13:44:32Z</time>
      </trkpt>
      <trkpt lat="39.8287440" lon="2.8171850">
        <ele>699.3</ele>
        <time>2018-12-30T13:44:33Z</time>
      </trkpt>
      <trkpt lat="39.8287160" lon="2.8171900">
        <ele>699.7</ele>
        <time>2018-12-30T13:44:34Z</time>
      </trkpt>
      <trkpt lat="39.8286860" lon="2.8171960">
        <ele>700.3</ele>
        <time>2018-12-30T13:44:35Z</time>
      </trkpt>
      <trkpt lat="39.8286560" lon="2.8172040">
        <ele>700.9</ele>
        <time>2018-12-30T13:44:36Z</time>
      </trkpt>
      <trkpt lat="39.8286260" lon="2.8172130">
        <ele>701.4</ele>
        <time>2018-12-30T13:44:37Z</time>
      </trkpt>
      <trkpt lat="39.8285970" lon="2.8172240">
        <ele>702.0</ele>
        <time>2018-12-30T13:44:38Z</time>
      </trkpt>
      <trkpt lat="39.8285690" lon="2.8172360">
        <ele>702.5</ele>
        <time>2018-12-30T13:44:39Z</time>
      </trkpt>
      <trkpt lat="39.8285440" lon="2.8172510">
        <ele>703.0</ele>
        <time>2018-12-30T13:44:40Z</time>
      </trkpt>
      <trkpt lat="39.8285190" lon="2.8172680">
        <ele>703.6</ele>
        <time>2018-12-30T13:44:41Z</time>
      </trkpt>
      <trkpt lat="39.8284940" lon="2.8172850">
        <ele>704.1</ele>
        <time>2018-12-30T13:44:42Z</time>
      </trkpt>
      <trkpt lat="39.8284680" lon="2.8173030">
        <ele>704.7</ele>
        <time>2018-12-30T13:44:43Z</time>
      </trkpt>
      <trkpt lat="39.8284430" lon="2.8173210">
        <ele>705.2</ele>
        <time>2018-12-30T13:44:44Z</time>
      </trkpt>
      <trkpt lat="39.8284180" lon="2.8173410">
        <ele>705.7</ele>
        <time>2018-12-30T13:44:45Z</time>
      </trkpt>
      <trkpt lat="39.8283950" lon="2.8173620">
        <ele>706.2</ele>
        <time>2018-12-30T13:44:46Z</time>
      </trkpt>
      <trkpt lat="39.8283710" lon="2.8173830">
        <ele>706.6</ele>
        <time>2018-12-30T13:44:47Z</time>
      </trkpt>
      <trkpt lat="39.8283460" lon="2.8174030">
        <ele>707.1</ele>
        <time>2018-12-30T13:44:48Z</time>
      </trkpt>
      <trkpt lat="39.8283200" lon="2.8174240">
        <ele>707.5</ele>
        <time>2018-12-30T13:44:49Z</time>
      </trkpt>
      <trkpt lat="39.8282940" lon="2.8174460">
        <ele>708.1</ele>
        <time>2018-12-30T13:44:50Z</time>
      </trkpt>
      <trkpt lat="39.8282680" lon="2.8174690">
        <ele>708.6</ele>
        <time>2018-12-30T13:44:51Z</time>
      </trkpt>
      <trkpt lat="39.8282430" lon="2.8174910">
        <ele>709.1</ele>
        <time>2018-12-30T13:44:52Z</time>
      </trkpt>
      <trkpt lat="39.8282170" lon="2.8175120">
        <ele>709.7</ele>
        <time>2018-12-30T13:44:53Z</time>
      </trkpt>
      <trkpt lat="39.8281900" lon="2.8175320">
        <ele>710.5</ele>
        <time>2018-12-30T13:44:54Z</time>
      </trkpt>
      <trkpt lat="39.8281650" lon="2.8175500">
        <ele>711.2</ele>
        <time>2018-12-30T13:44:55Z</time>
      </trkpt>
      <trkpt lat="39.8281390" lon="2.8175680">
        <ele>711.9</ele>
        <time>2018-12-30T13:44:56Z</time>
      </trkpt>
      <trkpt lat="39.8281150" lon="2.8175870">
        <ele>712.3</ele>
        <time>2018-12-30T13:44:57Z</time>
      </trkpt>
      <trkpt lat="39.8280910" lon="2.8176050">
        <ele>712.8</ele>
        <time>2018-12-30T13:44:58Z</time>
      </trkpt>
      <trkpt lat="39.8280670" lon="2.8176230">
        <ele>713.2</ele>
        <time>2018-12-30T13:44:59Z</time>
      </trkpt>
      <trkpt lat="39.8280430" lon="2.8176410">
        <ele>713.6</ele>
        <time>2018-12-30T13:45:00Z</time>
      </trkpt>
      <trkpt lat="39.8280190" lon="2.8176580">
        <ele>714.1</ele>
        <time>2018-12-30T13:45:01Z</time>
      </trkpt>
      <trkpt lat="39.8279940" lon="2.8176760">
        <ele>714.5</ele>
        <time>2018-12-30T13:45:02Z</time>
      </trkpt>
      <trkpt lat="39.8279690" lon="2.8176940">
        <ele>714.8</ele>
        <time>2018-12-30T13:45:03Z</time>
      </trkpt>
      <trkpt lat="39.8279460" lon="2.8177120">
        <ele>715.0</ele>
        <time>2018-12-30T13:45:04Z</time>
      </trkpt>
      <trkpt lat="39.8279230" lon="2.8177300">
        <ele>715.3</ele>
        <time>2018-12-30T13:45:05Z</time>
      </trkpt>
      <trkpt lat="39.8279030" lon="2.8177480">
        <ele>715.5</ele>
        <time>2018-12-30T13:45:06Z</time>
      </trkpt>
      <trkpt lat="39.8278830" lon="2.8177650">
        <ele>715.7</ele>
        <time>2018-12-30T13:45:07Z</time>
      </trkpt>
      <trkpt lat="39.8278610" lon="2.8177830">
        <ele>715.8</ele>
        <time>2018-12-30T13:45:08Z</time>
      </trkpt>
      <trkpt lat="39.8278380" lon="2.8177990">
        <ele>716.0</ele>
        <time>2018-12-30T13:45:09Z</time>
      </trkpt>
      <trkpt lat="39.8278140" lon="2.8178160">
        <ele>716.2</ele>
        <time>2018-12-30T13:45:10Z</time>
      </trkpt>
      <trkpt lat="39.8277920" lon="2.8178300">
        <ele>716.3</ele>
        <time>2018-12-30T13:45:11Z</time>
      </trkpt>
      <trkpt lat="39.8277690" lon="2.8178430">
        <ele>716.5</ele>
        <time>2018-12-30T13:45:12Z</time>
      </trkpt>
      <trkpt lat="39.8277450" lon="2.8178530">
        <ele>716.5</ele>
        <time>2018-12-30T13:45:13Z</time>
      </trkpt>
      <trkpt lat="39.8277210" lon="2.8178640">
        <ele>716.5</ele>
        <time>2018-12-30T13:45:14Z</time>
      </trkpt>
      <trkpt lat="39.8276980" lon="2.8178760">
        <ele>716.5</ele>
        <time>2018-12-30T13:45:15Z</time>
      </trkpt>
      <trkpt lat="39.8276760" lon="2.8178890">
        <ele>716.6</ele>
        <time>2018-12-30T13:45:16Z</time>
      </trkpt>
      <trkpt lat="39.8276550" lon="2.8179010">
        <ele>716.5</ele>
        <time>2018-12-30T13:45:17Z</time>
      </trkpt>
      <trkpt lat="39.8276350" lon="2.8179130">
        <ele>716.5</ele>
        <time>2018-12-30T13:45:18Z</time>
      </trkpt>
      <trkpt lat="39.8276150" lon="2.8179240">
        <ele>716.5</ele>
        <time>2018-12-30T13:45:19Z</time>
      </trkpt>
      <trkpt lat="39.8275940" lon="2.8179340">
        <ele>716.5</ele>
        <time>2018-12-30T13:45:20Z</time>
      </trkpt>
      <trkpt lat="39.8275720" lon="2.8179430">
        <ele>716.4</ele>
        <time>2018-12-30T13:45:21Z</time>
      </trkpt>
      <trkpt lat="39.8275490" lon="2.8179510">
        <ele>716.4</ele>
        <time>2018-12-30T13:45:22Z</time>
      </trkpt>
      <trkpt lat="39.8275260" lon="2.8179570">
        <ele>716.3</ele>
        <time>2018-12-30T13:45:23Z</time>
      </trkpt>
      <trkpt lat="39.8275030" lon="2.8179620">
        <ele>716.3</ele>
        <time>2018-12-30T13:45:24Z</time>
      </trkpt>
      <trkpt lat="39.8274800" lon="2.8179670">
        <ele>716.2</ele>
        <time>2018-12-30T13:45:25Z</time>
      </trkpt>
      <trkpt lat="39.8274590" lon="2.8179710">
        <ele>716.1</ele>
        <time>2018-12-30T13:45:26Z</time>
      </trkpt>
      <trkpt lat="39.8274380" lon="2.8179720">
        <ele>716.0</ele>
        <time>2018-12-30T13:45:27Z</time>
      </trkpt>
      <trkpt lat="39.8274180" lon="2.8179700">
        <ele>716.0</ele>
        <time>2018-12-30T13:45:28Z</time>
      </trkpt>
      <trkpt lat="39.8271610" lon="2.8179330">
        <ele>714.7</ele>
        <time>2018-12-30T13:47:30Z</time>
      </trkpt>
      <trkpt lat="39.8271330" lon="2.8179080">
        <ele>714.4</ele>
        <time>2018-12-30T13:47:31Z</time>
      </trkpt>
      <trkpt lat="39.8271020" lon="2.8178810">
        <ele>714.2</ele>
        <time>2018-12-30T13:47:32Z</time>
      </trkpt>
      <trkpt lat="39.8270700" lon="2.8178480">
        <ele>713.8</ele>
        <time>2018-12-30T13:47:33Z</time>
      </trkpt>
      <trkpt lat="39.8270370" lon="2.8178080">
        <ele>713.5</ele>
        <time>2018-12-30T13:47:34Z</time>
      </trkpt>
      <trkpt lat="39.8270050" lon="2.8177620">
        <ele>713.0</ele>
        <time>2018-12-30T13:47:35Z</time>
      </trkpt>
      <trkpt lat="39.8269680" lon="2.8177090">
        <ele>712.5</ele>
        <time>2018-12-30T13:47:36Z</time>
      </trkpt>
      <trkpt lat="39.8269260" lon="2.8176510">
        <ele>712.0</ele>
        <time>2018-12-30T13:47:37Z</time>
      </trkpt>
      <trkpt lat="39.8268800" lon="2.8175910">
        <ele>711.4</ele>
        <time>2018-12-30T13:47:38Z</time>
      </trkpt>
      <trkpt lat="39.8268330" lon="2.8175330">
        <ele>710.9</ele>
        <time>2018-12-30T13:47:39Z</time>
      </trkpt>
      <trkpt lat="39.8267790" lon="2.8174810">
        <ele>710.4</ele>
        <time>2018-12-30T13:47:40Z</time>
      </trkpt>
      <trkpt lat="39.8267160" lon="2.8174350">
        <ele>709.9</ele>
        <time>2018-12-30T13:47:41Z</time>
      </trkpt>
      <trkpt lat="39.8266400" lon="2.8174000">
        <ele>709.4</ele>
        <time>2018-12-30T13:47:42Z</time>
      </trkpt>
      <trkpt lat="39.8265600" lon="2.8173730">
        <ele>708.8</ele>
        <time>2018-12-30T13:47:43Z</time>
      </trkpt>
      <trkpt lat="39.8264780" lon="2.8173550">
        <ele>708.2</ele>
        <time>2018-12-30T13:47:44Z</time>
      </trkpt>
      <trkpt lat="39.8263990" lon="2.8173430">
        <ele>707.7</ele>
        <time>2018-12-30T13:47:45Z</time>
      </trkpt>
      <trkpt lat="39.8263190" lon="2.8173350">
        <ele>707.1</ele>
        <time>2018-12-30T13:47:46Z</time>
      </trkpt>
      <trkpt lat="39.8262370" lon="2.8173170">
        <ele>706.5</ele>
        <time>2018-12-30T13:47:47Z</time>
      </trkpt>
      <trkpt lat="39.8261500" lon="2.8172860">
        <ele>705.9</ele>
        <time>2018-12-30T13:47:48Z</time>
      </trkpt>
      <trkpt lat="39.8260610" lon="2.8172430">
        <ele>705.2</ele>
        <time>2018-12-30T13:47:49Z</time>
      </trkpt>
      <trkpt lat="39.8259710" lon="2.8171930">
        <ele>704.5</ele>
        <time>2018-12-30T13:47:50Z</time>
      </trkpt>
      <trkpt lat="39.8258820" lon="2.8171360">
        <ele>703.8</ele>
        <time>2018-12-30T13:47:51Z</time>
      </trkpt>
      <trkpt lat="39.8257960" lon="2.8170710">
        <ele>703.0</ele>
        <time>2018-12-30T13:47:52Z</time>
      </trkpt>
      <trkpt lat="39.8257120" lon="2.8169940">
        <ele>702.3</ele>
        <time>2018-12-30T13:47:53Z</time>
      </trkpt>
      <trkpt lat="39.8256310" lon="2.8169070">
        <ele>701.6</ele>
        <time>2018-12-30T13:47:54Z</time>
      </trkpt>
      <trkpt lat="39.8255510" lon="2.8168140">
        <ele>700.9</ele>
        <time>2018-12-30T13:47:55Z</time>
      </trkpt>
      <trkpt lat="39.8254740" lon="2.8167200">
        <ele>700.3</ele>
        <time>2018-12-30T13:47:56Z</time>
      </trkpt>
      <trkpt lat="39.8254020" lon="2.8166260">
        <ele>699.6</ele>
        <time>2018-12-30T13:47:57Z</time>
      </trkpt>
      <trkpt lat="39.8253420" lon="2.8165310">
        <ele>699.0</ele>
        <time>2018-12-30T13:47:58Z</time>
      </trkpt>
      <trkpt lat="39.8252970" lon="2.8164270">
        <ele>698.2</ele>
        <time>2018-12-30T13:47:59Z</time>
      </trkpt>
      <trkpt lat="39.8252720" lon="2.8163120">
        <ele>697.4</ele>
        <time>2018-12-30T13:48:00Z</time>
      </trkpt>
      <trkpt lat="39.8252600" lon="2.8161860">
        <ele>696.7</ele>
        <time>2018-12-30T13:48:01Z</time>
      </trkpt>
      <trkpt lat="39.8252520" lon="2.8160580">
        <ele>695.8</ele>
        <time>2018-12-30T13:48:02Z</time>
      </trkpt>
      <trkpt lat="39.8252340" lon="2.8159320">
        <ele>695.0</ele>
        <time>2018-12-30T13:48:03Z</time>
      </trkpt>
      <trkpt lat="39.8251980" lon="2.8158100">
        <ele>694.2</ele>
        <time>2018-12-30T13:48:04Z</time>
      </trkpt>
      <trkpt lat="39.8251430" lon="2.8156990">
        <ele>693.4</ele>
        <time>2018-12-30T13:48:05Z</time>
      </trkpt>
      <trkpt lat="39.8250850" lon="2.8155990">
        <ele>692.9</ele>
        <time>2018-12-30T13:48:06Z</time>
      </trkpt>
      <trkpt lat="39.8250330" lon="2.8155010">
        <ele>692.4</ele>
        <time>2018-12-30T13:48:07Z</time>
      </trkpt>
      <trkpt lat="39.8249990" lon="2.8153930">
        <ele>691.9</ele>
        <time>2018-12-30T13:48:08Z</time>
      </trkpt>
      <trkpt lat="39.8249760" lon="2.8152730">
        <ele>691.3</ele>
        <time>2018-12-30T13:48:09Z</time>
      </trkpt>
      <trkpt lat="39.8249670" lon="2.8151460">
        <ele>690.6</ele>
        <time>2018-12-30T13:48:10Z</time>
      </trkpt>
      <trkpt lat="39.8249760" lon="2.8150260">
        <ele>690.0</ele>
        <time>2018-12-30T13:48:11Z</time>
      </trkpt>
      <trkpt lat="39.8249930" lon="2.8149130">
        <ele>689.3</ele>
        <time>2018-12-30T13:48:12Z</time>
      </trkpt>
      <trkpt lat="39.8250040" lon="2.8148090">
        <ele>688.6</ele>
        <time>2018-12-30T13:48:13Z</time>
      </trkpt>
      <trkpt lat="39.8249860" lon="2.8147220">
        <ele>687.7</ele>
        <time>2018-12-30T13:48:14Z</time>
      </trkpt>
      <trkpt lat="39.8249400" lon="2.8146740">
        <ele>687.3</ele>
        <time>2018-12-30T13:48:15Z</time>
      </trkpt>
      <trkpt lat="39.8248760" lon="2.8146690">
        <ele>687.0</ele>
        <time>2018-12-30T13:48:16Z</time>
      </trkpt>
      <trkpt lat="39.8248070" lon="2.8146920">
        <ele>686.6</ele>
        <time>2018-12-30T13:48:17Z</time>
      </trkpt>
      <trkpt lat="39.8247410" lon="2.8147330">
        <ele>686.3</ele>
        <time>2018-12-30T13:48:18Z</time>
      </trkpt>
      <trkpt lat="39.8246750" lon="2.8147820">
        <ele>686.0</ele>
        <time>2018-12-30T13:48:19Z</time>
      </trkpt>
      <trkpt lat="39.8246070" lon="2.8148390">
        <ele>685.6</ele>
        <time>2018-12-30T13:48:20Z</time>
      </trkpt>
      <trkpt lat="39.8245350" lon="2.8148950">
        <ele>685.3</ele>
        <time>2018-12-30T13:48:21Z</time>
      </trkpt>
      <trkpt lat="39.8244600" lon="2.8149550">
        <ele>684.9</ele>
        <time>2018-12-30T13:48:22Z</time>
      </trkpt>
      <trkpt lat="39.8243850" lon="2.8150200">
        <ele>684.5</ele>
        <time>2018-12-30T13:48:23Z</time>
      </trkpt>
      <trkpt lat="39.8243130" lon="2.8150920">
        <ele>684.1</ele>
        <time>2018-12-30T13:48:24Z</time>
      </trkpt>
      <trkpt lat="39.8242410" lon="2.8151700">
        <ele>683.6</ele>
        <time>2018-12-30T13:48:25Z</time>
      </trkpt>
      <trkpt lat="39.8241700" lon="2.8152550">
        <ele>683.1</ele>
        <time>2018-12-30T13:48:26Z</time>
      </trkpt>
      <trkpt lat="39.8240970" lon="2.8153450">
        <ele>682.5</ele>
        <time>2018-12-30T13:48:27Z</time>
      </trkpt>
      <trkpt lat="39.8240220" lon="2.8154350">
        <ele>681.7</ele>
        <time>2018-12-30T13:48:28Z</time>
      </trkpt>
      <trkpt lat="39.8239440" lon="2.8155210">
        <ele>680.8</ele>
        <time>2018-12-30T13:48:29Z</time>
      </trkpt>
      <trkpt lat="39.8238580" lon="2.8155960">
        <ele>679.9</ele>
        <time>2018-12-30T13:48:30Z</time>
      </trkpt>
      <trkpt lat="39.8237640" lon="2.8156610">
        <ele>679.0</ele>
        <time>2018-12-30T13:48:31Z</time>
      </trkpt>
      <trkpt lat="39.8236650" lon="2.8157140">
        <ele>678.1</ele>
        <time>2018-12-30T13:48:32Z</time>
      </trkpt>
      <trkpt lat="39.8235620" lon="2.8157580">
        <ele>677.2</ele>
        <time>2018-12-30T13:48:33Z</time>
      </trkpt>
      <trkpt lat="39.8234610" lon="2.8157910">
        <ele>676.6</ele>
        <time>2018-12-30T13:48:34Z</time>
      </trkpt>
      <trkpt lat="39.8233640" lon="2.8158120">
        <ele>675.9</ele>
        <time>2018-12-30T13:48:35Z</time>
      </trkpt>
      <trkpt lat="39.8232740" lon="2.8158130">
        <ele>675.1</ele>
        <time>2018-12-30T13:48:36Z</time>
      </trkpt>
      <trkpt lat="39.8231840" lon="2.8158040">
        <ele>674.5</ele>
        <time>2018-12-30T13:48:37Z</time>
      </trkpt>
      <trkpt lat="39.8230960" lon="2.8157750">
        <ele>673.9</ele>
        <time>2018-12-30T13:48:38Z</time>
      </trkpt>
      <trkpt lat="39.8230080" lon="2.8157260">
        <ele>673.3</ele>
        <time>2018-12-30T13:48:39Z</time>
      </trkpt>
      <trkpt lat="39.8229230" lon="2.8156550">
        <ele>672.7</ele>
        <time>2018-12-30T13:48:40Z</time>
      </trkpt>
      <trkpt lat="39.8228380" lon="2.8155750">
        <ele>672.1</ele>
        <time>2018-12-30T13:48:41Z</time>
      </trkpt>
      <trkpt lat="39.8227550" lon="2.8154920">
        <ele>671.5</ele>
        <time>2018-12-30T13:48:42Z</time>
      </trkpt>
      <trkpt lat="39.8226770" lon="2.8154020">
        <ele>670.9</ele>
        <time>2018-12-30T13:48:43Z</time>
      </trkpt>
      <trkpt lat="39.8226040" lon="2.8153070">
        <ele>670.2</ele>
        <time>2018-12-30T13:48:44Z</time>
      </trkpt>
      <trkpt lat="39.8225320" lon="2.8152160">
        <ele>669.4</ele>
        <time>2018-12-30T13:48:45Z</time>
      </trkpt>
      <trkpt lat="39.8224720" lon="2.8151160">
        <ele>668.7</ele>
        <time>2018-12-30T13:48:46Z</time>
      </trkpt>
      <trkpt lat="39.8224270" lon="2.8150060">
        <ele>668.0</ele>
        <time>2018-12-30T13:48:47Z</time>
      </trkpt>
      <trkpt lat="39.8223950" lon="2.8148830">
        <ele>667.3</ele>
        <time>2018-12-30T13:48:48Z</time>
      </trkpt>
      <trkpt lat="39.8223630" lon="2.8147660">
        <ele>666.7</ele>
        <time>2018-12-30T13:48:49Z</time>
      </trkpt>
      <trkpt lat="39.8223160" lon="2.8146630">
        <ele>666.1</ele>
        <time>2018-12-30T13:48:50Z</time>
      </trkpt>
      <trkpt lat="39.8222490" lon="2.8145900">
        <ele>665.5</ele>
        <time>2018-12-30T13:48:51Z</time>
      </trkpt>
      <trkpt lat="39.8221730" lon="2.8145530">
        <ele>664.9</ele>
        <time>2018-12-30T13:48:52Z</time>
      </trkpt>
      <trkpt lat="39.8220920" lon="2.8145360">
        <ele>664.4</ele>
        <time>2018-12-30T13:48:53Z</time>
      </trkpt>
      <trkpt lat="39.8220140" lon="2.8145260">
        <ele>664.0</ele>
        <time>2018-12-30T13:48:54Z</time>
      </trkpt>
      <trkpt lat="39.8219240" lon="2.8145110">
        <ele>663.5</ele>
        <time>2018-12-30T13:48:55Z</time>
      </trkpt>
      <trkpt lat="39.8218260" lon="2.8144830">
        <ele>662.9</ele>
        <time>2018-12-30T13:48:56Z</time>
      </trkpt>
      <trkpt lat="39.8217200" lon="2.8144470">
        <ele>662.3</ele>
        <time>2018-12-30T13:48:57Z</time>
      </trkpt>
      <trkpt lat="39.8216120" lon="2.8144060">
        <ele>661.7</ele>
        <time>2018-12-30T13:48:58Z</time>
      </trkpt>
      <trkpt lat="39.8215010" lon="2.8143770">
        <ele>661.0</ele>
        <time>2018-12-30T13:48:59Z</time>
      </trkpt>
      <trkpt lat="39.8213900" lon="2.8143530">
        <ele>660.3</ele>
        <time>2018-12-30T13:49:00Z</time>
      </trkpt>
      <trkpt lat="39.8212800" lon="2.8143300">
        <ele>659.6</ele>
        <time>2018-12-30T13:49:01Z</time>
      </trkpt>
      <trkpt lat="39.8211680" lon="2.8143090">
        <ele>658.5</ele>
        <time>2018-12-30T13:49:02Z</time>
      </trkpt>
      <trkpt lat="39.8210560" lon="2.8142870">
        <ele>657.3</ele>
        <time>2018-12-30T13:49:03Z</time>
      </trkpt>
      <trkpt lat="39.8209470" lon="2.8142610">
        <ele>656.2</ele>
        <time>2018-12-30T13:49:04Z</time>
      </trkpt>
      <trkpt lat="39.8208480" lon="2.8142380">
        <ele>655.2</ele>
        <time>2018-12-30T13:49:05Z</time>
      </trkpt>
      <trkpt lat="39.8207590" lon="2.8142230">
        <ele>654.4</ele>
        <time>2018-12-30T13:49:06Z</time>
      </trkpt>
      <trkpt lat="39.8206800" lon="2.8142230">
        <ele>653.9</ele>
        <time>2018-12-30T13:49:07Z</time>
      </trkpt>
      <trkpt lat="39.8206230" lon="2.8142530">
        <ele>653.4</ele>
        <time>2018-12-30T13:49:08Z</time>
      </trkpt>
      <trkpt lat="39.8205800" lon="2.8143090">
        <ele>653.0</ele>
        <time>2018-12-30T13:49:09Z</time>
      </trkpt>
      <trkpt lat="39.8205700" lon="2.8143790">
        <ele>652.5</ele>
        <time>2018-12-30T13:49:10Z</time>
      </trkpt>
      <trkpt lat="39.8205660" lon="2.8144460">
        <ele>652.1</ele>
        <time>2018-12-30T13:49:11Z</time>
      </trkpt>
      <trkpt lat="39.8205950" lon="2.8145030">
        <ele>651.8</ele>
        <time>2018-12-30T13:49:12Z</time>
      </trkpt>
      <trkpt lat="39.8206270" lon="2.8145420">
        <ele>651.5</ele>
        <time>2018-12-30T13:49:13Z</time>
      </trkpt>
      <trkpt lat="39.8206720" lon="2.8145600">
        <ele>651.3</ele>
        <time>2018-12-30T13:49:14Z</time>
      </trkpt>
      <trkpt lat="39.8207120" lon="2.8145650">
        <ele>651.0</ele>
        <time>2018-12-30T13:49:15Z</time>
      </trkpt>
      <trkpt lat="39.8207730" lon="2.8145770">
        <ele>650.7</ele>
        <time>2018-12-30T13:49:16Z</time>
      </trkpt>
      <trkpt lat="39.8208490" lon="2.8146010">
        <ele>650.2</ele>
        <time>2018-12-30T13:49:17Z</time>
      </trkpt>
      <trkpt lat="39.8209430" lon="2.8146370">
        <ele>649.6</ele>
        <time>2018-12-30T13:49:18Z</time>
      </trkpt>
      <trkpt lat="39.8210410" lon="2.8146870">
        <ele>648.9</ele>
        <time>2018-12-30T13:49:19Z</time>
      </trkpt>
      <trkpt lat="39.8211500" lon="2.8147520">
        <ele>648.0</ele>
        <time>2018-12-30T13:49:20Z</time>
      </trkpt>
      <trkpt lat="39.8212590" lon="2.8148210">
        <ele>647.1</ele>
        <time>2018-12-30T13:49:21Z</time>
      </trkpt>
      <trkpt lat="39.8213650" lon="2.8148820">
        <ele>646.3</ele>
        <time>2018-12-30T13:49:22Z</time>
      </trkpt>
      <trkpt lat="39.8214590" lon="2.8149240">
        <ele>645.5</ele>
        <time>2018-12-30T13:49:23Z</time>
      </trkpt>
      <trkpt lat="39.8215440" lon="2.8149520">
        <ele>644.6</ele>
        <time>2018-12-30T13:49:24Z</time>
      </trkpt>
      <trkpt lat="39.8216090" lon="2.8149830">
        <ele>643.8</ele>
        <time>2018-12-30T13:49:25Z</time>
      </trkpt>
      <trkpt lat="39.8216540" lon="2.8150250">
        <ele>643.3</ele>
        <time>2018-12-30T13:49:26Z</time>
      </trkpt>
      <trkpt lat="39.8216710" lon="2.8150790">
        <ele>642.7</ele>
        <time>2018-12-30T13:49:27Z</time>
      </trkpt>
      <trkpt lat="39.8216570" lon="2.8151230">
        <ele>642.3</ele>
        <time>2018-12-30T13:49:28Z</time>
      </trkpt>
      <trkpt lat="39.8216180" lon="2.8151530">
        <ele>641.8</ele>
        <time>2018-12-30T13:49:29Z</time>
      </trkpt>
      <trkpt lat="39.8215140" lon="2.8151530">
        <ele>640.7</ele>
        <time>2018-12-30T13:49:30Z</time>
      </trkpt>
      <trkpt lat="39.8214610" lon="2.8151370">
        <ele>640.3</ele>
        <time>2018-12-30T13:49:31Z</time>
      </trkpt>
      <trkpt lat="39.8214080" lon="2.8151210">
        <ele>639.8</ele>
        <time>2018-12-30T13:49:32Z</time>
      </trkpt>
      <trkpt lat="39.8213550" lon="2.8151050">
        <ele>639.4</ele>
        <time>2018-12-30T13:49:33Z</time>
      </trkpt>
      <trkpt lat="39.8213020" lon="2.8150890">
        <ele>639.0</ele>
        <time>2018-12-30T13:49:34Z</time>
      </trkpt>
      <trkpt lat="39.8212490" lon="2.8150730">
        <ele>638.6</ele>
        <time>2018-12-30T13:49:35Z</time>
      </trkpt>
      <trkpt lat="39.8211650" lon="2.8150630">
        <ele>638.2</ele>
        <time>2018-12-30T13:49:36Z</time>
      </trkpt>
      <trkpt lat="39.8210760" lon="2.8150640">
        <ele>637.8</ele>
        <time>2018-12-30T13:49:37Z</time>
      </trkpt>
      <trkpt lat="39.8209880" lon="2.8150810">
        <ele>637.3</ele>
        <time>2018-12-30T13:49:38Z</time>
      </trkpt>
      <trkpt lat="39.8209040" lon="2.8151160">
        <ele>636.9</ele>
        <time>2018-12-30T13:49:39Z</time>
      </trkpt>
      <trkpt lat="39.8208250" lon="2.8151670">
        <ele>636.3</ele>
        <time>2018-12-30T13:49:40Z</time>
      </trkpt>
      <trkpt lat="39.8207540" lon="2.8152450">
        <ele>635.9</ele>
        <time>2018-12-30T13:49:41Z</time>
      </trkpt>
      <trkpt lat="39.8206830" lon="2.8153350">
        <ele>635.4</ele>
        <time>2018-12-30T13:49:42Z</time>
      </trkpt>
      <trkpt lat="39.8206130" lon="2.8154350">
        <ele>634.9</ele>
        <time>2018-12-30T13:49:43Z</time>
      </trkpt>
      <trkpt lat="39.8205380" lon="2.8155320">
        <ele>634.3</ele>
        <time>2018-12-30T13:49:44Z</time>
      </trkpt>
      <trkpt lat="39.8204630" lon="2.8156270">
        <ele>633.6</ele>
        <time>2018-12-30T13:49:45Z</time>
      </trkpt>
      <trkpt lat="39.8203870" lon="2.8157230">
        <ele>632.8</ele>
        <time>2018-12-30T13:49:46Z</time>
      </trkpt>
      <trkpt lat="39.8203170" lon="2.8158110">
        <ele>632.0</ele>
        <time>2018-12-30T13:49:47Z</time>
      </trkpt>
      <trkpt lat="39.8202480" lon="2.8158900">
        <ele>631.1</ele>
        <time>2018-12-30T13:49:48Z</time>
      </trkpt>
      <trkpt lat="39.8201800" lon="2.8159620">
        <ele>630.2</ele>
        <time>2018-12-30T13:49:49Z</time>
      </trkpt>
      <trkpt lat="39.8201080" lon="2.8160280">
        <ele>629.4</ele>
        <time>2018-12-30T13:49:50Z</time>
      </trkpt>
      <trkpt lat="39.8200310" lon="2.8160480">
        <ele>628.5</ele>
        <time>2018-12-30T13:49:51Z</time>
      </trkpt>
      <trkpt lat="39.8199430" lon="2.8160260">
        <ele>627.6</ele>
        <time>2018-12-30T13:49:52Z</time>
      </trkpt>
      <trkpt lat="39.8198490" lon="2.8159770">
        <ele>626.6</ele>
        <time>2018-12-30T13:49:53Z</time>
      </trkpt>
      <trkpt lat="39.8197560" lon="2.8159400">
        <ele>625.8</ele>
        <time>2018-12-30T13:49:54Z</time>
      </trkpt>
      <trkpt lat="39.8196740" lon="2.8159010">
        <ele>625.1</ele>
        <time>2018-12-30T13:49:55Z</time>
      </trkpt>
      <trkpt lat="39.8196040" lon="2.8158300">
        <ele>624.5</ele>
        <time>2018-12-30T13:49:56Z</time>
      </trkpt>
      <trkpt lat="39.8195560" lon="2.8157090">
        <ele>623.9</ele>
        <time>2018-12-30T13:49:57Z</time>
      </trkpt>
      <trkpt lat="39.8195080" lon="2.8155730">
        <ele>623.3</ele>
        <time>2018-12-30T13:49:58Z</time>
      </trkpt>
      <trkpt lat="39.8194480" lon="2.8154500">
        <ele>622.9</ele>
        <time>2018-12-30T13:49:59Z</time>
      </trkpt>
      <trkpt lat="39.8193660" lon="2.8153650">
        <ele>622.4</ele>
        <time>2018-12-30T13:50:00Z</time>
      </trkpt>
      <trkpt lat="39.8192810" lon="2.8152970">
        <ele>621.9</ele>
        <time>2018-12-30T13:50:01Z</time>
      </trkpt>
      <trkpt lat="39.8191890" lon="2.8152440">
        <ele>621.6</ele>
        <time>2018-12-30T13:50:02Z</time>
      </trkpt>
      <trkpt lat="39.8190940" lon="2.8152050">
        <ele>621.1</ele>
        <time>2018-12-30T13:50:03Z</time>
      </trkpt>
      <trkpt lat="39.8189940" lon="2.8151800">
        <ele>620.6</ele>
        <time>2018-12-30T13:50:04Z</time>
      </trkpt>
      <trkpt lat="39.8189000" lon="2.8151670">
        <ele>620.1</ele>
        <time>2018-12-30T13:50:05Z</time>
      </trkpt>
      <trkpt lat="39.8188130" lon="2.8151700">
        <ele>619.5</ele>
        <time>2018-12-30T13:50:06Z</time>
      </trkpt>
      <trkpt lat="39.8187400" lon="2.8151830">
        <ele>618.9</ele>
        <time>2018-12-30T13:50:07Z</time>
      </trkpt>
      <trkpt lat="39.8186840" lon="2.8152050">
        <ele>618.5</ele>
        <time>2018-12-30T13:50:08Z</time>
      </trkpt>
      <trkpt lat="39.8186320" lon="2.8152450">
        <ele>618.0</ele>
        <time>2018-12-30T13:50:09Z</time>
      </trkpt>
      <trkpt lat="39.8185820" lon="2.8153000">
        <ele>617.6</ele>
        <time>2018-12-30T13:50:10Z</time>
      </trkpt>
      <trkpt lat="39.8185490" lon="2.8153770">
        <ele>617.0</ele>
        <time>2018-12-30T13:50:11Z</time>
      </trkpt>
      <trkpt lat="39.8185430" lon="2.8154860">
        <ele>616.4</ele>
        <time>2018-12-30T13:50:12Z</time>
      </trkpt>
      <trkpt lat="39.8185470" lon="2.8156410">
        <ele>615.4</ele>
        <time>2018-12-30T13:50:13Z</time>
      </trkpt>
      <trkpt lat="39.8185410" lon="2.8158220">
        <ele>614.4</ele>
        <time>2018-12-30T13:50:14Z</time>
      </trkpt>
      <trkpt lat="39.8185210" lon="2.8159950">
        <ele>613.5</ele>
        <time>2018-12-30T13:50:15Z</time>
      </trkpt>
      <trkpt lat="39.8185010" lon="2.8161490">
        <ele>612.7</ele>
        <time>2018-12-30T13:50:16Z</time>
      </trkpt>
      <trkpt lat="39.8184820" lon="2.8162970">
        <ele>612.1</ele>
        <time>2018-12-30T13:50:17Z</time>
      </trkpt>
      <trkpt lat="39.8184630" lon="2.8164490">
        <ele>611.4</ele>
        <time>2018-12-30T13:50:18Z</time>
      </trkpt>
      <trkpt lat="39.8184420" lon="2.8166150">
        <ele>610.8</ele>
        <time>2018-12-30T13:50:19Z</time>
      </trkpt>
      <trkpt lat="39.8184190" lon="2.8167810">
        <ele>610.1</ele>
        <time>2018-12-30T13:50:20Z</time>
      </trkpt>
      <trkpt lat="39.8183930" lon="2.8169440">
        <ele>609.5</ele>
        <time>2018-12-30T13:50:21Z</time>
      </trkpt>
      <trkpt lat="39.8183650" lon="2.8171050">
        <ele>608.8</ele>
        <time>2018-12-30T13:50:22Z</time>
      </trkpt>
      <trkpt lat="39.8183320" lon="2.8172710">
        <ele>607.5</ele>
        <time>2018-12-30T13:50:23Z</time>
      </trkpt>
      <trkpt lat="39.8182890" lon="2.8174400">
        <ele>606.2</ele>
        <time>2018-12-30T13:50:24Z</time>
      </trkpt>
      <trkpt lat="39.8182420" lon="2.8176060">
        <ele>604.9</ele>
        <time>2018-12-30T13:50:25Z</time>
      </trkpt>
      <trkpt lat="39.8181900" lon="2.8177660">
        <ele>603.7</ele>
        <time>2018-12-30T13:50:26Z</time>
      </trkpt>
      <trkpt lat="39.8181360" lon="2.8179260">
        <ele>602.5</ele>
        <time>2018-12-30T13:50:27Z</time>
      </trkpt>
      <trkpt lat="39.8180770" lon="2.8180860">
        <ele>601.3</ele>
        <time>2018-12-30T13:50:28Z</time>
      </trkpt>
      <trkpt lat="39.8180180" lon="2.8182440">
        <ele>600.1</ele>
        <time>2018-12-30T13:50:29Z</time>
      </trkpt>
      <trkpt lat="39.8179610" lon="2.8184010">
        <ele>598.9</ele>
        <time>2018-12-30T13:50:30Z</time>
      </trkpt>
      <trkpt lat="39.8179030" lon="2.8185560">
        <ele>597.7</ele>
        <time>2018-12-30T13:50:31Z</time>
      </trkpt>
      <trkpt lat="39.8178440" lon="2.8187090">
        <ele>596.5</ele>
        <time>2018-12-30T13:50:32Z</time>
      </trkpt>
      <trkpt lat="39.8177850" lon="2.8188590">
        <ele>595.3</ele>
        <time>2018-12-30T13:50:33Z</time>
      </trkpt>
      <trkpt lat="39.8177260" lon="2.8190060">
        <ele>594.2</ele>
        <time>2018-12-30T13:50:34Z</time>
      </trkpt>
      <trkpt lat="39.8176720" lon="2.8191440">
        <ele>593.1</ele>
        <time>2018-12-30T13:50:35Z</time>
      </trkpt>
      <trkpt lat="39.8176280" lon="2.8192830">
        <ele>592.1</ele>
        <time>2018-12-30T13:50:36Z</time>
      </trkpt>
      <trkpt lat="39.8175940" lon="2.8194250">
        <ele>591.1</ele>
        <time>2018-12-30T13:50:37Z</time>
      </trkpt>
      <trkpt lat="39.8175650" lon="2.8195760">
        <ele>590.1</ele>
        <time>2018-12-30T13:50:38Z</time>
      </trkpt>
      <trkpt lat="39.8175350" lon="2.8197250">
        <ele>589.2</ele>
        <time>2018-12-30T13:50:39Z</time>
      </trkpt>
      <trkpt lat="39.8175050" lon="2.8198730">
        <ele>588.4</ele>
        <time>2018-12-30T13:50:40Z</time>
      </trkpt>
      <trkpt lat="39.8174780" lon="2.8200170">
        <ele>587.6</ele>
        <time>2018-12-30T13:50:41Z</time>
      </trkpt>
      <trkpt lat="39.8174540" lon="2.8201610">
        <ele>586.8</ele>
        <time>2018-12-30T13:50:42Z</time>
      </trkpt>
      <trkpt lat="39.8174350" lon="2.8203030">
        <ele>586.1</ele>
        <time>2018-12-30T13:50:43Z</time>
      </trkpt>
      <trkpt lat="39.8174160" lon="2.8204450">
        <ele>585.4</ele>
        <time>2018-12-30T13:50:44Z</time>
      </trkpt>
      <trkpt lat="39.8173940" lon="2.8205830">
        <ele>584.8</ele>
        <time>2018-12-30T13:50:45Z</time>
      </trkpt>
      <trkpt lat="39.8173610" lon="2.8207090">
        <ele>584.3</ele>
        <time>2018-12-30T13:50:46Z</time>
      </trkpt>
      <trkpt lat="39.8173190" lon="2.8208260">
        <ele>583.9</ele>
        <time>2018-12-30T13:50:47Z</time>
      </trkpt>
      <trkpt lat="39.8172610" lon="2.8209280">
        <ele>583.5</ele>
        <time>2018-12-30T13:50:48Z</time>
      </trkpt>
      <trkpt lat="39.8171870" lon="2.8210220">
        <ele>583.0</ele>
        <time>2018-12-30T13:50:49Z</time>
      </trkpt>
      <trkpt lat="39.8171030" lon="2.8211120">
        <ele>582.5</ele>
        <time>2018-12-30T13:50:50Z</time>
      </trkpt>
      <trkpt lat="39.8170210" lon="2.8212070">
        <ele>582.0</ele>
        <time>2018-12-30T13:50:51Z</time>
      </trkpt>
      <trkpt lat="39.8169420" lon="2.8213050">
        <ele>581.6</ele>
        <time>2018-12-30T13:50:52Z</time>
      </trkpt>
      <trkpt lat="39.8168610" lon="2.8214020">
        <ele>581.2</ele>
        <time>2018-12-30T13:50:53Z</time>
      </trkpt>
      <trkpt lat="39.8167770" lon="2.8214980">
        <ele>580.9</ele>
        <time>2018-12-30T13:50:54Z</time>
      </trkpt>
      <trkpt lat="39.8166920" lon="2.8215890">
        <ele>580.6</ele>
        <time>2018-12-30T13:50:55Z</time>
      </trkpt>
      <trkpt lat="39.8166070" lon="2.8216750">
        <ele>580.2</ele>
        <time>2018-12-30T13:50:56Z</time>
      </trkpt>
      <trkpt lat="39.8165220" lon="2.8217520">
        <ele>579.9</ele>
        <time>2018-12-30T13:50:57Z</time>
      </trkpt>
      <trkpt lat="39.8164370" lon="2.8218240">
        <ele>579.5</ele>
        <time>2018-12-30T13:50:58Z</time>
      </trkpt>
      <trkpt lat="39.8163530" lon="2.8218910">
        <ele>579.1</ele>
        <time>2018-12-30T13:50:59Z</time>
      </trkpt>
      <trkpt lat="39.8162710" lon="2.8219560">
        <ele>578.7</ele>
        <time>2018-12-30T13:51:00Z</time>
      </trkpt>
      <trkpt lat="39.8161910" lon="2.8220110">
        <ele>578.4</ele>
        <time>2018-12-30T13:51:01Z</time>
      </trkpt>
      <trkpt lat="39.8161100" lon="2.8220590">
        <ele>578.2</ele>
        <time>2018-12-30T13:51:02Z</time>
      </trkpt>
      <trkpt lat="39.8160270" lon="2.8220940">
        <ele>578.0</ele>
        <time>2018-12-30T13:51:03Z</time>
      </trkpt>
      <trkpt lat="39.8159450" lon="2.8220800">
        <ele>577.9</ele>
        <time>2018-12-30T13:51:04Z</time>
      </trkpt>
      <trkpt lat="39.8158690" lon="2.8220390">
        <ele>577.8</ele>
        <time>2018-12-30T13:51:05Z</time>
      </trkpt>
      <trkpt lat="39.8157960" lon="2.8219790">
        <ele>577.7</ele>
        <time>2018-12-30T13:51:06Z</time>
      </trkpt>
      <trkpt lat="39.8157250" lon="2.8219530">
        <ele>577.7</ele>
        <time>2018-12-30T13:51:07Z</time>
      </trkpt>
      <trkpt lat="39.8156480" lon="2.8219440">
        <ele>577.6</ele>
        <time>2018-12-30T13:51:08Z</time>
      </trkpt>
      <trkpt lat="39.8155710" lon="2.8219590">
        <ele>577.6</ele>
        <time>2018-12-30T13:51:09Z</time>
      </trkpt>
      <trkpt lat="39.8154960" lon="2.8219870">
        <ele>577.6</ele>
        <time>2018-12-30T13:51:10Z</time>
      </trkpt>
      <trkpt lat="39.8154250" lon="2.8220240">
        <ele>577.6</ele>
        <time>2018-12-30T13:51:11Z</time>
      </trkpt>
      <trkpt lat="39.8153570" lon="2.8220720">
        <ele>577.6</ele>
        <time>2018-12-30T13:51:12Z</time>
      </trkpt>
      <trkpt lat="39.8152900" lon="2.8221250">
        <ele>577.6</ele>
        <time>2018-12-30T13:51:13Z</time>
      </trkpt>
      <trkpt lat="39.8152260" lon="2.8221820">
        <ele>577.6</ele>
        <time>2018-12-30T13:51:14Z</time>
      </trkpt>
      <trkpt lat="39.8151670" lon="2.8222380">
        <ele>578.2</ele>
        <time>2018-12-30T13:51:15Z</time>
      </trkpt>
      <trkpt lat="39.8151290" lon="2.8223060">
        <ele>578.8</ele>
        <time>2018-12-30T13:51:16Z</time>
      </trkpt>
      <trkpt lat="39.8151200" lon="2.8224000">
        <ele>579.5</ele>
        <time>2018-12-30T13:51:17Z</time>
      </trkpt>
      <trkpt lat="39.8151230" lon="2.8225070">
        <ele>580.3</ele>
        <time>2018-12-30T13:51:18Z</time>
      </trkpt>
      <trkpt lat="39.8151440" lon="2.8226160">
        <ele>578.9</ele>
        <time>2018-12-30T13:51:19Z</time>
      </trkpt>
      <trkpt lat="39.8151740" lon="2.8227020">
        <ele>577.9</ele>
        <time>2018-12-30T13:51:20Z</time>
      </trkpt>
      <trkpt lat="39.8152380" lon="2.8227830">
        <ele>576.3</ele>
        <time>2018-12-30T13:51:21Z</time>
      </trkpt>
      <trkpt lat="39.8153050" lon="2.8228570">
        <ele>574.7</ele>
        <time>2018-12-30T13:51:22Z</time>
      </trkpt>
      <trkpt lat="39.8153710" lon="2.8229260">
        <ele>573.2</ele>
        <time>2018-12-30T13:51:23Z</time>
      </trkpt>
      <trkpt lat="39.8154270" lon="2.8229890">
        <ele>572.1</ele>
        <time>2018-12-30T13:51:24Z</time>
      </trkpt>
      <trkpt lat="39.8154820" lon="2.8230490">
        <ele>571.1</ele>
        <time>2018-12-30T13:51:25Z</time>
      </trkpt>
      <trkpt lat="39.8155400" lon="2.8231070">
        <ele>570.0</ele>
        <time>2018-12-30T13:51:26Z</time>
      </trkpt>
      <trkpt lat="39.8155960" lon="2.8231660">
        <ele>568.9</ele>
        <time>2018-12-30T13:51:27Z</time>
      </trkpt>
      <trkpt lat="39.8156520" lon="2.8232260">
        <ele>567.7</ele>
        <time>2018-12-30T13:51:28Z</time>
      </trkpt>
      <trkpt lat="39.8157070" lon="2.8232860">
        <ele>566.5</ele>
        <time>2018-12-30T13:51:29Z</time>
      </trkpt>
      <trkpt lat="39.8157610" lon="2.8233470">
        <ele>565.4</ele>
        <time>2018-12-30T13:51:30Z</time>
      </trkpt>
      <trkpt lat="39.8158150" lon="2.8234080">
        <ele>564.3</ele>
        <time>2018-12-30T13:51:31Z</time>
      </trkpt>
      <trkpt lat="39.8158680" lon="2.8234700">
        <ele>563.2</ele>
        <time>2018-12-30T13:51:32Z</time>
      </trkpt>
      <trkpt lat="39.8159200" lon="2.8235330">
        <ele>562.0</ele>
        <time>2018-12-30T13:51:33Z</time>
      </trkpt>
      <trkpt lat="39.8159700" lon="2.8235970">
        <ele>560.8</ele>
        <time>2018-12-30T13:51:34Z</time>
      </trkpt>
      <trkpt lat="39.8160180" lon="2.8236650">
        <ele>560.5</ele>
        <time>2018-12-30T13:51:35Z</time>
      </trkpt>
      <trkpt lat="39.8160610" lon="2.8237320">
        <ele>560.8</ele>
        <time>2018-12-30T13:51:36Z</time>
      </trkpt>
      <trkpt lat="39.8160950" lon="2.8238010">
        <ele>561.0</ele>
        <time>2018-12-30T13:51:37Z</time>
      </trkpt>
      <trkpt lat="39.8161150" lon="2.8238680">
        <ele>561.3</ele>
        <time>2018-12-30T13:51:38Z</time>
      </trkpt>
      <trkpt lat="39.8161160" lon="2.8239360">
        <ele>561.5</ele>
        <time>2018-12-30T13:51:39Z</time>
      </trkpt>
      <trkpt lat="39.8161070" lon="2.8240030">
        <ele>561.7</ele>
        <time>2018-12-30T13:51:40Z</time>
      </trkpt>
      <trkpt lat="39.8160960" lon="2.8240750">
        <ele>561.7</ele>
        <time>2018-12-30T13:51:41Z</time>
      </trkpt>
      <trkpt lat="39.8160960" lon="2.8241530">
        <ele>561.4</ele>
        <time>2018-12-30T13:51:42Z</time>
      </trkpt>
      <trkpt lat="39.8160980" lon="2.8242360">
        <ele>562.0</ele>
        <time>2018-12-30T13:51:43Z</time>
      </trkpt>
      <trkpt lat="39.8161010" lon="2.8243190">
        <ele>562.5</ele>
        <time>2018-12-30T13:51:44Z</time>
      </trkpt>
      <trkpt lat="39.8161010" lon="2.8244050">
        <ele>563.1</ele>
        <time>2018-12-30T13:51:45Z</time>
      </trkpt>
      <trkpt lat="39.8160980" lon="2.8244920">
        <ele>563.6</ele>
        <time>2018-12-30T13:51:46Z</time>
      </trkpt>
      <trkpt lat="39.8160790" lon="2.8245890">
        <ele>564.3</ele>
        <time>2018-12-30T13:51:47Z</time>
      </trkpt>
      <trkpt lat="39.8160280" lon="2.8246770">
        <ele>565.0</ele>
        <time>2018-12-30T13:51:48Z</time>
      </trkpt>
      <trkpt lat="39.8159530" lon="2.8247590">
        <ele>566.3</ele>
        <time>2018-12-30T13:51:49Z</time>
      </trkpt>
      <trkpt lat="39.8158670" lon="2.8248330">
        <ele>568.4</ele>
        <time>2018-12-30T13:51:50Z</time>
      </trkpt>
      <trkpt lat="39.8157870" lon="2.8249120">
        <ele>570.3</ele>
        <time>2018-12-30T13:51:51Z</time>
      </trkpt>
      <trkpt lat="39.8157070" lon="2.8249930">
        <ele>572.1</ele>
        <time>2018-12-30T13:51:52Z</time>
      </trkpt>
      <trkpt lat="39.8156260" lon="2.8250690">
        <ele>573.6</ele>
        <time>2018-12-30T13:51:53Z</time>
      </trkpt>
      <trkpt lat="39.8155400" lon="2.8251350">
        <ele>574.9</ele>
        <time>2018-12-30T13:51:54Z</time>
      </trkpt>
      <trkpt lat="39.8154530" lon="2.8251970">
        <ele>576.2</ele>
        <time>2018-12-30T13:51:55Z</time>
      </trkpt>
      <trkpt lat="39.8153530" lon="2.8252520">
        <ele>577.5</ele>
        <time>2018-12-30T13:51:56Z</time>
      </trkpt>
      <trkpt lat="39.8152500" lon="2.8253090">
        <ele>579.0</ele>
        <time>2018-12-30T13:51:57Z</time>
      </trkpt>
      <trkpt lat="39.8151460" lon="2.8253710">
        <ele>580.6</ele>
        <time>2018-12-30T13:51:58Z</time>
      </trkpt>
      <trkpt lat="39.8150550" lon="2.8254470">
        <ele>582.5</ele>
        <time>2018-12-30T13:51:59Z</time>
      </trkpt>
      <trkpt lat="39.8149810" lon="2.8255380">
        <ele>585.0</ele>
        <time>2018-12-30T13:52:00Z</time>
      </trkpt>
      <trkpt lat="39.8149250" lon="2.8256490">
        <ele>586.2</ele>
        <time>2018-12-30T13:52:01Z</time>
      </trkpt>
      <trkpt lat="39.8148880" lon="2.8257800">
        <ele>586.7</ele>
        <time>2018-12-30T13:52:02Z</time>
      </trkpt>
      <trkpt lat="39.8148650" lon="2.8259160">
        <ele>587.2</ele>
        <time>2018-12-30T13:52:03Z</time>
      </trkpt>
      <trkpt lat="39.8148470" lon="2.8260490">
        <ele>587.7</ele>
        <time>2018-12-30T13:52:04Z</time>
      </trkpt>
      <trkpt lat="39.8148280" lon="2.8261730">
        <ele>590.0</ele>
        <time>2018-12-30T13:52:05Z</time>
      </trkpt>
      <trkpt lat="39.8148050" lon="2.8262970">
        <ele>591.9</ele>
        <time>2018-12-30T13:52:06Z</time>
      </trkpt>
      <trkpt lat="39.8147860" lon="2.8264190">
        <ele>595.6</ele>
        <time>2018-12-30T13:52:07Z</time>
      </trkpt>
      <trkpt lat="39.8147710" lon="2.8265410">
        <ele>597.3</ele>
        <time>2018-12-30T13:52:08Z</time>
      </trkpt>
      <trkpt lat="39.8147620" lon="2.8266620">
        <ele>600.0</ele>
        <time>2018-12-30T13:52:09Z</time>
      </trkpt>
      <trkpt lat="39.8147620" lon="2.8266620">
        <ele>600.3</ele>
        <time>2018-12-30T13:52:10Z</time>
      </trkpt>
      <trkpt lat="39.8147610" lon="2.8266790">
        <ele>601.2</ele>
        <time>2018-12-30T13:52:11Z</time>
      </trkpt>
      <trkpt lat="39.8147590" lon="2.8266970">
        <ele>601.6</ele>
        <time>2018-12-30T13:52:12Z</time>
      </trkpt>
      <trkpt lat="39.8147580" lon="2.8267140">
        <ele>602.7</ele>
        <time>2018-12-30T13:52:13Z</time>
      </trkpt>
      <trkpt lat="39.8147570" lon="2.8267320">
        <ele>603.0</ele>
        <time>2018-12-30T13:52:14Z</time>
      </trkpt>
      <trkpt lat="39.8147560" lon="2.8267490">
        <ele>604.4</ele>
        <time>2018-12-30T13:52:15Z</time>
      </trkpt>
      <trkpt lat="39.8147540" lon="2.8267670">
        <ele>604.7</ele>
        <time>2018-12-30T13:52:16Z</time>
      </trkpt>
      <trkpt lat="39.8147530" lon="2.8267840">
        <ele>605.1</ele>
        <time>2018-12-30T13:52:17Z</time>
      </trkpt>
      <trkpt lat="39.8147530" lon="2.8267840">
        <ele>605.4</ele>
        <time>2018-12-30T13:52:18Z</time>
      </trkpt>
      <trkpt lat="39.8147690" lon="2.8268810">
        <ele>608.3</ele>
        <time>2018-12-30T13:52:19Z</time>
      </trkpt>
      <trkpt lat="39.8147840" lon="2.8269780">
        <ele>613.7</ele>
        <time>2018-12-30T13:52:20Z</time>
      </trkpt>
      <trkpt lat="39.8148000" lon="2.8270750">
        <ele>616.6</ele>
        <time>2018-12-30T13:52:21Z</time>
      </trkpt>
      <trkpt lat="39.8148160" lon="2.8271720">
        <ele>622.0</ele>
        <time>2018-12-30T13:52:22Z</time>
      </trkpt>
      <trkpt lat="39.8148320" lon="2.8272690">
        <ele>629.6</ele>
        <time>2018-12-30T13:52:23Z</time>
      </trkpt>
      <trkpt lat="39.8148470" lon="2.8273660">
        <ele>632.1</ele>
        <time>2018-12-30T13:52:24Z</time>
      </trkpt>
      <trkpt lat="39.8148630" lon="2.8274630">
        <ele>636.7</ele>
        <time>2018-12-30T13:52:25Z</time>
      </trkpt>
      <trkpt lat="39.8148790" lon="2.8275610">
        <ele>638.2</ele>
        <time>2018-12-30T13:52:26Z</time>
      </trkpt>
      <trkpt lat="39.8148940" lon="2.8276580">
        <ele>643.3</ele>
        <time>2018-12-30T13:52:27Z</time>
      </trkpt>
      <trkpt lat="39.8149100" lon="2.8277550">
        <ele>644.0</ele>
        <time>2018-12-30T13:52:28Z</time>
      </trkpt>
      <trkpt lat="39.8149260" lon="2.8278520">
        <ele>647.2</ele>
        <time>2018-12-30T13:52:29Z</time>
      </trkpt>
      <trkpt lat="39.8149420" lon="2.8279490">
        <ele>647.0</ele>
        <time>2018-12-30T13:52:30Z</time>
      </trkpt>
      <trkpt lat="39.8149570" lon="2.8280460">
        <ele>650.8</ele>
        <time>2018-12-30T13:52:31Z</time>
      </trkpt>
      <trkpt lat="39.8149730" lon="2.8281430">
        <ele>649.8</ele>
        <time>2018-12-30T13:52:32Z</time>
      </trkpt>
      <trkpt lat="39.8151440" lon="2.8287720">
        <ele>633.7</ele>
        <time>2018-12-30T13:52:33Z</time>
      </trkpt>
      <trkpt lat="39.8153460" lon="2.8294150">
        <ele>607.7</ele>
        <time>2018-12-30T13:52:34Z</time>
      </trkpt>
      <trkpt lat="39.8154080" lon="2.8295270">
        <ele>601.5</ele>
        <time>2018-12-30T13:52:35Z</time>
      </trkpt>
      <trkpt lat="39.8154950" lon="2.8296330">
        <ele>591.0</ele>
        <time>2018-12-30T13:52:36Z</time>
      </trkpt>
      <trkpt lat="39.8156350" lon="2.8297150">
        <ele>579.8</ele>
        <time>2018-12-30T13:52:37Z</time>
      </trkpt>
      <trkpt lat="39.8158030" lon="2.8297780">
        <ele>572.1</ele>
        <time>2018-12-30T13:52:38Z</time>
      </trkpt>
      <trkpt lat="39.8159640" lon="2.8298120">
        <ele>567.2</ele>
        <time>2018-12-30T13:52:39Z</time>
      </trkpt>
      <trkpt lat="39.8160990" lon="2.8298330">
        <ele>564.5</ele>
        <time>2018-12-30T13:52:40Z</time>
      </trkpt>
      <trkpt lat="39.8162220" lon="2.8298310">
        <ele>561.7</ele>
        <time>2018-12-30T13:52:41Z</time>
      </trkpt>
      <trkpt lat="39.8163450" lon="2.8298190">
        <ele>559.9</ele>
        <time>2018-12-30T13:52:42Z</time>
      </trkpt>
      <trkpt lat="39.8164430" lon="2.8297970">
        <ele>559.1</ele>
        <time>2018-12-30T13:52:43Z</time>
      </trkpt>
      <trkpt lat="39.8165660" lon="2.8297440">
        <ele>558.1</ele>
        <time>2018-12-30T13:52:44Z</time>
      </trkpt>
      <trkpt lat="39.8166030" lon="2.8297220">
        <ele>557.8</ele>
        <time>2018-12-30T13:52:45Z</time>
      </trkpt>
      <trkpt lat="39.8166760" lon="2.8296780">
        <ele>557.2</ele>
        <time>2018-12-30T13:52:46Z</time>
      </trkpt>
      <trkpt lat="39.8167420" lon="2.8296290">
        <ele>556.7</ele>
        <time>2018-12-30T13:52:47Z</time>
      </trkpt>
      <trkpt lat="39.8168020" lon="2.8295840">
        <ele>556.2</ele>
        <time>2018-12-30T13:52:48Z</time>
      </trkpt>
      <trkpt lat="39.8168580" lon="2.8295390">
        <ele>555.7</ele>
        <time>2018-12-30T13:52:49Z</time>
      </trkpt>
      <trkpt lat="39.8169100" lon="2.8294990">
        <ele>555.2</ele>
        <time>2018-12-30T13:52:50Z</time>
      </trkpt>
      <trkpt lat="39.8173950" lon="2.8290970">
        <ele>551.8</ele>
        <time>2018-12-30T13:53:30Z</time>
      </trkpt>
      <trkpt lat="39.8174040" lon="2.8290890">
        <ele>551.7</ele>
        <time>2018-12-30T13:53:31Z</time>
      </trkpt>
      <trkpt lat="39.8174220" lon="2.8290720">
        <ele>551.6</ele>
        <time>2018-12-30T13:53:32Z</time>
      </trkpt>
      <trkpt lat="39.8174460" lon="2.8290470">
        <ele>551.5</ele>
        <time>2018-12-30T13:53:33Z</time>
      </trkpt>
      <trkpt lat="39.8174750" lon="2.8290140">
        <ele>551.3</ele>
        <time>2018-12-30T13:53:34Z</time>
      </trkpt>
      <trkpt lat="39.8175090" lon="2.8289780">
        <ele>551.1</ele>
        <time>2018-12-30T13:53:35Z</time>
      </trkpt>
      <trkpt lat="39.8175460" lon="2.8289410">
        <ele>550.9</ele>
        <time>2018-12-30T13:53:36Z</time>
      </trkpt>
      <trkpt lat="39.8175870" lon="2.8289100">
        <ele>550.8</ele>
        <time>2018-12-30T13:53:37Z</time>
      </trkpt>
      <trkpt lat="39.8176290" lon="2.8288800">
        <ele>550.6</ele>
        <time>2018-12-30T13:53:38Z</time>
      </trkpt>
      <trkpt lat="39.8176720" lon="2.8288520">
        <ele>550.4</ele>
        <time>2018-12-30T13:53:39Z</time>
      </trkpt>
      <trkpt lat="39.8177140" lon="2.8288270">
        <ele>550.3</ele>
        <time>2018-12-30T13:53:40Z</time>
      </trkpt>
      <trkpt lat="39.8177570" lon="2.8288130">
        <ele>550.2</ele>
        <time>2018-12-30T13:53:41Z</time>
      </trkpt>
      <trkpt lat="39.8178010" lon="2.8288080">
        <ele>550.1</ele>
        <time>2018-12-30T13:53:42Z</time>
      </trkpt>
      <trkpt lat="39.8178460" lon="2.8288140">
        <ele>550.0</ele>
        <time>2018-12-30T13:53:43Z</time>
      </trkpt>
      <trkpt lat="39.8178890" lon="2.8288250">
        <ele>549.9</ele>
        <time>2018-12-30T13:53:44Z</time>
      </trkpt>
      <trkpt lat="39.8179310" lon="2.8288420">
        <ele>549.8</ele>
        <time>2018-12-30T13:53:45Z</time>
      </trkpt>
      <trkpt lat="39.8179720" lon="2.8288590">
        <ele>549.7</ele>
        <time>2018-12-30T13:53:46Z</time>
      </trkpt>
      <trkpt lat="39.8180120" lon="2.8288800">
        <ele>549.7</ele>
        <time>2018-12-30T13:53:47Z</time>
      </trkpt>
      <trkpt lat="39.8180500" lon="2.8289040">
        <ele>549.6</ele>
        <time>2018-12-30T13:53:48Z</time>
      </trkpt>
      <trkpt lat="39.8180850" lon="2.8289310">
        <ele>549.6</ele>
        <time>2018-12-30T13:53:49Z</time>
      </trkpt>
      <trkpt lat="39.8181160" lon="2.8289590">
        <ele>549.6</ele>
        <time>2018-12-30T13:53:50Z</time>
      </trkpt>
      <trkpt lat="39.8181450" lon="2.8289860">
        <ele>549.6</ele>
        <time>2018-12-30T13:53:51Z</time>
      </trkpt>
      <trkpt lat="39.8181730" lon="2.8290170">
        <ele>549.6</ele>
        <time>2018-12-30T13:53:52Z</time>
      </trkpt>
      <trkpt lat="39.8182000" lon="2.8290530">
        <ele>549.6</ele>
        <time>2018-12-30T13:53:53Z</time>
      </trkpt>
      <trkpt lat="39.8182240" lon="2.8290940">
        <ele>549.6</ele>
        <time>2018-12-30T13:53:54Z</time>
      </trkpt>
      <trkpt lat="39.8182400" lon="2.8291370">
        <ele>549.6</ele>
        <time>2018-12-30T13:53:55Z</time>
      </trkpt>
      <trkpt lat="39.8182500" lon="2.8291790">
        <ele>549.6</ele>
        <time>2018-12-30T13:53:56Z</time>
      </trkpt>
      <trkpt lat="39.8182580" lon="2.8292200">
        <ele>549.7</ele>
        <time>2018-12-30T13:53:57Z</time>
      </trkpt>
      <trkpt lat="39.8182680" lon="2.8292630">
        <ele>549.8</ele>
        <time>2018-12-30T13:53:58Z</time>
      </trkpt>
      <trkpt lat="39.8182770" lon="2.8293060">
        <ele>549.8</ele>
        <time>2018-12-30T13:53:59Z</time>
      </trkpt>
      <trkpt lat="39.8182850" lon="2.8293480">
        <ele>549.9</ele>
        <time>2018-12-30T13:54:00Z</time>
      </trkpt>
      <trkpt lat="39.8182930" lon="2.8293900">
        <ele>550.0</ele>
        <time>2018-12-30T13:54:01Z</time>
      </trkpt>
      <trkpt lat="39.8183010" lon="2.8294310">
        <ele>550.1</ele>
        <time>2018-12-30T13:54:02Z</time>
      </trkpt>
      <trkpt lat="39.8183080" lon="2.8294730">
        <ele>550.2</ele>
        <time>2018-12-30T13:54:03Z</time>
      </trkpt>
      <trkpt lat="39.8183170" lon="2.8295170">
        <ele>550.3</ele>
        <time>2018-12-30T13:54:04Z</time>
      </trkpt>
      <trkpt lat="39.8183260" lon="2.8295610">
        <ele>550.4</ele>
        <time>2018-12-30T13:54:05Z</time>
      </trkpt>
      <trkpt lat="39.8183340" lon="2.8296050">
        <ele>550.5</ele>
        <time>2018-12-30T13:54:06Z</time>
      </trkpt>
      <trkpt lat="39.8183430" lon="2.8296480">
        <ele>550.7</ele>
        <time>2018-12-30T13:54:07Z</time>
      </trkpt>
      <trkpt lat="39.8183540" lon="2.8296910">
        <ele>550.8</ele>
        <time>2018-12-30T13:54:08Z</time>
      </trkpt>
      <trkpt lat="39.8183660" lon="2.8297330">
        <ele>551.0</ele>
        <time>2018-12-30T13:54:09Z</time>
      </trkpt>
      <trkpt lat="39.8183810" lon="2.8297730">
        <ele>551.1</ele>
        <time>2018-12-30T13:54:10Z</time>
      </trkpt>
      <trkpt lat="39.8184020" lon="2.8298090">
        <ele>551.3</ele>
        <time>2018-12-30T13:54:11Z</time>
      </trkpt>
      <trkpt lat="39.8184270" lon="2.8298410">
        <ele>551.4</ele>
        <time>2018-12-30T13:54:12Z</time>
      </trkpt>
      <trkpt lat="39.8184580" lon="2.8298630">
        <ele>551.6</ele>
        <time>2018-12-30T13:54:13Z</time>
      </trkpt>
      <trkpt lat="39.8184920" lon="2.8298750">
        <ele>551.8</ele>
        <time>2018-12-30T13:54:14Z</time>
      </trkpt>
      <trkpt lat="39.8185300" lon="2.8298790">
        <ele>551.9</ele>
        <time>2018-12-30T13:54:15Z</time>
      </trkpt>
      <trkpt lat="39.8185680" lon="2.8298780">
        <ele>552.1</ele>
        <time>2018-12-30T13:54:16Z</time>
      </trkpt>
      <trkpt lat="39.8186060" lon="2.8298720">
        <ele>552.3</ele>
        <time>2018-12-30T13:54:17Z</time>
      </trkpt>
      <trkpt lat="39.8186440" lon="2.8298590">
        <ele>552.4</ele>
        <time>2018-12-30T13:54:18Z</time>
      </trkpt>
      <trkpt lat="39.8186820" lon="2.8298420">
        <ele>552.7</ele>
        <time>2018-12-30T13:54:19Z</time>
      </trkpt>
      <trkpt lat="39.8187190" lon="2.8298200">
        <ele>552.9</ele>
        <time>2018-12-30T13:54:20Z</time>
      </trkpt>
      <trkpt lat="39.8187550" lon="2.8297950">
        <ele>553.2</ele>
        <time>2018-12-30T13:54:21Z</time>
      </trkpt>
      <trkpt lat="39.8187900" lon="2.8297650">
        <ele>553.4</ele>
        <time>2018-12-30T13:54:22Z</time>
      </trkpt>
      <trkpt lat="39.8188240" lon="2.8297320">
        <ele>553.7</ele>
        <time>2018-12-30T13:54:23Z</time>
      </trkpt>
      <trkpt lat="39.8188560" lon="2.8296990">
        <ele>554.0</ele>
        <time>2018-12-30T13:54:24Z</time>
      </trkpt>
      <trkpt lat="39.8188900" lon="2.8296690">
        <ele>554.4</ele>
        <time>2018-12-30T13:54:25Z</time>
      </trkpt>
      <trkpt lat="39.8189240" lon="2.8296400">
        <ele>554.6</ele>
        <time>2018-12-30T13:54:26Z</time>
      </trkpt>
      <trkpt lat="39.8189580" lon="2.8296130">
        <ele>554.8</ele>
        <time>2018-12-30T13:54:27Z</time>
      </trkpt>
      <trkpt lat="39.8189920" lon="2.8295860">
        <ele>555.0</ele>
        <time>2018-12-30T13:54:28Z</time>
      </trkpt>
      <trkpt lat="39.8190270" lon="2.8295690">
        <ele>555.2</ele>
        <time>2018-12-30T13:54:29Z</time>
      </trkpt>
      <trkpt lat="39.8190640" lon="2.8295610">
        <ele>555.3</ele>
        <time>2018-12-30T13:54:30Z</time>
      </trkpt>
      <trkpt lat="39.8191010" lon="2.8295630">
        <ele>555.4</ele>
        <time>2018-12-30T13:54:31Z</time>
      </trkpt>
      <trkpt lat="39.8191360" lon="2.8295740">
        <ele>555.5</ele>
        <time>2018-12-30T13:54:32Z</time>
      </trkpt>
      <trkpt lat="39.8191700" lon="2.8295930">
        <ele>555.6</ele>
        <time>2018-12-30T13:54:33Z</time>
      </trkpt>
      <trkpt lat="39.8192070" lon="2.8296150">
        <ele>555.7</ele>
        <time>2018-12-30T13:54:34Z</time>
      </trkpt>
      <trkpt lat="39.8192440" lon="2.8296410">
        <ele>555.8</ele>
        <time>2018-12-30T13:54:35Z</time>
      </trkpt>
      <trkpt lat="39.8192820" lon="2.8296690">
        <ele>555.9</ele>
        <time>2018-12-30T13:54:36Z</time>
      </trkpt>
      <trkpt lat="39.8193170" lon="2.8297000">
        <ele>555.9</ele>
        <time>2018-12-30T13:54:37Z</time>
      </trkpt>
      <trkpt lat="39.8193510" lon="2.8297320">
        <ele>556.0</ele>
        <time>2018-12-30T13:54:38Z</time>
      </trkpt>
      <trkpt lat="39.8193880" lon="2.8297630">
        <ele>556.0</ele>
        <time>2018-12-30T13:54:39Z</time>
      </trkpt>
      <trkpt lat="39.8194230" lon="2.8297950">
        <ele>556.1</ele>
        <time>2018-12-30T13:54:40Z</time>
      </trkpt>
      <trkpt lat="39.8194580" lon="2.8298300">
        <ele>556.1</ele>
        <time>2018-12-30T13:54:41Z</time>
      </trkpt>
      <trkpt lat="39.8194920" lon="2.8298670">
        <ele>556.2</ele>
        <time>2018-12-30T13:54:42Z</time>
      </trkpt>
      <trkpt lat="39.8195250" lon="2.8299010">
        <ele>556.2</ele>
        <time>2018-12-30T13:54:43Z</time>
      </trkpt>
      <trkpt lat="39.8195570" lon="2.8299340">
        <ele>556.3</ele>
        <time>2018-12-30T13:54:44Z</time>
      </trkpt>
      <trkpt lat="39.8195910" lon="2.8299620">
        <ele>556.3</ele>
        <time>2018-12-30T13:54:45Z</time>
      </trkpt>
      <trkpt lat="39.8196260" lon="2.8299890">
        <ele>556.3</ele>
        <time>2018-12-30T13:54:46Z</time>
      </trkpt>
      <trkpt lat="39.8196630" lon="2.8300120">
        <ele>556.4</ele>
        <time>2018-12-30T13:54:47Z</time>
      </trkpt>
      <trkpt lat="39.8197010" lon="2.8300330">
        <ele>556.5</ele>
        <time>2018-12-30T13:54:48Z</time>
      </trkpt>
      <trkpt lat="39.8197420" lon="2.8300490">
        <ele>556.5</ele>
        <time>2018-12-30T13:54:49Z</time>
      </trkpt>
      <trkpt lat="39.8197860" lon="2.8300600">
        <ele>556.6</ele>
        <time>2018-12-30T13:54:50Z</time>
      </trkpt>
      <trkpt lat="39.8198300" lon="2.8300690">
        <ele>556.7</ele>
        <time>2018-12-30T13:54:51Z</time>
      </trkpt>
      <trkpt lat="39.8198740" lon="2.8300750">
        <ele>556.7</ele>
        <time>2018-12-30T13:54:52Z</time>
      </trkpt>
      <trkpt lat="39.8199170" lon="2.8300800">
        <ele>556.8</ele>
        <time>2018-12-30T13:54:53Z</time>
      </trkpt>
      <trkpt lat="39.8199600" lon="2.8300820">
        <ele>556.9</ele>
        <time>2018-12-30T13:54:54Z</time>
      </trkpt>
      <trkpt lat="39.8200030" lon="2.8300810">
        <ele>557.0</ele>
        <time>2018-12-30T13:54:55Z</time>
      </trkpt>
      <trkpt lat="39.8200460" lon="2.8300780">
        <ele>557.2</ele>
        <time>2018-12-30T13:54:56Z</time>
      </trkpt>
      <trkpt lat="39.8200880" lon="2.8300720">
        <ele>557.3</ele>
        <time>2018-12-30T13:54:57Z</time>
      </trkpt>
      <trkpt lat="39.8201300" lon="2.8300650">
        <ele>557.4</ele>
        <time>2018-12-30T13:54:58Z</time>
      </trkpt>
      <trkpt lat="39.8201700" lon="2.8300560">
        <ele>557.4</ele>
        <time>2018-12-30T13:54:59Z</time>
      </trkpt>
      <trkpt lat="39.8202130" lon="2.8300450">
        <ele>557.5</ele>
        <time>2018-12-30T13:55:00Z</time>
      </trkpt>
      <trkpt lat="39.8202550" lon="2.8300330">
        <ele>557.6</ele>
        <time>2018-12-30T13:55:01Z</time>
      </trkpt>
      <trkpt lat="39.8203000" lon="2.8300200">
        <ele>557.7</ele>
        <time>2018-12-30T13:55:02Z</time>
      </trkpt>
      <trkpt lat="39.8203480" lon="2.8300060">
        <ele>557.8</ele>
        <time>2018-12-30T13:55:03Z</time>
      </trkpt>
      <trkpt lat="39.8203960" lon="2.8299880">
        <ele>558.0</ele>
        <time>2018-12-30T13:55:04Z</time>
      </trkpt>
      <trkpt lat="39.8204440" lon="2.8299650">
        <ele>558.1</ele>
        <time>2018-12-30T13:55:05Z</time>
      </trkpt>
      <trkpt lat="39.8204900" lon="2.8299380">
        <ele>558.2</ele>
        <time>2018-12-30T13:55:06Z</time>
      </trkpt>
      <trkpt lat="39.8205350" lon="2.8299110">
        <ele>558.3</ele>
        <time>2018-12-30T13:55:07Z</time>
      </trkpt>
      <trkpt lat="39.8205770" lon="2.8298810">
        <ele>558.4</ele>
        <time>2018-12-30T13:55:08Z</time>
      </trkpt>
      <trkpt lat="39.8206170" lon="2.8298470">
        <ele>558.5</ele>
        <time>2018-12-30T13:55:09Z</time>
      </trkpt>
      <trkpt lat="39.8206540" lon="2.8298100">
        <ele>558.6</ele>
        <time>2018-12-30T13:55:10Z</time>
      </trkpt>
      <trkpt lat="39.8206900" lon="2.8297710">
        <ele>558.6</ele>
        <time>2018-12-30T13:55:11Z</time>
      </trkpt>
      <trkpt lat="39.8207230" lon="2.8297240">
        <ele>558.7</ele>
        <time>2018-12-30T13:55:12Z</time>
      </trkpt>
      <trkpt lat="39.8207530" lon="2.8296740">
        <ele>558.7</ele>
        <time>2018-12-30T13:55:13Z</time>
      </trkpt>
      <trkpt lat="39.8207830" lon="2.8296200">
        <ele>558.8</ele>
        <time>2018-12-30T13:55:14Z</time>
      </trkpt>
      <trkpt lat="39.8208100" lon="2.8295720">
        <ele>558.8</ele>
        <time>2018-12-30T13:55:15Z</time>
      </trkpt>
      <trkpt lat="39.8208350" lon="2.8295190">
        <ele>558.8</ele>
        <time>2018-12-30T13:55:16Z</time>
      </trkpt>
      <trkpt lat="39.8208560" lon="2.8294590">
        <ele>558.8</ele>
        <time>2018-12-30T13:55:17Z</time>
      </trkpt>
      <trkpt lat="39.8208750" lon="2.8293950">
        <ele>558.8</ele>
        <time>2018-12-30T13:55:18Z</time>
      </trkpt>
      <trkpt lat="39.8208930" lon="2.8293320">
        <ele>558.8</ele>
        <time>2018-12-30T13:55:19Z</time>
      </trkpt>
      <trkpt lat="39.8209110" lon="2.8292730">
        <ele>558.7</ele>
        <time>2018-12-30T13:55:20Z</time>
      </trkpt>
      <trkpt lat="39.8209290" lon="2.8292130">
        <ele>558.7</ele>
        <time>2018-12-30T13:55:21Z</time>
      </trkpt>
      <trkpt lat="39.8209470" lon="2.8291520">
        <ele>558.7</ele>
        <time>2018-12-30T13:55:22Z</time>
      </trkpt>
      <trkpt lat="39.8209710" lon="2.8290890">
        <ele>558.6</ele>
        <time>2018-12-30T13:55:23Z</time>
      </trkpt>
      <trkpt lat="39.8210000" lon="2.8290210">
        <ele>558.5</ele>
        <time>2018-12-30T13:55:24Z</time>
      </trkpt>
      <trkpt lat="39.8210370" lon="2.8289510">
        <ele>558.4</ele>
        <time>2018-12-30T13:55:25Z</time>
      </trkpt>
      <trkpt lat="39.8210790" lon="2.8288850">
        <ele>558.2</ele>
        <time>2018-12-30T13:55:26Z</time>
      </trkpt>
      <trkpt lat="39.8211260" lon="2.8288270">
        <ele>558.1</ele>
        <time>2018-12-30T13:55:27Z</time>
      </trkpt>
      <trkpt lat="39.8211760" lon="2.8287840">
        <ele>557.9</ele>
        <time>2018-12-30T13:55:28Z</time>
      </trkpt>
      <trkpt lat="39.8212260" lon="2.8287410">
        <ele>557.8</ele>
        <time>2018-12-30T13:55:29Z</time>
      </trkpt>
      <trkpt lat="39.8212760" lon="2.8286980">
        <ele>557.5</ele>
        <time>2018-12-30T13:55:30Z</time>
      </trkpt>
      <trkpt lat="39.8213250" lon="2.8286480">
        <ele>557.4</ele>
        <time>2018-12-30T13:55:31Z</time>
      </trkpt>
      <trkpt lat="39.8213750" lon="2.8285990">
        <ele>557.3</ele>
        <time>2018-12-30T13:55:32Z</time>
      </trkpt>
      <trkpt lat="39.8214250" lon="2.8285490">
        <ele>557.1</ele>
        <time>2018-12-30T13:55:33Z</time>
      </trkpt>
      <trkpt lat="39.8214750" lon="2.8284990">
        <ele>557.0</ele>
        <time>2018-12-30T13:55:34Z</time>
      </trkpt>
      <trkpt lat="39.8215250" lon="2.8284500">
        <ele>556.8</ele>
        <time>2018-12-30T13:55:35Z</time>
      </trkpt>
      <trkpt lat="39.8215730" lon="2.8284000">
        <ele>556.5</ele>
        <time>2018-12-30T13:55:36Z</time>
      </trkpt>
      <trkpt lat="39.8216150" lon="2.8283490">
        <ele>556.3</ele>
        <time>2018-12-30T13:55:37Z</time>
      </trkpt>
      <trkpt lat="39.8216510" lon="2.8282960">
        <ele>556.1</ele>
        <time>2018-12-30T13:55:38Z</time>
      </trkpt>
      <trkpt lat="39.8216780" lon="2.8282380">
        <ele>555.9</ele>
        <time>2018-12-30T13:55:39Z</time>
      </trkpt>
      <trkpt lat="39.8216890" lon="2.8281450">
        <ele>555.6</ele>
        <time>2018-12-30T13:55:40Z</time>
      </trkpt>
      <trkpt lat="39.8216890" lon="2.8280350">
        <ele>555.2</ele>
        <time>2018-12-30T13:55:41Z</time>
      </trkpt>
      <trkpt lat="39.8216850" lon="2.8279180">
        <ele>554.7</ele>
        <time>2018-12-30T13:55:42Z</time>
      </trkpt>
      <trkpt lat="39.8216900" lon="2.8278210">
        <ele>554.4</ele>
        <time>2018-12-30T13:55:43Z</time>
      </trkpt>
      <trkpt lat="39.8217080" lon="2.8277380">
        <ele>554.2</ele>
        <time>2018-12-30T13:55:44Z</time>
      </trkpt>
      <trkpt lat="39.8217500" lon="2.8276590">
        <ele>553.9</ele>
        <time>2018-12-30T13:55:45Z</time>
      </trkpt>
      <trkpt lat="39.8218070" lon="2.8275860">
        <ele>553.7</ele>
        <time>2018-12-30T13:55:46Z</time>
      </trkpt>
      <trkpt lat="39.8218710" lon="2.8275130">
        <ele>553.3</ele>
        <time>2018-12-30T13:55:47Z</time>
      </trkpt>
      <trkpt lat="39.8219260" lon="2.8274470">
        <ele>553.0</ele>
        <time>2018-12-30T13:55:48Z</time>
      </trkpt>
      <trkpt lat="39.8219810" lon="2.8273860">
        <ele>552.5</ele>
        <time>2018-12-30T13:55:49Z</time>
      </trkpt>
      <trkpt lat="39.8220370" lon="2.8273280">
        <ele>552.1</ele>
        <time>2018-12-30T13:55:50Z</time>
      </trkpt>
      <trkpt lat="39.8220960" lon="2.8272710">
        <ele>551.7</ele>
        <time>2018-12-30T13:55:51Z</time>
      </trkpt>
      <trkpt lat="39.8221520" lon="2.8272160">
        <ele>551.4</ele>
        <time>2018-12-30T13:55:52Z</time>
      </trkpt>
      <trkpt lat="39.8222100" lon="2.8271770">
        <ele>551.1</ele>
        <time>2018-12-30T13:55:53Z</time>
      </trkpt>
      <trkpt lat="39.8222710" lon="2.8271550">
        <ele>550.8</ele>
        <time>2018-12-30T13:55:54Z</time>
      </trkpt>
      <trkpt lat="39.8223370" lon="2.8271460">
        <ele>550.5</ele>
        <time>2018-12-30T13:55:55Z</time>
      </trkpt>
      <trkpt lat="39.8224070" lon="2.8271490">
        <ele>550.3</ele>
        <time>2018-12-30T13:55:56Z</time>
      </trkpt>
      <trkpt lat="39.8224750" lon="2.8271540">
        <ele>550.2</ele>
        <time>2018-12-30T13:55:57Z</time>
      </trkpt>
      <trkpt lat="39.8225400" lon="2.8271870">
        <ele>550.1</ele>
        <time>2018-12-30T13:55:58Z</time>
      </trkpt>
      <trkpt lat="39.8225900" lon="2.8272170">
        <ele>550.0</ele>
        <time>2018-12-30T13:55:59Z</time>
      </trkpt>
      <trkpt lat="39.8226480" lon="2.8272720">
        <ele>550.0</ele>
        <time>2018-12-30T13:56:00Z</time>
      </trkpt>
      <trkpt lat="39.8227040" lon="2.8273180">
        <ele>549.9</ele>
        <time>2018-12-30T13:56:01Z</time>
      </trkpt>
      <trkpt lat="39.8227730" lon="2.8273620">
        <ele>549.9</ele>
        <time>2018-12-30T13:56:02Z</time>
      </trkpt>
      <trkpt lat="39.8228380" lon="2.8273900">
        <ele>549.8</ele>
        <time>2018-12-30T13:56:03Z</time>
      </trkpt>
      <trkpt lat="39.8228980" lon="2.8274140">
        <ele>549.8</ele>
        <time>2018-12-30T13:56:04Z</time>
      </trkpt>
      <trkpt lat="39.8229570" lon="2.8274420">
        <ele>549.8</ele>
        <time>2018-12-30T13:56:05Z</time>
      </trkpt>
      <trkpt lat="39.8230120" lon="2.8274690">
        <ele>549.8</ele>
        <time>2018-12-30T13:56:06Z</time>
      </trkpt>
      <trkpt lat="39.8230630" lon="2.8275010">
        <ele>549.8</ele>
        <time>2018-12-30T13:56:07Z</time>
      </trkpt>
      <trkpt lat="39.8231200" lon="2.8275350">
        <ele>549.8</ele>
        <time>2018-12-30T13:56:08Z</time>
      </trkpt>
      <trkpt lat="39.8231880" lon="2.8275700">
        <ele>549.8</ele>
        <time>2018-12-30T13:56:09Z</time>
      </trkpt>
      <trkpt lat="39.8232640" lon="2.8276060">
        <ele>549.8</ele>
        <time>2018-12-30T13:56:10Z</time>
      </trkpt>
      <trkpt lat="39.8233290" lon="2.8276450">
        <ele>549.8</ele>
        <time>2018-12-30T13:56:11Z</time>
      </trkpt>
      <trkpt lat="39.8233810" lon="2.8276870">
        <ele>549.9</ele>
        <time>2018-12-30T13:56:12Z</time>
      </trkpt>
      <trkpt lat="39.8234370" lon="2.8277310">
        <ele>550.0</ele>
        <time>2018-12-30T13:56:13Z</time>
      </trkpt>
      <trkpt lat="39.8234910" lon="2.8277730">
        <ele>550.0</ele>
        <time>2018-12-30T13:56:14Z</time>
      </trkpt>
      <trkpt lat="39.8235450" lon="2.8278160">
        <ele>550.1</ele>
        <time>2018-12-30T13:56:15Z</time>
      </trkpt>
      <trkpt lat="39.8235900" lon="2.8278570">
        <ele>550.2</ele>
        <time>2018-12-30T13:56:16Z</time>
      </trkpt>
      <trkpt lat="39.8236310" lon="2.8278970">
        <ele>550.3</ele>
        <time>2018-12-30T13:56:17Z</time>
      </trkpt>
      <trkpt lat="39.8236670" lon="2.8279340">
        <ele>550.4</ele>
        <time>2018-12-30T13:56:18Z</time>
      </trkpt>
      <trkpt lat="39.8237010" lon="2.8279740">
        <ele>550.4</ele>
        <time>2018-12-30T13:56:19Z</time>
      </trkpt>
      <trkpt lat="39.8237360" lon="2.8280150">
        <ele>551.1</ele>
        <time>2018-12-30T13:56:20Z</time>
      </trkpt>
      <trkpt lat="39.8237690" lon="2.8280570">
        <ele>551.5</ele>
        <time>2018-12-30T13:56:21Z</time>
      </trkpt>
      <trkpt lat="39.8238040" lon="2.8281000">
        <ele>551.9</ele>
        <time>2018-12-30T13:56:22Z</time>
      </trkpt>
      <trkpt lat="39.8238430" lon="2.8281430">
        <ele>552.4</ele>
        <time>2018-12-30T13:56:23Z</time>
      </trkpt>
      <trkpt lat="39.8238840" lon="2.8281870">
        <ele>552.8</ele>
        <time>2018-12-30T13:56:24Z</time>
      </trkpt>
      <trkpt lat="39.8239290" lon="2.8282320">
        <ele>553.2</ele>
        <time>2018-12-30T13:56:25Z</time>
      </trkpt>
      <trkpt lat="39.8239740" lon="2.8282760">
        <ele>553.6</ele>
        <time>2018-12-30T13:56:26Z</time>
      </trkpt>
      <trkpt lat="39.8240190" lon="2.8283210">
        <ele>554.0</ele>
        <time>2018-12-30T13:56:27Z</time>
      </trkpt>
      <trkpt lat="39.8240600" lon="2.8283630">
        <ele>554.3</ele>
        <time>2018-12-30T13:56:28Z</time>
      </trkpt>
      <trkpt lat="39.8240980" lon="2.8284040">
        <ele>554.6</ele>
        <time>2018-12-30T13:56:29Z</time>
      </trkpt>
      <trkpt lat="39.8241360" lon="2.8284460">
        <ele>554.9</ele>
        <time>2018-12-30T13:56:30Z</time>
      </trkpt>
      <trkpt lat="39.8241740" lon="2.8284850">
        <ele>555.1</ele>
        <time>2018-12-30T13:56:31Z</time>
      </trkpt>
      <trkpt lat="39.8242110" lon="2.8285210">
        <ele>555.4</ele>
        <time>2018-12-30T13:56:32Z</time>
      </trkpt>
      <trkpt lat="39.8242490" lon="2.8285560">
        <ele>555.6</ele>
        <time>2018-12-30T13:56:33Z</time>
      </trkpt>
      <trkpt lat="39.8242850" lon="2.8285910">
        <ele>555.8</ele>
        <time>2018-12-30T13:56:34Z</time>
      </trkpt>
      <trkpt lat="39.8243220" lon="2.8286260">
        <ele>556.1</ele>
        <time>2018-12-30T13:56:35Z</time>
      </trkpt>
      <trkpt lat="39.8243590" lon="2.8286620">
        <ele>556.3</ele>
        <time>2018-12-30T13:56:36Z</time>
      </trkpt>
      <trkpt lat="39.8243950" lon="2.8286980">
        <ele>556.5</ele>
        <time>2018-12-30T13:56:37Z</time>
      </trkpt>
      <trkpt lat="39.8244310" lon="2.8287350">
        <ele>556.8</ele>
        <time>2018-12-30T13:56:38Z</time>
      </trkpt>
      <trkpt lat="39.8244660" lon="2.8287720">
        <ele>557.0</ele>
        <time>2018-12-30T13:56:39Z</time>
      </trkpt>
      <trkpt lat="39.8245010" lon="2.8288100">
        <ele>557.3</ele>
        <time>2018-12-30T13:56:40Z</time>
      </trkpt>
      <trkpt lat="39.8245350" lon="2.8288470">
        <ele>557.5</ele>
        <time>2018-12-30T13:56:41Z</time>
      </trkpt>
      <trkpt lat="39.8245680" lon="2.8288850">
        <ele>557.7</ele>
        <time>2018-12-30T13:56:42Z</time>
      </trkpt>
      <trkpt lat="39.8246000" lon="2.8289220">
        <ele>558.0</ele>
        <time>2018-12-30T13:56:43Z</time>
      </trkpt>
      <trkpt lat="39.8246310" lon="2.8289590">
        <ele>558.2</ele>
        <time>2018-12-30T13:56:44Z</time>
      </trkpt>
      <trkpt lat="39.8246630" lon="2.8289950">
        <ele>558.4</ele>
        <time>2018-12-30T13:56:45Z</time>
      </trkpt>
      <trkpt lat="39.8246940" lon="2.8290280">
        <ele>558.7</ele>
        <time>2018-12-30T13:56:46Z</time>
      </trkpt>
      <trkpt lat="39.8247270" lon="2.8290590">
        <ele>558.9</ele>
        <time>2018-12-30T13:56:47Z</time>
      </trkpt>
      <trkpt lat="39.8247600" lon="2.8290890">
        <ele>559.1</ele>
        <time>2018-12-30T13:56:48Z</time>
      </trkpt>
      <trkpt lat="39.8247940" lon="2.8291180">
        <ele>559.4</ele>
        <time>2018-12-30T13:56:49Z</time>
      </trkpt>
      <trkpt lat="39.8248280" lon="2.8291470">
        <ele>559.6</ele>
        <time>2018-12-30T13:56:50Z</time>
      </trkpt>
      <trkpt lat="39.8248620" lon="2.8291730">
        <ele>560.0</ele>
        <time>2018-12-30T13:56:51Z</time>
      </trkpt>
      <trkpt lat="39.8248960" lon="2.8291960">
        <ele>560.3</ele>
        <time>2018-12-30T13:56:52Z</time>
      </trkpt>
      <trkpt lat="39.8249300" lon="2.8292160">
        <ele>560.5</ele>
        <time>2018-12-30T13:56:53Z</time>
      </trkpt>
      <trkpt lat="39.8249650" lon="2.8292360">
        <ele>560.8</ele>
        <time>2018-12-30T13:56:54Z</time>
      </trkpt>
      <trkpt lat="39.8250000" lon="2.8292540">
        <ele>561.1</ele>
        <time>2018-12-30T13:56:55Z</time>
      </trkpt>
      <trkpt lat="39.8250350" lon="2.8292710">
        <ele>561.3</ele>
        <time>2018-12-30T13:56:56Z</time>
      </trkpt>
      <trkpt lat="39.8250720" lon="2.8292900">
        <ele>561.6</ele>
        <time>2018-12-30T13:56:57Z</time>
      </trkpt>
      <trkpt lat="39.8251110" lon="2.8293120">
        <ele>562.0</ele>
        <time>2018-12-30T13:56:58Z</time>
      </trkpt>
      <trkpt lat="39.8251520" lon="2.8293360">
        <ele>562.2</ele>
        <time>2018-12-30T13:56:59Z</time>
      </trkpt>
      <trkpt lat="39.8251950" lon="2.8293590">
        <ele>562.5</ele>
        <time>2018-12-30T13:57:00Z</time>
      </trkpt>
      <trkpt lat="39.8252370" lon="2.8293800">
        <ele>562.8</ele>
        <time>2018-12-30T13:57:01Z</time>
      </trkpt>
      <trkpt lat="39.8252800" lon="2.8294050">
        <ele>563.1</ele>
        <time>2018-12-30T13:57:02Z</time>
      </trkpt>
      <trkpt lat="39.8253320" lon="2.8294310">
        <ele>563.3</ele>
        <time>2018-12-30T13:57:03Z</time>
      </trkpt>
      <trkpt lat="39.8253900" lon="2.8294570">
        <ele>563.5</ele>
        <time>2018-12-30T13:57:04Z</time>
      </trkpt>
      <trkpt lat="39.8254520" lon="2.8294790">
        <ele>563.7</ele>
        <time>2018-12-30T13:57:05Z</time>
      </trkpt>
      <trkpt lat="39.8255100" lon="2.8294980">
        <ele>563.7</ele>
        <time>2018-12-30T13:57:06Z</time>
      </trkpt>
      <trkpt lat="39.8255640" lon="2.8295170">
        <ele>563.8</ele>
        <time>2018-12-30T13:57:07Z</time>
      </trkpt>
      <trkpt lat="39.8256160" lon="2.8295340">
        <ele>563.9</ele>
        <time>2018-12-30T13:57:08Z</time>
      </trkpt>
      <trkpt lat="39.8256670" lon="2.8295500">
        <ele>563.9</ele>
        <time>2018-12-30T13:57:09Z</time>
      </trkpt>
      <trkpt lat="39.8257190" lon="2.8295660">
        <ele>563.9</ele>
        <time>2018-12-30T13:57:10Z</time>
      </trkpt>
      <trkpt lat="39.8257740" lon="2.8295820">
        <ele>563.9</ele>
        <time>2018-12-30T13:57:11Z</time>
      </trkpt>
      <trkpt lat="39.8258310" lon="2.8295970">
        <ele>563.9</ele>
        <time>2018-12-30T13:57:12Z</time>
      </trkpt>
      <trkpt lat="39.8258890" lon="2.8296100">
        <ele>563.8</ele>
        <time>2018-12-30T13:57:13Z</time>
      </trkpt>
      <trkpt lat="39.8259440" lon="2.8296210">
        <ele>563.8</ele>
        <time>2018-12-30T13:57:14Z</time>
      </trkpt>
      <trkpt lat="39.8259970" lon="2.8296330">
        <ele>563.8</ele>
        <time>2018-12-30T13:57:15Z</time>
      </trkpt>
      <trkpt lat="39.8260490" lon="2.8296460">
        <ele>563.8</ele>
        <time>2018-12-30T13:57:16Z</time>
      </trkpt>
      <trkpt lat="39.8261020" lon="2.8296660">
        <ele>563.9</ele>
        <time>2018-12-30T13:57:17Z</time>
      </trkpt>
      <trkpt lat="39.8261570" lon="2.8296940">
        <ele>563.9</ele>
        <time>2018-12-30T13:57:18Z</time>
      </trkpt>
      <trkpt lat="39.8262100" lon="2.8297270">
        <ele>564.0</ele>
        <time>2018-12-30T13:57:19Z</time>
      </trkpt>
      <trkpt lat="39.8262590" lon="2.8297590">
        <ele>564.0</ele>
        <time>2018-12-30T13:57:20Z</time>
      </trkpt>
      <trkpt lat="39.8263080" lon="2.8297880">
        <ele>564.1</ele>
        <time>2018-12-30T13:57:21Z</time>
      </trkpt>
      <trkpt lat="39.8263560" lon="2.8298160">
        <ele>564.2</ele>
        <time>2018-12-30T13:57:22Z</time>
      </trkpt>
      <trkpt lat="39.8264070" lon="2.8298460">
        <ele>564.4</ele>
        <time>2018-12-30T13:57:23Z</time>
      </trkpt>
      <trkpt lat="39.8264590" lon="2.8298790">
        <ele>564.5</ele>
        <time>2018-12-30T13:57:24Z</time>
      </trkpt>
      <trkpt lat="39.8265110" lon="2.8299120">
        <ele>564.6</ele>
        <time>2018-12-30T13:57:25Z</time>
      </trkpt>
      <trkpt lat="39.8265640" lon="2.8299510">
        <ele>564.7</ele>
        <time>2018-12-30T13:57:26Z</time>
      </trkpt>
      <trkpt lat="39.8266150" lon="2.8299960">
        <ele>564.8</ele>
        <time>2018-12-30T13:57:27Z</time>
      </trkpt>
      <trkpt lat="39.8266670" lon="2.8300510">
        <ele>564.8</ele>
        <time>2018-12-30T13:57:28Z</time>
      </trkpt>
      <trkpt lat="39.8267130" lon="2.8301100">
        <ele>564.8</ele>
        <time>2018-12-30T13:57:29Z</time>
      </trkpt>
      <trkpt lat="39.8267600" lon="2.8301740">
        <ele>564.9</ele>
        <time>2018-12-30T13:57:30Z</time>
      </trkpt>
      <trkpt lat="39.8268090" lon="2.8302380">
        <ele>564.9</ele>
        <time>2018-12-30T13:57:31Z</time>
      </trkpt>
      <trkpt lat="39.8268590" lon="2.8303010">
        <ele>564.9</ele>
        <time>2018-12-30T13:57:32Z</time>
      </trkpt>
      <trkpt lat="39.8269070" lon="2.8303610">
        <ele>564.9</ele>
        <time>2018-12-30T13:57:33Z</time>
      </trkpt>
      <trkpt lat="39.8269540" lon="2.8304220">
        <ele>565.0</ele>
        <time>2018-12-30T13:57:34Z</time>
      </trkpt>
      <trkpt lat="39.8270020" lon="2.8304880">
        <ele>565.0</ele>
        <time>2018-12-30T13:57:35Z</time>
      </trkpt>
      <trkpt lat="39.8270520" lon="2.8305570">
        <ele>565.0</ele>
        <time>2018-12-30T13:57:36Z</time>
      </trkpt>
      <trkpt lat="39.8271030" lon="2.8306310">
        <ele>565.3</ele>
        <time>2018-12-30T13:57:37Z</time>
      </trkpt>
      <trkpt lat="39.8271540" lon="2.8307040">
        <ele>566.5</ele>
        <time>2018-12-30T13:57:38Z</time>
      </trkpt>
      <trkpt lat="39.8272050" lon="2.8307800">
        <ele>567.7</ele>
        <time>2018-12-30T13:57:39Z</time>
      </trkpt>
      <trkpt lat="39.8272550" lon="2.8308570">
        <ele>568.8</ele>
        <time>2018-12-30T13:57:40Z</time>
      </trkpt>
      <trkpt lat="39.8273120" lon="2.8309370">
        <ele>570.0</ele>
        <time>2018-12-30T13:57:41Z</time>
      </trkpt>
      <trkpt lat="39.8273880" lon="2.8310170">
        <ele>571.4</ele>
        <time>2018-12-30T13:57:42Z</time>
      </trkpt>
      <trkpt lat="39.8274650" lon="2.8310940">
        <ele>572.8</ele>
        <time>2018-12-30T13:57:43Z</time>
      </trkpt>
      <trkpt lat="39.8275310" lon="2.8311700">
        <ele>574.1</ele>
        <time>2018-12-30T13:57:44Z</time>
      </trkpt>
      <trkpt lat="39.8275800" lon="2.8312440">
        <ele>575.3</ele>
        <time>2018-12-30T13:57:45Z</time>
      </trkpt>
      <trkpt lat="39.8276250" lon="2.8313160">
        <ele>576.3</ele>
        <time>2018-12-30T13:57:46Z</time>
      </trkpt>
      <trkpt lat="39.8276700" lon="2.8313860">
        <ele>577.3</ele>
        <time>2018-12-30T13:57:47Z</time>
      </trkpt>
      <trkpt lat="39.8277080" lon="2.8314540">
        <ele>578.3</ele>
        <time>2018-12-30T13:57:48Z</time>
      </trkpt>
      <trkpt lat="39.8277430" lon="2.8315210">
        <ele>579.2</ele>
        <time>2018-12-30T13:57:49Z</time>
      </trkpt>
      <trkpt lat="39.8277730" lon="2.8315880">
        <ele>580.1</ele>
        <time>2018-12-30T13:57:50Z</time>
      </trkpt>
      <trkpt lat="39.8277960" lon="2.8316550">
        <ele>580.9</ele>
        <time>2018-12-30T13:57:51Z</time>
      </trkpt>
      <trkpt lat="39.8278130" lon="2.8317200">
        <ele>581.9</ele>
        <time>2018-12-30T13:57:52Z</time>
      </trkpt>
      <trkpt lat="39.8278240" lon="2.8317840">
        <ele>582.7</ele>
        <time>2018-12-30T13:57:53Z</time>
      </trkpt>
      <trkpt lat="39.8278340" lon="2.8318460">
        <ele>583.3</ele>
        <time>2018-12-30T13:57:54Z</time>
      </trkpt>
      <trkpt lat="39.8278420" lon="2.8319070">
        <ele>584.0</ele>
        <time>2018-12-30T13:57:55Z</time>
      </trkpt>
      <trkpt lat="39.8278500" lon="2.8319680">
        <ele>584.7</ele>
        <time>2018-12-30T13:57:56Z</time>
      </trkpt>
      <trkpt lat="39.8278570" lon="2.8320270">
        <ele>585.3</ele>
        <time>2018-12-30T13:57:57Z</time>
      </trkpt>
      <trkpt lat="39.8278650" lon="2.8320850">
        <ele>586.0</ele>
        <time>2018-12-30T13:57:58Z</time>
      </trkpt>
      <trkpt lat="39.8278720" lon="2.8321410">
        <ele>586.6</ele>
        <time>2018-12-30T13:57:59Z</time>
      </trkpt>
      <trkpt lat="39.8278780" lon="2.8321950">
        <ele>587.3</ele>
        <time>2018-12-30T13:58:00Z</time>
      </trkpt>
      <trkpt lat="39.8278820" lon="2.8322470">
        <ele>587.9</ele>
        <time>2018-12-30T13:58:01Z</time>
      </trkpt>
      <trkpt lat="39.8278860" lon="2.8322970">
        <ele>588.5</ele>
        <time>2018-12-30T13:58:02Z</time>
      </trkpt>
      <trkpt lat="39.8278900" lon="2.8323440">
        <ele>589.0</ele>
        <time>2018-12-30T13:58:03Z</time>
      </trkpt>
      <trkpt lat="39.8278970" lon="2.8323900">
        <ele>589.5</ele>
        <time>2018-12-30T13:58:04Z</time>
      </trkpt>
      <trkpt lat="39.8279070" lon="2.8324340">
        <ele>590.0</ele>
        <time>2018-12-30T13:58:05Z</time>
      </trkpt>
      <trkpt lat="39.8279220" lon="2.8324790">
        <ele>590.5</ele>
        <time>2018-12-30T13:58:06Z</time>
      </trkpt>
      <trkpt lat="39.8279370" lon="2.8325250">
        <ele>591.2</ele>
        <time>2018-12-30T13:58:07Z</time>
      </trkpt>
      <trkpt lat="39.8279500" lon="2.8325720">
        <ele>591.8</ele>
        <time>2018-12-30T13:58:08Z</time>
      </trkpt>
      <trkpt lat="39.8279620" lon="2.8326180">
        <ele>592.4</ele>
        <time>2018-12-30T13:58:09Z</time>
      </trkpt>
      <trkpt lat="39.8279720" lon="2.8326620">
        <ele>593.1</ele>
        <time>2018-12-30T13:58:10Z</time>
      </trkpt>
      <trkpt lat="39.8279840" lon="2.8327060">
        <ele>593.7</ele>
        <time>2018-12-30T13:58:11Z</time>
      </trkpt>
      <trkpt lat="39.8279970" lon="2.8327490">
        <ele>594.4</ele>
        <time>2018-12-30T13:58:12Z</time>
      </trkpt>
      <trkpt lat="39.8280110" lon="2.8327920">
        <ele>595.1</ele>
        <time>2018-12-30T13:58:13Z</time>
      </trkpt>
      <trkpt lat="39.8280230" lon="2.8328350">
        <ele>596.2</ele>
        <time>2018-12-30T13:58:14Z</time>
      </trkpt>
      <trkpt lat="39.8280350" lon="2.8328780">
        <ele>595.8</ele>
        <time>2018-12-30T13:58:15Z</time>
      </trkpt>
      <trkpt lat="39.8280450" lon="2.8329210">
        <ele>595.5</ele>
        <time>2018-12-30T13:58:16Z</time>
      </trkpt>
      <trkpt lat="39.8280560" lon="2.8329630">
        <ele>595.3</ele>
        <time>2018-12-30T13:58:17Z</time>
      </trkpt>
      <trkpt lat="39.8280670" lon="2.8330050">
        <ele>595.1</ele>
        <time>2018-12-30T13:58:18Z</time>
      </trkpt>
      <trkpt lat="39.8280780" lon="2.8330470">
        <ele>594.9</ele>
        <time>2018-12-30T13:58:19Z</time>
      </trkpt>
      <trkpt lat="39.8280880" lon="2.8330890">
        <ele>594.7</ele>
        <time>2018-12-30T13:58:20Z</time>
      </trkpt>
      <trkpt lat="39.8280990" lon="2.8331290">
        <ele>594.5</ele>
        <time>2018-12-30T13:58:21Z</time>
      </trkpt>
      <trkpt lat="39.8281120" lon="2.8331690">
        <ele>594.3</ele>
        <time>2018-12-30T13:58:22Z</time>
      </trkpt>
      <trkpt lat="39.8281270" lon="2.8332080">
        <ele>594.1</ele>
        <time>2018-12-30T13:58:23Z</time>
      </trkpt>
      <trkpt lat="39.8281440" lon="2.8332460">
        <ele>593.9</ele>
        <time>2018-12-30T13:58:24Z</time>
      </trkpt>
      <trkpt lat="39.8281640" lon="2.8332840">
        <ele>593.7</ele>
        <time>2018-12-30T13:58:25Z</time>
      </trkpt>
      <trkpt lat="39.8281860" lon="2.8333210">
        <ele>593.5</ele>
        <time>2018-12-30T13:58:26Z</time>
      </trkpt>
      <trkpt lat="39.8282090" lon="2.8333580">
        <ele>593.3</ele>
        <time>2018-12-30T13:58:27Z</time>
      </trkpt>
      <trkpt lat="39.8282280" lon="2.8333960">
        <ele>593.1</ele>
        <time>2018-12-30T13:58:28Z</time>
      </trkpt>
      <trkpt lat="39.8282450" lon="2.8334340">
        <ele>593.0</ele>
        <time>2018-12-30T13:58:29Z</time>
      </trkpt>
      <trkpt lat="39.8282610" lon="2.8334720">
        <ele>592.8</ele>
        <time>2018-12-30T13:58:30Z</time>
      </trkpt>
      <trkpt lat="39.8282780" lon="2.8335110">
        <ele>592.6</ele>
        <time>2018-12-30T13:58:31Z</time>
      </trkpt>
      <trkpt lat="39.8282960" lon="2.8335490">
        <ele>592.3</ele>
        <time>2018-12-30T13:58:32Z</time>
      </trkpt>
      <trkpt lat="39.8283140" lon="2.8335880">
        <ele>592.1</ele>
        <time>2018-12-30T13:58:33Z</time>
      </trkpt>
      <trkpt lat="39.8283310" lon="2.8336290">
        <ele>592.0</ele>
        <time>2018-12-30T13:58:34Z</time>
      </trkpt>
      <trkpt lat="39.8283460" lon="2.8336740">
        <ele>591.8</ele>
        <time>2018-12-30T13:58:35Z</time>
      </trkpt>
      <trkpt lat="39.8283600" lon="2.8337190">
        <ele>591.6</ele>
        <time>2018-12-30T13:58:36Z</time>
      </trkpt>
      <trkpt lat="39.8283720" lon="2.8337660">
        <ele>591.4</ele>
        <time>2018-12-30T13:58:37Z</time>
      </trkpt>
      <trkpt lat="39.8283820" lon="2.8338130">
        <ele>591.2</ele>
        <time>2018-12-30T13:58:38Z</time>
      </trkpt>
      <trkpt lat="39.8283920" lon="2.8338610">
        <ele>591.0</ele>
        <time>2018-12-30T13:58:39Z</time>
      </trkpt>
      <trkpt lat="39.8284010" lon="2.8339090">
        <ele>590.8</ele>
        <time>2018-12-30T13:58:40Z</time>
      </trkpt>
      <trkpt lat="39.8284120" lon="2.8339580">
        <ele>590.6</ele>
        <time>2018-12-30T13:58:41Z</time>
      </trkpt>
      <trkpt lat="39.8284220" lon="2.8340060">
        <ele>590.4</ele>
        <time>2018-12-30T13:58:42Z</time>
      </trkpt>
      <trkpt lat="39.8284310" lon="2.8340550">
        <ele>590.3</ele>
        <time>2018-12-30T13:58:43Z</time>
      </trkpt>
      <trkpt lat="39.8284390" lon="2.8341040">
        <ele>590.1</ele>
        <time>2018-12-30T13:58:44Z</time>
      </trkpt>
      <trkpt lat="39.8284450" lon="2.8341540">
        <ele>589.9</ele>
        <time>2018-12-30T13:58:45Z</time>
      </trkpt>
      <trkpt lat="39.8284500" lon="2.8342040">
        <ele>589.6</ele>
        <time>2018-12-30T13:58:46Z</time>
      </trkpt>
      <trkpt lat="39.8284510" lon="2.8342550">
        <ele>589.3</ele>
        <time>2018-12-30T13:58:47Z</time>
      </trkpt>
      <trkpt lat="39.8284490" lon="2.8343060">
        <ele>589.1</ele>
        <time>2018-12-30T13:58:48Z</time>
      </trkpt>
      <trkpt lat="39.8284430" lon="2.8343580">
        <ele>588.9</ele>
        <time>2018-12-30T13:58:49Z</time>
      </trkpt>
      <trkpt lat="39.8284330" lon="2.8344080">
        <ele>588.7</ele>
        <time>2018-12-30T13:58:50Z</time>
      </trkpt>
      <trkpt lat="39.8284220" lon="2.8344560">
        <ele>588.5</ele>
        <time>2018-12-30T13:58:51Z</time>
      </trkpt>
      <trkpt lat="39.8284140" lon="2.8345030">
        <ele>588.2</ele>
        <time>2018-12-30T13:58:52Z</time>
      </trkpt>
      <trkpt lat="39.8284060" lon="2.8345480">
        <ele>588.0</ele>
        <time>2018-12-30T13:58:53Z</time>
      </trkpt>
      <trkpt lat="39.8284000" lon="2.8345910">
        <ele>587.8</ele>
        <time>2018-12-30T13:58:54Z</time>
      </trkpt>
      <trkpt lat="39.8283920" lon="2.8346330">
        <ele>587.5</ele>
        <time>2018-12-30T13:58:55Z</time>
      </trkpt>
      <trkpt lat="39.8283840" lon="2.8346760">
        <ele>587.2</ele>
        <time>2018-12-30T13:58:56Z</time>
      </trkpt>
      <trkpt lat="39.8283710" lon="2.8347180">
        <ele>586.9</ele>
        <time>2018-12-30T13:58:57Z</time>
      </trkpt>
      <trkpt lat="39.8283590" lon="2.8347610">
        <ele>586.6</ele>
        <time>2018-12-30T13:58:58Z</time>
      </trkpt>
      <trkpt lat="39.8283450" lon="2.8348030">
        <ele>586.1</ele>
        <time>2018-12-30T13:58:59Z</time>
      </trkpt>
      <trkpt lat="39.8283350" lon="2.8348460">
        <ele>585.7</ele>
        <time>2018-12-30T13:59:00Z</time>
      </trkpt>
      <trkpt lat="39.8283210" lon="2.8348890">
        <ele>585.4</ele>
        <time>2018-12-30T13:59:01Z</time>
      </trkpt>
      <trkpt lat="39.8283090" lon="2.8349320">
        <ele>585.1</ele>
        <time>2018-12-30T13:59:02Z</time>
      </trkpt>
      <trkpt lat="39.8282940" lon="2.8349760">
        <ele>584.8</ele>
        <time>2018-12-30T13:59:03Z</time>
      </trkpt>
      <trkpt lat="39.8282780" lon="2.8350220">
        <ele>584.4</ele>
        <time>2018-12-30T13:59:04Z</time>
      </trkpt>
      <trkpt lat="39.8282620" lon="2.8350670">
        <ele>584.1</ele>
        <time>2018-12-30T13:59:05Z</time>
      </trkpt>
      <trkpt lat="39.8282480" lon="2.8351120">
        <ele>583.8</ele>
        <time>2018-12-30T13:59:06Z</time>
      </trkpt>
      <trkpt lat="39.8282360" lon="2.8351550">
        <ele>583.4</ele>
        <time>2018-12-30T13:59:07Z</time>
      </trkpt>
      <trkpt lat="39.8282210" lon="2.8352000">
        <ele>583.1</ele>
        <time>2018-12-30T13:59:08Z</time>
      </trkpt>
      <trkpt lat="39.8282080" lon="2.8352470">
        <ele>582.7</ele>
        <time>2018-12-30T13:59:09Z</time>
      </trkpt>
      <trkpt lat="39.8281950" lon="2.8352970">
        <ele>582.4</ele>
        <time>2018-12-30T13:59:10Z</time>
      </trkpt>
      <trkpt lat="39.8281810" lon="2.8353490">
        <ele>582.0</ele>
        <time>2018-12-30T13:59:11Z</time>
      </trkpt>
      <trkpt lat="39.8281680" lon="2.8354030">
        <ele>581.7</ele>
        <time>2018-12-30T13:59:12Z</time>
      </trkpt>
      <trkpt lat="39.8281540" lon="2.8354550">
        <ele>581.3</ele>
        <time>2018-12-30T13:59:13Z</time>
      </trkpt>
      <trkpt lat="39.8281460" lon="2.8355050">
        <ele>581.0</ele>
        <time>2018-12-30T13:59:14Z</time>
      </trkpt>
      <trkpt lat="39.8281360" lon="2.8355530">
        <ele>580.7</ele>
        <time>2018-12-30T13:59:15Z</time>
      </trkpt>
      <trkpt lat="39.8281270" lon="2.8356000">
        <ele>580.4</ele>
        <time>2018-12-30T13:59:16Z</time>
      </trkpt>
      <trkpt lat="39.8281170" lon="2.8356450">
        <ele>579.9</ele>
        <time>2018-12-30T13:59:17Z</time>
      </trkpt>
      <trkpt lat="39.8281120" lon="2.8356910">
        <ele>579.6</ele>
        <time>2018-12-30T13:59:18Z</time>
      </trkpt>
      <trkpt lat="39.8281060" lon="2.8357360">
        <ele>579.3</ele>
        <time>2018-12-30T13:59:19Z</time>
      </trkpt>
      <trkpt lat="39.8281060" lon="2.8357820">
        <ele>579.1</ele>
        <time>2018-12-30T13:59:20Z</time>
      </trkpt>
      <trkpt lat="39.8281080" lon="2.8358270">
        <ele>578.8</ele>
        <time>2018-12-30T13:59:21Z</time>
      </trkpt>
      <trkpt lat="39.8281110" lon="2.8358730">
        <ele>578.6</ele>
        <time>2018-12-30T13:59:22Z</time>
      </trkpt>
      <trkpt lat="39.8281150" lon="2.8359200">
        <ele>578.3</ele>
        <time>2018-12-30T13:59:23Z</time>
      </trkpt>
      <trkpt lat="39.8281220" lon="2.8359750">
        <ele>577.9</ele>
        <time>2018-12-30T13:59:24Z</time>
      </trkpt>
      <trkpt lat="39.8281340" lon="2.8360280">
        <ele>577.4</ele>
        <time>2018-12-30T13:59:25Z</time>
      </trkpt>
      <trkpt lat="39.8281470" lon="2.8360830">
        <ele>577.0</ele>
        <time>2018-12-30T13:59:26Z</time>
      </trkpt>
      <trkpt lat="39.8281590" lon="2.8361300">
        <ele>576.6</ele>
        <time>2018-12-30T13:59:27Z</time>
      </trkpt>
      <trkpt lat="39.8281700" lon="2.8361770">
        <ele>576.2</ele>
        <time>2018-12-30T13:59:28Z</time>
      </trkpt>
      <trkpt lat="39.8281820" lon="2.8362230">
        <ele>575.9</ele>
        <time>2018-12-30T13:59:29Z</time>
      </trkpt>
      <trkpt lat="39.8281970" lon="2.8362680">
        <ele>575.5</ele>
        <time>2018-12-30T13:59:30Z</time>
      </trkpt>
      <trkpt lat="39.8282170" lon="2.8363120">
        <ele>575.1</ele>
        <time>2018-12-30T13:59:31Z</time>
      </trkpt>
      <trkpt lat="39.8282430" lon="2.8363560">
        <ele>574.6</ele>
        <time>2018-12-30T13:59:32Z</time>
      </trkpt>
      <trkpt lat="39.8282700" lon="2.8364010">
        <ele>574.0</ele>
        <time>2018-12-30T13:59:33Z</time>
      </trkpt>
      <trkpt lat="39.8282950" lon="2.8364480">
        <ele>573.6</ele>
        <time>2018-12-30T13:59:34Z</time>
      </trkpt>
      <trkpt lat="39.8283200" lon="2.8364950">
        <ele>573.3</ele>
        <time>2018-12-30T13:59:35Z</time>
      </trkpt>
      <trkpt lat="39.8283440" lon="2.8365410">
        <ele>572.9</ele>
        <time>2018-12-30T13:59:36Z</time>
      </trkpt>
      <trkpt lat="39.8283680" lon="2.8365860">
        <ele>572.6</ele>
        <time>2018-12-30T13:59:37Z</time>
      </trkpt>
      <trkpt lat="39.8283890" lon="2.8366280">
        <ele>572.2</ele>
        <time>2018-12-30T13:59:38Z</time>
      </trkpt>
      <trkpt lat="39.8284110" lon="2.8366690">
        <ele>571.8</ele>
        <time>2018-12-30T13:59:39Z</time>
      </trkpt>
      <trkpt lat="39.8284320" lon="2.8367080">
        <ele>571.5</ele>
        <time>2018-12-30T13:59:40Z</time>
      </trkpt>
      <trkpt lat="39.8284580" lon="2.8367450">
        <ele>571.2</ele>
        <time>2018-12-30T13:59:41Z</time>
      </trkpt>
      <trkpt lat="39.8284870" lon="2.8367810">
        <ele>570.8</ele>
        <time>2018-12-30T13:59:42Z</time>
      </trkpt>
      <trkpt lat="39.8285160" lon="2.8368180">
        <ele>570.5</ele>
        <time>2018-12-30T13:59:43Z</time>
      </trkpt>
      <trkpt lat="39.8285410" lon="2.8368550">
        <ele>570.2</ele>
        <time>2018-12-30T13:59:44Z</time>
      </trkpt>
      <trkpt lat="39.8285630" lon="2.8368950">
        <ele>569.9</ele>
        <time>2018-12-30T13:59:45Z</time>
      </trkpt>
      <trkpt lat="39.8285810" lon="2.8369360">
        <ele>569.6</ele>
        <time>2018-12-30T13:59:46Z</time>
      </trkpt>
      <trkpt lat="39.8285960" lon="2.8369800">
        <ele>569.3</ele>
        <time>2018-12-30T13:59:47Z</time>
      </trkpt>
      <trkpt lat="39.8286070" lon="2.8370240">
        <ele>569.0</ele>
        <time>2018-12-30T13:59:48Z</time>
      </trkpt>
      <trkpt lat="39.8286170" lon="2.8370700">
        <ele>568.8</ele>
        <time>2018-12-30T13:59:49Z</time>
      </trkpt>
      <trkpt lat="39.8286260" lon="2.8371150">
        <ele>568.5</ele>
        <time>2018-12-30T13:59:50Z</time>
      </trkpt>
      <trkpt lat="39.8286330" lon="2.8371610">
        <ele>568.2</ele>
        <time>2018-12-30T13:59:51Z</time>
      </trkpt>
      <trkpt lat="39.8286380" lon="2.8372080">
        <ele>567.9</ele>
        <time>2018-12-30T13:59:52Z</time>
      </trkpt>
      <trkpt lat="39.8286400" lon="2.8372570">
        <ele>568.0</ele>
        <time>2018-12-30T13:59:53Z</time>
      </trkpt>
      <trkpt lat="39.8286380" lon="2.8373050">
        <ele>568.1</ele>
        <time>2018-12-30T13:59:54Z</time>
      </trkpt>
      <trkpt lat="39.8286320" lon="2.8373530">
        <ele>568.2</ele>
        <time>2018-12-30T13:59:55Z</time>
      </trkpt>
      <trkpt lat="39.8286260" lon="2.8374000">
        <ele>568.2</ele>
        <time>2018-12-30T13:59:56Z</time>
      </trkpt>
      <trkpt lat="39.8286210" lon="2.8374480">
        <ele>568.3</ele>
        <time>2018-12-30T13:59:57Z</time>
      </trkpt>
      <trkpt lat="39.8286130" lon="2.8374980">
        <ele>568.4</ele>
        <time>2018-12-30T13:59:58Z</time>
      </trkpt>
      <trkpt lat="39.8286020" lon="2.8375510">
        <ele>568.6</ele>
        <time>2018-12-30T13:59:59Z</time>
      </trkpt>
      <trkpt lat="39.8285880" lon="2.8376070">
        <ele>568.7</ele>
        <time>2018-12-30T14:00:00Z</time>
      </trkpt>
      <trkpt lat="39.8285720" lon="2.8376660">
        <ele>568.8</ele>
        <time>2018-12-30T14:00:01Z</time>
      </trkpt>
      <trkpt lat="39.8285530" lon="2.8377280">
        <ele>569.0</ele>
        <time>2018-12-30T14:00:02Z</time>
      </trkpt>
      <trkpt lat="39.8285320" lon="2.8377950">
        <ele>569.1</ele>
        <time>2018-12-30T14:00:03Z</time>
      </trkpt>
      <trkpt lat="39.8285100" lon="2.8378650">
        <ele>569.4</ele>
        <time>2018-12-30T14:00:04Z</time>
      </trkpt>
      <trkpt lat="39.8284830" lon="2.8379350">
        <ele>569.7</ele>
        <time>2018-12-30T14:00:05Z</time>
      </trkpt>
      <trkpt lat="39.8284470" lon="2.8380000">
        <ele>569.9</ele>
        <time>2018-12-30T14:00:06Z</time>
      </trkpt>
      <trkpt lat="39.8284010" lon="2.8380560">
        <ele>570.2</ele>
        <time>2018-12-30T14:00:07Z</time>
      </trkpt>
      <trkpt lat="39.8283460" lon="2.8381030">
        <ele>570.5</ele>
        <time>2018-12-30T14:00:08Z</time>
      </trkpt>
      <trkpt lat="39.8282850" lon="2.8381420">
        <ele>570.9</ele>
        <time>2018-12-30T14:00:09Z</time>
      </trkpt>
      <trkpt lat="39.8282220" lon="2.8381790">
        <ele>571.2</ele>
        <time>2018-12-30T14:00:10Z</time>
      </trkpt>
      <trkpt lat="39.8281590" lon="2.8382120">
        <ele>571.6</ele>
        <time>2018-12-30T14:00:11Z</time>
      </trkpt>
      <trkpt lat="39.8280940" lon="2.8382450">
        <ele>571.9</ele>
        <time>2018-12-30T14:00:12Z</time>
      </trkpt>
      <trkpt lat="39.8280260" lon="2.8382760">
        <ele>572.3</ele>
        <time>2018-12-30T14:00:13Z</time>
      </trkpt>
      <trkpt lat="39.8279560" lon="2.8383070">
        <ele>572.7</ele>
        <time>2018-12-30T14:00:14Z</time>
      </trkpt>
      <trkpt lat="39.8278870" lon="2.8383380">
        <ele>573.1</ele>
        <time>2018-12-30T14:00:15Z</time>
      </trkpt>
      <trkpt lat="39.8278180" lon="2.8383720">
        <ele>573.6</ele>
        <time>2018-12-30T14:00:16Z</time>
      </trkpt>
      <trkpt lat="39.8277510" lon="2.8384050">
        <ele>574.1</ele>
        <time>2018-12-30T14:00:17Z</time>
      </trkpt>
      <trkpt lat="39.8276890" lon="2.8384390">
        <ele>574.5</ele>
        <time>2018-12-30T14:00:18Z</time>
      </trkpt>
      <trkpt lat="39.8276340" lon="2.8384710">
        <ele>574.9</ele>
        <time>2018-12-30T14:00:19Z</time>
      </trkpt>
      <trkpt lat="39.8275820" lon="2.8385050">
        <ele>575.3</ele>
        <time>2018-12-30T14:00:20Z</time>
      </trkpt>
      <trkpt lat="39.8275340" lon="2.8385390">
        <ele>575.6</ele>
        <time>2018-12-30T14:00:21Z</time>
      </trkpt>
      <trkpt lat="39.8274860" lon="2.8385730">
        <ele>576.0</ele>
        <time>2018-12-30T14:00:22Z</time>
      </trkpt>
      <trkpt lat="39.8274400" lon="2.8386070">
        <ele>576.4</ele>
        <time>2018-12-30T14:00:23Z</time>
      </trkpt>
      <trkpt lat="39.8273950" lon="2.8386390">
        <ele>576.7</ele>
        <time>2018-12-30T14:00:24Z</time>
      </trkpt>
      <trkpt lat="39.8273500" lon="2.8386710">
        <ele>577.1</ele>
        <time>2018-12-30T14:00:25Z</time>
      </trkpt>
      <trkpt lat="39.8273060" lon="2.8387020">
        <ele>577.5</ele>
        <time>2018-12-30T14:00:26Z</time>
      </trkpt>
      <trkpt lat="39.8272630" lon="2.8387320">
        <ele>577.9</ele>
        <time>2018-12-30T14:00:27Z</time>
      </trkpt>
      <trkpt lat="39.8272200" lon="2.8387600">
        <ele>578.3</ele>
        <time>2018-12-30T14:00:28Z</time>
      </trkpt>
      <trkpt lat="39.8271780" lon="2.8387840">
        <ele>578.7</ele>
        <time>2018-12-30T14:00:29Z</time>
      </trkpt>
      <trkpt lat="39.8271350" lon="2.8388060">
        <ele>579.1</ele>
        <time>2018-12-30T14:00:30Z</time>
      </trkpt>
      <trkpt lat="39.8270910" lon="2.8388240">
        <ele>579.5</ele>
        <time>2018-12-30T14:00:31Z</time>
      </trkpt>
      <trkpt lat="39.8270440" lon="2.8388410">
        <ele>579.9</ele>
        <time>2018-12-30T14:00:32Z</time>
      </trkpt>
      <trkpt lat="39.8269960" lon="2.8388560">
        <ele>580.3</ele>
        <time>2018-12-30T14:00:33Z</time>
      </trkpt>
      <trkpt lat="39.8269450" lon="2.8388710">
        <ele>580.7</ele>
        <time>2018-12-30T14:00:34Z</time>
      </trkpt>
      <trkpt lat="39.8268930" lon="2.8388840">
        <ele>581.2</ele>
        <time>2018-12-30T14:00:35Z</time>
      </trkpt>
      <trkpt lat="39.8268420" lon="2.8388980">
        <ele>581.6</ele>
        <time>2018-12-30T14:00:36Z</time>
      </trkpt>
      <trkpt lat="39.8267910" lon="2.8389080">
        <ele>582.1</ele>
        <time>2018-12-30T14:00:37Z</time>
      </trkpt>
      <trkpt lat="39.8267410" lon="2.8389180">
        <ele>582.5</ele>
        <time>2018-12-30T14:00:38Z</time>
      </trkpt>
      <trkpt lat="39.8266920" lon="2.8389260">
        <ele>583.0</ele>
        <time>2018-12-30T14:00:39Z</time>
      </trkpt>
      <trkpt lat="39.8266420" lon="2.8389370">
        <ele>583.4</ele>
        <time>2018-12-30T14:00:40Z</time>
      </trkpt>
      <trkpt lat="39.8265910" lon="2.8389510">
        <ele>583.9</ele>
        <time>2018-12-30T14:00:41Z</time>
      </trkpt>
      <trkpt lat="39.8265390" lon="2.8389680">
        <ele>584.4</ele>
        <time>2018-12-30T14:00:42Z</time>
      </trkpt>
      <trkpt lat="39.8264870" lon="2.8389840">
        <ele>584.9</ele>
        <time>2018-12-30T14:00:43Z</time>
      </trkpt>
      <trkpt lat="39.8264350" lon="2.8389990">
        <ele>585.3</ele>
        <time>2018-12-30T14:00:44Z</time>
      </trkpt>
      <trkpt lat="39.8263840" lon="2.8390140">
        <ele>585.8</ele>
        <time>2018-12-30T14:00:45Z</time>
      </trkpt>
      <trkpt lat="39.8263340" lon="2.8390270">
        <ele>586.2</ele>
        <time>2018-12-30T14:00:46Z</time>
      </trkpt>
      <trkpt lat="39.8262840" lon="2.8390420">
        <ele>586.7</ele>
        <time>2018-12-30T14:00:47Z</time>
      </trkpt>
      <trkpt lat="39.8262340" lon="2.8390570">
        <ele>587.1</ele>
        <time>2018-12-30T14:00:48Z</time>
      </trkpt>
      <trkpt lat="39.8261860" lon="2.8390720">
        <ele>587.6</ele>
        <time>2018-12-30T14:00:49Z</time>
      </trkpt>
      <trkpt lat="39.8261400" lon="2.8390890">
        <ele>588.1</ele>
        <time>2018-12-30T14:00:50Z</time>
      </trkpt>
      <trkpt lat="39.8260960" lon="2.8391110">
        <ele>588.5</ele>
        <time>2018-12-30T14:00:51Z</time>
      </trkpt>
      <trkpt lat="39.8260540" lon="2.8391380">
        <ele>588.9</ele>
        <time>2018-12-30T14:00:52Z</time>
      </trkpt>
      <trkpt lat="39.8260120" lon="2.8391700">
        <ele>589.4</ele>
        <time>2018-12-30T14:00:53Z</time>
      </trkpt>
      <trkpt lat="39.8259740" lon="2.8392050">
        <ele>589.8</ele>
        <time>2018-12-30T14:00:54Z</time>
      </trkpt>
      <trkpt lat="39.8259410" lon="2.8392430">
        <ele>590.2</ele>
        <time>2018-12-30T14:00:55Z</time>
      </trkpt>
      <trkpt lat="39.8259100" lon="2.8392830">
        <ele>590.6</ele>
        <time>2018-12-30T14:00:56Z</time>
      </trkpt>
      <trkpt lat="39.8258840" lon="2.8393270">
        <ele>591.0</ele>
        <time>2018-12-30T14:00:57Z</time>
      </trkpt>
      <trkpt lat="39.8258620" lon="2.8393740">
        <ele>591.4</ele>
        <time>2018-12-30T14:00:58Z</time>
      </trkpt>
      <trkpt lat="39.8258440" lon="2.8394210">
        <ele>591.8</ele>
        <time>2018-12-30T14:00:59Z</time>
      </trkpt>
      <trkpt lat="39.8258280" lon="2.8394690">
        <ele>592.2</ele>
        <time>2018-12-30T14:01:00Z</time>
      </trkpt>
      <trkpt lat="39.8258170" lon="2.8395180">
        <ele>592.5</ele>
        <time>2018-12-30T14:01:01Z</time>
      </trkpt>
      <trkpt lat="39.8258080" lon="2.8395710">
        <ele>592.9</ele>
        <time>2018-12-30T14:01:02Z</time>
      </trkpt>
      <trkpt lat="39.8258000" lon="2.8396240">
        <ele>593.3</ele>
        <time>2018-12-30T14:01:03Z</time>
      </trkpt>
      <trkpt lat="39.8257920" lon="2.8396760">
        <ele>593.7</ele>
        <time>2018-12-30T14:01:04Z</time>
      </trkpt>
      <trkpt lat="39.8257830" lon="2.8397260">
        <ele>594.0</ele>
        <time>2018-12-30T14:01:05Z</time>
      </trkpt>
      <trkpt lat="39.8257750" lon="2.8397780">
        <ele>594.4</ele>
        <time>2018-12-30T14:01:06Z</time>
      </trkpt>
      <trkpt lat="39.8257670" lon="2.8398280">
        <ele>594.7</ele>
        <time>2018-12-30T14:01:07Z</time>
      </trkpt>
      <trkpt lat="39.8257620" lon="2.8398790">
        <ele>595.1</ele>
        <time>2018-12-30T14:01:08Z</time>
      </trkpt>
      <trkpt lat="39.8257600" lon="2.8399290">
        <ele>595.4</ele>
        <time>2018-12-30T14:01:09Z</time>
      </trkpt>
      <trkpt lat="39.8257610" lon="2.8399830">
        <ele>595.7</ele>
        <time>2018-12-30T14:01:10Z</time>
      </trkpt>
      <trkpt lat="39.8257640" lon="2.8400360">
        <ele>596.1</ele>
        <time>2018-12-30T14:01:11Z</time>
      </trkpt>
      <trkpt lat="39.8257680" lon="2.8400860">
        <ele>596.4</ele>
        <time>2018-12-30T14:01:12Z</time>
      </trkpt>
      <trkpt lat="39.8257720" lon="2.8401360">
        <ele>596.7</ele>
        <time>2018-12-30T14:01:13Z</time>
      </trkpt>
      <trkpt lat="39.8257730" lon="2.8401860">
        <ele>597.0</ele>
        <time>2018-12-30T14:01:14Z</time>
      </trkpt>
      <trkpt lat="39.8257730" lon="2.8402390">
        <ele>597.2</ele>
        <time>2018-12-30T14:01:15Z</time>
      </trkpt>
      <trkpt lat="39.8257720" lon="2.8402910">
        <ele>597.5</ele>
        <time>2018-12-30T14:01:16Z</time>
      </trkpt>
      <trkpt lat="39.8257710" lon="2.8403440">
        <ele>597.8</ele>
        <time>2018-12-30T14:01:17Z</time>
      </trkpt>
      <trkpt lat="39.8257690" lon="2.8403960">
        <ele>598.1</ele>
        <time>2018-12-30T14:01:18Z</time>
      </trkpt>
      <trkpt lat="39.8257670" lon="2.8404480">
        <ele>598.4</ele>
        <time>2018-12-30T14:01:19Z</time>
      </trkpt>
      <trkpt lat="39.8257670" lon="2.8405010">
        <ele>598.6</ele>
        <time>2018-12-30T14:01:20Z</time>
      </trkpt>
      <trkpt lat="39.8257660" lon="2.8405530">
        <ele>598.9</ele>
        <time>2018-12-30T14:01:21Z</time>
      </trkpt>
      <trkpt lat="39.8257660" lon="2.8406110">
        <ele>599.2</ele>
        <time>2018-12-30T14:01:22Z</time>
      </trkpt>
      <trkpt lat="39.8257660" lon="2.8406680">
        <ele>599.5</ele>
        <time>2018-12-30T14:01:23Z</time>
      </trkpt>
      <trkpt lat="39.8257690" lon="2.8407250">
        <ele>599.7</ele>
        <time>2018-12-30T14:01:24Z</time>
      </trkpt>
      <trkpt lat="39.8257740" lon="2.8407820">
        <ele>600.0</ele>
        <time>2018-12-30T14:01:25Z</time>
      </trkpt>
      <trkpt lat="39.8257800" lon="2.8408390">
        <ele>600.2</ele>
        <time>2018-12-30T14:01:26Z</time>
      </trkpt>
      <trkpt lat="39.8257830" lon="2.8408990">
        <ele>600.5</ele>
        <time>2018-12-30T14:01:27Z</time>
      </trkpt>
      <trkpt lat="39.8257840" lon="2.8409560">
        <ele>600.8</ele>
        <time>2018-12-30T14:01:28Z</time>
      </trkpt>
      <trkpt lat="39.8257840" lon="2.8410140">
        <ele>601.0</ele>
        <time>2018-12-30T14:01:29Z</time>
      </trkpt>
      <trkpt lat="39.8257870" lon="2.8410710">
        <ele>601.3</ele>
        <time>2018-12-30T14:01:30Z</time>
      </trkpt>
      <trkpt lat="39.8257930" lon="2.8411280">
        <ele>601.6</ele>
        <time>2018-12-30T14:01:31Z</time>
      </trkpt>
      <trkpt lat="39.8257990" lon="2.8411820">
        <ele>601.8</ele>
        <time>2018-12-30T14:01:32Z</time>
      </trkpt>
      <trkpt lat="39.8258060" lon="2.8412330">
        <ele>602.1</ele>
        <time>2018-12-30T14:01:33Z</time>
      </trkpt>
      <trkpt lat="39.8258130" lon="2.8412830">
        <ele>602.3</ele>
        <time>2018-12-30T14:01:34Z</time>
      </trkpt>
      <trkpt lat="39.8258210" lon="2.8413300">
        <ele>602.6</ele>
        <time>2018-12-30T14:01:35Z</time>
      </trkpt>
      <trkpt lat="39.8258320" lon="2.8413770">
        <ele>602.8</ele>
        <time>2018-12-30T14:01:36Z</time>
      </trkpt>
      <trkpt lat="39.8258430" lon="2.8414210">
        <ele>603.0</ele>
        <time>2018-12-30T14:01:37Z</time>
      </trkpt>
      <trkpt lat="39.8258520" lon="2.8414610">
        <ele>603.2</ele>
        <time>2018-12-30T14:01:38Z</time>
      </trkpt>
      <trkpt lat="39.8258640" lon="2.8414910">
        <ele>603.3</ele>
        <time>2018-12-30T14:01:39Z</time>
      </trkpt>
      <trkpt lat="39.8258850" lon="2.8415090">
        <ele>603.5</ele>
        <time>2018-12-30T14:01:40Z</time>
      </trkpt>
      <trkpt lat="39.8259130" lon="2.8415200">
        <ele>603.6</ele>
        <time>2018-12-30T14:01:41Z</time>
      </trkpt>
      <trkpt lat="39.8259400" lon="2.8415170">
        <ele>603.8</ele>
        <time>2018-12-30T14:01:42Z</time>
      </trkpt>
      <trkpt lat="39.8259670" lon="2.8415070">
        <ele>604.0</ele>
        <time>2018-12-30T14:01:43Z</time>
      </trkpt>
      <trkpt lat="39.8259990" lon="2.8414860">
        <ele>604.2</ele>
        <time>2018-12-30T14:01:44Z</time>
      </trkpt>
      <trkpt lat="39.8260520" lon="2.8414620">
        <ele>604.5</ele>
        <time>2018-12-30T14:01:45Z</time>
      </trkpt>
      <trkpt lat="39.8261160" lon="2.8414340">
        <ele>605.0</ele>
        <time>2018-12-30T14:01:46Z</time>
      </trkpt>
      <trkpt lat="39.8261820" lon="2.8414050">
        <ele>605.4</ele>
        <time>2018-12-30T14:01:47Z</time>
      </trkpt>
      <trkpt lat="39.8262350" lon="2.8413880">
        <ele>605.7</ele>
        <time>2018-12-30T14:01:48Z</time>
      </trkpt>
      <trkpt lat="39.8262810" lon="2.8413900">
        <ele>606.0</ele>
        <time>2018-12-30T14:01:49Z</time>
      </trkpt>
      <trkpt lat="39.8263210" lon="2.8414110">
        <ele>606.2</ele>
        <time>2018-12-30T14:01:50Z</time>
      </trkpt>
      <trkpt lat="39.8263580" lon="2.8414450">
        <ele>606.4</ele>
        <time>2018-12-30T14:01:51Z</time>
      </trkpt>
      <trkpt lat="39.8263880" lon="2.8414850">
        <ele>606.7</ele>
        <time>2018-12-30T14:01:52Z</time>
      </trkpt>
      <trkpt lat="39.8264140" lon="2.8415250">
        <ele>606.9</ele>
        <time>2018-12-30T14:01:53Z</time>
      </trkpt>
      <trkpt lat="39.8264360" lon="2.8415680">
        <ele>607.2</ele>
        <time>2018-12-30T14:01:54Z</time>
      </trkpt>
      <trkpt lat="39.8264550" lon="2.8416130">
        <ele>607.4</ele>
        <time>2018-12-30T14:01:55Z</time>
      </trkpt>
      <trkpt lat="39.8264740" lon="2.8416600">
        <ele>607.6</ele>
        <time>2018-12-30T14:01:56Z</time>
      </trkpt>
      <trkpt lat="39.8264910" lon="2.8417070">
        <ele>607.8</ele>
        <time>2018-12-30T14:01:57Z</time>
      </trkpt>
      <trkpt lat="39.8265080" lon="2.8417560">
        <ele>608.0</ele>
        <time>2018-12-30T14:01:58Z</time>
      </trkpt>
      <trkpt lat="39.8265240" lon="2.8418050">
        <ele>608.2</ele>
        <time>2018-12-30T14:01:59Z</time>
      </trkpt>
      <trkpt lat="39.8265380" lon="2.8418560">
        <ele>608.4</ele>
        <time>2018-12-30T14:02:00Z</time>
      </trkpt>
      <trkpt lat="39.8265480" lon="2.8419080">
        <ele>608.6</ele>
        <time>2018-12-30T14:02:01Z</time>
      </trkpt>
      <trkpt lat="39.8265530" lon="2.8419590">
        <ele>608.8</ele>
        <time>2018-12-30T14:02:02Z</time>
      </trkpt>
      <trkpt lat="39.8265550" lon="2.8420090">
        <ele>609.0</ele>
        <time>2018-12-30T14:02:03Z</time>
      </trkpt>
      <trkpt lat="39.8265560" lon="2.8420580">
        <ele>609.1</ele>
        <time>2018-12-30T14:02:04Z</time>
      </trkpt>
      <trkpt lat="39.8265570" lon="2.8421040">
        <ele>609.3</ele>
        <time>2018-12-30T14:02:05Z</time>
      </trkpt>
      <trkpt lat="39.8265580" lon="2.8421490">
        <ele>609.5</ele>
        <time>2018-12-30T14:02:06Z</time>
      </trkpt>
      <trkpt lat="39.8265580" lon="2.8421950">
        <ele>609.6</ele>
        <time>2018-12-30T14:02:07Z</time>
      </trkpt>
      <trkpt lat="39.8265590" lon="2.8422410">
        <ele>609.8</ele>
        <time>2018-12-30T14:02:08Z</time>
      </trkpt>
      <trkpt lat="39.8265590" lon="2.8422880">
        <ele>610.0</ele>
        <time>2018-12-30T14:02:09Z</time>
      </trkpt>
      <trkpt lat="39.8265600" lon="2.8423400">
        <ele>610.1</ele>
        <time>2018-12-30T14:02:10Z</time>
      </trkpt>
      <trkpt lat="39.8265590" lon="2.8423970">
        <ele>610.3</ele>
        <time>2018-12-30T14:02:11Z</time>
      </trkpt>
      <trkpt lat="39.8265580" lon="2.8424550">
        <ele>610.5</ele>
        <time>2018-12-30T14:02:12Z</time>
      </trkpt>
      <trkpt lat="39.8265550" lon="2.8425120">
        <ele>610.7</ele>
        <time>2018-12-30T14:02:13Z</time>
      </trkpt>
      <trkpt lat="39.8265500" lon="2.8425740">
        <ele>610.9</ele>
        <time>2018-12-30T14:02:14Z</time>
      </trkpt>
      <trkpt lat="39.8265420" lon="2.8426390">
        <ele>611.1</ele>
        <time>2018-12-30T14:02:15Z</time>
      </trkpt>
      <trkpt lat="39.8265360" lon="2.8427070">
        <ele>611.4</ele>
        <time>2018-12-30T14:02:16Z</time>
      </trkpt>
      <trkpt lat="39.8265300" lon="2.8427740">
        <ele>611.6</ele>
        <time>2018-12-30T14:02:17Z</time>
      </trkpt>
      <trkpt lat="39.8265240" lon="2.8428430">
        <ele>611.8</ele>
        <time>2018-12-30T14:02:18Z</time>
      </trkpt>
      <trkpt lat="39.8265160" lon="2.8429100">
        <ele>612.1</ele>
        <time>2018-12-30T14:02:19Z</time>
      </trkpt>
      <trkpt lat="39.8265080" lon="2.8429770">
        <ele>612.3</ele>
        <time>2018-12-30T14:02:20Z</time>
      </trkpt>
      <trkpt lat="39.8265010" lon="2.8430440">
        <ele>612.5</ele>
        <time>2018-12-30T14:02:21Z</time>
      </trkpt>
      <trkpt lat="39.8264940" lon="2.8431080">
        <ele>612.7</ele>
        <time>2018-12-30T14:02:22Z</time>
      </trkpt>
      <trkpt lat="39.8264870" lon="2.8431740">
        <ele>612.9</ele>
        <time>2018-12-30T14:02:23Z</time>
      </trkpt>
      <trkpt lat="39.8264790" lon="2.8432430">
        <ele>613.0</ele>
        <time>2018-12-30T14:02:24Z</time>
      </trkpt>
      <trkpt lat="39.8264720" lon="2.8433170">
        <ele>613.2</ele>
        <time>2018-12-30T14:02:25Z</time>
      </trkpt>
      <trkpt lat="39.8264670" lon="2.8433920">
        <ele>613.4</ele>
        <time>2018-12-30T14:02:26Z</time>
      </trkpt>
      <trkpt lat="39.8264610" lon="2.8434650">
        <ele>613.6</ele>
        <time>2018-12-30T14:02:27Z</time>
      </trkpt>
      <trkpt lat="39.8264550" lon="2.8435420">
        <ele>613.8</ele>
        <time>2018-12-30T14:02:28Z</time>
      </trkpt>
      <trkpt lat="39.8264500" lon="2.8436190">
        <ele>613.9</ele>
        <time>2018-12-30T14:02:29Z</time>
      </trkpt>
      <trkpt lat="39.8264470" lon="2.8436970">
        <ele>614.1</ele>
        <time>2018-12-30T14:02:30Z</time>
      </trkpt>
      <trkpt lat="39.8264430" lon="2.8437710">
        <ele>614.2</ele>
        <time>2018-12-30T14:02:31Z</time>
      </trkpt>
      <trkpt lat="39.8264340" lon="2.8438440">
        <ele>614.3</ele>
        <time>2018-12-30T14:02:32Z</time>
      </trkpt>
      <trkpt lat="39.8264240" lon="2.8439140">
        <ele>614.4</ele>
        <time>2018-12-30T14:02:33Z</time>
      </trkpt>
      <trkpt lat="39.8264150" lon="2.8439820">
        <ele>614.5</ele>
        <time>2018-12-30T14:02:34Z</time>
      </trkpt>
      <trkpt lat="39.8264060" lon="2.8440480">
        <ele>614.6</ele>
        <time>2018-12-30T14:02:35Z</time>
      </trkpt>
      <trkpt lat="39.8263980" lon="2.8441130">
        <ele>614.6</ele>
        <time>2018-12-30T14:02:36Z</time>
      </trkpt>
      <trkpt lat="39.8263900" lon="2.8441800">
        <ele>614.7</ele>
        <time>2018-12-30T14:02:37Z</time>
      </trkpt>
      <trkpt lat="39.8263810" lon="2.8442480">
        <ele>614.8</ele>
        <time>2018-12-30T14:02:38Z</time>
      </trkpt>
      <trkpt lat="39.8263730" lon="2.8443180">
        <ele>614.8</ele>
        <time>2018-12-30T14:02:39Z</time>
      </trkpt>
      <trkpt lat="39.8263630" lon="2.8443950">
        <ele>614.9</ele>
        <time>2018-12-30T14:02:40Z</time>
      </trkpt>
      <trkpt lat="39.8263540" lon="2.8444770">
        <ele>615.0</ele>
        <time>2018-12-30T14:02:41Z</time>
      </trkpt>
      <trkpt lat="39.8263400" lon="2.8445650">
        <ele>615.1</ele>
        <time>2018-12-30T14:02:42Z</time>
      </trkpt>
      <trkpt lat="39.8263250" lon="2.8446500">
        <ele>615.3</ele>
        <time>2018-12-30T14:02:43Z</time>
      </trkpt>
      <trkpt lat="39.8263110" lon="2.8447370">
        <ele>615.4</ele>
        <time>2018-12-30T14:02:44Z</time>
      </trkpt>
      <trkpt lat="39.8262980" lon="2.8448230">
        <ele>615.6</ele>
        <time>2018-12-30T14:02:45Z</time>
      </trkpt>
      <trkpt lat="39.8262880" lon="2.8449090">
        <ele>615.8</ele>
        <time>2018-12-30T14:02:46Z</time>
      </trkpt>
      <trkpt lat="39.8262750" lon="2.8449920">
        <ele>616.0</ele>
        <time>2018-12-30T14:02:47Z</time>
      </trkpt>
      <trkpt lat="39.8262610" lon="2.8450740">
        <ele>616.2</ele>
        <time>2018-12-30T14:02:48Z</time>
      </trkpt>
      <trkpt lat="39.8262440" lon="2.8451580">
        <ele>616.5</ele>
        <time>2018-12-30T14:02:49Z</time>
      </trkpt>
      <trkpt lat="39.8262270" lon="2.8452420">
        <ele>616.8</ele>
        <time>2018-12-30T14:02:50Z</time>
      </trkpt>
      <trkpt lat="39.8262120" lon="2.8453280">
        <ele>617.1</ele>
        <time>2018-12-30T14:02:51Z</time>
      </trkpt>
      <trkpt lat="39.8261930" lon="2.8454160">
        <ele>617.5</ele>
        <time>2018-12-30T14:02:52Z</time>
      </trkpt>
      <trkpt lat="39.8261720" lon="2.8455080">
        <ele>617.9</ele>
        <time>2018-12-30T14:02:53Z</time>
      </trkpt>
      <trkpt lat="39.8261450" lon="2.8456020">
        <ele>618.5</ele>
        <time>2018-12-30T14:02:54Z</time>
      </trkpt>
      <trkpt lat="39.8261240" lon="2.8456930">
        <ele>619.0</ele>
        <time>2018-12-30T14:02:55Z</time>
      </trkpt>
      <trkpt lat="39.8261060" lon="2.8457870">
        <ele>619.5</ele>
        <time>2018-12-30T14:02:56Z</time>
      </trkpt>
      <trkpt lat="39.8260970" lon="2.8458890">
        <ele>620.1</ele>
        <time>2018-12-30T14:02:57Z</time>
      </trkpt>
      <trkpt lat="39.8260900" lon="2.8459980">
        <ele>620.8</ele>
        <time>2018-12-30T14:02:58Z</time>
      </trkpt>
      <trkpt lat="39.8260870" lon="2.8461090">
        <ele>621.6</ele>
        <time>2018-12-30T14:02:59Z</time>
      </trkpt>
      <trkpt lat="39.8260900" lon="2.8462270">
        <ele>622.3</ele>
        <time>2018-12-30T14:03:00Z</time>
      </trkpt>
      <trkpt lat="39.8261020" lon="2.8463420">
        <ele>623.0</ele>
        <time>2018-12-30T14:03:01Z</time>
      </trkpt>
      <trkpt lat="39.8261200" lon="2.8464560">
        <ele>623.7</ele>
        <time>2018-12-30T14:03:02Z</time>
      </trkpt>
      <trkpt lat="39.8261320" lon="2.8465600">
        <ele>624.4</ele>
        <time>2018-12-30T14:03:03Z</time>
      </trkpt>
      <trkpt lat="39.8261410" lon="2.8466590">
        <ele>625.0</ele>
        <time>2018-12-30T14:03:04Z</time>
      </trkpt>
      <trkpt lat="39.8261470" lon="2.8467520">
        <ele>625.6</ele>
        <time>2018-12-30T14:03:05Z</time>
      </trkpt>
      <trkpt lat="39.8261550" lon="2.8468370">
        <ele>626.1</ele>
        <time>2018-12-30T14:03:06Z</time>
      </trkpt>
      <trkpt lat="39.8261600" lon="2.8469160">
        <ele>626.5</ele>
        <time>2018-12-30T14:03:07Z</time>
      </trkpt>
      <trkpt lat="39.8261660" lon="2.8469870">
        <ele>627.0</ele>
        <time>2018-12-30T14:03:08Z</time>
      </trkpt>
      <trkpt lat="39.8261710" lon="2.8470510">
        <ele>628.1</ele>
        <time>2018-12-30T14:03:09Z</time>
      </trkpt>
      <trkpt lat="39.8261750" lon="2.8471080">
        <ele>629.2</ele>
        <time>2018-12-30T14:03:10Z</time>
      </trkpt>
      <trkpt lat="39.8261770" lon="2.8471630">
        <ele>630.3</ele>
        <time>2018-12-30T14:03:11Z</time>
      </trkpt>
      <trkpt lat="39.8261750" lon="2.8472150">
        <ele>631.2</ele>
        <time>2018-12-30T14:03:12Z</time>
      </trkpt>
      <trkpt lat="39.8261690" lon="2.8472650">
        <ele>632.0</ele>
        <time>2018-12-30T14:03:13Z</time>
      </trkpt>
      <trkpt lat="39.8261610" lon="2.8473130">
        <ele>632.8</ele>
        <time>2018-12-30T14:03:14Z</time>
      </trkpt>
      <trkpt lat="39.8261520" lon="2.8473590">
        <ele>633.4</ele>
        <time>2018-12-30T14:03:15Z</time>
      </trkpt>
      <trkpt lat="39.8261410" lon="2.8474040">
        <ele>634.0</ele>
        <time>2018-12-30T14:03:16Z</time>
      </trkpt>
      <trkpt lat="39.8261280" lon="2.8474490">
        <ele>634.5</ele>
        <time>2018-12-30T14:03:17Z</time>
      </trkpt>
      <trkpt lat="39.8261090" lon="2.8474960">
        <ele>635.0</ele>
        <time>2018-12-30T14:03:18Z</time>
      </trkpt>
      <trkpt lat="39.8260880" lon="2.8475430">
        <ele>635.5</ele>
        <time>2018-12-30T14:03:19Z</time>
      </trkpt>
      <trkpt lat="39.8260630" lon="2.8475880">
        <ele>635.9</ele>
        <time>2018-12-30T14:03:20Z</time>
      </trkpt>
      <trkpt lat="39.8260350" lon="2.8476280">
        <ele>636.3</ele>
        <time>2018-12-30T14:03:21Z</time>
      </trkpt>
      <trkpt lat="39.8259990" lon="2.8476630">
        <ele>636.7</ele>
        <time>2018-12-30T14:03:22Z</time>
      </trkpt>
      <trkpt lat="39.8259560" lon="2.8476950">
        <ele>637.1</ele>
        <time>2018-12-30T14:03:23Z</time>
      </trkpt>
      <trkpt lat="39.8259080" lon="2.8477260">
        <ele>637.5</ele>
        <time>2018-12-30T14:03:24Z</time>
      </trkpt>
      <trkpt lat="39.8258600" lon="2.8477540">
        <ele>637.9</ele>
        <time>2018-12-30T14:03:25Z</time>
      </trkpt>
      <trkpt lat="39.8258160" lon="2.8477800">
        <ele>638.2</ele>
        <time>2018-12-30T14:03:26Z</time>
      </trkpt>
      <trkpt lat="39.8257710" lon="2.8478030">
        <ele>638.5</ele>
        <time>2018-12-30T14:03:27Z</time>
      </trkpt>
      <trkpt lat="39.8257290" lon="2.8478320">
        <ele>638.8</ele>
        <time>2018-12-30T14:03:28Z</time>
      </trkpt>
      <trkpt lat="39.8256880" lon="2.8478680">
        <ele>639.1</ele>
        <time>2018-12-30T14:03:29Z</time>
      </trkpt>
      <trkpt lat="39.8256500" lon="2.8479140">
        <ele>639.4</ele>
        <time>2018-12-30T14:03:30Z</time>
      </trkpt>
      <trkpt lat="39.8256090" lon="2.8479650">
        <ele>639.7</ele>
        <time>2018-12-30T14:03:31Z</time>
      </trkpt>
      <trkpt lat="39.8255690" lon="2.8480180">
        <ele>640.1</ele>
        <time>2018-12-30T14:03:32Z</time>
      </trkpt>
      <trkpt lat="39.8255300" lon="2.8480730">
        <ele>640.4</ele>
        <time>2018-12-30T14:03:33Z</time>
      </trkpt>
      <trkpt lat="39.8254920" lon="2.8481300">
        <ele>640.8</ele>
        <time>2018-12-30T14:03:34Z</time>
      </trkpt>
      <trkpt lat="39.8254560" lon="2.8481930">
        <ele>641.2</ele>
        <time>2018-12-30T14:03:35Z</time>
      </trkpt>
      <trkpt lat="39.8254240" lon="2.8482610">
        <ele>641.7</ele>
        <time>2018-12-30T14:03:36Z</time>
      </trkpt>
      <trkpt lat="39.8253930" lon="2.8483250">
        <ele>642.1</ele>
        <time>2018-12-30T14:03:37Z</time>
      </trkpt>
      <trkpt lat="39.8253650" lon="2.8483850">
        <ele>642.5</ele>
        <time>2018-12-30T14:03:38Z</time>
      </trkpt>
      <trkpt lat="39.8253360" lon="2.8484450">
        <ele>643.0</ele>
        <time>2018-12-30T14:03:39Z</time>
      </trkpt>
      <trkpt lat="39.8253120" lon="2.8485100">
        <ele>643.4</ele>
        <time>2018-12-30T14:03:40Z</time>
      </trkpt>
      <trkpt lat="39.8252880" lon="2.8485810">
        <ele>643.8</ele>
        <time>2018-12-30T14:03:41Z</time>
      </trkpt>
      <trkpt lat="39.8252650" lon="2.8486560">
        <ele>644.2</ele>
        <time>2018-12-30T14:03:42Z</time>
      </trkpt>
      <trkpt lat="39.8252430" lon="2.8487290">
        <ele>644.6</ele>
        <time>2018-12-30T14:03:43Z</time>
      </trkpt>
      <trkpt lat="39.8252210" lon="2.8488000">
        <ele>644.9</ele>
        <time>2018-12-30T14:03:44Z</time>
      </trkpt>
      <trkpt lat="39.8251990" lon="2.8488680">
        <ele>645.3</ele>
        <time>2018-12-30T14:03:45Z</time>
      </trkpt>
      <trkpt lat="39.8251790" lon="2.8489340">
        <ele>645.7</ele>
        <time>2018-12-30T14:03:46Z</time>
      </trkpt>
      <trkpt lat="39.8251540" lon="2.8490040">
        <ele>646.1</ele>
        <time>2018-12-30T14:03:47Z</time>
      </trkpt>
      <trkpt lat="39.8251280" lon="2.8490750">
        <ele>646.5</ele>
        <time>2018-12-30T14:03:48Z</time>
      </trkpt>
      <trkpt lat="39.8250980" lon="2.8491460">
        <ele>647.0</ele>
        <time>2018-12-30T14:03:49Z</time>
      </trkpt>
      <trkpt lat="39.8250700" lon="2.8492150">
        <ele>647.4</ele>
        <time>2018-12-30T14:03:50Z</time>
      </trkpt>
      <trkpt lat="39.8250420" lon="2.8492900">
        <ele>647.8</ele>
        <time>2018-12-30T14:03:51Z</time>
      </trkpt>
      <trkpt lat="39.8250120" lon="2.8493720">
        <ele>648.2</ele>
        <time>2018-12-30T14:03:52Z</time>
      </trkpt>
      <trkpt lat="39.8249840" lon="2.8494560">
        <ele>648.6</ele>
        <time>2018-12-30T14:03:53Z</time>
      </trkpt>
      <trkpt lat="39.8249660" lon="2.8495370">
        <ele>648.3</ele>
        <time>2018-12-30T14:03:54Z</time>
      </trkpt>
      <trkpt lat="39.8249520" lon="2.8496130">
        <ele>648.2</ele>
        <time>2018-12-30T14:03:55Z</time>
      </trkpt>
      <trkpt lat="39.8249410" lon="2.8496940">
        <ele>648.2</ele>
        <time>2018-12-30T14:03:56Z</time>
      </trkpt>
      <trkpt lat="39.8249290" lon="2.8497760">
        <ele>648.3</ele>
        <time>2018-12-30T14:03:57Z</time>
      </trkpt>
      <trkpt lat="39.8249160" lon="2.8498570">
        <ele>648.5</ele>
        <time>2018-12-30T14:03:58Z</time>
      </trkpt>
      <trkpt lat="39.8249040" lon="2.8499270">
        <ele>648.7</ele>
        <time>2018-12-30T14:03:59Z</time>
      </trkpt>
      <trkpt lat="39.8248880" lon="2.8499940">
        <ele>649.0</ele>
        <time>2018-12-30T14:04:00Z</time>
      </trkpt>
      <trkpt lat="39.8248700" lon="2.8500570">
        <ele>649.3</ele>
        <time>2018-12-30T14:04:01Z</time>
      </trkpt>
      <trkpt lat="39.8248480" lon="2.8501170">
        <ele>649.6</ele>
        <time>2018-12-30T14:04:02Z</time>
      </trkpt>
      <trkpt lat="39.8248220" lon="2.8501740">
        <ele>649.8</ele>
        <time>2018-12-30T14:04:03Z</time>
      </trkpt>
      <trkpt lat="39.8247940" lon="2.8502270">
        <ele>650.1</ele>
        <time>2018-12-30T14:04:04Z</time>
      </trkpt>
      <trkpt lat="39.8247630" lon="2.8502780">
        <ele>650.2</ele>
        <time>2018-12-30T14:04:05Z</time>
      </trkpt>
      <trkpt lat="39.8247350" lon="2.8503270">
        <ele>650.3</ele>
        <time>2018-12-30T14:04:06Z</time>
      </trkpt>
      <trkpt lat="39.8247080" lon="2.8503760">
        <ele>650.3</ele>
        <time>2018-12-30T14:04:07Z</time>
      </trkpt>
      <trkpt lat="39.8246810" lon="2.8504300">
        <ele>650.2</ele>
        <time>2018-12-30T14:04:08Z</time>
      </trkpt>
      <trkpt lat="39.8246480" lon="2.8504900">
        <ele>650.1</ele>
        <time>2018-12-30T14:04:09Z</time>
      </trkpt>
      <trkpt lat="39.8246090" lon="2.8505580">
        <ele>649.9</ele>
        <time>2018-12-30T14:04:10Z</time>
      </trkpt>
      <trkpt lat="39.8245640" lon="2.8506300">
        <ele>649.5</ele>
        <time>2018-12-30T14:04:11Z</time>
      </trkpt>
      <trkpt lat="39.8245200" lon="2.8507000">
        <ele>649.0</ele>
        <time>2018-12-30T14:04:12Z</time>
      </trkpt>
      <trkpt lat="39.8244760" lon="2.8507680">
        <ele>648.6</ele>
        <time>2018-12-30T14:04:13Z</time>
      </trkpt>
      <trkpt lat="39.8244330" lon="2.8508320">
        <ele>648.1</ele>
        <time>2018-12-30T14:04:14Z</time>
      </trkpt>
      <trkpt lat="39.8243650" lon="2.8509020">
        <ele>647.4</ele>
        <time>2018-12-30T14:04:15Z</time>
      </trkpt>
      <trkpt lat="39.8242820" lon="2.8509900">
        <ele>646.5</ele>
        <time>2018-12-30T14:04:16Z</time>
      </trkpt>
      <trkpt lat="39.8241940" lon="2.8510820">
        <ele>645.5</ele>
        <time>2018-12-30T14:04:17Z</time>
      </trkpt>
      <trkpt lat="39.8241250" lon="2.8511770">
        <ele>644.8</ele>
        <time>2018-12-30T14:04:18Z</time>
      </trkpt>
      <trkpt lat="39.8240660" lon="2.8512570">
        <ele>644.2</ele>
        <time>2018-12-30T14:04:19Z</time>
      </trkpt>
      <trkpt lat="39.8240020" lon="2.8513330">
        <ele>643.7</ele>
        <time>2018-12-30T14:04:20Z</time>
      </trkpt>
      <trkpt lat="39.8239340" lon="2.8514020">
        <ele>643.3</ele>
        <time>2018-12-30T14:04:21Z</time>
      </trkpt>
      <trkpt lat="39.8238600" lon="2.8514630">
        <ele>643.0</ele>
        <time>2018-12-30T14:04:22Z</time>
      </trkpt>
      <trkpt lat="39.8237860" lon="2.8515190">
        <ele>642.7</ele>
        <time>2018-12-30T14:04:23Z</time>
      </trkpt>
      <trkpt lat="39.8237120" lon="2.8515700">
        <ele>642.4</ele>
        <time>2018-12-30T14:04:24Z</time>
      </trkpt>
      <trkpt lat="39.8236440" lon="2.8516220">
        <ele>642.2</ele>
        <time>2018-12-30T14:04:25Z</time>
      </trkpt>
      <trkpt lat="39.8235820" lon="2.8516770">
        <ele>642.1</ele>
        <time>2018-12-30T14:04:26Z</time>
      </trkpt>
      <trkpt lat="39.8235190" lon="2.8517420">
        <ele>642.0</ele>
        <time>2018-12-30T14:04:27Z</time>
      </trkpt>
      <trkpt lat="39.8234490" lon="2.8518150">
        <ele>641.9</ele>
        <time>2018-12-30T14:04:28Z</time>
      </trkpt>
      <trkpt lat="39.8233780" lon="2.8518950">
        <ele>641.9</ele>
        <time>2018-12-30T14:04:29Z</time>
      </trkpt>
      <trkpt lat="39.8233100" lon="2.8519810">
        <ele>641.7</ele>
        <time>2018-12-30T14:04:30Z</time>
      </trkpt>
      <trkpt lat="39.8232700" lon="2.8520900">
        <ele>641.4</ele>
        <time>2018-12-30T14:04:31Z</time>
      </trkpt>
      <trkpt lat="39.8232420" lon="2.8522050">
        <ele>640.8</ele>
        <time>2018-12-30T14:04:32Z</time>
      </trkpt>
      <trkpt lat="39.8232250" lon="2.8523200">
        <ele>640.2</ele>
        <time>2018-12-30T14:04:33Z</time>
      </trkpt>
      <trkpt lat="39.8231930" lon="2.8524190">
        <ele>639.6</ele>
        <time>2018-12-30T14:04:34Z</time>
      </trkpt>
      <trkpt lat="39.8231580" lon="2.8525210">
        <ele>639.2</ele>
        <time>2018-12-30T14:04:35Z</time>
      </trkpt>
      <trkpt lat="39.8231210" lon="2.8526270">
        <ele>638.8</ele>
        <time>2018-12-30T14:04:36Z</time>
      </trkpt>
      <trkpt lat="39.8230830" lon="2.8527320">
        <ele>638.4</ele>
        <time>2018-12-30T14:04:37Z</time>
      </trkpt>
      <trkpt lat="39.8230460" lon="2.8528350">
        <ele>638.0</ele>
        <time>2018-12-30T14:04:38Z</time>
      </trkpt>
      <trkpt lat="39.8230060" lon="2.8529340">
        <ele>637.4</ele>
        <time>2018-12-30T14:04:39Z</time>
      </trkpt>
      <trkpt lat="39.8229620" lon="2.8530320">
        <ele>636.8</ele>
        <time>2018-12-30T14:04:40Z</time>
      </trkpt>
      <trkpt lat="39.8229110" lon="2.8531240">
        <ele>636.2</ele>
        <time>2018-12-30T14:04:41Z</time>
      </trkpt>
      <trkpt lat="39.8228590" lon="2.8532110">
        <ele>635.7</ele>
        <time>2018-12-30T14:04:42Z</time>
      </trkpt>
      <trkpt lat="39.8228080" lon="2.8532970">
        <ele>635.5</ele>
        <time>2018-12-30T14:04:43Z</time>
      </trkpt>
      <trkpt lat="39.8227590" lon="2.8533800">
        <ele>635.4</ele>
        <time>2018-12-30T14:04:44Z</time>
      </trkpt>
      <trkpt lat="39.8227100" lon="2.8534600">
        <ele>635.4</ele>
        <time>2018-12-30T14:04:45Z</time>
      </trkpt>
      <trkpt lat="39.8226630" lon="2.8535350">
        <ele>635.4</ele>
        <time>2018-12-30T14:04:46Z</time>
      </trkpt>
      <trkpt lat="39.8226180" lon="2.8536040">
        <ele>635.4</ele>
        <time>2018-12-30T14:04:47Z</time>
      </trkpt>
      <trkpt lat="39.8225790" lon="2.8536750">
        <ele>635.5</ele>
        <time>2018-12-30T14:04:48Z</time>
      </trkpt>
      <trkpt lat="39.8225570" lon="2.8537670">
        <ele>635.5</ele>
        <time>2018-12-30T14:04:49Z</time>
      </trkpt>
      <trkpt lat="39.8225480" lon="2.8538760">
        <ele>635.6</ele>
        <time>2018-12-30T14:04:50Z</time>
      </trkpt>
      <trkpt lat="39.8225430" lon="2.8539930">
        <ele>635.8</ele>
        <time>2018-12-30T14:04:51Z</time>
      </trkpt>
      <trkpt lat="39.8225320" lon="2.8540970">
        <ele>636.2</ele>
        <time>2018-12-30T14:04:52Z</time>
      </trkpt>
      <trkpt lat="39.8225190" lon="2.8541900">
        <ele>636.7</ele>
        <time>2018-12-30T14:04:53Z</time>
      </trkpt>
      <trkpt lat="39.8225190" lon="2.8542730">
        <ele>637.2</ele>
        <time>2018-12-30T14:04:54Z</time>
      </trkpt>
      <trkpt lat="39.8225230" lon="2.8543460">
        <ele>637.6</ele>
        <time>2018-12-30T14:04:55Z</time>
      </trkpt>
      <trkpt lat="39.8225320" lon="2.8544160">
        <ele>637.9</ele>
        <time>2018-12-30T14:04:56Z</time>
      </trkpt>
      <trkpt lat="39.8225330" lon="2.8544840">
        <ele>638.2</ele>
        <time>2018-12-30T14:04:57Z</time>
      </trkpt>
      <trkpt lat="39.8225300" lon="2.8545510">
        <ele>638.5</ele>
        <time>2018-12-30T14:04:58Z</time>
      </trkpt>
      <trkpt lat="39.8225260" lon="2.8546150">
        <ele>638.7</ele>
        <time>2018-12-30T14:04:59Z</time>
      </trkpt>
      <trkpt lat="39.8225210" lon="2.8546750">
        <ele>638.8</ele>
        <time>2018-12-30T14:05:00Z</time>
      </trkpt>
      <trkpt lat="39.8225140" lon="2.8547340">
        <ele>638.9</ele>
        <time>2018-12-30T14:05:01Z</time>
      </trkpt>
      <trkpt lat="39.8225050" lon="2.8547930">
        <ele>639.0</ele>
        <time>2018-12-30T14:05:02Z</time>
      </trkpt>
      <trkpt lat="39.8224940" lon="2.8548590">
        <ele>639.0</ele>
        <time>2018-12-30T14:05:03Z</time>
      </trkpt>
      <trkpt lat="39.8224810" lon="2.8549330">
        <ele>638.9</ele>
        <time>2018-12-30T14:05:04Z</time>
      </trkpt>
      <trkpt lat="39.8224650" lon="2.8550130">
        <ele>638.7</ele>
        <time>2018-12-30T14:05:05Z</time>
      </trkpt>
      <trkpt lat="39.8224480" lon="2.8550910">
        <ele>638.4</ele>
        <time>2018-12-30T14:05:06Z</time>
      </trkpt>
      <trkpt lat="39.8224300" lon="2.8551680">
        <ele>638.1</ele>
        <time>2018-12-30T14:05:07Z</time>
      </trkpt>
      <trkpt lat="39.8224120" lon="2.8552470">
        <ele>637.8</ele>
        <time>2018-12-30T14:05:08Z</time>
      </trkpt>
      <trkpt lat="39.8223960" lon="2.8553250">
        <ele>637.5</ele>
        <time>2018-12-30T14:05:09Z</time>
      </trkpt>
      <trkpt lat="39.8223880" lon="2.8554020">
        <ele>637.3</ele>
        <time>2018-12-30T14:05:10Z</time>
      </trkpt>
      <trkpt lat="39.8223860" lon="2.8554780">
        <ele>637.2</ele>
        <time>2018-12-30T14:05:11Z</time>
      </trkpt>
      <trkpt lat="39.8223870" lon="2.8555610">
        <ele>637.1</ele>
        <time>2018-12-30T14:05:12Z</time>
      </trkpt>
      <trkpt lat="39.8223850" lon="2.8556470">
        <ele>637.2</ele>
        <time>2018-12-30T14:05:13Z</time>
      </trkpt>
      <trkpt lat="39.8223830" lon="2.8557310">
        <ele>637.5</ele>
        <time>2018-12-30T14:05:14Z</time>
      </trkpt>
      <trkpt lat="39.8223820" lon="2.8558050">
        <ele>637.8</ele>
        <time>2018-12-30T14:05:15Z</time>
      </trkpt>
      <trkpt lat="39.8223910" lon="2.8558700">
        <ele>638.3</ele>
        <time>2018-12-30T14:05:16Z</time>
      </trkpt>
      <trkpt lat="39.8224340" lon="2.8559260">
        <ele>638.9</ele>
        <time>2018-12-30T14:05:17Z</time>
      </trkpt>
      <trkpt lat="39.8224940" lon="2.8559740">
        <ele>639.7</ele>
        <time>2018-12-30T14:05:18Z</time>
      </trkpt>
      <trkpt lat="39.8225610" lon="2.8560110">
        <ele>640.3</ele>
        <time>2018-12-30T14:05:19Z</time>
      </trkpt>
      <trkpt lat="39.8226200" lon="2.8560390">
        <ele>640.8</ele>
        <time>2018-12-30T14:05:20Z</time>
      </trkpt>
      <trkpt lat="39.8226820" lon="2.8560620">
        <ele>641.3</ele>
        <time>2018-12-30T14:05:21Z</time>
      </trkpt>
      <trkpt lat="39.8227420" lon="2.8560830">
        <ele>641.6</ele>
        <time>2018-12-30T14:05:22Z</time>
      </trkpt>
      <trkpt lat="39.8227890" lon="2.8561030">
        <ele>641.8</ele>
        <time>2018-12-30T14:05:23Z</time>
      </trkpt>
      <trkpt lat="39.8228330" lon="2.8561200">
        <ele>642.1</ele>
        <time>2018-12-30T14:05:24Z</time>
      </trkpt>
      <trkpt lat="39.8228780" lon="2.8561370">
        <ele>642.4</ele>
        <time>2018-12-30T14:05:25Z</time>
      </trkpt>
      <trkpt lat="39.8229240" lon="2.8561530">
        <ele>642.8</ele>
        <time>2018-12-30T14:05:26Z</time>
      </trkpt>
      <trkpt lat="39.8229700" lon="2.8561670">
        <ele>643.3</ele>
        <time>2018-12-30T14:05:27Z</time>
      </trkpt>
      <trkpt lat="39.8230140" lon="2.8561820">
        <ele>643.9</ele>
        <time>2018-12-30T14:05:28Z</time>
      </trkpt>
      <trkpt lat="39.8230580" lon="2.8561980">
        <ele>644.6</ele>
        <time>2018-12-30T14:05:29Z</time>
      </trkpt>
      <trkpt lat="39.8231020" lon="2.8562140">
        <ele>645.3</ele>
        <time>2018-12-30T14:05:30Z</time>
      </trkpt>
      <trkpt lat="39.8231440" lon="2.8562310">
        <ele>646.0</ele>
        <time>2018-12-30T14:05:31Z</time>
      </trkpt>
      <trkpt lat="39.8231840" lon="2.8562470">
        <ele>646.7</ele>
        <time>2018-12-30T14:05:32Z</time>
      </trkpt>
      <trkpt lat="39.8232210" lon="2.8562620">
        <ele>647.3</ele>
        <time>2018-12-30T14:05:33Z</time>
      </trkpt>
      <trkpt lat="39.8232600" lon="2.8562770">
        <ele>648.0</ele>
        <time>2018-12-30T14:05:34Z</time>
      </trkpt>
      <trkpt lat="39.8233000" lon="2.8562940">
        <ele>648.7</ele>
        <time>2018-12-30T14:05:35Z</time>
      </trkpt>
      <trkpt lat="39.8233450" lon="2.8563110">
        <ele>649.5</ele>
        <time>2018-12-30T14:05:36Z</time>
      </trkpt>
      <trkpt lat="39.8233890" lon="2.8563270">
        <ele>650.2</ele>
        <time>2018-12-30T14:05:37Z</time>
      </trkpt>
      <trkpt lat="39.8234330" lon="2.8563410">
        <ele>650.8</ele>
        <time>2018-12-30T14:05:38Z</time>
      </trkpt>
      <trkpt lat="39.8234730" lon="2.8563560">
        <ele>651.2</ele>
        <time>2018-12-30T14:05:39Z</time>
      </trkpt>
      <trkpt lat="39.8235100" lon="2.8563720">
        <ele>651.6</ele>
        <time>2018-12-30T14:05:40Z</time>
      </trkpt>
      <trkpt lat="39.8235440" lon="2.8563920">
        <ele>651.8</ele>
        <time>2018-12-30T14:05:41Z</time>
      </trkpt>
      <trkpt lat="39.8235750" lon="2.8564110">
        <ele>652.0</ele>
        <time>2018-12-30T14:05:42Z</time>
      </trkpt>
      <trkpt lat="39.8236100" lon="2.8564370">
        <ele>652.1</ele>
        <time>2018-12-30T14:05:43Z</time>
      </trkpt>
      <trkpt lat="39.8236470" lon="2.8564690">
        <ele>652.3</ele>
        <time>2018-12-30T14:05:44Z</time>
      </trkpt>
      <trkpt lat="39.8236860" lon="2.8565060">
        <ele>652.4</ele>
        <time>2018-12-30T14:05:45Z</time>
      </trkpt>
      <trkpt lat="39.8237180" lon="2.8565450">
        <ele>652.4</ele>
        <time>2018-12-30T14:05:46Z</time>
      </trkpt>
      <trkpt lat="39.8237460" lon="2.8565850">
        <ele>652.5</ele>
        <time>2018-12-30T14:05:47Z</time>
      </trkpt>
      <trkpt lat="39.8237720" lon="2.8566270">
        <ele>652.6</ele>
        <time>2018-12-30T14:05:48Z</time>
      </trkpt>
      <trkpt lat="39.8237990" lon="2.8566720">
        <ele>652.7</ele>
        <time>2018-12-30T14:05:49Z</time>
      </trkpt>
      <trkpt lat="39.8238270" lon="2.8567180">
        <ele>652.8</ele>
        <time>2018-12-30T14:05:50Z</time>
      </trkpt>
      <trkpt lat="39.8238530" lon="2.8567660">
        <ele>652.8</ele>
        <time>2018-12-30T14:05:51Z</time>
      </trkpt>
      <trkpt lat="39.8238750" lon="2.8568160">
        <ele>652.9</ele>
        <time>2018-12-30T14:05:52Z</time>
      </trkpt>
      <trkpt lat="39.8238970" lon="2.8568660">
        <ele>652.9</ele>
        <time>2018-12-30T14:05:53Z</time>
      </trkpt>
      <trkpt lat="39.8239200" lon="2.8569190">
        <ele>652.8</ele>
        <time>2018-12-30T14:05:54Z</time>
      </trkpt>
      <trkpt lat="39.8239460" lon="2.8569730">
        <ele>652.8</ele>
        <time>2018-12-30T14:05:55Z</time>
      </trkpt>
      <trkpt lat="39.8239720" lon="2.8570300">
        <ele>652.8</ele>
        <time>2018-12-30T14:05:56Z</time>
      </trkpt>
      <trkpt lat="39.8239980" lon="2.8570880">
        <ele>652.8</ele>
        <time>2018-12-30T14:05:57Z</time>
      </trkpt>
      <trkpt lat="39.8240220" lon="2.8571480">
        <ele>652.7</ele>
        <time>2018-12-30T14:05:58Z</time>
      </trkpt>
      <trkpt lat="39.8240430" lon="2.8572090">
        <ele>652.7</ele>
        <time>2018-12-30T14:05:59Z</time>
      </trkpt>
      <trkpt lat="39.8240630" lon="2.8572720">
        <ele>652.7</ele>
        <time>2018-12-30T14:06:00Z</time>
      </trkpt>
      <trkpt lat="39.8240840" lon="2.8573360">
        <ele>652.6</ele>
        <time>2018-12-30T14:06:01Z</time>
      </trkpt>
      <trkpt lat="39.8241050" lon="2.8574040">
        <ele>652.5</ele>
        <time>2018-12-30T14:06:02Z</time>
      </trkpt>
      <trkpt lat="39.8241200" lon="2.8574760">
        <ele>652.4</ele>
        <time>2018-12-30T14:06:03Z</time>
      </trkpt>
      <trkpt lat="39.8241300" lon="2.8575500">
        <ele>652.3</ele>
        <time>2018-12-30T14:06:04Z</time>
      </trkpt>
      <trkpt lat="39.8241350" lon="2.8576240">
        <ele>652.1</ele>
        <time>2018-12-30T14:06:05Z</time>
      </trkpt>
      <trkpt lat="39.8241410" lon="2.8576990">
        <ele>652.1</ele>
        <time>2018-12-30T14:06:06Z</time>
      </trkpt>
      <trkpt lat="39.8241560" lon="2.8577730">
        <ele>652.0</ele>
        <time>2018-12-30T14:06:07Z</time>
      </trkpt>
      <trkpt lat="39.8241770" lon="2.8578460">
        <ele>651.9</ele>
        <time>2018-12-30T14:06:08Z</time>
      </trkpt>
      <trkpt lat="39.8242040" lon="2.8579160">
        <ele>651.9</ele>
        <time>2018-12-30T14:06:09Z</time>
      </trkpt>
      <trkpt lat="39.8242310" lon="2.8579830">
        <ele>652.0</ele>
        <time>2018-12-30T14:06:10Z</time>
      </trkpt>
      <trkpt lat="39.8242620" lon="2.8580490">
        <ele>652.1</ele>
        <time>2018-12-30T14:06:11Z</time>
      </trkpt>
      <trkpt lat="39.8242920" lon="2.8581120">
        <ele>652.3</ele>
        <time>2018-12-30T14:06:12Z</time>
      </trkpt>
      <trkpt lat="39.8243210" lon="2.8581750">
        <ele>652.5</ele>
        <time>2018-12-30T14:06:13Z</time>
      </trkpt>
      <trkpt lat="39.8243550" lon="2.8582380">
        <ele>652.9</ele>
        <time>2018-12-30T14:06:14Z</time>
      </trkpt>
      <trkpt lat="39.8243890" lon="2.8583010">
        <ele>653.2</ele>
        <time>2018-12-30T14:06:15Z</time>
      </trkpt>
      <trkpt lat="39.8244190" lon="2.8583630">
        <ele>653.6</ele>
        <time>2018-12-30T14:06:16Z</time>
      </trkpt>
      <trkpt lat="39.8244400" lon="2.8584250">
        <ele>654.0</ele>
        <time>2018-12-30T14:06:17Z</time>
      </trkpt>
      <trkpt lat="39.8244620" lon="2.8584860">
        <ele>654.4</ele>
        <time>2018-12-30T14:06:18Z</time>
      </trkpt>
      <trkpt lat="39.8244870" lon="2.8585460">
        <ele>654.8</ele>
        <time>2018-12-30T14:06:19Z</time>
      </trkpt>
      <trkpt lat="39.8245140" lon="2.8586060">
        <ele>655.2</ele>
        <time>2018-12-30T14:06:20Z</time>
      </trkpt>
      <trkpt lat="39.8245440" lon="2.8586650">
        <ele>655.5</ele>
        <time>2018-12-30T14:06:21Z</time>
      </trkpt>
      <trkpt lat="39.8245760" lon="2.8587240">
        <ele>655.8</ele>
        <time>2018-12-30T14:06:22Z</time>
      </trkpt>
      <trkpt lat="39.8246120" lon="2.8587860">
        <ele>656.2</ele>
        <time>2018-12-30T14:06:23Z</time>
      </trkpt>
      <trkpt lat="39.8246470" lon="2.8588510">
        <ele>656.4</ele>
        <time>2018-12-30T14:06:24Z</time>
      </trkpt>
      <trkpt lat="39.8246780" lon="2.8589180">
        <ele>656.7</ele>
        <time>2018-12-30T14:06:25Z</time>
      </trkpt>
      <trkpt lat="39.8246970" lon="2.8589910">
        <ele>656.9</ele>
        <time>2018-12-30T14:06:26Z</time>
      </trkpt>
      <trkpt lat="39.8247090" lon="2.8590670">
        <ele>657.0</ele>
        <time>2018-12-30T14:06:27Z</time>
      </trkpt>
      <trkpt lat="39.8247090" lon="2.8591430">
        <ele>657.0</ele>
        <time>2018-12-30T14:06:28Z</time>
      </trkpt>
      <trkpt lat="39.8247040" lon="2.8592160">
        <ele>657.0</ele>
        <time>2018-12-30T14:06:29Z</time>
      </trkpt>
      <trkpt lat="39.8246880" lon="2.8592860">
        <ele>656.9</ele>
        <time>2018-12-30T14:06:30Z</time>
      </trkpt>
      <trkpt lat="39.8246700" lon="2.8593570">
        <ele>656.8</ele>
        <time>2018-12-30T14:06:31Z</time>
      </trkpt>
      <trkpt lat="39.8246450" lon="2.8594270">
        <ele>656.5</ele>
        <time>2018-12-30T14:06:32Z</time>
      </trkpt>
      <trkpt lat="39.8246190" lon="2.8594980">
        <ele>656.3</ele>
        <time>2018-12-30T14:06:33Z</time>
      </trkpt>
      <trkpt lat="39.8245910" lon="2.8595690">
        <ele>656.1</ele>
        <time>2018-12-30T14:06:34Z</time>
      </trkpt>
      <trkpt lat="39.8245640" lon="2.8596410">
        <ele>656.0</ele>
        <time>2018-12-30T14:06:35Z</time>
      </trkpt>
      <trkpt lat="39.8245370" lon="2.8597140">
        <ele>655.9</ele>
        <time>2018-12-30T14:06:36Z</time>
      </trkpt>
      <trkpt lat="39.8245100" lon="2.8597870">
        <ele>655.8</ele>
        <time>2018-12-30T14:06:37Z</time>
      </trkpt>
      <trkpt lat="39.8244810" lon="2.8598600">
        <ele>655.8</ele>
        <time>2018-12-30T14:06:38Z</time>
      </trkpt>
      <trkpt lat="39.8244470" lon="2.8599310">
        <ele>655.7</ele>
        <time>2018-12-30T14:06:39Z</time>
      </trkpt>
      <trkpt lat="39.8244110" lon="2.8600000">
        <ele>655.6</ele>
        <time>2018-12-30T14:06:40Z</time>
      </trkpt>
      <trkpt lat="39.8243760" lon="2.8600700">
        <ele>655.5</ele>
        <time>2018-12-30T14:06:41Z</time>
      </trkpt>
      <trkpt lat="39.8243420" lon="2.8601410">
        <ele>655.4</ele>
        <time>2018-12-30T14:06:42Z</time>
      </trkpt>
      <trkpt lat="39.8243060" lon="2.8602150">
        <ele>655.3</ele>
        <time>2018-12-30T14:06:43Z</time>
      </trkpt>
      <trkpt lat="39.8242610" lon="2.8602900">
        <ele>655.3</ele>
        <time>2018-12-30T14:06:44Z</time>
      </trkpt>
      <trkpt lat="39.8242130" lon="2.8603690">
        <ele>655.3</ele>
        <time>2018-12-30T14:06:45Z</time>
      </trkpt>
      <trkpt lat="39.8241590" lon="2.8604490">
        <ele>655.3</ele>
        <time>2018-12-30T14:06:46Z</time>
      </trkpt>
      <trkpt lat="39.8241110" lon="2.8605310">
        <ele>655.4</ele>
        <time>2018-12-30T14:06:47Z</time>
      </trkpt>
      <trkpt lat="39.8240630" lon="2.8606110">
        <ele>655.6</ele>
        <time>2018-12-30T14:06:48Z</time>
      </trkpt>
      <trkpt lat="39.8240200" lon="2.8606910">
        <ele>655.8</ele>
        <time>2018-12-30T14:06:49Z</time>
      </trkpt>
      <trkpt lat="39.8239790" lon="2.8607680">
        <ele>656.1</ele>
        <time>2018-12-30T14:06:50Z</time>
      </trkpt>
      <trkpt lat="39.8239380" lon="2.8608420">
        <ele>656.5</ele>
        <time>2018-12-30T14:06:51Z</time>
      </trkpt>
      <trkpt lat="39.8238940" lon="2.8609080">
        <ele>657.0</ele>
        <time>2018-12-30T14:06:52Z</time>
      </trkpt>
      <trkpt lat="39.8238400" lon="2.8609580">
        <ele>657.5</ele>
        <time>2018-12-30T14:06:53Z</time>
      </trkpt>
      <trkpt lat="39.8237760" lon="2.8609850">
        <ele>658.0</ele>
        <time>2018-12-30T14:06:54Z</time>
      </trkpt>
      <trkpt lat="39.8237190" lon="2.8609820">
        <ele>658.4</ele>
        <time>2018-12-30T14:06:55Z</time>
      </trkpt>
      <trkpt lat="39.8236700" lon="2.8609680">
        <ele>658.8</ele>
        <time>2018-12-30T14:06:56Z</time>
      </trkpt>
      <trkpt lat="39.8236250" lon="2.8609520">
        <ele>659.0</ele>
        <time>2018-12-30T14:06:57Z</time>
      </trkpt>
      <trkpt lat="39.8235740" lon="2.8609450">
        <ele>659.2</ele>
        <time>2018-12-30T14:06:58Z</time>
      </trkpt>
      <trkpt lat="39.8235220" lon="2.8609360">
        <ele>659.3</ele>
        <time>2018-12-30T14:06:59Z</time>
      </trkpt>
      <trkpt lat="39.8234760" lon="2.8609280">
        <ele>659.3</ele>
        <time>2018-12-30T14:07:00Z</time>
      </trkpt>
      <trkpt lat="39.8234290" lon="2.8609230">
        <ele>659.3</ele>
        <time>2018-12-30T14:07:01Z</time>
      </trkpt>
      <trkpt lat="39.8233790" lon="2.8609220">
        <ele>659.2</ele>
        <time>2018-12-30T14:07:02Z</time>
      </trkpt>
      <trkpt lat="39.8233320" lon="2.8609420">
        <ele>659.1</ele>
        <time>2018-12-30T14:07:03Z</time>
      </trkpt>
      <trkpt lat="39.8232960" lon="2.8609910">
        <ele>659.0</ele>
        <time>2018-12-30T14:07:04Z</time>
      </trkpt>
      <trkpt lat="39.8232680" lon="2.8610530">
        <ele>659.1</ele>
        <time>2018-12-30T14:07:05Z</time>
      </trkpt>
      <trkpt lat="39.8232480" lon="2.8611080">
        <ele>659.2</ele>
        <time>2018-12-30T14:07:06Z</time>
      </trkpt>
      <trkpt lat="39.8232310" lon="2.8611520">
        <ele>659.4</ele>
        <time>2018-12-30T14:07:07Z</time>
      </trkpt>
      <trkpt lat="39.8232230" lon="2.8612000">
        <ele>659.6</ele>
        <time>2018-12-30T14:07:08Z</time>
      </trkpt>
      <trkpt lat="39.8232200" lon="2.8612720">
        <ele>660.0</ele>
        <time>2018-12-30T14:07:09Z</time>
      </trkpt>
      <trkpt lat="39.8232220" lon="2.8613570">
        <ele>660.5</ele>
        <time>2018-12-30T14:07:10Z</time>
      </trkpt>
      <trkpt lat="39.8232250" lon="2.8614500">
        <ele>661.0</ele>
        <time>2018-12-30T14:07:11Z</time>
      </trkpt>
      <trkpt lat="39.8232360" lon="2.8615300">
        <ele>661.4</ele>
        <time>2018-12-30T14:07:12Z</time>
      </trkpt>
      <trkpt lat="39.8232490" lon="2.8616010">
        <ele>661.8</ele>
        <time>2018-12-30T14:07:13Z</time>
      </trkpt>
      <trkpt lat="39.8232620" lon="2.8616690">
        <ele>662.2</ele>
        <time>2018-12-30T14:07:14Z</time>
      </trkpt>
      <trkpt lat="39.8232720" lon="2.8617350">
        <ele>662.6</ele>
        <time>2018-12-30T14:07:15Z</time>
      </trkpt>
      <trkpt lat="39.8232800" lon="2.8618000">
        <ele>663.0</ele>
        <time>2018-12-30T14:07:16Z</time>
      </trkpt>
      <trkpt lat="39.8232800" lon="2.8618620">
        <ele>663.5</ele>
        <time>2018-12-30T14:07:17Z</time>
      </trkpt>
      <trkpt lat="39.8232700" lon="2.8619160">
        <ele>663.8</ele>
        <time>2018-12-30T14:07:18Z</time>
      </trkpt>
      <trkpt lat="39.8232510" lon="2.8619650">
        <ele>664.1</ele>
        <time>2018-12-30T14:07:19Z</time>
      </trkpt>
      <trkpt lat="39.8232280" lon="2.8620050">
        <ele>664.5</ele>
        <time>2018-12-30T14:07:20Z</time>
      </trkpt>
      <trkpt lat="39.8232060" lon="2.8620410">
        <ele>664.8</ele>
        <time>2018-12-30T14:07:21Z</time>
      </trkpt>
      <trkpt lat="39.8231840" lon="2.8620730">
        <ele>665.1</ele>
        <time>2018-12-30T14:07:22Z</time>
      </trkpt>
      <trkpt lat="39.8231670" lon="2.8621060">
        <ele>665.4</ele>
        <time>2018-12-30T14:07:23Z</time>
      </trkpt>
      <trkpt lat="39.8231540" lon="2.8621430">
        <ele>665.7</ele>
        <time>2018-12-30T14:07:24Z</time>
      </trkpt>
      <trkpt lat="39.8231390" lon="2.8621830">
        <ele>666.0</ele>
        <time>2018-12-30T14:07:25Z</time>
      </trkpt>
      <trkpt lat="39.8231240" lon="2.8622220">
        <ele>666.4</ele>
        <time>2018-12-30T14:07:26Z</time>
      </trkpt>
      <trkpt lat="39.8231120" lon="2.8622680">
        <ele>666.7</ele>
        <time>2018-12-30T14:07:27Z</time>
      </trkpt>
      <trkpt lat="39.8231070" lon="2.8623200">
        <ele>667.1</ele>
        <time>2018-12-30T14:07:28Z</time>
      </trkpt>
      <trkpt lat="39.8231020" lon="2.8623770">
        <ele>667.5</ele>
        <time>2018-12-30T14:07:29Z</time>
      </trkpt>
      <trkpt lat="39.8230970" lon="2.8624320">
        <ele>667.9</ele>
        <time>2018-12-30T14:07:30Z</time>
      </trkpt>
      <trkpt lat="39.8230920" lon="2.8624830">
        <ele>668.2</ele>
        <time>2018-12-30T14:07:31Z</time>
      </trkpt>
      <trkpt lat="39.8230910" lon="2.8625330">
        <ele>668.6</ele>
        <time>2018-12-30T14:07:32Z</time>
      </trkpt>
      <trkpt lat="39.8230900" lon="2.8625820">
        <ele>669.0</ele>
        <time>2018-12-30T14:07:33Z</time>
      </trkpt>
      <trkpt lat="39.8230890" lon="2.8626300">
        <ele>669.4</ele>
        <time>2018-12-30T14:07:34Z</time>
      </trkpt>
      <trkpt lat="39.8230860" lon="2.8626770">
        <ele>669.8</ele>
        <time>2018-12-30T14:07:35Z</time>
      </trkpt>
      <trkpt lat="39.8230820" lon="2.8627240">
        <ele>670.2</ele>
        <time>2018-12-30T14:07:36Z</time>
      </trkpt>
      <trkpt lat="39.8230760" lon="2.8627720">
        <ele>670.6</ele>
        <time>2018-12-30T14:07:37Z</time>
      </trkpt>
      <trkpt lat="39.8230680" lon="2.8628220">
        <ele>671.0</ele>
        <time>2018-12-30T14:07:38Z</time>
      </trkpt>
      <trkpt lat="39.8230590" lon="2.8628730">
        <ele>671.4</ele>
        <time>2018-12-30T14:07:39Z</time>
      </trkpt>
      <trkpt lat="39.8230460" lon="2.8629220">
        <ele>671.7</ele>
        <time>2018-12-30T14:07:40Z</time>
      </trkpt>
      <trkpt lat="39.8230330" lon="2.8629670">
        <ele>671.9</ele>
        <time>2018-12-30T14:07:41Z</time>
      </trkpt>
      <trkpt lat="39.8230160" lon="2.8630100">
        <ele>672.0</ele>
        <time>2018-12-30T14:07:42Z</time>
      </trkpt>
      <trkpt lat="39.8229970" lon="2.8630550">
        <ele>672.1</ele>
        <time>2018-12-30T14:07:43Z</time>
      </trkpt>
      <trkpt lat="39.8229740" lon="2.8631030">
        <ele>672.0</ele>
        <time>2018-12-30T14:07:44Z</time>
      </trkpt>
      <trkpt lat="39.8229450" lon="2.8631530">
        <ele>671.9</ele>
        <time>2018-12-30T14:07:45Z</time>
      </trkpt>
      <trkpt lat="39.8229140" lon="2.8632060">
        <ele>671.7</ele>
        <time>2018-12-30T14:07:46Z</time>
      </trkpt>
      <trkpt lat="39.8228810" lon="2.8632600">
        <ele>671.4</ele>
        <time>2018-12-30T14:07:47Z</time>
      </trkpt>
      <trkpt lat="39.8228410" lon="2.8633210">
        <ele>671.1</ele>
        <time>2018-12-30T14:07:48Z</time>
      </trkpt>
      <trkpt lat="39.8228000" lon="2.8633840">
        <ele>670.8</ele>
        <time>2018-12-30T14:07:49Z</time>
      </trkpt>
      <trkpt lat="39.8227580" lon="2.8634490">
        <ele>670.7</ele>
        <time>2018-12-30T14:07:50Z</time>
      </trkpt>
      <trkpt lat="39.8227190" lon="2.8635130">
        <ele>670.5</ele>
        <time>2018-12-30T14:07:51Z</time>
      </trkpt>
      <trkpt lat="39.8226800" lon="2.8635780">
        <ele>670.6</ele>
        <time>2018-12-30T14:07:52Z</time>
      </trkpt>
      <trkpt lat="39.8226400" lon="2.8636430">
        <ele>671.0</ele>
        <time>2018-12-30T14:07:53Z</time>
      </trkpt>
      <trkpt lat="39.8226010" lon="2.8637060">
        <ele>671.4</ele>
        <time>2018-12-30T14:07:54Z</time>
      </trkpt>
      <trkpt lat="39.8225620" lon="2.8637700">
        <ele>671.8</ele>
        <time>2018-12-30T14:07:55Z</time>
      </trkpt>
      <trkpt lat="39.8225230" lon="2.8638310">
        <ele>672.2</ele>
        <time>2018-12-30T14:07:56Z</time>
      </trkpt>
      <trkpt lat="39.8224820" lon="2.8638940">
        <ele>672.6</ele>
        <time>2018-12-30T14:07:57Z</time>
      </trkpt>
      <trkpt lat="39.8224440" lon="2.8639550">
        <ele>673.0</ele>
        <time>2018-12-30T14:07:58Z</time>
      </trkpt>
      <trkpt lat="39.8224050" lon="2.8640150">
        <ele>673.4</ele>
        <time>2018-12-30T14:07:59Z</time>
      </trkpt>
      <trkpt lat="39.8223700" lon="2.8640720">
        <ele>673.8</ele>
        <time>2018-12-30T14:08:00Z</time>
      </trkpt>
      <trkpt lat="39.8223330" lon="2.8641290">
        <ele>674.2</ele>
        <time>2018-12-30T14:08:01Z</time>
      </trkpt>
      <trkpt lat="39.8222960" lon="2.8641850">
        <ele>674.5</ele>
        <time>2018-12-30T14:08:02Z</time>
      </trkpt>
      <trkpt lat="39.8222650" lon="2.8642390">
        <ele>674.8</ele>
        <time>2018-12-30T14:08:03Z</time>
      </trkpt>
      <trkpt lat="39.8222360" lon="2.8642900">
        <ele>675.1</ele>
        <time>2018-12-30T14:08:04Z</time>
      </trkpt>
      <trkpt lat="39.8222090" lon="2.8643400">
        <ele>675.3</ele>
        <time>2018-12-30T14:08:05Z</time>
      </trkpt>
      <trkpt lat="39.8221770" lon="2.8643880">
        <ele>675.5</ele>
        <time>2018-12-30T14:08:06Z</time>
      </trkpt>
      <trkpt lat="39.8221480" lon="2.8644360">
        <ele>675.6</ele>
        <time>2018-12-30T14:08:07Z</time>
      </trkpt>
      <trkpt lat="39.8221250" lon="2.8644880">
        <ele>675.8</ele>
        <time>2018-12-30T14:08:08Z</time>
      </trkpt>
      <trkpt lat="39.8221050" lon="2.8645400">
        <ele>675.9</ele>
        <time>2018-12-30T14:08:09Z</time>
      </trkpt>
      <trkpt lat="39.8220870" lon="2.8645900">
        <ele>676.0</ele>
        <time>2018-12-30T14:08:10Z</time>
      </trkpt>
      <trkpt lat="39.8220650" lon="2.8646370">
        <ele>676.1</ele>
        <time>2018-12-30T14:08:11Z</time>
      </trkpt>
      <trkpt lat="39.8220430" lon="2.8646840">
        <ele>676.1</ele>
        <time>2018-12-30T14:08:12Z</time>
      </trkpt>
      <trkpt lat="39.8220240" lon="2.8647370">
        <ele>676.2</ele>
        <time>2018-12-30T14:08:13Z</time>
      </trkpt>
      <trkpt lat="39.8220100" lon="2.8647960">
        <ele>676.3</ele>
        <time>2018-12-30T14:08:14Z</time>
      </trkpt>
      <trkpt lat="39.8220020" lon="2.8648580">
        <ele>676.3</ele>
        <time>2018-12-30T14:08:15Z</time>
      </trkpt>
      <trkpt lat="39.8220010" lon="2.8649150">
        <ele>676.4</ele>
        <time>2018-12-30T14:08:16Z</time>
      </trkpt>
      <trkpt lat="39.8220050" lon="2.8649690">
        <ele>676.4</ele>
        <time>2018-12-30T14:08:17Z</time>
      </trkpt>
      <trkpt lat="39.8220180" lon="2.8650240">
        <ele>676.5</ele>
        <time>2018-12-30T14:08:18Z</time>
      </trkpt>
      <trkpt lat="39.8220330" lon="2.8650800">
        <ele>676.5</ele>
        <time>2018-12-30T14:08:19Z</time>
      </trkpt>
      <trkpt lat="39.8220530" lon="2.8651340">
        <ele>676.6</ele>
        <time>2018-12-30T14:08:20Z</time>
      </trkpt>
      <trkpt lat="39.8220700" lon="2.8651860">
        <ele>676.6</ele>
        <time>2018-12-30T14:08:21Z</time>
      </trkpt>
      <trkpt lat="39.8220870" lon="2.8652340">
        <ele>676.7</ele>
        <time>2018-12-30T14:08:22Z</time>
      </trkpt>
      <trkpt lat="39.8221020" lon="2.8652800">
        <ele>676.7</ele>
        <time>2018-12-30T14:08:23Z</time>
      </trkpt>
      <trkpt lat="39.8221190" lon="2.8653260">
        <ele>676.8</ele>
        <time>2018-12-30T14:08:24Z</time>
      </trkpt>
      <trkpt lat="39.8221360" lon="2.8653710">
        <ele>676.8</ele>
        <time>2018-12-30T14:08:25Z</time>
      </trkpt>
      <trkpt lat="39.8221520" lon="2.8654160">
        <ele>676.9</ele>
        <time>2018-12-30T14:08:26Z</time>
      </trkpt>
      <trkpt lat="39.8221650" lon="2.8654610">
        <ele>676.9</ele>
        <time>2018-12-30T14:08:27Z</time>
      </trkpt>
      <trkpt lat="39.8221740" lon="2.8655060">
        <ele>677.0</ele>
        <time>2018-12-30T14:08:28Z</time>
      </trkpt>
      <trkpt lat="39.8221790" lon="2.8655510">
        <ele>677.0</ele>
        <time>2018-12-30T14:08:29Z</time>
      </trkpt>
      <trkpt lat="39.8221800" lon="2.8655950">
        <ele>677.0</ele>
        <time>2018-12-30T14:08:30Z</time>
      </trkpt>
      <trkpt lat="39.8221780" lon="2.8656370">
        <ele>677.1</ele>
        <time>2018-12-30T14:08:31Z</time>
      </trkpt>
      <trkpt lat="39.8221720" lon="2.8656770">
        <ele>677.1</ele>
        <time>2018-12-30T14:08:32Z</time>
      </trkpt>
      <trkpt lat="39.8221630" lon="2.8657160">
        <ele>677.1</ele>
        <time>2018-12-30T14:08:33Z</time>
      </trkpt>
      <trkpt lat="39.8221510" lon="2.8657530">
        <ele>677.2</ele>
        <time>2018-12-30T14:08:34Z</time>
      </trkpt>
      <trkpt lat="39.8221390" lon="2.8657900">
        <ele>677.2</ele>
        <time>2018-12-30T14:08:35Z</time>
      </trkpt>
      <trkpt lat="39.8221270" lon="2.8658260">
        <ele>677.3</ele>
        <time>2018-12-30T14:08:36Z</time>
      </trkpt>
      <trkpt lat="39.8221120" lon="2.8658620">
        <ele>677.4</ele>
        <time>2018-12-30T14:08:37Z</time>
      </trkpt>
      <trkpt lat="39.8220890" lon="2.8658960">
        <ele>677.4</ele>
        <time>2018-12-30T14:08:38Z</time>
      </trkpt>
      <trkpt lat="39.8220590" lon="2.8659270">
        <ele>677.5</ele>
        <time>2018-12-30T14:08:39Z</time>
      </trkpt>
      <trkpt lat="39.8220270" lon="2.8659550">
        <ele>677.7</ele>
        <time>2018-12-30T14:08:40Z</time>
      </trkpt>
      <trkpt lat="39.8219970" lon="2.8659850">
        <ele>677.8</ele>
        <time>2018-12-30T14:08:41Z</time>
      </trkpt>
      <trkpt lat="39.8219680" lon="2.8660210">
        <ele>677.9</ele>
        <time>2018-12-30T14:08:42Z</time>
      </trkpt>
      <trkpt lat="39.8219370" lon="2.8660610">
        <ele>678.1</ele>
        <time>2018-12-30T14:08:43Z</time>
      </trkpt>
      <trkpt lat="39.8219080" lon="2.8661050">
        <ele>678.2</ele>
        <time>2018-12-30T14:08:44Z</time>
      </trkpt>
      <trkpt lat="39.8218800" lon="2.8661480">
        <ele>678.4</ele>
        <time>2018-12-30T14:08:45Z</time>
      </trkpt>
      <trkpt lat="39.8218500" lon="2.8661920">
        <ele>678.6</ele>
        <time>2018-12-30T14:08:46Z</time>
      </trkpt>
      <trkpt lat="39.8218190" lon="2.8662370">
        <ele>678.7</ele>
        <time>2018-12-30T14:08:47Z</time>
      </trkpt>
      <trkpt lat="39.8217860" lon="2.8662830">
        <ele>678.8</ele>
        <time>2018-12-30T14:08:48Z</time>
      </trkpt>
      <trkpt lat="39.8217550" lon="2.8663300">
        <ele>679.0</ele>
        <time>2018-12-30T14:08:49Z</time>
      </trkpt>
      <trkpt lat="39.8217260" lon="2.8663790">
        <ele>679.1</ele>
        <time>2018-12-30T14:08:50Z</time>
      </trkpt>
      <trkpt lat="39.8216990" lon="2.8664290">
        <ele>679.2</ele>
        <time>2018-12-30T14:08:51Z</time>
      </trkpt>
      <trkpt lat="39.8216730" lon="2.8664790">
        <ele>679.4</ele>
        <time>2018-12-30T14:08:52Z</time>
      </trkpt>
      <trkpt lat="39.8216470" lon="2.8665290">
        <ele>679.5</ele>
        <time>2018-12-30T14:08:53Z</time>
      </trkpt>
      <trkpt lat="39.8216180" lon="2.8665850">
        <ele>679.7</ele>
        <time>2018-12-30T14:08:54Z</time>
      </trkpt>
      <trkpt lat="39.8215880" lon="2.8666420">
        <ele>679.8</ele>
        <time>2018-12-30T14:08:55Z</time>
      </trkpt>
      <trkpt lat="39.8215610" lon="2.8667000">
        <ele>680.0</ele>
        <time>2018-12-30T14:08:56Z</time>
      </trkpt>
      <trkpt lat="39.8215440" lon="2.8667570">
        <ele>680.2</ele>
        <time>2018-12-30T14:08:57Z</time>
      </trkpt>
      <trkpt lat="39.8215380" lon="2.8668190">
        <ele>680.4</ele>
        <time>2018-12-30T14:08:58Z</time>
      </trkpt>
      <trkpt lat="39.8215400" lon="2.8668840">
        <ele>680.6</ele>
        <time>2018-12-30T14:08:59Z</time>
      </trkpt>
      <trkpt lat="39.8215430" lon="2.8669460">
        <ele>680.8</ele>
        <time>2018-12-30T14:09:00Z</time>
      </trkpt>
      <trkpt lat="39.8215390" lon="2.8670100">
        <ele>681.0</ele>
        <time>2018-12-30T14:09:01Z</time>
      </trkpt>
      <trkpt lat="39.8215320" lon="2.8670800">
        <ele>681.2</ele>
        <time>2018-12-30T14:09:02Z</time>
      </trkpt>
      <trkpt lat="39.8215230" lon="2.8671540">
        <ele>681.5</ele>
        <time>2018-12-30T14:09:03Z</time>
      </trkpt>
      <trkpt lat="39.8215210" lon="2.8672270">
        <ele>681.7</ele>
        <time>2018-12-30T14:09:04Z</time>
      </trkpt>
      <trkpt lat="39.8215290" lon="2.8672960">
        <ele>681.9</ele>
        <time>2018-12-30T14:09:05Z</time>
      </trkpt>
      <trkpt lat="39.8215480" lon="2.8673610">
        <ele>682.1</ele>
        <time>2018-12-30T14:09:06Z</time>
      </trkpt>
      <trkpt lat="39.8215690" lon="2.8674260">
        <ele>682.3</ele>
        <time>2018-12-30T14:09:07Z</time>
      </trkpt>
      <trkpt lat="39.8215920" lon="2.8674900">
        <ele>682.5</ele>
        <time>2018-12-30T14:09:08Z</time>
      </trkpt>
      <trkpt lat="39.8216150" lon="2.8675530">
        <ele>682.7</ele>
        <time>2018-12-30T14:09:09Z</time>
      </trkpt>
      <trkpt lat="39.8216370" lon="2.8676130">
        <ele>682.9</ele>
        <time>2018-12-30T14:09:10Z</time>
      </trkpt>
      <trkpt lat="39.8216540" lon="2.8676730">
        <ele>683.1</ele>
        <time>2018-12-30T14:09:11Z</time>
      </trkpt>
      <trkpt lat="39.8216680" lon="2.8677340">
        <ele>683.3</ele>
        <time>2018-12-30T14:09:12Z</time>
      </trkpt>
      <trkpt lat="39.8216810" lon="2.8677970">
        <ele>683.6</ele>
        <time>2018-12-30T14:09:13Z</time>
      </trkpt>
      <trkpt lat="39.8216950" lon="2.8678610">
        <ele>683.8</ele>
        <time>2018-12-30T14:09:14Z</time>
      </trkpt>
      <trkpt lat="39.8217100" lon="2.8679260">
        <ele>684.0</ele>
        <time>2018-12-30T14:09:15Z</time>
      </trkpt>
      <trkpt lat="39.8217250" lon="2.8679900">
        <ele>684.3</ele>
        <time>2018-12-30T14:09:16Z</time>
      </trkpt>
      <trkpt lat="39.8217390" lon="2.8680540">
        <ele>684.6</ele>
        <time>2018-12-30T14:09:17Z</time>
      </trkpt>
      <trkpt lat="39.8217530" lon="2.8681170">
        <ele>684.8</ele>
        <time>2018-12-30T14:09:18Z</time>
      </trkpt>
      <trkpt lat="39.8217640" lon="2.8681800">
        <ele>685.1</ele>
        <time>2018-12-30T14:09:19Z</time>
      </trkpt>
      <trkpt lat="39.8217740" lon="2.8682420">
        <ele>685.3</ele>
        <time>2018-12-30T14:09:20Z</time>
      </trkpt>
      <trkpt lat="39.8217850" lon="2.8683050">
        <ele>685.5</ele>
        <time>2018-12-30T14:09:21Z</time>
      </trkpt>
      <trkpt lat="39.8217950" lon="2.8683680">
        <ele>685.6</ele>
        <time>2018-12-30T14:09:22Z</time>
      </trkpt>
      <trkpt lat="39.8218050" lon="2.8684320">
        <ele>685.8</ele>
        <time>2018-12-30T14:09:23Z</time>
      </trkpt>
      <trkpt lat="39.8218140" lon="2.8684950">
        <ele>685.9</ele>
        <time>2018-12-30T14:09:24Z</time>
      </trkpt>
      <trkpt lat="39.8218240" lon="2.8685580">
        <ele>685.9</ele>
        <time>2018-12-30T14:09:25Z</time>
      </trkpt>
      <trkpt lat="39.8218350" lon="2.8686220">
        <ele>686.0</ele>
        <time>2018-12-30T14:09:26Z</time>
      </trkpt>
      <trkpt lat="39.8218430" lon="2.8686850">
        <ele>686.0</ele>
        <time>2018-12-30T14:09:27Z</time>
      </trkpt>
      <trkpt lat="39.8218450" lon="2.8687490">
        <ele>686.0</ele>
        <time>2018-12-30T14:09:28Z</time>
      </trkpt>
      <trkpt lat="39.8218420" lon="2.8688110">
        <ele>686.1</ele>
        <time>2018-12-30T14:09:29Z</time>
      </trkpt>
      <trkpt lat="39.8218390" lon="2.8688710">
        <ele>686.1</ele>
        <time>2018-12-30T14:09:30Z</time>
      </trkpt>
      <trkpt lat="39.8218370" lon="2.8689300">
        <ele>686.1</ele>
        <time>2018-12-30T14:09:31Z</time>
      </trkpt>
      <trkpt lat="39.8218350" lon="2.8689880">
        <ele>686.0</ele>
        <time>2018-12-30T14:09:32Z</time>
      </trkpt>
      <trkpt lat="39.8218320" lon="2.8690450">
        <ele>686.0</ele>
        <time>2018-12-30T14:09:33Z</time>
      </trkpt>
      <trkpt lat="39.8218280" lon="2.8691040">
        <ele>686.0</ele>
        <time>2018-12-30T14:09:34Z</time>
      </trkpt>
      <trkpt lat="39.8218230" lon="2.8691620">
        <ele>686.0</ele>
        <time>2018-12-30T14:09:35Z</time>
      </trkpt>
      <trkpt lat="39.8218180" lon="2.8692210">
        <ele>685.9</ele>
        <time>2018-12-30T14:09:36Z</time>
      </trkpt>
      <trkpt lat="39.8218130" lon="2.8692830">
        <ele>685.8</ele>
        <time>2018-12-30T14:09:37Z</time>
      </trkpt>
      <trkpt lat="39.8218070" lon="2.8693470">
        <ele>685.7</ele>
        <time>2018-12-30T14:09:38Z</time>
      </trkpt>
      <trkpt lat="39.8217990" lon="2.8694120">
        <ele>685.6</ele>
        <time>2018-12-30T14:09:39Z</time>
      </trkpt>
      <trkpt lat="39.8217930" lon="2.8694740">
        <ele>685.4</ele>
        <time>2018-12-30T14:09:40Z</time>
      </trkpt>
      <trkpt lat="39.8217850" lon="2.8695340">
        <ele>685.3</ele>
        <time>2018-12-30T14:09:41Z</time>
      </trkpt>
      <trkpt lat="39.8217710" lon="2.8696010">
        <ele>685.1</ele>
        <time>2018-12-30T14:09:42Z</time>
      </trkpt>
      <trkpt lat="39.8217470" lon="2.8696730">
        <ele>685.0</ele>
        <time>2018-12-30T14:09:43Z</time>
      </trkpt>
      <trkpt lat="39.8217180" lon="2.8697490">
        <ele>684.7</ele>
        <time>2018-12-30T14:09:44Z</time>
      </trkpt>
      <trkpt lat="39.8216910" lon="2.8698200">
        <ele>684.5</ele>
        <time>2018-12-30T14:09:45Z</time>
      </trkpt>
      <trkpt lat="39.8216670" lon="2.8698860">
        <ele>684.2</ele>
        <time>2018-12-30T14:09:46Z</time>
      </trkpt>
      <trkpt lat="39.8216430" lon="2.8699510">
        <ele>684.1</ele>
        <time>2018-12-30T14:09:47Z</time>
      </trkpt>
      <trkpt lat="39.8216190" lon="2.8700140">
        <ele>683.9</ele>
        <time>2018-12-30T14:09:48Z</time>
      </trkpt>
      <trkpt lat="39.8215960" lon="2.8700700">
        <ele>683.8</ele>
        <time>2018-12-30T14:09:49Z</time>
      </trkpt>
      <trkpt lat="39.8215690" lon="2.8701250">
        <ele>683.6</ele>
        <time>2018-12-30T14:09:50Z</time>
      </trkpt>
      <trkpt lat="39.8215360" lon="2.8701840">
        <ele>683.5</ele>
        <time>2018-12-30T14:09:51Z</time>
      </trkpt>
      <trkpt lat="39.8215000" lon="2.8702490">
        <ele>683.3</ele>
        <time>2018-12-30T14:09:52Z</time>
      </trkpt>
      <trkpt lat="39.8214660" lon="2.8703140">
        <ele>683.2</ele>
        <time>2018-12-30T14:09:53Z</time>
      </trkpt>
      <trkpt lat="39.8214340" lon="2.8703760">
        <ele>683.1</ele>
        <time>2018-12-30T14:09:54Z</time>
      </trkpt>
      <trkpt lat="39.8214050" lon="2.8704350">
        <ele>683.0</ele>
        <time>2018-12-30T14:09:55Z</time>
      </trkpt>
      <trkpt lat="39.8213760" lon="2.8704920">
        <ele>683.0</ele>
        <time>2018-12-30T14:09:56Z</time>
      </trkpt>
      <trkpt lat="39.8213500" lon="2.8705460">
        <ele>682.9</ele>
        <time>2018-12-30T14:09:57Z</time>
      </trkpt>
      <trkpt lat="39.8213230" lon="2.8706010">
        <ele>682.9</ele>
        <time>2018-12-30T14:09:58Z</time>
      </trkpt>
      <trkpt lat="39.8212950" lon="2.8706550">
        <ele>682.9</ele>
        <time>2018-12-30T14:09:59Z</time>
      </trkpt>
      <trkpt lat="39.8212670" lon="2.8707150">
        <ele>682.8</ele>
        <time>2018-12-30T14:10:00Z</time>
      </trkpt>
      <trkpt lat="39.8212390" lon="2.8707800">
        <ele>682.8</ele>
        <time>2018-12-30T14:10:01Z</time>
      </trkpt>
      <trkpt lat="39.8212130" lon="2.8708480">
        <ele>682.7</ele>
        <time>2018-12-30T14:10:02Z</time>
      </trkpt>
      <trkpt lat="39.8211850" lon="2.8709200">
        <ele>682.7</ele>
        <time>2018-12-30T14:10:03Z</time>
      </trkpt>
      <trkpt lat="39.8211540" lon="2.8709910">
        <ele>682.5</ele>
        <time>2018-12-30T14:10:04Z</time>
      </trkpt>
      <trkpt lat="39.8211210" lon="2.8710640">
        <ele>682.4</ele>
        <time>2018-12-30T14:10:05Z</time>
      </trkpt>
      <trkpt lat="39.8210900" lon="2.8711350">
        <ele>682.2</ele>
        <time>2018-12-30T14:10:06Z</time>
      </trkpt>
      <trkpt lat="39.8210610" lon="2.8712100">
        <ele>682.1</ele>
        <time>2018-12-30T14:10:07Z</time>
      </trkpt>
      <trkpt lat="39.8210300" lon="2.8712880">
        <ele>681.9</ele>
        <time>2018-12-30T14:10:08Z</time>
      </trkpt>
      <trkpt lat="39.8209990" lon="2.8713770">
        <ele>681.6</ele>
        <time>2018-12-30T14:10:09Z</time>
      </trkpt>
      <trkpt lat="39.8209650" lon="2.8714680">
        <ele>681.3</ele>
        <time>2018-12-30T14:10:10Z</time>
      </trkpt>
      <trkpt lat="39.8209300" lon="2.8715570">
        <ele>680.9</ele>
        <time>2018-12-30T14:10:11Z</time>
      </trkpt>
      <trkpt lat="39.8208950" lon="2.8716420">
        <ele>680.6</ele>
        <time>2018-12-30T14:10:12Z</time>
      </trkpt>
      <trkpt lat="39.8208600" lon="2.8717290">
        <ele>680.3</ele>
        <time>2018-12-30T14:10:13Z</time>
      </trkpt>
      <trkpt lat="39.8208240" lon="2.8718270">
        <ele>679.9</ele>
        <time>2018-12-30T14:10:14Z</time>
      </trkpt>
      <trkpt lat="39.8207900" lon="2.8719190">
        <ele>679.5</ele>
        <time>2018-12-30T14:10:15Z</time>
      </trkpt>
      <trkpt lat="39.8207530" lon="2.8720210">
        <ele>679.1</ele>
        <time>2018-12-30T14:10:16Z</time>
      </trkpt>
      <trkpt lat="39.8207160" lon="2.8721180">
        <ele>678.8</ele>
        <time>2018-12-30T14:10:17Z</time>
      </trkpt>
      <trkpt lat="39.8206710" lon="2.8722330">
        <ele>678.4</ele>
        <time>2018-12-30T14:10:18Z</time>
      </trkpt>
      <trkpt lat="39.8206240" lon="2.8723480">
        <ele>678.1</ele>
        <time>2018-12-30T14:10:19Z</time>
      </trkpt>
      <trkpt lat="39.8205760" lon="2.8724620">
        <ele>678.1</ele>
        <time>2018-12-30T14:10:20Z</time>
      </trkpt>
      <trkpt lat="39.8205340" lon="2.8725610">
        <ele>678.2</ele>
        <time>2018-12-30T14:10:21Z</time>
      </trkpt>
      <trkpt lat="39.8204930" lon="2.8726510">
        <ele>678.2</ele>
        <time>2018-12-30T14:10:22Z</time>
      </trkpt>
      <trkpt lat="39.8204600" lon="2.8727410">
        <ele>678.2</ele>
        <time>2018-12-30T14:10:23Z</time>
      </trkpt>
      <trkpt lat="39.8204380" lon="2.8728360">
        <ele>678.3</ele>
        <time>2018-12-30T14:10:24Z</time>
      </trkpt>
      <trkpt lat="39.8204250" lon="2.8729340">
        <ele>678.3</ele>
        <time>2018-12-30T14:10:25Z</time>
      </trkpt>
      <trkpt lat="39.8204130" lon="2.8730340">
        <ele>678.3</ele>
        <time>2018-12-30T14:10:26Z</time>
      </trkpt>
      <trkpt lat="39.8204040" lon="2.8731300">
        <ele>678.4</ele>
        <time>2018-12-30T14:10:27Z</time>
      </trkpt>
      <trkpt lat="39.8203960" lon="2.8732220">
        <ele>678.4</ele>
        <time>2018-12-30T14:10:28Z</time>
      </trkpt>
      <trkpt lat="39.8203940" lon="2.8733080">
        <ele>678.5</ele>
        <time>2018-12-30T14:10:29Z</time>
      </trkpt>
      <trkpt lat="39.8203930" lon="2.8733910">
        <ele>678.6</ele>
        <time>2018-12-30T14:10:30Z</time>
      </trkpt>
      <trkpt lat="39.8203960" lon="2.8734730">
        <ele>678.8</ele>
        <time>2018-12-30T14:10:31Z</time>
      </trkpt>
      <trkpt lat="39.8204040" lon="2.8735560">
        <ele>679.0</ele>
        <time>2018-12-30T14:10:32Z</time>
      </trkpt>
      <trkpt lat="39.8204170" lon="2.8736380">
        <ele>679.2</ele>
        <time>2018-12-30T14:10:33Z</time>
      </trkpt>
      <trkpt lat="39.8204340" lon="2.8737170">
        <ele>679.3</ele>
        <time>2018-12-30T14:10:34Z</time>
      </trkpt>
      <trkpt lat="39.8204500" lon="2.8737950">
        <ele>679.4</ele>
        <time>2018-12-30T14:10:35Z</time>
      </trkpt>
      <trkpt lat="39.8204650" lon="2.8738720">
        <ele>679.4</ele>
        <time>2018-12-30T14:10:36Z</time>
      </trkpt>
      <trkpt lat="39.8204820" lon="2.8739490">
        <ele>679.3</ele>
        <time>2018-12-30T14:10:37Z</time>
      </trkpt>
      <trkpt lat="39.8205010" lon="2.8740240">
        <ele>679.1</ele>
        <time>2018-12-30T14:10:38Z</time>
      </trkpt>
      <trkpt lat="39.8205220" lon="2.8740980">
        <ele>678.9</ele>
        <time>2018-12-30T14:10:39Z</time>
      </trkpt>
      <trkpt lat="39.8205400" lon="2.8741740">
        <ele>678.7</ele>
        <time>2018-12-30T14:10:40Z</time>
      </trkpt>
      <trkpt lat="39.8205550" lon="2.8742500">
        <ele>678.4</ele>
        <time>2018-12-30T14:10:41Z</time>
      </trkpt>
      <trkpt lat="39.8205600" lon="2.8743290">
        <ele>678.1</ele>
        <time>2018-12-30T14:10:42Z</time>
      </trkpt>
      <trkpt lat="39.8205390" lon="2.8744030">
        <ele>677.8</ele>
        <time>2018-12-30T14:10:43Z</time>
      </trkpt>
      <trkpt lat="39.8205090" lon="2.8744730">
        <ele>677.6</ele>
        <time>2018-12-30T14:10:44Z</time>
      </trkpt>
      <trkpt lat="39.8204710" lon="2.8745370">
        <ele>677.2</ele>
        <time>2018-12-30T14:10:45Z</time>
      </trkpt>
      <trkpt lat="39.8204440" lon="2.8746020">
        <ele>676.9</ele>
        <time>2018-12-30T14:10:46Z</time>
      </trkpt>
      <trkpt lat="39.8204150" lon="2.8746660">
        <ele>676.4</ele>
        <time>2018-12-30T14:10:47Z</time>
      </trkpt>
      <trkpt lat="39.8203860" lon="2.8747270">
        <ele>675.9</ele>
        <time>2018-12-30T14:10:48Z</time>
      </trkpt>
      <trkpt lat="39.8203530" lon="2.8747870">
        <ele>675.5</ele>
        <time>2018-12-30T14:10:49Z</time>
      </trkpt>
      <trkpt lat="39.8203090" lon="2.8748630">
        <ele>675.0</ele>
        <time>2018-12-30T14:10:50Z</time>
      </trkpt>
      <trkpt lat="39.8202660" lon="2.8749480">
        <ele>674.3</ele>
        <time>2018-12-30T14:10:51Z</time>
      </trkpt>
      <trkpt lat="39.8202320" lon="2.8750440">
        <ele>673.7</ele>
        <time>2018-12-30T14:10:52Z</time>
      </trkpt>
      <trkpt lat="39.8202160" lon="2.8751300">
        <ele>673.1</ele>
        <time>2018-12-30T14:10:53Z</time>
      </trkpt>
      <trkpt lat="39.8202010" lon="2.8752200">
        <ele>672.5</ele>
        <time>2018-12-30T14:10:54Z</time>
      </trkpt>
      <trkpt lat="39.8201830" lon="2.8753460">
        <ele>671.7</ele>
        <time>2018-12-30T14:10:55Z</time>
      </trkpt>
      <trkpt lat="39.8201540" lon="2.8754850">
        <ele>670.8</ele>
        <time>2018-12-30T14:10:56Z</time>
      </trkpt>
      <trkpt lat="39.8201180" lon="2.8756290">
        <ele>669.9</ele>
        <time>2018-12-30T14:10:57Z</time>
      </trkpt>
      <trkpt lat="39.8200730" lon="2.8757460">
        <ele>669.3</ele>
        <time>2018-12-30T14:10:58Z</time>
      </trkpt>
      <trkpt lat="39.8200240" lon="2.8758610">
        <ele>668.7</ele>
        <time>2018-12-30T14:10:59Z</time>
      </trkpt>
      <trkpt lat="39.8199700" lon="2.8759710">
        <ele>668.1</ele>
        <time>2018-12-30T14:11:00Z</time>
      </trkpt>
      <trkpt lat="39.8199120" lon="2.8760760">
        <ele>667.7</ele>
        <time>2018-12-30T14:11:01Z</time>
      </trkpt>
      <trkpt lat="39.8198450" lon="2.8761680">
        <ele>667.3</ele>
        <time>2018-12-30T14:11:02Z</time>
      </trkpt>
      <trkpt lat="39.8197760" lon="2.8762520">
        <ele>666.8</ele>
        <time>2018-12-30T14:11:03Z</time>
      </trkpt>
      <trkpt lat="39.8196900" lon="2.8763150">
        <ele>666.3</ele>
        <time>2018-12-30T14:11:04Z</time>
      </trkpt>
      <trkpt lat="39.8195920" lon="2.8763680">
        <ele>665.4</ele>
        <time>2018-12-30T14:11:05Z</time>
      </trkpt>
      <trkpt lat="39.8194880" lon="2.8763920">
        <ele>664.5</ele>
        <time>2018-12-30T14:11:06Z</time>
      </trkpt>
      <trkpt lat="39.8193810" lon="2.8764150">
        <ele>663.6</ele>
        <time>2018-12-30T14:11:07Z</time>
      </trkpt>
      <trkpt lat="39.8192760" lon="2.8764260">
        <ele>662.9</ele>
        <time>2018-12-30T14:11:08Z</time>
      </trkpt>
      <trkpt lat="39.8191660" lon="2.8764500">
        <ele>662.5</ele>
        <time>2018-12-30T14:11:09Z</time>
      </trkpt>
      <trkpt lat="39.8190560" lon="2.8764700">
        <ele>662.0</ele>
        <time>2018-12-30T14:11:10Z</time>
      </trkpt>
      <trkpt lat="39.8189490" lon="2.8764940">
        <ele>661.5</ele>
        <time>2018-12-30T14:11:11Z</time>
      </trkpt>
      <trkpt lat="39.8188430" lon="2.8765160">
        <ele>660.9</ele>
        <time>2018-12-30T14:11:12Z</time>
      </trkpt>
      <trkpt lat="39.8187400" lon="2.8765670">
        <ele>660.4</ele>
        <time>2018-12-30T14:11:13Z</time>
      </trkpt>
      <trkpt lat="39.8186370" lon="2.8766410">
        <ele>660.0</ele>
        <time>2018-12-30T14:11:14Z</time>
      </trkpt>
      <trkpt lat="39.8185420" lon="2.8767360">
        <ele>659.6</ele>
        <time>2018-12-30T14:11:15Z</time>
      </trkpt>
      <trkpt lat="39.8184640" lon="2.8768370">
        <ele>659.1</ele>
        <time>2018-12-30T14:11:16Z</time>
      </trkpt>
      <trkpt lat="39.8184010" lon="2.8769430">
        <ele>658.4</ele>
        <time>2018-12-30T14:11:17Z</time>
      </trkpt>
      <trkpt lat="39.8183390" lon="2.8770560">
        <ele>657.6</ele>
        <time>2018-12-30T14:11:18Z</time>
      </trkpt>
      <trkpt lat="39.8182670" lon="2.8771600">
        <ele>656.8</ele>
        <time>2018-12-30T14:11:19Z</time>
      </trkpt>
      <trkpt lat="39.8181850" lon="2.8772550">
        <ele>656.2</ele>
        <time>2018-12-30T14:11:20Z</time>
      </trkpt>
      <trkpt lat="39.8180950" lon="2.8773350">
        <ele>655.8</ele>
        <time>2018-12-30T14:11:21Z</time>
      </trkpt>
      <trkpt lat="39.8180060" lon="2.8773780">
        <ele>655.5</ele>
        <time>2018-12-30T14:11:22Z</time>
      </trkpt>
      <trkpt lat="39.8179200" lon="2.8773930">
        <ele>655.2</ele>
        <time>2018-12-30T14:11:23Z</time>
      </trkpt>
      <trkpt lat="39.8178320" lon="2.8773850">
        <ele>654.8</ele>
        <time>2018-12-30T14:11:24Z</time>
      </trkpt>
      <trkpt lat="39.8177180" lon="2.8773480">
        <ele>654.0</ele>
        <time>2018-12-30T14:11:25Z</time>
      </trkpt>
      <trkpt lat="39.8176010" lon="2.8773010">
        <ele>652.7</ele>
        <time>2018-12-30T14:11:26Z</time>
      </trkpt>
      <trkpt lat="39.8174840" lon="2.8772480">
        <ele>651.5</ele>
        <time>2018-12-30T14:11:27Z</time>
      </trkpt>
      <trkpt lat="39.8173860" lon="2.8772170">
        <ele>650.9</ele>
        <time>2018-12-30T14:11:28Z</time>
      </trkpt>
      <trkpt lat="39.8172920" lon="2.8771890">
        <ele>650.6</ele>
        <time>2018-12-30T14:11:29Z</time>
      </trkpt>
      <trkpt lat="39.8172000" lon="2.8771660">
        <ele>650.1</ele>
        <time>2018-12-30T14:11:30Z</time>
      </trkpt>
      <trkpt lat="39.8171210" lon="2.8771480">
        <ele>649.7</ele>
        <time>2018-12-30T14:11:31Z</time>
      </trkpt>
      <trkpt lat="39.8170520" lon="2.8771450">
        <ele>649.3</ele>
        <time>2018-12-30T14:11:32Z</time>
      </trkpt>
      <trkpt lat="39.8169910" lon="2.8771650">
        <ele>649.0</ele>
        <time>2018-12-30T14:11:33Z</time>
      </trkpt>
      <trkpt lat="39.8169330" lon="2.8772200">
        <ele>648.7</ele>
        <time>2018-12-30T14:11:34Z</time>
      </trkpt>
      <trkpt lat="39.8168710" lon="2.8773220">
        <ele>648.3</ele>
        <time>2018-12-30T14:11:35Z</time>
      </trkpt>
      <trkpt lat="39.8168290" lon="2.8774480">
        <ele>647.7</ele>
        <time>2018-12-30T14:11:36Z</time>
      </trkpt>
      <trkpt lat="39.8168120" lon="2.8775940">
        <ele>646.6</ele>
        <time>2018-12-30T14:11:37Z</time>
      </trkpt>
      <trkpt lat="39.8168250" lon="2.8777250">
        <ele>645.6</ele>
        <time>2018-12-30T14:11:38Z</time>
      </trkpt>
      <trkpt lat="39.8168440" lon="2.8778460">
        <ele>644.7</ele>
        <time>2018-12-30T14:11:39Z</time>
      </trkpt>
      <trkpt lat="39.8168640" lon="2.8779490">
        <ele>644.2</ele>
        <time>2018-12-30T14:11:40Z</time>
      </trkpt>
      <trkpt lat="39.8168840" lon="2.8780370">
        <ele>643.9</ele>
        <time>2018-12-30T14:11:41Z</time>
      </trkpt>
      <trkpt lat="39.8169000" lon="2.8781130">
        <ele>643.7</ele>
        <time>2018-12-30T14:11:42Z</time>
      </trkpt>
      <trkpt lat="39.8168930" lon="2.8781750">
        <ele>643.6</ele>
        <time>2018-12-30T14:11:43Z</time>
      </trkpt>
      <trkpt lat="39.8168420" lon="2.8782260">
        <ele>643.4</ele>
        <time>2018-12-30T14:11:44Z</time>
      </trkpt>
      <trkpt lat="39.8167520" lon="2.8782340">
        <ele>643.0</ele>
        <time>2018-12-30T14:11:45Z</time>
      </trkpt>
      <trkpt lat="39.8166620" lon="2.8782220">
        <ele>642.6</ele>
        <time>2018-12-30T14:11:46Z</time>
      </trkpt>
      <trkpt lat="39.8165950" lon="2.8781910">
        <ele>642.3</ele>
        <time>2018-12-30T14:11:47Z</time>
      </trkpt>
      <trkpt lat="39.8165490" lon="2.8781780">
        <ele>642.1</ele>
        <time>2018-12-30T14:11:48Z</time>
      </trkpt>
      <trkpt lat="39.8164930" lon="2.8781700">
        <ele>641.8</ele>
        <time>2018-12-30T14:11:49Z</time>
      </trkpt>
      <trkpt lat="39.8164270" lon="2.8781620">
        <ele>641.5</ele>
        <time>2018-12-30T14:11:50Z</time>
      </trkpt>
      <trkpt lat="39.8163160" lon="2.8781490">
        <ele>640.8</ele>
        <time>2018-12-30T14:11:51Z</time>
      </trkpt>
      <trkpt lat="39.8162760" lon="2.8781440">
        <ele>640.4</ele>
        <time>2018-12-30T14:11:52Z</time>
      </trkpt>
      <trkpt lat="39.8161970" lon="2.8781410">
        <ele>639.7</ele>
        <time>2018-12-30T14:11:53Z</time>
      </trkpt>
      <trkpt lat="39.8161140" lon="2.8781500">
        <ele>638.8</ele>
        <time>2018-12-30T14:11:54Z</time>
      </trkpt>
      <trkpt lat="39.8160350" lon="2.8781800">
        <ele>638.1</ele>
        <time>2018-12-30T14:11:55Z</time>
      </trkpt>
      <trkpt lat="39.8159540" lon="2.8782800">
        <ele>637.2</ele>
        <time>2018-12-30T14:11:56Z</time>
      </trkpt>
      <trkpt lat="39.8158770" lon="2.8784130">
        <ele>636.3</ele>
        <time>2018-12-30T14:11:57Z</time>
      </trkpt>
      <trkpt lat="39.8158070" lon="2.8785600">
        <ele>635.3</ele>
        <time>2018-12-30T14:11:58Z</time>
      </trkpt>
      <trkpt lat="39.8157450" lon="2.8786740">
        <ele>634.2</ele>
        <time>2018-12-30T14:11:59Z</time>
      </trkpt>
      <trkpt lat="39.8156850" lon="2.8787830">
        <ele>633.1</ele>
        <time>2018-12-30T14:12:00Z</time>
      </trkpt>
      <trkpt lat="39.8156300" lon="2.8789000">
        <ele>632.0</ele>
        <time>2018-12-30T14:12:01Z</time>
      </trkpt>
      <trkpt lat="39.8155800" lon="2.8790240">
        <ele>630.9</ele>
        <time>2018-12-30T14:12:02Z</time>
      </trkpt>
      <trkpt lat="39.8155400" lon="2.8791590">
        <ele>629.6</ele>
        <time>2018-12-30T14:12:03Z</time>
      </trkpt>
      <trkpt lat="39.8155150" lon="2.8792960">
        <ele>628.7</ele>
        <time>2018-12-30T14:12:04Z</time>
      </trkpt>
      <trkpt lat="39.8155080" lon="2.8794330">
        <ele>628.0</ele>
        <time>2018-12-30T14:12:05Z</time>
      </trkpt>
      <trkpt lat="39.8155250" lon="2.8795830">
        <ele>627.0</ele>
        <time>2018-12-30T14:12:06Z</time>
      </trkpt>
      <trkpt lat="39.8155550" lon="2.8797520">
        <ele>626.0</ele>
        <time>2018-12-30T14:12:07Z</time>
      </trkpt>
      <trkpt lat="39.8155910" lon="2.8799260">
        <ele>625.4</ele>
        <time>2018-12-30T14:12:08Z</time>
      </trkpt>
      <trkpt lat="39.8156250" lon="2.8800900">
        <ele>624.8</ele>
        <time>2018-12-30T14:12:09Z</time>
      </trkpt>
      <trkpt lat="39.8156500" lon="2.8802390">
        <ele>624.1</ele>
        <time>2018-12-30T14:12:10Z</time>
      </trkpt>
      <trkpt lat="39.8156670" lon="2.8803800">
        <ele>623.5</ele>
        <time>2018-12-30T14:12:11Z</time>
      </trkpt>
      <trkpt lat="39.8156770" lon="2.8805110">
        <ele>622.9</ele>
        <time>2018-12-30T14:12:12Z</time>
      </trkpt>
      <trkpt lat="39.8156740" lon="2.8806350">
        <ele>622.4</ele>
        <time>2018-12-30T14:12:13Z</time>
      </trkpt>
      <trkpt lat="39.8156660" lon="2.8807540">
        <ele>621.8</ele>
        <time>2018-12-30T14:12:14Z</time>
      </trkpt>
      <trkpt lat="39.8156450" lon="2.8808690">
        <ele>621.3</ele>
        <time>2018-12-30T14:12:15Z</time>
      </trkpt>
      <trkpt lat="39.8156180" lon="2.8809830">
        <ele>620.9</ele>
        <time>2018-12-30T14:12:16Z</time>
      </trkpt>
      <trkpt lat="39.8155820" lon="2.8810940">
        <ele>620.3</ele>
        <time>2018-12-30T14:12:17Z</time>
      </trkpt>
      <trkpt lat="39.8155420" lon="2.8812000">
        <ele>619.8</ele>
        <time>2018-12-30T14:12:18Z</time>
      </trkpt>
      <trkpt lat="39.8155010" lon="2.8813020">
        <ele>619.2</ele>
        <time>2018-12-30T14:12:19Z</time>
      </trkpt>
      <trkpt lat="39.8154630" lon="2.8814010">
        <ele>618.7</ele>
        <time>2018-12-30T14:12:20Z</time>
      </trkpt>
      <trkpt lat="39.8154290" lon="2.8815090">
        <ele>618.2</ele>
        <time>2018-12-30T14:12:21Z</time>
      </trkpt>
      <trkpt lat="39.8153940" lon="2.8816210">
        <ele>617.8</ele>
        <time>2018-12-30T14:12:22Z</time>
      </trkpt>
      <trkpt lat="39.8153750" lon="2.8817390">
        <ele>617.3</ele>
        <time>2018-12-30T14:12:23Z</time>
      </trkpt>
      <trkpt lat="39.8153730" lon="2.8818550">
        <ele>616.8</ele>
        <time>2018-12-30T14:12:24Z</time>
      </trkpt>
      <trkpt lat="39.8153830" lon="2.8819760">
        <ele>616.1</ele>
        <time>2018-12-30T14:12:25Z</time>
      </trkpt>
      <trkpt lat="39.8153870" lon="2.8821090">
        <ele>615.3</ele>
        <time>2018-12-30T14:12:26Z</time>
      </trkpt>
      <trkpt lat="39.8153920" lon="2.8822440">
        <ele>614.5</ele>
        <time>2018-12-30T14:12:27Z</time>
      </trkpt>
      <trkpt lat="39.8154030" lon="2.8823790">
        <ele>613.8</ele>
        <time>2018-12-30T14:12:28Z</time>
      </trkpt>
      <trkpt lat="39.8154180" lon="2.8825050">
        <ele>613.0</ele>
        <time>2018-12-30T14:12:29Z</time>
      </trkpt>
      <trkpt lat="39.8154260" lon="2.8826320">
        <ele>612.1</ele>
        <time>2018-12-30T14:12:30Z</time>
      </trkpt>
      <trkpt lat="39.8154290" lon="2.8827570">
        <ele>610.9</ele>
        <time>2018-12-30T14:12:31Z</time>
      </trkpt>
      <trkpt lat="39.8154250" lon="2.8828840">
        <ele>609.8</ele>
        <time>2018-12-30T14:12:32Z</time>
      </trkpt>
      <trkpt lat="39.8154150" lon="2.8830180">
        <ele>609.1</ele>
        <time>2018-12-30T14:12:33Z</time>
      </trkpt>
      <trkpt lat="39.8154020" lon="2.8831550">
        <ele>608.7</ele>
        <time>2018-12-30T14:12:34Z</time>
      </trkpt>
      <trkpt lat="39.8153910" lon="2.8832900">
        <ele>608.4</ele>
        <time>2018-12-30T14:12:35Z</time>
      </trkpt>
      <trkpt lat="39.8153830" lon="2.8834220">
        <ele>608.0</ele>
        <time>2018-12-30T14:12:36Z</time>
      </trkpt>
      <trkpt lat="39.8153770" lon="2.8835510">
        <ele>607.4</ele>
        <time>2018-12-30T14:12:37Z</time>
      </trkpt>
      <trkpt lat="39.8153730" lon="2.8836850">
        <ele>606.4</ele>
        <time>2018-12-30T14:12:38Z</time>
      </trkpt>
      <trkpt lat="39.8153690" lon="2.8838210">
        <ele>605.2</ele>
        <time>2018-12-30T14:12:39Z</time>
      </trkpt>
      <trkpt lat="39.8153670" lon="2.8839600">
        <ele>604.1</ele>
        <time>2018-12-30T14:12:40Z</time>
      </trkpt>
      <trkpt lat="39.8153640" lon="2.8841010">
        <ele>603.3</ele>
        <time>2018-12-30T14:12:41Z</time>
      </trkpt>
      <trkpt lat="39.8153570" lon="2.8842400">
        <ele>602.8</ele>
        <time>2018-12-30T14:12:42Z</time>
      </trkpt>
      <trkpt lat="39.8153490" lon="2.8843760">
        <ele>602.3</ele>
        <time>2018-12-30T14:12:43Z</time>
      </trkpt>
      <trkpt lat="39.8153350" lon="2.8844990">
        <ele>601.6</ele>
        <time>2018-12-30T14:12:44Z</time>
      </trkpt>
      <trkpt lat="39.8153280" lon="2.8846230">
        <ele>601.0</ele>
        <time>2018-12-30T14:12:45Z</time>
      </trkpt>
      <trkpt lat="39.8153210" lon="2.8847460">
        <ele>600.2</ele>
        <time>2018-12-30T14:12:46Z</time>
      </trkpt>
      <trkpt lat="39.8153220" lon="2.8848740">
        <ele>599.5</ele>
        <time>2018-12-30T14:12:47Z</time>
      </trkpt>
      <trkpt lat="39.8153220" lon="2.8850000">
        <ele>598.7</ele>
        <time>2018-12-30T14:12:48Z</time>
      </trkpt>
      <trkpt lat="39.8153310" lon="2.8851210">
        <ele>598.0</ele>
        <time>2018-12-30T14:12:49Z</time>
      </trkpt>
      <trkpt lat="39.8153690" lon="2.8852240">
        <ele>597.5</ele>
        <time>2018-12-30T14:12:50Z</time>
      </trkpt>
      <trkpt lat="39.8154150" lon="2.8853290">
        <ele>596.9</ele>
        <time>2018-12-30T14:12:51Z</time>
      </trkpt>
      <trkpt lat="39.8154720" lon="2.8854420">
        <ele>596.1</ele>
        <time>2018-12-30T14:12:52Z</time>
      </trkpt>
      <trkpt lat="39.8155100" lon="2.8855760">
        <ele>595.1</ele>
        <time>2018-12-30T14:12:53Z</time>
      </trkpt>
      <trkpt lat="39.8155480" lon="2.8857150">
        <ele>594.2</ele>
        <time>2018-12-30T14:12:54Z</time>
      </trkpt>
      <trkpt lat="39.8155870" lon="2.8858540">
        <ele>593.5</ele>
        <time>2018-12-30T14:12:55Z</time>
      </trkpt>
      <trkpt lat="39.8156430" lon="2.8859920">
        <ele>592.6</ele>
        <time>2018-12-30T14:12:56Z</time>
      </trkpt>
      <trkpt lat="39.8157100" lon="2.8861220">
        <ele>591.6</ele>
        <time>2018-12-30T14:12:57Z</time>
      </trkpt>
      <trkpt lat="39.8157810" lon="2.8862430">
        <ele>590.7</ele>
        <time>2018-12-30T14:12:58Z</time>
      </trkpt>
      <trkpt lat="39.8158400" lon="2.8863540">
        <ele>590.0</ele>
        <time>2018-12-30T14:12:59Z</time>
      </trkpt>
      <trkpt lat="39.8158840" lon="2.8864650">
        <ele>589.3</ele>
        <time>2018-12-30T14:13:00Z</time>
      </trkpt>
      <trkpt lat="39.8159130" lon="2.8865770">
        <ele>588.6</ele>
        <time>2018-12-30T14:13:01Z</time>
      </trkpt>
      <trkpt lat="39.8159340" lon="2.8866910">
        <ele>588.9</ele>
        <time>2018-12-30T14:13:02Z</time>
      </trkpt>
      <trkpt lat="39.8159470" lon="2.8868080">
        <ele>589.2</ele>
        <time>2018-12-30T14:13:03Z</time>
      </trkpt>
      <trkpt lat="39.8159490" lon="2.8869310">
        <ele>589.4</ele>
        <time>2018-12-30T14:13:04Z</time>
      </trkpt>
      <trkpt lat="39.8159320" lon="2.8870620">
        <ele>589.7</ele>
        <time>2018-12-30T14:13:05Z</time>
      </trkpt>
      <trkpt lat="39.8158880" lon="2.8871830">
        <ele>590.1</ele>
        <time>2018-12-30T14:13:06Z</time>
      </trkpt>
      <trkpt lat="39.8158190" lon="2.8872860">
        <ele>590.3</ele>
        <time>2018-12-30T14:13:07Z</time>
      </trkpt>
      <trkpt lat="39.8157360" lon="2.8873810">
        <ele>590.6</ele>
        <time>2018-12-30T14:13:08Z</time>
      </trkpt>
      <trkpt lat="39.8156620" lon="2.8874790">
        <ele>590.9</ele>
        <time>2018-12-30T14:13:09Z</time>
      </trkpt>
      <trkpt lat="39.8156030" lon="2.8875890">
        <ele>591.2</ele>
        <time>2018-12-30T14:13:10Z</time>
      </trkpt>
      <trkpt lat="39.8155530" lon="2.8877000">
        <ele>591.5</ele>
        <time>2018-12-30T14:13:11Z</time>
      </trkpt>
      <trkpt lat="39.8154930" lon="2.8878050">
        <ele>591.9</ele>
        <time>2018-12-30T14:13:12Z</time>
      </trkpt>
      <trkpt lat="39.8154300" lon="2.8879080">
        <ele>592.4</ele>
        <time>2018-12-30T14:13:13Z</time>
      </trkpt>
      <trkpt lat="39.8153520" lon="2.8880100">
        <ele>592.9</ele>
        <time>2018-12-30T14:13:14Z</time>
      </trkpt>
      <trkpt lat="39.8152660" lon="2.8881000">
        <ele>593.5</ele>
        <time>2018-12-30T14:13:15Z</time>
      </trkpt>
      <trkpt lat="39.8151670" lon="2.8881750">
        <ele>594.2</ele>
        <time>2018-12-30T14:13:16Z</time>
      </trkpt>
      <trkpt lat="39.8150710" lon="2.8882390">
        <ele>593.8</ele>
        <time>2018-12-30T14:13:17Z</time>
      </trkpt>
      <trkpt lat="39.8149790" lon="2.8883070">
        <ele>593.3</ele>
        <time>2018-12-30T14:13:18Z</time>
      </trkpt>
      <trkpt lat="39.8148850" lon="2.8883800">
        <ele>592.7</ele>
        <time>2018-12-30T14:13:19Z</time>
      </trkpt>
      <trkpt lat="39.8147900" lon="2.8884540">
        <ele>592.2</ele>
        <time>2018-12-30T14:13:20Z</time>
      </trkpt>
      <trkpt lat="39.8146960" lon="2.8885270">
        <ele>591.7</ele>
        <time>2018-12-30T14:13:21Z</time>
      </trkpt>
      <trkpt lat="39.8146020" lon="2.8886010">
        <ele>591.2</ele>
        <time>2018-12-30T14:13:22Z</time>
      </trkpt>
      <trkpt lat="39.8145090" lon="2.8886730">
        <ele>590.7</ele>
        <time>2018-12-30T14:13:23Z</time>
      </trkpt>
      <trkpt lat="39.8144150" lon="2.8887430">
        <ele>590.3</ele>
        <time>2018-12-30T14:13:24Z</time>
      </trkpt>
      <trkpt lat="39.8143210" lon="2.8888120">
        <ele>589.9</ele>
        <time>2018-12-30T14:13:25Z</time>
      </trkpt>
      <trkpt lat="39.8142280" lon="2.8888810">
        <ele>589.3</ele>
        <time>2018-12-30T14:13:26Z</time>
      </trkpt>
      <trkpt lat="39.8141370" lon="2.8889490">
        <ele>588.8</ele>
        <time>2018-12-30T14:13:27Z</time>
      </trkpt>
      <trkpt lat="39.8140470" lon="2.8890140">
        <ele>588.3</ele>
        <time>2018-12-30T14:13:28Z</time>
      </trkpt>
      <trkpt lat="39.8139570" lon="2.8890770">
        <ele>587.8</ele>
        <time>2018-12-30T14:13:29Z</time>
      </trkpt>
      <trkpt lat="39.8138660" lon="2.8891370">
        <ele>587.3</ele>
        <time>2018-12-30T14:13:30Z</time>
      </trkpt>
      <trkpt lat="39.8137750" lon="2.8891950">
        <ele>586.9</ele>
        <time>2018-12-30T14:13:31Z</time>
      </trkpt>
      <trkpt lat="39.8136840" lon="2.8892520">
        <ele>586.5</ele>
        <time>2018-12-30T14:13:32Z</time>
      </trkpt>
      <trkpt lat="39.8135940" lon="2.8893090">
        <ele>586.1</ele>
        <time>2018-12-30T14:13:33Z</time>
      </trkpt>
      <trkpt lat="39.8135050" lon="2.8893630">
        <ele>585.7</ele>
        <time>2018-12-30T14:13:34Z</time>
      </trkpt>
      <trkpt lat="39.8134120" lon="2.8894060">
        <ele>585.5</ele>
        <time>2018-12-30T14:13:35Z</time>
      </trkpt>
      <trkpt lat="39.8133150" lon="2.8894410">
        <ele>585.3</ele>
        <time>2018-12-30T14:13:36Z</time>
      </trkpt>
      <trkpt lat="39.8132170" lon="2.8894720">
        <ele>585.4</ele>
        <time>2018-12-30T14:13:37Z</time>
      </trkpt>
      <trkpt lat="39.8131210" lon="2.8895070">
        <ele>585.7</ele>
        <time>2018-12-30T14:13:38Z</time>
      </trkpt>
      <trkpt lat="39.8130290" lon="2.8895420">
        <ele>586.0</ele>
        <time>2018-12-30T14:13:39Z</time>
      </trkpt>
      <trkpt lat="39.8129410" lon="2.8895720">
        <ele>586.5</ele>
        <time>2018-12-30T14:13:40Z</time>
      </trkpt>
      <trkpt lat="39.8128640" lon="2.8895920">
        <ele>587.0</ele>
        <time>2018-12-30T14:13:41Z</time>
      </trkpt>
      <trkpt lat="39.8128000" lon="2.8896080">
        <ele>587.5</ele>
        <time>2018-12-30T14:13:42Z</time>
      </trkpt>
      <trkpt lat="39.8127500" lon="2.8896200">
        <ele>587.9</ele>
        <time>2018-12-30T14:13:43Z</time>
      </trkpt>
      <trkpt lat="39.8127030" lon="2.8896340">
        <ele>587.8</ele>
        <time>2018-12-30T14:13:44Z</time>
      </trkpt>
      <trkpt lat="39.8127230" lon="2.8897090">
        <ele>587.7</ele>
        <time>2018-12-30T14:37:04Z</time>
      </trkpt>
      <trkpt lat="39.8127480" lon="2.8897050">
        <ele>587.6</ele>
        <time>2018-12-30T14:37:05Z</time>
      </trkpt>
      <trkpt lat="39.8128060" lon="2.8897000">
        <ele>587.5</ele>
        <time>2018-12-30T14:37:06Z</time>
      </trkpt>
      <trkpt lat="39.8128710" lon="2.8896970">
        <ele>587.3</ele>
        <time>2018-12-30T14:37:07Z</time>
      </trkpt>
      <trkpt lat="39.8129350" lon="2.8896890">
        <ele>587.2</ele>
        <time>2018-12-30T14:37:08Z</time>
      </trkpt>
      <trkpt lat="39.8130010" lon="2.8896790">
        <ele>587.1</ele>
        <time>2018-12-30T14:37:09Z</time>
      </trkpt>
      <trkpt lat="39.8130670" lon="2.8896670">
        <ele>586.9</ele>
        <time>2018-12-30T14:37:10Z</time>
      </trkpt>
      <trkpt lat="39.8131280" lon="2.8896540">
        <ele>586.8</ele>
        <time>2018-12-30T14:37:11Z</time>
      </trkpt>
      <trkpt lat="39.8131870" lon="2.8896390">
        <ele>586.7</ele>
        <time>2018-12-30T14:37:12Z</time>
      </trkpt>
      <trkpt lat="39.8132420" lon="2.8896240">
        <ele>586.6</ele>
        <time>2018-12-30T14:37:13Z</time>
      </trkpt>
      <trkpt lat="39.8132930" lon="2.8896130">
        <ele>586.5</ele>
        <time>2018-12-30T14:37:14Z</time>
      </trkpt>
      <trkpt lat="39.8133260" lon="2.8896100">
        <ele>586.5</ele>
        <time>2018-12-30T14:37:15Z</time>
      </trkpt>
      <trkpt lat="39.8133470" lon="2.8896120">
        <ele>586.4</ele>
        <time>2018-12-30T14:37:16Z</time>
      </trkpt>
      <trkpt lat="39.8133600" lon="2.8896130">
        <ele>586.4</ele>
        <time>2018-12-30T14:37:17Z</time>
      </trkpt>
      <trkpt lat="39.8133780" lon="2.8896120">
        <ele>586.4</ele>
        <time>2018-12-30T14:37:18Z</time>
      </trkpt>
      <trkpt lat="39.8133720" lon="2.8896020">
        <ele>586.4</ele>
        <time>2018-12-30T14:37:19Z</time>
      </trkpt>
      <trkpt lat="39.8133390" lon="2.8895920">
        <ele>586.3</ele>
        <time>2018-12-30T14:37:20Z</time>
      </trkpt>
      <trkpt lat="39.8132590" lon="2.8895820">
        <ele>586.2</ele>
        <time>2018-12-30T14:37:21Z</time>
      </trkpt>
      <trkpt lat="39.8131750" lon="2.8895790">
        <ele>586.1</ele>
        <time>2018-12-30T14:37:22Z</time>
      </trkpt>
      <trkpt lat="39.8128360" lon="2.8896050">
        <ele>585.7</ele>
        <time>2018-12-30T14:38:03Z</time>
      </trkpt>
      <trkpt lat="39.8128790" lon="2.8895970">
        <ele>585.7</ele>
        <time>2018-12-30T14:38:04Z</time>
      </trkpt>
      <trkpt lat="39.8129230" lon="2.8895910">
        <ele>585.6</ele>
        <time>2018-12-30T14:38:05Z</time>
      </trkpt>
      <trkpt lat="39.8129740" lon="2.8895910">
        <ele>585.6</ele>
        <time>2018-12-30T14:38:06Z</time>
      </trkpt>
      <trkpt lat="39.8130330" lon="2.8895830">
        <ele>585.5</ele>
        <time>2018-12-30T14:38:07Z</time>
      </trkpt>
      <trkpt lat="39.8130940" lon="2.8895740">
        <ele>585.5</ele>
        <time>2018-12-30T14:38:08Z</time>
      </trkpt>
      <trkpt lat="39.8131550" lon="2.8895630">
        <ele>585.5</ele>
        <time>2018-12-30T14:38:09Z</time>
      </trkpt>
      <trkpt lat="39.8132050" lon="2.8895690">
        <ele>585.4</ele>
        <time>2018-12-30T14:38:10Z</time>
      </trkpt>
      <trkpt lat="39.8132540" lon="2.8895820">
        <ele>585.4</ele>
        <time>2018-12-30T14:38:11Z</time>
      </trkpt>
      <trkpt lat="39.8132990" lon="2.8896060">
        <ele>583.3</ele>
        <time>2018-12-30T14:38:12Z</time>
      </trkpt>
      <trkpt lat="39.8133430" lon="2.8896370">
        <ele>582.3</ele>
        <time>2018-12-30T14:38:13Z</time>
      </trkpt>
      <trkpt lat="39.8133840" lon="2.8896750">
        <ele>581.2</ele>
        <time>2018-12-30T14:38:14Z</time>
      </trkpt>
      <trkpt lat="39.8134240" lon="2.8897170">
        <ele>579.8</ele>
        <time>2018-12-30T14:38:15Z</time>
      </trkpt>
      <trkpt lat="39.8134680" lon="2.8897640">
        <ele>578.3</ele>
        <time>2018-12-30T14:38:16Z</time>
      </trkpt>
      <trkpt lat="39.8135110" lon="2.8898220">
        <ele>576.6</ele>
        <time>2018-12-30T14:38:17Z</time>
      </trkpt>
      <trkpt lat="39.8135550" lon="2.8898790">
        <ele>575.0</ele>
        <time>2018-12-30T14:38:18Z</time>
      </trkpt>
      <trkpt lat="39.8135910" lon="2.8899390">
        <ele>573.4</ele>
        <time>2018-12-30T14:38:19Z</time>
      </trkpt>
      <trkpt lat="39.8136160" lon="2.8899990">
        <ele>572.1</ele>
        <time>2018-12-30T14:38:20Z</time>
      </trkpt>
      <trkpt lat="39.8136440" lon="2.8900670">
        <ele>571.0</ele>
        <time>2018-12-30T14:38:21Z</time>
      </trkpt>
      <trkpt lat="39.8136810" lon="2.8901360">
        <ele>569.9</ele>
        <time>2018-12-30T14:38:22Z</time>
      </trkpt>
      <trkpt lat="39.8137260" lon="2.8902040">
        <ele>567.5</ele>
        <time>2018-12-30T14:38:23Z</time>
      </trkpt>
      <trkpt lat="39.8137680" lon="2.8902720">
        <ele>567.3</ele>
        <time>2018-12-30T14:38:24Z</time>
      </trkpt>
      <trkpt lat="39.8138090" lon="2.8903390">
        <ele>567.0</ele>
        <time>2018-12-30T14:38:25Z</time>
      </trkpt>
      <trkpt lat="39.8138500" lon="2.8904050">
        <ele>566.7</ele>
        <time>2018-12-30T14:38:26Z</time>
      </trkpt>
      <trkpt lat="39.8139050" lon="2.8904740">
        <ele>566.4</ele>
        <time>2018-12-30T14:38:27Z</time>
      </trkpt>
      <trkpt lat="39.8139780" lon="2.8905420">
        <ele>566.0</ele>
        <time>2018-12-30T14:38:28Z</time>
      </trkpt>
      <trkpt lat="39.8140610" lon="2.8906150">
        <ele>565.4</ele>
        <time>2018-12-30T14:38:29Z</time>
      </trkpt>
      <trkpt lat="39.8141410" lon="2.8906970">
        <ele>564.8</ele>
        <time>2018-12-30T14:38:30Z</time>
      </trkpt>
      <trkpt lat="39.8142050" lon="2.8907890">
        <ele>564.1</ele>
        <time>2018-12-30T14:38:31Z</time>
      </trkpt>
      <trkpt lat="39.8142600" lon="2.8909050">
        <ele>563.3</ele>
        <time>2018-12-30T14:38:32Z</time>
      </trkpt>
      <trkpt lat="39.8142970" lon="2.8910420">
        <ele>562.5</ele>
        <time>2018-12-30T14:38:33Z</time>
      </trkpt>
      <trkpt lat="39.8143290" lon="2.8911850">
        <ele>561.7</ele>
        <time>2018-12-30T14:38:34Z</time>
      </trkpt>
      <trkpt lat="39.8143580" lon="2.8913180">
        <ele>561.1</ele>
        <time>2018-12-30T14:38:35Z</time>
      </trkpt>
      <trkpt lat="39.8143960" lon="2.8914360">
        <ele>561.6</ele>
        <time>2018-12-30T14:38:36Z</time>
      </trkpt>
      <trkpt lat="39.8144310" lon="2.8915580">
        <ele>563.0</ele>
        <time>2018-12-30T14:38:37Z</time>
      </trkpt>
      <trkpt lat="39.8144700" lon="2.8916810">
        <ele>564.3</ele>
        <time>2018-12-30T14:38:38Z</time>
      </trkpt>
      <trkpt lat="39.8145090" lon="2.8918040">
        <ele>565.5</ele>
        <time>2018-12-30T14:38:39Z</time>
      </trkpt>
      <trkpt lat="39.8145470" lon="2.8919260">
        <ele>566.3</ele>
        <time>2018-12-30T14:38:40Z</time>
      </trkpt>
      <trkpt lat="39.8145890" lon="2.8920480">
        <ele>566.7</ele>
        <time>2018-12-30T14:38:41Z</time>
      </trkpt>
      <trkpt lat="39.8146460" lon="2.8921710">
        <ele>566.3</ele>
        <time>2018-12-30T14:38:42Z</time>
      </trkpt>
      <trkpt lat="39.8147250" lon="2.8922920">
        <ele>565.6</ele>
        <time>2018-12-30T14:38:43Z</time>
      </trkpt>
      <trkpt lat="39.8148060" lon="2.8924160">
        <ele>564.7</ele>
        <time>2018-12-30T14:38:44Z</time>
      </trkpt>
      <trkpt lat="39.8148770" lon="2.8925440">
        <ele>563.8</ele>
        <time>2018-12-30T14:38:45Z</time>
      </trkpt>
      <trkpt lat="39.8149260" lon="2.8926760">
        <ele>563.1</ele>
        <time>2018-12-30T14:38:46Z</time>
      </trkpt>
      <trkpt lat="39.8149680" lon="2.8928080">
        <ele>562.4</ele>
        <time>2018-12-30T14:38:47Z</time>
      </trkpt>
      <trkpt lat="39.8150000" lon="2.8929470">
        <ele>561.8</ele>
        <time>2018-12-30T14:38:48Z</time>
      </trkpt>
      <trkpt lat="39.8150330" lon="2.8930840">
        <ele>561.2</ele>
        <time>2018-12-30T14:38:49Z</time>
      </trkpt>
      <trkpt lat="39.8150640" lon="2.8932220">
        <ele>560.5</ele>
        <time>2018-12-30T14:38:50Z</time>
      </trkpt>
      <trkpt lat="39.8150960" lon="2.8933620">
        <ele>559.8</ele>
        <time>2018-12-30T14:38:51Z</time>
      </trkpt>
      <trkpt lat="39.8151220" lon="2.8935090">
        <ele>559.1</ele>
        <time>2018-12-30T14:38:52Z</time>
      </trkpt>
      <trkpt lat="39.8151460" lon="2.8936610">
        <ele>558.5</ele>
        <time>2018-12-30T14:38:53Z</time>
      </trkpt>
      <trkpt lat="39.8151700" lon="2.8938100">
        <ele>557.9</ele>
        <time>2018-12-30T14:38:54Z</time>
      </trkpt>
      <trkpt lat="39.8151820" lon="2.8939690">
        <ele>557.2</ele>
        <time>2018-12-30T14:38:55Z</time>
      </trkpt>
      <trkpt lat="39.8151950" lon="2.8941250">
        <ele>556.6</ele>
        <time>2018-12-30T14:38:56Z</time>
      </trkpt>
      <trkpt lat="39.8151980" lon="2.8942850">
        <ele>555.8</ele>
        <time>2018-12-30T14:38:57Z</time>
      </trkpt>
      <trkpt lat="39.8152130" lon="2.8944370">
        <ele>555.0</ele>
        <time>2018-12-30T14:38:58Z</time>
      </trkpt>
      <trkpt lat="39.8152200" lon="2.8945930">
        <ele>554.3</ele>
        <time>2018-12-30T14:38:59Z</time>
      </trkpt>
      <trkpt lat="39.8152330" lon="2.8947540">
        <ele>553.7</ele>
        <time>2018-12-30T14:39:00Z</time>
      </trkpt>
      <trkpt lat="39.8152440" lon="2.8949130">
        <ele>553.3</ele>
        <time>2018-12-30T14:39:01Z</time>
      </trkpt>
      <trkpt lat="39.8152670" lon="2.8950750">
        <ele>552.9</ele>
        <time>2018-12-30T14:39:02Z</time>
      </trkpt>
      <trkpt lat="39.8152930" lon="2.8952370">
        <ele>552.5</ele>
        <time>2018-12-30T14:39:03Z</time>
      </trkpt>
      <trkpt lat="39.8153230" lon="2.8954000">
        <ele>552.1</ele>
        <time>2018-12-30T14:39:04Z</time>
      </trkpt>
      <trkpt lat="39.8153480" lon="2.8955580">
        <ele>551.8</ele>
        <time>2018-12-30T14:39:05Z</time>
      </trkpt>
      <trkpt lat="39.8153800" lon="2.8957120">
        <ele>551.6</ele>
        <time>2018-12-30T14:39:06Z</time>
      </trkpt>
      <trkpt lat="39.8154190" lon="2.8958630">
        <ele>551.5</ele>
        <time>2018-12-30T14:39:07Z</time>
      </trkpt>
      <trkpt lat="39.8154830" lon="2.8959870">
        <ele>551.6</ele>
        <time>2018-12-30T14:39:08Z</time>
      </trkpt>
      <trkpt lat="39.8155430" lon="2.8960990">
        <ele>551.6</ele>
        <time>2018-12-30T14:39:09Z</time>
      </trkpt>
      <trkpt lat="39.8156060" lon="2.8961890">
        <ele>551.4</ele>
        <time>2018-12-30T14:39:10Z</time>
      </trkpt>
      <trkpt lat="39.8156470" lon="2.8962740">
        <ele>551.1</ele>
        <time>2018-12-30T14:39:11Z</time>
      </trkpt>
      <trkpt lat="39.8156970" lon="2.8962870">
        <ele>550.7</ele>
        <time>2018-12-30T14:39:12Z</time>
      </trkpt>
      <trkpt lat="39.8157580" lon="2.8962650">
        <ele>550.2</ele>
        <time>2018-12-30T14:39:13Z</time>
      </trkpt>
      <trkpt lat="39.8158300" lon="2.8962190">
        <ele>549.8</ele>
        <time>2018-12-30T14:39:14Z</time>
      </trkpt>
      <trkpt lat="39.8159080" lon="2.8961990">
        <ele>549.0</ele>
        <time>2018-12-30T14:39:15Z</time>
      </trkpt>
      <trkpt lat="39.8159590" lon="2.8961690">
        <ele>548.4</ele>
        <time>2018-12-30T14:39:16Z</time>
      </trkpt>
      <trkpt lat="39.8159960" lon="2.8961300">
        <ele>548.0</ele>
        <time>2018-12-30T14:39:17Z</time>
      </trkpt>
      <trkpt lat="39.8160550" lon="2.8960330">
        <ele>547.0</ele>
        <time>2018-12-30T14:39:18Z</time>
      </trkpt>
      <trkpt lat="39.8160840" lon="2.8959890">
        <ele>546.6</ele>
        <time>2018-12-30T14:39:19Z</time>
      </trkpt>
      <trkpt lat="39.8161140" lon="2.8959450">
        <ele>546.2</ele>
        <time>2018-12-30T14:39:20Z</time>
      </trkpt>
      <trkpt lat="39.8161620" lon="2.8958640">
        <ele>545.4</ele>
        <time>2018-12-30T14:39:21Z</time>
      </trkpt>
      <trkpt lat="39.8162230" lon="2.8957800">
        <ele>544.4</ele>
        <time>2018-12-30T14:39:22Z</time>
      </trkpt>
      <trkpt lat="39.8162920" lon="2.8956940">
        <ele>543.1</ele>
        <time>2018-12-30T14:39:23Z</time>
      </trkpt>
      <trkpt lat="39.8163610" lon="2.8955990">
        <ele>541.4</ele>
        <time>2018-12-30T14:39:24Z</time>
      </trkpt>
      <trkpt lat="39.8164200" lon="2.8954820">
        <ele>539.1</ele>
        <time>2018-12-30T14:39:25Z</time>
      </trkpt>
      <trkpt lat="39.8164690" lon="2.8953520">
        <ele>536.4</ele>
        <time>2018-12-30T14:39:26Z</time>
      </trkpt>
      <trkpt lat="39.8165150" lon="2.8952190">
        <ele>533.4</ele>
        <time>2018-12-30T14:39:27Z</time>
      </trkpt>
      <trkpt lat="39.8165590" lon="2.8950930">
        <ele>532.1</ele>
        <time>2018-12-30T14:39:28Z</time>
      </trkpt>
      <trkpt lat="39.8166030" lon="2.8949700">
        <ele>530.9</ele>
        <time>2018-12-30T14:39:29Z</time>
      </trkpt>
      <trkpt lat="39.8166470" lon="2.8948510">
        <ele>529.8</ele>
        <time>2018-12-30T14:39:30Z</time>
      </trkpt>
      <trkpt lat="39.8166950" lon="2.8947380">
        <ele>528.8</ele>
        <time>2018-12-30T14:39:31Z</time>
      </trkpt>
      <trkpt lat="39.8167580" lon="2.8946300">
        <ele>527.8</ele>
        <time>2018-12-30T14:39:32Z</time>
      </trkpt>
      <trkpt lat="39.8168350" lon="2.8945370">
        <ele>526.8</ele>
        <time>2018-12-30T14:39:33Z</time>
      </trkpt>
      <trkpt lat="39.8169210" lon="2.8944580">
        <ele>525.8</ele>
        <time>2018-12-30T14:39:34Z</time>
      </trkpt>
      <trkpt lat="39.8170090" lon="2.8944050">
        <ele>524.8</ele>
        <time>2018-12-30T14:39:35Z</time>
      </trkpt>
      <trkpt lat="39.8170970" lon="2.8943600">
        <ele>523.8</ele>
        <time>2018-12-30T14:39:36Z</time>
      </trkpt>
      <trkpt lat="39.8171860" lon="2.8943230">
        <ele>522.3</ele>
        <time>2018-12-30T14:39:37Z</time>
      </trkpt>
      <trkpt lat="39.8172660" lon="2.8942700">
        <ele>521.4</ele>
        <time>2018-12-30T14:39:38Z</time>
      </trkpt>
      <trkpt lat="39.8173370" lon="2.8942060">
        <ele>520.4</ele>
        <time>2018-12-30T14:39:39Z</time>
      </trkpt>
      <trkpt lat="39.8173990" lon="2.8941250">
        <ele>519.5</ele>
        <time>2018-12-30T14:39:40Z</time>
      </trkpt>
      <trkpt lat="39.8174440" lon="2.8940180">
        <ele>518.5</ele>
        <time>2018-12-30T14:39:41Z</time>
      </trkpt>
      <trkpt lat="39.8174790" lon="2.8938930">
        <ele>518.5</ele>
        <time>2018-12-30T14:39:42Z</time>
      </trkpt>
      <trkpt lat="39.8175070" lon="2.8937570">
        <ele>518.1</ele>
        <time>2018-12-30T14:39:43Z</time>
      </trkpt>
      <trkpt lat="39.8175440" lon="2.8936240">
        <ele>517.8</ele>
        <time>2018-12-30T14:39:44Z</time>
      </trkpt>
      <trkpt lat="39.8175820" lon="2.8934890">
        <ele>517.6</ele>
        <time>2018-12-30T14:39:45Z</time>
      </trkpt>
      <trkpt lat="39.8176210" lon="2.8933530">
        <ele>517.7</ele>
        <time>2018-12-30T14:39:46Z</time>
      </trkpt>
      <trkpt lat="39.8176580" lon="2.8932190">
        <ele>518.1</ele>
        <time>2018-12-30T14:39:47Z</time>
      </trkpt>
      <trkpt lat="39.8176970" lon="2.8930860">
        <ele>518.9</ele>
        <time>2018-12-30T14:39:48Z</time>
      </trkpt>
      <trkpt lat="39.8177410" lon="2.8929650">
        <ele>519.8</ele>
        <time>2018-12-30T14:39:49Z</time>
      </trkpt>
      <trkpt lat="39.8178010" lon="2.8929020">
        <ele>520.6</ele>
        <time>2018-12-30T14:39:50Z</time>
      </trkpt>
      <trkpt lat="39.8179010" lon="2.8928820">
        <ele>521.7</ele>
        <time>2018-12-30T14:39:51Z</time>
      </trkpt>
      <trkpt lat="39.8180150" lon="2.8928910">
        <ele>523.0</ele>
        <time>2018-12-30T14:39:52Z</time>
      </trkpt>
      <trkpt lat="39.8181340" lon="2.8928860">
        <ele>523.5</ele>
        <time>2018-12-30T14:39:53Z</time>
      </trkpt>
      <trkpt lat="39.8182240" lon="2.8928740">
        <ele>523.4</ele>
        <time>2018-12-30T14:39:54Z</time>
      </trkpt>
      <trkpt lat="39.8183100" lon="2.8928700">
        <ele>523.1</ele>
        <time>2018-12-30T14:39:55Z</time>
      </trkpt>
      <trkpt lat="39.8184030" lon="2.8928650">
        <ele>522.7</ele>
        <time>2018-12-30T14:39:56Z</time>
      </trkpt>
      <trkpt lat="39.8185060" lon="2.8928650">
        <ele>522.0</ele>
        <time>2018-12-30T14:39:57Z</time>
      </trkpt>
      <trkpt lat="39.8186150" lon="2.8928610">
        <ele>521.3</ele>
        <time>2018-12-30T14:39:58Z</time>
      </trkpt>
      <trkpt lat="39.8187260" lon="2.8928560">
        <ele>520.3</ele>
        <time>2018-12-30T14:39:59Z</time>
      </trkpt>
      <trkpt lat="39.8188360" lon="2.8928500">
        <ele>519.3</ele>
        <time>2018-12-30T14:40:00Z</time>
      </trkpt>
      <trkpt lat="39.8189520" lon="2.8928420">
        <ele>517.9</ele>
        <time>2018-12-30T14:40:01Z</time>
      </trkpt>
      <trkpt lat="39.8190680" lon="2.8928360">
        <ele>516.4</ele>
        <time>2018-12-30T14:40:02Z</time>
      </trkpt>
      <trkpt lat="39.8191860" lon="2.8928350">
        <ele>514.7</ele>
        <time>2018-12-30T14:40:03Z</time>
      </trkpt>
      <trkpt lat="39.8193020" lon="2.8928340">
        <ele>513.0</ele>
        <time>2018-12-30T14:40:04Z</time>
      </trkpt>
      <trkpt lat="39.8194160" lon="2.8928350">
        <ele>511.3</ele>
        <time>2018-12-30T14:40:05Z</time>
      </trkpt>
      <trkpt lat="39.8195230" lon="2.8928330">
        <ele>509.6</ele>
        <time>2018-12-30T14:40:06Z</time>
      </trkpt>
      <trkpt lat="39.8196260" lon="2.8928210">
        <ele>508.7</ele>
        <time>2018-12-30T14:40:07Z</time>
      </trkpt>
      <trkpt lat="39.8197260" lon="2.8927840">
        <ele>507.6</ele>
        <time>2018-12-30T14:40:08Z</time>
      </trkpt>
      <trkpt lat="39.8198170" lon="2.8927200">
        <ele>506.6</ele>
        <time>2018-12-30T14:40:09Z</time>
      </trkpt>
      <trkpt lat="39.8199010" lon="2.8926390">
        <ele>505.5</ele>
        <time>2018-12-30T14:40:10Z</time>
      </trkpt>
      <trkpt lat="39.8199780" lon="2.8925500">
        <ele>504.2</ele>
        <time>2018-12-30T14:40:11Z</time>
      </trkpt>
      <trkpt lat="39.8200570" lon="2.8924720">
        <ele>502.5</ele>
        <time>2018-12-30T14:40:12Z</time>
      </trkpt>
      <trkpt lat="39.8201440" lon="2.8924250">
        <ele>501.1</ele>
        <time>2018-12-30T14:40:13Z</time>
      </trkpt>
      <trkpt lat="39.8202400" lon="2.8924090">
        <ele>499.9</ele>
        <time>2018-12-30T14:40:14Z</time>
      </trkpt>
      <trkpt lat="39.8203410" lon="2.8924120">
        <ele>498.5</ele>
        <time>2018-12-30T14:40:15Z</time>
      </trkpt>
      <trkpt lat="39.8204390" lon="2.8924180">
        <ele>496.7</ele>
        <time>2018-12-30T14:40:16Z</time>
      </trkpt>
      <trkpt lat="39.8205280" lon="2.8924270">
        <ele>495.3</ele>
        <time>2018-12-30T14:40:17Z</time>
      </trkpt>
      <trkpt lat="39.8206070" lon="2.8924490">
        <ele>495.0</ele>
        <time>2018-12-30T14:40:18Z</time>
      </trkpt>
      <trkpt lat="39.8206750" lon="2.8924890">
        <ele>494.7</ele>
        <time>2018-12-30T14:40:19Z</time>
      </trkpt>
      <trkpt lat="39.8207320" lon="2.8925550">
        <ele>494.5</ele>
        <time>2018-12-30T14:40:20Z</time>
      </trkpt>
      <trkpt lat="39.8207690" lon="2.8926370">
        <ele>494.6</ele>
        <time>2018-12-30T14:40:21Z</time>
      </trkpt>
      <trkpt lat="39.8207800" lon="2.8927290">
        <ele>494.6</ele>
        <time>2018-12-30T14:40:22Z</time>
      </trkpt>
      <trkpt lat="39.8207590" lon="2.8928230">
        <ele>494.7</ele>
        <time>2018-12-30T14:40:23Z</time>
      </trkpt>
      <trkpt lat="39.8207250" lon="2.8929150">
        <ele>494.8</ele>
        <time>2018-12-30T14:40:24Z</time>
      </trkpt>
      <trkpt lat="39.8206890" lon="2.8930070">
        <ele>494.9</ele>
        <time>2018-12-30T14:40:25Z</time>
      </trkpt>
      <trkpt lat="39.8206600" lon="2.8931020">
        <ele>495.1</ele>
        <time>2018-12-30T14:40:26Z</time>
      </trkpt>
      <trkpt lat="39.8206320" lon="2.8931970">
        <ele>495.2</ele>
        <time>2018-12-30T14:40:27Z</time>
      </trkpt>
      <trkpt lat="39.8206060" lon="2.8932930">
        <ele>495.3</ele>
        <time>2018-12-30T14:40:28Z</time>
      </trkpt>
      <trkpt lat="39.8205810" lon="2.8933910">
        <ele>495.4</ele>
        <time>2018-12-30T14:40:29Z</time>
      </trkpt>
      <trkpt lat="39.8205570" lon="2.8934880">
        <ele>495.5</ele>
        <time>2018-12-30T14:40:30Z</time>
      </trkpt>
      <trkpt lat="39.8205340" lon="2.8935860">
        <ele>495.6</ele>
        <time>2018-12-30T14:40:31Z</time>
      </trkpt>
      <trkpt lat="39.8205230" lon="2.8936850">
        <ele>495.7</ele>
        <time>2018-12-30T14:40:32Z</time>
      </trkpt>
      <trkpt lat="39.8205190" lon="2.8937840">
        <ele>495.9</ele>
        <time>2018-12-30T14:40:33Z</time>
      </trkpt>
      <trkpt lat="39.8205290" lon="2.8938840">
        <ele>496.0</ele>
        <time>2018-12-30T14:40:34Z</time>
      </trkpt>
      <trkpt lat="39.8205390" lon="2.8939800">
        <ele>496.2</ele>
        <time>2018-12-30T14:40:35Z</time>
      </trkpt>
      <trkpt lat="39.8205560" lon="2.8940750">
        <ele>496.4</ele>
        <time>2018-12-30T14:40:36Z</time>
      </trkpt>
      <trkpt lat="39.8205750" lon="2.8941650">
        <ele>496.5</ele>
        <time>2018-12-30T14:40:37Z</time>
      </trkpt>
      <trkpt lat="39.8205970" lon="2.8942500">
        <ele>496.7</ele>
        <time>2018-12-30T14:40:38Z</time>
      </trkpt>
      <trkpt lat="39.8206200" lon="2.8943280">
        <ele>496.9</ele>
        <time>2018-12-30T14:40:39Z</time>
      </trkpt>
      <trkpt lat="39.8206490" lon="2.8944030">
        <ele>497.1</ele>
        <time>2018-12-30T14:40:40Z</time>
      </trkpt>
      <trkpt lat="39.8206790" lon="2.8944730">
        <ele>497.2</ele>
        <time>2018-12-30T14:40:41Z</time>
      </trkpt>
      <trkpt lat="39.8207080" lon="2.8945350">
        <ele>497.4</ele>
        <time>2018-12-30T14:40:42Z</time>
      </trkpt>
      <trkpt lat="39.8207310" lon="2.8945910">
        <ele>497.6</ele>
        <time>2018-12-30T14:40:43Z</time>
      </trkpt>
      <trkpt lat="39.8207530" lon="2.8946400">
        <ele>497.7</ele>
        <time>2018-12-30T14:40:44Z</time>
      </trkpt>
      <trkpt lat="39.8207750" lon="2.8946860">
        <ele>497.8</ele>
        <time>2018-12-30T14:40:45Z</time>
      </trkpt>
      <trkpt lat="39.8208020" lon="2.8947290">
        <ele>497.9</ele>
        <time>2018-12-30T14:40:46Z</time>
      </trkpt>
      <trkpt lat="39.8208320" lon="2.8947720">
        <ele>498.0</ele>
        <time>2018-12-30T14:40:47Z</time>
      </trkpt>
      <trkpt lat="39.8208630" lon="2.8948140">
        <ele>498.1</ele>
        <time>2018-12-30T14:40:48Z</time>
      </trkpt>
      <trkpt lat="39.8208920" lon="2.8948580">
        <ele>498.2</ele>
        <time>2018-12-30T14:40:49Z</time>
      </trkpt>
      <trkpt lat="39.8209220" lon="2.8949030">
        <ele>498.2</ele>
        <time>2018-12-30T14:40:50Z</time>
      </trkpt>
      <trkpt lat="39.8209520" lon="2.8949500">
        <ele>498.3</ele>
        <time>2018-12-30T14:40:51Z</time>
      </trkpt>
      <trkpt lat="39.8209780" lon="2.8949950">
        <ele>498.3</ele>
        <time>2018-12-30T14:40:52Z</time>
      </trkpt>
      <trkpt lat="39.8210000" lon="2.8950380">
        <ele>498.4</ele>
        <time>2018-12-30T14:40:53Z</time>
      </trkpt>
      <trkpt lat="39.8210210" lon="2.8950800">
        <ele>498.4</ele>
        <time>2018-12-30T14:40:54Z</time>
      </trkpt>
      <trkpt lat="39.8210490" lon="2.8951230">
        <ele>498.5</ele>
        <time>2018-12-30T14:40:55Z</time>
      </trkpt>
      <trkpt lat="39.8210760" lon="2.8951670">
        <ele>498.6</ele>
        <time>2018-12-30T14:40:56Z</time>
      </trkpt>
      <trkpt lat="39.8211060" lon="2.8952110">
        <ele>498.7</ele>
        <time>2018-12-30T14:40:57Z</time>
      </trkpt>
      <trkpt lat="39.8211330" lon="2.8952540">
        <ele>498.8</ele>
        <time>2018-12-30T14:40:58Z</time>
      </trkpt>
      <trkpt lat="39.8211630" lon="2.8952970">
        <ele>499.0</ele>
        <time>2018-12-30T14:40:59Z</time>
      </trkpt>
      <trkpt lat="39.8211880" lon="2.8953380">
        <ele>499.1</ele>
        <time>2018-12-30T14:41:00Z</time>
      </trkpt>
      <trkpt lat="39.8212130" lon="2.8953780">
        <ele>499.3</ele>
        <time>2018-12-30T14:41:01Z</time>
      </trkpt>
      <trkpt lat="39.8212340" lon="2.8954190">
        <ele>499.5</ele>
        <time>2018-12-30T14:41:02Z</time>
      </trkpt>
      <trkpt lat="39.8212650" lon="2.8954620">
        <ele>499.7</ele>
        <time>2018-12-30T14:41:03Z</time>
      </trkpt>
      <trkpt lat="39.8212980" lon="2.8955070">
        <ele>499.9</ele>
        <time>2018-12-30T14:41:04Z</time>
      </trkpt>
      <trkpt lat="39.8213330" lon="2.8955510">
        <ele>500.2</ele>
        <time>2018-12-30T14:41:05Z</time>
      </trkpt>
      <trkpt lat="39.8213520" lon="2.8955920">
        <ele>500.4</ele>
        <time>2018-12-30T14:41:06Z</time>
      </trkpt>
      <trkpt lat="39.8213740" lon="2.8956340">
        <ele>500.7</ele>
        <time>2018-12-30T14:41:07Z</time>
      </trkpt>
      <trkpt lat="39.8213950" lon="2.8956780">
        <ele>500.9</ele>
        <time>2018-12-30T14:41:08Z</time>
      </trkpt>
      <trkpt lat="39.8214210" lon="2.8957230">
        <ele>501.2</ele>
        <time>2018-12-30T14:41:09Z</time>
      </trkpt>
      <trkpt lat="39.8214510" lon="2.8957690">
        <ele>501.4</ele>
        <time>2018-12-30T14:41:10Z</time>
      </trkpt>
      <trkpt lat="39.8214860" lon="2.8958160">
        <ele>501.7</ele>
        <time>2018-12-30T14:41:11Z</time>
      </trkpt>
      <trkpt lat="39.8215260" lon="2.8958630">
        <ele>501.9</ele>
        <time>2018-12-30T14:41:12Z</time>
      </trkpt>
      <trkpt lat="39.8215650" lon="2.8959110">
        <ele>502.1</ele>
        <time>2018-12-30T14:41:13Z</time>
      </trkpt>
      <trkpt lat="39.8216050" lon="2.8959610">
        <ele>502.4</ele>
        <time>2018-12-30T14:41:14Z</time>
      </trkpt>
      <trkpt lat="39.8216400" lon="2.8960120">
        <ele>502.6</ele>
        <time>2018-12-30T14:41:15Z</time>
      </trkpt>
      <trkpt lat="39.8216760" lon="2.8960640">
        <ele>502.8</ele>
        <time>2018-12-30T14:41:16Z</time>
      </trkpt>
      <trkpt lat="39.8217100" lon="2.8961150">
        <ele>503.0</ele>
        <time>2018-12-30T14:41:17Z</time>
      </trkpt>
      <trkpt lat="39.8217480" lon="2.8961650">
        <ele>503.2</ele>
        <time>2018-12-30T14:41:18Z</time>
      </trkpt>
      <trkpt lat="39.8217800" lon="2.8962130">
        <ele>503.4</ele>
        <time>2018-12-30T14:41:19Z</time>
      </trkpt>
      <trkpt lat="39.8218150" lon="2.8962630">
        <ele>503.6</ele>
        <time>2018-12-30T14:41:20Z</time>
      </trkpt>
      <trkpt lat="39.8218490" lon="2.8963140">
        <ele>503.8</ele>
        <time>2018-12-30T14:41:21Z</time>
      </trkpt>
      <trkpt lat="39.8218810" lon="2.8963640">
        <ele>504.1</ele>
        <time>2018-12-30T14:41:22Z</time>
      </trkpt>
      <trkpt lat="39.8219180" lon="2.8964150">
        <ele>504.4</ele>
        <time>2018-12-30T14:41:23Z</time>
      </trkpt>
      <trkpt lat="39.8219580" lon="2.8964650">
        <ele>504.6</ele>
        <time>2018-12-30T14:41:24Z</time>
      </trkpt>
      <trkpt lat="39.8219990" lon="2.8965150">
        <ele>505.0</ele>
        <time>2018-12-30T14:41:25Z</time>
      </trkpt>
      <trkpt lat="39.8220350" lon="2.8965640">
        <ele>505.3</ele>
        <time>2018-12-30T14:41:26Z</time>
      </trkpt>
      <trkpt lat="39.8220650" lon="2.8966130">
        <ele>505.6</ele>
        <time>2018-12-30T14:41:27Z</time>
      </trkpt>
      <trkpt lat="39.8220960" lon="2.8966630">
        <ele>505.9</ele>
        <time>2018-12-30T14:41:28Z</time>
      </trkpt>
      <trkpt lat="39.8221300" lon="2.8967100">
        <ele>506.2</ele>
        <time>2018-12-30T14:41:29Z</time>
      </trkpt>
      <trkpt lat="39.8221650" lon="2.8967540">
        <ele>506.5</ele>
        <time>2018-12-30T14:41:30Z</time>
      </trkpt>
      <trkpt lat="39.8222000" lon="2.8967930">
        <ele>506.8</ele>
        <time>2018-12-30T14:41:31Z</time>
      </trkpt>
      <trkpt lat="39.8222260" lon="2.8968280">
        <ele>507.1</ele>
        <time>2018-12-30T14:41:32Z</time>
      </trkpt>
      <trkpt lat="39.8226130" lon="2.8971530">
        <ele>510.2</ele>
        <time>2018-12-30T14:42:08Z</time>
      </trkpt>
      <trkpt lat="39.8226320" lon="2.8971920">
        <ele>510.5</ele>
        <time>2018-12-30T14:42:09Z</time>
      </trkpt>
      <trkpt lat="39.8226540" lon="2.8972370">
        <ele>510.8</ele>
        <time>2018-12-30T14:42:10Z</time>
      </trkpt>
      <trkpt lat="39.8226740" lon="2.8972840">
        <ele>511.1</ele>
        <time>2018-12-30T14:42:11Z</time>
      </trkpt>
      <trkpt lat="39.8227000" lon="2.8973320">
        <ele>511.5</ele>
        <time>2018-12-30T14:42:12Z</time>
      </trkpt>
      <trkpt lat="39.8227300" lon="2.8973820">
        <ele>512.0</ele>
        <time>2018-12-30T14:42:13Z</time>
      </trkpt>
      <trkpt lat="39.8227640" lon="2.8974340">
        <ele>512.5</ele>
        <time>2018-12-30T14:42:14Z</time>
      </trkpt>
      <trkpt lat="39.8227940" lon="2.8974870">
        <ele>513.0</ele>
        <time>2018-12-30T14:42:15Z</time>
      </trkpt>
      <trkpt lat="39.8228260" lon="2.8975380">
        <ele>513.4</ele>
        <time>2018-12-30T14:42:16Z</time>
      </trkpt>
      <trkpt lat="39.8228560" lon="2.8975900">
        <ele>513.8</ele>
        <time>2018-12-30T14:42:17Z</time>
      </trkpt>
      <trkpt lat="39.8228870" lon="2.8976440">
        <ele>514.1</ele>
        <time>2018-12-30T14:42:18Z</time>
      </trkpt>
      <trkpt lat="39.8229170" lon="2.8976980">
        <ele>514.4</ele>
        <time>2018-12-30T14:42:19Z</time>
      </trkpt>
      <trkpt lat="39.8229540" lon="2.8977540">
        <ele>514.7</ele>
        <time>2018-12-30T14:42:20Z</time>
      </trkpt>
      <trkpt lat="39.8229980" lon="2.8978100">
        <ele>514.9</ele>
        <time>2018-12-30T14:42:21Z</time>
      </trkpt>
      <trkpt lat="39.8230440" lon="2.8978680">
        <ele>515.1</ele>
        <time>2018-12-30T14:42:22Z</time>
      </trkpt>
      <trkpt lat="39.8230890" lon="2.8979240">
        <ele>515.2</ele>
        <time>2018-12-30T14:42:23Z</time>
      </trkpt>
      <trkpt lat="39.8231300" lon="2.8979790">
        <ele>515.4</ele>
        <time>2018-12-30T14:42:24Z</time>
      </trkpt>
      <trkpt lat="39.8231670" lon="2.8980310">
        <ele>515.6</ele>
        <time>2018-12-30T14:42:25Z</time>
      </trkpt>
      <trkpt lat="39.8232040" lon="2.8980810">
        <ele>515.8</ele>
        <time>2018-12-30T14:42:26Z</time>
      </trkpt>
      <trkpt lat="39.8232390" lon="2.8981330">
        <ele>516.1</ele>
        <time>2018-12-30T14:42:27Z</time>
      </trkpt>
      <trkpt lat="39.8232740" lon="2.8981850">
        <ele>516.4</ele>
        <time>2018-12-30T14:42:28Z</time>
      </trkpt>
      <trkpt lat="39.8233060" lon="2.8982370">
        <ele>516.7</ele>
        <time>2018-12-30T14:42:29Z</time>
      </trkpt>
      <trkpt lat="39.8233420" lon="2.8982890">
        <ele>517.1</ele>
        <time>2018-12-30T14:42:30Z</time>
      </trkpt>
      <trkpt lat="39.8233870" lon="2.8983440">
        <ele>517.6</ele>
        <time>2018-12-30T14:42:31Z</time>
      </trkpt>
      <trkpt lat="39.8234390" lon="2.8983980">
        <ele>518.1</ele>
        <time>2018-12-30T14:42:32Z</time>
      </trkpt>
      <trkpt lat="39.8234890" lon="2.8984510">
        <ele>518.6</ele>
        <time>2018-12-30T14:42:33Z</time>
      </trkpt>
      <trkpt lat="39.8235300" lon="2.8984980">
        <ele>519.0</ele>
        <time>2018-12-30T14:42:34Z</time>
      </trkpt>
      <trkpt lat="39.8235750" lon="2.8985440">
        <ele>519.4</ele>
        <time>2018-12-30T14:42:35Z</time>
      </trkpt>
      <trkpt lat="39.8236330" lon="2.8985910">
        <ele>519.9</ele>
        <time>2018-12-30T14:42:36Z</time>
      </trkpt>
      <trkpt lat="39.8236950" lon="2.8986390">
        <ele>520.4</ele>
        <time>2018-12-30T14:42:37Z</time>
      </trkpt>
      <trkpt lat="39.8237560" lon="2.8986830">
        <ele>520.9</ele>
        <time>2018-12-30T14:42:38Z</time>
      </trkpt>
      <trkpt lat="39.8238080" lon="2.8987250">
        <ele>521.3</ele>
        <time>2018-12-30T14:42:39Z</time>
      </trkpt>
      <trkpt lat="39.8238630" lon="2.8987650">
        <ele>521.8</ele>
        <time>2018-12-30T14:42:40Z</time>
      </trkpt>
      <trkpt lat="39.8239160" lon="2.8988050">
        <ele>522.4</ele>
        <time>2018-12-30T14:42:41Z</time>
      </trkpt>
      <trkpt lat="39.8239690" lon="2.8988450">
        <ele>523.0</ele>
        <time>2018-12-30T14:42:42Z</time>
      </trkpt>
      <trkpt lat="39.8240130" lon="2.8988830">
        <ele>523.6</ele>
        <time>2018-12-30T14:42:43Z</time>
      </trkpt>
      <trkpt lat="39.8240520" lon="2.8989200">
        <ele>524.2</ele>
        <time>2018-12-30T14:42:44Z</time>
      </trkpt>
      <trkpt lat="39.8240900" lon="2.8989540">
        <ele>524.8</ele>
        <time>2018-12-30T14:42:45Z</time>
      </trkpt>
      <trkpt lat="39.8241330" lon="2.8989910">
        <ele>525.4</ele>
        <time>2018-12-30T14:42:46Z</time>
      </trkpt>
      <trkpt lat="39.8241810" lon="2.8990300">
        <ele>526.0</ele>
        <time>2018-12-30T14:42:47Z</time>
      </trkpt>
      <trkpt lat="39.8242320" lon="2.8990710">
        <ele>526.6</ele>
        <time>2018-12-30T14:42:48Z</time>
      </trkpt>
      <trkpt lat="39.8242860" lon="2.8991080">
        <ele>527.1</ele>
        <time>2018-12-30T14:42:49Z</time>
      </trkpt>
      <trkpt lat="39.8243390" lon="2.8991450">
        <ele>527.4</ele>
        <time>2018-12-30T14:42:50Z</time>
      </trkpt>
      <trkpt lat="39.8243890" lon="2.8991840">
        <ele>527.6</ele>
        <time>2018-12-30T14:42:51Z</time>
      </trkpt>
      <trkpt lat="39.8244370" lon="2.8992240">
        <ele>527.8</ele>
        <time>2018-12-30T14:42:52Z</time>
      </trkpt>
      <trkpt lat="39.8244850" lon="2.8992640">
        <ele>527.8</ele>
        <time>2018-12-30T14:42:53Z</time>
      </trkpt>
      <trkpt lat="39.8245320" lon="2.8993050">
        <ele>527.9</ele>
        <time>2018-12-30T14:42:54Z</time>
      </trkpt>
      <trkpt lat="39.8245770" lon="2.8993450">
        <ele>528.0</ele>
        <time>2018-12-30T14:42:55Z</time>
      </trkpt>
      <trkpt lat="39.8246210" lon="2.8993820">
        <ele>528.0</ele>
        <time>2018-12-30T14:42:56Z</time>
      </trkpt>
      <trkpt lat="39.8246630" lon="2.8994210">
        <ele>528.1</ele>
        <time>2018-12-30T14:42:57Z</time>
      </trkpt>
      <trkpt lat="39.8247070" lon="2.8994600">
        <ele>528.2</ele>
        <time>2018-12-30T14:42:58Z</time>
      </trkpt>
      <trkpt lat="39.8247490" lon="2.8995000">
        <ele>528.3</ele>
        <time>2018-12-30T14:42:59Z</time>
      </trkpt>
      <trkpt lat="39.8247900" lon="2.8995340">
        <ele>528.5</ele>
        <time>2018-12-30T14:43:00Z</time>
      </trkpt>
      <trkpt lat="39.8248270" lon="2.8995690">
        <ele>528.6</ele>
        <time>2018-12-30T14:43:01Z</time>
      </trkpt>
      <trkpt lat="39.8248670" lon="2.8996060">
        <ele>528.8</ele>
        <time>2018-12-30T14:43:02Z</time>
      </trkpt>
      <trkpt lat="39.8249120" lon="2.8996440">
        <ele>529.1</ele>
        <time>2018-12-30T14:43:03Z</time>
      </trkpt>
      <trkpt lat="39.8249620" lon="2.8996810">
        <ele>529.4</ele>
        <time>2018-12-30T14:43:04Z</time>
      </trkpt>
      <trkpt lat="39.8250190" lon="2.8997150">
        <ele>529.8</ele>
        <time>2018-12-30T14:43:05Z</time>
      </trkpt>
      <trkpt lat="39.8250770" lon="2.8997470">
        <ele>530.2</ele>
        <time>2018-12-30T14:43:06Z</time>
      </trkpt>
      <trkpt lat="39.8251330" lon="2.8997740">
        <ele>530.6</ele>
        <time>2018-12-30T14:43:07Z</time>
      </trkpt>
      <trkpt lat="39.8251850" lon="2.8998000">
        <ele>531.0</ele>
        <time>2018-12-30T14:43:08Z</time>
      </trkpt>
      <trkpt lat="39.8252350" lon="2.8998250">
        <ele>531.3</ele>
        <time>2018-12-30T14:43:09Z</time>
      </trkpt>
      <trkpt lat="39.8252890" lon="2.8998500">
        <ele>531.7</ele>
        <time>2018-12-30T14:43:10Z</time>
      </trkpt>
      <trkpt lat="39.8253440" lon="2.8998700">
        <ele>532.1</ele>
        <time>2018-12-30T14:43:11Z</time>
      </trkpt>
      <trkpt lat="39.8254050" lon="2.8998870">
        <ele>532.5</ele>
        <time>2018-12-30T14:43:12Z</time>
      </trkpt>
      <trkpt lat="39.8254730" lon="2.8999000">
        <ele>533.0</ele>
        <time>2018-12-30T14:43:13Z</time>
      </trkpt>
      <trkpt lat="39.8255430" lon="2.8999100">
        <ele>533.5</ele>
        <time>2018-12-30T14:43:14Z</time>
      </trkpt>
      <trkpt lat="39.8256130" lon="2.8999150">
        <ele>534.0</ele>
        <time>2018-12-30T14:43:15Z</time>
      </trkpt>
      <trkpt lat="39.8256750" lon="2.8999170">
        <ele>534.4</ele>
        <time>2018-12-30T14:43:16Z</time>
      </trkpt>
      <trkpt lat="39.8257360" lon="2.8999160">
        <ele>534.8</ele>
        <time>2018-12-30T14:43:17Z</time>
      </trkpt>
      <trkpt lat="39.8257970" lon="2.8999110">
        <ele>535.1</ele>
        <time>2018-12-30T14:43:18Z</time>
      </trkpt>
      <trkpt lat="39.8258580" lon="2.8999060">
        <ele>535.5</ele>
        <time>2018-12-30T14:43:19Z</time>
      </trkpt>
      <trkpt lat="39.8259190" lon="2.8999010">
        <ele>535.9</ele>
        <time>2018-12-30T14:43:20Z</time>
      </trkpt>
      <trkpt lat="39.8259770" lon="2.8998980">
        <ele>536.2</ele>
        <time>2018-12-30T14:43:21Z</time>
      </trkpt>
      <trkpt lat="39.8260340" lon="2.8998940">
        <ele>536.5</ele>
        <time>2018-12-30T14:43:22Z</time>
      </trkpt>
      <trkpt lat="39.8260880" lon="2.8998890">
        <ele>536.7</ele>
        <time>2018-12-30T14:43:23Z</time>
      </trkpt>
      <trkpt lat="39.8261380" lon="2.8998840">
        <ele>536.9</ele>
        <time>2018-12-30T14:43:24Z</time>
      </trkpt>
      <trkpt lat="39.8261890" lon="2.8998790">
        <ele>537.2</ele>
        <time>2018-12-30T14:43:25Z</time>
      </trkpt>
      <trkpt lat="39.8262390" lon="2.8998740">
        <ele>537.4</ele>
        <time>2018-12-30T14:43:26Z</time>
      </trkpt>
      <trkpt lat="39.8262890" lon="2.8998680">
        <ele>537.7</ele>
        <time>2018-12-30T14:43:27Z</time>
      </trkpt>
      <trkpt lat="39.8263350" lon="2.8998630">
        <ele>537.9</ele>
        <time>2018-12-30T14:43:28Z</time>
      </trkpt>
      <trkpt lat="39.8263810" lon="2.8998590">
        <ele>538.1</ele>
        <time>2018-12-30T14:43:29Z</time>
      </trkpt>
      <trkpt lat="39.8264240" lon="2.8998570">
        <ele>538.3</ele>
        <time>2018-12-30T14:43:30Z</time>
      </trkpt>
      <trkpt lat="39.8264690" lon="2.8998540">
        <ele>538.6</ele>
        <time>2018-12-30T14:43:31Z</time>
      </trkpt>
      <trkpt lat="39.8265160" lon="2.8998490">
        <ele>538.8</ele>
        <time>2018-12-30T14:43:32Z</time>
      </trkpt>
      <trkpt lat="39.8265660" lon="2.8998410">
        <ele>539.0</ele>
        <time>2018-12-30T14:43:33Z</time>
      </trkpt>
      <trkpt lat="39.8266180" lon="2.8998330">
        <ele>539.3</ele>
        <time>2018-12-30T14:43:34Z</time>
      </trkpt>
      <trkpt lat="39.8266700" lon="2.8998270">
        <ele>539.5</ele>
        <time>2018-12-30T14:43:35Z</time>
      </trkpt>
      <trkpt lat="39.8267210" lon="2.8998210">
        <ele>539.8</ele>
        <time>2018-12-30T14:43:36Z</time>
      </trkpt>
      <trkpt lat="39.8267720" lon="2.8998110">
        <ele>540.1</ele>
        <time>2018-12-30T14:43:37Z</time>
      </trkpt>
      <trkpt lat="39.8268210" lon="2.8997980">
        <ele>540.3</ele>
        <time>2018-12-30T14:43:38Z</time>
      </trkpt>
      <trkpt lat="39.8268690" lon="2.8997790">
        <ele>540.6</ele>
        <time>2018-12-30T14:43:39Z</time>
      </trkpt>
      <trkpt lat="39.8269190" lon="2.8997580">
        <ele>540.8</ele>
        <time>2018-12-30T14:43:40Z</time>
      </trkpt>
      <trkpt lat="39.8269690" lon="2.8997320">
        <ele>541.1</ele>
        <time>2018-12-30T14:43:41Z</time>
      </trkpt>
      <trkpt lat="39.8270160" lon="2.8997020">
        <ele>541.4</ele>
        <time>2018-12-30T14:43:42Z</time>
      </trkpt>
      <trkpt lat="39.8270560" lon="2.8996650">
        <ele>541.7</ele>
        <time>2018-12-30T14:43:43Z</time>
      </trkpt>
      <trkpt lat="39.8270920" lon="2.8996240">
        <ele>542.0</ele>
        <time>2018-12-30T14:43:44Z</time>
      </trkpt>
      <trkpt lat="39.8271230" lon="2.8995770">
        <ele>542.3</ele>
        <time>2018-12-30T14:43:45Z</time>
      </trkpt>
      <trkpt lat="39.8271520" lon="2.8995280">
        <ele>542.6</ele>
        <time>2018-12-30T14:43:46Z</time>
      </trkpt>
      <trkpt lat="39.8271790" lon="2.8994780">
        <ele>542.9</ele>
        <time>2018-12-30T14:43:47Z</time>
      </trkpt>
      <trkpt lat="39.8272040" lon="2.8994270">
        <ele>543.2</ele>
        <time>2018-12-30T14:43:48Z</time>
      </trkpt>
      <trkpt lat="39.8272280" lon="2.8993740">
        <ele>543.6</ele>
        <time>2018-12-30T14:43:49Z</time>
      </trkpt>
      <trkpt lat="39.8272500" lon="2.8993200">
        <ele>543.9</ele>
        <time>2018-12-30T14:43:50Z</time>
      </trkpt>
      <trkpt lat="39.8272710" lon="2.8992660">
        <ele>544.2</ele>
        <time>2018-12-30T14:43:51Z</time>
      </trkpt>
      <trkpt lat="39.8272910" lon="2.8992110">
        <ele>544.5</ele>
        <time>2018-12-30T14:43:52Z</time>
      </trkpt>
      <trkpt lat="39.8273120" lon="2.8991570">
        <ele>544.8</ele>
        <time>2018-12-30T14:43:53Z</time>
      </trkpt>
      <trkpt lat="39.8273330" lon="2.8991050">
        <ele>545.1</ele>
        <time>2018-12-30T14:43:54Z</time>
      </trkpt>
      <trkpt lat="39.8273540" lon="2.8990540">
        <ele>545.4</ele>
        <time>2018-12-30T14:43:55Z</time>
      </trkpt>
      <trkpt lat="39.8273750" lon="2.8990050">
        <ele>545.7</ele>
        <time>2018-12-30T14:43:56Z</time>
      </trkpt>
      <trkpt lat="39.8273970" lon="2.8989550">
        <ele>545.9</ele>
        <time>2018-12-30T14:43:57Z</time>
      </trkpt>
      <trkpt lat="39.8274190" lon="2.8989060">
        <ele>546.2</ele>
        <time>2018-12-30T14:43:58Z</time>
      </trkpt>
      <trkpt lat="39.8274420" lon="2.8988570">
        <ele>546.4</ele>
        <time>2018-12-30T14:43:59Z</time>
      </trkpt>
      <trkpt lat="39.8274650" lon="2.8988090">
        <ele>546.6</ele>
        <time>2018-12-30T14:44:00Z</time>
      </trkpt>
      <trkpt lat="39.8274880" lon="2.8987610">
        <ele>546.8</ele>
        <time>2018-12-30T14:44:01Z</time>
      </trkpt>
      <trkpt lat="39.8275090" lon="2.8987110">
        <ele>546.9</ele>
        <time>2018-12-30T14:44:02Z</time>
      </trkpt>
      <trkpt lat="39.8275280" lon="2.8986570">
        <ele>547.1</ele>
        <time>2018-12-30T14:44:03Z</time>
      </trkpt>
      <trkpt lat="39.8275470" lon="2.8986020">
        <ele>547.3</ele>
        <time>2018-12-30T14:44:04Z</time>
      </trkpt>
      <trkpt lat="39.8275650" lon="2.8985470">
        <ele>547.4</ele>
        <time>2018-12-30T14:44:05Z</time>
      </trkpt>
      <trkpt lat="39.8275860" lon="2.8984960">
        <ele>547.6</ele>
        <time>2018-12-30T14:44:06Z</time>
      </trkpt>
      <trkpt lat="39.8276060" lon="2.8984470">
        <ele>547.7</ele>
        <time>2018-12-30T14:44:07Z</time>
      </trkpt>
      <trkpt lat="39.8276270" lon="2.8983960">
        <ele>547.8</ele>
        <time>2018-12-30T14:44:08Z</time>
      </trkpt>
      <trkpt lat="39.8276490" lon="2.8983460">
        <ele>547.9</ele>
        <time>2018-12-30T14:44:09Z</time>
      </trkpt>
      <trkpt lat="39.8276730" lon="2.8982940">
        <ele>548.1</ele>
        <time>2018-12-30T14:44:10Z</time>
      </trkpt>
      <trkpt lat="39.8276980" lon="2.8982440">
        <ele>548.2</ele>
        <time>2018-12-30T14:44:11Z</time>
      </trkpt>
      <trkpt lat="39.8277260" lon="2.8981960">
        <ele>548.4</ele>
        <time>2018-12-30T14:44:12Z</time>
      </trkpt>
      <trkpt lat="39.8277260" lon="2.8981960">
        <ele>548.4</ele>
        <time>2018-12-30T14:44:13Z</time>
      </trkpt>
      <trkpt lat="39.8277260" lon="2.8981960">
        <ele>548.4</ele>
        <time>2018-12-30T14:44:14Z</time>
      </trkpt>
      <trkpt lat="39.8277260" lon="2.8981960">
        <ele>548.4</ele>
        <time>2018-12-30T14:44:15Z</time>
      </trkpt>
      <trkpt lat="39.8277260" lon="2.8981960">
        <ele>548.4</ele>
        <time>2018-12-30T14:44:16Z</time>
      </trkpt>
    </trkseg>
  </trk>
</gpx>
